<?xml version='1.0' encoding='UTF-8'?><gpx version="1.1" creator="JPX - https://github.com/jenetics/jpx" xmlns="http://www.topografix.com/GPX/1/1"><trk><trkseg><trkpt lat="45.11425361822144" lon="3.132637294481183"><ele>1080.0</ele><time>2026-04-18T15:53:50Z</time></trkpt><trkpt lat="45.11436660904463" lon="3.132648541394355"><ele>1080.0</ele><time>2026-04-18T15:53:52Z</time></trkpt><trkpt lat="45.114436709740716" lon="3.1326400333186752"><ele>1080.0</ele><time>2026-04-18T15:53:53Z</time></trkpt><trkpt lat="45.114516540895345" lon="3.132648829664782"><ele>1080.0</ele><time>2026-04-18T15:53:54Z</time></trkpt><trkpt lat="45.11459937863628" lon="3.1326659975922304"><ele>1080.0</ele><time>2026-04-18T15:53:55Z</time></trkpt><trkpt lat="45.11469086838609" lon="3.1326806810491923"><ele>1080.0</ele><time>2026-04-18T15:53:56Z</time></trkpt><trkpt lat="45.11477446144499" lon="3.1326891676716557"><ele>1080.0</ele><time>2026-04-18T15:53:57Z</time></trkpt><trkpt lat="45.11484576815937" lon="3.1327003727156773"><ele>1080.0</ele><time>2026-04-18T15:53:58Z</time></trkpt><trkpt lat="45.114971663059194" lon="3.1327354113859305"><ele>1080.0</ele><time>2026-04-18T15:54:00Z</time></trkpt><trkpt lat="45.115045242738965" lon="3.1327580185773556"><ele>1080.0</ele><time>2026-04-18T15:54:01Z</time></trkpt><trkpt lat="45.11512754218351" lon="3.1327951400434975"><ele>1080.0</ele><time>2026-04-18T15:54:02Z</time></trkpt><trkpt lat="45.11520691147047" lon="3.1328352925473237"><ele>1080.0</ele><time>2026-04-18T15:54:03Z</time></trkpt><trkpt lat="45.11528578489327" lon="3.1328717379027933"><ele>1079.4</ele><time>2026-04-18T15:54:04Z</time></trkpt><trkpt lat="45.11537030783636" lon="3.132915221601135"><ele>1078.8</ele><time>2026-04-18T15:54:05Z</time></trkpt><trkpt lat="45.11545912061133" lon="3.132969519669795"><ele>1078.2</ele><time>2026-04-18T15:54:06Z</time></trkpt><trkpt lat="45.115547650421185" lon="3.1330283655240767"><ele>1077.6</ele><time>2026-04-18T15:54:07Z</time></trkpt><trkpt lat="45.11563838717237" lon="3.1330857075170524"><ele>1077.0</ele><time>2026-04-18T15:54:08Z</time></trkpt><trkpt lat="45.115722931019995" lon="3.133143636715237"><ele>1076.8333333333333</ele><time>2026-04-18T15:54:09Z</time></trkpt><trkpt lat="45.11580032283447" lon="3.1331873772345906"><ele>1076.6666666666667</ele><time>2026-04-18T15:54:10Z</time></trkpt><trkpt lat="45.11585559247005" lon="3.13324054102706"><ele>1076.5</ele><time>2026-04-18T15:54:11Z</time></trkpt><trkpt lat="45.115907559722" lon="3.1333037653000497"><ele>1076.3333333333335</ele><time>2026-04-18T15:54:12Z</time></trkpt><trkpt lat="45.115926395831636" lon="3.1334672440147218"><ele>1076.1666666666667</ele><time>2026-04-18T15:54:14Z</time></trkpt><trkpt lat="45.11592143797223" lon="3.1335675912749936"><ele>1076.0</ele><time>2026-04-18T15:54:15Z</time></trkpt><trkpt lat="45.11590964756671" lon="3.1336912846451654"><ele>1076.0</ele><time>2026-04-18T15:54:16Z</time></trkpt><trkpt lat="45.115892219382715" lon="3.1338257559178126"><ele>1076.0</ele><time>2026-04-18T15:54:17Z</time></trkpt><trkpt lat="45.11587343959768" lon="3.1339867358727416"><ele>1076.0</ele><time>2026-04-18T15:54:18Z</time></trkpt><trkpt lat="45.11585521999546" lon="3.134144887837243"><ele>1076.0</ele><time>2026-04-18T15:54:19Z</time></trkpt><trkpt lat="45.11583945973551" lon="3.1343074274562075"><ele>1076.0</ele><time>2026-04-18T15:54:20Z</time></trkpt><trkpt lat="45.11581964256529" lon="3.134481982828784"><ele>1076.0</ele><time>2026-04-18T15:54:21Z</time></trkpt><trkpt lat="45.11579744760601" lon="3.1346615226154464"><ele>1076.0</ele><time>2026-04-18T15:54:22Z</time></trkpt><trkpt lat="45.1157632456095" lon="3.134845174021831"><ele>1076.0</ele><time>2026-04-18T15:54:23Z</time></trkpt><trkpt lat="45.11571883224756" lon="3.1350237154230567"><ele>1076.0</ele><time>2026-04-18T15:54:24Z</time></trkpt><trkpt lat="45.11566972085098" lon="3.1352091330077188"><ele>1075.0</ele><time>2026-04-18T15:54:25Z</time></trkpt><trkpt lat="45.115620896394155" lon="3.1354034899594274"><ele>1074.0</ele><time>2026-04-18T15:54:26Z</time></trkpt><trkpt lat="45.11557207978835" lon="3.135605920013395"><ele>1073.0</ele><time>2026-04-18T15:54:27Z</time></trkpt><trkpt lat="45.11553017613563" lon="3.135816259799831"><ele>1072.25</ele><time>2026-04-18T15:54:28Z</time></trkpt><trkpt lat="45.11551219592043" lon="3.136021736920305"><ele>1071.5</ele><time>2026-04-18T15:54:29Z</time></trkpt><trkpt lat="45.11549271314269" lon="3.1362174805142415"><ele>1070.75</ele><time>2026-04-18T15:54:30Z</time></trkpt><trkpt lat="45.1154783453149" lon="3.1364040653242107"><ele>1070.0</ele><time>2026-04-18T15:54:31Z</time></trkpt><trkpt lat="45.11546909981084" lon="3.136589276253066"><ele>1069.5</ele><time>2026-04-18T15:54:32Z</time></trkpt><trkpt lat="45.11546076379498" lon="3.1367755253606195"><ele>1069.0</ele><time>2026-04-18T15:54:33Z</time></trkpt><trkpt lat="45.11544766208283" lon="3.1369778815713922"><ele>1068.5</ele><time>2026-04-18T15:54:34Z</time></trkpt><trkpt lat="45.11542995185511" lon="3.1371839902721437"><ele>1068.0</ele><time>2026-04-18T15:54:35Z</time></trkpt><trkpt lat="45.11540871413576" lon="3.1373993469724293"><ele>1067.0</ele><time>2026-04-18T15:54:36Z</time></trkpt><trkpt lat="45.11538121223862" lon="3.137622333499937"><ele>1066.0</ele><time>2026-04-18T15:54:37Z</time></trkpt><trkpt lat="45.115349278468976" lon="3.1378327083756257"><ele>1065.0</ele><time>2026-04-18T15:54:38Z</time></trkpt><trkpt lat="45.11531036672003" lon="3.138036192285991"><ele>1064.75</ele><time>2026-04-18T15:54:39Z</time></trkpt><trkpt lat="45.11527446249489" lon="3.138227206887305"><ele>1064.5</ele><time>2026-04-18T15:54:40Z</time></trkpt><trkpt lat="45.115236056180386" lon="3.1384349729881844"><ele>1064.25</ele><time>2026-04-18T15:54:41Z</time></trkpt><trkpt lat="45.1152010356388" lon="3.1386469818146825"><ele>1064.0</ele><time>2026-04-18T15:54:42Z</time></trkpt><trkpt lat="45.1151775473213" lon="3.1388611310505756"><ele>1062.0</ele><time>2026-04-18T15:54:43Z</time></trkpt><trkpt lat="45.115166652140964" lon="3.1390784456747824"><ele>1060.0</ele><time>2026-04-18T15:54:44Z</time></trkpt><trkpt lat="45.115170589420266" lon="3.1392932794756523"><ele>1058.0</ele><time>2026-04-18T15:54:45Z</time></trkpt><trkpt lat="45.115178232417755" lon="3.1395121592419253"><ele>1058.0</ele><time>2026-04-18T15:54:46Z</time></trkpt><trkpt lat="45.115192976271615" lon="3.13972947793976"><ele>1058.0</ele><time>2026-04-18T15:54:47Z</time></trkpt><trkpt lat="45.115205128819355" lon="3.1399452388612863"><ele>1058.0</ele><time>2026-04-18T15:54:48Z</time></trkpt><trkpt lat="45.115212340457816" lon="3.1401480203035597"><ele>1057.75</ele><time>2026-04-18T15:54:49Z</time></trkpt><trkpt lat="45.11521682765993" lon="3.140348807370824"><ele>1057.5</ele><time>2026-04-18T15:54:50Z</time></trkpt><trkpt lat="45.11522462900664" lon="3.1405280657425374"><ele>1057.25</ele><time>2026-04-18T15:54:51Z</time></trkpt><trkpt lat="45.11523408198844" lon="3.1406928984042577"><ele>1057.0</ele><time>2026-04-18T15:54:52Z</time></trkpt><trkpt lat="45.11524043317964" lon="3.1408534962664794"><ele>1056.5</ele><time>2026-04-18T15:54:53Z</time></trkpt><trkpt lat="45.115245191407254" lon="3.14101646012344"><ele>1056.0</ele><time>2026-04-18T15:54:54Z</time></trkpt><trkpt lat="45.115254446671656" lon="3.1411827924771925"><ele>1055.5</ele><time>2026-04-18T15:54:55Z</time></trkpt><trkpt lat="45.11526740450092" lon="3.141364864006369"><ele>1055.0</ele><time>2026-04-18T15:54:56Z</time></trkpt><trkpt lat="45.11528862091312" lon="3.141552085412339"><ele>1055.0</ele><time>2026-04-18T15:54:57Z</time></trkpt><trkpt lat="45.115320952313745" lon="3.1417454136638745"><ele>1055.0</ele><time>2026-04-18T15:54:58Z</time></trkpt><trkpt lat="45.11536329837186" lon="3.1419512752854004"><ele>1055.0</ele><time>2026-04-18T15:54:59Z</time></trkpt><trkpt lat="45.11541096448859" lon="3.14215089840903"><ele>1055.0</ele><time>2026-04-18T15:55:00Z</time></trkpt><trkpt lat="45.115456339531995" lon="3.1423520999489676"><ele>1054.5</ele><time>2026-04-18T15:55:01Z</time></trkpt><trkpt lat="45.11549631397674" lon="3.14254393333875"><ele>1054.0</ele><time>2026-04-18T15:55:02Z</time></trkpt><trkpt lat="45.11553431965034" lon="3.142735497054978"><ele>1053.5</ele><time>2026-04-18T15:55:03Z</time></trkpt><trkpt lat="45.11557087819909" lon="3.1429310207025307"><ele>1053.0</ele><time>2026-04-18T15:55:04Z</time></trkpt><trkpt lat="45.11560741486028" lon="3.143134751495172"><ele>1053.0</ele><time>2026-04-18T15:55:05.001Z</time></trkpt><trkpt lat="45.11564301297404" lon="3.143344013291191"><ele>1053.0</ele><time>2026-04-18T15:55:06.001Z</time></trkpt><trkpt lat="45.11568412550394" lon="3.143555848351015"><ele>1053.0</ele><time>2026-04-18T15:55:07.001Z</time></trkpt><trkpt lat="45.11572475491316" lon="3.143779849104385"><ele>1053.3333333333333</ele><time>2026-04-18T15:55:08.001Z</time></trkpt><trkpt lat="45.115764757351336" lon="3.1439926975893284"><ele>1053.6666666666665</ele><time>2026-04-18T15:55:09.001Z</time></trkpt><trkpt lat="45.115802349949114" lon="3.1441929055371007"><ele>1054.0</ele><time>2026-04-18T15:55:10.001Z</time></trkpt><trkpt lat="45.11584841434088" lon="3.144392449250764"><ele>1054.0</ele><time>2026-04-18T15:55:11.001Z</time></trkpt><trkpt lat="45.11590525728592" lon="3.1445745696260774"><ele>1054.0</ele><time>2026-04-18T15:55:12.001Z</time></trkpt><trkpt lat="45.115980493632684" lon="3.144753508626147"><ele>1054.0</ele><time>2026-04-18T15:55:13.001Z</time></trkpt><trkpt lat="45.11607108483436" lon="3.144929370673469"><ele>1054.0</ele><time>2026-04-18T15:55:14.001Z</time></trkpt><trkpt lat="45.116177695782476" lon="3.145107674143953"><ele>1052.3333333333333</ele><time>2026-04-18T15:55:15.001Z</time></trkpt><trkpt lat="45.11629189667245" lon="3.1452948509635985"><ele>1050.6666666666667</ele><time>2026-04-18T15:55:16.001Z</time></trkpt><trkpt lat="45.116387216568114" lon="3.145494173816698"><ele>1049.0</ele><time>2026-04-18T15:55:17.001Z</time></trkpt><trkpt lat="45.11648635720928" lon="3.1456734286609214"><ele>1047.0</ele><time>2026-04-18T15:55:18.001Z</time></trkpt><trkpt lat="45.116591846489726" lon="3.1458404890720413"><ele>1045.0</ele><time>2026-04-18T15:55:19.001Z</time></trkpt><trkpt lat="45.1166544038537" lon="3.1460345936630034"><ele>1043.0</ele><time>2026-04-18T15:55:20.001Z</time></trkpt><trkpt lat="45.116710225216075" lon="3.1462282801440375"><ele>1043.0</ele><time>2026-04-18T15:55:21.001Z</time></trkpt><trkpt lat="45.11675529898853" lon="3.146427059303736"><ele>1043.0</ele><time>2026-04-18T15:55:22.001Z</time></trkpt><trkpt lat="45.116811462982064" lon="3.1466372411614083"><ele>1043.0</ele><time>2026-04-18T15:55:23.001Z</time></trkpt><trkpt lat="45.11685368659196" lon="3.1468643976832635"><ele>1041.0</ele><time>2026-04-18T15:55:24.001Z</time></trkpt><trkpt lat="45.11689896491534" lon="3.147097265279346"><ele>1039.0</ele><time>2026-04-18T15:55:25.001Z</time></trkpt><trkpt lat="45.11694439185064" lon="3.14733405250482"><ele>1037.0</ele><time>2026-04-18T15:55:26.001Z</time></trkpt><trkpt lat="45.11699205945332" lon="3.147559367784922"><ele>1035.3333333333335</ele><time>2026-04-18T15:55:27.001Z</time></trkpt><trkpt lat="45.117035741717565" lon="3.1477724332600103"><ele>1033.6666666666667</ele><time>2026-04-18T15:55:28.001Z</time></trkpt><trkpt lat="45.117077945770404" lon="3.147984774713533"><ele>1032.0</ele><time>2026-04-18T15:55:29.001Z</time></trkpt><trkpt lat="45.11712012126393" lon="3.148194436578006"><ele>1028.75</ele><time>2026-04-18T15:55:30.001Z</time></trkpt><trkpt lat="45.117162041804285" lon="3.148399914397915"><ele>1025.5</ele><time>2026-04-18T15:55:31.001Z</time></trkpt><trkpt lat="45.11721847353371" lon="3.14858241742132"><ele>1022.25</ele><time>2026-04-18T15:55:32.001Z</time></trkpt><trkpt lat="45.11730087644579" lon="3.1487475961642195"><ele>1019.0</ele><time>2026-04-18T15:55:33.001Z</time></trkpt><trkpt lat="45.117403530254215" lon="3.148879990962361"><ele>1018.5</ele><time>2026-04-18T15:55:34.001Z</time></trkpt><trkpt lat="45.11751760868971" lon="3.1489821950174686"><ele>1018.0</ele><time>2026-04-18T15:55:35.001Z</time></trkpt><trkpt lat="45.11764017671262" lon="3.1490446825869194"><ele>1017.5</ele><time>2026-04-18T15:55:36.001Z</time></trkpt><trkpt lat="45.11776901629333" lon="3.1490769327415706"><ele>1017.0</ele><time>2026-04-18T15:55:37.001Z</time></trkpt><trkpt lat="45.117905424159076" lon="3.1490861878616885"><ele>1017.75</ele><time>2026-04-18T15:55:38.001Z</time></trkpt><trkpt lat="45.1180481636823" lon="3.1490775850759336"><ele>1018.5</ele><time>2026-04-18T15:55:39.001Z</time></trkpt><trkpt lat="45.118189453308524" lon="3.1490535405145907"><ele>1019.25</ele><time>2026-04-18T15:55:40.001Z</time></trkpt><trkpt lat="45.118323877268196" lon="3.1490288571470844"><ele>1020.0</ele><time>2026-04-18T15:55:41.001Z</time></trkpt><trkpt lat="45.11844993322745" lon="3.149007624034039"><ele>1020.0</ele><time>2026-04-18T15:55:42.001Z</time></trkpt><trkpt lat="45.11856915528124" lon="3.1489624293625518"><ele>1020.0</ele><time>2026-04-18T15:55:43.001Z</time></trkpt><trkpt lat="45.11867803160913" lon="3.1488842488572186"><ele>1020.0</ele><time>2026-04-18T15:55:44.001Z</time></trkpt><trkpt lat="45.11877702526474" lon="3.148781975568394"><ele>1020.0</ele><time>2026-04-18T15:55:45.001Z</time></trkpt><trkpt lat="45.11887302515152" lon="3.148658052351089"><ele>1020.0</ele><time>2026-04-18T15:55:46.001Z</time></trkpt><trkpt lat="45.118967258930624" lon="3.148525745292102"><ele>1020.0</ele><time>2026-04-18T15:55:47.001Z</time></trkpt><trkpt lat="45.119065161866246" lon="3.1483982583845247"><ele>1020.0</ele><time>2026-04-18T15:55:48Z</time></trkpt><trkpt lat="45.11917112793483" lon="3.148291480078079"><ele>1020.0</ele><time>2026-04-18T15:55:49Z</time></trkpt><trkpt lat="45.11929474770155" lon="3.1482404619016706"><ele>1016.0</ele><time>2026-04-18T15:55:50Z</time></trkpt><trkpt lat="45.11941316593853" lon="3.148206161064053"><ele>1012.0</ele><time>2026-04-18T15:55:51Z</time></trkpt><trkpt lat="45.119535551300814" lon="3.1482032720999356"><ele>1008.0</ele><time>2026-04-18T15:55:52Z</time></trkpt><trkpt lat="45.11965810930804" lon="3.1482333893058305"><ele>1004.0</ele><time>2026-04-18T15:55:53Z</time></trkpt><trkpt lat="45.11977995253175" lon="3.148297870604805"><ele>1003.75</ele><time>2026-04-18T15:55:54Z</time></trkpt><trkpt lat="45.11988200667904" lon="3.148408432112307"><ele>1003.5</ele><time>2026-04-18T15:55:55Z</time></trkpt><trkpt lat="45.119988409029396" lon="3.148530512016476"><ele>1003.25</ele><time>2026-04-18T15:55:56Z</time></trkpt><trkpt lat="45.120063404924885" lon="3.148689237120511"><ele>1003.0</ele><time>2026-04-18T15:55:57Z</time></trkpt><trkpt lat="45.12014032096551" lon="3.1488577949060255"><ele>999.3333333333333</ele><time>2026-04-18T15:55:58Z</time></trkpt><trkpt lat="45.12022390779581" lon="3.1490284054365256"><ele>995.6666666666667</ele><time>2026-04-18T15:55:59Z</time></trkpt><trkpt lat="45.12031378014079" lon="3.14920234407956"><ele>992.0</ele><time>2026-04-18T15:56:00Z</time></trkpt><trkpt lat="45.12040156217405" lon="3.149376362564935"><ele>991.25</ele><time>2026-04-18T15:56:01Z</time></trkpt><trkpt lat="45.12048367817236" lon="3.1495421577904748"><ele>990.5</ele><time>2026-04-18T15:56:02Z</time></trkpt><trkpt lat="45.12056948164982" lon="3.1497050566126874"><ele>989.75</ele><time>2026-04-18T15:56:03Z</time></trkpt><trkpt lat="45.120666424703266" lon="3.1498510302830818"><ele>989.0</ele><time>2026-04-18T15:56:04Z</time></trkpt><trkpt lat="45.120771720087056" lon="3.1499858869027704"><ele>987.3333333333334</ele><time>2026-04-18T15:56:05Z</time></trkpt><trkpt lat="45.12088633357804" lon="3.150113498027543"><ele>985.6666666666667</ele><time>2026-04-18T15:56:06Z</time></trkpt><trkpt lat="45.12100608343322" lon="3.15022986147241"><ele>984.0</ele><time>2026-04-18T15:56:07Z</time></trkpt><trkpt lat="45.12114726713239" lon="3.1503415160309327"><ele>984.0</ele><time>2026-04-18T15:56:08Z</time></trkpt><trkpt lat="45.121285125416264" lon="3.150439303204995"><ele>984.0</ele><time>2026-04-18T15:56:09Z</time></trkpt><trkpt lat="45.121435532306776" lon="3.1505259797019662"><ele>984.0</ele><time>2026-04-18T15:56:10Z</time></trkpt><trkpt lat="45.12159180645876" lon="3.150614400342686"><ele>983.6666666666667</ele><time>2026-04-18T15:56:11Z</time></trkpt><trkpt lat="45.121743676143566" lon="3.150705927934284"><ele>983.3333333333334</ele><time>2026-04-18T15:56:12Z</time></trkpt><trkpt lat="45.12190354173905" lon="3.1508068236385642"><ele>983.0</ele><time>2026-04-18T15:56:13Z</time></trkpt><trkpt lat="45.12205679635092" lon="3.1509093967301216"><ele>982.3333333333334</ele><time>2026-04-18T15:56:14Z</time></trkpt><trkpt lat="45.122210687814096" lon="3.1510093732619984"><ele>981.6666666666667</ele><time>2026-04-18T15:56:15Z</time></trkpt><trkpt lat="45.12236328630807" lon="3.151091613141044"><ele>981.0</ele><time>2026-04-18T15:56:16Z</time></trkpt><trkpt lat="45.12251391761382" lon="3.1511477030095385"><ele>980.0</ele><time>2026-04-18T15:56:17Z</time></trkpt><trkpt lat="45.12266656856282" lon="3.1511680524909265"><ele>979.0</ele><time>2026-04-18T15:56:18Z</time></trkpt><trkpt lat="45.12283019160973" lon="3.1511525494262993"><ele>978.0</ele><time>2026-04-18T15:56:19Z</time></trkpt><trkpt lat="45.12299750778608" lon="3.151113475993202"><ele>978.0</ele><time>2026-04-18T15:56:20Z</time></trkpt><trkpt lat="45.12314953077057" lon="3.1510788128458533"><ele>978.0</ele><time>2026-04-18T15:56:21Z</time></trkpt><trkpt lat="45.12330023598235" lon="3.151067137495689"><ele>978.0</ele><time>2026-04-18T15:56:22Z</time></trkpt><trkpt lat="45.12343892036318" lon="3.1510984358691054"><ele>978.0</ele><time>2026-04-18T15:56:23.001Z</time></trkpt><trkpt lat="45.12356427323523" lon="3.1511881984323837"><ele>977.25</ele><time>2026-04-18T15:56:24.001Z</time></trkpt><trkpt lat="45.123688947146846" lon="3.151277835292129"><ele>976.5</ele><time>2026-04-18T15:56:25.001Z</time></trkpt><trkpt lat="45.12381725522345" lon="3.151373638225864"><ele>975.75</ele><time>2026-04-18T15:56:26.001Z</time></trkpt><trkpt lat="45.123943509224134" lon="3.151507912219817"><ele>975.0</ele><time>2026-04-18T15:56:27.001Z</time></trkpt><trkpt lat="45.12406265897884" lon="3.151643262924533"><ele>974.6666666666667</ele><time>2026-04-18T15:56:28.001Z</time></trkpt><trkpt lat="45.124188868500305" lon="3.151771592599528"><ele>974.3333333333334</ele><time>2026-04-18T15:56:29.001Z</time></trkpt><trkpt lat="45.12432221764482" lon="3.151898048479814"><ele>974.0</ele><time>2026-04-18T15:56:30.001Z</time></trkpt><trkpt lat="45.12445191297231" lon="3.1520152869014257"><ele>974.0</ele><time>2026-04-18T15:56:31.001Z</time></trkpt><trkpt lat="45.12458446087588" lon="3.152124242838312"><ele>974.0</ele><time>2026-04-18T15:56:32.001Z</time></trkpt><trkpt lat="45.12472952974343" lon="3.152206877939584"><ele>974.0</ele><time>2026-04-18T15:56:33.001Z</time></trkpt><trkpt lat="45.12487529607904" lon="3.1522630977871544"><ele>973.75</ele><time>2026-04-18T15:56:34.001Z</time></trkpt><trkpt lat="45.12501474356801" lon="3.1522921709246106"><ele>973.5</ele><time>2026-04-18T15:56:35.001Z</time></trkpt><trkpt lat="45.12515190338873" lon="3.152306412289805"><ele>973.25</ele><time>2026-04-18T15:56:36.001Z</time></trkpt><trkpt lat="45.12528848608394" lon="3.152309736173001"><ele>973.0</ele><time>2026-04-18T15:56:37.001Z</time></trkpt><trkpt lat="45.12541948832579" lon="3.1522997152228793"><ele>973.0</ele><time>2026-04-18T15:56:38.001Z</time></trkpt><trkpt lat="45.12555066574012" lon="3.1522837070077028"><ele>973.0</ele><time>2026-04-18T15:56:39.001Z</time></trkpt><trkpt lat="45.12567682438485" lon="3.152271248903422"><ele>973.0</ele><time>2026-04-18T15:56:40.001Z</time></trkpt><trkpt lat="45.1257894809433" lon="3.1522697296456736"><ele>973.0</ele><time>2026-04-18T15:56:41.001Z</time></trkpt><trkpt lat="45.125895706784796" lon="3.1522714559582"><ele>971.8333333333333</ele><time>2026-04-18T15:56:42.001Z</time></trkpt><trkpt lat="45.12598752899551" lon="3.152272945871137"><ele>970.6666666666666</ele><time>2026-04-18T15:56:43.001Z</time></trkpt><trkpt lat="45.126075416245165" lon="3.1522808158191347"><ele>969.5</ele><time>2026-04-18T15:56:44.001Z</time></trkpt><trkpt lat="45.126146204685654" lon="3.1523121120659328"><ele>968.3333333333333</ele><time>2026-04-18T15:56:45.001Z</time></trkpt><trkpt lat="45.1262126928628" lon="3.15232912033516"><ele>967.1666666666666</ele><time>2026-04-18T15:56:46.001Z</time></trkpt><trkpt lat="45.12628741229494" lon="3.1522319802888896"><ele>966.0</ele><time>2026-04-18T15:56:47.001Z</time></trkpt><trkpt lat="45.12635841049778" lon="3.152171892164429"><ele>966.0</ele><time>2026-04-18T15:56:48.001Z</time></trkpt><trkpt lat="45.12643007845508" lon="3.1521025964230396"><ele>965.9999999999999</ele><time>2026-04-18T15:56:49.001Z</time></trkpt><trkpt lat="45.126522240403304" lon="3.15204968499003"><ele>965.9999999999999</ele><time>2026-04-18T15:56:50.001Z</time></trkpt><trkpt lat="45.12660833460275" lon="3.151971884479827"><ele>966.0</ele><time>2026-04-18T15:56:51.001Z</time></trkpt><trkpt lat="45.12668184498271" lon="3.151897879562142"><ele>966.0</ele><time>2026-04-18T15:56:52.001Z</time></trkpt><trkpt lat="45.126755208162436" lon="3.1517792311391073"><ele>965.6666666666666</ele><time>2026-04-18T15:56:53.001Z</time></trkpt><trkpt lat="45.12682032042931" lon="3.151689799272708"><ele>965.3333333333333</ele><time>2026-04-18T15:56:54.001Z</time></trkpt><trkpt lat="45.12689489329919" lon="3.1516303165370245"><ele>965.0</ele><time>2026-04-18T15:56:55.001Z</time></trkpt><trkpt lat="45.12695306244199" lon="3.1515721784678083"><ele>964.6666666666666</ele><time>2026-04-18T15:56:56.001Z</time></trkpt><trkpt lat="45.12701067351189" lon="3.151519706470108"><ele>964.3333333333333</ele><time>2026-04-18T15:56:57.001Z</time></trkpt><trkpt lat="45.127056541108644" lon="3.1514552293784956"><ele>964.0</ele><time>2026-04-18T15:56:58.001Z</time></trkpt><trkpt lat="45.12715366787241" lon="3.151386982413675"><ele>963.9999999999999</ele><time>2026-04-18T15:57:00.001Z</time></trkpt><trkpt lat="45.12714560605617" lon="3.1512363950285636"><ele>964.0</ele><time>2026-04-18T15:57:02.001Z</time></trkpt><trkpt lat="45.127070484088634" lon="3.1511252768235916"><ele>964.0</ele><time>2026-04-18T15:57:04.001Z</time></trkpt><trkpt lat="45.127048706985775" lon="3.1510369011420045"><ele>964.0</ele><time>2026-04-18T15:57:05.001Z</time></trkpt><trkpt lat="45.12702475660403" lon="3.150951386533472"><ele>963.9999999999999</ele><time>2026-04-18T15:57:06.001Z</time></trkpt><trkpt lat="45.127005608102" lon="3.150843464518903"><ele>964.0</ele><time>2026-04-18T15:57:07.001Z</time></trkpt><trkpt lat="45.126990120378814" lon="3.1507357140183623"><ele>962.9999999999999</ele><time>2026-04-18T15:57:08.001Z</time></trkpt><trkpt lat="45.12697896886418" lon="3.150626886149246"><ele>962.0</ele><time>2026-04-18T15:57:09.001Z</time></trkpt><trkpt lat="45.126951068049735" lon="3.1505208408683743"><ele>961.0</ele><time>2026-04-18T15:57:10.001Z</time></trkpt><trkpt lat="45.12694871793923" lon="3.150403194206449"><ele>960.0</ele><time>2026-04-18T15:57:11.001Z</time></trkpt><trkpt lat="45.12691919930473" lon="3.150281048343816"><ele>958.9999999999999</ele><time>2026-04-18T15:57:12.001Z</time></trkpt><trkpt lat="45.126882037202684" lon="3.1501646806121366"><ele>958.0</ele><time>2026-04-18T15:57:13.001Z</time></trkpt><trkpt lat="45.12683300265461" lon="3.1500437186881145"><ele>958.0</ele><time>2026-04-18T15:57:14.001Z</time></trkpt><trkpt lat="45.12677992451902" lon="3.149918457922394"><ele>958.0</ele><time>2026-04-18T15:57:15.001Z</time></trkpt><trkpt lat="45.12673238400606" lon="3.1497897194141284"><ele>958.0</ele><time>2026-04-18T15:57:16.001Z</time></trkpt><trkpt lat="45.12669802533048" lon="3.1496496801656235"><ele>958.0</ele><time>2026-04-18T15:57:17.001Z</time></trkpt><trkpt lat="45.12667125578629" lon="3.1495038513519447"><ele>958.0</ele><time>2026-04-18T15:57:18.001Z</time></trkpt><trkpt lat="45.126639888317264" lon="3.1493361690892034"><ele>957.4999999999999</ele><time>2026-04-18T15:57:19.001Z</time></trkpt><trkpt lat="45.12671136382639" lon="3.1493399557340447"><ele>957.0</ele><time>2026-04-18T15:57:20.001Z</time></trkpt><trkpt lat="45.12675718811338" lon="3.14924576381269"><ele>956.5</ele><time>2026-04-18T15:57:21.001Z</time></trkpt><trkpt lat="45.12682251495091" lon="3.149184387132647"><ele>956.0</ele><time>2026-04-18T15:57:22.001Z</time></trkpt><trkpt lat="45.12688826992179" lon="3.1491099454049443"><ele>955.4999999999999</ele><time>2026-04-18T15:57:23.001Z</time></trkpt><trkpt lat="45.1269585178038" lon="3.1490340799495784"><ele>955.0</ele><time>2026-04-18T15:57:24.001Z</time></trkpt><trkpt lat="45.12703827608615" lon="3.148949092180108"><ele>955.0</ele><time>2026-04-18T15:57:25.001Z</time></trkpt><trkpt lat="45.12712578181968" lon="3.1488558489054777"><ele>955.0</ele><time>2026-04-18T15:57:26.001Z</time></trkpt><trkpt lat="45.127218258417884" lon="3.148757309662675"><ele>955.0</ele><time>2026-04-18T15:57:27.001Z</time></trkpt><trkpt lat="45.12731380917902" lon="3.1486562858860823"><ele>955.0</ele><time>2026-04-18T15:57:28.001Z</time></trkpt><trkpt lat="45.12741011462198" lon="3.1485542555468173"><ele>955.75</ele><time>2026-04-18T15:57:29.001Z</time></trkpt><trkpt lat="45.127506489704764" lon="3.1484521529535017"><ele>956.5</ele><time>2026-04-18T15:57:30.001Z</time></trkpt><trkpt lat="45.12760180130265" lon="3.148351173099296"><ele>957.25</ele><time>2026-04-18T15:57:31.001Z</time></trkpt><trkpt lat="45.1276963580639" lon="3.148248681970463"><ele>958.0</ele><time>2026-04-18T15:57:32.001Z</time></trkpt><trkpt lat="45.12779405933092" lon="3.148154904926264"><ele>958.0</ele><time>2026-04-18T15:57:33.001Z</time></trkpt><trkpt lat="45.12789956100889" lon="3.1480723812047064"><ele>958.0</ele><time>2026-04-18T15:57:34.001Z</time></trkpt><trkpt lat="45.12800947498399" lon="3.1479913311292544"><ele>958.0</ele><time>2026-04-18T15:57:35.001Z</time></trkpt><trkpt lat="45.128123327996036" lon="3.147912016337157"><ele>958.0</ele><time>2026-04-18T15:57:36.001Z</time></trkpt><trkpt lat="45.12823789002311" lon="3.1478211084547123"><ele>958.0</ele><time>2026-04-18T15:57:37.001Z</time></trkpt><trkpt lat="45.12834766234968" lon="3.14771736520922"><ele>958.0</ele><time>2026-04-18T15:57:38.001Z</time></trkpt><trkpt lat="45.12845219986628" lon="3.147581264940115"><ele>958.0</ele><time>2026-04-18T15:57:39.001Z</time></trkpt><trkpt lat="45.12855526248873" lon="3.1474585342346524"><ele>958.0</ele><time>2026-04-18T15:57:40.001Z</time></trkpt><trkpt lat="45.12865262531492" lon="3.1473379235895274"><ele>958.0</ele><time>2026-04-18T15:57:41.001Z</time></trkpt><trkpt lat="45.128759270069935" lon="3.1472425033886515"><ele>958.0</ele><time>2026-04-18T15:57:42.001Z</time></trkpt><trkpt lat="45.12886371398195" lon="3.147119815172828"><ele>958.0</ele><time>2026-04-18T15:57:43.001Z</time></trkpt><trkpt lat="45.12897239664964" lon="3.1469933245417474"><ele>958.0</ele><time>2026-04-18T15:57:44.001Z</time></trkpt><trkpt lat="45.12908018954659" lon="3.146873427855834"><ele>957.4</ele><time>2026-04-18T15:57:45.001Z</time></trkpt><trkpt lat="45.12919214471077" lon="3.1467762710215696"><ele>956.8</ele><time>2026-04-18T15:57:46.001Z</time></trkpt><trkpt lat="45.12929470160823" lon="3.1466898043374125"><ele>956.2</ele><time>2026-04-18T15:57:47.001Z</time></trkpt><trkpt lat="45.1293843873434" lon="3.1466231795547106"><ele>955.6</ele><time>2026-04-18T15:57:48.001Z</time></trkpt><trkpt lat="45.1294616533945" lon="3.1465650489977652"><ele>955.0</ele><time>2026-04-18T15:57:49.001Z</time></trkpt><trkpt lat="45.12954568361279" lon="3.1465953688982604"><ele>955.0</ele><time>2026-04-18T15:57:50.001Z</time></trkpt><trkpt lat="45.12960777018142" lon="3.1466878585178244"><ele>955.0</ele><time>2026-04-18T15:57:51.001Z</time></trkpt><trkpt lat="45.12969572304773" lon="3.14672623695065"><ele>955.0</ele><time>2026-04-18T15:57:52.001Z</time></trkpt><trkpt lat="45.12979723294976" lon="3.1467606881540218"><ele>955.0</ele><time>2026-04-18T15:57:53.001Z</time></trkpt><trkpt lat="45.12990465339793" lon="3.1467490691051334"><ele>955.0</ele><time>2026-04-18T15:57:54.001Z</time></trkpt><trkpt lat="45.130028879452084" lon="3.1467196149662127"><ele>954.5</ele><time>2026-04-18T15:57:55.001Z</time></trkpt><trkpt lat="45.13015604790839" lon="3.1466821407999266"><ele>954.0</ele><time>2026-04-18T15:57:56.001Z</time></trkpt><trkpt lat="45.13028745645847" lon="3.146632915758357"><ele>953.5</ele><time>2026-04-18T15:57:57.001Z</time></trkpt><trkpt lat="45.13041723265071" lon="3.1465734616755534"><ele>953.0</ele><time>2026-04-18T15:57:58.001Z</time></trkpt><trkpt lat="45.13055134932987" lon="3.146507737452775"><ele>952.5</ele><time>2026-04-18T15:57:59.001Z</time></trkpt><trkpt lat="45.13069028677214" lon="3.146443905268067"><ele>952.0</ele><time>2026-04-18T15:58:00.001Z</time></trkpt><trkpt lat="45.130832165402616" lon="3.146381969763246"><ele>951.5</ele><time>2026-04-18T15:58:01.001Z</time></trkpt><trkpt lat="45.130977856981445" lon="3.1463224716730007"><ele>951.0</ele><time>2026-04-18T15:58:02.001Z</time></trkpt><trkpt lat="45.13111427697918" lon="3.146266187677469"><ele>951.0</ele><time>2026-04-18T15:58:03.001Z</time></trkpt><trkpt lat="45.1312453691709" lon="3.146205134092653"><ele>951.0</ele><time>2026-04-18T15:58:04Z</time></trkpt><trkpt lat="45.131366681077196" lon="3.1461287671974842"><ele>951.0</ele><time>2026-04-18T15:58:05Z</time></trkpt><trkpt lat="45.13148075028925" lon="3.146025066185741"><ele>951.0</ele><time>2026-04-18T15:58:06Z</time></trkpt><trkpt lat="45.13158846682807" lon="3.145895817352783"><ele>948.25</ele><time>2026-04-18T15:58:07Z</time></trkpt><trkpt lat="45.13168529051649" lon="3.1457374013989012"><ele>945.5</ele><time>2026-04-18T15:58:08Z</time></trkpt><trkpt lat="45.13176955091666" lon="3.1455625454341494"><ele>942.75</ele><time>2026-04-18T15:58:09Z</time></trkpt><trkpt lat="45.131829726487354" lon="3.1453808824823613"><ele>940.0</ele><time>2026-04-18T15:58:10Z</time></trkpt><trkpt lat="45.13186539936693" lon="3.145186953032626"><ele>940.0</ele><time>2026-04-18T15:58:11.001Z</time></trkpt><trkpt lat="45.131906439294475" lon="3.1450104497933746"><ele>940.0</ele><time>2026-04-18T15:58:12.001Z</time></trkpt><trkpt lat="45.13194161311191" lon="3.1448660776325297"><ele>940.0</ele><time>2026-04-18T15:58:13.001Z</time></trkpt><trkpt lat="45.13198295831528" lon="3.1447602133662396"><ele>940.0</ele><time>2026-04-18T15:58:14.001Z</time></trkpt><trkpt lat="45.13203626940151" lon="3.1446993362888076"><ele>940.0</ele><time>2026-04-18T15:58:15.001Z</time></trkpt><trkpt lat="45.13209228537297" lon="3.1446412364341274"><ele>940.0</ele><time>2026-04-18T15:58:16.001Z</time></trkpt><trkpt lat="45.132178679991384" lon="3.1446807737048386"><ele>940.0</ele><time>2026-04-18T15:58:17.001Z</time></trkpt><trkpt lat="45.13224242399967" lon="3.1447883092410276"><ele>940.0</ele><time>2026-04-18T15:58:18.001Z</time></trkpt><trkpt lat="45.132272156937745" lon="3.144929670736111"><ele>940.0</ele><time>2026-04-18T15:58:19.001Z</time></trkpt><trkpt lat="45.13226602392887" lon="3.145080337620913"><ele>940.0</ele><time>2026-04-18T15:58:20.001Z</time></trkpt><trkpt lat="45.13223774777931" lon="3.14522733410668"><ele>940.0</ele><time>2026-04-18T15:58:21.001Z</time></trkpt><trkpt lat="45.13222138776057" lon="3.145389389791023"><ele>940.0</ele><time>2026-04-18T15:58:22.001Z</time></trkpt><trkpt lat="45.13221952644314" lon="3.1455711124418704"><ele>940.0</ele><time>2026-04-18T15:58:23.001Z</time></trkpt><trkpt lat="45.13221362765249" lon="3.145764794446276"><ele>940.0</ele><time>2026-04-18T15:58:24.001Z</time></trkpt><trkpt lat="45.13220538230545" lon="3.1459584481686087"><ele>939.5</ele><time>2026-04-18T15:58:25.001Z</time></trkpt><trkpt lat="45.13219926974219" lon="3.1461496876788577"><ele>939.0</ele><time>2026-04-18T15:58:26.001Z</time></trkpt><trkpt lat="45.13220340455649" lon="3.1463302365127714"><ele>938.5</ele><time>2026-04-18T15:58:27.001Z</time></trkpt><trkpt lat="45.132228114355854" lon="3.1465073404826085"><ele>938.0</ele><time>2026-04-18T15:58:28.001Z</time></trkpt><trkpt lat="45.13227630164129" lon="3.146697992674896"><ele>937.3333333333334</ele><time>2026-04-18T15:58:29.001Z</time></trkpt><trkpt lat="45.132349266329804" lon="3.1468872999020587"><ele>936.6666666666667</ele><time>2026-04-18T15:58:30.001Z</time></trkpt><trkpt lat="45.13243708751325" lon="3.1470837867359185"><ele>936.0</ele><time>2026-04-18T15:58:31.001Z</time></trkpt><trkpt lat="45.132511709074926" lon="3.1472560994541814"><ele>933.25</ele><time>2026-04-18T15:58:32.001Z</time></trkpt><trkpt lat="45.13258837206776" lon="3.147397360104044"><ele>930.5</ele><time>2026-04-18T15:58:33.001Z</time></trkpt><trkpt lat="45.13268504572661" lon="3.147494718446011"><ele>927.75</ele><time>2026-04-18T15:58:34.001Z</time></trkpt><trkpt lat="45.13280381811602" lon="3.1475549829892193"><ele>925.0</ele><time>2026-04-18T15:58:35.001Z</time></trkpt><trkpt lat="45.13293564434407" lon="3.147580585986912"><ele>925.0</ele><time>2026-04-18T15:58:36.001Z</time></trkpt><trkpt lat="45.13307701856925" lon="3.1475722642698423"><ele>925.0</ele><time>2026-04-18T15:58:37.001Z</time></trkpt><trkpt lat="45.1332216274799" lon="3.147528615935736"><ele>925.0</ele><time>2026-04-18T15:58:38.001Z</time></trkpt><trkpt lat="45.13337000710474" lon="3.1474605077920152"><ele>925.0</ele><time>2026-04-18T15:58:39.001Z</time></trkpt><trkpt lat="45.13351367846298" lon="3.1473925509004226"><ele>924.75</ele><time>2026-04-18T15:58:40.001Z</time></trkpt><trkpt lat="45.133665395960584" lon="3.1473656284695304"><ele>924.5</ele><time>2026-04-18T15:58:41.001Z</time></trkpt><trkpt lat="45.133811885738666" lon="3.1473419576616424"><ele>924.25</ele><time>2026-04-18T15:58:42.001Z</time></trkpt><trkpt lat="45.133957581293" lon="3.147346649547976"><ele>924.0</ele><time>2026-04-18T15:58:43.001Z</time></trkpt><trkpt lat="45.134105688165995" lon="3.147350321172889"><ele>927.0</ele><time>2026-04-18T15:58:44.001Z</time></trkpt><trkpt lat="45.13425581273642" lon="3.147386305468672"><ele>930.0</ele><time>2026-04-18T15:58:45.001Z</time></trkpt><trkpt lat="45.134404582245615" lon="3.1474088957282675"><ele>933.0</ele><time>2026-04-18T15:58:46.001Z</time></trkpt><trkpt lat="45.13456907431041" lon="3.147428513598154"><ele>933.0</ele><time>2026-04-18T15:58:47.001Z</time></trkpt><trkpt lat="45.13472182778728" lon="3.1474241229278994"><ele>933.0</ele><time>2026-04-18T15:58:48.001Z</time></trkpt><trkpt lat="45.13486782262971" lon="3.1473811412981054"><ele>933.0</ele><time>2026-04-18T15:58:49.001Z</time></trkpt><trkpt lat="45.13500053736908" lon="3.1472915695529715"><ele>933.0</ele><time>2026-04-18T15:58:50.001Z</time></trkpt><trkpt lat="45.13513692234096" lon="3.147216310364224"><ele>931.6666666666667</ele><time>2026-04-18T15:58:51.001Z</time></trkpt><trkpt lat="45.13528668613826" lon="3.1471212598952927"><ele>930.3333333333334</ele><time>2026-04-18T15:58:52.001Z</time></trkpt><trkpt lat="45.13543590561647" lon="3.1470273502867254"><ele>929.0</ele><time>2026-04-18T15:58:53.001Z</time></trkpt><trkpt lat="45.13558652390582" lon="3.1469440641045763"><ele>932.6666666666667</ele><time>2026-04-18T15:58:54.001Z</time></trkpt><trkpt lat="45.13574143445996" lon="3.1468789441310134"><ele>936.3333333333333</ele><time>2026-04-18T15:58:55.001Z</time></trkpt><trkpt lat="45.13589677791759" lon="3.146797962205024"><ele>940.0</ele><time>2026-04-18T15:58:56.001Z</time></trkpt><trkpt lat="45.136070613840566" lon="3.146741030890059"><ele>940.0</ele><time>2026-04-18T15:58:57.001Z</time></trkpt><trkpt lat="45.13623961085889" lon="3.146677859514278"><ele>940.0</ele><time>2026-04-18T15:58:58.001Z</time></trkpt><trkpt lat="45.13640907046249" lon="3.1466081762127414"><ele>940.0</ele><time>2026-04-18T15:58:59.001Z</time></trkpt><trkpt lat="45.13657500435862" lon="3.146538326593844"><ele>939.6666666666666</ele><time>2026-04-18T15:59:00.001Z</time></trkpt><trkpt lat="45.136743252332536" lon="3.1464727992444854"><ele>939.3333333333333</ele><time>2026-04-18T15:59:01.001Z</time></trkpt><trkpt lat="45.136896127768985" lon="3.146413103082311"><ele>939.0</ele><time>2026-04-18T15:59:02.001Z</time></trkpt><trkpt lat="45.13704614703922" lon="3.14636236019572"><ele>939.0</ele><time>2026-04-18T15:59:03.001Z</time></trkpt><trkpt lat="45.13719499622436" lon="3.1463523322994607"><ele>939.0</ele><time>2026-04-18T15:59:04.001Z</time></trkpt><trkpt lat="45.137341880523266" lon="3.1463373766746456"><ele>939.0</ele><time>2026-04-18T15:59:05.001Z</time></trkpt><trkpt lat="45.13748635727967" lon="3.146306687202129"><ele>939.0</ele><time>2026-04-18T15:59:06.001Z</time></trkpt><trkpt lat="45.137642237770045" lon="3.146297956602035"><ele>942.0</ele><time>2026-04-18T15:59:07.001Z</time></trkpt><trkpt lat="45.137796151313424" lon="3.146286112910958"><ele>945.0</ele><time>2026-04-18T15:59:08.001Z</time></trkpt><trkpt lat="45.13795391948074" lon="3.146263869044731"><ele>948.0</ele><time>2026-04-18T15:59:09.001Z</time></trkpt><trkpt lat="45.13811665789021" lon="3.146264198804088"><ele>950.6666666666667</ele><time>2026-04-18T15:59:10.001Z</time></trkpt><trkpt lat="45.13826932106176" lon="3.1462206705970415"><ele>953.3333333333334</ele><time>2026-04-18T15:59:11.001Z</time></trkpt><trkpt lat="45.138424206733134" lon="3.1461943785234"><ele>956.0</ele><time>2026-04-18T15:59:12.001Z</time></trkpt><trkpt lat="45.13858428568401" lon="3.1461578324248056"><ele>956.0</ele><time>2026-04-18T15:59:13.001Z</time></trkpt><trkpt lat="45.138737151874246" lon="3.1461049493578166"><ele>956.0</ele><time>2026-04-18T15:59:14.001Z</time></trkpt><trkpt lat="45.138885128784736" lon="3.1460184592538267"><ele>956.0</ele><time>2026-04-18T15:59:15.001Z</time></trkpt><trkpt lat="45.139031345234194" lon="3.14590554637753"><ele>958.0</ele><time>2026-04-18T15:59:16.001Z</time></trkpt><trkpt lat="45.13917337445847" lon="3.1457956560328006"><ele>960.0</ele><time>2026-04-18T15:59:17.001Z</time></trkpt><trkpt lat="45.13931027467332" lon="3.1456880380314325"><ele>962.0</ele><time>2026-04-18T15:59:18.001Z</time></trkpt><trkpt lat="45.13944799178332" lon="3.1455725233302343"><ele>962.0</ele><time>2026-04-18T15:59:19.001Z</time></trkpt><trkpt lat="45.139600208745335" lon="3.1454723682700902"><ele>962.0</ele><time>2026-04-18T15:59:20.001Z</time></trkpt><trkpt lat="45.13973357920037" lon="3.1453660514839097"><ele>962.0</ele><time>2026-04-18T15:59:21.001Z</time></trkpt><trkpt lat="45.13986211542855" lon="3.1452470411836266"><ele>965.0</ele><time>2026-04-18T15:59:22.001Z</time></trkpt><trkpt lat="45.13999869457907" lon="3.1451404361302697"><ele>968.0</ele><time>2026-04-18T15:59:23.001Z</time></trkpt><trkpt lat="45.14013544518334" lon="3.1450242064158203"><ele>971.0</ele><time>2026-04-18T15:59:24.001Z</time></trkpt><trkpt lat="45.14027233531374" lon="3.144922425780317"><ele>970.6666666666667</ele><time>2026-04-18T15:59:25.001Z</time></trkpt><trkpt lat="45.140410610674934" lon="3.1448166510050792"><ele>970.3333333333333</ele><time>2026-04-18T15:59:26.001Z</time></trkpt><trkpt lat="45.14055061071089" lon="3.144724863322465"><ele>970.0</ele><time>2026-04-18T15:59:27.001Z</time></trkpt><trkpt lat="45.14070354751267" lon="3.1446878656981903"><ele>971.0</ele><time>2026-04-18T15:59:28.001Z</time></trkpt><trkpt lat="45.1408471510071" lon="3.1446525805772128"><ele>972.0</ele><time>2026-04-18T15:59:29.001Z</time></trkpt><trkpt lat="45.140995825470874" lon="3.1446057058762014"><ele>973.0</ele><time>2026-04-18T15:59:30.001Z</time></trkpt><trkpt lat="45.14114370993813" lon="3.144582949143202"><ele>974.0</ele><time>2026-04-18T15:59:31.001Z</time></trkpt><trkpt lat="45.141294936953344" lon="3.144543510233269"><ele>974.0</ele><time>2026-04-18T15:59:32.001Z</time></trkpt><trkpt lat="45.14144561666533" lon="3.1445066749597115"><ele>974.0</ele><time>2026-04-18T15:59:33.001Z</time></trkpt><trkpt lat="45.1415973866248" lon="3.1444691199371415"><ele>974.0</ele><time>2026-04-18T15:59:34.001Z</time></trkpt><trkpt lat="45.141753478650294" lon="3.1444207801953925"><ele>976.3333333333334</ele><time>2026-04-18T15:59:35.001Z</time></trkpt><trkpt lat="45.14191236658235" lon="3.144366293523953"><ele>978.6666666666667</ele><time>2026-04-18T15:59:36.001Z</time></trkpt><trkpt lat="45.14207478122226" lon="3.1443164420025127"><ele>981.0</ele><time>2026-04-18T15:59:37.001Z</time></trkpt><trkpt lat="45.14224233285872" lon="3.144261572582418"><ele>982.6666666666667</ele><time>2026-04-18T15:59:38.001Z</time></trkpt><trkpt lat="45.142406874888174" lon="3.1442132180991518"><ele>984.3333333333334</ele><time>2026-04-18T15:59:39.001Z</time></trkpt><trkpt lat="45.14256658201395" lon="3.144167760184469"><ele>986.0</ele><time>2026-04-18T15:59:40.001Z</time></trkpt><trkpt lat="45.14273031500911" lon="3.1441102449340694"><ele>986.0</ele><time>2026-04-18T15:59:41.001Z</time></trkpt><trkpt lat="45.14289385717691" lon="3.144058067931921"><ele>986.0</ele><time>2026-04-18T15:59:42.001Z</time></trkpt><trkpt lat="45.14305497382705" lon="3.144004252749703"><ele>986.0</ele><time>2026-04-18T15:59:43.001Z</time></trkpt><trkpt lat="45.14321649693552" lon="3.143947298441693"><ele>986.3333333333334</ele><time>2026-04-18T15:59:44.001Z</time></trkpt><trkpt lat="45.1433731683193" lon="3.1438952757260865"><ele>986.6666666666667</ele><time>2026-04-18T15:59:45.001Z</time></trkpt><trkpt lat="45.143535884460064" lon="3.1438305282384267"><ele>987.0</ele><time>2026-04-18T15:59:46.001Z</time></trkpt><trkpt lat="45.1436876547111" lon="3.1437920981024874"><ele>987.0</ele><time>2026-04-18T15:59:47.001Z</time></trkpt><trkpt lat="45.14383309574732" lon="3.1437716028722993"><ele>987.0</ele><time>2026-04-18T15:59:48.001Z</time></trkpt><trkpt lat="45.143971535462114" lon="3.143752842453038"><ele>987.0</ele><time>2026-04-18T15:59:49.001Z</time></trkpt><trkpt lat="45.144104602528145" lon="3.1437713935394496"><ele>987.0</ele><time>2026-04-18T15:59:50.001Z</time></trkpt><trkpt lat="45.14422371039013" lon="3.1438126682494976"><ele>987.25</ele><time>2026-04-18T15:59:51.001Z</time></trkpt><trkpt lat="45.144334936307985" lon="3.1438549774682656"><ele>987.5</ele><time>2026-04-18T15:59:52.001Z</time></trkpt><trkpt lat="45.144448878522624" lon="3.1438960421771007"><ele>987.75</ele><time>2026-04-18T15:59:53.001Z</time></trkpt><trkpt lat="45.14456584713882" lon="3.1439176556624235"><ele>988.0</ele><time>2026-04-18T15:59:54.001Z</time></trkpt><trkpt lat="45.14466720698146" lon="3.1439507897773207"><ele>988.0</ele><time>2026-04-18T15:59:55.001Z</time></trkpt><trkpt lat="45.144765925364204" lon="3.1439711173288134"><ele>988.0</ele><time>2026-04-18T15:59:56.001Z</time></trkpt><trkpt lat="45.144862405163586" lon="3.143971541690866"><ele>988.0</ele><time>2026-04-18T15:59:57.001Z</time></trkpt><trkpt lat="45.144944313496424" lon="3.1439304848703036"><ele>988.0</ele><time>2026-04-18T15:59:58.001Z</time></trkpt><trkpt lat="45.14502367095081" lon="3.143859441453663"><ele>988.0</ele><time>2026-04-18T15:59:59.001Z</time></trkpt><trkpt lat="45.14508714879242" lon="3.1437669389834046"><ele>988.3333333333333</ele><time>2026-04-18T16:00:00.001Z</time></trkpt><trkpt lat="45.14513211146329" lon="3.143667299606078"><ele>988.6666666666666</ele><time>2026-04-18T16:00:01.001Z</time></trkpt><trkpt lat="45.14515869819216" lon="3.143554157231874"><ele>989.0</ele><time>2026-04-18T16:00:02.001Z</time></trkpt><trkpt lat="45.145168554076534" lon="3.1434333520608018"><ele>989.3333333333333</ele><time>2026-04-18T16:00:03.001Z</time></trkpt><trkpt lat="45.1451711639569" lon="3.1433124389529334"><ele>989.6666666666666</ele><time>2026-04-18T16:00:04.001Z</time></trkpt><trkpt lat="45.145179580407195" lon="3.143182302741839"><ele>990.0</ele><time>2026-04-18T16:00:05.001Z</time></trkpt><trkpt lat="45.145193871227164" lon="3.1430475968243106"><ele>990.0</ele><time>2026-04-18T16:00:06.001Z</time></trkpt><trkpt lat="45.14520989882581" lon="3.1429167015298756"><ele>990.0</ele><time>2026-04-18T16:00:07.001Z</time></trkpt><trkpt lat="45.145225545554936" lon="3.142796953264172"><ele>990.0</ele><time>2026-04-18T16:00:08.001Z</time></trkpt><trkpt lat="45.145237931391456" lon="3.142691251127762"><ele>990.0</ele><time>2026-04-18T16:00:09.001Z</time></trkpt><trkpt lat="45.1452500423213" lon="3.1425902919302335"><ele>990.0</ele><time>2026-04-18T16:00:10.001Z</time></trkpt><trkpt lat="45.14526585045368" lon="3.1424907419054957"><ele>990.0</ele><time>2026-04-18T16:00:11.001Z</time></trkpt><trkpt lat="45.145293712017946" lon="3.1424091636321583"><ele>990.0</ele><time>2026-04-18T16:00:12.001Z</time></trkpt><trkpt lat="45.14530219636515" lon="3.1423143985988866"><ele>990.0</ele><time>2026-04-18T16:00:13.001Z</time></trkpt><trkpt lat="45.145347433118786" lon="3.1422386590185147"><ele>990.0</ele><time>2026-04-18T16:00:14.001Z</time></trkpt><trkpt lat="45.14541303217947" lon="3.1421821538518895"><ele>990.0</ele><time>2026-04-18T16:00:15.001Z</time></trkpt><trkpt lat="45.14550132105073" lon="3.1421228610267162"><ele>990.0</ele><time>2026-04-18T16:00:16.001Z</time></trkpt><trkpt lat="45.14560100349377" lon="3.142069904498174"><ele>990.0</ele><time>2026-04-18T16:00:17.001Z</time></trkpt><trkpt lat="45.1457148983209" lon="3.142040567357491"><ele>989.75</ele><time>2026-04-18T16:00:18.001Z</time></trkpt><trkpt lat="45.145833614016745" lon="3.1420423180890666"><ele>989.5</ele><time>2026-04-18T16:00:19.001Z</time></trkpt><trkpt lat="45.14595154158683" lon="3.142095659504348"><ele>989.25</ele><time>2026-04-18T16:00:20.001Z</time></trkpt><trkpt lat="45.14605489017989" lon="3.1422092433486166"><ele>989.0</ele><time>2026-04-18T16:00:21.001Z</time></trkpt><trkpt lat="45.14616267452009" lon="3.1423299854001803"><ele>989.3333333333334</ele><time>2026-04-18T16:00:22.001Z</time></trkpt><trkpt lat="45.14628779286765" lon="3.142444980537959"><ele>989.6666666666667</ele><time>2026-04-18T16:00:23.001Z</time></trkpt><trkpt lat="45.146436639054365" lon="3.1425536642045184"><ele>990.0</ele><time>2026-04-18T16:00:24.001Z</time></trkpt><trkpt lat="45.14659076865748" lon="3.1426225253170585"><ele>989.3333333333333</ele><time>2026-04-18T16:00:25.001Z</time></trkpt><trkpt lat="45.146754438728" lon="3.1426736778221374"><ele>988.6666666666666</ele><time>2026-04-18T16:00:26.001Z</time></trkpt><trkpt lat="45.14692194331836" lon="3.1427182314361"><ele>988.0</ele><time>2026-04-18T16:00:27.001Z</time></trkpt><trkpt lat="45.147111440713225" lon="3.1427755030502778"><ele>988.0</ele><time>2026-04-18T16:00:28.001Z</time></trkpt><trkpt lat="45.14730166617246" lon="3.1428407663765277"><ele>988.0</ele><time>2026-04-18T16:00:29.001Z</time></trkpt><trkpt lat="45.147493541917406" lon="3.1429099540396246"><ele>988.0</ele><time>2026-04-18T16:00:30.001Z</time></trkpt><trkpt lat="45.14768065189818" lon="3.142974600635196"><ele>987.6666666666666</ele><time>2026-04-18T16:00:31.001Z</time></trkpt><trkpt lat="45.14786938859132" lon="3.143036458807358"><ele>987.3333333333333</ele><time>2026-04-18T16:00:32.001Z</time></trkpt><trkpt lat="45.14807134451694" lon="3.1431057439754913"><ele>987.0</ele><time>2026-04-18T16:00:33.001Z</time></trkpt><trkpt lat="45.14826817647038" lon="3.1431706747938777"><ele>984.0</ele><time>2026-04-18T16:00:34.001Z</time></trkpt><trkpt lat="45.14846606060208" lon="3.1432298226618633"><ele>981.0</ele><time>2026-04-18T16:00:35.001Z</time></trkpt><trkpt lat="45.14867341178264" lon="3.143295857537293"><ele>978.0</ele><time>2026-04-18T16:00:36.001Z</time></trkpt><trkpt lat="45.148884194104525" lon="3.1433595200109514"><ele>976.3333333333333</ele><time>2026-04-18T16:00:37.001Z</time></trkpt><trkpt lat="45.14909716813428" lon="3.1434261050126127"><ele>974.6666666666666</ele><time>2026-04-18T16:00:38.001Z</time></trkpt><trkpt lat="45.14931168892107" lon="3.1434914693347125"><ele>973.0</ele><time>2026-04-18T16:00:39.001Z</time></trkpt><trkpt lat="45.149520968247344" lon="3.143556146381927"><ele>973.0</ele><time>2026-04-18T16:00:40.001Z</time></trkpt><trkpt lat="45.149735207127804" lon="3.1436222141443237"><ele>973.0</ele><time>2026-04-18T16:00:41.001Z</time></trkpt><trkpt lat="45.14995320802585" lon="3.143687004071171"><ele>973.0</ele><time>2026-04-18T16:00:42.001Z</time></trkpt><trkpt lat="45.15017085968079" lon="3.143757705098968"><ele>973.0</ele><time>2026-04-18T16:00:43.001Z</time></trkpt><trkpt lat="45.150384344699496" lon="3.1438291272773125"><ele>973.0</ele><time>2026-04-18T16:00:44.001Z</time></trkpt><trkpt lat="45.15060332324486" lon="3.143896609984411"><ele>973.0</ele><time>2026-04-18T16:00:45.001Z</time></trkpt><trkpt lat="45.15082408398032" lon="3.1439639480458337"><ele>970.5</ele><time>2026-04-18T16:00:46.001Z</time></trkpt><trkpt lat="45.151047185210935" lon="3.1440312310284164"><ele>968.0</ele><time>2026-04-18T16:00:47.001Z</time></trkpt><trkpt lat="45.15126691347433" lon="3.144101770327935"><ele>966.0</ele><time>2026-04-18T16:00:48.001Z</time></trkpt><trkpt lat="45.151489968360984" lon="3.144171648999784"><ele>964.0</ele><time>2026-04-18T16:00:49.001Z</time></trkpt><trkpt lat="45.151712213670976" lon="3.1442431790750334"><ele>963.5</ele><time>2026-04-18T16:00:50.001Z</time></trkpt><trkpt lat="45.15193454164589" lon="3.1443136138091012"><ele>963.0</ele><time>2026-04-18T16:00:51.001Z</time></trkpt><trkpt lat="45.15215991399788" lon="3.1443819758263287"><ele>961.0</ele><time>2026-04-18T16:00:52.001Z</time></trkpt><trkpt lat="45.15238410234146" lon="3.144449186481028"><ele>959.0</ele><time>2026-04-18T16:00:53.001Z</time></trkpt><trkpt lat="45.152605396502814" lon="3.1445145300862483"><ele>959.0</ele><time>2026-04-18T16:00:54.001Z</time></trkpt><trkpt lat="45.15282294118994" lon="3.1445799257381735"><ele>959.0</ele><time>2026-04-18T16:00:55.001Z</time></trkpt><trkpt lat="45.15303803450414" lon="3.144648352078877"><ele>959.0</ele><time>2026-04-18T16:00:56.001Z</time></trkpt><trkpt lat="45.153256822228734" lon="3.1447133134327596"><ele>959.0</ele><time>2026-04-18T16:00:57.001Z</time></trkpt><trkpt lat="45.15347275766796" lon="3.144782382872251"><ele>959.0</ele><time>2026-04-18T16:00:58.001Z</time></trkpt><trkpt lat="45.153680430491356" lon="3.1448505689578394"><ele>959.0</ele><time>2026-04-18T16:00:59.001Z</time></trkpt><trkpt lat="45.1538964932284" lon="3.1449137728423926"><ele>959.3333333333334</ele><time>2026-04-18T16:01:00.001Z</time></trkpt><trkpt lat="45.15409930538324" lon="3.144986390923562"><ele>959.6666666666667</ele><time>2026-04-18T16:01:01.001Z</time></trkpt><trkpt lat="45.154315591570644" lon="3.1450445550220585"><ele>960.0</ele><time>2026-04-18T16:01:02.001Z</time></trkpt><trkpt lat="45.15453014033815" lon="3.1451085650319905"><ele>960.0</ele><time>2026-04-18T16:01:03.001Z</time></trkpt><trkpt lat="45.1547345548049" lon="3.1451789552521623"><ele>960.0</ele><time>2026-04-18T16:01:04.001Z</time></trkpt><trkpt lat="45.154948717138595" lon="3.145238044015531"><ele>960.0</ele><time>2026-04-18T16:01:05.001Z</time></trkpt><trkpt lat="45.15515656679567" lon="3.1453085239658214"><ele>960.0</ele><time>2026-04-18T16:01:06.001Z</time></trkpt><trkpt lat="45.155363913638546" lon="3.1453760400593955"><ele>960.0</ele><time>2026-04-18T16:01:07.001Z</time></trkpt><trkpt lat="45.155574791809066" lon="3.145431751522338"><ele>960.0</ele><time>2026-04-18T16:01:08.001Z</time></trkpt><trkpt lat="45.15578481176137" lon="3.1454914504674765"><ele>957.6666666666667</ele><time>2026-04-18T16:01:09.001Z</time></trkpt><trkpt lat="45.15599861937838" lon="3.1455425222320055"><ele>955.3333333333334</ele><time>2026-04-18T16:01:10.001Z</time></trkpt><trkpt lat="45.15621209156829" lon="3.1456021410975747"><ele>953.0</ele><time>2026-04-18T16:01:11.001Z</time></trkpt><trkpt lat="45.15642636766129" lon="3.1456650185192196"><ele>951.0</ele><time>2026-04-18T16:01:12.001Z</time></trkpt><trkpt lat="45.15664269430908" lon="3.145731812856926"><ele>949.0</ele><time>2026-04-18T16:01:13.001Z</time></trkpt><trkpt lat="45.156860242858734" lon="3.1458010709589255"><ele>947.0</ele><time>2026-04-18T16:01:14.001Z</time></trkpt><trkpt lat="45.15707754663911" lon="3.145878776835155"><ele>947.0</ele><time>2026-04-18T16:01:15.001Z</time></trkpt><trkpt lat="45.15729309000848" lon="3.14595846686897"><ele>947.0</ele><time>2026-04-18T16:01:16.001Z</time></trkpt><trkpt lat="45.157506909041615" lon="3.1460493937248786"><ele>947.0</ele><time>2026-04-18T16:01:17.001Z</time></trkpt><trkpt lat="45.157707472887786" lon="3.1461562852649254"><ele>945.0</ele><time>2026-04-18T16:01:18.001Z</time></trkpt><trkpt lat="45.15791491951552" lon="3.146251556462784"><ele>943.0</ele><time>2026-04-18T16:01:19.001Z</time></trkpt><trkpt lat="45.158103616767676" lon="3.1463416522671266"><ele>941.0</ele><time>2026-04-18T16:01:20.001Z</time></trkpt><trkpt lat="45.15828784034043" lon="3.1464228458018817"><ele>940.6666666666667</ele><time>2026-04-18T16:01:21.001Z</time></trkpt><trkpt lat="45.1584695165393" lon="3.146508018800719"><ele>940.3333333333333</ele><time>2026-04-18T16:01:22.001Z</time></trkpt><trkpt lat="45.158643769737864" lon="3.146585602577087"><ele>940.0</ele><time>2026-04-18T16:01:23.001Z</time></trkpt><trkpt lat="45.158808153546154" lon="3.1466615188458578"><ele>940.0</ele><time>2026-04-18T16:01:24.001Z</time></trkpt><trkpt lat="45.15896817474078" lon="3.1467334745764863"><ele>940.0</ele><time>2026-04-18T16:01:25.001Z</time></trkpt><trkpt lat="45.15912293469442" lon="3.1468093821526"><ele>940.0</ele><time>2026-04-18T16:01:26.001Z</time></trkpt><trkpt lat="45.159272249087785" lon="3.1469001059862727"><ele>939.6666666666666</ele><time>2026-04-18T16:01:27.001Z</time></trkpt><trkpt lat="45.159420322519246" lon="3.1470283736467413"><ele>939.3333333333333</ele><time>2026-04-18T16:01:28.001Z</time></trkpt><trkpt lat="45.15956808975326" lon="3.147193646083346"><ele>939.0</ele><time>2026-04-18T16:01:29.001Z</time></trkpt><trkpt lat="45.15971762466293" lon="3.147378784436423"><ele>936.0</ele><time>2026-04-18T16:01:30.001Z</time></trkpt><trkpt lat="45.159874380077206" lon="3.1475710998036313"><ele>933.0</ele><time>2026-04-18T16:01:31.001Z</time></trkpt><trkpt lat="45.16002781001008" lon="3.147761694229065"><ele>930.0</ele><time>2026-04-18T16:01:32.001Z</time></trkpt><trkpt lat="45.160189933155074" lon="3.1479533538164257"><ele>930.0</ele><time>2026-04-18T16:01:33.001Z</time></trkpt><trkpt lat="45.160335371328856" lon="3.148121213909327"><ele>930.0</ele><time>2026-04-18T16:01:34.001Z</time></trkpt><trkpt lat="45.16048245417302" lon="3.148279026005609"><ele>930.0</ele><time>2026-04-18T16:01:35.001Z</time></trkpt><trkpt lat="45.16063505973036" lon="3.1484189854821403"><ele>928.3333333333333</ele><time>2026-04-18T16:01:36.001Z</time></trkpt><trkpt lat="45.160807130009196" lon="3.148545521464563"><ele>926.6666666666666</ele><time>2026-04-18T16:01:37.001Z</time></trkpt><trkpt lat="45.16098710666594" lon="3.1486470206288515"><ele>925.0</ele><time>2026-04-18T16:01:38.001Z</time></trkpt><trkpt lat="45.161169822499474" lon="3.1487464925726334"><ele>925.0</ele><time>2026-04-18T16:01:39.001Z</time></trkpt><trkpt lat="45.161363967874806" lon="3.148854650437678"><ele>925.0</ele><time>2026-04-18T16:01:40.001Z</time></trkpt><trkpt lat="45.16155067415765" lon="3.148960064976302"><ele>925.0</ele><time>2026-04-18T16:01:41.001Z</time></trkpt><trkpt lat="45.16174438825187" lon="3.1490727372119816"><ele>926.0</ele><time>2026-04-18T16:01:42.001Z</time></trkpt><trkpt lat="45.16193649262016" lon="3.1491834857939325"><ele>927.0</ele><time>2026-04-18T16:01:43.001Z</time></trkpt><trkpt lat="45.16212479716544" lon="3.1492996282782184"><ele>928.0</ele><time>2026-04-18T16:01:44.001Z</time></trkpt><trkpt lat="45.162315578884844" lon="3.1494131657064277"><ele>926.6666666666666</ele><time>2026-04-18T16:01:45.001Z</time></trkpt><trkpt lat="45.162519847004695" lon="3.1495333785896054"><ele>925.3333333333333</ele><time>2026-04-18T16:01:46.001Z</time></trkpt><trkpt lat="45.16271760935778" lon="3.14964806134889"><ele>924.0</ele><time>2026-04-18T16:01:47.001Z</time></trkpt><trkpt lat="45.16291619269779" lon="3.1497690882157827"><ele>924.0</ele><time>2026-04-18T16:01:48.001Z</time></trkpt><trkpt lat="45.16310766362063" lon="3.149884999388611"><ele>924.0</ele><time>2026-04-18T16:01:49.001Z</time></trkpt><trkpt lat="45.163297268101935" lon="3.1500023487550073"><ele>924.0</ele><time>2026-04-18T16:01:50.001Z</time></trkpt><trkpt lat="45.16349001420335" lon="3.150113335358836"><ele>924.0</ele><time>2026-04-18T16:01:51.001Z</time></trkpt><trkpt lat="45.16367864021762" lon="3.150230289108849"><ele>924.0</ele><time>2026-04-18T16:01:52.001Z</time></trkpt><trkpt lat="45.16387120550643" lon="3.1503655866180322"><ele>924.0</ele><time>2026-04-18T16:01:53.001Z</time></trkpt><trkpt lat="45.164049186794465" lon="3.1505005049992953"><ele>923.6666666666667</ele><time>2026-04-18T16:01:54.001Z</time></trkpt><trkpt lat="45.16423062414907" lon="3.150642988859011"><ele>923.3333333333334</ele><time>2026-04-18T16:01:55.001Z</time></trkpt><trkpt lat="45.16441704125826" lon="3.1507776021441827"><ele>923.0</ele><time>2026-04-18T16:01:56.001Z</time></trkpt><trkpt lat="45.164610697009074" lon="3.1509134387010147"><ele>923.0</ele><time>2026-04-18T16:01:57.001Z</time></trkpt><trkpt lat="45.16479598294512" lon="3.151049006170761"><ele>923.0</ele><time>2026-04-18T16:01:58.001Z</time></trkpt><trkpt lat="45.1649819721948" lon="3.1511883300980035"><ele>923.0</ele><time>2026-04-18T16:01:59.001Z</time></trkpt><trkpt lat="45.165170536343496" lon="3.1513235630790994"><ele>921.6666666666667</ele><time>2026-04-18T16:02:00.001Z</time></trkpt><trkpt lat="45.16535448098704" lon="3.1514562594087496"><ele>920.3333333333333</ele><time>2026-04-18T16:02:01.001Z</time></trkpt><trkpt lat="45.16553787323553" lon="3.151593290860051"><ele>919.0</ele><time>2026-04-18T16:02:02.001Z</time></trkpt><trkpt lat="45.165721619456754" lon="3.1517282929035906"><ele>916.6666666666666</ele><time>2026-04-18T16:02:03.001Z</time></trkpt><trkpt lat="45.1659054474691" lon="3.1518662495103875"><ele>914.3333333333333</ele><time>2026-04-18T16:02:04.001Z</time></trkpt><trkpt lat="45.166091367740584" lon="3.152005362646401"><ele>912.0</ele><time>2026-04-18T16:02:05.001Z</time></trkpt><trkpt lat="45.166272004777376" lon="3.1521392790730856"><ele>912.0</ele><time>2026-04-18T16:02:06.001Z</time></trkpt><trkpt lat="45.16644539806428" lon="3.152271704927097"><ele>912.0</ele><time>2026-04-18T16:02:07.001Z</time></trkpt><trkpt lat="45.166632504728504" lon="3.15240864350227"><ele>912.0</ele><time>2026-04-18T16:02:08.001Z</time></trkpt><trkpt lat="45.1668046747345" lon="3.152538068289653"><ele>914.0</ele><time>2026-04-18T16:02:09.001Z</time></trkpt><trkpt lat="45.166983998587476" lon="3.1526672027188534"><ele>916.0</ele><time>2026-04-18T16:02:10.001Z</time></trkpt><trkpt lat="45.167145135492554" lon="3.15278430131137"><ele>918.0</ele><time>2026-04-18T16:02:11.001Z</time></trkpt><trkpt lat="45.16732049889629" lon="3.152912757083134"><ele>917.3333333333333</ele><time>2026-04-18T16:02:12.001Z</time></trkpt><trkpt lat="45.16749918289467" lon="3.1530476609778524"><ele>916.6666666666666</ele><time>2026-04-18T16:02:13.001Z</time></trkpt><trkpt lat="45.16768256700492" lon="3.153186192939598"><ele>916.0</ele><time>2026-04-18T16:02:14.001Z</time></trkpt><trkpt lat="45.16785980271421" lon="3.1533185802059713"><ele>916.0</ele><time>2026-04-18T16:02:15.001Z</time></trkpt><trkpt lat="45.16804489963073" lon="3.1534604578880465"><ele>916.0</ele><time>2026-04-18T16:02:16.001Z</time></trkpt><trkpt lat="45.16821725670703" lon="3.1535896542363364"><ele>916.0</ele><time>2026-04-18T16:02:17.001Z</time></trkpt><trkpt lat="45.1683988227267" lon="3.1537219935248952"><ele>915.0</ele><time>2026-04-18T16:02:18.001Z</time></trkpt><trkpt lat="45.168558320362195" lon="3.153842423123945"><ele>914.0</ele><time>2026-04-18T16:02:19.001Z</time></trkpt><trkpt lat="45.1687324216942" lon="3.153967167448871"><ele>913.0</ele><time>2026-04-18T16:02:20.001Z</time></trkpt><trkpt lat="45.16890665055971" lon="3.154099457874001"><ele>912.3333333333333</ele><time>2026-04-18T16:02:21.001Z</time></trkpt><trkpt lat="45.16907187247223" lon="3.1542315253430138"><ele>911.6666666666667</ele><time>2026-04-18T16:02:22.001Z</time></trkpt><trkpt lat="45.16922517335905" lon="3.1543658707190594"><ele>911.0</ele><time>2026-04-18T16:02:23.001Z</time></trkpt><trkpt lat="45.16937583216576" lon="3.1545188017211694"><ele>911.0</ele><time>2026-04-18T16:02:24.001Z</time></trkpt><trkpt lat="45.1695286245259" lon="3.1546908521883776"><ele>911.0</ele><time>2026-04-18T16:02:25.001Z</time></trkpt><trkpt lat="45.169680626952726" lon="3.1548639568028243"><ele>911.0</ele><time>2026-04-18T16:02:26.001Z</time></trkpt><trkpt lat="45.16983627524106" lon="3.1550401505393806"><ele>910.0</ele><time>2026-04-18T16:02:27.001Z</time></trkpt><trkpt lat="45.16998627695084" lon="3.155209549281062"><ele>909.0</ele><time>2026-04-18T16:02:28.001Z</time></trkpt><trkpt lat="45.170145889102244" lon="3.155386664554738"><ele>908.0</ele><time>2026-04-18T16:02:29.001Z</time></trkpt><trkpt lat="45.170309964549936" lon="3.1555651050443174"><ele>909.0</ele><time>2026-04-18T16:02:30.001Z</time></trkpt><trkpt lat="45.170468953868216" lon="3.155747859089063"><ele>910.0</ele><time>2026-04-18T16:02:31.001Z</time></trkpt><trkpt lat="45.17062811294903" lon="3.1559258905083465"><ele>911.0</ele><time>2026-04-18T16:02:32.001Z</time></trkpt><trkpt lat="45.170782919075535" lon="3.156107346677856"><ele>910.3333333333334</ele><time>2026-04-18T16:02:33.001Z</time></trkpt><trkpt lat="45.1709369713977" lon="3.1562821108848773"><ele>909.6666666666667</ele><time>2026-04-18T16:02:34.001Z</time></trkpt><trkpt lat="45.17109021138299" lon="3.1564592364521493"><ele>909.0</ele><time>2026-04-18T16:02:35.001Z</time></trkpt><trkpt lat="45.17124669482894" lon="3.1566351973091016"><ele>909.0</ele><time>2026-04-18T16:02:36.001Z</time></trkpt><trkpt lat="45.17139477319468" lon="3.1567993889505233"><ele>909.0</ele><time>2026-04-18T16:02:37.001Z</time></trkpt><trkpt lat="45.171544324083435" lon="3.156971800212146"><ele>909.0</ele><time>2026-04-18T16:02:38.001Z</time></trkpt><trkpt lat="45.17169696981691" lon="3.1571516100728623"><ele>907.3333333333333</ele><time>2026-04-18T16:02:39.001Z</time></trkpt><trkpt lat="45.17185684782625" lon="3.1573346422981166"><ele>905.6666666666666</ele><time>2026-04-18T16:02:40.001Z</time></trkpt><trkpt lat="45.17201235139525" lon="3.1575117280843865"><ele>904.0</ele><time>2026-04-18T16:02:41.001Z</time></trkpt><trkpt lat="45.172167149823835" lon="3.1576870760491036"><ele>904.0</ele><time>2026-04-18T16:02:42.001Z</time></trkpt><trkpt lat="45.17232904674927" lon="3.1578668832908963"><ele>904.0</ele><time>2026-04-18T16:02:43.001Z</time></trkpt><trkpt lat="45.17250090598791" lon="3.1580557721491718"><ele>904.0</ele><time>2026-04-18T16:02:44.001Z</time></trkpt><trkpt lat="45.17266758956489" lon="3.1582455913116267"><ele>902.3333333333333</ele><time>2026-04-18T16:02:45.001Z</time></trkpt><trkpt lat="45.17282608711435" lon="3.1584302726551523"><ele>900.6666666666667</ele><time>2026-04-18T16:02:46.001Z</time></trkpt><trkpt lat="45.17299527510979" lon="3.15862105972417"><ele>899.0</ele><time>2026-04-18T16:02:47.001Z</time></trkpt><trkpt lat="45.17316384591187" lon="3.1588062150507636"><ele>899.0</ele><time>2026-04-18T16:02:48.001Z</time></trkpt><trkpt lat="45.17332656435446" lon="3.158986690542997"><ele>899.0</ele><time>2026-04-18T16:02:49.001Z</time></trkpt><trkpt lat="45.17348817296237" lon="3.1591684218885563"><ele>899.0</ele><time>2026-04-18T16:02:50.001Z</time></trkpt><trkpt lat="45.17365260189372" lon="3.15935176296368"><ele>898.0</ele><time>2026-04-18T16:02:51.001Z</time></trkpt><trkpt lat="45.17380995120431" lon="3.1595332086633876"><ele>897.0</ele><time>2026-04-18T16:02:52.001Z</time></trkpt><trkpt lat="45.17397387997763" lon="3.159720558309034"><ele>896.0</ele><time>2026-04-18T16:02:53.001Z</time></trkpt><trkpt lat="45.17412697065529" lon="3.1599037238574756"><ele>893.3333333333334</ele><time>2026-04-18T16:02:54.001Z</time></trkpt><trkpt lat="45.17429727242722" lon="3.160094968871362"><ele>890.6666666666667</ele><time>2026-04-18T16:02:55.001Z</time></trkpt><trkpt lat="45.17445239753912" lon="3.1602793697018456"><ele>888.0</ele><time>2026-04-18T16:02:56.001Z</time></trkpt><trkpt lat="45.17462031221669" lon="3.1604690659950476"><ele>888.0</ele><time>2026-04-18T16:02:57.001Z</time></trkpt><trkpt lat="45.17479997618998" lon="3.1606644187695374"><ele>888.0</ele><time>2026-04-18T16:02:58.001Z</time></trkpt><trkpt lat="45.17495684619788" lon="3.1608450252270663"><ele>888.0</ele><time>2026-04-18T16:02:59.001Z</time></trkpt><trkpt lat="45.175115354872595" lon="3.1610260658109195"><ele>888.6666666666667</ele><time>2026-04-18T16:03:00.001Z</time></trkpt><trkpt lat="45.175274678704135" lon="3.1611992096982684"><ele>889.3333333333334</ele><time>2026-04-18T16:03:01.001Z</time></trkpt><trkpt lat="45.17543489358414" lon="3.1613712556611957"><ele>890.0</ele><time>2026-04-18T16:03:02.001Z</time></trkpt><trkpt lat="45.17558732704017" lon="3.161541388941386"><ele>889.0</ele><time>2026-04-18T16:03:03.001Z</time></trkpt><trkpt lat="45.17575263803868" lon="3.161723342627612"><ele>888.0</ele><time>2026-04-18T16:03:04.001Z</time></trkpt><trkpt lat="45.175905150934994" lon="3.1619015470017215"><ele>887.0</ele><time>2026-04-18T16:03:05.001Z</time></trkpt><trkpt lat="45.17606941676748" lon="3.1620896850585773"><ele>887.0</ele><time>2026-04-18T16:03:06.001Z</time></trkpt><trkpt lat="45.17623687054184" lon="3.162280042144402"><ele>887.0</ele><time>2026-04-18T16:03:07.001Z</time></trkpt><trkpt lat="45.17640160175443" lon="3.1624696103069456"><ele>887.0</ele><time>2026-04-18T16:03:08.001Z</time></trkpt><trkpt lat="45.176567738582406" lon="3.1626602948000686"><ele>885.3333333333334</ele><time>2026-04-18T16:03:09.001Z</time></trkpt><trkpt lat="45.17674060078378" lon="3.162853100060653"><ele>883.6666666666667</ele><time>2026-04-18T16:03:10.001Z</time></trkpt><trkpt lat="45.176913522931784" lon="3.1630538487587545"><ele>882.0</ele><time>2026-04-18T16:03:11.001Z</time></trkpt><trkpt lat="45.17708598273703" lon="3.163252413989195"><ele>882.0</ele><time>2026-04-18T16:03:12.001Z</time></trkpt><trkpt lat="45.17724498067752" lon="3.163437929712926"><ele>882.0</ele><time>2026-04-18T16:03:13.001Z</time></trkpt><trkpt lat="45.1774058448187" lon="3.1636166969149992"><ele>882.0</ele><time>2026-04-18T16:03:14.001Z</time></trkpt><trkpt lat="45.17756315041908" lon="3.1637934386658166"><ele>879.6666666666667</ele><time>2026-04-18T16:03:15.001Z</time></trkpt><trkpt lat="45.177725633895236" lon="3.1639775162352937"><ele>877.3333333333334</ele><time>2026-04-18T16:03:16.001Z</time></trkpt><trkpt lat="45.17788209062223" lon="3.1641617616302553"><ele>875.0</ele><time>2026-04-18T16:03:17.001Z</time></trkpt><trkpt lat="45.17804214159205" lon="3.1643452487341204"><ele>874.3333333333334</ele><time>2026-04-18T16:03:18.001Z</time></trkpt><trkpt lat="45.17820929067809" lon="3.1645340806414253"><ele>873.6666666666667</ele><time>2026-04-18T16:03:19.001Z</time></trkpt><trkpt lat="45.178379058424916" lon="3.1647236553021774"><ele>873.0</ele><time>2026-04-18T16:03:20.001Z</time></trkpt><trkpt lat="45.178544364365536" lon="3.1649117174896206"><ele>874.3333333333333</ele><time>2026-04-18T16:03:21.001Z</time></trkpt><trkpt lat="45.17870368450814" lon="3.1650973631026424"><ele>875.6666666666666</ele><time>2026-04-18T16:03:22.001Z</time></trkpt><trkpt lat="45.178858259323" lon="3.1652727856435074"><ele>877.0</ele><time>2026-04-18T16:03:23.001Z</time></trkpt><trkpt lat="45.179016226836254" lon="3.165448871907053"><ele>874.6666666666666</ele><time>2026-04-18T16:03:24.001Z</time></trkpt><trkpt lat="45.17918177967473" lon="3.1656382658367392"><ele>872.3333333333333</ele><time>2026-04-18T16:03:25.001Z</time></trkpt><trkpt lat="45.179352967589104" lon="3.165828566005244"><ele>870.0</ele><time>2026-04-18T16:03:26.001Z</time></trkpt><trkpt lat="45.17952152820098" lon="3.1660205565239092"><ele>869.6666666666667</ele><time>2026-04-18T16:03:27.001Z</time></trkpt><trkpt lat="45.17968511524919" lon="3.1662001417552412"><ele>869.3333333333334</ele><time>2026-04-18T16:03:28.001Z</time></trkpt><trkpt lat="45.17984552391521" lon="3.166374516758313"><ele>869.0</ele><time>2026-04-18T16:03:29.001Z</time></trkpt><trkpt lat="45.180010173091674" lon="3.166551600514395"><ele>866.0</ele><time>2026-04-18T16:03:30.001Z</time></trkpt><trkpt lat="45.180171170600545" lon="3.1667294400093007"><ele>863.0</ele><time>2026-04-18T16:03:31.001Z</time></trkpt><trkpt lat="45.18033016551922" lon="3.166908942984868"><ele>860.0</ele><time>2026-04-18T16:03:32.001Z</time></trkpt><trkpt lat="45.18048752070945" lon="3.167091588015629"><ele>860.0</ele><time>2026-04-18T16:03:33.001Z</time></trkpt><trkpt lat="45.18063431115082" lon="3.167260242138766"><ele>860.0</ele><time>2026-04-18T16:03:34.001Z</time></trkpt><trkpt lat="45.180785287562756" lon="3.167432964043954"><ele>860.0</ele><time>2026-04-18T16:03:35.001Z</time></trkpt><trkpt lat="45.180939762037525" lon="3.167607561652897"><ele>858.6666666666667</ele><time>2026-04-18T16:03:36.001Z</time></trkpt><trkpt lat="45.1810878987176" lon="3.1677761387568024"><ele>857.3333333333333</ele><time>2026-04-18T16:03:37.001Z</time></trkpt><trkpt lat="45.18124106485392" lon="3.167950793409948"><ele>856.0</ele><time>2026-04-18T16:03:38.001Z</time></trkpt><trkpt lat="45.1813877999306" lon="3.168115110173563"><ele>857.0</ele><time>2026-04-18T16:03:39.001Z</time></trkpt><trkpt lat="45.181538372312865" lon="3.1682804822308746"><ele>858.0</ele><time>2026-04-18T16:03:40.001Z</time></trkpt><trkpt lat="45.18168942858462" lon="3.16845230511748"><ele>859.0</ele><time>2026-04-18T16:03:41.001Z</time></trkpt><trkpt lat="45.18184156464881" lon="3.1686281207845663"><ele>859.0</ele><time>2026-04-18T16:03:42.001Z</time></trkpt><trkpt lat="45.18199201969146" lon="3.168803085737857"><ele>859.0</ele><time>2026-04-18T16:03:43.001Z</time></trkpt><trkpt lat="45.18214548536194" lon="3.168982803285997"><ele>859.0</ele><time>2026-04-18T16:03:44.001Z</time></trkpt><trkpt lat="45.182292361955966" lon="3.1691593477276245"><ele>858.3333333333333</ele><time>2026-04-18T16:03:45.001Z</time></trkpt><trkpt lat="45.18245949128698" lon="3.169336492982332"><ele>857.6666666666667</ele><time>2026-04-18T16:03:46.001Z</time></trkpt><trkpt lat="45.182605019966346" lon="3.1695067982731966"><ele>857.0</ele><time>2026-04-18T16:03:47.001Z</time></trkpt><trkpt lat="45.18276586615373" lon="3.1696773875268143"><ele>857.0</ele><time>2026-04-18T16:03:48.001Z</time></trkpt><trkpt lat="45.182913827562516" lon="3.1698417490389907"><ele>857.0</ele><time>2026-04-18T16:03:49.001Z</time></trkpt><trkpt lat="45.1830538216732" lon="3.1700068528717407"><ele>857.0</ele><time>2026-04-18T16:03:50.001Z</time></trkpt><trkpt lat="45.183203412270046" lon="3.1701734919879363"><ele>858.6666666666667</ele><time>2026-04-18T16:03:51.001Z</time></trkpt><trkpt lat="45.183350929340456" lon="3.1703378132438176"><ele>860.3333333333333</ele><time>2026-04-18T16:03:52.001Z</time></trkpt><trkpt lat="45.18349277748128" lon="3.170502748710381"><ele>862.0</ele><time>2026-04-18T16:03:53.001Z</time></trkpt><trkpt lat="45.183639807561406" lon="3.1706680790238346"><ele>862.3333333333333</ele><time>2026-04-18T16:03:54.001Z</time></trkpt><trkpt lat="45.18379052410514" lon="3.1708304817068806"><ele>862.6666666666667</ele><time>2026-04-18T16:03:55.001Z</time></trkpt><trkpt lat="45.183938896859054" lon="3.1709962585973166"><ele>863.0</ele><time>2026-04-18T16:03:56.001Z</time></trkpt><trkpt lat="45.184079280983774" lon="3.171165052804917"><ele>862.6666666666667</ele><time>2026-04-18T16:03:57.001Z</time></trkpt><trkpt lat="45.18422393405634" lon="3.171328107740214"><ele>862.3333333333333</ele><time>2026-04-18T16:03:58.001Z</time></trkpt><trkpt lat="45.184364383769775" lon="3.171484437080609"><ele>862.0</ele><time>2026-04-18T16:03:59.001Z</time></trkpt><trkpt lat="45.184507476172726" lon="3.1716384921737784"><ele>862.0</ele><time>2026-04-18T16:04:00.001Z</time></trkpt><trkpt lat="45.18465021992938" lon="3.1717968664498524"><ele>862.0</ele><time>2026-04-18T16:04:01.001Z</time></trkpt><trkpt lat="45.184789549113134" lon="3.1719577157501533"><ele>862.0</ele><time>2026-04-18T16:04:02.001Z</time></trkpt><trkpt lat="45.18493461351769" lon="3.1721224270575887"><ele>860.0</ele><time>2026-04-18T16:04:03.001Z</time></trkpt><trkpt lat="45.18508319610815" lon="3.172288835737684"><ele>858.0</ele><time>2026-04-18T16:04:04.001Z</time></trkpt><trkpt lat="45.18523420796455" lon="3.172457216006076"><ele>856.0</ele><time>2026-04-18T16:04:05.001Z</time></trkpt><trkpt lat="45.18538496946681" lon="3.17262471579343"><ele>856.0</ele><time>2026-04-18T16:04:06.001Z</time></trkpt><trkpt lat="45.18553046896037" lon="3.172790220422189"><ele>856.0</ele><time>2026-04-18T16:04:07.001Z</time></trkpt><trkpt lat="45.18566535242755" lon="3.1729472383877844"><ele>856.0</ele><time>2026-04-18T16:04:08.001Z</time></trkpt><trkpt lat="45.18578725558686" lon="3.1730894781254837"><ele>857.25</ele><time>2026-04-18T16:04:09.001Z</time></trkpt><trkpt lat="45.18590007251198" lon="3.173216754502969"><ele>858.5</ele><time>2026-04-18T16:04:10.001Z</time></trkpt><trkpt lat="45.1860244011268" lon="3.1733206313000735"><ele>859.75</ele><time>2026-04-18T16:04:11.001Z</time></trkpt><trkpt lat="45.1861556528319" lon="3.173399720392052"><ele>861.0</ele><time>2026-04-18T16:04:12.001Z</time></trkpt><trkpt lat="45.18630584722526" lon="3.1734442354928687"><ele>861.0</ele><time>2026-04-18T16:04:13.001Z</time></trkpt><trkpt lat="45.18646079017905" lon="3.173463596134623"><ele>861.0</ele><time>2026-04-18T16:04:14.001Z</time></trkpt><trkpt lat="45.186621886517905" lon="3.173470413394318"><ele>861.0</ele><time>2026-04-18T16:04:15.001Z</time></trkpt><trkpt lat="45.18678002850214" lon="3.173494871653708"><ele>861.6666666666667</ele><time>2026-04-18T16:04:16.001Z</time></trkpt><trkpt lat="45.18694512577388" lon="3.1735396810377363"><ele>862.3333333333334</ele><time>2026-04-18T16:04:17.001Z</time></trkpt><trkpt lat="45.18710686011931" lon="3.1736077220393626"><ele>863.0</ele><time>2026-04-18T16:04:18.001Z</time></trkpt><trkpt lat="45.18727412621651" lon="3.1736911551000806"><ele>863.6666666666667</ele><time>2026-04-18T16:04:19.001Z</time></trkpt><trkpt lat="45.18743573505488" lon="3.1738000904417727"><ele>864.3333333333333</ele><time>2026-04-18T16:04:20.001Z</time></trkpt><trkpt lat="45.18759255801866" lon="3.173916245034624"><ele>865.0</ele><time>2026-04-18T16:04:21.001Z</time></trkpt><trkpt lat="45.18775415493876" lon="3.17402850113363"><ele>866.0</ele><time>2026-04-18T16:04:22.001Z</time></trkpt><trkpt lat="45.187901046190404" lon="3.1741322184520637"><ele>867.0</ele><time>2026-04-18T16:04:23.001Z</time></trkpt><trkpt lat="45.18804814993908" lon="3.1742332667841175"><ele>868.0</ele><time>2026-04-18T16:04:24.001Z</time></trkpt><trkpt lat="45.18818949712901" lon="3.174330966252617"><ele>868.0</ele><time>2026-04-18T16:04:25.001Z</time></trkpt><trkpt lat="45.18833842842932" lon="3.1744389591177553"><ele>868.0</ele><time>2026-04-18T16:04:26Z</time></trkpt><trkpt lat="45.18848072226799" lon="3.174552731580836"><ele>868.0</ele><time>2026-04-18T16:04:27Z</time></trkpt><trkpt lat="45.18863690153392" lon="3.1746707629281015"><ele>868.0</ele><time>2026-04-18T16:04:28Z</time></trkpt><trkpt lat="45.188788303820715" lon="3.174783996662067"><ele>868.0</ele><time>2026-04-18T16:04:29Z</time></trkpt><trkpt lat="45.188936980101644" lon="3.1748910549577047"><ele>868.0</ele><time>2026-04-18T16:04:30Z</time></trkpt><trkpt lat="45.18908914434754" lon="3.174968425000336"><ele>868.0</ele><time>2026-04-18T16:04:31Z</time></trkpt><trkpt lat="45.18924690174917" lon="3.1750207028927475"><ele>868.0</ele><time>2026-04-18T16:04:32Z</time></trkpt><trkpt lat="45.18942514558398" lon="3.175038362707913"><ele>868.0</ele><time>2026-04-18T16:04:33Z</time></trkpt><trkpt lat="45.18958153014448" lon="3.175033078366849"><ele>868.0</ele><time>2026-04-18T16:04:34Z</time></trkpt><trkpt lat="45.18974436423485" lon="3.1750424157191888"><ele>868.0</ele><time>2026-04-18T16:04:35Z</time></trkpt><trkpt lat="45.18990872159486" lon="3.1751114055716854"><ele>868.0</ele><time>2026-04-18T16:04:36Z</time></trkpt><trkpt lat="45.190064543291975" lon="3.175158625201756"><ele>866.6666666666666</ele><time>2026-04-18T16:04:37Z</time></trkpt><trkpt lat="45.1902063605454" lon="3.175243052493325"><ele>865.3333333333333</ele><time>2026-04-18T16:04:38Z</time></trkpt><trkpt lat="45.190354078935144" lon="3.175341260684622"><ele>864.0</ele><time>2026-04-18T16:04:39Z</time></trkpt><trkpt lat="45.19048297506229" lon="3.17543839036909"><ele>864.0</ele><time>2026-04-18T16:04:40Z</time></trkpt><trkpt lat="45.19060187904312" lon="3.175568634293407"><ele>864.0</ele><time>2026-04-18T16:04:41Z</time></trkpt><trkpt lat="45.19071080066585" lon="3.1757250683557157"><ele>864.0</ele><time>2026-04-18T16:04:42Z</time></trkpt><trkpt lat="45.19080311496489" lon="3.1759043032612664"><ele>863.6666666666667</ele><time>2026-04-18T16:04:43Z</time></trkpt><trkpt lat="45.19089957832055" lon="3.1760936983575982"><ele>863.3333333333334</ele><time>2026-04-18T16:04:44Z</time></trkpt><trkpt lat="45.190999278398664" lon="3.1762912148033924"><ele>863.0</ele><time>2026-04-18T16:04:45Z</time></trkpt><trkpt lat="45.19110644647777" lon="3.1764989930365037"><ele>862.0</ele><time>2026-04-18T16:04:46Z</time></trkpt><trkpt lat="45.19120991436951" lon="3.176710779068313"><ele>861.0</ele><time>2026-04-18T16:04:47Z</time></trkpt><trkpt lat="45.19131595229456" lon="3.1769191365548255"><ele>860.0</ele><time>2026-04-18T16:04:48Z</time></trkpt><trkpt lat="45.19142464182354" lon="3.1771355392913136"><ele>859.0</ele><time>2026-04-18T16:04:49Z</time></trkpt><trkpt lat="45.19153601403453" lon="3.177346582643934"><ele>858.0</ele><time>2026-04-18T16:04:50Z</time></trkpt><trkpt lat="45.19164762026565" lon="3.1775622848871623"><ele>857.0</ele><time>2026-04-18T16:04:51Z</time></trkpt><trkpt lat="45.19176122408872" lon="3.177779986701202"><ele>857.0</ele><time>2026-04-18T16:04:52Z</time></trkpt><trkpt lat="45.191870492338914" lon="3.1779843604845373"><ele>857.0</ele><time>2026-04-18T16:04:53Z</time></trkpt><trkpt lat="45.191980577471" lon="3.178188109248129"><ele>857.0</ele><time>2026-04-18T16:04:54Z</time></trkpt><trkpt lat="45.19209119541091" lon="3.1783912242960906"><ele>856.0</ele><time>2026-04-18T16:04:55Z</time></trkpt><trkpt lat="45.19220162228203" lon="3.178592704480961"><ele>855.0</ele><time>2026-04-18T16:04:56Z</time></trkpt><trkpt lat="45.192310449764484" lon="3.1787964915000155"><ele>854.0</ele><time>2026-04-18T16:04:57Z</time></trkpt><trkpt lat="45.19242129148162" lon="3.179005880592823"><ele>857.3333333333334</ele><time>2026-04-18T16:04:58Z</time></trkpt><trkpt lat="45.19252526213502" lon="3.179206577412105"><ele>860.6666666666667</ele><time>2026-04-18T16:04:59Z</time></trkpt><trkpt lat="45.19263246269331" lon="3.17940764402263"><ele>864.0</ele><time>2026-04-18T16:05:00Z</time></trkpt><trkpt lat="45.19274255019317" lon="3.1796044349057695"><ele>864.0</ele><time>2026-04-18T16:05:01Z</time></trkpt><trkpt lat="45.19285569117946" lon="3.1797974267922644"><ele>864.0</ele><time>2026-04-18T16:05:02Z</time></trkpt><trkpt lat="45.19296582645233" lon="3.179988295827648"><ele>864.0</ele><time>2026-04-18T16:05:03Z</time></trkpt><trkpt lat="45.193070632621584" lon="3.1801755688986004"><ele>865.75</ele><time>2026-04-18T16:05:04Z</time></trkpt><trkpt lat="45.193168408195156" lon="3.1803493208521902"><ele>867.5</ele><time>2026-04-18T16:05:05Z</time></trkpt><trkpt lat="45.19326048110873" lon="3.1805012794734684"><ele>869.25</ele><time>2026-04-18T16:05:06Z</time></trkpt><trkpt lat="45.19335949595728" lon="3.1806287365905295"><ele>871.0</ele><time>2026-04-18T16:05:07Z</time></trkpt><trkpt lat="45.19347228970833" lon="3.1807188389195153"><ele>871.0</ele><time>2026-04-18T16:05:08Z</time></trkpt><trkpt lat="45.19360147641631" lon="3.180769200343146"><ele>871.0</ele><time>2026-04-18T16:05:09Z</time></trkpt><trkpt lat="45.193734671529086" lon="3.180760726953987"><ele>871.0</ele><time>2026-04-18T16:05:10Z</time></trkpt><trkpt lat="45.193866014168215" lon="3.180714378092565"><ele>871.0</ele><time>2026-04-18T16:05:11Z</time></trkpt><trkpt lat="45.19398249193762" lon="3.1806075596747543"><ele>872.6666666666666</ele><time>2026-04-18T16:05:12Z</time></trkpt><trkpt lat="45.19408502256765" lon="3.1804547671153593"><ele>874.3333333333333</ele><time>2026-04-18T16:05:13Z</time></trkpt><trkpt lat="45.19419797767357" lon="3.180305917519432"><ele>876.0</ele><time>2026-04-18T16:05:14Z</time></trkpt><trkpt lat="45.19434012000528" lon="3.1802159094742115"><ele>876.0</ele><time>2026-04-18T16:05:15Z</time></trkpt><trkpt lat="45.19448995759837" lon="3.180154615851849"><ele>876.0</ele><time>2026-04-18T16:05:16.001Z</time></trkpt><trkpt lat="45.19465819663876" lon="3.1800951569250655"><ele>876.0</ele><time>2026-04-18T16:05:17.001Z</time></trkpt><trkpt lat="45.19481718982621" lon="3.180038674277673"><ele>872.0</ele><time>2026-04-18T16:05:18.001Z</time></trkpt><trkpt lat="45.19497864309593" lon="3.179998147348412"><ele>868.0</ele><time>2026-04-18T16:05:19.001Z</time></trkpt><trkpt lat="45.195141851000145" lon="3.1799582502933808"><ele>864.0</ele><time>2026-04-18T16:05:20.001Z</time></trkpt><trkpt lat="45.19530643319312" lon="3.179928307209843"><ele>864.0</ele><time>2026-04-18T16:05:21.001Z</time></trkpt><trkpt lat="45.1954656771254" lon="3.1799085794825572"><ele>864.0</ele><time>2026-04-18T16:05:22.001Z</time></trkpt><trkpt lat="45.19561543010763" lon="3.1799429481419694"><ele>864.0</ele><time>2026-04-18T16:05:23.001Z</time></trkpt><trkpt lat="45.19575302938262" lon="3.1800006480939627"><ele>866.0</ele><time>2026-04-18T16:05:24.001Z</time></trkpt><trkpt lat="45.19588747986997" lon="3.180104551916966"><ele>868.0</ele><time>2026-04-18T16:05:25.001Z</time></trkpt><trkpt lat="45.19600926359252" lon="3.180246737256844"><ele>870.0</ele><time>2026-04-18T16:05:26.001Z</time></trkpt><trkpt lat="45.19613672706132" lon="3.1804155123833375"><ele>870.0</ele><time>2026-04-18T16:05:27.001Z</time></trkpt><trkpt lat="45.19626303561032" lon="3.1805672165161116"><ele>870.0</ele><time>2026-04-18T16:05:28.001Z</time></trkpt><trkpt lat="45.19636887449991" lon="3.1807429846595316"><ele>870.0</ele><time>2026-04-18T16:05:29.001Z</time></trkpt><trkpt lat="45.19646592420783" lon="3.180909493461912"><ele>870.3333333333333</ele><time>2026-04-18T16:05:30.001Z</time></trkpt><trkpt lat="45.1965581901826" lon="3.1810820008913696"><ele>870.6666666666666</ele><time>2026-04-18T16:05:31.001Z</time></trkpt><trkpt lat="45.19664494585278" lon="3.18125805084111"><ele>871.0</ele><time>2026-04-18T16:05:32.001Z</time></trkpt><trkpt lat="45.196717089796415" lon="3.18145077955707"><ele>867.0</ele><time>2026-04-18T16:05:33.001Z</time></trkpt><trkpt lat="45.1967781324806" lon="3.1816635001902207"><ele>863.0</ele><time>2026-04-18T16:05:34.001Z</time></trkpt><trkpt lat="45.19682246734687" lon="3.1818773407530156"><ele>859.0</ele><time>2026-04-18T16:05:35.001Z</time></trkpt><trkpt lat="45.19686422712726" lon="3.182094242727021"><ele>859.0</ele><time>2026-04-18T16:05:36.001Z</time></trkpt><trkpt lat="45.19690121054207" lon="3.18229604053628"><ele>859.0</ele><time>2026-04-18T16:05:37.001Z</time></trkpt><trkpt lat="45.196936997150196" lon="3.1824825053455843"><ele>859.0</ele><time>2026-04-18T16:05:38.001Z</time></trkpt><trkpt lat="45.19698038845325" lon="3.182654821312566"><ele>859.0</ele><time>2026-04-18T16:05:39.001Z</time></trkpt><trkpt lat="45.19704083390183" lon="3.182814280345197"><ele>859.2</ele><time>2026-04-18T16:05:40.001Z</time></trkpt><trkpt lat="45.19711821922083" lon="3.1829416829744783"><ele>859.4000000000001</ele><time>2026-04-18T16:05:41.001Z</time></trkpt><trkpt lat="45.197213107832376" lon="3.183019838398198"><ele>859.6</ele><time>2026-04-18T16:05:42.001Z</time></trkpt><trkpt lat="45.19731290605111" lon="3.1830463356529584"><ele>859.8</ele><time>2026-04-18T16:05:43.001Z</time></trkpt><trkpt lat="45.19741642956366" lon="3.183002217509961"><ele>860.0</ele><time>2026-04-18T16:05:44.001Z</time></trkpt><trkpt lat="45.19752577619589" lon="3.182927046547062"><ele>860.0</ele><time>2026-04-18T16:05:45.001Z</time></trkpt><trkpt lat="45.19763115941356" lon="3.182819445732014"><ele>860.0</ele><time>2026-04-18T16:05:46.001Z</time></trkpt><trkpt lat="45.1977376801224" lon="3.182682309994219"><ele>860.0</ele><time>2026-04-18T16:05:47.001Z</time></trkpt><trkpt lat="45.19784331235419" lon="3.182519637513662"><ele>860.0</ele><time>2026-04-18T16:05:48.001Z</time></trkpt><trkpt lat="45.19794482152815" lon="3.182334168906624"><ele>859.25</ele><time>2026-04-18T16:05:49.001Z</time></trkpt><trkpt lat="45.198034378429085" lon="3.1821668848324314"><ele>858.5</ele><time>2026-04-18T16:05:50.001Z</time></trkpt><trkpt lat="45.19812472697497" lon="3.1820067758493176"><ele>857.75</ele><time>2026-04-18T16:05:51.001Z</time></trkpt><trkpt lat="45.19821242387389" lon="3.181851058501013"><ele>857.0</ele><time>2026-04-18T16:05:52.001Z</time></trkpt><trkpt lat="45.198301109011936" lon="3.1817064925677796"><ele>857.0</ele><time>2026-04-18T16:05:53.001Z</time></trkpt><trkpt lat="45.198388414777405" lon="3.1815660610931817"><ele>857.0</ele><time>2026-04-18T16:05:54.001Z</time></trkpt><trkpt lat="45.198477310335065" lon="3.1814321582318796"><ele>857.0</ele><time>2026-04-18T16:05:55.001Z</time></trkpt><trkpt lat="45.19856817888568" lon="3.1813072114124825"><ele>857.0</ele><time>2026-04-18T16:05:56.001Z</time></trkpt><trkpt lat="45.19868349803257" lon="3.1812234320574446"><ele>856.0</ele><time>2026-04-18T16:05:57.001Z</time></trkpt><trkpt lat="45.19880297550292" lon="3.1811556099386125"><ele>855.0</ele><time>2026-04-18T16:05:58.001Z</time></trkpt><trkpt lat="45.19893815472158" lon="3.1811128758734184"><ele>854.0</ele><time>2026-04-18T16:05:59.001Z</time></trkpt><trkpt lat="45.19908249577003" lon="3.1810663987580603"><ele>853.0</ele><time>2026-04-18T16:06:00.001Z</time></trkpt><trkpt lat="45.199242832790034" lon="3.1810679461634104"><ele>853.0</ele><time>2026-04-18T16:06:01.001Z</time></trkpt><trkpt lat="45.19940557615596" lon="3.181083926052078"><ele>853.0</ele><time>2026-04-18T16:06:02.001Z</time></trkpt><trkpt lat="45.1995728634565" lon="3.1811228403809735"><ele>853.0</ele><time>2026-04-18T16:06:03.001Z</time></trkpt><trkpt lat="45.19974280812222" lon="3.181180897433462"><ele>848.3333333333333</ele><time>2026-04-18T16:06:04.001Z</time></trkpt><trkpt lat="45.19991554702736" lon="3.1812562921785266"><ele>843.6666666666667</ele><time>2026-04-18T16:06:05.001Z</time></trkpt><trkpt lat="45.200085040297935" lon="3.181349103723211"><ele>839.0</ele><time>2026-04-18T16:06:06.001Z</time></trkpt><trkpt lat="45.20025102884403" lon="3.1814509064342102"><ele>836.3333333333334</ele><time>2026-04-18T16:06:07.001Z</time></trkpt><trkpt lat="45.20041037520124" lon="3.1815561257886866"><ele>833.6666666666667</ele><time>2026-04-18T16:06:08.001Z</time></trkpt><trkpt lat="45.20056285149116" lon="3.181643076393092"><ele>831.0</ele><time>2026-04-18T16:06:09.001Z</time></trkpt><trkpt lat="45.200721625060076" lon="3.1817081638876195"><ele>829.6666666666667</ele><time>2026-04-18T16:06:10.001Z</time></trkpt><trkpt lat="45.20088832556322" lon="3.181748336802523"><ele>828.3333333333334</ele><time>2026-04-18T16:06:11.001Z</time></trkpt><trkpt lat="45.20105222240088" lon="3.181761847643199"><ele>827.0</ele><time>2026-04-18T16:06:12.001Z</time></trkpt><trkpt lat="45.20121061215634" lon="3.181772394192084"><ele>827.0</ele><time>2026-04-18T16:06:13.001Z</time></trkpt><trkpt lat="45.20136410842861" lon="3.1817845272873955"><ele>827.0</ele><time>2026-04-18T16:06:14.001Z</time></trkpt><trkpt lat="45.201519641711386" lon="3.1818239828918276"><ele>827.0</ele><time>2026-04-18T16:06:15.001Z</time></trkpt><trkpt lat="45.2016672704518" lon="3.181796185714994"><ele>826.3333333333334</ele><time>2026-04-18T16:06:16.001Z</time></trkpt><trkpt lat="45.201819986761194" lon="3.181764201597506"><ele>825.6666666666667</ele><time>2026-04-18T16:06:17Z</time></trkpt><trkpt lat="45.20196653807583" lon="3.1816889483621003"><ele>825.0</ele><time>2026-04-18T16:06:18Z</time></trkpt><trkpt lat="45.202105559362515" lon="3.1815736605893785"><ele>822.6666666666667</ele><time>2026-04-18T16:06:19Z</time></trkpt><trkpt lat="45.202232618649724" lon="3.1814379644633597"><ele>820.3333333333334</ele><time>2026-04-18T16:06:20Z</time></trkpt><trkpt lat="45.202362384325625" lon="3.181299659481559"><ele>818.0</ele><time>2026-04-18T16:06:21Z</time></trkpt><trkpt lat="45.20249306564453" lon="3.181167359717994"><ele>818.0</ele><time>2026-04-18T16:06:22Z</time></trkpt><trkpt lat="45.2026284955984" lon="3.181039236342242"><ele>818.0</ele><time>2026-04-18T16:06:23Z</time></trkpt><trkpt lat="45.20276217138591" lon="3.1809153878073206"><ele>818.0</ele><time>2026-04-18T16:06:24Z</time></trkpt><trkpt lat="45.202881109196284" lon="3.1808014316211066"><ele>818.0</ele><time>2026-04-18T16:06:25Z</time></trkpt><trkpt lat="45.20299989430992" lon="3.1807008473372886"><ele>818.0</ele><time>2026-04-18T16:06:26Z</time></trkpt><trkpt lat="45.203124875761674" lon="3.1806147234565865"><ele>818.0</ele><time>2026-04-18T16:06:27Z</time></trkpt><trkpt lat="45.2032502082765" lon="3.1805603557558304"><ele>818.0</ele><time>2026-04-18T16:06:28Z</time></trkpt><trkpt lat="45.203378376918266" lon="3.1805214236219075"><ele>819.0</ele><time>2026-04-18T16:06:29Z</time></trkpt><trkpt lat="45.203501685172036" lon="3.1805131162437736"><ele>820.0</ele><time>2026-04-18T16:06:30Z</time></trkpt><trkpt lat="45.20361502980337" lon="3.1805791110475847"><ele>821.0</ele><time>2026-04-18T16:06:31Z</time></trkpt><trkpt lat="45.203722172700765" lon="3.180649463255332"><ele>822.0</ele><time>2026-04-18T16:06:32Z</time></trkpt><trkpt lat="45.203797862239675" lon="3.1807914371821044"><ele>822.0</ele><time>2026-04-18T16:06:33Z</time></trkpt><trkpt lat="45.20384365801367" lon="3.1809693296695287"><ele>822.0</ele><time>2026-04-18T16:06:34Z</time></trkpt><trkpt lat="45.20383762753574" lon="3.1811769409635886"><ele>822.0</ele><time>2026-04-18T16:06:35Z</time></trkpt><trkpt lat="45.20384307201229" lon="3.181379955449183"><ele>822.0</ele><time>2026-04-18T16:06:36Z</time></trkpt><trkpt lat="45.2038198846207" lon="3.1815613620020318"><ele>824.25</ele><time>2026-04-18T16:06:37Z</time></trkpt><trkpt lat="45.20380935266001" lon="3.1817314259848835"><ele>826.5</ele><time>2026-04-18T16:06:38Z</time></trkpt><trkpt lat="45.20382259025139" lon="3.1818935744466907"><ele>828.75</ele><time>2026-04-18T16:06:39Z</time></trkpt><trkpt lat="45.20387516917103" lon="3.182040983466049"><ele>831.0</ele><time>2026-04-18T16:06:40Z</time></trkpt><trkpt lat="45.20397637994642" lon="3.1821619404556603"><ele>826.3333333333333</ele><time>2026-04-18T16:06:41Z</time></trkpt><trkpt lat="45.20411333235475" lon="3.182228486573581"><ele>821.6666666666666</ele><time>2026-04-18T16:06:42Z</time></trkpt><trkpt lat="45.20426217672473" lon="3.1822417234912295"><ele>817.0</ele><time>2026-04-18T16:06:43Z</time></trkpt><trkpt lat="45.20442320885787" lon="3.1822065470002627"><ele>817.0</ele><time>2026-04-18T16:06:44Z</time></trkpt><trkpt lat="45.20458470287176" lon="3.182125040910993"><ele>817.0</ele><time>2026-04-18T16:06:45Z</time></trkpt><trkpt lat="45.20474535784206" lon="3.1820477058408914"><ele>817.0</ele><time>2026-04-18T16:06:46Z</time></trkpt><trkpt lat="45.20489758602388" lon="3.1819775544640763"><ele>814.5</ele><time>2026-04-18T16:06:47Z</time></trkpt><trkpt lat="45.205045451125066" lon="3.181919813910134"><ele>812.0</ele><time>2026-04-18T16:06:48Z</time></trkpt><trkpt lat="45.20518862898727" lon="3.1818724655724013"><ele>809.5</ele><time>2026-04-18T16:06:49Z</time></trkpt><trkpt lat="45.20532953764344" lon="3.181835322030134"><ele>807.0</ele><time>2026-04-18T16:06:50Z</time></trkpt><trkpt lat="45.20547065143225" lon="3.181804456491978"><ele>807.0</ele><time>2026-04-18T16:06:51Z</time></trkpt><trkpt lat="45.20561371842134" lon="3.181778484482071"><ele>807.0</ele><time>2026-04-18T16:06:52Z</time></trkpt><trkpt lat="45.205754700677716" lon="3.181765626669008"><ele>807.0</ele><time>2026-04-18T16:06:53Z</time></trkpt><trkpt lat="45.20589626903383" lon="3.181776869896663"><ele>807.0</ele><time>2026-04-18T16:06:54Z</time></trkpt><trkpt lat="45.206025395996456" lon="3.1818215259110985"><ele>806.5</ele><time>2026-04-18T16:06:55Z</time></trkpt><trkpt lat="45.2061341674732" lon="3.18191294320544"><ele>806.0</ele><time>2026-04-18T16:06:56Z</time></trkpt><trkpt lat="45.20621751607085" lon="3.1820500205051987"><ele>805.5</ele><time>2026-04-18T16:06:57Z</time></trkpt><trkpt lat="45.20629327183482" lon="3.1822096515684395"><ele>805.0</ele><time>2026-04-18T16:06:58Z</time></trkpt><trkpt lat="45.206380288123015" lon="3.1823805283719286"><ele>804.0</ele><time>2026-04-18T16:06:59Z</time></trkpt><trkpt lat="45.206452250098074" lon="3.182578375733145"><ele>803.0</ele><time>2026-04-18T16:07:00Z</time></trkpt><trkpt lat="45.20651748689671" lon="3.1827764728068377"><ele>802.0</ele><time>2026-04-18T16:07:01Z</time></trkpt><trkpt lat="45.206574047658314" lon="3.182976743186368"><ele>804.6666666666666</ele><time>2026-04-18T16:07:02Z</time></trkpt><trkpt lat="45.20663371387461" lon="3.1831940713774465"><ele>807.3333333333333</ele><time>2026-04-18T16:07:03Z</time></trkpt><trkpt lat="45.206692867334496" lon="3.183403308698103"><ele>810.0</ele><time>2026-04-18T16:07:04Z</time></trkpt><trkpt lat="45.20675697395299" lon="3.183604329677127"><ele>810.0</ele><time>2026-04-18T16:07:05Z</time></trkpt><trkpt lat="45.20682706930445" lon="3.1837962790702585"><ele>810.0</ele><time>2026-04-18T16:07:06Z</time></trkpt><trkpt lat="45.206914244284995" lon="3.1839784641576947"><ele>810.0</ele><time>2026-04-18T16:07:07Z</time></trkpt><trkpt lat="45.2070187553225" lon="3.1841394866323927"><ele>812.0</ele><time>2026-04-18T16:07:08Z</time></trkpt><trkpt lat="45.207136819372934" lon="3.1842927521096107"><ele>814.0</ele><time>2026-04-18T16:07:09Z</time></trkpt><trkpt lat="45.20726406245392" lon="3.1844231164105006"><ele>816.0</ele><time>2026-04-18T16:07:10Z</time></trkpt><trkpt lat="45.207410003992976" lon="3.184523144550863"><ele>809.3333333333333</ele><time>2026-04-18T16:07:11Z</time></trkpt><trkpt lat="45.207571631526356" lon="3.1845989461514623"><ele>802.6666666666666</ele><time>2026-04-18T16:07:12Z</time></trkpt><trkpt lat="45.20773912681123" lon="3.1846514471094776"><ele>796.0</ele><time>2026-04-18T16:07:13Z</time></trkpt><trkpt lat="45.207906087786235" lon="3.1847028358327147"><ele>796.0</ele><time>2026-04-18T16:07:14Z</time></trkpt><trkpt lat="45.208077225062745" lon="3.1847655355422"><ele>796.0</ele><time>2026-04-18T16:07:15Z</time></trkpt><trkpt lat="45.20823927624621" lon="3.1848352183956106"><ele>796.0</ele><time>2026-04-18T16:07:16Z</time></trkpt><trkpt lat="45.208389679611095" lon="3.184909486746114"><ele>796.0</ele><time>2026-04-18T16:07:17Z</time></trkpt><trkpt lat="45.208518066827175" lon="3.1850088464065713"><ele>796.0</ele><time>2026-04-18T16:07:18Z</time></trkpt><trkpt lat="45.20865395222969" lon="3.185068605611186"><ele>796.0</ele><time>2026-04-18T16:07:19Z</time></trkpt><trkpt lat="45.20878240308033" lon="3.1851482528997423"><ele>796.0</ele><time>2026-04-18T16:07:20Z</time></trkpt><trkpt lat="45.20890624636551" lon="3.1852228448667046"><ele>793.25</ele><time>2026-04-18T16:07:21Z</time></trkpt><trkpt lat="45.20903166061255" lon="3.1852972883657684"><ele>790.5</ele><time>2026-04-18T16:07:22Z</time></trkpt><trkpt lat="45.20914845199053" lon="3.1854050654677137"><ele>787.75</ele><time>2026-04-18T16:07:23Z</time></trkpt><trkpt lat="45.209276317883635" lon="3.1854780124575375"><ele>785.0</ele><time>2026-04-18T16:07:24Z</time></trkpt><trkpt lat="45.20939552304899" lon="3.1855780626732986"><ele>784.25</ele><time>2026-04-18T16:07:25Z</time></trkpt><trkpt lat="45.209510006124866" lon="3.1856843041150174"><ele>783.5</ele><time>2026-04-18T16:07:26Z</time></trkpt><trkpt lat="45.20962506307158" lon="3.1857900910936316"><ele>782.75</ele><time>2026-04-18T16:07:27Z</time></trkpt><trkpt lat="45.209732991876315" lon="3.1858886006615172"><ele>782.0</ele><time>2026-04-18T16:07:28Z</time></trkpt><trkpt lat="45.20984290547018" lon="3.1859901874243204"><ele>782.0</ele><time>2026-04-18T16:07:29Z</time></trkpt><trkpt lat="45.209954606461935" lon="3.186093598236996"><ele>782.0</ele><time>2026-04-18T16:07:30Z</time></trkpt><trkpt lat="45.210068453126894" lon="3.186214244014694"><ele>782.0</ele><time>2026-04-18T16:07:31Z</time></trkpt><trkpt lat="45.21017670559377" lon="3.1863487879831585"><ele>782.0</ele><time>2026-04-18T16:07:32Z</time></trkpt><trkpt lat="45.210275879216944" lon="3.1864934608483684"><ele>781.5</ele><time>2026-04-18T16:07:33Z</time></trkpt><trkpt lat="45.210371556917984" lon="3.1866200899658104"><ele>781.0</ele><time>2026-04-18T16:07:34Z</time></trkpt><trkpt lat="45.210470350205135" lon="3.186731059463806"><ele>780.5</ele><time>2026-04-18T16:07:35Z</time></trkpt><trkpt lat="45.210574649664906" lon="3.186816482475346"><ele>780.0</ele><time>2026-04-18T16:07:36Z</time></trkpt><trkpt lat="45.210690164689446" lon="3.186868677365394"><ele>780.0</ele><time>2026-04-18T16:07:37Z</time></trkpt><trkpt lat="45.21081963820326" lon="3.186884088126476"><ele>780.0</ele><time>2026-04-18T16:07:38Z</time></trkpt><trkpt lat="45.2109553481793" lon="3.1868748648961045"><ele>780.0</ele><time>2026-04-18T16:07:39Z</time></trkpt><trkpt lat="45.21109343581668" lon="3.186847877309705"><ele>780.0</ele><time>2026-04-18T16:07:40Z</time></trkpt><trkpt lat="45.211233881215826" lon="3.186840073286649"><ele>780.0</ele><time>2026-04-18T16:07:41Z</time></trkpt><trkpt lat="45.211362364869736" lon="3.186890949111069"><ele>780.0</ele><time>2026-04-18T16:07:42Z</time></trkpt><trkpt lat="45.211497245489426" lon="3.1869190889534025"><ele>780.0</ele><time>2026-04-18T16:07:43Z</time></trkpt><trkpt lat="45.211624351919035" lon="3.186988665611787"><ele>780.0</ele><time>2026-04-18T16:07:44Z</time></trkpt><trkpt lat="45.21175411245848" lon="3.1870666308419384"><ele>779.75</ele><time>2026-04-18T16:07:45Z</time></trkpt><trkpt lat="45.21189109191929" lon="3.187135170584598"><ele>779.5</ele><time>2026-04-18T16:07:46Z</time></trkpt><trkpt lat="45.21203216986001" lon="3.1872018027145113"><ele>779.25</ele><time>2026-04-18T16:07:47Z</time></trkpt><trkpt lat="45.21216957907855" lon="3.1872726105174065"><ele>779.0</ele><time>2026-04-18T16:07:48Z</time></trkpt><trkpt lat="45.21231127382464" lon="3.1873568367182386"><ele>780.0</ele><time>2026-04-18T16:07:49Z</time></trkpt><trkpt lat="45.21245201344768" lon="3.18745381781301"><ele>781.0</ele><time>2026-04-18T16:07:50Z</time></trkpt><trkpt lat="45.212598155130514" lon="3.1875546647038533"><ele>782.0</ele><time>2026-04-18T16:07:51Z</time></trkpt><trkpt lat="45.21274349615818" lon="3.1876551603978545"><ele>782.0</ele><time>2026-04-18T16:07:52Z</time></trkpt><trkpt lat="45.2128869608299" lon="3.187750177823735"><ele>782.0</ele><time>2026-04-18T16:07:53Z</time></trkpt><trkpt lat="45.213036952478134" lon="3.1878477476189033"><ele>782.0</ele><time>2026-04-18T16:07:54Z</time></trkpt><trkpt lat="45.2131881072772" lon="3.1879492839393673"><ele>781.3333333333334</ele><time>2026-04-18T16:07:55Z</time></trkpt><trkpt lat="45.21334158392767" lon="3.1880526527192785"><ele>780.6666666666667</ele><time>2026-04-18T16:07:56Z</time></trkpt><trkpt lat="45.21349352640048" lon="3.188154786293225"><ele>780.0</ele><time>2026-04-18T16:07:57Z</time></trkpt><trkpt lat="45.21364591294909" lon="3.1882561025576095"><ele>780.6666666666667</ele><time>2026-04-18T16:07:58Z</time></trkpt><trkpt lat="45.21379728711934" lon="3.188357852998385"><ele>781.3333333333334</ele><time>2026-04-18T16:07:59Z</time></trkpt><trkpt lat="45.21394630996316" lon="3.188464132154476"><ele>782.0</ele><time>2026-04-18T16:08:00Z</time></trkpt><trkpt lat="45.21409203484209" lon="3.1885644146642917"><ele>782.0</ele><time>2026-04-18T16:08:01Z</time></trkpt><trkpt lat="45.214239822720494" lon="3.1886710513770242"><ele>782.0</ele><time>2026-04-18T16:08:02Z</time></trkpt><trkpt lat="45.21438524050201" lon="3.188765423982848"><ele>782.0</ele><time>2026-04-18T16:08:03Z</time></trkpt><trkpt lat="45.214529190079595" lon="3.188852055356282"><ele>782.0</ele><time>2026-04-18T16:08:04Z</time></trkpt><trkpt lat="45.214677727041945" lon="3.188942709997161"><ele>782.0</ele><time>2026-04-18T16:08:05Z</time></trkpt><trkpt lat="45.21483121884898" lon="3.189033139344197"><ele>782.0</ele><time>2026-04-18T16:08:06Z</time></trkpt><trkpt lat="45.21498790186097" lon="3.1891238931389503"><ele>780.6666666666667</ele><time>2026-04-18T16:08:07Z</time></trkpt><trkpt lat="45.215144002167186" lon="3.1892012050102294"><ele>779.3333333333333</ele><time>2026-04-18T16:08:08Z</time></trkpt><trkpt lat="45.21530487745844" lon="3.1892867964901743"><ele>778.0</ele><time>2026-04-18T16:08:09Z</time></trkpt><trkpt lat="45.21546624945755" lon="3.1893772789406594"><ele>778.0</ele><time>2026-04-18T16:08:10Z</time></trkpt><trkpt lat="45.215627003654205" lon="3.1894512582097203"><ele>778.0</ele><time>2026-04-18T16:08:11Z</time></trkpt><trkpt lat="45.21579102193598" lon="3.1894996532990847"><ele>778.0</ele><time>2026-04-18T16:08:12Z</time></trkpt><trkpt lat="45.21596353881328" lon="3.1895443953561315"><ele>779.0</ele><time>2026-04-18T16:08:13Z</time></trkpt><trkpt lat="45.21613560850618" lon="3.1895862051831214"><ele>780.0</ele><time>2026-04-18T16:08:14Z</time></trkpt><trkpt lat="45.21630463144778" lon="3.1896337578788847"><ele>781.0</ele><time>2026-04-18T16:08:15Z</time></trkpt><trkpt lat="45.216481511719195" lon="3.1896831552137077"><ele>781.0</ele><time>2026-04-18T16:08:16Z</time></trkpt><trkpt lat="45.216656052569256" lon="3.189746546148359"><ele>781.0</ele><time>2026-04-18T16:08:17Z</time></trkpt><trkpt lat="45.21682779959474" lon="3.1898283749873504"><ele>781.0</ele><time>2026-04-18T16:08:18Z</time></trkpt><trkpt lat="45.217002825763366" lon="3.1899233447380206"><ele>781.0</ele><time>2026-04-18T16:08:19Z</time></trkpt><trkpt lat="45.217176679761735" lon="3.1900261858384593"><ele>781.0</ele><time>2026-04-18T16:08:20Z</time></trkpt><trkpt lat="45.21735849466317" lon="3.1901377250071894"><ele>781.0</ele><time>2026-04-18T16:08:21Z</time></trkpt><trkpt lat="45.217533128462705" lon="3.19024894890196"><ele>780.6666666666666</ele><time>2026-04-18T16:08:22Z</time></trkpt><trkpt lat="45.217704577376324" lon="3.190352193476469"><ele>780.3333333333333</ele><time>2026-04-18T16:08:23Z</time></trkpt><trkpt lat="45.21787335671663" lon="3.1904516760973953"><ele>780.0</ele><time>2026-04-18T16:08:24Z</time></trkpt><trkpt lat="45.21804435106033" lon="3.1905519638872346"><ele>778.6666666666667</ele><time>2026-04-18T16:08:25Z</time></trkpt><trkpt lat="45.21821034551538" lon="3.1906501874380435"><ele>777.3333333333334</ele><time>2026-04-18T16:08:26Z</time></trkpt><trkpt lat="45.21836913641075" lon="3.19074844741977"><ele>776.0</ele><time>2026-04-18T16:08:27Z</time></trkpt><trkpt lat="45.218534585302194" lon="3.1908422443256748"><ele>776.0</ele><time>2026-04-18T16:08:28Z</time></trkpt><trkpt lat="45.21869662282258" lon="3.1909274621425086"><ele>776.0</ele><time>2026-04-18T16:08:29Z</time></trkpt><trkpt lat="45.21886931774256" lon="3.19100002376286"><ele>776.0</ele><time>2026-04-18T16:08:30Z</time></trkpt><trkpt lat="45.21903653095199" lon="3.1910442277082245"><ele>776.6666666666667</ele><time>2026-04-18T16:08:31Z</time></trkpt><trkpt lat="45.21920592506618" lon="3.1910632054278167"><ele>777.3333333333333</ele><time>2026-04-18T16:08:32Z</time></trkpt><trkpt lat="45.21937266156283" lon="3.1910663242806847"><ele>778.0</ele><time>2026-04-18T16:08:33Z</time></trkpt><trkpt lat="45.21954472077014" lon="3.1910627130241567"><ele>778.0</ele><time>2026-04-18T16:08:34Z</time></trkpt><trkpt lat="45.21971421271488" lon="3.1910598059777695"><ele>778.0</ele><time>2026-04-18T16:08:35Z</time></trkpt><trkpt lat="45.21989013960911" lon="3.1910592494705066"><ele>778.0</ele><time>2026-04-18T16:08:36Z</time></trkpt><trkpt lat="45.22006690783975" lon="3.1910691978295294"><ele>778.6666666666666</ele><time>2026-04-18T16:08:37Z</time></trkpt><trkpt lat="45.22024739059234" lon="3.191093430741811"><ele>779.3333333333333</ele><time>2026-04-18T16:08:38Z</time></trkpt><trkpt lat="45.22042696926605" lon="3.1911342540632246"><ele>780.0</ele><time>2026-04-18T16:08:39Z</time></trkpt><trkpt lat="45.22061274072024" lon="3.1911939079732576"><ele>779.6666666666667</ele><time>2026-04-18T16:08:40Z</time></trkpt><trkpt lat="45.22080233054492" lon="3.1912543439941934"><ele>779.3333333333334</ele><time>2026-04-18T16:08:41Z</time></trkpt><trkpt lat="45.220986569660866" lon="3.1913213418417636"><ele>779.0</ele><time>2026-04-18T16:08:42Z</time></trkpt><trkpt lat="45.2211872897665" lon="3.1913803980211353"><ele>779.0</ele><time>2026-04-18T16:08:43Z</time></trkpt><trkpt lat="45.22138160521961" lon="3.1914442455442633"><ele>779.0</ele><time>2026-04-18T16:08:44Z</time></trkpt><trkpt lat="45.22157690419382" lon="3.1915142181682077"><ele>779.0</ele><time>2026-04-18T16:08:45Z</time></trkpt><trkpt lat="45.221779589364345" lon="3.1915790888897115"><ele>777.3333333333334</ele><time>2026-04-18T16:08:46Z</time></trkpt><trkpt lat="45.221975729933185" lon="3.1916591473574054"><ele>775.6666666666667</ele><time>2026-04-18T16:08:47Z</time></trkpt><trkpt lat="45.2221602093804" lon="3.1917868564125325"><ele>774.0</ele><time>2026-04-18T16:08:48Z</time></trkpt><trkpt lat="45.22234980520344" lon="3.1918897400861677"><ele>773.3333333333333</ele><time>2026-04-18T16:08:49Z</time></trkpt><trkpt lat="45.22252737953832" lon="3.1920238355376878"><ele>772.6666666666666</ele><time>2026-04-18T16:08:50Z</time></trkpt><trkpt lat="45.222704831638104" lon="3.192158742994522"><ele>772.0</ele><time>2026-04-18T16:08:51Z</time></trkpt><trkpt lat="45.222881741680105" lon="3.192287240484667"><ele>771.6666666666666</ele><time>2026-04-18T16:08:52Z</time></trkpt><trkpt lat="45.22305564495906" lon="3.1924116800756215"><ele>771.3333333333333</ele><time>2026-04-18T16:08:53Z</time></trkpt><trkpt lat="45.223231328750146" lon="3.1925332861454785"><ele>771.0</ele><time>2026-04-18T16:08:54Z</time></trkpt><trkpt lat="45.223415684058935" lon="3.192654986735037"><ele>771.0</ele><time>2026-04-18T16:08:55Z</time></trkpt><trkpt lat="45.223592921907894" lon="3.1927794618842555"><ele>771.0</ele><time>2026-04-18T16:08:56Z</time></trkpt><trkpt lat="45.2237684739616" lon="3.1929101027164792"><ele>771.0</ele><time>2026-04-18T16:08:57Z</time></trkpt><trkpt lat="45.223953811150906" lon="3.1930228430746537"><ele>772.3333333333333</ele><time>2026-04-18T16:08:58Z</time></trkpt><trkpt lat="45.22413420990907" lon="3.193151071878128"><ele>773.6666666666666</ele><time>2026-04-18T16:08:59Z</time></trkpt><trkpt lat="45.224316354908616" lon="3.193274664110144"><ele>775.0</ele><time>2026-04-18T16:09:00Z</time></trkpt><trkpt lat="45.224502087747716" lon="3.1933956249346855"><ele>773.0</ele><time>2026-04-18T16:09:01Z</time></trkpt><trkpt lat="45.22469010947366" lon="3.193497000454126"><ele>771.0</ele><time>2026-04-18T16:09:02Z</time></trkpt><trkpt lat="45.22488915118979" lon="3.19356265664037"><ele>769.0</ele><time>2026-04-18T16:09:03Z</time></trkpt><trkpt lat="45.22508565753504" lon="3.1935977559364432"><ele>769.0</ele><time>2026-04-18T16:09:04Z</time></trkpt><trkpt lat="45.22526880059339" lon="3.193620699764951"><ele>769.0</ele><time>2026-04-18T16:09:05Z</time></trkpt><trkpt lat="45.225441151956076" lon="3.1936540874390524"><ele>769.0</ele><time>2026-04-18T16:09:06Z</time></trkpt><trkpt lat="45.22561333460513" lon="3.193681100256559"><ele>767.3333333333333</ele><time>2026-04-18T16:09:07Z</time></trkpt><trkpt lat="45.22578054519227" lon="3.193707541077405"><ele>765.6666666666666</ele><time>2026-04-18T16:09:08Z</time></trkpt><trkpt lat="45.22594249910471" lon="3.1937345854025234"><ele>764.0</ele><time>2026-04-18T16:09:09Z</time></trkpt><trkpt lat="45.226096048873615" lon="3.193765797202021"><ele>764.0</ele><time>2026-04-18T16:09:10Z</time></trkpt><trkpt lat="45.22623212021358" lon="3.193785213450251"><ele>764.0</ele><time>2026-04-18T16:09:11Z</time></trkpt><trkpt lat="45.22637334971017" lon="3.1937769854465365"><ele>764.0</ele><time>2026-04-18T16:09:12Z</time></trkpt><trkpt lat="45.22648305475193" lon="3.1937294661002134"><ele>764.0</ele><time>2026-04-18T16:09:13Z</time></trkpt><trkpt lat="45.226576093117124" lon="3.1936282434529835"><ele>762.25</ele><time>2026-04-18T16:09:14Z</time></trkpt><trkpt lat="45.22665063332468" lon="3.193478070614423"><ele>760.5</ele><time>2026-04-18T16:09:15Z</time></trkpt><trkpt lat="45.22671202556597" lon="3.193289518671784"><ele>758.75</ele><time>2026-04-18T16:09:16Z</time></trkpt><trkpt lat="45.22676528126227" lon="3.1930843342507607"><ele>757.0</ele><time>2026-04-18T16:09:17Z</time></trkpt><trkpt lat="45.226812189786344" lon="3.1928664276835725"><ele>757.0</ele><time>2026-04-18T16:09:18Z</time></trkpt><trkpt lat="45.226833424942676" lon="3.1926585377605714"><ele>757.0</ele><time>2026-04-18T16:09:19Z</time></trkpt><trkpt lat="45.22683856841317" lon="3.1924569896061405"><ele>757.0</ele><time>2026-04-18T16:09:20Z</time></trkpt><trkpt lat="45.22687810879297" lon="3.1923040529662488"><ele>757.0</ele><time>2026-04-18T16:09:21Z</time></trkpt><trkpt lat="45.22692505978062" lon="3.192181812083661"><ele>756.0</ele><time>2026-04-18T16:09:22Z</time></trkpt><trkpt lat="45.2270094749122" lon="3.1921195797263113"><ele>755.0</ele><time>2026-04-18T16:09:23Z</time></trkpt><trkpt lat="45.22710129218356" lon="3.1921206670342213"><ele>754.0</ele><time>2026-04-18T16:09:24Z</time></trkpt><trkpt lat="45.227197247824414" lon="3.1921438002521394"><ele>753.0</ele><time>2026-04-18T16:09:25Z</time></trkpt><trkpt lat="45.2272940559782" lon="3.1922369067642853"><ele>752.0</ele><time>2026-04-18T16:09:26Z</time></trkpt><trkpt lat="45.22737849124736" lon="3.1923804669874727"><ele>752.0</ele><time>2026-04-18T16:09:27Z</time></trkpt><trkpt lat="45.22744059318578" lon="3.1925549918033576"><ele>752.0</ele><time>2026-04-18T16:09:28Z</time></trkpt><trkpt lat="45.22751006425208" lon="3.192729549540487"><ele>752.0</ele><time>2026-04-18T16:09:29Z</time></trkpt><trkpt lat="45.22755694322963" lon="3.192909197705077"><ele>752.0</ele><time>2026-04-18T16:09:30Z</time></trkpt><trkpt lat="45.22761725042965" lon="3.193076919965381"><ele>749.0</ele><time>2026-04-18T16:09:31Z</time></trkpt><trkpt lat="45.22769356908999" lon="3.1932227200832832"><ele>746.0</ele><time>2026-04-18T16:09:32Z</time></trkpt><trkpt lat="45.22778973092505" lon="3.1933608977278882"><ele>743.0</ele><time>2026-04-18T16:09:33Z</time></trkpt><trkpt lat="45.22789576584969" lon="3.1935008769136997"><ele>740.0</ele><time>2026-04-18T16:09:34Z</time></trkpt><trkpt lat="45.228007030927664" lon="3.1936250775470088"><ele>740.0</ele><time>2026-04-18T16:09:35Z</time></trkpt><trkpt lat="45.228107572618214" lon="3.1937447207981444"><ele>740.0</ele><time>2026-04-18T16:09:36Z</time></trkpt><trkpt lat="45.22821051407537" lon="3.1938716931098883"><ele>740.0</ele><time>2026-04-18T16:09:37Z</time></trkpt><trkpt lat="45.2283134364598" lon="3.1940139624556836"><ele>740.0</ele><time>2026-04-18T16:09:38Z</time></trkpt><trkpt lat="45.22841924700903" lon="3.19416748942368"><ele>739.3333333333333</ele><time>2026-04-18T16:09:39Z</time></trkpt><trkpt lat="45.228522309502026" lon="3.194333348568459"><ele>738.6666666666666</ele><time>2026-04-18T16:09:40Z</time></trkpt><trkpt lat="45.2286295653231" lon="3.194507345488518"><ele>738.0</ele><time>2026-04-18T16:09:41Z</time></trkpt><trkpt lat="45.22873909332511" lon="3.194684304223567"><ele>739.3333333333334</ele><time>2026-04-18T16:09:42Z</time></trkpt><trkpt lat="45.22884007178407" lon="3.1948501962663953"><ele>740.6666666666667</ele><time>2026-04-18T16:09:43Z</time></trkpt><trkpt lat="45.22894092424539" lon="3.195012368171638"><ele>742.0</ele><time>2026-04-18T16:09:44Z</time></trkpt><trkpt lat="45.22905032934048" lon="3.1951745382958423"><ele>742.0</ele><time>2026-04-18T16:09:45Z</time></trkpt><trkpt lat="45.229161163117894" lon="3.195321881716473"><ele>742.0</ele><time>2026-04-18T16:09:46Z</time></trkpt><trkpt lat="45.22926963571995" lon="3.195450091152586"><ele>742.0</ele><time>2026-04-18T16:09:47Z</time></trkpt><trkpt lat="45.22938537340412" lon="3.1955670594151604"><ele>742.0</ele><time>2026-04-18T16:09:48Z</time></trkpt><trkpt lat="45.229502228576145" lon="3.195671915697778"><ele>740.25</ele><time>2026-04-18T16:09:49Z</time></trkpt><trkpt lat="45.22961523323629" lon="3.195767945113252"><ele>738.5</ele><time>2026-04-18T16:09:50Z</time></trkpt><trkpt lat="45.22972519708166" lon="3.1958534785005983"><ele>736.75</ele><time>2026-04-18T16:09:51Z</time></trkpt><trkpt lat="45.22983942332157" lon="3.1959243253934733"><ele>735.0</ele><time>2026-04-18T16:09:52Z</time></trkpt><trkpt lat="45.229957988470005" lon="3.1959547566767332"><ele>735.0</ele><time>2026-04-18T16:09:53Z</time></trkpt><trkpt lat="45.23008602467614" lon="3.195941939334991"><ele>735.0</ele><time>2026-04-18T16:09:54Z</time></trkpt><trkpt lat="45.23021206744065" lon="3.195887877263248"><ele>735.0</ele><time>2026-04-18T16:09:55Z</time></trkpt><trkpt lat="45.230350610498164" lon="3.19581019798226"><ele>735.0</ele><time>2026-04-18T16:09:56Z</time></trkpt><trkpt lat="45.230489032515045" lon="3.1957345972401994"><ele>735.0</ele><time>2026-04-18T16:09:57Z</time></trkpt><trkpt lat="45.23062297396826" lon="3.1956809642297404"><ele>735.0</ele><time>2026-04-18T16:09:58Z</time></trkpt><trkpt lat="45.23075112578069" lon="3.195642793996933"><ele>735.0</ele><time>2026-04-18T16:09:59Z</time></trkpt><trkpt lat="45.23087181814643" lon="3.1956577019097314"><ele>735.0</ele><time>2026-04-18T16:10:00Z</time></trkpt><trkpt lat="45.23098302703402" lon="3.1956947305733476"><ele>733.75</ele><time>2026-04-18T16:10:01Z</time></trkpt><trkpt lat="45.23106616717216" lon="3.195790840984608"><ele>732.5</ele><time>2026-04-18T16:10:02Z</time></trkpt><trkpt lat="45.231121212514594" lon="3.195924203076661"><ele>731.25</ele><time>2026-04-18T16:10:03Z</time></trkpt><trkpt lat="45.231164156614575" lon="3.1960909321832975"><ele>730.0</ele><time>2026-04-18T16:10:04Z</time></trkpt><trkpt lat="45.23122363387947" lon="3.1962605070822976"><ele>730.0</ele><time>2026-04-18T16:10:05Z</time></trkpt><trkpt lat="45.23126126029106" lon="3.196458771834251"><ele>730.0</ele><time>2026-04-18T16:10:06Z</time></trkpt><trkpt lat="45.23130183000979" lon="3.196649597198996"><ele>730.0</ele><time>2026-04-18T16:10:07Z</time></trkpt><trkpt lat="45.23133908489165" lon="3.196851292733572"><ele>730.0</ele><time>2026-04-18T16:10:08Z</time></trkpt><trkpt lat="45.23136284559137" lon="3.1970504458366302"><ele>725.5</ele><time>2026-04-18T16:10:09Z</time></trkpt><trkpt lat="45.23138027589211" lon="3.197251132760432"><ele>721.0</ele><time>2026-04-18T16:10:10Z</time></trkpt><trkpt lat="45.23140121349548" lon="3.1974481850520675"><ele>716.5</ele><time>2026-04-18T16:10:11Z</time></trkpt><trkpt lat="45.231427794797945" lon="3.1976344142443125"><ele>712.0</ele><time>2026-04-18T16:10:12Z</time></trkpt><trkpt lat="45.23145807620965" lon="3.1978153795498288"><ele>712.5</ele><time>2026-04-18T16:10:13Z</time></trkpt><trkpt lat="45.23150251929361" lon="3.1979789528482483"><ele>713.0</ele><time>2026-04-18T16:10:14Z</time></trkpt><trkpt lat="45.231568751213516" lon="3.1981278863485127"><ele>713.5</ele><time>2026-04-18T16:10:15Z</time></trkpt><trkpt lat="45.23165080667894" lon="3.198245009141534"><ele>714.0</ele><time>2026-04-18T16:10:16Z</time></trkpt><trkpt lat="45.231751875162196" lon="3.1983394345836484"><ele>714.0</ele><time>2026-04-18T16:10:17Z</time></trkpt><trkpt lat="45.23187333184045" lon="3.1984069489558182"><ele>714.0</ele><time>2026-04-18T16:10:18Z</time></trkpt><trkpt lat="45.23200495517677" lon="3.1984527486625325"><ele>714.0</ele><time>2026-04-18T16:10:19Z</time></trkpt><trkpt lat="45.23210562412695" lon="3.1985406933245075"><ele>714.0</ele><time>2026-04-18T16:10:20Z</time></trkpt><trkpt lat="45.23218929689209" lon="3.1986462474813715"><ele>714.0</ele><time>2026-04-18T16:10:21Z</time></trkpt><trkpt lat="45.23224528144956" lon="3.198787213508032"><ele>714.0</ele><time>2026-04-18T16:10:22Z</time></trkpt><trkpt lat="45.23226681322767" lon="3.198957440218204"><ele>714.0</ele><time>2026-04-18T16:10:23Z</time></trkpt><trkpt lat="45.232294073460196" lon="3.199138149783465"><ele>714.0</ele><time>2026-04-18T16:10:24Z</time></trkpt><trkpt lat="45.23228882710319" lon="3.199336949863841"><ele>715.5</ele><time>2026-04-18T16:10:25Z</time></trkpt><trkpt lat="45.232291912737814" lon="3.199522565273504"><ele>717.0</ele><time>2026-04-18T16:10:26Z</time></trkpt><trkpt lat="45.23230870726409" lon="3.1996971160170093"><ele>718.5</ele><time>2026-04-18T16:10:27Z</time></trkpt><trkpt lat="45.23234356405869" lon="3.1998602198438193"><ele>720.0</ele><time>2026-04-18T16:10:28Z</time></trkpt><trkpt lat="45.23239294692562" lon="3.200010910054395"><ele>717.0</ele><time>2026-04-18T16:10:29Z</time></trkpt><trkpt lat="45.23245394143439" lon="3.2001506367143904"><ele>714.0</ele><time>2026-04-18T16:10:30Z</time></trkpt><trkpt lat="45.23252775980977" lon="3.200268953812218"><ele>711.0</ele><time>2026-04-18T16:10:31Z</time></trkpt><trkpt lat="45.232616575789976" lon="3.200368105399359"><ele>708.0</ele><time>2026-04-18T16:10:32Z</time></trkpt><trkpt lat="45.23271929074676" lon="3.200429172690975"><ele>708.0</ele><time>2026-04-18T16:10:33Z</time></trkpt><trkpt lat="45.232837323634705" lon="3.200453193498811"><ele>708.0</ele><time>2026-04-18T16:10:34Z</time></trkpt><trkpt lat="45.23296694890086" lon="3.200448931224978"><ele>708.0</ele><time>2026-04-18T16:10:35Z</time></trkpt><trkpt lat="45.233098308509256" lon="3.2004477788922516"><ele>708.0</ele><time>2026-04-18T16:10:36Z</time></trkpt><trkpt lat="45.233208872398336" lon="3.200515689702448"><ele>706.5</ele><time>2026-04-18T16:10:37Z</time></trkpt><trkpt lat="45.23330339349153" lon="3.2006061182401333"><ele>705.0</ele><time>2026-04-18T16:10:38Z</time></trkpt><trkpt lat="45.23337398873304" lon="3.200733388876568"><ele>703.5</ele><time>2026-04-18T16:10:39Z</time></trkpt><trkpt lat="45.23342308720016" lon="3.2008782657083943"><ele>702.0</ele><time>2026-04-18T16:10:40Z</time></trkpt><trkpt lat="45.23344688173588" lon="3.201039232926205"><ele>702.0</ele><time>2026-04-18T16:10:41Z</time></trkpt><trkpt lat="45.23346511459882" lon="3.201219694823131"><ele>702.0</ele><time>2026-04-18T16:10:42Z</time></trkpt><trkpt lat="45.233465214164106" lon="3.201407307639162"><ele>702.0</ele><time>2026-04-18T16:10:43Z</time></trkpt><trkpt lat="45.233458281403905" lon="3.2015957462717273"><ele>702.0</ele><time>2026-04-18T16:10:44Z</time></trkpt><trkpt lat="45.23344464965987" lon="3.2017738788203007"><ele>699.75</ele><time>2026-04-18T16:10:45Z</time></trkpt><trkpt lat="45.23342801119898" lon="3.2019525637400026"><ele>697.5</ele><time>2026-04-18T16:10:46Z</time></trkpt><trkpt lat="45.23340243454891" lon="3.202127338587699"><ele>695.25</ele><time>2026-04-18T16:10:47Z</time></trkpt><trkpt lat="45.233352492939524" lon="3.202285238394625"><ele>693.0</ele><time>2026-04-18T16:10:48Z</time></trkpt><trkpt lat="45.233284683117596" lon="3.2024291354432957"><ele>693.0</ele><time>2026-04-18T16:10:49Z</time></trkpt><trkpt lat="45.233216259944506" lon="3.2025744079548244"><ele>693.0</ele><time>2026-04-18T16:10:50Z</time></trkpt><trkpt lat="45.23315612504784" lon="3.2027216735672828"><ele>693.0</ele><time>2026-04-18T16:10:51Z</time></trkpt><trkpt lat="45.23311030323864" lon="3.2028733379141094"><ele>693.0</ele><time>2026-04-18T16:10:52Z</time></trkpt><trkpt lat="45.233083027836436" lon="3.2030279205100722"><ele>693.0</ele><time>2026-04-18T16:10:53Z</time></trkpt><trkpt lat="45.23307389258574" lon="3.2031871206737486"><ele>693.0</ele><time>2026-04-18T16:10:54Z</time></trkpt><trkpt lat="45.23307499165193" lon="3.2033393662554603"><ele>693.0</ele><time>2026-04-18T16:10:55Z</time></trkpt><trkpt lat="45.233091537225675" lon="3.203487152000373"><ele>693.0</ele><time>2026-04-18T16:10:56Z</time></trkpt><trkpt lat="45.23311822041981" lon="3.203637733366286"><ele>693.0</ele><time>2026-04-18T16:10:57Z</time></trkpt><trkpt lat="45.23315167950401" lon="3.2037947996024627"><ele>693.0</ele><time>2026-04-18T16:10:58Z</time></trkpt><trkpt lat="45.23320204117917" lon="3.203947087609778"><ele>693.0</ele><time>2026-04-18T16:10:59Z</time></trkpt><trkpt lat="45.233252231467155" lon="3.2040956201562616"><ele>693.0</ele><time>2026-04-18T16:11:00Z</time></trkpt><trkpt lat="45.23330001218277" lon="3.2042388232263943"><ele>693.0</ele><time>2026-04-18T16:11:01Z</time></trkpt><trkpt lat="45.23335625203084" lon="3.204364247596472"><ele>691.5999999999999</ele><time>2026-04-18T16:11:02Z</time></trkpt><trkpt lat="45.23343075817139" lon="3.20446956789863"><ele>690.1999999999999</ele><time>2026-04-18T16:11:03Z</time></trkpt><trkpt lat="45.233520624433154" lon="3.2045410663085754"><ele>688.8</ele><time>2026-04-18T16:11:04Z</time></trkpt><trkpt lat="45.23361983257789" lon="3.204584676361854"><ele>687.4</ele><time>2026-04-18T16:11:05Z</time></trkpt><trkpt lat="45.23371944289658" lon="3.2045911344449833"><ele>686.0</ele><time>2026-04-18T16:11:06Z</time></trkpt><trkpt lat="45.233820709591974" lon="3.204557527434937"><ele>686.0</ele><time>2026-04-18T16:11:07Z</time></trkpt><trkpt lat="45.233921745596575" lon="3.2045013472885735"><ele>686.0</ele><time>2026-04-18T16:11:08Z</time></trkpt><trkpt lat="45.23402806479365" lon="3.2044333198840858"><ele>686.0</ele><time>2026-04-18T16:11:09Z</time></trkpt><trkpt lat="45.234130190507855" lon="3.204371141032125"><ele>686.0</ele><time>2026-04-18T16:11:10Z</time></trkpt><trkpt lat="45.2342318588026" lon="3.204318137492578"><ele>686.0</ele><time>2026-04-18T16:11:11Z</time></trkpt><trkpt lat="45.23433813256355" lon="3.204286490914671"><ele>688.75</ele><time>2026-04-18T16:11:12Z</time></trkpt><trkpt lat="45.23444692198297" lon="3.2042878395898606"><ele>691.5</ele><time>2026-04-18T16:11:13Z</time></trkpt><trkpt lat="45.234558278365405" lon="3.2042966397531254"><ele>694.25</ele><time>2026-04-18T16:11:14Z</time></trkpt><trkpt lat="45.234673894462155" lon="3.2043165775333153"><ele>697.0</ele><time>2026-04-18T16:11:15Z</time></trkpt><trkpt lat="45.234793424823295" lon="3.204351777102496"><ele>696.75</ele><time>2026-04-18T16:11:16Z</time></trkpt><trkpt lat="45.234917970097484" lon="3.2044117383827944"><ele>696.5</ele><time>2026-04-18T16:11:17Z</time></trkpt><trkpt lat="45.23503565013892" lon="3.204487903085521"><ele>696.25</ele><time>2026-04-18T16:11:18Z</time></trkpt><trkpt lat="45.235151763685" lon="3.2045649289994405"><ele>696.0</ele><time>2026-04-18T16:11:19Z</time></trkpt><trkpt lat="45.23526423645406" lon="3.204626392889181"><ele>696.0</ele><time>2026-04-18T16:11:20Z</time></trkpt><trkpt lat="45.23537924899556" lon="3.204665995459909"><ele>696.0</ele><time>2026-04-18T16:11:21Z</time></trkpt><trkpt lat="45.235497474863244" lon="3.204681949493684"><ele>696.0</ele><time>2026-04-18T16:11:22Z</time></trkpt><trkpt lat="45.23562000139467" lon="3.204682207989713"><ele>696.0</ele><time>2026-04-18T16:11:23Z</time></trkpt><trkpt lat="45.235744178741506" lon="3.2046685187820283"><ele>694.25</ele><time>2026-04-18T16:11:24Z</time></trkpt><trkpt lat="45.235877679460806" lon="3.2046377805918316"><ele>692.5</ele><time>2026-04-18T16:11:25Z</time></trkpt><trkpt lat="45.236026633544505" lon="3.2045919857369336"><ele>690.75</ele><time>2026-04-18T16:11:26Z</time></trkpt><trkpt lat="45.23618380734921" lon="3.20453867095627"><ele>689.0</ele><time>2026-04-18T16:11:27Z</time></trkpt><trkpt lat="45.23634273647922" lon="3.204489125327789"><ele>684.5</ele><time>2026-04-18T16:11:28Z</time></trkpt><trkpt lat="45.236493951161705" lon="3.20444342151864"><ele>680.0</ele><time>2026-04-18T16:11:29Z</time></trkpt><trkpt lat="45.23663294293661" lon="3.2043737962722396"><ele>675.5</ele><time>2026-04-18T16:11:30Z</time></trkpt><trkpt lat="45.236765414051476" lon="3.2042887736836696"><ele>671.0</ele><time>2026-04-18T16:11:31Z</time></trkpt><trkpt lat="45.23688877071518" lon="3.2041922168530124"><ele>671.0</ele><time>2026-04-18T16:11:32Z</time></trkpt><trkpt lat="45.23700389193371" lon="3.2040853814504198"><ele>671.0</ele><time>2026-04-18T16:11:33Z</time></trkpt><trkpt lat="45.237114290200516" lon="3.2039851596885756"><ele>671.0</ele><time>2026-04-18T16:11:34Z</time></trkpt><trkpt lat="45.23721976355797" lon="3.2038847166652302"><ele>671.0</ele><time>2026-04-18T16:11:35Z</time></trkpt><trkpt lat="45.237303200862286" lon="3.203754301880371"><ele>666.75</ele><time>2026-04-18T16:11:36Z</time></trkpt><trkpt lat="45.23736883991766" lon="3.2036054900438735"><ele>662.5</ele><time>2026-04-18T16:11:37Z</time></trkpt><trkpt lat="45.23740127535009" lon="3.203439287217268"><ele>658.25</ele><time>2026-04-18T16:11:38Z</time></trkpt><trkpt lat="45.237403682289525" lon="3.203270680716893"><ele>654.0</ele><time>2026-04-18T16:11:39Z</time></trkpt><trkpt lat="45.23738302882026" lon="3.2030989202964797"><ele>651.0</ele><time>2026-04-18T16:11:40Z</time></trkpt><trkpt lat="45.23734667780611" lon="3.202912670046281"><ele>648.0</ele><time>2026-04-18T16:11:41Z</time></trkpt><trkpt lat="45.23729285485742" lon="3.2027252077166244"><ele>645.0</ele><time>2026-04-18T16:11:42Z</time></trkpt><trkpt lat="45.237222675105535" lon="3.202540443781318"><ele>642.0</ele><time>2026-04-18T16:11:43Z</time></trkpt><trkpt lat="45.23714913976541" lon="3.202353682675573"><ele>649.6666666666666</ele><time>2026-04-18T16:11:44Z</time></trkpt><trkpt lat="45.23706741525297" lon="3.2021570315239805"><ele>657.3333333333333</ele><time>2026-04-18T16:11:45Z</time></trkpt><trkpt lat="45.23697853943467" lon="3.201966335921089"><ele>665.0</ele><time>2026-04-18T16:11:46Z</time></trkpt><trkpt lat="45.236903446803765" lon="3.201760784095558"><ele>665.0</ele><time>2026-04-18T16:11:47Z</time></trkpt><trkpt lat="45.236840155312606" lon="3.2015544973470944"><ele>665.0</ele><time>2026-04-18T16:11:48Z</time></trkpt><trkpt lat="45.236771496849336" lon="3.2013883606512747"><ele>665.0</ele><time>2026-04-18T16:11:49Z</time></trkpt><trkpt lat="45.23671843712734" lon="3.201252883515948"><ele>665.0</ele><time>2026-04-18T16:11:50Z</time></trkpt><trkpt lat="45.23666750051839" lon="3.2011061926600997"><ele>662.75</ele><time>2026-04-18T16:11:51Z</time></trkpt><trkpt lat="45.23662273122638" lon="3.2009526398887997"><ele>660.5</ele><time>2026-04-18T16:11:52Z</time></trkpt><trkpt lat="45.23661449748854" lon="3.2007722791360775"><ele>658.25</ele><time>2026-04-18T16:11:53Z</time></trkpt><trkpt lat="45.23658477161749" lon="3.200596022718509"><ele>656.0</ele><time>2026-04-18T16:11:54Z</time></trkpt><trkpt lat="45.23657867115305" lon="3.200410327291182"><ele>657.0</ele><time>2026-04-18T16:11:55Z</time></trkpt><trkpt lat="45.23657591670626" lon="3.2002320526178565"><ele>658.0</ele><time>2026-04-18T16:11:56Z</time></trkpt><trkpt lat="45.23656986754217" lon="3.2000581075283194"><ele>659.0</ele><time>2026-04-18T16:11:57Z</time></trkpt><trkpt lat="45.2365910327268" lon="3.199897604977624"><ele>660.0</ele><time>2026-04-18T16:11:58Z</time></trkpt><trkpt lat="45.23660330691404" lon="3.199751915629865"><ele>660.0</ele><time>2026-04-18T16:11:59Z</time></trkpt><trkpt lat="45.23665017189429" lon="3.1996308707298393"><ele>660.0</ele><time>2026-04-18T16:12:00Z</time></trkpt><trkpt lat="45.23671021559578" lon="3.1995334279050636"><ele>660.0</ele><time>2026-04-18T16:12:01Z</time></trkpt><trkpt lat="45.23679257119233" lon="3.199489751058813"><ele>660.0</ele><time>2026-04-18T16:12:02Z</time></trkpt><trkpt lat="45.23687687884686" lon="3.199493496507577"><ele>660.0</ele><time>2026-04-18T16:12:03Z</time></trkpt><trkpt lat="45.236949228202135" lon="3.199540381523115"><ele>660.0</ele><time>2026-04-18T16:12:04Z</time></trkpt><trkpt lat="45.23701498327157" lon="3.199647817932923"><ele>660.0</ele><time>2026-04-18T16:12:05Z</time></trkpt><trkpt lat="45.23708573815691" lon="3.199770416830404"><ele>660.0</ele><time>2026-04-18T16:12:06Z</time></trkpt><trkpt lat="45.237165321505536" lon="3.1999025333036393"><ele>660.0</ele><time>2026-04-18T16:12:07Z</time></trkpt><trkpt lat="45.23725916774982" lon="3.2000308532848902"><ele>660.0</ele><time>2026-04-18T16:12:08Z</time></trkpt><trkpt lat="45.23736569984541" lon="3.2001590550392085"><ele>655.3333333333334</ele><time>2026-04-18T16:12:09Z</time></trkpt><trkpt lat="45.237483716187924" lon="3.2002817826205523"><ele>650.6666666666667</ele><time>2026-04-18T16:12:10Z</time></trkpt><trkpt lat="45.23760556872562" lon="3.200400640813508"><ele>646.0</ele><time>2026-04-18T16:12:11Z</time></trkpt><trkpt lat="45.23773676651239" lon="3.2005266641478243"><ele>646.0</ele><time>2026-04-18T16:12:12Z</time></trkpt><trkpt lat="45.237858039794254" lon="3.2006471160600043"><ele>646.0</ele><time>2026-04-18T16:12:13Z</time></trkpt><trkpt lat="45.23798073311359" lon="3.200774259809056"><ele>646.0</ele><time>2026-04-18T16:12:14Z</time></trkpt><trkpt lat="45.238107168899376" lon="3.200902650299843"><ele>644.3333333333334</ele><time>2026-04-18T16:12:15Z</time></trkpt><trkpt lat="45.238247301881636" lon="3.2010413159951363"><ele>642.6666666666666</ele><time>2026-04-18T16:12:16Z</time></trkpt><trkpt lat="45.23838460745704" lon="3.201174672852733"><ele>641.0</ele><time>2026-04-18T16:12:17Z</time></trkpt><trkpt lat="45.238524342453616" lon="3.201316756027398"><ele>641.0</ele><time>2026-04-18T16:12:18Z</time></trkpt><trkpt lat="45.238652055372484" lon="3.2014471375133002"><ele>641.0</ele><time>2026-04-18T16:12:19Z</time></trkpt><trkpt lat="45.23878193887773" lon="3.201567182835067"><ele>641.0</ele><time>2026-04-18T16:12:20Z</time></trkpt><trkpt lat="45.23890770692694" lon="3.2016728136611854"><ele>638.0</ele><time>2026-04-18T16:12:21Z</time></trkpt><trkpt lat="45.23903928514993" lon="3.201776415468527"><ele>635.0</ele><time>2026-04-18T16:12:22Z</time></trkpt><trkpt lat="45.23917389404181" lon="3.201878286261967"><ele>632.0</ele><time>2026-04-18T16:12:23Z</time></trkpt><trkpt lat="45.23931609197868" lon="3.2019813229009624"><ele>632.0</ele><time>2026-04-18T16:12:24Z</time></trkpt><trkpt lat="45.239461294227425" lon="3.202072797728357"><ele>632.0</ele><time>2026-04-18T16:12:25Z</time></trkpt><trkpt lat="45.2396023857898" lon="3.20214970085974"><ele>632.0</ele><time>2026-04-18T16:12:26Z</time></trkpt><trkpt lat="45.23973517733235" lon="3.2022107009583363"><ele>631.25</ele><time>2026-04-18T16:12:27Z</time></trkpt><trkpt lat="45.23986587323866" lon="3.2022608039014124"><ele>630.5</ele><time>2026-04-18T16:12:28Z</time></trkpt><trkpt lat="45.23998270238513" lon="3.2022801460069186"><ele>629.75</ele><time>2026-04-18T16:12:29Z</time></trkpt><trkpt lat="45.2400938522581" lon="3.202254456194869"><ele>629.0</ele><time>2026-04-18T16:12:30Z</time></trkpt><trkpt lat="45.24019523968239" lon="3.2021790293380303"><ele>629.0</ele><time>2026-04-18T16:12:31Z</time></trkpt><trkpt lat="45.24027337819411" lon="3.2020538977914987"><ele>629.0</ele><time>2026-04-18T16:12:32Z</time></trkpt><trkpt lat="45.24032123549221" lon="3.201901043333512"><ele>629.0</ele><time>2026-04-18T16:12:33Z</time></trkpt><trkpt lat="45.240345636819235" lon="3.201733338430522"><ele>629.0</ele><time>2026-04-18T16:12:34Z</time></trkpt><trkpt lat="45.240349721866984" lon="3.2015576094304867"><ele>631.8</ele><time>2026-04-18T16:12:35Z</time></trkpt><trkpt lat="45.24036201930274" lon="3.201393405087467"><ele>634.5999999999999</ele><time>2026-04-18T16:12:36Z</time></trkpt><trkpt lat="45.24038277121186" lon="3.2012483471790767"><ele>637.4</ele><time>2026-04-18T16:12:37Z</time></trkpt><trkpt lat="45.24044163856928" lon="3.2011456408814665"><ele>640.1999999999999</ele><time>2026-04-18T16:12:38Z</time></trkpt><trkpt lat="45.24049689602063" lon="3.201070200914704"><ele>643.0</ele><time>2026-04-18T16:12:39Z</time></trkpt><trkpt lat="45.240585497281565" lon="3.2011069780922083"><ele>640.4</ele><time>2026-04-18T16:12:40Z</time></trkpt><trkpt lat="45.24066663169895" lon="3.201147864191959"><ele>637.8</ele><time>2026-04-18T16:12:41Z</time></trkpt><trkpt lat="45.24072169214925" lon="3.2012906429583237"><ele>635.2</ele><time>2026-04-18T16:12:42Z</time></trkpt><trkpt lat="45.24079130195724" lon="3.201410494713434"><ele>632.6</ele><time>2026-04-18T16:12:43Z</time></trkpt><trkpt lat="45.24085010448347" lon="3.201561897718155"><ele>630.0</ele><time>2026-04-18T16:12:44Z</time></trkpt><trkpt lat="45.24091713311355" lon="3.2017023733535166"><ele>626.6</ele><time>2026-04-18T16:12:45Z</time></trkpt><trkpt lat="45.24099086003114" lon="3.2018212738772434"><ele>623.2</ele><time>2026-04-18T16:12:46Z</time></trkpt><trkpt lat="45.241075850809075" lon="3.2019076558599315"><ele>619.8</ele><time>2026-04-18T16:12:47Z</time></trkpt><trkpt lat="45.24117555194842" lon="3.201957855249542"><ele>616.4</ele><time>2026-04-18T16:12:48Z</time></trkpt><trkpt lat="45.241284150336625" lon="3.2019570916309124"><ele>613.0</ele><time>2026-04-18T16:12:49Z</time></trkpt><trkpt lat="45.24139480876636" lon="3.201909262462388"><ele>610.25</ele><time>2026-04-18T16:12:50Z</time></trkpt><trkpt lat="45.241507377943684" lon="3.2018203587998655"><ele>607.5</ele><time>2026-04-18T16:12:51Z</time></trkpt><trkpt lat="45.24161637870119" lon="3.201694305582919"><ele>604.75</ele><time>2026-04-18T16:12:52Z</time></trkpt><trkpt lat="45.24172675206148" lon="3.2015458446058576"><ele>602.0</ele><time>2026-04-18T16:12:53Z</time></trkpt><trkpt lat="45.24185435971212" lon="3.201434383599396"><ele>603.25</ele><time>2026-04-18T16:12:54Z</time></trkpt><trkpt lat="45.24198535100972" lon="3.201336211461704"><ele>604.5</ele><time>2026-04-18T16:12:55Z</time></trkpt><trkpt lat="45.24210570688245" lon="3.2012262556964686"><ele>605.75</ele><time>2026-04-18T16:12:56Z</time></trkpt><trkpt lat="45.24223405207826" lon="3.201142102289613"><ele>607.0</ele><time>2026-04-18T16:12:57Z</time></trkpt><trkpt lat="45.24236695422764" lon="3.2010808724441553"><ele>607.0</ele><time>2026-04-18T16:12:58Z</time></trkpt><trkpt lat="45.24248254485331" lon="3.2009660917795224"><ele>607.0</ele><time>2026-04-18T16:12:59Z</time></trkpt><trkpt lat="45.242607534584025" lon="3.2008659036046034"><ele>607.0</ele><time>2026-04-18T16:13:00Z</time></trkpt><trkpt lat="45.24273126064346" lon="3.200760570179778"><ele>607.0</ele><time>2026-04-18T16:13:01Z</time></trkpt><trkpt lat="45.24287664173314" lon="3.2006999681745856"><ele>612.3333333333334</ele><time>2026-04-18T16:13:02Z</time></trkpt><trkpt lat="45.243026141481664" lon="3.200643195117867"><ele>617.6666666666666</ele><time>2026-04-18T16:13:03Z</time></trkpt><trkpt lat="45.24317067520674" lon="3.200577304438558"><ele>623.0</ele><time>2026-04-18T16:13:04Z</time></trkpt><trkpt lat="45.243315405037684" lon="3.2005236618014696"><ele>623.0</ele><time>2026-04-18T16:13:05Z</time></trkpt><trkpt lat="45.24346281355799" lon="3.2004626383338834"><ele>623.0</ele><time>2026-04-18T16:13:06Z</time></trkpt><trkpt lat="45.24360926348346" lon="3.2004020354298417"><ele>623.0</ele><time>2026-04-18T16:13:07Z</time></trkpt><trkpt lat="45.24374715759387" lon="3.2003458982765878"><ele>623.0</ele><time>2026-04-18T16:13:08Z</time></trkpt><trkpt lat="45.24388229263463" lon="3.2002855368451004"><ele>623.0</ele><time>2026-04-18T16:13:09Z</time></trkpt><trkpt lat="45.24400939272596" lon="3.2002139900011404"><ele>623.0</ele><time>2026-04-18T16:13:10Z</time></trkpt><trkpt lat="45.24412354888215" lon="3.200111065555611"><ele>623.0</ele><time>2026-04-18T16:13:11Z</time></trkpt><trkpt lat="45.24421436940074" lon="3.1999742746375066"><ele>619.5</ele><time>2026-04-18T16:13:12Z</time></trkpt><trkpt lat="45.24427606869305" lon="3.1998147823296215"><ele>616.0</ele><time>2026-04-18T16:13:13Z</time></trkpt><trkpt lat="45.24433874541104" lon="3.1996508744305334"><ele>612.5</ele><time>2026-04-18T16:13:14Z</time></trkpt><trkpt lat="45.24442949528975" lon="3.199541542667728"><ele>609.0</ele><time>2026-04-18T16:13:15Z</time></trkpt><trkpt lat="45.244546241630424" lon="3.1995313888998798"><ele>609.0</ele><time>2026-04-18T16:13:16Z</time></trkpt><trkpt lat="45.2446494129804" lon="3.1995657378029754"><ele>609.0</ele><time>2026-04-18T16:13:17Z</time></trkpt><trkpt lat="45.24475082910519" lon="3.199604069914162"><ele>609.0</ele><time>2026-04-18T16:13:18Z</time></trkpt><trkpt lat="45.24484753260716" lon="3.1996464141870407"><ele>609.0</ele><time>2026-04-18T16:13:19Z</time></trkpt><trkpt lat="45.24492768586225" lon="3.199667244580614"><ele>609.0</ele><time>2026-04-18T16:13:20Z</time></trkpt><trkpt lat="45.245014292091255" lon="3.199726720342308"><ele>607.4</ele><time>2026-04-18T16:13:22Z</time></trkpt><trkpt lat="45.24509079115881" lon="3.1998042347855007"><ele>605.8</ele><time>2026-04-18T16:13:37Z</time></trkpt><trkpt lat="45.245214703311916" lon="3.19977247564799"><ele>604.2</ele><time>2026-04-18T16:13:39Z</time></trkpt><trkpt lat="45.24528935277661" lon="3.199736518531765"><ele>602.6</ele><time>2026-04-18T16:13:40Z</time></trkpt><trkpt lat="45.24537886225792" lon="3.199692890847332"><ele>601.0</ele><time>2026-04-18T16:13:41Z</time></trkpt><trkpt lat="45.2454679970782" lon="3.199655502085415"><ele>601.0</ele><time>2026-04-18T16:13:42Z</time></trkpt><trkpt lat="45.24557166927525" lon="3.1996152538279548"><ele>601.0</ele><time>2026-04-18T16:13:43Z</time></trkpt><trkpt lat="45.245681024988514" lon="3.1995799194259926"><ele>601.0</ele><time>2026-04-18T16:13:44Z</time></trkpt><trkpt lat="45.24580125266901" lon="3.1995472240302516"><ele>601.0</ele><time>2026-04-18T16:13:45Z</time></trkpt><trkpt lat="45.245921675399025" lon="3.1995151892942166"><ele>599.0</ele><time>2026-04-18T16:13:46Z</time></trkpt><trkpt lat="45.24604652492584" lon="3.1994828198130856"><ele>597.0</ele><time>2026-04-18T16:13:47Z</time></trkpt><trkpt lat="45.24618181135047" lon="3.1994515019490155"><ele>595.0</ele><time>2026-04-18T16:13:48Z</time></trkpt><trkpt lat="45.246321478614085" lon="3.1994200937638553"><ele>593.0</ele><time>2026-04-18T16:13:49Z</time></trkpt><trkpt lat="45.246466938692066" lon="3.199388714679478"><ele>588.3333333333333</ele><time>2026-04-18T16:13:50Z</time></trkpt><trkpt lat="45.246616443077116" lon="3.1993568728018142"><ele>583.6666666666666</ele><time>2026-04-18T16:13:51Z</time></trkpt><trkpt lat="45.24677045115254" lon="3.1993256835916273"><ele>579.0</ele><time>2026-04-18T16:13:52Z</time></trkpt><trkpt lat="45.246925203046985" lon="3.1992884234403305"><ele>579.0</ele><time>2026-04-18T16:13:53Z</time></trkpt><trkpt lat="45.24708568235365" lon="3.1992535894127627"><ele>579.0</ele><time>2026-04-18T16:13:54Z</time></trkpt><trkpt lat="45.24725890532159" lon="3.199209278721327"><ele>579.0</ele><time>2026-04-18T16:13:55Z</time></trkpt><trkpt lat="45.247420030188984" lon="3.199164986444062"><ele>576.3333333333334</ele><time>2026-04-18T16:13:56Z</time></trkpt><trkpt lat="45.247588690732286" lon="3.1991146058831705"><ele>573.6666666666667</ele><time>2026-04-18T16:13:57Z</time></trkpt><trkpt lat="45.24775184844528" lon="3.199053189708979"><ele>571.0</ele><time>2026-04-18T16:13:58Z</time></trkpt><trkpt lat="45.247910619634766" lon="3.198972316485474"><ele>574.6666666666667</ele><time>2026-04-18T16:13:59Z</time></trkpt><trkpt lat="45.24806472567026" lon="3.1988833813797943"><ele>578.3333333333334</ele><time>2026-04-18T16:14:00Z</time></trkpt><trkpt lat="45.24821448409285" lon="3.1988490996955194"><ele>582.0</ele><time>2026-04-18T16:14:01Z</time></trkpt><trkpt lat="45.24852520907913" lon="3.198777445436956"><ele>582.0</ele><time>2026-04-18T16:14:03Z</time></trkpt><trkpt lat="45.248680425210296" lon="3.198759377234424"><ele>582.0</ele><time>2026-04-18T16:14:04Z</time></trkpt><trkpt lat="45.24882643794626" lon="3.198742557286957"><ele>582.0</ele><time>2026-04-18T16:14:05Z</time></trkpt><trkpt lat="45.24896468651505" lon="3.198722492009857"><ele>582.0</ele><time>2026-04-18T16:14:06Z</time></trkpt><trkpt lat="45.24909775103441" lon="3.1986938393206987"><ele>578.25</ele><time>2026-04-18T16:14:07Z</time></trkpt><trkpt lat="45.24922925614415" lon="3.198651721439621"><ele>574.5</ele><time>2026-04-18T16:14:08Z</time></trkpt><trkpt lat="45.24935210433692" lon="3.198593262280777"><ele>570.75</ele><time>2026-04-18T16:14:09Z</time></trkpt><trkpt lat="45.24947147981686" lon="3.1985057913700228"><ele>567.0</ele><time>2026-04-18T16:14:10Z</time></trkpt><trkpt lat="45.249589050918544" lon="3.198401564453107"><ele>567.0</ele><time>2026-04-18T16:14:11Z</time></trkpt><trkpt lat="45.24970152065838" lon="3.198299597502373"><ele>567.0</ele><time>2026-04-18T16:14:12Z</time></trkpt><trkpt lat="45.24981251147643" lon="3.1982034167586426"><ele>567.0</ele><time>2026-04-18T16:14:13Z</time></trkpt><trkpt lat="45.24991895176149" lon="3.198111432985571"><ele>567.0</ele><time>2026-04-18T16:14:14Z</time></trkpt><trkpt lat="45.250026887782006" lon="3.1980228277647087"><ele>565.5</ele><time>2026-04-18T16:14:15Z</time></trkpt><trkpt lat="45.25013116245085" lon="3.1979380725397104"><ele>564.0</ele><time>2026-04-18T16:14:16Z</time></trkpt><trkpt lat="45.25023250906074" lon="3.1978528502030983"><ele>562.5</ele><time>2026-04-18T16:14:17Z</time></trkpt><trkpt lat="45.250335276994186" lon="3.1977692524661907"><ele>561.0</ele><time>2026-04-18T16:14:18Z</time></trkpt><trkpt lat="45.2504344027267" lon="3.1976887868881683"><ele>561.0</ele><time>2026-04-18T16:14:19Z</time></trkpt><trkpt lat="45.250532128698715" lon="3.197600759756112"><ele>561.0</ele><time>2026-04-18T16:14:20Z</time></trkpt><trkpt lat="45.25062635832691" lon="3.1975164956234026"><ele>561.0</ele><time>2026-04-18T16:14:21Z</time></trkpt><trkpt lat="45.25072018138905" lon="3.1974336018445495"><ele>561.0</ele><time>2026-04-18T16:14:22Z</time></trkpt><trkpt lat="45.250808362306884" lon="3.19735353124969"><ele>561.0</ele><time>2026-04-18T16:14:23Z</time></trkpt><trkpt lat="45.25089561014352" lon="3.1972781407570627"><ele>558.5</ele><time>2026-04-18T16:14:24Z</time></trkpt><trkpt lat="45.25096483396924" lon="3.197229629388823"><ele>556.0</ele><time>2026-04-18T16:14:25Z</time></trkpt><trkpt lat="45.2510522250017" lon="3.1971711696422895"><ele>553.5</ele><time>2026-04-18T16:14:27Z</time></trkpt><trkpt lat="45.2511552930701" lon="3.197149750083593"><ele>551.0</ele><time>2026-04-18T16:14:43Z</time></trkpt><trkpt lat="45.25121662393934" lon="3.197187647061643"><ele>548.5</ele><time>2026-04-18T16:14:44Z</time></trkpt><trkpt lat="45.251285088244984" lon="3.1972098836163094"><ele>546.0</ele><time>2026-04-18T16:14:45Z</time></trkpt><trkpt lat="45.25136043361206" lon="3.1972078445671874"><ele>546.0</ele><time>2026-04-18T16:14:46Z</time></trkpt><trkpt lat="45.25143873596326" lon="3.197240320160479"><ele>546.0</ele><time>2026-04-18T16:14:47Z</time></trkpt><trkpt lat="45.25152136924108" lon="3.1972711694100333"><ele>546.0</ele><time>2026-04-18T16:14:48Z</time></trkpt><trkpt lat="45.251607119939145" lon="3.1973009126992826"><ele>546.0</ele><time>2026-04-18T16:14:49Z</time></trkpt><trkpt lat="45.251695420807295" lon="3.1973292077671562"><ele>546.0</ele><time>2026-04-18T16:14:50Z</time></trkpt><trkpt lat="45.251788061193224" lon="3.1973592142280847"><ele>546.0</ele><time>2026-04-18T16:14:51Z</time></trkpt><trkpt lat="45.25188125664976" lon="3.1973903763021516"><ele>545.2</ele><time>2026-04-18T16:14:52Z</time></trkpt><trkpt lat="45.25197213809549" lon="3.197423697976988"><ele>544.4000000000001</ele><time>2026-04-18T16:14:53Z</time></trkpt><trkpt lat="45.25206297831037" lon="3.1974552689046636"><ele>543.6</ele><time>2026-04-18T16:14:54Z</time></trkpt><trkpt lat="45.252152317048306" lon="3.197474220425618"><ele>542.8000000000001</ele><time>2026-04-18T16:14:55Z</time></trkpt><trkpt lat="45.25224278171949" lon="3.1974971619502495"><ele>542.0</ele><time>2026-04-18T16:14:56Z</time></trkpt><trkpt lat="45.25233080321459" lon="3.197526946136844"><ele>541.6666666666666</ele><time>2026-04-18T16:14:57Z</time></trkpt><trkpt lat="45.252412230396764" lon="3.1975504966404222"><ele>541.3333333333333</ele><time>2026-04-18T16:14:58Z</time></trkpt><trkpt lat="45.252493877343035" lon="3.197577434768356"><ele>541.0</ele><time>2026-04-18T16:14:59Z</time></trkpt><trkpt lat="45.25257503776589" lon="3.1976060797848502"><ele>540.6666666666666</ele><time>2026-04-18T16:15:00Z</time></trkpt><trkpt lat="45.25265251387151" lon="3.1976301294208973"><ele>540.3333333333334</ele><time>2026-04-18T16:15:01Z</time></trkpt><trkpt lat="45.25273739512837" lon="3.19766062457694"><ele>540.0</ele><time>2026-04-18T16:15:02Z</time></trkpt><trkpt lat="45.252830624071784" lon="3.1976905045025665"><ele>540.0</ele><time>2026-04-18T16:15:03Z</time></trkpt><trkpt lat="45.252929864492316" lon="3.197720514308223"><ele>540.0</ele><time>2026-04-18T16:15:04Z</time></trkpt><trkpt lat="45.2530365809024" lon="3.1977541490750614"><ele>540.0</ele><time>2026-04-18T16:15:05Z</time></trkpt><trkpt lat="45.25314224503514" lon="3.197789475160426"><ele>540.0</ele><time>2026-04-18T16:15:06Z</time></trkpt><trkpt lat="45.25325283245052" lon="3.197823913805731"><ele>540.0</ele><time>2026-04-18T16:15:07Z</time></trkpt><trkpt lat="45.25335976083189" lon="3.1978582196967413"><ele>539.6</ele><time>2026-04-18T16:15:08Z</time></trkpt><trkpt lat="45.25345516806492" lon="3.197894579774662"><ele>539.2</ele><time>2026-04-18T16:15:09Z</time></trkpt><trkpt lat="45.25354633501449" lon="3.1979252937864584"><ele>538.8</ele><time>2026-04-18T16:15:10Z</time></trkpt><trkpt lat="45.253631878102645" lon="3.1979508747182552"><ele>538.4</ele><time>2026-04-18T16:15:11Z</time></trkpt><trkpt lat="45.253736020585464" lon="3.1979829005565277"><ele>538.0</ele><time>2026-04-18T16:15:12Z</time></trkpt><trkpt lat="45.25383918743199" lon="3.198020171992418"><ele>538.0</ele><time>2026-04-18T16:15:13Z</time></trkpt><trkpt lat="45.25394357196782" lon="3.1980542101512355"><ele>538.0</ele><time>2026-04-18T16:15:14Z</time></trkpt><trkpt lat="45.25404174134035" lon="3.1980812940353505"><ele>538.0</ele><time>2026-04-18T16:15:15Z</time></trkpt><trkpt lat="45.254129242337044" lon="3.198102327590181"><ele>538.0</ele><time>2026-04-18T16:15:16Z</time></trkpt><trkpt lat="45.25421211504878" lon="3.198124154605941"><ele>538.0</ele><time>2026-04-18T16:15:17Z</time></trkpt><trkpt lat="45.254294622031615" lon="3.198143432630777"><ele>537.6</ele><time>2026-04-18T16:15:18Z</time></trkpt><trkpt lat="45.25436541049729" lon="3.1981540005231817"><ele>537.1999999999999</ele><time>2026-04-18T16:15:19Z</time></trkpt><trkpt lat="45.254439287370346" lon="3.1981785256951896"><ele>536.8</ele><time>2026-04-18T16:15:20Z</time></trkpt><trkpt lat="45.25452320222932" lon="3.198214966824551"><ele>536.4</ele><time>2026-04-18T16:15:21Z</time></trkpt><trkpt lat="45.254625526568084" lon="3.198254726240186"><ele>536.0</ele><time>2026-04-18T16:15:22Z</time></trkpt><trkpt lat="45.25472692170112" lon="3.198324116301694"><ele>536.2</ele><time>2026-04-18T16:15:23Z</time></trkpt><trkpt lat="45.25482880590032" lon="3.1983293199034706"><ele>536.4000000000001</ele><time>2026-04-18T16:15:24Z</time></trkpt><trkpt lat="45.254921028128834" lon="3.198360589574627"><ele>536.6</ele><time>2026-04-18T16:15:25Z</time></trkpt><trkpt lat="45.255026872306935" lon="3.198397051183074"><ele>536.8000000000001</ele><time>2026-04-18T16:15:26Z</time></trkpt><trkpt lat="45.25514641196153" lon="3.198432568868925"><ele>537.0</ele><time>2026-04-18T16:15:27Z</time></trkpt><trkpt lat="45.25526646647981" lon="3.1984682417037495"><ele>537.0</ele><time>2026-04-18T16:15:28Z</time></trkpt><trkpt lat="45.255390453897256" lon="3.1985081281074015"><ele>537.0</ele><time>2026-04-18T16:15:29Z</time></trkpt><trkpt lat="45.25551502799671" lon="3.198551547029361"><ele>537.0</ele><time>2026-04-18T16:15:30Z</time></trkpt><trkpt lat="45.25563926783234" lon="3.198593094183636"><ele>537.0</ele><time>2026-04-18T16:15:31Z</time></trkpt><trkpt lat="45.255765901788386" lon="3.1986358173776988"><ele>536.25</ele><time>2026-04-18T16:15:32Z</time></trkpt><trkpt lat="45.25589426726875" lon="3.198678838564555"><ele>535.5</ele><time>2026-04-18T16:15:33Z</time></trkpt><trkpt lat="45.25602538035435" lon="3.1987241724146407"><ele>534.75</ele><time>2026-04-18T16:15:34Z</time></trkpt><trkpt lat="45.25615618592989" lon="3.198765323261691"><ele>534.0</ele><time>2026-04-18T16:15:35Z</time></trkpt><trkpt lat="45.25629539134173" lon="3.1988072975431066"><ele>534.0</ele><time>2026-04-18T16:15:36Z</time></trkpt><trkpt lat="45.25643378650672" lon="3.198854176359438"><ele>534.0</ele><time>2026-04-18T16:15:37Z</time></trkpt><trkpt lat="45.25657235551353" lon="3.1989013735764913"><ele>534.0</ele><time>2026-04-18T16:15:38Z</time></trkpt><trkpt lat="45.25671329591293" lon="3.1989442643780235"><ele>534.0</ele><time>2026-04-18T16:15:39Z</time></trkpt><trkpt lat="45.25685085834496" lon="3.1989853116492464"><ele>534.5</ele><time>2026-04-18T16:15:40Z</time></trkpt><trkpt lat="45.256985670331254" lon="3.1990285483475347"><ele>535.0</ele><time>2026-04-18T16:15:41Z</time></trkpt><trkpt lat="45.25711273600047" lon="3.199068370413805"><ele>535.5</ele><time>2026-04-18T16:15:42Z</time></trkpt><trkpt lat="45.25724763947795" lon="3.1991134514866055"><ele>536.0</ele><time>2026-04-18T16:15:43Z</time></trkpt><trkpt lat="45.257388164238655" lon="3.1991558689274857"><ele>534.6666666666666</ele><time>2026-04-18T16:15:44Z</time></trkpt><trkpt lat="45.257534696257395" lon="3.1991996799011218"><ele>533.3333333333334</ele><time>2026-04-18T16:15:45Z</time></trkpt><trkpt lat="45.257679198162336" lon="3.1992488427043786"><ele>532.0</ele><time>2026-04-18T16:15:46Z</time></trkpt><trkpt lat="45.257827128648366" lon="3.1993023915480667"><ele>532.0</ele><time>2026-04-18T16:15:47Z</time></trkpt><trkpt lat="45.25797224282251" lon="3.1993508215982707"><ele>532.0</ele><time>2026-04-18T16:15:48Z</time></trkpt><trkpt lat="45.25812853991094" lon="3.1994020026647463"><ele>532.0</ele><time>2026-04-18T16:15:49Z</time></trkpt><trkpt lat="45.25827831183573" lon="3.1994470253147846"><ele>531.3333333333334</ele><time>2026-04-18T16:15:50Z</time></trkpt><trkpt lat="45.25843413691529" lon="3.199495884819141"><ele>530.6666666666666</ele><time>2026-04-18T16:15:51Z</time></trkpt><trkpt lat="45.258588887606486" lon="3.1995382639221983"><ele>530.0</ele><time>2026-04-18T16:15:52Z</time></trkpt><trkpt lat="45.258736257889126" lon="3.199562479265838"><ele>530.0</ele><time>2026-04-18T16:15:53Z</time></trkpt><trkpt lat="45.25889922781968" lon="3.199569986633947"><ele>530.0</ele><time>2026-04-18T16:15:54Z</time></trkpt><trkpt lat="45.25906078634134" lon="3.1995512361854828"><ele>530.0</ele><time>2026-04-18T16:15:55Z</time></trkpt><trkpt lat="45.25922101852893" lon="3.1995154985139913"><ele>531.3333333333333</ele><time>2026-04-18T16:15:56Z</time></trkpt><trkpt lat="45.25937212424491" lon="3.199464018372965"><ele>532.6666666666666</ele><time>2026-04-18T16:15:57Z</time></trkpt><trkpt lat="45.25952717921163" lon="3.1993988243602236"><ele>534.0</ele><time>2026-04-18T16:15:58Z</time></trkpt><trkpt lat="45.25966517116272" lon="3.1993278396992726"><ele>534.25</ele><time>2026-04-18T16:15:59Z</time></trkpt><trkpt lat="45.25979578542114" lon="3.199254860680457"><ele>534.5</ele><time>2026-04-18T16:16:00Z</time></trkpt><trkpt lat="45.25991379936269" lon="3.199199016398195"><ele>534.75</ele><time>2026-04-18T16:16:01Z</time></trkpt><trkpt lat="45.260027613476154" lon="3.1991383711933863"><ele>535.0</ele><time>2026-04-18T16:16:02Z</time></trkpt><trkpt lat="45.260138458404356" lon="3.1990850581856956"><ele>535.0</ele><time>2026-04-18T16:16:03Z</time></trkpt><trkpt lat="45.26024819111253" lon="3.199030879867458"><ele>535.0</ele><time>2026-04-18T16:16:04Z</time></trkpt><trkpt lat="45.260363019786276" lon="3.1989732724743503"><ele>535.0</ele><time>2026-04-18T16:16:05Z</time></trkpt><trkpt lat="45.26048042543911" lon="3.1989123084013102"><ele>535.0</ele><time>2026-04-18T16:16:06Z</time></trkpt><trkpt lat="45.26059393348214" lon="3.1988488542547295"><ele>534.5</ele><time>2026-04-18T16:16:07Z</time></trkpt><trkpt lat="45.26070413208074" lon="3.198776090922311"><ele>534.0</ele><time>2026-04-18T16:16:08Z</time></trkpt><trkpt lat="45.26081687286884" lon="3.198698416499633"><ele>533.5</ele><time>2026-04-18T16:16:09Z</time></trkpt><trkpt lat="45.26092061601203" lon="3.198620703392747"><ele>533.0</ele><time>2026-04-18T16:16:10Z</time></trkpt><trkpt lat="45.26102335498726" lon="3.1985498719951737"><ele>533.0</ele><time>2026-04-18T16:16:11Z</time></trkpt><trkpt lat="45.26111846031494" lon="3.198482638736256"><ele>533.0</ele><time>2026-04-18T16:16:12Z</time></trkpt><trkpt lat="45.26121711988211" lon="3.1984159575370263"><ele>533.0</ele><time>2026-04-18T16:16:13Z</time></trkpt><trkpt lat="45.261316705741265" lon="3.1983465911642646"><ele>533.0</ele><time>2026-04-18T16:16:14Z</time></trkpt><trkpt lat="45.261414046046696" lon="3.198276458996779"><ele>533.0</ele><time>2026-04-18T16:16:15Z</time></trkpt><trkpt lat="45.261504735988865" lon="3.1982048093580935"><ele>533.1666666666666</ele><time>2026-04-18T16:16:16Z</time></trkpt><trkpt lat="45.26159204446439" lon="3.1981452813056834"><ele>533.3333333333333</ele><time>2026-04-18T16:16:17Z</time></trkpt><trkpt lat="45.261679749086774" lon="3.1981039664727704"><ele>533.5</ele><time>2026-04-18T16:16:18Z</time></trkpt><trkpt lat="45.261763994515015" lon="3.1980875574693273"><ele>533.6666666666666</ele><time>2026-04-18T16:16:19Z</time></trkpt><trkpt lat="45.26184637485163" lon="3.1981084457112794"><ele>533.8333333333334</ele><time>2026-04-18T16:16:20Z</time></trkpt><trkpt lat="45.26191750227673" lon="3.1981596015401554"><ele>534.0</ele><time>2026-04-18T16:16:21Z</time></trkpt><trkpt lat="45.26196743322468" lon="3.1982320977659997"><ele>534.0</ele><time>2026-04-18T16:16:22Z</time></trkpt><trkpt lat="45.26201475241941" lon="3.198340939893999"><ele>534.0</ele><time>2026-04-18T16:16:23Z</time></trkpt><trkpt lat="45.26206077833325" lon="3.1984643924928395"><ele>534.0</ele><time>2026-04-18T16:16:24Z</time></trkpt><trkpt lat="45.26211508887574" lon="3.198577831203796"><ele>534.0</ele><time>2026-04-18T16:16:25Z</time></trkpt><trkpt lat="45.26217625024249" lon="3.1986468675918824"><ele>534.0</ele><time>2026-04-18T16:16:26Z</time></trkpt><trkpt lat="45.26224520321187" lon="3.198654832257135"><ele>534.0</ele><time>2026-04-18T16:16:27Z</time></trkpt><trkpt lat="45.26232378727734" lon="3.198629276484721"><ele>534.0</ele><time>2026-04-18T16:16:28Z</time></trkpt><trkpt lat="45.26240088784526" lon="3.1985651211131323"><ele>534.0</ele><time>2026-04-18T16:16:29Z</time></trkpt><trkpt lat="45.26245860796591" lon="3.198460267407512"><ele>534.0</ele><time>2026-04-18T16:16:30Z</time></trkpt><trkpt lat="45.262496301718755" lon="3.1983287208756748"><ele>534.0</ele><time>2026-04-18T16:16:31Z</time></trkpt><trkpt lat="45.26253290518952" lon="3.1981895323556584"><ele>534.0</ele><time>2026-04-18T16:16:32Z</time></trkpt><trkpt lat="45.26258548575593" lon="3.1980367882343352"><ele>533.5</ele><time>2026-04-18T16:16:33Z</time></trkpt><trkpt lat="45.262639346501544" lon="3.197884572939322"><ele>533.0</ele><time>2026-04-18T16:16:34Z</time></trkpt><trkpt lat="45.262686440971315" lon="3.197713559348706"><ele>532.5</ele><time>2026-04-18T16:16:35Z</time></trkpt><trkpt lat="45.262727846978926" lon="3.197541242669823"><ele>532.0</ele><time>2026-04-18T16:16:36Z</time></trkpt><trkpt lat="45.26277550844389" lon="3.1973763274038918"><ele>531.75</ele><time>2026-04-18T16:16:37Z</time></trkpt><trkpt lat="45.262835810416135" lon="3.197232842349489"><ele>531.5</ele><time>2026-04-18T16:16:38Z</time></trkpt><trkpt lat="45.262916092616834" lon="3.1971254616883478"><ele>531.25</ele><time>2026-04-18T16:16:39Z</time></trkpt><trkpt lat="45.2630165833833" lon="3.197017381317497"><ele>531.0</ele><time>2026-04-18T16:16:40Z</time></trkpt><trkpt lat="45.26313418936555" lon="3.19694514407802"><ele>531.0</ele><time>2026-04-18T16:16:41Z</time></trkpt><trkpt lat="45.26327261792928" lon="3.196891608215472"><ele>531.0</ele><time>2026-04-18T16:16:42Z</time></trkpt><trkpt lat="45.263425900508615" lon="3.1968382016055585"><ele>531.0</ele><time>2026-04-18T16:16:43Z</time></trkpt><trkpt lat="45.26358996957175" lon="3.1967740381317817"><ele>531.0</ele><time>2026-04-18T16:16:44Z</time></trkpt><trkpt lat="45.26374299345868" lon="3.1967065940235506"><ele>531.0</ele><time>2026-04-18T16:16:45Z</time></trkpt><trkpt lat="45.2639083487971" lon="3.1966387494441366"><ele>531.0</ele><time>2026-04-18T16:16:46Z</time></trkpt><trkpt lat="45.26406954509054" lon="3.196565556761732"><ele>529.6666666666666</ele><time>2026-04-18T16:16:47Z</time></trkpt><trkpt lat="45.26423974718781" lon="3.196487046411958"><ele>528.3333333333333</ele><time>2026-04-18T16:16:48Z</time></trkpt><trkpt lat="45.264404100447514" lon="3.196415241841956"><ele>527.0</ele><time>2026-04-18T16:16:49Z</time></trkpt><trkpt lat="45.26457496660909" lon="3.1963395532291576"><ele>527.0</ele><time>2026-04-18T16:16:50Z</time></trkpt><trkpt lat="45.26474833269816" lon="3.1962673913940898"><ele>527.0</ele><time>2026-04-18T16:16:51Z</time></trkpt><trkpt lat="45.26492356826075" lon="3.196191840713758"><ele>527.0</ele><time>2026-04-18T16:16:52Z</time></trkpt><trkpt lat="45.26509580319449" lon="3.1961168017982584"><ele>526.6666666666666</ele><time>2026-04-18T16:16:53Z</time></trkpt><trkpt lat="45.26527620753853" lon="3.19603585683665"><ele>526.3333333333334</ele><time>2026-04-18T16:16:54Z</time></trkpt><trkpt lat="45.26544956366061" lon="3.195959707369989"><ele>526.0</ele><time>2026-04-18T16:16:55Z</time></trkpt><trkpt lat="45.26562890581116" lon="3.1958752511998076"><ele>526.0</ele><time>2026-04-18T16:16:56Z</time></trkpt><trkpt lat="45.26580141169065" lon="3.19580209543305"><ele>526.0</ele><time>2026-04-18T16:16:57Z</time></trkpt><trkpt lat="45.26597589827883" lon="3.1957255457908538"><ele>526.0</ele><time>2026-04-18T16:16:58Z</time></trkpt><trkpt lat="45.26615379719327" lon="3.1956502751652516"><ele>526.3333333333334</ele><time>2026-04-18T16:16:59Z</time></trkpt><trkpt lat="45.26632876679525" lon="3.1955771779823934"><ele>526.6666666666666</ele><time>2026-04-18T16:17:00Z</time></trkpt><trkpt lat="45.266509566024276" lon="3.195494915204107"><ele>527.0</ele><time>2026-04-18T16:17:01Z</time></trkpt><trkpt lat="45.26668521836554" lon="3.1954207090088826"><ele>527.0</ele><time>2026-04-18T16:17:02Z</time></trkpt><trkpt lat="45.26685866544324" lon="3.1953481728314017"><ele>527.0</ele><time>2026-04-18T16:17:03Z</time></trkpt><trkpt lat="45.267032672399715" lon="3.1952714266069346"><ele>527.0</ele><time>2026-04-18T16:17:04Z</time></trkpt><trkpt lat="45.26720563877265" lon="3.195188618846775"><ele>526.6666666666666</ele><time>2026-04-18T16:17:05Z</time></trkpt><trkpt lat="45.26738048029422" lon="3.1951084737220783"><ele>526.3333333333334</ele><time>2026-04-18T16:17:06Z</time></trkpt><trkpt lat="45.267554110819944" lon="3.1950360984136843"><ele>526.0</ele><time>2026-04-18T16:17:07Z</time></trkpt><trkpt lat="45.26773028861998" lon="3.1949676811314474"><ele>526.0</ele><time>2026-04-18T16:17:08Z</time></trkpt><trkpt lat="45.267908063115016" lon="3.194886180483915"><ele>526.0</ele><time>2026-04-18T16:17:09Z</time></trkpt><trkpt lat="45.26808684362671" lon="3.1948106416739717"><ele>526.0</ele><time>2026-04-18T16:17:10Z</time></trkpt><trkpt lat="45.2682670493582" lon="3.194732948196057"><ele>526.0</ele><time>2026-04-18T16:17:11Z</time></trkpt><trkpt lat="45.26844976054608" lon="3.194649859929084"><ele>526.0</ele><time>2026-04-18T16:17:12Z</time></trkpt><trkpt lat="45.26863345757636" lon="3.1945645346359193"><ele>526.0</ele><time>2026-04-18T16:17:13Z</time></trkpt><trkpt lat="45.26881745472338" lon="3.19447930925656"><ele>525.6666666666667</ele><time>2026-04-18T16:17:14Z</time></trkpt><trkpt lat="45.26900182576279" lon="3.1943934062377894"><ele>525.3333333333334</ele><time>2026-04-18T16:17:15Z</time></trkpt><trkpt lat="45.26918616458713" lon="3.194307719614012"><ele>525.0</ele><time>2026-04-18T16:17:16Z</time></trkpt><trkpt lat="45.26937167687726" lon="3.194220659377705"><ele>525.0</ele><time>2026-04-18T16:17:17Z</time></trkpt><trkpt lat="45.26955893804908" lon="3.1941414458869843"><ele>525.0</ele><time>2026-04-18T16:17:18Z</time></trkpt><trkpt lat="45.26974801350216" lon="3.194059487564487"><ele>525.0</ele><time>2026-04-18T16:17:19Z</time></trkpt><trkpt lat="45.26994203312419" lon="3.1939802538357314"><ele>523.6666666666666</ele><time>2026-04-18T16:17:20Z</time></trkpt><trkpt lat="45.27013836971091" lon="3.1939017451606717"><ele>522.3333333333333</ele><time>2026-04-18T16:17:21Z</time></trkpt><trkpt lat="45.270334060284" lon="3.193822086984258"><ele>521.0</ele><time>2026-04-18T16:17:22Z</time></trkpt><trkpt lat="45.2705289798551" lon="3.1937388556771147"><ele>521.0</ele><time>2026-04-18T16:17:23Z</time></trkpt><trkpt lat="45.270726425654445" lon="3.193665825129045"><ele>521.0</ele><time>2026-04-18T16:17:24Z</time></trkpt><trkpt lat="45.27092471592165" lon="3.1935851614208475"><ele>521.0</ele><time>2026-04-18T16:17:25Z</time></trkpt><trkpt lat="45.27112590116387" lon="3.19350738385606"><ele>521.0</ele><time>2026-04-18T16:17:26Z</time></trkpt><trkpt lat="45.27132976202111" lon="3.19346176882603"><ele>521.0</ele><time>2026-04-18T16:17:27Z</time></trkpt><trkpt lat="45.271529778908054" lon="3.193427716358503"><ele>521.0</ele><time>2026-04-18T16:17:28Z</time></trkpt><trkpt lat="45.27173520390228" lon="3.193392977063156"><ele>521.0</ele><time>2026-04-18T16:17:29Z</time></trkpt><trkpt lat="45.27194187087315" lon="3.1933491611368465"><ele>521.0</ele><time>2026-04-18T16:17:30Z</time></trkpt><trkpt lat="45.27214475799542" lon="3.1933130413039676"><ele>521.0</ele><time>2026-04-18T16:17:31Z</time></trkpt><trkpt lat="45.27234944722736" lon="3.193269283995373"><ele>521.3333333333333</ele><time>2026-04-18T16:17:32Z</time></trkpt><trkpt lat="45.27255389015083" lon="3.1932234145480125"><ele>521.6666666666666</ele><time>2026-04-18T16:17:33Z</time></trkpt><trkpt lat="45.27275763787563" lon="3.1931844005206567"><ele>522.0</ele><time>2026-04-18T16:17:34Z</time></trkpt><trkpt lat="45.272961190049024" lon="3.193145547374874"><ele>521.0</ele><time>2026-04-18T16:17:35Z</time></trkpt><trkpt lat="45.27316468072919" lon="3.1930985760338064"><ele>520.0</ele><time>2026-04-18T16:17:36Z</time></trkpt><trkpt lat="45.273368967047844" lon="3.1930578236137617"><ele>519.0</ele><time>2026-04-18T16:17:37Z</time></trkpt><trkpt lat="45.273573909552155" lon="3.1930102032223915"><ele>519.0</ele><time>2026-04-18T16:17:38Z</time></trkpt><trkpt lat="45.273780448295646" lon="3.19296551196223"><ele>519.0</ele><time>2026-04-18T16:17:39Z</time></trkpt><trkpt lat="45.273988209856974" lon="3.192932395367278"><ele>519.0</ele><time>2026-04-18T16:17:40Z</time></trkpt><trkpt lat="45.27419945509431" lon="3.192889952062819"><ele>519.0</ele><time>2026-04-18T16:17:41Z</time></trkpt><trkpt lat="45.27441071521488" lon="3.1928410794510085"><ele>519.0</ele><time>2026-04-18T16:17:42Z</time></trkpt><trkpt lat="45.27462128582663" lon="3.192806328571468"><ele>519.0</ele><time>2026-04-18T16:17:43Z</time></trkpt><trkpt lat="45.27483064615947" lon="3.1927605801788705"><ele>519.0</ele><time>2026-04-18T16:17:44Z</time></trkpt><trkpt lat="45.27503762369103" lon="3.1927068504790874"><ele>519.0</ele><time>2026-04-18T16:17:45Z</time></trkpt><trkpt lat="45.27524013234231" lon="3.19268260445928"><ele>519.0</ele><time>2026-04-18T16:17:46Z</time></trkpt><trkpt lat="45.27544333329601" lon="3.1926410801670198"><ele>519.6666666666666</ele><time>2026-04-18T16:17:47Z</time></trkpt><trkpt lat="45.275648411491716" lon="3.192597198791118"><ele>520.3333333333333</ele><time>2026-04-18T16:17:48Z</time></trkpt><trkpt lat="45.275851869901686" lon="3.1925526476767043"><ele>521.0</ele><time>2026-04-18T16:17:49Z</time></trkpt><trkpt lat="45.27605792738326" lon="3.192513436475007"><ele>521.0</ele><time>2026-04-18T16:17:50Z</time></trkpt><trkpt lat="45.27626012378568" lon="3.1924721721960516"><ele>521.0</ele><time>2026-04-18T16:17:51Z</time></trkpt><trkpt lat="45.276468660351256" lon="3.1924209812253"><ele>521.0</ele><time>2026-04-18T16:17:52Z</time></trkpt><trkpt lat="45.2766801497509" lon="3.1923797329946284"><ele>520.6666666666666</ele><time>2026-04-18T16:17:53Z</time></trkpt><trkpt lat="45.27689328354716" lon="3.192341059543765"><ele>520.3333333333334</ele><time>2026-04-18T16:17:54Z</time></trkpt><trkpt lat="45.27709887018156" lon="3.192292754060233"><ele>520.0</ele><time>2026-04-18T16:17:55Z</time></trkpt><trkpt lat="45.27731458187403" lon="3.192245722494001"><ele>518.0</ele><time>2026-04-18T16:17:56Z</time></trkpt><trkpt lat="45.27752791347737" lon="3.192199365386323"><ele>516.0</ele><time>2026-04-18T16:17:57Z</time></trkpt><trkpt lat="45.27774536386797" lon="3.1921567024656583"><ele>514.0</ele><time>2026-04-18T16:17:58Z</time></trkpt><trkpt lat="45.27796446965423" lon="3.1921103125077237"><ele>513.6666666666667</ele><time>2026-04-18T16:17:59Z</time></trkpt><trkpt lat="45.27817806623251" lon="3.192068052894243"><ele>513.3333333333334</ele><time>2026-04-18T16:18:00Z</time></trkpt><trkpt lat="45.278393345452265" lon="3.1920247106511224"><ele>513.0</ele><time>2026-04-18T16:18:01Z</time></trkpt><trkpt lat="45.27860234787681" lon="3.1919814594611986"><ele>513.0</ele><time>2026-04-18T16:18:02Z</time></trkpt><trkpt lat="45.27881350442066" lon="3.191943845170658"><ele>513.0</ele><time>2026-04-18T16:18:03Z</time></trkpt><trkpt lat="45.279024809217255" lon="3.191903257333309"><ele>513.0</ele><time>2026-04-18T16:18:04Z</time></trkpt><trkpt lat="45.279224402216975" lon="3.1918613384182257"><ele>514.0</ele><time>2026-04-18T16:18:05Z</time></trkpt><trkpt lat="45.27943792406901" lon="3.191813280649346"><ele>515.0</ele><time>2026-04-18T16:18:06Z</time></trkpt><trkpt lat="45.27964305145523" lon="3.1917700280937193"><ele>516.0</ele><time>2026-04-18T16:18:07Z</time></trkpt><trkpt lat="45.27984476133039" lon="3.1917283462059167"><ele>517.0</ele><time>2026-04-18T16:18:08Z</time></trkpt><trkpt lat="45.28005050540848" lon="3.191686010623148"><ele>518.0</ele><time>2026-04-18T16:18:09Z</time></trkpt><trkpt lat="45.28025435387177" lon="3.1916558327028683"><ele>519.0</ele><time>2026-04-18T16:18:10Z</time></trkpt><trkpt lat="45.280457651430126" lon="3.191611019699245"><ele>518.6666666666666</ele><time>2026-04-18T16:18:11Z</time></trkpt><trkpt lat="45.28066090502137" lon="3.1915665739266816"><ele>518.3333333333333</ele><time>2026-04-18T16:18:12Z</time></trkpt><trkpt lat="45.28086141370151" lon="3.1915203835648898"><ele>518.0</ele><time>2026-04-18T16:18:13Z</time></trkpt><trkpt lat="45.28104904809584" lon="3.191485600587813"><ele>516.6666666666666</ele><time>2026-04-18T16:18:14Z</time></trkpt><trkpt lat="45.28122811422095" lon="3.1914597998473857"><ele>515.3333333333334</ele><time>2026-04-18T16:18:15Z</time></trkpt><trkpt lat="45.281387842291956" lon="3.1914177139161923"><ele>514.0</ele><time>2026-04-18T16:18:16Z</time></trkpt><trkpt lat="45.28154331816949" lon="3.191385203475451"><ele>514.0</ele><time>2026-04-18T16:18:17Z</time></trkpt><trkpt lat="45.281695917827605" lon="3.1913537875294953"><ele>514.0</ele><time>2026-04-18T16:18:18Z</time></trkpt><trkpt lat="45.28184865889331" lon="3.1913248680923827"><ele>514.0</ele><time>2026-04-18T16:18:19Z</time></trkpt><trkpt lat="45.28199666355777" lon="3.1913002200224003"><ele>514.0</ele><time>2026-04-18T16:18:20Z</time></trkpt><trkpt lat="45.28213914276138" lon="3.1912912211261357"><ele>514.0</ele><time>2026-04-18T16:18:21Z</time></trkpt><trkpt lat="45.282277039724356" lon="3.1913109061171987"><ele>514.0</ele><time>2026-04-18T16:18:22Z</time></trkpt><trkpt lat="45.282414337431774" lon="3.1913624220386017"><ele>514.0</ele><time>2026-04-18T16:18:23Z</time></trkpt><trkpt lat="45.282545634838414" lon="3.191430206667606"><ele>514.3333333333334</ele><time>2026-04-18T16:18:24Z</time></trkpt><trkpt lat="45.28268343869362" lon="3.19152413257913"><ele>514.6666666666666</ele><time>2026-04-18T16:18:25Z</time></trkpt><trkpt lat="45.28282566809524" lon="3.1916183089517283"><ele>515.0</ele><time>2026-04-18T16:18:26Z</time></trkpt><trkpt lat="45.28298295785508" lon="3.1917121610307126"><ele>515.0</ele><time>2026-04-18T16:18:27Z</time></trkpt><trkpt lat="45.283159673411454" lon="3.191794343563355"><ele>515.0</ele><time>2026-04-18T16:18:28Z</time></trkpt><trkpt lat="45.28334258906387" lon="3.1918583500249906"><ele>515.0</ele><time>2026-04-18T16:18:29Z</time></trkpt><trkpt lat="45.28353385217425" lon="3.1919152172797407"><ele>515.0</ele><time>2026-04-18T16:18:30Z</time></trkpt><trkpt lat="45.28371686380162" lon="3.191973079229825"><ele>515.0</ele><time>2026-04-18T16:18:31Z</time></trkpt><trkpt lat="45.28388824688427" lon="3.192028535652837"><ele>515.0</ele><time>2026-04-18T16:18:32Z</time></trkpt><trkpt lat="45.28406411462875" lon="3.192087092241511"><ele>514.3333333333333</ele><time>2026-04-18T16:18:33Z</time></trkpt><trkpt lat="45.28423066280409" lon="3.192142255166162"><ele>513.6666666666666</ele><time>2026-04-18T16:18:34Z</time></trkpt><trkpt lat="45.28439240792712" lon="3.192196360773368"><ele>513.0</ele><time>2026-04-18T16:18:35Z</time></trkpt><trkpt lat="45.28455578557562" lon="3.1922536319396517"><ele>513.0</ele><time>2026-04-18T16:18:36Z</time></trkpt><trkpt lat="45.284727431599876" lon="3.192306798040627"><ele>513.0</ele><time>2026-04-18T16:18:37Z</time></trkpt><trkpt lat="45.28490250936934" lon="3.1923669849055982"><ele>513.0</ele><time>2026-04-18T16:18:38Z</time></trkpt><trkpt lat="45.28508177697457" lon="3.1924244779062723"><ele>513.3333333333334</ele><time>2026-04-18T16:18:39Z</time></trkpt><trkpt lat="45.28525401873659" lon="3.192490441060865"><ele>513.6666666666667</ele><time>2026-04-18T16:18:40Z</time></trkpt><trkpt lat="45.28543479040913" lon="3.1925480657067866"><ele>514.0</ele><time>2026-04-18T16:18:41Z</time></trkpt><trkpt lat="45.285610016249905" lon="3.1926047963223136"><ele>514.0</ele><time>2026-04-18T16:18:42Z</time></trkpt><trkpt lat="45.28578062848843" lon="3.1926643443466016"><ele>514.0</ele><time>2026-04-18T16:18:43Z</time></trkpt><trkpt lat="45.28594337681506" lon="3.192709999454922"><ele>514.0</ele><time>2026-04-18T16:18:44Z</time></trkpt><trkpt lat="45.28608278176899" lon="3.1927583771268604"><ele>514.0</ele><time>2026-04-18T16:18:45Z</time></trkpt><trkpt lat="45.286219596274734" lon="3.192794576041837"><ele>514.0</ele><time>2026-04-18T16:18:46Z</time></trkpt><trkpt lat="45.28634382392727" lon="3.19283827337245"><ele>514.0</ele><time>2026-04-18T16:18:47Z</time></trkpt><trkpt lat="45.286460873882646" lon="3.1928790958178497"><ele>514.0</ele><time>2026-04-18T16:18:48Z</time></trkpt><trkpt lat="45.28657154812056" lon="3.19291006161432"><ele>514.2</ele><time>2026-04-18T16:18:49Z</time></trkpt><trkpt lat="45.28667713332031" lon="3.1929379786440046"><ele>514.4</ele><time>2026-04-18T16:18:50Z</time></trkpt><trkpt lat="45.286780580650685" lon="3.192963681265022"><ele>514.6</ele><time>2026-04-18T16:18:51Z</time></trkpt><trkpt lat="45.28688171079782" lon="3.192975573481856"><ele>514.8</ele><time>2026-04-18T16:18:52Z</time></trkpt><trkpt lat="45.2869811739409" lon="3.1929507693932027"><ele>515.0</ele><time>2026-04-18T16:18:53Z</time></trkpt><trkpt lat="45.28706892380341" lon="3.1928745738817836"><ele>515.0</ele><time>2026-04-18T16:18:54Z</time></trkpt><trkpt lat="45.287133216787794" lon="3.192771461358366"><ele>515.0</ele><time>2026-04-18T16:18:55Z</time></trkpt><trkpt lat="45.28717254238999" lon="3.192638477739641"><ele>515.0</ele><time>2026-04-18T16:18:56Z</time></trkpt><trkpt lat="45.28718312246224" lon="3.192468373747211"><ele>515.0</ele><time>2026-04-18T16:18:57Z</time></trkpt><trkpt lat="45.28718389288681" lon="3.1922815546653"><ele>514.75</ele><time>2026-04-18T16:18:58Z</time></trkpt><trkpt lat="45.28719139719939" lon="3.192065196363829"><ele>514.5</ele><time>2026-04-18T16:18:59Z</time></trkpt><trkpt lat="45.28720357487729" lon="3.191854888632144"><ele>514.25</ele><time>2026-04-18T16:19:00Z</time></trkpt><trkpt lat="45.28724746324419" lon="3.191677155096251"><ele>514.0</ele><time>2026-04-18T16:19:01Z</time></trkpt><trkpt lat="45.287307446057" lon="3.1914895004625334"><ele>514.0</ele><time>2026-04-18T16:19:02Z</time></trkpt><trkpt lat="45.287375575746104" lon="3.191307223300653"><ele>514.0</ele><time>2026-04-18T16:19:03Z</time></trkpt><trkpt lat="45.28746255044044" lon="3.1911387947102683"><ele>514.0</ele><time>2026-04-18T16:19:04Z</time></trkpt><trkpt lat="45.28755741803332" lon="3.190978391870057"><ele>514.0</ele><time>2026-04-18T16:19:05Z</time></trkpt><trkpt lat="45.28765718469737" lon="3.1908344865981384"><ele>514.0</ele><time>2026-04-18T16:19:06Z</time></trkpt><trkpt lat="45.287756428244506" lon="3.190716257492044"><ele>514.0</ele><time>2026-04-18T16:19:07Z</time></trkpt><trkpt lat="45.28787350724816" lon="3.1906426266618437"><ele>514.0</ele><time>2026-04-18T16:19:08Z</time></trkpt><trkpt lat="45.28799938724364" lon="3.1906589330702415"><ele>514.0</ele><time>2026-04-18T16:19:09Z</time></trkpt><trkpt lat="45.288137861052896" lon="3.190692955987194"><ele>516.6666666666667</ele><time>2026-04-18T16:19:10Z</time></trkpt><trkpt lat="45.288298699278094" lon="3.1907258387833215"><ele>519.3333333333334</ele><time>2026-04-18T16:19:11Z</time></trkpt><trkpt lat="45.288472994542914" lon="3.190797286193317"><ele>522.0</ele><time>2026-04-18T16:19:12Z</time></trkpt><trkpt lat="45.288623478470576" lon="3.1908721248176324"><ele>522.0</ele><time>2026-04-18T16:19:13Z</time></trkpt><trkpt lat="45.288750245462836" lon="3.190992400934542"><ele>522.0</ele><time>2026-04-18T16:19:14Z</time></trkpt><trkpt lat="45.28885807065662" lon="3.1911494200712966"><ele>522.0</ele><time>2026-04-18T16:19:15Z</time></trkpt><trkpt lat="45.288979179215715" lon="3.1913317318869727"><ele>522.3333333333334</ele><time>2026-04-18T16:19:16Z</time></trkpt><trkpt lat="45.289104771405626" lon="3.191489587694024"><ele>522.6666666666667</ele><time>2026-04-18T16:19:17Z</time></trkpt><trkpt lat="45.28923467779722" lon="3.1916395722767543"><ele>523.0</ele><time>2026-04-18T16:19:18Z</time></trkpt><trkpt lat="45.28937110918238" lon="3.1917526161848575"><ele>523.0</ele><time>2026-04-18T16:19:19Z</time></trkpt><trkpt lat="45.289519865858814" lon="3.1918696121487957"><ele>523.0</ele><time>2026-04-18T16:19:20Z</time></trkpt><trkpt lat="45.28967236018935" lon="3.19197268531212"><ele>523.0</ele><time>2026-04-18T16:19:21Z</time></trkpt><trkpt lat="45.289830455031556" lon="3.1920583950410384"><ele>520.0</ele><time>2026-04-18T16:19:22Z</time></trkpt><trkpt lat="45.28999129781312" lon="3.1921274532419996"><ele>517.0</ele><time>2026-04-18T16:19:23Z</time></trkpt><trkpt lat="45.29014418222187" lon="3.192166328358164"><ele>514.0</ele><time>2026-04-18T16:19:24Z</time></trkpt><trkpt lat="45.29029103402382" lon="3.1921827034875374"><ele>514.0</ele><time>2026-04-18T16:19:25Z</time></trkpt><trkpt lat="45.29042693353463" lon="3.192175014980894"><ele>514.0</ele><time>2026-04-18T16:19:26Z</time></trkpt><trkpt lat="45.290555282653884" lon="3.192124446112236"><ele>514.0</ele><time>2026-04-18T16:19:27Z</time></trkpt><trkpt lat="45.290666935702355" lon="3.192025598023914"><ele>514.0</ele><time>2026-04-18T16:19:28Z</time></trkpt><trkpt lat="45.290756558928834" lon="3.1918899843304236"><ele>513.25</ele><time>2026-04-18T16:19:29Z</time></trkpt><trkpt lat="45.29082609309553" lon="3.191727661554151"><ele>512.5</ele><time>2026-04-18T16:19:30Z</time></trkpt><trkpt lat="45.290892760209125" lon="3.191540400290387"><ele>511.75</ele><time>2026-04-18T16:19:31Z</time></trkpt><trkpt lat="45.29096298535673" lon="3.19136224381681"><ele>511.0</ele><time>2026-04-18T16:19:32Z</time></trkpt><trkpt lat="45.291052864671954" lon="3.191204553482304"><ele>510.6666666666667</ele><time>2026-04-18T16:19:33Z</time></trkpt><trkpt lat="45.291165000319594" lon="3.1910535521686985"><ele>510.33333333333337</ele><time>2026-04-18T16:19:34Z</time></trkpt><trkpt lat="45.291311388337796" lon="3.1909363223560665"><ele>510.0</ele><time>2026-04-18T16:19:35Z</time></trkpt><trkpt lat="45.29146965249055" lon="3.190847717625044"><ele>509.33333333333337</ele><time>2026-04-18T16:19:36Z</time></trkpt><trkpt lat="45.291651207830675" lon="3.1907657551964723"><ele>508.6666666666667</ele><time>2026-04-18T16:19:37Z</time></trkpt><trkpt lat="45.291839401509314" lon="3.190675448259017"><ele>508.0</ele><time>2026-04-18T16:19:38Z</time></trkpt><trkpt lat="45.29203750855927" lon="3.1906059019544752"><ele>507.0</ele><time>2026-04-18T16:19:39Z</time></trkpt><trkpt lat="45.29223974394187" lon="3.1905356583886006"><ele>506.0</ele><time>2026-04-18T16:19:40Z</time></trkpt><trkpt lat="45.292443254486976" lon="3.19046361735928"><ele>505.0</ele><time>2026-04-18T16:19:41Z</time></trkpt><trkpt lat="45.29265841957678" lon="3.1903901529131797"><ele>505.0</ele><time>2026-04-18T16:19:42Z</time></trkpt><trkpt lat="45.292867625363385" lon="3.1903128686829496"><ele>505.0</ele><time>2026-04-18T16:19:43Z</time></trkpt><trkpt lat="45.293085534812406" lon="3.190235172073791"><ele>505.0</ele><time>2026-04-18T16:19:44Z</time></trkpt><trkpt lat="45.293298468042174" lon="3.1901568766387403"><ele>505.33333333333337</ele><time>2026-04-18T16:19:45Z</time></trkpt><trkpt lat="45.293504417659754" lon="3.190087691816396"><ele>505.66666666666663</ele><time>2026-04-18T16:19:46Z</time></trkpt><trkpt lat="45.293695472796536" lon="3.190022080294361"><ele>506.0</ele><time>2026-04-18T16:19:47Z</time></trkpt><trkpt lat="45.29388153352589" lon="3.189954800402559"><ele>505.66666666666663</ele><time>2026-04-18T16:19:48Z</time></trkpt><trkpt lat="45.29406891654236" lon="3.1898842228747943"><ele>505.33333333333337</ele><time>2026-04-18T16:19:49Z</time></trkpt><trkpt lat="45.29424083894643" lon="3.1898164533267965"><ele>505.0</ele><time>2026-04-18T16:19:50Z</time></trkpt><trkpt lat="45.29440232727391" lon="3.189757060157315"><ele>504.6666666666667</ele><time>2026-04-18T16:19:51Z</time></trkpt><trkpt lat="45.294573452574646" lon="3.189693010265086"><ele>504.33333333333337</ele><time>2026-04-18T16:19:52Z</time></trkpt><trkpt lat="45.29474693408554" lon="3.1896260601458324"><ele>504.0</ele><time>2026-04-18T16:19:53Z</time></trkpt><trkpt lat="45.29492355246414" lon="3.1895482266387116"><ele>504.0</ele><time>2026-04-18T16:19:54Z</time></trkpt><trkpt lat="45.2950942277564" lon="3.189451202827735"><ele>504.0</ele><time>2026-04-18T16:19:55Z</time></trkpt><trkpt lat="45.29525460375404" lon="3.189324060017124"><ele>504.0</ele><time>2026-04-18T16:19:56Z</time></trkpt><trkpt lat="45.29542169392505" lon="3.1891861067633243"><ele>504.0</ele><time>2026-04-18T16:19:57Z</time></trkpt><trkpt lat="45.295589728164444" lon="3.1890541879722183"><ele>504.0</ele><time>2026-04-18T16:19:58Z</time></trkpt><trkpt lat="45.29576760727767" lon="3.188914272048506"><ele>504.0</ele><time>2026-04-18T16:19:59Z</time></trkpt><trkpt lat="45.295949219184905" lon="3.188775491793033"><ele>504.0</ele><time>2026-04-18T16:20:00Z</time></trkpt><trkpt lat="45.296131394115406" lon="3.18863918663563"><ele>504.0</ele><time>2026-04-18T16:20:01Z</time></trkpt><trkpt lat="45.29630275048322" lon="3.1885134566940674"><ele>504.0</ele><time>2026-04-18T16:20:02Z</time></trkpt><trkpt lat="45.296475901575214" lon="3.1883953959762086"><ele>504.33333333333337</ele><time>2026-04-18T16:20:03Z</time></trkpt><trkpt lat="45.29664965471619" lon="3.18829572018508"><ele>504.6666666666667</ele><time>2026-04-18T16:20:04Z</time></trkpt><trkpt lat="45.29682885463902" lon="3.188203458450184"><ele>505.0</ele><time>2026-04-18T16:20:05Z</time></trkpt><trkpt lat="45.29700477771191" lon="3.188124498464458"><ele>503.6666666666667</ele><time>2026-04-18T16:20:06Z</time></trkpt><trkpt lat="45.29718649344693" lon="3.1880499781515894"><ele>502.33333333333337</ele><time>2026-04-18T16:20:07Z</time></trkpt><trkpt lat="45.29736648201333" lon="3.1879816994113623"><ele>501.0</ele><time>2026-04-18T16:20:08Z</time></trkpt><trkpt lat="45.29754390630127" lon="3.187933526533862"><ele>500.66666666666663</ele><time>2026-04-18T16:20:09Z</time></trkpt><trkpt lat="45.297731814224946" lon="3.18791419122312"><ele>500.3333333333333</ele><time>2026-04-18T16:20:10Z</time></trkpt><trkpt lat="45.297918632882904" lon="3.187933825539756"><ele>500.0</ele><time>2026-04-18T16:20:11Z</time></trkpt><trkpt lat="45.29810372559585" lon="3.187996216548962"><ele>500.66666666666663</ele><time>2026-04-18T16:20:12Z</time></trkpt><trkpt lat="45.29828688672151" lon="3.1880839071280853"><ele>501.33333333333337</ele><time>2026-04-18T16:20:13Z</time></trkpt><trkpt lat="45.298471504425116" lon="3.1881794797086074"><ele>502.0</ele><time>2026-04-18T16:20:14Z</time></trkpt><trkpt lat="45.29865777370115" lon="3.1882747037301504"><ele>502.6666666666667</ele><time>2026-04-18T16:20:15Z</time></trkpt><trkpt lat="45.298844505824114" lon="3.1883683459837284"><ele>503.33333333333337</ele><time>2026-04-18T16:20:16Z</time></trkpt><trkpt lat="45.29902965719946" lon="3.18845429286998"><ele>504.0</ele><time>2026-04-18T16:20:17Z</time></trkpt><trkpt lat="45.29922201026564" lon="3.18854161644198"><ele>504.0</ele><time>2026-04-18T16:20:18Z</time></trkpt><trkpt lat="45.299416630870425" lon="3.188624873392049"><ele>504.0</ele><time>2026-04-18T16:20:19Z</time></trkpt><trkpt lat="45.29961484430988" lon="3.188690220282929"><ele>504.0</ele><time>2026-04-18T16:20:20Z</time></trkpt><trkpt lat="45.299813242162735" lon="3.188730766689081"><ele>503.0</ele><time>2026-04-18T16:20:21Z</time></trkpt><trkpt lat="45.30001119595805" lon="3.1887520123873063"><ele>502.0</ele><time>2026-04-18T16:20:22Z</time></trkpt><trkpt lat="45.300216242753265" lon="3.1887565519284653"><ele>501.0</ele><time>2026-04-18T16:20:23Z</time></trkpt><trkpt lat="45.30041549928715" lon="3.188744548785028"><ele>501.0</ele><time>2026-04-18T16:20:24Z</time></trkpt><trkpt lat="45.30062318675759" lon="3.188719482488883"><ele>501.0</ele><time>2026-04-18T16:20:25Z</time></trkpt><trkpt lat="45.300826087030266" lon="3.1887405909849487"><ele>501.0</ele><time>2026-04-18T16:20:26Z</time></trkpt><trkpt lat="45.301016024894224" lon="3.18877718158721"><ele>501.0</ele><time>2026-04-18T16:20:27Z</time></trkpt><trkpt lat="45.301205414391816" lon="3.1888520699633376"><ele>501.0</ele><time>2026-04-18T16:20:28Z</time></trkpt><trkpt lat="45.301384285080246" lon="3.188947759985007"><ele>501.0</ele><time>2026-04-18T16:20:29Z</time></trkpt><trkpt lat="45.301571606380136" lon="3.1890442918031354"><ele>504.66666666666663</ele><time>2026-04-18T16:20:30Z</time></trkpt><trkpt lat="45.30174740096938" lon="3.1891585372386317"><ele>508.3333333333333</ele><time>2026-04-18T16:20:31Z</time></trkpt><trkpt lat="45.30192687634102" lon="3.1892704965463397"><ele>512.0</ele><time>2026-04-18T16:20:32Z</time></trkpt><trkpt lat="45.30210888991083" lon="3.1893768761722545"><ele>509.0</ele><time>2026-04-18T16:20:33Z</time></trkpt><trkpt lat="45.30228783992897" lon="3.1894855035610923"><ele>506.0</ele><time>2026-04-18T16:20:34Z</time></trkpt><trkpt lat="45.302474106746224" lon="3.189598657620615"><ele>503.0</ele><time>2026-04-18T16:20:35Z</time></trkpt><trkpt lat="45.30265424819933" lon="3.1897107823538766"><ele>503.0</ele><time>2026-04-18T16:20:36Z</time></trkpt><trkpt lat="45.30283700038536" lon="3.1898198124534787"><ele>503.0</ele><time>2026-04-18T16:20:37Z</time></trkpt><trkpt lat="45.30302257388492" lon="3.1899287689780835"><ele>503.0</ele><time>2026-04-18T16:20:38Z</time></trkpt><trkpt lat="45.30321007310624" lon="3.190029017745741"><ele>504.66666666666663</ele><time>2026-04-18T16:20:39Z</time></trkpt><trkpt lat="45.303398727133484" lon="3.1901230930629834"><ele>506.33333333333337</ele><time>2026-04-18T16:20:40Z</time></trkpt><trkpt lat="45.303596283884936" lon="3.1902114032599598"><ele>508.0</ele><time>2026-04-18T16:20:41Z</time></trkpt><trkpt lat="45.30379258739901" lon="3.1902922884321576"><ele>506.33333333333337</ele><time>2026-04-18T16:20:42Z</time></trkpt><trkpt lat="45.303985259955766" lon="3.1903646209370518"><ele>504.66666666666663</ele><time>2026-04-18T16:20:43Z</time></trkpt><trkpt lat="45.30419421041441" lon="3.1904253316505025"><ele>503.0</ele><time>2026-04-18T16:20:44Z</time></trkpt><trkpt lat="45.30439857374009" lon="3.1904584726764833"><ele>503.0</ele><time>2026-04-18T16:20:45Z</time></trkpt><trkpt lat="45.30460195195646" lon="3.190459723268463"><ele>503.0</ele><time>2026-04-18T16:20:46Z</time></trkpt><trkpt lat="45.304805755131305" lon="3.1904454958865878"><ele>503.0</ele><time>2026-04-18T16:20:47Z</time></trkpt><trkpt lat="45.30500129624847" lon="3.19041430559151"><ele>503.3333333333333</ele><time>2026-04-18T16:20:48Z</time></trkpt><trkpt lat="45.3052007848746" lon="3.1903657205325437"><ele>503.66666666666663</ele><time>2026-04-18T16:20:49Z</time></trkpt><trkpt lat="45.30539679344261" lon="3.1902985795762113"><ele>504.0</ele><time>2026-04-18T16:20:50Z</time></trkpt><trkpt lat="45.30559307422985" lon="3.1902069409433467"><ele>504.66666666666663</ele><time>2026-04-18T16:20:51Z</time></trkpt><trkpt lat="45.30577806186054" lon="3.1901041138129003"><ele>505.3333333333333</ele><time>2026-04-18T16:20:52Z</time></trkpt><trkpt lat="45.30595048343898" lon="3.1899890820730277"><ele>506.0</ele><time>2026-04-18T16:20:53Z</time></trkpt><trkpt lat="45.30611481082383" lon="3.189858087653389"><ele>505.66666666666663</ele><time>2026-04-18T16:20:54Z</time></trkpt><trkpt lat="45.3062721742973" lon="3.1897154685018774"><ele>505.33333333333337</ele><time>2026-04-18T16:20:55Z</time></trkpt><trkpt lat="45.3064267967769" lon="3.189556730444769"><ele>505.0</ele><time>2026-04-18T16:20:56Z</time></trkpt><trkpt lat="45.30656643473843" lon="3.1894045528346555"><ele>505.0</ele><time>2026-04-18T16:20:57Z</time></trkpt><trkpt lat="45.30671968861707" lon="3.1892779741941553"><ele>505.0</ele><time>2026-04-18T16:20:58Z</time></trkpt><trkpt lat="45.30685406328462" lon="3.1891193024774696"><ele>505.0</ele><time>2026-04-18T16:20:59Z</time></trkpt><trkpt lat="45.30700362266843" lon="3.1889699532034412"><ele>504.33333333333337</ele><time>2026-04-18T16:21:00Z</time></trkpt><trkpt lat="45.307148446048274" lon="3.1888270995211867"><ele>503.66666666666663</ele><time>2026-04-18T16:21:01Z</time></trkpt><trkpt lat="45.307292586873196" lon="3.1886860828198107"><ele>503.0</ele><time>2026-04-18T16:21:02Z</time></trkpt><trkpt lat="45.307438915943166" lon="3.1885589367641516"><ele>503.0</ele><time>2026-04-18T16:21:03Z</time></trkpt><trkpt lat="45.30759170861884" lon="3.1884579928531718"><ele>503.0</ele><time>2026-04-18T16:21:04Z</time></trkpt><trkpt lat="45.3077356955422" lon="3.1883577872963422"><ele>503.0</ele><time>2026-04-18T16:21:05Z</time></trkpt><trkpt lat="45.307883733715535" lon="3.1882568715686794"><ele>501.5</ele><time>2026-04-18T16:21:06Z</time></trkpt><trkpt lat="45.30801343661407" lon="3.188156282342145"><ele>500.0</ele><time>2026-04-18T16:21:07Z</time></trkpt><trkpt lat="45.308145665814145" lon="3.188062051111441"><ele>498.5</ele><time>2026-04-18T16:21:08Z</time></trkpt><trkpt lat="45.30827307245585" lon="3.187979142148289"><ele>497.0</ele><time>2026-04-18T16:21:09Z</time></trkpt><trkpt lat="45.30840006335323" lon="3.187889391054734"><ele>497.0</ele><time>2026-04-18T16:21:10Z</time></trkpt><trkpt lat="45.30851314573651" lon="3.187776941813859"><ele>497.0</ele><time>2026-04-18T16:21:11Z</time></trkpt><trkpt lat="45.30862235235615" lon="3.187643810211552"><ele>497.0</ele><time>2026-04-18T16:21:12Z</time></trkpt><trkpt lat="45.30872076264974" lon="3.1874964906993166"><ele>497.0</ele><time>2026-04-18T16:21:13Z</time></trkpt><trkpt lat="45.30881560121233" lon="3.1873506396061067"><ele>496.5</ele><time>2026-04-18T16:21:14Z</time></trkpt><trkpt lat="45.30891938196108" lon="3.187207687259413"><ele>496.0</ele><time>2026-04-18T16:21:15Z</time></trkpt><trkpt lat="45.30902282580216" lon="3.187067639042615"><ele>495.5</ele><time>2026-04-18T16:21:16Z</time></trkpt><trkpt lat="45.30913440444378" lon="3.186928754026007"><ele>495.0</ele><time>2026-04-18T16:21:17Z</time></trkpt><trkpt lat="45.309256171757234" lon="3.1868102673837813"><ele>495.0</ele><time>2026-04-18T16:21:18Z</time></trkpt><trkpt lat="45.309374029057444" lon="3.1867184079024886"><ele>495.0</ele><time>2026-04-18T16:21:19Z</time></trkpt><trkpt lat="45.30949925723301" lon="3.1866678332170495"><ele>495.0</ele><time>2026-04-18T16:21:20Z</time></trkpt><trkpt lat="45.309604862521546" lon="3.186583629593612"><ele>495.0</ele><time>2026-04-18T16:21:21Z</time></trkpt><trkpt lat="45.30971427553554" lon="3.186536895899329"><ele>495.4</ele><time>2026-04-18T16:21:22Z</time></trkpt><trkpt lat="45.3098176869498" lon="3.186489101090321"><ele>495.8</ele><time>2026-04-18T16:21:23Z</time></trkpt><trkpt lat="45.30991317736081" lon="3.1864394243903353"><ele>496.20000000000005</ele><time>2026-04-18T16:21:24Z</time></trkpt><trkpt lat="45.310001616360886" lon="3.1863915814119004"><ele>496.6</ele><time>2026-04-18T16:21:25Z</time></trkpt><trkpt lat="45.31008457820589" lon="3.1863463278698547"><ele>497.0</ele><time>2026-04-18T16:21:26Z</time></trkpt><trkpt lat="45.31016358284638" lon="3.1863040352345227"><ele>497.0</ele><time>2026-04-18T16:21:27Z</time></trkpt><trkpt lat="45.31023405656815" lon="3.1862701178522967"><ele>497.0</ele><time>2026-04-18T16:21:28Z</time></trkpt><trkpt lat="45.31030198795246" lon="3.1862347939567255"><ele>497.0</ele><time>2026-04-18T16:21:29Z</time></trkpt><trkpt lat="45.31036318582821" lon="3.1862059585687392"><ele>497.0</ele><time>2026-04-18T16:21:30Z</time></trkpt><trkpt lat="45.31042728828755" lon="3.1861789117202117"><ele>497.0</ele><time>2026-04-18T16:21:31Z</time></trkpt><trkpt lat="45.31048961825527" lon="3.1861491664775956"><ele>497.0</ele><time>2026-04-18T16:21:32Z</time></trkpt><trkpt lat="45.31055144712174" lon="3.18611556533487"><ele>497.0</ele><time>2026-04-18T16:21:33Z</time></trkpt><trkpt lat="45.31061191526058" lon="3.1860836973846953"><ele>497.0</ele><time>2026-04-18T16:21:34Z</time></trkpt><trkpt lat="45.31071941520492" lon="3.186031051405882"><ele>497.0</ele><time>2026-04-18T16:21:36Z</time></trkpt><trkpt lat="45.31082829818587" lon="3.1860036652051376"><ele>497.0</ele><time>2026-04-18T16:21:38Z</time></trkpt><trkpt lat="45.31093669297686" lon="3.1859889717280065"><ele>497.0</ele><time>2026-04-18T16:21:40Z</time></trkpt><trkpt lat="45.31105914077001" lon="3.1859977411454676"><ele>497.0</ele><time>2026-04-18T16:21:42Z</time></trkpt><trkpt lat="45.31118947227549" lon="3.1860310680537816"><ele>497.00000000000006</ele><time>2026-04-18T16:21:44Z</time></trkpt><trkpt lat="45.31125632606587" lon="3.186056480663433"><ele>497.00000000000006</ele><time>2026-04-18T16:21:45Z</time></trkpt><trkpt lat="45.31132602886042" lon="3.1860905027847157"><ele>497.0</ele><time>2026-04-18T16:21:46Z</time></trkpt><trkpt lat="45.31140581797282" lon="3.1861346119334413"><ele>497.0</ele><time>2026-04-18T16:21:47Z</time></trkpt><trkpt lat="45.31148743284419" lon="3.186195081975973"><ele>496.8333333333333</ele><time>2026-04-18T16:21:48Z</time></trkpt><trkpt lat="45.31156212769975" lon="3.1862584710480424"><ele>496.66666666666663</ele><time>2026-04-18T16:21:49Z</time></trkpt><trkpt lat="45.311638801655974" lon="3.1863233054740316"><ele>496.5</ele><time>2026-04-18T16:21:50Z</time></trkpt><trkpt lat="45.311703409588645" lon="3.1863767184664695"><ele>496.33333333333337</ele><time>2026-04-18T16:21:51Z</time></trkpt><trkpt lat="45.31176146457972" lon="3.186426148001125"><ele>496.1666666666667</ele><time>2026-04-18T16:21:52Z</time></trkpt><trkpt lat="45.311843060716555" lon="3.1864858206349695"><ele>496.0</ele><time>2026-04-18T16:21:53Z</time></trkpt><trkpt lat="45.31192737520698" lon="3.1865490175814393"><ele>495.75</ele><time>2026-04-18T16:21:54Z</time></trkpt><trkpt lat="45.31200917621114" lon="3.186623649043778"><ele>495.5</ele><time>2026-04-18T16:21:55Z</time></trkpt><trkpt lat="45.31210303682066" lon="3.186716022858225"><ele>495.25</ele><time>2026-04-18T16:21:56Z</time></trkpt><trkpt lat="45.31219394295451" lon="3.1868256934041352"><ele>495.0</ele><time>2026-04-18T16:21:57Z</time></trkpt><trkpt lat="45.31228156407069" lon="3.1869455370785453"><ele>494.5</ele><time>2026-04-18T16:21:58Z</time></trkpt><trkpt lat="45.312360077877884" lon="3.1870861547518294"><ele>494.0</ele><time>2026-04-18T16:21:59Z</time></trkpt><trkpt lat="45.31242660189709" lon="3.1872316332422583"><ele>493.5</ele><time>2026-04-18T16:22:00Z</time></trkpt><trkpt lat="45.31247396920482" lon="3.1873990019022163"><ele>493.0</ele><time>2026-04-18T16:22:01Z</time></trkpt><trkpt lat="45.31252408478282" lon="3.1875605593106466"><ele>494.0</ele><time>2026-04-18T16:22:02Z</time></trkpt><trkpt lat="45.312603235286645" lon="3.1877293060769127"><ele>495.0</ele><time>2026-04-18T16:22:03Z</time></trkpt><trkpt lat="45.31268501558321" lon="3.18789837243604"><ele>496.0</ele><time>2026-04-18T16:22:04Z</time></trkpt><trkpt lat="45.312787267617686" lon="3.188040451827449"><ele>497.0</ele><time>2026-04-18T16:22:05Z</time></trkpt><trkpt lat="45.31289748417913" lon="3.1881581113962945"><ele>497.75</ele><time>2026-04-18T16:22:06Z</time></trkpt><trkpt lat="45.313014604335386" lon="3.1882691144645463"><ele>498.5</ele><time>2026-04-18T16:22:07Z</time></trkpt><trkpt lat="45.31314100442011" lon="3.1883860541281153"><ele>499.25</ele><time>2026-04-18T16:22:08Z</time></trkpt><trkpt lat="45.31327254273384" lon="3.188499353737971"><ele>500.0</ele><time>2026-04-18T16:22:09Z</time></trkpt><trkpt lat="45.313407956485946" lon="3.188608281142032"><ele>500.0</ele><time>2026-04-18T16:22:10Z</time></trkpt><trkpt lat="45.31355142946122" lon="3.1887133143343283"><ele>500.0</ele><time>2026-04-18T16:22:11Z</time></trkpt><trkpt lat="45.3137006329849" lon="3.188820032007404"><ele>500.0</ele><time>2026-04-18T16:22:12Z</time></trkpt><trkpt lat="45.313849088127775" lon="3.1889097780734694"><ele>499.0</ele><time>2026-04-18T16:22:13Z</time></trkpt><trkpt lat="45.31400024874962" lon="3.1889854068350694"><ele>498.0</ele><time>2026-04-18T16:22:14Z</time></trkpt><trkpt lat="45.3141577297202" lon="3.189046378053515"><ele>497.0</ele><time>2026-04-18T16:22:15Z</time></trkpt><trkpt lat="45.31430691307231" lon="3.189091471767044"><ele>496.5</ele><time>2026-04-18T16:22:16Z</time></trkpt><trkpt lat="45.31444226399992" lon="3.18915041462198"><ele>496.0</ele><time>2026-04-18T16:22:17Z</time></trkpt><trkpt lat="45.314578444194304" lon="3.1892206511559045"><ele>495.5</ele><time>2026-04-18T16:22:18Z</time></trkpt><trkpt lat="45.314708166455475" lon="3.1892878503316138"><ele>495.0</ele><time>2026-04-18T16:22:19Z</time></trkpt><trkpt lat="45.31480683495619" lon="3.1894300833347926"><ele>495.0</ele><time>2026-04-18T16:22:20Z</time></trkpt><trkpt lat="45.31491396594534" lon="3.1895659148051765"><ele>495.0</ele><time>2026-04-18T16:22:21Z</time></trkpt><trkpt lat="45.315033546577205" lon="3.189702562568844"><ele>495.0</ele><time>2026-04-18T16:22:22Z</time></trkpt><trkpt lat="45.31513948816292" lon="3.1898697963687765"><ele>500.0</ele><time>2026-04-18T16:22:23Z</time></trkpt><trkpt lat="45.31524273857308" lon="3.1900504058324435"><ele>505.0</ele><time>2026-04-18T16:22:24Z</time></trkpt><trkpt lat="45.31535293606852" lon="3.1902253192333516"><ele>510.0</ele><time>2026-04-18T16:22:25Z</time></trkpt><trkpt lat="45.31546562170205" lon="3.1903937305187093"><ele>507.66666666666663</ele><time>2026-04-18T16:22:26Z</time></trkpt><trkpt lat="45.315589674816465" lon="3.190566302881373"><ele>505.3333333333333</ele><time>2026-04-18T16:22:27Z</time></trkpt><trkpt lat="45.31571273897009" lon="3.1907290268250357"><ele>503.0</ele><time>2026-04-18T16:22:28Z</time></trkpt><trkpt lat="45.31584694276108" lon="3.1908943508888044"><ele>503.0</ele><time>2026-04-18T16:22:29Z</time></trkpt><trkpt lat="45.31598499394881" lon="3.1910568291924304"><ele>503.0</ele><time>2026-04-18T16:22:30Z</time></trkpt><trkpt lat="45.316124491582755" lon="3.1912113664804185"><ele>503.0</ele><time>2026-04-18T16:22:31Z</time></trkpt><trkpt lat="45.31627708986029" lon="3.19136789244859"><ele>502.3333333333333</ele><time>2026-04-18T16:22:32Z</time></trkpt><trkpt lat="45.31643622698135" lon="3.1915188668678263"><ele>501.66666666666663</ele><time>2026-04-18T16:22:33Z</time></trkpt><trkpt lat="45.316605640195235" lon="3.1916698998052553"><ele>501.0</ele><time>2026-04-18T16:22:34Z</time></trkpt><trkpt lat="45.31676716195191" lon="3.1918128247255235"><ele>501.0</ele><time>2026-04-18T16:22:35Z</time></trkpt><trkpt lat="45.3169327631063" lon="3.1919578617945725"><ele>501.0</ele><time>2026-04-18T16:22:36Z</time></trkpt><trkpt lat="45.317098996047875" lon="3.1921145817530805"><ele>501.0</ele><time>2026-04-18T16:22:37Z</time></trkpt><trkpt lat="45.31726941418837" lon="3.192272460435662"><ele>500.0</ele><time>2026-04-18T16:22:38Z</time></trkpt><trkpt lat="45.31744513834929" lon="3.1924380506268086"><ele>499.0</ele><time>2026-04-18T16:22:39Z</time></trkpt><trkpt lat="45.31762169907691" lon="3.192603510565472"><ele>498.0</ele><time>2026-04-18T16:22:40Z</time></trkpt><trkpt lat="45.31779506883808" lon="3.1927686822769545"><ele>498.0</ele><time>2026-04-18T16:22:41Z</time></trkpt><trkpt lat="45.31797525973988" lon="3.1929273503051565"><ele>498.0</ele><time>2026-04-18T16:22:42Z</time></trkpt><trkpt lat="45.31815725017951" lon="3.193084538482025"><ele>498.0</ele><time>2026-04-18T16:22:43Z</time></trkpt><trkpt lat="45.31833155281723" lon="3.1932409683804575"><ele>499.66666666666663</ele><time>2026-04-18T16:22:44Z</time></trkpt><trkpt lat="45.31849710045431" lon="3.193396325540377"><ele>501.3333333333333</ele><time>2026-04-18T16:22:45Z</time></trkpt><trkpt lat="45.31865915921499" lon="3.1935525604007746"><ele>503.0</ele><time>2026-04-18T16:22:46Z</time></trkpt><trkpt lat="45.31881446960624" lon="3.1937049012507384"><ele>501.3333333333333</ele><time>2026-04-18T16:22:47Z</time></trkpt><trkpt lat="45.31897082940706" lon="3.1938700112153118"><ele>499.66666666666663</ele><time>2026-04-18T16:22:48Z</time></trkpt><trkpt lat="45.31910826160329" lon="3.194048334419641"><ele>498.0</ele><time>2026-04-18T16:22:49Z</time></trkpt><trkpt lat="45.319225950824325" lon="3.1942388771403785"><ele>498.0</ele><time>2026-04-18T16:22:50Z</time></trkpt><trkpt lat="45.31933555160248" lon="3.1944512716011677"><ele>498.0</ele><time>2026-04-18T16:22:51Z</time></trkpt><trkpt lat="45.319413881864286" lon="3.1946794258283453"><ele>498.0</ele><time>2026-04-18T16:22:52Z</time></trkpt><trkpt lat="45.31948408210318" lon="3.19491496793225"><ele>500.0</ele><time>2026-04-18T16:22:53Z</time></trkpt><trkpt lat="45.319552653275224" lon="3.1951526428404446"><ele>502.0</ele><time>2026-04-18T16:22:54Z</time></trkpt><trkpt lat="45.31963683286206" lon="3.195391890618771"><ele>504.0</ele><time>2026-04-18T16:22:55Z</time></trkpt><trkpt lat="45.31974010189703" lon="3.1956132125393366"><ele>500.66666666666663</ele><time>2026-04-18T16:22:56Z</time></trkpt><trkpt lat="45.31987419497141" lon="3.1958230957826013"><ele>497.3333333333333</ele><time>2026-04-18T16:22:57Z</time></trkpt><trkpt lat="45.320018556752615" lon="3.196008703757267"><ele>494.0</ele><time>2026-04-18T16:22:58Z</time></trkpt><trkpt lat="45.32018359744732" lon="3.1961806696380157"><ele>494.0</ele><time>2026-04-18T16:22:59Z</time></trkpt><trkpt lat="45.32034557895738" lon="3.196337630169795"><ele>494.0</ele><time>2026-04-18T16:23:00Z</time></trkpt><trkpt lat="45.32050950633082" lon="3.1965006603333896"><ele>494.0</ele><time>2026-04-18T16:23:01Z</time></trkpt><trkpt lat="45.32066209671448" lon="3.1966821194974044"><ele>494.66666666666663</ele><time>2026-04-18T16:23:02Z</time></trkpt><trkpt lat="45.32078577807" lon="3.1968947552877625"><ele>495.33333333333337</ele><time>2026-04-18T16:23:03Z</time></trkpt><trkpt lat="45.3208796413343" lon="3.1971262659781394"><ele>496.0</ele><time>2026-04-18T16:23:04Z</time></trkpt><trkpt lat="45.32097605451137" lon="3.1973643948432136"><ele>497.6666666666667</ele><time>2026-04-18T16:23:05Z</time></trkpt><trkpt lat="45.321081390076756" lon="3.197591084114859"><ele>499.33333333333337</ele><time>2026-04-18T16:23:06Z</time></trkpt><trkpt lat="45.32120805640241" lon="3.197804110507759"><ele>501.0</ele><time>2026-04-18T16:23:07Z</time></trkpt><trkpt lat="45.32134611653538" lon="3.197992959646915"><ele>498.66666666666663</ele><time>2026-04-18T16:23:08Z</time></trkpt><trkpt lat="45.321489793997316" lon="3.198175369046038"><ele>496.3333333333333</ele><time>2026-04-18T16:23:09Z</time></trkpt><trkpt lat="45.32162745544203" lon="3.1983500355476897"><ele>494.0</ele><time>2026-04-18T16:23:10Z</time></trkpt><trkpt lat="45.32176930098307" lon="3.1985256767335803"><ele>494.0</ele><time>2026-04-18T16:23:11Z</time></trkpt><trkpt lat="45.32191541576862" lon="3.1986874187536407"><ele>494.0</ele><time>2026-04-18T16:23:12Z</time></trkpt><trkpt lat="45.32206555819346" lon="3.1988341642217"><ele>494.0</ele><time>2026-04-18T16:23:13Z</time></trkpt><trkpt lat="45.32222672756311" lon="3.198960997281624"><ele>494.3333333333333</ele><time>2026-04-18T16:23:14Z</time></trkpt><trkpt lat="45.322395902866525" lon="3.1990676299569443"><ele>494.66666666666663</ele><time>2026-04-18T16:23:15Z</time></trkpt><trkpt lat="45.32257252717853" lon="3.1991639522992394"><ele>495.0</ele><time>2026-04-18T16:23:16Z</time></trkpt><trkpt lat="45.32275572299216" lon="3.199260681073888"><ele>495.0</ele><time>2026-04-18T16:23:17Z</time></trkpt><trkpt lat="45.32293906013073" lon="3.199351555341755"><ele>495.0</ele><time>2026-04-18T16:23:18Z</time></trkpt><trkpt lat="45.32311865607808" lon="3.199444045582745"><ele>495.0</ele><time>2026-04-18T16:23:19Z</time></trkpt><trkpt lat="45.32330706074419" lon="3.1995412965548837"><ele>494.0</ele><time>2026-04-18T16:23:20Z</time></trkpt><trkpt lat="45.32348800627412" lon="3.199628618414292"><ele>493.0</ele><time>2026-04-18T16:23:21Z</time></trkpt><trkpt lat="45.3236761399452" lon="3.199702444692323"><ele>492.0</ele><time>2026-04-18T16:23:22Z</time></trkpt><trkpt lat="45.32386415595038" lon="3.199744538441012"><ele>490.66666666666663</ele><time>2026-04-18T16:23:23Z</time></trkpt><trkpt lat="45.324049917371426" lon="3.199751529487117"><ele>489.3333333333333</ele><time>2026-04-18T16:23:24Z</time></trkpt><trkpt lat="45.3242488809253" lon="3.1997311794381"><ele>488.0</ele><time>2026-04-18T16:23:25Z</time></trkpt><trkpt lat="45.32443548789592" lon="3.1997055437892197"><ele>488.0</ele><time>2026-04-18T16:23:26Z</time></trkpt><trkpt lat="45.324601762325294" lon="3.1997314928436422"><ele>488.0</ele><time>2026-04-18T16:23:27Z</time></trkpt><trkpt lat="45.324763433830654" lon="3.199786935304281"><ele>488.0</ele><time>2026-04-18T16:23:28Z</time></trkpt><trkpt lat="45.32493305852788" lon="3.1998341309133664"><ele>492.66666666666663</ele><time>2026-04-18T16:23:29Z</time></trkpt><trkpt lat="45.32509570899984" lon="3.199889304566549"><ele>497.33333333333337</ele><time>2026-04-18T16:23:30Z</time></trkpt><trkpt lat="45.32526626663935" lon="3.1998974431167584"><ele>502.0</ele><time>2026-04-18T16:23:31Z</time></trkpt><trkpt lat="45.3254333943367" lon="3.1998529842678605"><ele>498.6666666666667</ele><time>2026-04-18T16:23:32Z</time></trkpt><trkpt lat="45.32560647584526" lon="3.1997888856361403"><ele>495.33333333333337</ele><time>2026-04-18T16:23:33Z</time></trkpt><trkpt lat="45.3257755008372" lon="3.199773506770867"><ele>492.0</ele><time>2026-04-18T16:23:34Z</time></trkpt><trkpt lat="45.3259428302573" lon="3.1997930298535944"><ele>492.0</ele><time>2026-04-18T16:23:35Z</time></trkpt><trkpt lat="45.326121484471486" lon="3.1998133279516425"><ele>492.0</ele><time>2026-04-18T16:23:36Z</time></trkpt><trkpt lat="45.32629668317242" lon="3.199815504155956"><ele>492.0</ele><time>2026-04-18T16:23:37Z</time></trkpt><trkpt lat="45.326475421656504" lon="3.1998554663118486"><ele>493.66666666666663</ele><time>2026-04-18T16:23:38Z</time></trkpt><trkpt lat="45.32664064021915" lon="3.1999441885536393"><ele>495.3333333333333</ele><time>2026-04-18T16:23:39Z</time></trkpt><trkpt lat="45.326809248527" lon="3.2000351071736266"><ele>497.0</ele><time>2026-04-18T16:23:40Z</time></trkpt><trkpt lat="45.32696716200218" lon="3.200136581839838"><ele>497.0</ele><time>2026-04-18T16:23:41Z</time></trkpt><trkpt lat="45.32711569536473" lon="3.2002537797531616"><ele>497.0</ele><time>2026-04-18T16:23:42Z</time></trkpt><trkpt lat="45.3272712989099" lon="3.200365581098504"><ele>497.0</ele><time>2026-04-18T16:23:43Z</time></trkpt><trkpt lat="45.3274183763605" lon="3.2004926795890816"><ele>497.0</ele><time>2026-04-18T16:23:44Z</time></trkpt><trkpt lat="45.32756303908603" lon="3.200635612502108"><ele>497.0</ele><time>2026-04-18T16:23:45Z</time></trkpt><trkpt lat="45.32770074473336" lon="3.2007646309945534"><ele>497.0</ele><time>2026-04-18T16:23:46Z</time></trkpt><trkpt lat="45.32782689814157" lon="3.20088444451556"><ele>497.0</ele><time>2026-04-18T16:23:47Z</time></trkpt><trkpt lat="45.32794537434647" lon="3.2010033117732446"><ele>497.0</ele><time>2026-04-18T16:23:48Z</time></trkpt><trkpt lat="45.328050355571" lon="3.2011277428375515"><ele>497.0</ele><time>2026-04-18T16:23:49Z</time></trkpt><trkpt lat="45.3281550793637" lon="3.2012657100333377"><ele>497.0</ele><time>2026-04-18T16:23:50Z</time></trkpt><trkpt lat="45.328253764199026" lon="3.201412643488146"><ele>497.3333333333333</ele><time>2026-04-18T16:23:51Z</time></trkpt><trkpt lat="45.328357853179945" lon="3.2015780753920926"><ele>497.66666666666663</ele><time>2026-04-18T16:23:52Z</time></trkpt><trkpt lat="45.32845641927721" lon="3.201743062349708"><ele>498.0</ele><time>2026-04-18T16:23:53Z</time></trkpt><trkpt lat="45.32855813216056" lon="3.2019189070765526"><ele>498.0</ele><time>2026-04-18T16:23:54Z</time></trkpt><trkpt lat="45.32865109946366" lon="3.202098710691402"><ele>498.0</ele><time>2026-04-18T16:23:55Z</time></trkpt><trkpt lat="45.328748507713286" lon="3.202282217327077"><ele>498.0</ele><time>2026-04-18T16:23:56Z</time></trkpt><trkpt lat="45.328844896460836" lon="3.2024657976264908"><ele>495.33333333333337</ele><time>2026-04-18T16:23:57Z</time></trkpt><trkpt lat="45.32893835688764" lon="3.202646235347471"><ele>492.6666666666667</ele><time>2026-04-18T16:23:58Z</time></trkpt><trkpt lat="45.329026763080996" lon="3.202833874146199"><ele>490.0</ele><time>2026-04-18T16:23:59Z</time></trkpt><trkpt lat="45.329109861126206" lon="3.203033669047664"><ele>492.33333333333337</ele><time>2026-04-18T16:24:00Z</time></trkpt><trkpt lat="45.32917981587853" lon="3.2032420445774576"><ele>494.66666666666663</ele><time>2026-04-18T16:24:01Z</time></trkpt><trkpt lat="45.32923700697059" lon="3.203460023012078"><ele>497.0</ele><time>2026-04-18T16:24:02Z</time></trkpt><trkpt lat="45.329289078486205" lon="3.203679144464512"><ele>497.0</ele><time>2026-04-18T16:24:03Z</time></trkpt><trkpt lat="45.32933643546398" lon="3.20390460029666"><ele>497.0</ele><time>2026-04-18T16:24:04Z</time></trkpt><trkpt lat="45.32937737389747" lon="3.204124033693084"><ele>497.0</ele><time>2026-04-18T16:24:05Z</time></trkpt><trkpt lat="45.329422920938555" lon="3.204356199447147"><ele>500.3333333333333</ele><time>2026-04-18T16:24:06Z</time></trkpt><trkpt lat="45.329461000904224" lon="3.204575315954571"><ele>503.66666666666663</ele><time>2026-04-18T16:24:07Z</time></trkpt><trkpt lat="45.32950212719152" lon="3.2048048249644085"><ele>507.0</ele><time>2026-04-18T16:24:08Z</time></trkpt><trkpt lat="45.32954209892839" lon="3.205029963053838"><ele>511.0</ele><time>2026-04-18T16:24:09Z</time></trkpt><trkpt lat="45.32959650049398" lon="3.205263800254772"><ele>515.0</ele><time>2026-04-18T16:24:10Z</time></trkpt><trkpt lat="45.32964557910028" lon="3.20549014850493"><ele>519.0</ele><time>2026-04-18T16:24:11Z</time></trkpt><trkpt lat="45.32970358633513" lon="3.205721126892558"><ele>509.33333333333337</ele><time>2026-04-18T16:24:12Z</time></trkpt><trkpt lat="45.329759015332364" lon="3.205948420175081"><ele>499.6666666666667</ele><time>2026-04-18T16:24:13Z</time></trkpt><trkpt lat="45.329821647196326" lon="3.206170510309364"><ele>490.0</ele><time>2026-04-18T16:24:14Z</time></trkpt><trkpt lat="45.329890067323966" lon="3.206392643305732"><ele>493.33333333333337</ele><time>2026-04-18T16:24:15Z</time></trkpt><trkpt lat="45.32997109099942" lon="3.206614144421335"><ele>496.66666666666663</ele><time>2026-04-18T16:24:16Z</time></trkpt><trkpt lat="45.3300671874881" lon="3.2068221734210165"><ele>500.0</ele><time>2026-04-18T16:24:17Z</time></trkpt><trkpt lat="45.33018431089319" lon="3.207014941409329"><ele>500.0</ele><time>2026-04-18T16:24:18Z</time></trkpt><trkpt lat="45.33031359991407" lon="3.2071979011027114"><ele>500.0</ele><time>2026-04-18T16:24:19Z</time></trkpt><trkpt lat="45.33045832625179" lon="3.207391982686877"><ele>500.0</ele><time>2026-04-18T16:24:20Z</time></trkpt><trkpt lat="45.33058424558992" lon="3.20762336599464"><ele>496.66666666666663</ele><time>2026-04-18T16:24:21Z</time></trkpt><trkpt lat="45.33067110300469" lon="3.2077739377063765"><ele>493.33333333333337</ele><time>2026-04-18T16:24:22Z</time></trkpt><trkpt lat="45.33079487527047" lon="3.2079624919329586"><ele>490.0</ele><time>2026-04-18T16:24:23Z</time></trkpt><trkpt lat="45.330926010644674" lon="3.208137922879645"><ele>499.33333333333337</ele><time>2026-04-18T16:24:24Z</time></trkpt><trkpt lat="45.331070887782595" lon="3.2082969978797022"><ele>508.66666666666663</ele><time>2026-04-18T16:24:25Z</time></trkpt><trkpt lat="45.33122732868558" lon="3.2084449838389597"><ele>518.0</ele><time>2026-04-18T16:24:26Z</time></trkpt><trkpt lat="45.3313860389417" lon="3.2085904285995843"><ele>514.0</ele><time>2026-04-18T16:24:27Z</time></trkpt><trkpt lat="45.331538845981754" lon="3.2087385467066247"><ele>510.0</ele><time>2026-04-18T16:24:28Z</time></trkpt><trkpt lat="45.3316808252574" lon="3.2088969779072705"><ele>506.0</ele><time>2026-04-18T16:24:29Z</time></trkpt><trkpt lat="45.33181159438059" lon="3.2090614530431947"><ele>506.0</ele><time>2026-04-18T16:24:30Z</time></trkpt><trkpt lat="45.33193736662637" lon="3.2092130137082897"><ele>506.0</ele><time>2026-04-18T16:24:31Z</time></trkpt><trkpt lat="45.3320779666995" lon="3.2093322456682407"><ele>506.0</ele><time>2026-04-18T16:24:32Z</time></trkpt><trkpt lat="45.33223769742465" lon="3.209407065571924"><ele>499.3333333333333</ele><time>2026-04-18T16:24:33Z</time></trkpt><trkpt lat="45.332414197153575" lon="3.2094501940444013"><ele>492.66666666666663</ele><time>2026-04-18T16:24:34Z</time></trkpt><trkpt lat="45.33259359343274" lon="3.209482915785346"><ele>486.0</ele><time>2026-04-18T16:24:35Z</time></trkpt><trkpt lat="45.33276475092477" lon="3.2095787755166887"><ele>486.0</ele><time>2026-04-18T16:24:36Z</time></trkpt><trkpt lat="45.33293777942897" lon="3.2096491550700006"><ele>486.0</ele><time>2026-04-18T16:24:37Z</time></trkpt><trkpt lat="45.333106300180376" lon="3.209729422232851"><ele>486.0</ele><time>2026-04-18T16:24:38Z</time></trkpt><trkpt lat="45.333281936518304" lon="3.2097697116451025"><ele>484.66666666666663</ele><time>2026-04-18T16:24:39Z</time></trkpt><trkpt lat="45.33346435058149" lon="3.209763722452132"><ele>483.3333333333333</ele><time>2026-04-18T16:24:40Z</time></trkpt><trkpt lat="45.33365075624924" lon="3.209724365224481"><ele>482.0</ele><time>2026-04-18T16:24:41Z</time></trkpt><trkpt lat="45.333836730401124" lon="3.209664914699874"><ele>484.3333333333333</ele><time>2026-04-18T16:24:42Z</time></trkpt><trkpt lat="45.33401914798428" lon="3.209593229715659"><ele>486.66666666666663</ele><time>2026-04-18T16:24:43Z</time></trkpt><trkpt lat="45.334190279345464" lon="3.2095100642646894"><ele>489.0</ele><time>2026-04-18T16:24:44Z</time></trkpt><trkpt lat="45.33433926742774" lon="3.209414476340655"><ele>489.0</ele><time>2026-04-18T16:24:45Z</time></trkpt><trkpt lat="45.334461042585325" lon="3.209293583658226"><ele>489.0</ele><time>2026-04-18T16:24:46Z</time></trkpt><trkpt lat="45.33455008413583" lon="3.209123088639064"><ele>489.0</ele><time>2026-04-18T16:24:47Z</time></trkpt><trkpt lat="45.33459883361458" lon="3.2089208206883932"><ele>489.0</ele><time>2026-04-18T16:24:48Z</time></trkpt><trkpt lat="45.33460468059727" lon="3.2086848714551044"><ele>486.66666666666663</ele><time>2026-04-18T16:24:49Z</time></trkpt><trkpt lat="45.334598866322736" lon="3.2084422794932306"><ele>484.3333333333333</ele><time>2026-04-18T16:24:50Z</time></trkpt><trkpt lat="45.33464175192851" lon="3.208209827952002"><ele>482.0</ele><time>2026-04-18T16:24:51Z</time></trkpt><trkpt lat="45.33471243612405" lon="3.2079811554702298"><ele>481.3333333333333</ele><time>2026-04-18T16:24:52Z</time></trkpt><trkpt lat="45.33478779583366" lon="3.2077540531174344"><ele>480.66666666666663</ele><time>2026-04-18T16:24:53Z</time></trkpt><trkpt lat="45.334872751247595" lon="3.207528920876819"><ele>480.0</ele><time>2026-04-18T16:24:54Z</time></trkpt><trkpt lat="45.33497397395948" lon="3.207318939213814"><ele>480.0</ele><time>2026-04-18T16:24:55Z</time></trkpt><trkpt lat="45.33509060865216" lon="3.207132794629695"><ele>480.0</ele><time>2026-04-18T16:24:56Z</time></trkpt><trkpt lat="45.33521636985725" lon="3.206973049509213"><ele>480.0</ele><time>2026-04-18T16:24:57Z</time></trkpt><trkpt lat="45.33535518389507" lon="3.2068430899280522"><ele>480.0</ele><time>2026-04-18T16:24:58Z</time></trkpt><trkpt lat="45.33550488892054" lon="3.206710584736119"><ele>480.0</ele><time>2026-04-18T16:24:59Z</time></trkpt><trkpt lat="45.335639118028595" lon="3.2065773834174043"><ele>480.0</ele><time>2026-04-18T16:25:00Z</time></trkpt><trkpt lat="45.3357454213552" lon="3.2064075029505847"><ele>480.0</ele><time>2026-04-18T16:25:01Z</time></trkpt><trkpt lat="45.33585718792007" lon="3.206250892177395"><ele>480.0</ele><time>2026-04-18T16:25:02Z</time></trkpt><trkpt lat="45.33594058564719" lon="3.206076555254574"><ele>480.0</ele><time>2026-04-18T16:25:03Z</time></trkpt><trkpt lat="45.33603090433123" lon="3.2059046165802707"><ele>480.0</ele><time>2026-04-18T16:25:04Z</time></trkpt><trkpt lat="45.336125176094086" lon="3.2057709705819275"><ele>480.0</ele><time>2026-04-18T16:25:05Z</time></trkpt><trkpt lat="45.33624481039222" lon="3.2056653653017917"><ele>480.0</ele><time>2026-04-18T16:25:06Z</time></trkpt><trkpt lat="45.336377156353294" lon="3.2056147351822726"><ele>480.0</ele><time>2026-04-18T16:25:07Z</time></trkpt><trkpt lat="45.336520779840626" lon="3.2055977806993967"><ele>479.75</ele><time>2026-04-18T16:25:08Z</time></trkpt><trkpt lat="45.336670227258246" lon="3.2055923852700525"><ele>479.5</ele><time>2026-04-18T16:25:09Z</time></trkpt><trkpt lat="45.33681669869091" lon="3.2055718200803973"><ele>479.25</ele><time>2026-04-18T16:25:10Z</time></trkpt><trkpt lat="45.3369641685376" lon="3.205565154766004"><ele>479.0</ele><time>2026-04-18T16:25:11Z</time></trkpt><trkpt lat="45.33712031817131" lon="3.20556308964929"><ele>480.3333333333333</ele><time>2026-04-18T16:25:12Z</time></trkpt><trkpt lat="45.33727265490105" lon="3.205528431411777"><ele>481.66666666666663</ele><time>2026-04-18T16:25:13Z</time></trkpt><trkpt lat="45.33742108598558" lon="3.2054784133851095"><ele>483.0</ele><time>2026-04-18T16:25:14Z</time></trkpt><trkpt lat="45.33756748883247" lon="3.2054319479523343"><ele>483.0</ele><time>2026-04-18T16:25:15Z</time></trkpt><trkpt lat="45.33771916952955" lon="3.205398357763198"><ele>483.0</ele><time>2026-04-18T16:25:16Z</time></trkpt><trkpt lat="45.33786641282571" lon="3.2053918644154984"><ele>483.0</ele><time>2026-04-18T16:25:17Z</time></trkpt><trkpt lat="45.338015009980516" lon="3.205407914157416"><ele>482.33333333333337</ele><time>2026-04-18T16:25:18Z</time></trkpt><trkpt lat="45.33815994242496" lon="3.205450634947625"><ele>481.6666666666667</ele><time>2026-04-18T16:25:19Z</time></trkpt><trkpt lat="45.33831690960661" lon="3.2054807014794773"><ele>481.0</ele><time>2026-04-18T16:25:20Z</time></trkpt><trkpt lat="45.338471131086074" lon="3.2055419379670322"><ele>481.0</ele><time>2026-04-18T16:25:21Z</time></trkpt><trkpt lat="45.33863022332753" lon="3.205590997845794"><ele>481.0</ele><time>2026-04-18T16:25:22Z</time></trkpt><trkpt lat="45.33879347103339" lon="3.2056212835474653"><ele>481.0</ele><time>2026-04-18T16:25:23Z</time></trkpt><trkpt lat="45.33896264320194" lon="3.2056330616581294"><ele>480.33333333333337</ele><time>2026-04-18T16:25:24Z</time></trkpt><trkpt lat="45.33913178608186" lon="3.2056243705698497"><ele>479.66666666666663</ele><time>2026-04-18T16:25:25Z</time></trkpt><trkpt lat="45.339307253651626" lon="3.2056291316674805"><ele>479.0</ele><time>2026-04-18T16:25:26Z</time></trkpt><trkpt lat="45.33948817809767" lon="3.20561850537838"><ele>479.0</ele><time>2026-04-18T16:25:27Z</time></trkpt><trkpt lat="45.33966937039674" lon="3.205609193940721"><ele>479.0</ele><time>2026-04-18T16:25:28Z</time></trkpt><trkpt lat="45.33984980266208" lon="3.2056021906618533"><ele>479.0</ele><time>2026-04-18T16:25:29Z</time></trkpt><trkpt lat="45.3400380428869" lon="3.205573046469567"><ele>478.66666666666663</ele><time>2026-04-18T16:25:30Z</time></trkpt><trkpt lat="45.34022557401871" lon="3.205569481332409"><ele>478.33333333333337</ele><time>2026-04-18T16:25:31Z</time></trkpt><trkpt lat="45.340405842009176" lon="3.2055702386057465"><ele>478.0</ele><time>2026-04-18T16:25:32Z</time></trkpt><trkpt lat="45.34059989574648" lon="3.205574457120655"><ele>477.33333333333337</ele><time>2026-04-18T16:25:33Z</time></trkpt><trkpt lat="45.34078789120102" lon="3.20558409034074"><ele>476.66666666666663</ele><time>2026-04-18T16:25:34Z</time></trkpt><trkpt lat="45.34097823050954" lon="3.205594838144673"><ele>476.0</ele><time>2026-04-18T16:25:35Z</time></trkpt><trkpt lat="45.341170432196435" lon="3.205607597535546"><ele>476.0</ele><time>2026-04-18T16:25:36Z</time></trkpt><trkpt lat="45.34136724158226" lon="3.2056171110179834"><ele>476.0</ele><time>2026-04-18T16:25:37Z</time></trkpt><trkpt lat="45.34155832455331" lon="3.205627810060617"><ele>476.0</ele><time>2026-04-18T16:25:38Z</time></trkpt><trkpt lat="45.34175177148995" lon="3.2056603890239237"><ele>480.0</ele><time>2026-04-18T16:25:39Z</time></trkpt><trkpt lat="45.34193893097798" lon="3.205669927260277"><ele>484.0</ele><time>2026-04-18T16:25:40Z</time></trkpt><trkpt lat="45.342125046384275" lon="3.205676043003979"><ele>488.0</ele><time>2026-04-18T16:25:41Z</time></trkpt><trkpt lat="45.34231113677178" lon="3.2056792547095005"><ele>489.66666666666663</ele><time>2026-04-18T16:25:42Z</time></trkpt><trkpt lat="45.3424983937058" lon="3.205680257075404"><ele>491.33333333333337</ele><time>2026-04-18T16:25:43Z</time></trkpt><trkpt lat="45.342684333138415" lon="3.2056812523899136"><ele>493.0</ele><time>2026-04-18T16:25:44Z</time></trkpt><trkpt lat="45.342873141744874" lon="3.2056921382267958"><ele>490.6666666666667</ele><time>2026-04-18T16:25:45Z</time></trkpt><trkpt lat="45.343062082974264" lon="3.205696437395197"><ele>488.33333333333337</ele><time>2026-04-18T16:25:46Z</time></trkpt><trkpt lat="45.34323876300644" lon="3.2057700256376305"><ele>486.0</ele><time>2026-04-18T16:25:47Z</time></trkpt><trkpt lat="45.34341500717413" lon="3.2058421988398287"><ele>486.0</ele><time>2026-04-18T16:25:48Z</time></trkpt><trkpt lat="45.34359743296907" lon="3.205911472406423"><ele>486.0</ele><time>2026-04-18T16:25:49Z</time></trkpt><trkpt lat="45.34376537811439" lon="3.206021838667601"><ele>486.0</ele><time>2026-04-18T16:25:50Z</time></trkpt><trkpt lat="45.343937604589755" lon="3.2061244948097585"><ele>483.0</ele><time>2026-04-18T16:25:51Z</time></trkpt><trkpt lat="45.34411595958904" lon="3.2062223201073827"><ele>480.0</ele><time>2026-04-18T16:25:52Z</time></trkpt><trkpt lat="45.34429100268182" lon="3.2063279335060955"><ele>477.0</ele><time>2026-04-18T16:25:53Z</time></trkpt><trkpt lat="45.3444592270193" lon="3.2064386383764694"><ele>478.0</ele><time>2026-04-18T16:25:54Z</time></trkpt><trkpt lat="45.34464747670111" lon="3.206537054676723"><ele>479.0</ele><time>2026-04-18T16:25:55Z</time></trkpt><trkpt lat="45.34482243908765" lon="3.20664860913708"><ele>480.0</ele><time>2026-04-18T16:25:56Z</time></trkpt><trkpt lat="45.34499649185426" lon="3.206762922609388"><ele>480.0</ele><time>2026-04-18T16:25:57Z</time></trkpt><trkpt lat="45.34516638559407" lon="3.2068746275325135"><ele>480.0</ele><time>2026-04-18T16:25:58Z</time></trkpt><trkpt lat="45.34534721328537" lon="3.2069729387348205"><ele>480.0</ele><time>2026-04-18T16:25:59Z</time></trkpt><trkpt lat="45.34551767264881" lon="3.2070864633982934"><ele>480.0</ele><time>2026-04-18T16:26:00Z</time></trkpt><trkpt lat="45.34567286253606" lon="3.207224729396779"><ele>480.0</ele><time>2026-04-18T16:26:01Z</time></trkpt><trkpt lat="45.34581567612728" lon="3.2073868864127615"><ele>480.0</ele><time>2026-04-18T16:26:02Z</time></trkpt><trkpt lat="45.34595103784388" lon="3.2075669506812807"><ele>480.0</ele><time>2026-04-18T16:26:03Z</time></trkpt><trkpt lat="45.34607339559715" lon="3.2077641161381645"><ele>480.0</ele><time>2026-04-18T16:26:04Z</time></trkpt><trkpt lat="45.34618062674845" lon="3.207983327414954"><ele>480.0</ele><time>2026-04-18T16:26:05Z</time></trkpt><trkpt lat="45.34629094460426" lon="3.2082073691874737"><ele>477.33333333333337</ele><time>2026-04-18T16:26:06Z</time></trkpt><trkpt lat="45.34639630542359" lon="3.2084397830777616"><ele>474.6666666666667</ele><time>2026-04-18T16:26:07Z</time></trkpt><trkpt lat="45.34649984091287" lon="3.208670214429026"><ele>472.0</ele><time>2026-04-18T16:26:08Z</time></trkpt><trkpt lat="45.34661111534544" lon="3.2089002709812657"><ele>477.6666666666667</ele><time>2026-04-18T16:26:09Z</time></trkpt><trkpt lat="45.34673934109966" lon="3.209122772124551"><ele>483.33333333333337</ele><time>2026-04-18T16:26:10Z</time></trkpt><trkpt lat="45.3468779568736" lon="3.209308797320856"><ele>489.0</ele><time>2026-04-18T16:26:11Z</time></trkpt><trkpt lat="45.34702074985434" lon="3.209457087266749"><ele>489.0</ele><time>2026-04-18T16:26:12Z</time></trkpt><trkpt lat="45.34716129517939" lon="3.209590909774991"><ele>489.0</ele><time>2026-04-18T16:26:13Z</time></trkpt><trkpt lat="45.347293106846195" lon="3.209712839182327"><ele>489.0</ele><time>2026-04-18T16:26:14Z</time></trkpt><trkpt lat="45.3474055111493" lon="3.209851779705875"><ele>488.5</ele><time>2026-04-18T16:26:15Z</time></trkpt><trkpt lat="45.347520424542346" lon="3.209967517429544"><ele>488.0</ele><time>2026-04-18T16:26:16Z</time></trkpt><trkpt lat="45.34764928949773" lon="3.2100698947377126"><ele>487.5</ele><time>2026-04-18T16:26:17Z</time></trkpt><trkpt lat="45.34776901780111" lon="3.2101878178654966"><ele>487.0</ele><time>2026-04-18T16:26:18Z</time></trkpt><trkpt lat="45.347891604941225" lon="3.2102988741645597"><ele>487.0</ele><time>2026-04-18T16:26:19Z</time></trkpt><trkpt lat="45.348031086430865" lon="3.210387743722414"><ele>487.0</ele><time>2026-04-18T16:26:20Z</time></trkpt><trkpt lat="45.348181169686704" lon="3.2104161968506952"><ele>487.0</ele><time>2026-04-18T16:26:21Z</time></trkpt><trkpt lat="45.34833871143162" lon="3.2103969560815373"><ele>482.6666666666667</ele><time>2026-04-18T16:26:22Z</time></trkpt><trkpt lat="45.348493975976304" lon="3.2103290192949343"><ele>478.33333333333337</ele><time>2026-04-18T16:26:23Z</time></trkpt><trkpt lat="45.34865118162937" lon="3.210236693920311"><ele>474.0</ele><time>2026-04-18T16:26:24Z</time></trkpt><trkpt lat="45.34880942398372" lon="3.2101887159295766"><ele>475.0</ele><time>2026-04-18T16:26:25Z</time></trkpt><trkpt lat="45.34895761431685" lon="3.210161941527268"><ele>476.0</ele><time>2026-04-18T16:26:26Z</time></trkpt><trkpt lat="45.34914789906421" lon="3.2101429602387648"><ele>477.0</ele><time>2026-04-18T16:26:27Z</time></trkpt><trkpt lat="45.34932084349627" lon="3.210128677020825"><ele>477.0</ele><time>2026-04-18T16:26:28Z</time></trkpt><trkpt lat="45.34949573348456" lon="3.2101028883067255"><ele>477.0</ele><time>2026-04-18T16:26:29Z</time></trkpt><trkpt lat="45.34966907164225" lon="3.2101305191404412"><ele>477.0</ele><time>2026-04-18T16:26:30Z</time></trkpt><trkpt lat="45.3498345581162" lon="3.2101518770590496"><ele>476.33333333333337</ele><time>2026-04-18T16:26:31Z</time></trkpt><trkpt lat="45.35000014661639" lon="3.210197030264902"><ele>475.6666666666667</ele><time>2026-04-18T16:26:32Z</time></trkpt><trkpt lat="45.35015643422046" lon="3.2102825714345444"><ele>475.0</ele><time>2026-04-18T16:26:33Z</time></trkpt><trkpt lat="45.35028849572638" lon="3.2103918796031348"><ele>475.0</ele><time>2026-04-18T16:26:34Z</time></trkpt><trkpt lat="45.35039886362929" lon="3.210522156726253"><ele>475.0</ele><time>2026-04-18T16:26:35Z</time></trkpt><trkpt lat="45.35047578704001" lon="3.210682420682174"><ele>475.0</ele><time>2026-04-18T16:26:36Z</time></trkpt><trkpt lat="45.3505256720029" lon="3.2108522422859678"><ele>475.0</ele><time>2026-04-18T16:26:37Z</time></trkpt><trkpt lat="45.35054878662882" lon="3.21102736979296"><ele>475.25</ele><time>2026-04-18T16:26:38Z</time></trkpt><trkpt lat="45.350533619331976" lon="3.211221703636478"><ele>475.5</ele><time>2026-04-18T16:26:39Z</time></trkpt><trkpt lat="45.35049246994819" lon="3.211403584114215"><ele>475.75</ele><time>2026-04-18T16:26:40Z</time></trkpt><trkpt lat="45.350422350095265" lon="3.2115618691216334"><ele>476.0</ele><time>2026-04-18T16:26:41Z</time></trkpt><trkpt lat="45.350320535857186" lon="3.2117116615316403"><ele>476.0</ele><time>2026-04-18T16:26:42Z</time></trkpt><trkpt lat="45.35019010942822" lon="3.2118353775270623"><ele>476.0</ele><time>2026-04-18T16:26:43Z</time></trkpt><trkpt lat="45.35003300099703" lon="3.211940593554084"><ele>476.0</ele><time>2026-04-18T16:26:44Z</time></trkpt><trkpt lat="45.34984325018276" lon="3.211999300378042"><ele>478.3333333333333</ele><time>2026-04-18T16:26:45Z</time></trkpt><trkpt lat="45.349660763114485" lon="3.2120709694547007"><ele>480.66666666666663</ele><time>2026-04-18T16:26:46Z</time></trkpt><trkpt lat="45.349481950013086" lon="3.212120435813496"><ele>483.0</ele><time>2026-04-18T16:26:47Z</time></trkpt><trkpt lat="45.34932439324853" lon="3.2121944235647417"><ele>483.0</ele><time>2026-04-18T16:26:48Z</time></trkpt><trkpt lat="45.349179533213146" lon="3.2123053001090742"><ele>483.0</ele><time>2026-04-18T16:26:49Z</time></trkpt><trkpt lat="45.34904903186091" lon="3.2124556584167028"><ele>483.0</ele><time>2026-04-18T16:26:50Z</time></trkpt><trkpt lat="45.348937408423254" lon="3.212633812862885"><ele>483.0</ele><time>2026-04-18T16:26:51Z</time></trkpt><trkpt lat="45.34883715521685" lon="3.2128067992008713"><ele>483.0</ele><time>2026-04-18T16:26:52Z</time></trkpt><trkpt lat="45.34874455090309" lon="3.2129571317191523"><ele>483.0</ele><time>2026-04-18T16:26:53Z</time></trkpt><trkpt lat="45.34865164810655" lon="3.2131004673111097"><ele>483.0</ele><time>2026-04-18T16:26:54Z</time></trkpt><trkpt lat="45.34856311723677" lon="3.213231915642538"><ele>483.0</ele><time>2026-04-18T16:26:55Z</time></trkpt><trkpt lat="45.34848003038642" lon="3.213356258374113"><ele>482.99999999999994</ele><time>2026-04-18T16:26:56Z</time></trkpt><trkpt lat="45.34840023717502" lon="3.213471610616118"><ele>482.99999999999994</ele><time>2026-04-18T16:26:57Z</time></trkpt><trkpt lat="45.34832615402048" lon="3.2135799105794804"><ele>483.0</ele><time>2026-04-18T16:26:58Z</time></trkpt><trkpt lat="45.34825154098278" lon="3.21368401450956"><ele>483.0</ele><time>2026-04-18T16:26:59Z</time></trkpt><trkpt lat="45.348184354758345" lon="3.2137882427982793"><ele>483.0</ele><time>2026-04-18T16:27:00Z</time></trkpt><trkpt lat="45.34811527835912" lon="3.213890598527779"><ele>482.99999999999994</ele><time>2026-04-18T16:27:01Z</time></trkpt><trkpt lat="45.34805178802397" lon="3.213992528184714"><ele>482.99999999999994</ele><time>2026-04-18T16:27:02Z</time></trkpt><trkpt lat="45.347988628517044" lon="3.214084029211446"><ele>483.0</ele><time>2026-04-18T16:27:03Z</time></trkpt><trkpt lat="45.3479331396265" lon="3.2141880927292057"><ele>483.0</ele><time>2026-04-18T16:27:04Z</time></trkpt><trkpt lat="45.347878498637" lon="3.214288805564701"><ele>485.4</ele><time>2026-04-18T16:27:05Z</time></trkpt><trkpt lat="45.34783093073086" lon="3.2143951455979565"><ele>487.79999999999995</ele><time>2026-04-18T16:27:06Z</time></trkpt><trkpt lat="45.347791337709054" lon="3.214511674221981"><ele>490.2</ele><time>2026-04-18T16:27:07Z</time></trkpt><trkpt lat="45.34776238402197" lon="3.214631892045788"><ele>492.6</ele><time>2026-04-18T16:27:08Z</time></trkpt><trkpt lat="45.347742907761955" lon="3.214760578384039"><ele>495.0</ele><time>2026-04-18T16:27:09Z</time></trkpt><trkpt lat="45.347738084505195" lon="3.2148998396725617"><ele>495.0</ele><time>2026-04-18T16:27:10Z</time></trkpt><trkpt lat="45.3477545471238" lon="3.2150361360687425"><ele>495.0</ele><time>2026-04-18T16:27:11Z</time></trkpt><trkpt lat="45.347786791846445" lon="3.21517308987469"><ele>495.0</ele><time>2026-04-18T16:27:12Z</time></trkpt><trkpt lat="45.34783346208568" lon="3.2153016864150845"><ele>495.0</ele><time>2026-04-18T16:27:13Z</time></trkpt><trkpt lat="45.34788777522776" lon="3.2154428904719827"><ele>495.0</ele><time>2026-04-18T16:27:14Z</time></trkpt><trkpt lat="45.34794262691892" lon="3.2155855586330886"><ele>494.4</ele><time>2026-04-18T16:27:15Z</time></trkpt><trkpt lat="45.34799480964866" lon="3.2157323254164956"><ele>493.8</ele><time>2026-04-18T16:27:16Z</time></trkpt><trkpt lat="45.34803644120158" lon="3.2158768201658683"><ele>493.20000000000005</ele><time>2026-04-18T16:27:17Z</time></trkpt><trkpt lat="45.34806580692534" lon="3.2160227431732804"><ele>492.6</ele><time>2026-04-18T16:27:18Z</time></trkpt><trkpt lat="45.348075128952075" lon="3.2161674684917063"><ele>492.0</ele><time>2026-04-18T16:27:19Z</time></trkpt><trkpt lat="45.348073437008736" lon="3.216316328606007"><ele>487.40000000000003</ele><time>2026-04-18T16:27:20Z</time></trkpt><trkpt lat="45.34806134655305" lon="3.216461813947815"><ele>482.80000000000007</ele><time>2026-04-18T16:27:21Z</time></trkpt><trkpt lat="45.34805518728004" lon="3.2166154266903755"><ele>478.2</ele><time>2026-04-18T16:27:22Z</time></trkpt><trkpt lat="45.348061326331816" lon="3.216770869827132"><ele>473.6</ele><time>2026-04-18T16:27:23Z</time></trkpt><trkpt lat="45.34808620182636" lon="3.2169344018709376"><ele>469.0</ele><time>2026-04-18T16:27:24Z</time></trkpt><trkpt lat="45.34811964475385" lon="3.2171010462846343"><ele>469.0</ele><time>2026-04-18T16:27:25Z</time></trkpt><trkpt lat="45.34814775529326" lon="3.2172701907745913"><ele>469.0</ele><time>2026-04-18T16:27:26Z</time></trkpt><trkpt lat="45.3481688639193" lon="3.2174363895567004"><ele>469.0</ele><time>2026-04-18T16:27:27Z</time></trkpt><trkpt lat="45.34819715383253" lon="3.217606734378726"><ele>469.0</ele><time>2026-04-18T16:27:28Z</time></trkpt><trkpt lat="45.3482226348424" lon="3.217766670631079"><ele>470.25</ele><time>2026-04-18T16:27:29Z</time></trkpt><trkpt lat="45.34826913660393" lon="3.2179196828162695"><ele>471.5</ele><time>2026-04-18T16:27:30Z</time></trkpt><trkpt lat="45.34832554059119" lon="3.2180612283100145"><ele>472.75</ele><time>2026-04-18T16:27:31Z</time></trkpt><trkpt lat="45.348402110439245" lon="3.2181987353920367"><ele>474.0</ele><time>2026-04-18T16:27:32Z</time></trkpt><trkpt lat="45.34848783402" lon="3.2183319227215565"><ele>477.25</ele><time>2026-04-18T16:27:33Z</time></trkpt><trkpt lat="45.348575547211205" lon="3.218466081537725"><ele>480.5</ele><time>2026-04-18T16:27:34Z</time></trkpt><trkpt lat="45.34865918341697" lon="3.2186144146891937"><ele>483.75</ele><time>2026-04-18T16:27:35Z</time></trkpt><trkpt lat="45.348731853693934" lon="3.2187781884639346"><ele>487.0</ele><time>2026-04-18T16:27:36Z</time></trkpt><trkpt lat="45.34879638785682" lon="3.2189507579675585"><ele>482.5</ele><time>2026-04-18T16:27:37Z</time></trkpt><trkpt lat="45.3488582620858" lon="3.2191338625503354"><ele>478.0</ele><time>2026-04-18T16:27:38Z</time></trkpt><trkpt lat="45.34891386825822" lon="3.2193186946565637"><ele>473.5</ele><time>2026-04-18T16:27:39Z</time></trkpt><trkpt lat="45.34896656685672" lon="3.2194990994218946"><ele>469.0</ele><time>2026-04-18T16:27:40Z</time></trkpt><trkpt lat="45.34901798446739" lon="3.219691505562664"><ele>470.0</ele><time>2026-04-18T16:27:41Z</time></trkpt><trkpt lat="45.34907429547444" lon="3.2198850230811793"><ele>471.0</ele><time>2026-04-18T16:27:42Z</time></trkpt><trkpt lat="45.34913699552203" lon="3.2200799116065366"><ele>472.0</ele><time>2026-04-18T16:27:43Z</time></trkpt><trkpt lat="45.349201740592044" lon="3.2202890604473"><ele>472.0</ele><time>2026-04-18T16:27:44Z</time></trkpt><trkpt lat="45.34926073205999" lon="3.2205070204311617"><ele>472.0</ele><time>2026-04-18T16:27:45Z</time></trkpt><trkpt lat="45.34931725545466" lon="3.2207128698130396"><ele>472.0</ele><time>2026-04-18T16:27:46Z</time></trkpt><trkpt lat="45.34937064118533" lon="3.2208984258299855"><ele>473.0</ele><time>2026-04-18T16:27:47Z</time></trkpt><trkpt lat="45.349428658148476" lon="3.2210694364789783"><ele>474.0</ele><time>2026-04-18T16:27:48Z</time></trkpt><trkpt lat="45.3494936847995" lon="3.2212486299629695"><ele>475.0</ele><time>2026-04-18T16:27:49Z</time></trkpt><trkpt lat="45.3495705731717" lon="3.221430785914645"><ele>476.0</ele><time>2026-04-18T16:27:50Z</time></trkpt><trkpt lat="45.34965653182235" lon="3.2216068589346514"><ele>474.3333333333333</ele><time>2026-04-18T16:27:51Z</time></trkpt><trkpt lat="45.34976248523231" lon="3.221773073489356"><ele>472.66666666666663</ele><time>2026-04-18T16:27:52Z</time></trkpt><trkpt lat="45.349884488002886" lon="3.2219196978900686"><ele>471.0</ele><time>2026-04-18T16:27:53Z</time></trkpt><trkpt lat="45.3500129255466" lon="3.222049120375782"><ele>471.0</ele><time>2026-04-18T16:27:54Z</time></trkpt><trkpt lat="45.35015208923931" lon="3.2221528574390805"><ele>471.0</ele><time>2026-04-18T16:27:55Z</time></trkpt><trkpt lat="45.35030880089882" lon="3.2222297145932917"><ele>471.0</ele><time>2026-04-18T16:27:56Z</time></trkpt><trkpt lat="45.35046867239448" lon="3.2222740452358116"><ele>470.0</ele><time>2026-04-18T16:27:57Z</time></trkpt><trkpt lat="45.35063812365273" lon="3.2222925850701145"><ele>469.0</ele><time>2026-04-18T16:27:58Z</time></trkpt><trkpt lat="45.3508031466238" lon="3.2222707475477357"><ele>468.0</ele><time>2026-04-18T16:27:59Z</time></trkpt><trkpt lat="45.35097474486747" lon="3.222215483548033"><ele>468.0</ele><time>2026-04-18T16:28:00Z</time></trkpt><trkpt lat="45.351139412819414" lon="3.222123757326411"><ele>468.0</ele><time>2026-04-18T16:28:01Z</time></trkpt><trkpt lat="45.35128707847173" lon="3.222022009954348"><ele>468.0</ele><time>2026-04-18T16:28:02Z</time></trkpt><trkpt lat="45.351440057166286" lon="3.221914417375159"><ele>470.66666666666663</ele><time>2026-04-18T16:28:03Z</time></trkpt><trkpt lat="45.35158745346532" lon="3.221800733709791"><ele>473.3333333333333</ele><time>2026-04-18T16:28:04Z</time></trkpt><trkpt lat="45.35172436098213" lon="3.2216726799827513"><ele>476.0</ele><time>2026-04-18T16:28:05Z</time></trkpt><trkpt lat="45.35184845227238" lon="3.221525052987489"><ele>475.0</ele><time>2026-04-18T16:28:06Z</time></trkpt><trkpt lat="45.35196881072736" lon="3.221354118191322"><ele>474.0</ele><time>2026-04-18T16:28:07Z</time></trkpt><trkpt lat="45.352098354435064" lon="3.221222751994628"><ele>473.0</ele><time>2026-04-18T16:28:08Z</time></trkpt><trkpt lat="45.35222622746483" lon="3.2210999859087335"><ele>473.0</ele><time>2026-04-18T16:28:09Z</time></trkpt><trkpt lat="45.35235186860225" lon="3.2209845271457462"><ele>473.0</ele><time>2026-04-18T16:28:10Z</time></trkpt><trkpt lat="45.35248055466298" lon="3.2208744875009594"><ele>473.0</ele><time>2026-04-18T16:28:11Z</time></trkpt><trkpt lat="45.352613092960716" lon="3.2207739070698596"><ele>473.0</ele><time>2026-04-18T16:28:12Z</time></trkpt><trkpt lat="45.352744419476906" lon="3.2206862213528162"><ele>473.0</ele><time>2026-04-18T16:28:13Z</time></trkpt><trkpt lat="45.35287962253132" lon="3.2206119611188826"><ele>473.0</ele><time>2026-04-18T16:28:14Z</time></trkpt><trkpt lat="45.35302211302945" lon="3.2205474396761034"><ele>473.0</ele><time>2026-04-18T16:28:15Z</time></trkpt><trkpt lat="45.35317091001893" lon="3.220489464893274"><ele>469.66666666666663</ele><time>2026-04-18T16:28:16Z</time></trkpt><trkpt lat="45.35332238345668" lon="3.220432275148017"><ele>466.33333333333337</ele><time>2026-04-18T16:28:17Z</time></trkpt><trkpt lat="45.35347263418572" lon="3.220375547128538"><ele>463.0</ele><time>2026-04-18T16:28:18Z</time></trkpt><trkpt lat="45.353616401186436" lon="3.220321267047236"><ele>463.0</ele><time>2026-04-18T16:28:19Z</time></trkpt><trkpt lat="45.35374680536946" lon="3.220272032169028"><ele>463.0</ele><time>2026-04-18T16:28:20Z</time></trkpt><trkpt lat="45.35387227936395" lon="3.220224658725479"><ele>463.0</ele><time>2026-04-18T16:28:21Z</time></trkpt><trkpt lat="45.35400748340985" lon="3.2201737288747134"><ele>463.0</ele><time>2026-04-18T16:28:22Z</time></trkpt><trkpt lat="45.3541510363091" lon="3.2201196795408276"><ele>463.25</ele><time>2026-04-18T16:28:23Z</time></trkpt><trkpt lat="45.35427946927931" lon="3.220049698219274"><ele>463.5</ele><time>2026-04-18T16:28:24Z</time></trkpt><trkpt lat="45.354407058160284" lon="3.220007239331229"><ele>463.75</ele><time>2026-04-18T16:28:25Z</time></trkpt><trkpt lat="45.35452595702053" lon="3.220001909722266"><ele>464.0</ele><time>2026-04-18T16:28:26Z</time></trkpt><trkpt lat="45.35464678052897" lon="3.219990638335314"><ele>465.0</ele><time>2026-04-18T16:28:27Z</time></trkpt><trkpt lat="45.35476830599725" lon="3.219990206233409"><ele>466.0</ele><time>2026-04-18T16:28:28Z</time></trkpt><trkpt lat="45.35489290792265" lon="3.2199995835620405"><ele>467.0</ele><time>2026-04-18T16:28:29Z</time></trkpt><trkpt lat="45.355022563998304" lon="3.219995482293378"><ele>468.0</ele><time>2026-04-18T16:28:30Z</time></trkpt><trkpt lat="45.35513248939715" lon="3.220049164801416"><ele>468.0</ele><time>2026-04-18T16:28:31Z</time></trkpt><trkpt lat="45.35523986247064" lon="3.2200869451247165"><ele>467.99999999999994</ele><time>2026-04-18T16:28:32Z</time></trkpt><trkpt lat="45.35534408752465" lon="3.220111239096932"><ele>467.99999999999994</ele><time>2026-04-18T16:28:33Z</time></trkpt><trkpt lat="45.35543574439107" lon="3.220157914270264"><ele>468.0</ele><time>2026-04-18T16:28:34Z</time></trkpt><trkpt lat="45.35551512509863" lon="3.2202143203494713"><ele>468.0</ele><time>2026-04-18T16:28:35Z</time></trkpt><trkpt lat="45.35558594193387" lon="3.2202711595560456"><ele>468.0</ele><time>2026-04-18T16:28:36Z</time></trkpt><trkpt lat="45.35564080257565" lon="3.220324292345247"><ele>468.0</ele><time>2026-04-18T16:28:37Z</time></trkpt><trkpt lat="45.3556879865751" lon="3.220392589657467"><ele>468.0</ele><time>2026-04-18T16:28:39Z</time></trkpt><trkpt lat="45.35563979142013" lon="3.2203168954278283"><ele>468.0</ele><time>2026-04-18T16:28:44Z</time></trkpt><trkpt lat="45.355552174373436" lon="3.2202156802031525"><ele>468.0</ele><time>2026-04-18T16:28:45Z</time></trkpt><trkpt lat="45.355497603242966" lon="3.220119616569493"><ele>468.0</ele><time>2026-04-18T16:28:47Z</time></trkpt><trkpt lat="45.35552376543564" lon="3.219976981930455"><ele>467.5</ele><time>2026-04-18T16:28:49Z</time></trkpt><trkpt lat="45.355563379971386" lon="3.219883842867988"><ele>467.0</ele><time>2026-04-18T16:28:50Z</time></trkpt><trkpt lat="45.355594655672675" lon="3.2197725219471387"><ele>466.5</ele><time>2026-04-18T16:28:51Z</time></trkpt><trkpt lat="45.35562302923477" lon="3.219657467653751"><ele>466.0</ele><time>2026-04-18T16:28:52Z</time></trkpt><trkpt lat="45.3556361651471" lon="3.2195380052558518"><ele>465.5</ele><time>2026-04-18T16:28:53Z</time></trkpt><trkpt lat="45.35564050100721" lon="3.219419604175381"><ele>465.0</ele><time>2026-04-18T16:28:54Z</time></trkpt><trkpt lat="45.355637737061535" lon="3.2193083501350195"><ele>464.5</ele><time>2026-04-18T16:28:55Z</time></trkpt><trkpt lat="45.355637457244676" lon="3.219196472904605"><ele>464.0</ele><time>2026-04-18T16:28:56Z</time></trkpt><trkpt lat="45.35563745524071" lon="3.2190725926874437"><ele>463.5</ele><time>2026-04-18T16:28:57Z</time></trkpt><trkpt lat="45.35563412776902" lon="3.2189740971602525"><ele>463.0</ele><time>2026-04-18T16:28:58Z</time></trkpt><trkpt lat="45.35563279149436" lon="3.2188756330482753"><ele>462.5</ele><time>2026-04-18T16:28:59Z</time></trkpt><trkpt lat="45.355632694166914" lon="3.2187806276012734"><ele>462.0</ele><time>2026-04-18T16:29:00Z</time></trkpt><trkpt lat="45.35563832827652" lon="3.2186114118333498"><ele>466.6</ele><time>2026-04-18T16:29:02Z</time></trkpt><trkpt lat="45.35568395896871" lon="3.2184801865128247"><ele>471.20000000000005</ele><time>2026-04-18T16:29:04Z</time></trkpt><trkpt lat="45.355744319904105" lon="3.218448185718844"><ele>475.8</ele><time>2026-04-18T16:29:05Z</time></trkpt><trkpt lat="45.35583116197372" lon="3.218455761750852"><ele>480.4</ele><time>2026-04-18T16:29:06Z</time></trkpt><trkpt lat="45.355927517043575" lon="3.2184684253931826"><ele>485.0</ele><time>2026-04-18T16:29:07Z</time></trkpt><trkpt lat="45.356029420214405" lon="3.2184587708849257"><ele>485.0</ele><time>2026-04-18T16:29:08Z</time></trkpt><trkpt lat="45.35611305058452" lon="3.2184688360840306"><ele>485.0</ele><time>2026-04-18T16:29:09Z</time></trkpt><trkpt lat="45.35620938182464" lon="3.2184468442352827"><ele>485.0</ele><time>2026-04-18T16:29:10Z</time></trkpt><trkpt lat="45.356314253742404" lon="3.218420912774238"><ele>485.0</ele><time>2026-04-18T16:29:11Z</time></trkpt><trkpt lat="45.35642065581504" lon="3.2183766489657386"><ele>485.0</ele><time>2026-04-18T16:29:12Z</time></trkpt><trkpt lat="45.356525372626216" lon="3.2183193852906657"><ele>482.0</ele><time>2026-04-18T16:29:13Z</time></trkpt><trkpt lat="45.35663241722106" lon="3.2182463281689624"><ele>479.0</ele><time>2026-04-18T16:29:14Z</time></trkpt><trkpt lat="45.35674235575249" lon="3.2181578679064238"><ele>476.0</ele><time>2026-04-18T16:29:15Z</time></trkpt><trkpt lat="45.356849626131456" lon="3.2180551457188424"><ele>473.0</ele><time>2026-04-18T16:29:16Z</time></trkpt><trkpt lat="45.356954739080834" lon="3.217955377682625"><ele>475.5</ele><time>2026-04-18T16:29:17Z</time></trkpt><trkpt lat="45.35705994601454" lon="3.2178577031309503"><ele>478.0</ele><time>2026-04-18T16:29:18Z</time></trkpt><trkpt lat="45.357176566375045" lon="3.2177607011506897"><ele>480.5</ele><time>2026-04-18T16:29:19Z</time></trkpt><trkpt lat="45.3572876618133" lon="3.2176567257411706"><ele>483.0</ele><time>2026-04-18T16:29:20Z</time></trkpt><trkpt lat="45.35740134364261" lon="3.2175494382315506"><ele>483.0</ele><time>2026-04-18T16:29:21Z</time></trkpt><trkpt lat="45.35751199497608" lon="3.2174421387379653"><ele>483.0</ele><time>2026-04-18T16:29:22Z</time></trkpt><trkpt lat="45.35761548204189" lon="3.2173182358732895"><ele>483.0</ele><time>2026-04-18T16:29:22.999Z</time></trkpt><trkpt lat="45.357721009450906" lon="3.217177755056056"><ele>483.0</ele><time>2026-04-18T16:29:23.999Z</time></trkpt><trkpt lat="45.35781334292752" lon="3.2170398095732295"><ele>482.5</ele><time>2026-04-18T16:29:24.999Z</time></trkpt><trkpt lat="45.35791511600358" lon="3.2168985963505317"><ele>482.0</ele><time>2026-04-18T16:29:25.999Z</time></trkpt><trkpt lat="45.35800349910988" lon="3.2167648535564597"><ele>481.5</ele><time>2026-04-18T16:29:26.999Z</time></trkpt><trkpt lat="45.35807983527922" lon="3.216653584550947"><ele>481.0</ele><time>2026-04-18T16:29:27.999Z</time></trkpt><trkpt lat="45.358153639746874" lon="3.2165495173362117"><ele>485.0</ele><time>2026-04-18T16:29:28.999Z</time></trkpt><trkpt lat="45.35823190127035" lon="3.21644194006375"><ele>489.0</ele><time>2026-04-18T16:29:29.999Z</time></trkpt><trkpt lat="45.35830288868549" lon="3.216319373470176"><ele>493.0</ele><time>2026-04-18T16:29:30.999Z</time></trkpt><trkpt lat="45.35836254715342" lon="3.2161809843634686"><ele>497.0</ele><time>2026-04-18T16:29:31.999Z</time></trkpt><trkpt lat="45.35841154211609" lon="3.216032677960738"><ele>497.0</ele><time>2026-04-18T16:29:32.999Z</time></trkpt><trkpt lat="45.358460156848906" lon="3.215882002079635"><ele>497.00000000000006</ele><time>2026-04-18T16:29:33.999Z</time></trkpt><trkpt lat="45.35850681148682" lon="3.215733536246439"><ele>497.00000000000006</ele><time>2026-04-18T16:29:34.999Z</time></trkpt><trkpt lat="45.35855484780979" lon="3.2156022632456636"><ele>497.0</ele><time>2026-04-18T16:29:35.999Z</time></trkpt><trkpt lat="45.35861376785814" lon="3.215480805565215"><ele>497.0</ele><time>2026-04-18T16:29:36.999Z</time></trkpt><trkpt lat="45.358645653745995" lon="3.2153439397858254"><ele>499.75</ele><time>2026-04-18T16:29:37.999Z</time></trkpt><trkpt lat="45.35869146448407" lon="3.215208554348107"><ele>502.5</ele><time>2026-04-18T16:29:38.999Z</time></trkpt><trkpt lat="45.3587352976864" lon="3.2150603430801943"><ele>505.25</ele><time>2026-04-18T16:29:39.999Z</time></trkpt><trkpt lat="45.35879996787296" lon="3.214917728138468"><ele>508.0</ele><time>2026-04-18T16:29:40.999Z</time></trkpt><trkpt lat="45.3588677911727" lon="3.2147707239433525"><ele>501.25</ele><time>2026-04-18T16:29:41.999Z</time></trkpt><trkpt lat="45.358913902805895" lon="3.2146078632190984"><ele>494.5</ele><time>2026-04-18T16:29:42.999Z</time></trkpt><trkpt lat="45.35895034143893" lon="3.214429815461096"><ele>487.75</ele><time>2026-04-18T16:29:43.999Z</time></trkpt><trkpt lat="45.358985608329945" lon="3.214253828417581"><ele>481.0</ele><time>2026-04-18T16:29:44.999Z</time></trkpt><trkpt lat="45.35902732148672" lon="3.2140898791167487"><ele>482.4</ele><time>2026-04-18T16:29:45.999Z</time></trkpt><trkpt lat="45.359057920537886" lon="3.2139515556138964"><ele>483.8</ele><time>2026-04-18T16:29:46.999Z</time></trkpt><trkpt lat="45.35907056822317" lon="3.2138072981965227"><ele>485.19999999999993</ele><time>2026-04-18T16:29:48Z</time></trkpt><trkpt lat="45.35905615105407" lon="3.213657035520731"><ele>486.59999999999997</ele><time>2026-04-18T16:29:49Z</time></trkpt><trkpt lat="45.35901721274874" lon="3.2134948571548394"><ele>488.0</ele><time>2026-04-18T16:29:50Z</time></trkpt><trkpt lat="45.35897064194124" lon="3.2133150263944694"><ele>487.75</ele><time>2026-04-18T16:29:51Z</time></trkpt><trkpt lat="45.35895287683041" lon="3.2131463716250352"><ele>487.5</ele><time>2026-04-18T16:29:52Z</time></trkpt><trkpt lat="45.35897270961573" lon="3.2129874292647553"><ele>487.25</ele><time>2026-04-18T16:29:53Z</time></trkpt><trkpt lat="45.35900633637132" lon="3.2128251028900094"><ele>487.0</ele><time>2026-04-18T16:29:54Z</time></trkpt><trkpt lat="45.35900413690067" lon="3.212663197385547"><ele>487.0</ele><time>2026-04-18T16:29:55Z</time></trkpt><trkpt lat="45.35895512743875" lon="3.2125175663678323"><ele>487.0</ele><time>2026-04-18T16:29:56Z</time></trkpt><trkpt lat="45.35886848875044" lon="3.2124010744684024"><ele>487.0</ele><time>2026-04-18T16:29:57Z</time></trkpt><trkpt lat="45.35875038028957" lon="3.2123245517712378"><ele>487.0</ele><time>2026-04-18T16:29:58Z</time></trkpt><trkpt lat="45.35861878736908" lon="3.2122872407508947"><ele>486.75</ele><time>2026-04-18T16:29:59Z</time></trkpt><trkpt lat="45.35849485202851" lon="3.2122598766759523"><ele>486.5</ele><time>2026-04-18T16:30:00Z</time></trkpt><trkpt lat="45.35838843480971" lon="3.2121896462563853"><ele>486.25</ele><time>2026-04-18T16:30:01Z</time></trkpt><trkpt lat="45.35830911837472" lon="3.212074162355837"><ele>486.0</ele><time>2026-04-18T16:30:02Z</time></trkpt><trkpt lat="45.35823331735077" lon="3.2119338183122608"><ele>486.0</ele><time>2026-04-18T16:30:03Z</time></trkpt><trkpt lat="45.358153320357445" lon="3.2118245554947307"><ele>486.0</ele><time>2026-04-18T16:30:04Z</time></trkpt><trkpt lat="45.358059853271115" lon="3.211752245285722"><ele>486.0</ele><time>2026-04-18T16:30:05Z</time></trkpt><trkpt lat="45.357962915490084" lon="3.2117005758407675"><ele>486.0</ele><time>2026-04-18T16:30:06Z</time></trkpt><trkpt lat="45.35786784546248" lon="3.211652371490471"><ele>486.0</ele><time>2026-04-18T16:30:07Z</time></trkpt><trkpt lat="45.35780069213013" lon="3.2115838858225936"><ele>490.0</ele><time>2026-04-18T16:30:08Z</time></trkpt><trkpt lat="45.35776642081889" lon="3.211469790934836"><ele>494.0</ele><time>2026-04-18T16:30:09Z</time></trkpt><trkpt lat="45.35775937597293" lon="3.2113376928697"><ele>498.0</ele><time>2026-04-18T16:30:10Z</time></trkpt><trkpt lat="45.35778709130254" lon="3.2112008279411652"><ele>502.0</ele><time>2026-04-18T16:30:11Z</time></trkpt><trkpt lat="45.357827386830564" lon="3.2110560251228137"><ele>506.0</ele><time>2026-04-18T16:30:12Z</time></trkpt><trkpt lat="45.357864617100745" lon="3.2108874017785434"><ele>506.0</ele><time>2026-04-18T16:30:13Z</time></trkpt><trkpt lat="45.357904927276" lon="3.2106972553342343"><ele>506.0</ele><time>2026-04-18T16:30:14Z</time></trkpt><trkpt lat="45.35792537159613" lon="3.2104771275556523"><ele>506.0</ele><time>2026-04-18T16:30:15Z</time></trkpt><trkpt lat="45.35794360009792" lon="3.2102734194733924"><ele>506.0</ele><time>2026-04-18T16:30:16Z</time></trkpt><trkpt lat="45.35794897082939" lon="3.210080406004636"><ele>505.0</ele><time>2026-04-18T16:30:17Z</time></trkpt><trkpt lat="45.3579414964939" lon="3.209905377853304"><ele>504.0</ele><time>2026-04-18T16:30:18Z</time></trkpt><trkpt lat="45.35790645682689" lon="3.209740944042272"><ele>503.0</ele><time>2026-04-18T16:30:19Z</time></trkpt><trkpt lat="45.357852957851264" lon="3.2095872727441277"><ele>502.0</ele><time>2026-04-18T16:30:20Z</time></trkpt><trkpt lat="45.35779383191489" lon="3.2094295373904385"><ele>498.6666666666667</ele><time>2026-04-18T16:30:21Z</time></trkpt><trkpt lat="45.357723660321284" lon="3.2092653537004634"><ele>495.33333333333337</ele><time>2026-04-18T16:30:22Z</time></trkpt><trkpt lat="45.357631916714176" lon="3.2091072631550954"><ele>492.0</ele><time>2026-04-18T16:30:23Z</time></trkpt><trkpt lat="45.35751609805662" lon="3.2089276167273257"><ele>487.66666666666663</ele><time>2026-04-18T16:30:24Z</time></trkpt><trkpt lat="45.35740085380735" lon="3.20873469729562"><ele>483.3333333333333</ele><time>2026-04-18T16:30:25Z</time></trkpt><trkpt lat="45.357306414924096" lon="3.208550970084482"><ele>479.0</ele><time>2026-04-18T16:30:26Z</time></trkpt><trkpt lat="45.35723415223045" lon="3.208385098238826"><ele>478.79999999999995</ele><time>2026-04-18T16:30:27Z</time></trkpt><trkpt lat="45.35718735829251" lon="3.2082216779555504"><ele>478.59999999999997</ele><time>2026-04-18T16:30:28Z</time></trkpt><trkpt lat="45.357174416818665" lon="3.208070663343946"><ele>478.4</ele><time>2026-04-18T16:30:29Z</time></trkpt><trkpt lat="45.357195721728836" lon="3.207936461657202"><ele>478.2</ele><time>2026-04-18T16:30:30Z</time></trkpt><trkpt lat="45.35725021839159" lon="3.2078261428364314"><ele>478.0</ele><time>2026-04-18T16:30:31Z</time></trkpt><trkpt lat="45.35732768705602" lon="3.207744248594631"><ele>478.0</ele><time>2026-04-18T16:30:32Z</time></trkpt><trkpt lat="45.35741309958569" lon="3.20767189368466"><ele>477.99999999999994</ele><time>2026-04-18T16:30:33Z</time></trkpt><trkpt lat="45.35749901781982" lon="3.2075975663544356"><ele>477.99999999999994</ele><time>2026-04-18T16:30:34Z</time></trkpt><trkpt lat="45.35758309082337" lon="3.2075300217055114"><ele>478.0</ele><time>2026-04-18T16:30:35Z</time></trkpt><trkpt lat="45.35765912884856" lon="3.207467535905282"><ele>478.0</ele><time>2026-04-18T16:30:36Z</time></trkpt><trkpt lat="45.35772609339925" lon="3.207396651578962"><ele>478.00000000000006</ele><time>2026-04-18T16:30:37Z</time></trkpt><trkpt lat="45.35776212214638" lon="3.207311971726478"><ele>478.0</ele><time>2026-04-18T16:30:38Z</time></trkpt><trkpt lat="45.35775969493568" lon="3.2072217211558813"><ele>478.0</ele><time>2026-04-18T16:30:39Z</time></trkpt><trkpt lat="45.35770032155158" lon="3.207058195447926"><ele>478.0</ele><time>2026-04-18T16:30:41Z</time></trkpt><trkpt lat="45.35767187273238" lon="3.206965749853096"><ele>478.00000000000006</ele><time>2026-04-18T16:30:42Z</time></trkpt><trkpt lat="45.35765524055556" lon="3.2068546993643983"><ele>478.0</ele><time>2026-04-18T16:30:43Z</time></trkpt><trkpt lat="45.35765626489693" lon="3.2067267620556867"><ele>478.0</ele><time>2026-04-18T16:30:44Z</time></trkpt><trkpt lat="45.35768461122809" lon="3.2066071217241707"><ele>477.99999999999994</ele><time>2026-04-18T16:30:45Z</time></trkpt><trkpt lat="45.357739366796054" lon="3.2065090768395037"><ele>477.99999999999994</ele><time>2026-04-18T16:30:46Z</time></trkpt><trkpt lat="45.357816037170736" lon="3.206416567129203"><ele>478.0</ele><time>2026-04-18T16:30:47Z</time></trkpt><trkpt lat="45.357892435230795" lon="3.2063333915526435"><ele>478.0</ele><time>2026-04-18T16:30:48Z</time></trkpt><trkpt lat="45.357975777584876" lon="3.206243886473687"><ele>482.2</ele><time>2026-04-18T16:30:49Z</time></trkpt><trkpt lat="45.35803991549107" lon="3.206135781426887"><ele>486.4</ele><time>2026-04-18T16:30:50Z</time></trkpt><trkpt lat="45.35808340781995" lon="3.205995401482074"><ele>490.59999999999997</ele><time>2026-04-18T16:30:51Z</time></trkpt><trkpt lat="45.35810500798805" lon="3.2058527209952574"><ele>494.79999999999995</ele><time>2026-04-18T16:30:52Z</time></trkpt><trkpt lat="45.358114394474434" lon="3.205707005446496"><ele>499.0</ele><time>2026-04-18T16:30:53Z</time></trkpt><trkpt lat="45.35811083705774" lon="3.205558753496919"><ele>499.4</ele><time>2026-04-18T16:30:54Z</time></trkpt><trkpt lat="45.358101053172845" lon="3.205434000916525"><ele>499.79999999999995</ele><time>2026-04-18T16:30:55Z</time></trkpt><trkpt lat="45.35809055965391" lon="3.205308614909175"><ele>500.20000000000005</ele><time>2026-04-18T16:30:56Z</time></trkpt><trkpt lat="45.35807336261676" lon="3.2051820873519477"><ele>500.6</ele><time>2026-04-18T16:30:57Z</time></trkpt><trkpt lat="45.358045394859644" lon="3.205049303139238"><ele>501.0</ele><time>2026-04-18T16:30:58Z</time></trkpt><trkpt lat="45.358004828058604" lon="3.204931286777464"><ele>499.6</ele><time>2026-04-18T16:30:59Z</time></trkpt><trkpt lat="45.3579535154748" lon="3.2048219393916724"><ele>498.20000000000005</ele><time>2026-04-18T16:31:00Z</time></trkpt><trkpt lat="45.35789348702489" lon="3.2047240419461436"><ele>496.79999999999995</ele><time>2026-04-18T16:31:01Z</time></trkpt><trkpt lat="45.35782749904904" lon="3.2046362740422074"><ele>495.4</ele><time>2026-04-18T16:31:02Z</time></trkpt><trkpt lat="45.35777048107379" lon="3.2045408152100756"><ele>494.0</ele><time>2026-04-18T16:31:03Z</time></trkpt><trkpt lat="45.35773957485606" lon="3.2044204952845687"><ele>494.0</ele><time>2026-04-18T16:31:04Z</time></trkpt><trkpt lat="45.357750406422355" lon="3.204290211300249"><ele>494.0</ele><time>2026-04-18T16:31:05Z</time></trkpt><trkpt lat="45.357776174459566" lon="3.2041637394271776"><ele>494.0</ele><time>2026-04-18T16:31:06Z</time></trkpt><trkpt lat="45.35781039916228" lon="3.204045760666521"><ele>494.0</ele><time>2026-04-18T16:31:07Z</time></trkpt><trkpt lat="45.35784344403699" lon="3.2039213170498075"><ele>494.0</ele><time>2026-04-18T16:31:08Z</time></trkpt><trkpt lat="45.357875910310675" lon="3.203797159833786"><ele>495.2</ele><time>2026-04-18T16:31:09Z</time></trkpt><trkpt lat="45.35791785342769" lon="3.2036743471268894"><ele>496.4</ele><time>2026-04-18T16:31:10Z</time></trkpt><trkpt lat="45.35796985240591" lon="3.203563818706569"><ele>497.6</ele><time>2026-04-18T16:31:11Z</time></trkpt><trkpt lat="45.358025475985585" lon="3.2034595892387117"><ele>498.8</ele><time>2026-04-18T16:31:12Z</time></trkpt><trkpt lat="45.35806433267664" lon="3.2033430483780165"><ele>500.0</ele><time>2026-04-18T16:31:13Z</time></trkpt><trkpt lat="45.35808639852065" lon="3.2032122217437995"><ele>502.6</ele><time>2026-04-18T16:31:14Z</time></trkpt><trkpt lat="45.35809611007268" lon="3.2030783405255403"><ele>505.2</ele><time>2026-04-18T16:31:15Z</time></trkpt><trkpt lat="45.35809684664037" lon="3.2029455512236065"><ele>507.79999999999995</ele><time>2026-04-18T16:31:16Z</time></trkpt><trkpt lat="45.35809877680023" lon="3.202810308117817"><ele>510.4</ele><time>2026-04-18T16:31:17Z</time></trkpt><trkpt lat="45.35810476291515" lon="3.2026764928457476"><ele>513.0</ele><time>2026-04-18T16:31:18Z</time></trkpt><trkpt lat="45.35811893854922" lon="3.2025397033196743"><ele>513.0</ele><time>2026-04-18T16:31:19Z</time></trkpt><trkpt lat="45.3581482720505" lon="3.2024079442056124"><ele>513.0</ele><time>2026-04-18T16:31:20Z</time></trkpt><trkpt lat="45.35819068382493" lon="3.2022854130682035"><ele>513.0</ele><time>2026-04-18T16:31:21Z</time></trkpt><trkpt lat="45.358245540212806" lon="3.2021695037927254"><ele>513.0</ele><time>2026-04-18T16:31:22Z</time></trkpt><trkpt lat="45.35830220238748" lon="3.2020548173740218"><ele>513.0</ele><time>2026-04-18T16:31:23Z</time></trkpt><trkpt lat="45.358363331486736" lon="3.2019328708102757"><ele>512.8</ele><time>2026-04-18T16:31:24Z</time></trkpt><trkpt lat="45.35841664005765" lon="3.201815537018742"><ele>512.5999999999999</ele><time>2026-04-18T16:31:25Z</time></trkpt><trkpt lat="45.35847154440903" lon="3.201680001405632"><ele>512.4000000000001</ele><time>2026-04-18T16:31:26Z</time></trkpt><trkpt lat="45.35852089118015" lon="3.201538855065467"><ele>512.2</ele><time>2026-04-18T16:31:27Z</time></trkpt><trkpt lat="45.358551637526894" lon="3.2013877556789527"><ele>512.0</ele><time>2026-04-18T16:31:28Z</time></trkpt><trkpt lat="45.35856524745161" lon="3.2012328797457137"><ele>512.0</ele><time>2026-04-18T16:31:28.999Z</time></trkpt><trkpt lat="45.35857881443464" lon="3.201069202488419"><ele>512.0</ele><time>2026-04-18T16:31:29.999Z</time></trkpt><trkpt lat="45.35859789704089" lon="3.2009024145606677"><ele>512.0</ele><time>2026-04-18T16:31:30.999Z</time></trkpt><trkpt lat="45.35862149327795" lon="3.2007409035568317"><ele>512.0</ele><time>2026-04-18T16:31:31.999Z</time></trkpt><trkpt lat="45.358671570833565" lon="3.2005932296032986"><ele>513.5</ele><time>2026-04-18T16:31:32.999Z</time></trkpt><trkpt lat="45.35870928245643" lon="3.2004448340840477"><ele>515.0</ele><time>2026-04-18T16:31:33.999Z</time></trkpt><trkpt lat="45.35880384575062" lon="3.200340528070899"><ele>516.5</ele><time>2026-04-18T16:31:34.999Z</time></trkpt><trkpt lat="45.35890243782221" lon="3.200247302964818"><ele>518.0</ele><time>2026-04-18T16:31:35.999Z</time></trkpt><trkpt lat="45.35900718263469" lon="3.2001457079162123"><ele>518.0</ele><time>2026-04-18T16:31:36.999Z</time></trkpt><trkpt lat="45.35911254353734" lon="3.200040180093324"><ele>518.0</ele><time>2026-04-18T16:31:37.999Z</time></trkpt><trkpt lat="45.359217619681594" lon="3.199938558736918"><ele>518.0</ele><time>2026-04-18T16:31:38.999Z</time></trkpt><trkpt lat="45.359328995451435" lon="3.199847605837946"><ele>518.0</ele><time>2026-04-18T16:31:39.999Z</time></trkpt><trkpt lat="45.359445641997524" lon="3.1997858241814003"><ele>518.25</ele><time>2026-04-18T16:31:40.999Z</time></trkpt><trkpt lat="45.35957131299067" lon="3.1997550598403888"><ele>518.5</ele><time>2026-04-18T16:31:41.999Z</time></trkpt><trkpt lat="45.35970685874443" lon="3.1997263533360396"><ele>518.75</ele><time>2026-04-18T16:31:42.999Z</time></trkpt><trkpt lat="45.359839209167895" lon="3.1996899976121673"><ele>519.0</ele><time>2026-04-18T16:31:43.999Z</time></trkpt><trkpt lat="45.35996350541807" lon="3.1996072770339388"><ele>518.25</ele><time>2026-04-18T16:31:44.999Z</time></trkpt><trkpt lat="45.36008715109674" lon="3.1995156453314153"><ele>517.5</ele><time>2026-04-18T16:31:45.999Z</time></trkpt><trkpt lat="45.36020168906229" lon="3.1994126708607795"><ele>516.75</ele><time>2026-04-18T16:31:46.999Z</time></trkpt><trkpt lat="45.36032377663822" lon="3.1993573389924115"><ele>516.0</ele><time>2026-04-18T16:31:47.999Z</time></trkpt><trkpt lat="45.36044893499487" lon="3.199299724954542"><ele>518.5</ele><time>2026-04-18T16:31:48.999Z</time></trkpt><trkpt lat="45.36057781422083" lon="3.1992622504866848"><ele>521.0</ele><time>2026-04-18T16:31:49.999Z</time></trkpt><trkpt lat="45.36070858562136" lon="3.1992168538475636"><ele>523.5</ele><time>2026-04-18T16:31:50.999Z</time></trkpt><trkpt lat="45.360841100808635" lon="3.199159724957994"><ele>526.0</ele><time>2026-04-18T16:31:51.999Z</time></trkpt><trkpt lat="45.36097510751058" lon="3.1990876233407906"><ele>526.25</ele><time>2026-04-18T16:31:52.999Z</time></trkpt><trkpt lat="45.36109737681661" lon="3.1989708904436553"><ele>526.5</ele><time>2026-04-18T16:31:53.999Z</time></trkpt><trkpt lat="45.36121434946649" lon="3.1988655178914662"><ele>526.75</ele><time>2026-04-18T16:31:54.999Z</time></trkpt><trkpt lat="45.361336290848726" lon="3.198782693083089"><ele>527.0</ele><time>2026-04-18T16:31:55.999Z</time></trkpt><trkpt lat="45.361458316320245" lon="3.1986853486212277"><ele>527.0</ele><time>2026-04-18T16:31:56.999Z</time></trkpt><trkpt lat="45.36157919700055" lon="3.198618083061658"><ele>527.0</ele><time>2026-04-18T16:31:57.999Z</time></trkpt><trkpt lat="45.36170620900344" lon="3.198560801080081"><ele>527.0</ele><time>2026-04-18T16:31:58.999Z</time></trkpt><trkpt lat="45.361812063409424" lon="3.1984873634890336"><ele>527.0</ele><time>2026-04-18T16:31:59.999Z</time></trkpt><trkpt lat="45.3618907911635" lon="3.198360252871687"><ele>527.0</ele><time>2026-04-18T16:32:00.999Z</time></trkpt><trkpt lat="45.36195021444597" lon="3.1982078915167125"><ele>527.0</ele><time>2026-04-18T16:32:01.999Z</time></trkpt><trkpt lat="45.36198232090722" lon="3.198030716471653"><ele>527.0</ele><time>2026-04-18T16:32:02.999Z</time></trkpt><trkpt lat="45.36201255718265" lon="3.1978418880616726"><ele>527.0</ele><time>2026-04-18T16:32:03.999Z</time></trkpt><trkpt lat="45.3620819764351" lon="3.1976797857773454"><ele>528.75</ele><time>2026-04-18T16:32:04.999Z</time></trkpt><trkpt lat="45.36216724505715" lon="3.1975297700697207"><ele>530.5</ele><time>2026-04-18T16:32:05.999Z</time></trkpt><trkpt lat="45.36226345248118" lon="3.1973601373274922"><ele>532.25</ele><time>2026-04-18T16:32:06.999Z</time></trkpt><trkpt lat="45.3623543652369" lon="3.1972000592852905"><ele>534.0</ele><time>2026-04-18T16:32:07.999Z</time></trkpt><trkpt lat="45.36244596473292" lon="3.1970387711526715"><ele>535.0</ele><time>2026-04-18T16:32:08.999Z</time></trkpt><trkpt lat="45.36253249831879" lon="3.1968842221799947"><ele>536.0</ele><time>2026-04-18T16:32:09.999Z</time></trkpt><trkpt lat="45.36261654966831" lon="3.196734685654501"><ele>537.0</ele><time>2026-04-18T16:32:10.999Z</time></trkpt><trkpt lat="45.36270470163737" lon="3.1965826367841412"><ele>538.0</ele><time>2026-04-18T16:32:11.999Z</time></trkpt><trkpt lat="45.36279947727045" lon="3.1964191629562273"><ele>540.3333333333334</ele><time>2026-04-18T16:32:12.999Z</time></trkpt><trkpt lat="45.3628888677648" lon="3.196257925027054"><ele>542.6666666666666</ele><time>2026-04-18T16:32:13.999Z</time></trkpt><trkpt lat="45.36297652380344" lon="3.1960864236980537"><ele>545.0</ele><time>2026-04-18T16:32:15Z</time></trkpt><trkpt lat="45.36304492398147" lon="3.19588644555461"><ele>545.75</ele><time>2026-04-18T16:32:16Z</time></trkpt><trkpt lat="45.36311828724127" lon="3.195701863581402"><ele>546.5</ele><time>2026-04-18T16:32:17Z</time></trkpt><trkpt lat="45.363167573181514" lon="3.1955242749098196"><ele>547.25</ele><time>2026-04-18T16:32:18Z</time></trkpt><trkpt lat="45.36319534862147" lon="3.1953624769460176"><ele>548.0</ele><time>2026-04-18T16:32:19Z</time></trkpt><trkpt lat="45.36320761709249" lon="3.195193072166339"><ele>548.0</ele><time>2026-04-18T16:32:20Z</time></trkpt><trkpt lat="45.36322345261032" lon="3.1950343055459296"><ele>548.0</ele><time>2026-04-18T16:32:21Z</time></trkpt><trkpt lat="45.36327999021243" lon="3.194907103540016"><ele>548.0</ele><time>2026-04-18T16:32:22Z</time></trkpt><trkpt lat="45.36330211476848" lon="3.1947883140165834"><ele>548.0</ele><time>2026-04-18T16:32:23Z</time></trkpt><trkpt lat="45.363301123319445" lon="3.194663428551821"><ele>548.0</ele><time>2026-04-18T16:32:24Z</time></trkpt><trkpt lat="45.36321154318593" lon="3.194558147728836"><ele>550.0</ele><time>2026-04-18T16:32:25Z</time></trkpt><trkpt lat="45.36313428533038" lon="3.194475510157459"><ele>552.0</ele><time>2026-04-18T16:32:26Z</time></trkpt><trkpt lat="45.363067434836296" lon="3.1943957475322464"><ele>554.0</ele><time>2026-04-18T16:32:27Z</time></trkpt><trkpt lat="45.36303537771418" lon="3.194286158485817"><ele>556.0</ele><time>2026-04-18T16:32:28Z</time></trkpt><trkpt lat="45.3630569331331" lon="3.1941575819909773"><ele>558.0</ele><time>2026-04-18T16:32:29Z</time></trkpt><trkpt lat="45.36306932736464" lon="3.1940239936135364"><ele>559.1999999999999</ele><time>2026-04-18T16:32:30Z</time></trkpt><trkpt lat="45.363099080678246" lon="3.1939053938165394"><ele>560.4</ele><time>2026-04-18T16:32:31Z</time></trkpt><trkpt lat="45.36312535329314" lon="3.1937484560627545"><ele>561.5999999999999</ele><time>2026-04-18T16:32:32Z</time></trkpt><trkpt lat="45.36316467952732" lon="3.1936061414034054"><ele>562.8</ele><time>2026-04-18T16:32:33Z</time></trkpt><trkpt lat="45.36318943216074" lon="3.193457211158522"><ele>564.0</ele><time>2026-04-18T16:32:34Z</time></trkpt><trkpt lat="45.36319653748146" lon="3.193300834124257"><ele>564.25</ele><time>2026-04-18T16:32:35Z</time></trkpt><trkpt lat="45.363194981212466" lon="3.193130930782971"><ele>564.5</ele><time>2026-04-18T16:32:36Z</time></trkpt><trkpt lat="45.363193263593836" lon="3.1929611950931367"><ele>564.75</ele><time>2026-04-18T16:32:37Z</time></trkpt><trkpt lat="45.36320220727185" lon="3.1927899972405402"><ele>565.0</ele><time>2026-04-18T16:32:38Z</time></trkpt><trkpt lat="45.36321409771225" lon="3.192606020165151"><ele>565.0</ele><time>2026-04-18T16:32:39Z</time></trkpt><trkpt lat="45.36322811068433" lon="3.1924209896494857"><ele>565.0</ele><time>2026-04-18T16:32:40Z</time></trkpt><trkpt lat="45.36324017169646" lon="3.1922328396567754"><ele>565.0</ele><time>2026-04-18T16:32:41Z</time></trkpt><trkpt lat="45.36325596109675" lon="3.192020961746369"><ele>565.0</ele><time>2026-04-18T16:32:42Z</time></trkpt><trkpt lat="45.36327995266775" lon="3.191806314071215"><ele>565.0</ele><time>2026-04-18T16:32:43Z</time></trkpt><trkpt lat="45.36334536567516" lon="3.191645095938818"><ele>565.0</ele><time>2026-04-18T16:32:44Z</time></trkpt><trkpt lat="45.363408069596304" lon="3.191510135002384"><ele>565.0</ele><time>2026-04-18T16:32:45Z</time></trkpt><trkpt lat="45.363452932825695" lon="3.191372331350832"><ele>565.0</ele><time>2026-04-18T16:32:46Z</time></trkpt><trkpt lat="45.36351948245887" lon="3.1912450539083506"><ele>564.8</ele><time>2026-04-18T16:32:47Z</time></trkpt><trkpt lat="45.36357063506456" lon="3.1911118349242025"><ele>564.6</ele><time>2026-04-18T16:32:48Z</time></trkpt><trkpt lat="45.36360545513666" lon="3.190973882573038"><ele>564.4</ele><time>2026-04-18T16:32:49Z</time></trkpt><trkpt lat="45.36366851012383" lon="3.1908692487446517"><ele>564.2</ele><time>2026-04-18T16:32:50Z</time></trkpt><trkpt lat="45.36375480490061" lon="3.190821135695472"><ele>564.0</ele><time>2026-04-18T16:32:51Z</time></trkpt><trkpt lat="45.363826904599435" lon="3.190743934042351"><ele>565.0</ele><time>2026-04-18T16:32:52Z</time></trkpt><trkpt lat="45.36386669162978" lon="3.1906370656549794"><ele>566.0</ele><time>2026-04-18T16:32:53Z</time></trkpt><trkpt lat="45.363857917198274" lon="3.1905183787918325"><ele>567.0</ele><time>2026-04-18T16:32:54Z</time></trkpt><trkpt lat="45.3638055376072" lon="3.1903980251516035"><ele>568.0</ele><time>2026-04-18T16:32:55Z</time></trkpt><trkpt lat="45.3637204590232" lon="3.1903045171487747"><ele>569.0</ele><time>2026-04-18T16:32:56Z</time></trkpt><trkpt lat="45.36364357287774" lon="3.1901806487647946"><ele>569.0</ele><time>2026-04-18T16:32:57Z</time></trkpt><trkpt lat="45.363559008627085" lon="3.1900424708379984"><ele>569.0</ele><time>2026-04-18T16:32:58Z</time></trkpt><trkpt lat="45.36358104826524" lon="3.1898364594192947"><ele>569.0</ele><time>2026-04-18T16:32:59Z</time></trkpt><trkpt lat="45.363539276360484" lon="3.18966696632231"><ele>569.0</ele><time>2026-04-18T16:33:00Z</time></trkpt><trkpt lat="45.36348307659888" lon="3.189508407350396"><ele>570.5</ele><time>2026-04-18T16:33:01Z</time></trkpt><trkpt lat="45.3634181132306" lon="3.189347646588591"><ele>572.0</ele><time>2026-04-18T16:33:02Z</time></trkpt><trkpt lat="45.363352988840596" lon="3.1891857318264174"><ele>573.5</ele><time>2026-04-18T16:33:03Z</time></trkpt><trkpt lat="45.363295935390624" lon="3.1890272228465246"><ele>575.0</ele><time>2026-04-18T16:33:04Z</time></trkpt><trkpt lat="45.363265841784376" lon="3.1888895195901656"><ele>576.25</ele><time>2026-04-18T16:33:05Z</time></trkpt><trkpt lat="45.36328052340936" lon="3.1887442804451984"><ele>577.5</ele><time>2026-04-18T16:33:06Z</time></trkpt><trkpt lat="45.363332947291156" lon="3.1885990141900287"><ele>578.75</ele><time>2026-04-18T16:33:07Z</time></trkpt><trkpt lat="45.36338598972035" lon="3.188438463593277"><ele>580.0</ele><time>2026-04-18T16:33:08Z</time></trkpt><trkpt lat="45.3634377017345" lon="3.188253595558696"><ele>580.75</ele><time>2026-04-18T16:33:09Z</time></trkpt><trkpt lat="45.36348622582227" lon="3.1880639445792913"><ele>581.5</ele><time>2026-04-18T16:33:10Z</time></trkpt><trkpt lat="45.36351320878584" lon="3.1878800145756934"><ele>582.25</ele><time>2026-04-18T16:33:11Z</time></trkpt><trkpt lat="45.3635146988758" lon="3.1876625873430813"><ele>583.0</ele><time>2026-04-18T16:33:12Z</time></trkpt><trkpt lat="45.36348977201665" lon="3.1874461292957483"><ele>583.75</ele><time>2026-04-18T16:33:13Z</time></trkpt><trkpt lat="45.36349614432455" lon="3.1872698856853323"><ele>584.5</ele><time>2026-04-18T16:33:14Z</time></trkpt><trkpt lat="45.363527456090274" lon="3.1871069083350445"><ele>585.25</ele><time>2026-04-18T16:33:15Z</time></trkpt><trkpt lat="45.36356349482101" lon="3.1869298864555233"><ele>586.0</ele><time>2026-04-18T16:33:16Z</time></trkpt><trkpt lat="45.36363159213643" lon="3.186725893582905"><ele>586.0</ele><time>2026-04-18T16:33:17Z</time></trkpt><trkpt lat="45.36369985787507" lon="3.1865395680873587"><ele>586.0</ele><time>2026-04-18T16:33:18Z</time></trkpt><trkpt lat="45.36377162529523" lon="3.1863524084393764"><ele>586.0</ele><time>2026-04-18T16:33:19Z</time></trkpt><trkpt lat="45.36385205616991" lon="3.1861676693523644"><ele>588.25</ele><time>2026-04-18T16:33:20Z</time></trkpt><trkpt lat="45.36395737681054" lon="3.185999188913994"><ele>590.5</ele><time>2026-04-18T16:33:21Z</time></trkpt><trkpt lat="45.36404473191155" lon="3.1858366730343524"><ele>592.75</ele><time>2026-04-18T16:33:22Z</time></trkpt><trkpt lat="45.36411798583898" lon="3.185659700103194"><ele>595.0</ele><time>2026-04-18T16:33:23Z</time></trkpt><trkpt lat="45.36419882277482" lon="3.185502417618508"><ele>595.0</ele><time>2026-04-18T16:33:24Z</time></trkpt><trkpt lat="45.36427175107598" lon="3.1853344381659343"><ele>595.0</ele><time>2026-04-18T16:33:25Z</time></trkpt><trkpt lat="45.36434011504746" lon="3.1851420090268725"><ele>595.0</ele><time>2026-04-18T16:33:26Z</time></trkpt><trkpt lat="45.36439585354059" lon="3.1849552875914524"><ele>595.0</ele><time>2026-04-18T16:33:27Z</time></trkpt><trkpt lat="45.364446411056925" lon="3.1847905976043585"><ele>596.2</ele><time>2026-04-18T16:33:28Z</time></trkpt><trkpt lat="45.364524267285155" lon="3.1846686580199375"><ele>597.4</ele><time>2026-04-18T16:33:29Z</time></trkpt><trkpt lat="45.364584936041275" lon="3.1845610887666256"><ele>598.6</ele><time>2026-04-18T16:33:30Z</time></trkpt><trkpt lat="45.364634823990464" lon="3.1844447674593384"><ele>599.8</ele><time>2026-04-18T16:33:31Z</time></trkpt><trkpt lat="45.36467951729367" lon="3.1843344689958895"><ele>601.0</ele><time>2026-04-18T16:33:32Z</time></trkpt><trkpt lat="45.36468538515397" lon="3.184205952004493"><ele>601.0</ele><time>2026-04-18T16:33:33Z</time></trkpt><trkpt lat="45.36465692360279" lon="3.1840588603186455"><ele>601.0</ele><time>2026-04-18T16:33:34Z</time></trkpt><trkpt lat="45.36463538429082" lon="3.1839168641291744"><ele>601.0</ele><time>2026-04-18T16:33:34.999Z</time></trkpt><trkpt lat="45.3646653586089" lon="3.183786221345164"><ele>601.0</ele><time>2026-04-18T16:33:35.999Z</time></trkpt><trkpt lat="45.36468888106517" lon="3.183661398527561"><ele>601.0</ele><time>2026-04-18T16:33:36.999Z</time></trkpt><trkpt lat="45.364706112616055" lon="3.183537438320234"><ele>602.4</ele><time>2026-04-18T16:33:37.999Z</time></trkpt><trkpt lat="45.36472199750593" lon="3.1834077847007762"><ele>603.8</ele><time>2026-04-18T16:33:38.999Z</time></trkpt><trkpt lat="45.36475871805073" lon="3.1832659345150325"><ele>605.1999999999999</ele><time>2026-04-18T16:33:39.999Z</time></trkpt><trkpt lat="45.36481118597479" lon="3.1831592728525364"><ele>606.6</ele><time>2026-04-18T16:33:40.999Z</time></trkpt><trkpt lat="45.36487423976156" lon="3.183032715213175"><ele>608.0</ele><time>2026-04-18T16:33:41.999Z</time></trkpt><trkpt lat="45.36490472186856" lon="3.1829049813060784"><ele>608.0</ele><time>2026-04-18T16:33:42.999Z</time></trkpt><trkpt lat="45.3649565076597" lon="3.182783999202533"><ele>608.0</ele><time>2026-04-18T16:33:43.999Z</time></trkpt><trkpt lat="45.364988337711786" lon="3.1826348024186975"><ele>608.0</ele><time>2026-04-18T16:33:44.999Z</time></trkpt><trkpt lat="45.36499664926855" lon="3.1824908285827496"><ele>608.0</ele><time>2026-04-18T16:33:45.999Z</time></trkpt><trkpt lat="45.36503712884507" lon="3.1823738251760156"><ele>608.0</ele><time>2026-04-18T16:33:46.999Z</time></trkpt><trkpt lat="45.365079365409095" lon="3.182266061442741"><ele>607.5</ele><time>2026-04-18T16:33:47.999Z</time></trkpt><trkpt lat="45.36514035776678" lon="3.1821678390193027"><ele>607.0</ele><time>2026-04-18T16:33:48.999Z</time></trkpt><trkpt lat="45.365209021384" lon="3.182091804540671"><ele>606.5</ele><time>2026-04-18T16:33:49.999Z</time></trkpt><trkpt lat="45.365288403903016" lon="3.182014221956613"><ele>606.0</ele><time>2026-04-18T16:33:50.999Z</time></trkpt><trkpt lat="45.36536472534681" lon="3.1819453860787057"><ele>605.5</ele><time>2026-04-18T16:33:51.999Z</time></trkpt><trkpt lat="45.3654305437459" lon="3.1818850126554015"><ele>605.0</ele><time>2026-04-18T16:33:52.999Z</time></trkpt><trkpt lat="45.36549049968219" lon="3.181818861607559"><ele>605.6666666666666</ele><time>2026-04-18T16:33:53.999Z</time></trkpt><trkpt lat="45.365531937878664" lon="3.181711590191834"><ele>606.3333333333333</ele><time>2026-04-18T16:33:54.999Z</time></trkpt><trkpt lat="45.3655407349838" lon="3.1815919815478173"><ele>607.0</ele><time>2026-04-18T16:33:55.999Z</time></trkpt><trkpt lat="45.36549520759195" lon="3.1814925147430797"><ele>607.6666666666666</ele><time>2026-04-18T16:33:56.999Z</time></trkpt><trkpt lat="45.36543965081936" lon="3.1814214535391723"><ele>608.3333333333334</ele><time>2026-04-18T16:33:57.999Z</time></trkpt><trkpt lat="45.36537850558615" lon="3.181381300623957"><ele>609.0</ele><time>2026-04-18T16:33:58.999Z</time></trkpt><trkpt lat="45.36531734483299" lon="3.181345559072108"><ele>609.0</ele><time>2026-04-18T16:33:59.999Z</time></trkpt><trkpt lat="45.36526360844118" lon="3.1812752676493976"><ele>609.0</ele><time>2026-04-18T16:34:00.999Z</time></trkpt><trkpt lat="45.365205728081534" lon="3.1812168078630196"><ele>609.0</ele><time>2026-04-18T16:34:01.999Z</time></trkpt><trkpt lat="45.36517106858551" lon="3.1811378362226956"><ele>609.0</ele><time>2026-04-18T16:34:02.999Z</time></trkpt><trkpt lat="45.365161373542314" lon="3.1809585157638094"><ele>609.0</ele><time>2026-04-18T16:34:04.999Z</time></trkpt><trkpt lat="45.36521074015345" lon="3.1808880667284574"><ele>609.0</ele><time>2026-04-18T16:34:05.999Z</time></trkpt><trkpt lat="45.365221929949556" lon="3.1807972035806595"><ele>609.0</ele><time>2026-04-18T16:34:06.999Z</time></trkpt><trkpt lat="45.365246435012615" lon="3.180696509755465"><ele>609.0</ele><time>2026-04-18T16:34:07.999Z</time></trkpt><trkpt lat="45.365249129877036" lon="3.1805968651781287"><ele>609.0</ele><time>2026-04-18T16:34:08.999Z</time></trkpt><trkpt lat="45.36525132986957" lon="3.1804895672868567"><ele>609.0</ele><time>2026-04-18T16:34:09.999Z</time></trkpt><trkpt lat="45.36518405212659" lon="3.1803984458626116"><ele>609.0</ele><time>2026-04-18T16:34:10.999Z</time></trkpt><trkpt lat="45.36512390824033" lon="3.1803322880753075"><ele>609.0</ele><time>2026-04-18T16:34:12Z</time></trkpt><trkpt lat="45.36504328772265" lon="3.1802943253067233"><ele>609.8333333333334</ele><time>2026-04-18T16:34:13Z</time></trkpt><trkpt lat="45.3649680797357" lon="3.180247238469062"><ele>610.6666666666666</ele><time>2026-04-18T16:34:14Z</time></trkpt><trkpt lat="45.36490792990008" lon="3.1801894218598905"><ele>611.5</ele><time>2026-04-18T16:34:15Z</time></trkpt><trkpt lat="45.36484990146128" lon="3.1801180706270396"><ele>612.3333333333333</ele><time>2026-04-18T16:34:16Z</time></trkpt><trkpt lat="45.3648247699855" lon="3.1800243282853637"><ele>613.1666666666666</ele><time>2026-04-18T16:34:17Z</time></trkpt><trkpt lat="45.36478945419648" lon="3.1799286136544698"><ele>614.0</ele><time>2026-04-18T16:34:18Z</time></trkpt><trkpt lat="45.364750042124946" lon="3.179827743286624"><ele>614.8333333333333</ele><time>2026-04-18T16:34:19Z</time></trkpt><trkpt lat="45.364709103461266" lon="3.179724534385361"><ele>615.6666666666666</ele><time>2026-04-18T16:34:20Z</time></trkpt><trkpt lat="45.36466410687925" lon="3.179611095268334"><ele>616.5</ele><time>2026-04-18T16:34:21Z</time></trkpt><trkpt lat="45.364619652568365" lon="3.1795024131042746"><ele>617.3333333333334</ele><time>2026-04-18T16:34:22Z</time></trkpt><trkpt lat="45.364575812091914" lon="3.179397441329282"><ele>618.1666666666667</ele><time>2026-04-18T16:34:23Z</time></trkpt><trkpt lat="45.364528373970145" lon="3.179292212390031"><ele>619.0</ele><time>2026-04-18T16:34:24Z</time></trkpt><trkpt lat="45.36447435097794" lon="3.1791842245408994"><ele>619.0</ele><time>2026-04-18T16:34:25Z</time></trkpt><trkpt lat="45.36440386416195" lon="3.179087979818926"><ele>619.0</ele><time>2026-04-18T16:34:26Z</time></trkpt><trkpt lat="45.36433918991003" lon="3.178965124340863"><ele>619.0</ele><time>2026-04-18T16:34:27Z</time></trkpt><trkpt lat="45.3642877365032" lon="3.1788505445788093"><ele>619.0</ele><time>2026-04-18T16:34:28Z</time></trkpt><trkpt lat="45.364261900458075" lon="3.1787038584722827"><ele>619.0</ele><time>2026-04-18T16:34:29Z</time></trkpt><trkpt lat="45.36421703900501" lon="3.178562277059798"><ele>620.0</ele><time>2026-04-18T16:34:30Z</time></trkpt><trkpt lat="45.364191501892904" lon="3.1784139328949967"><ele>621.0</ele><time>2026-04-18T16:34:31Z</time></trkpt><trkpt lat="45.36415012619344" lon="3.178270233208296"><ele>622.0</ele><time>2026-04-18T16:34:32Z</time></trkpt><trkpt lat="45.364087682444094" lon="3.1781312905193735"><ele>623.0</ele><time>2026-04-18T16:34:33Z</time></trkpt><trkpt lat="45.36400761918074" lon="3.1780026366966974"><ele>624.8</ele><time>2026-04-18T16:34:34Z</time></trkpt><trkpt lat="45.36393037430146" lon="3.1778891542330556"><ele>626.5999999999999</ele><time>2026-04-18T16:34:35Z</time></trkpt><trkpt lat="45.363860766550175" lon="3.1777678980483373"><ele>628.4000000000001</ele><time>2026-04-18T16:34:36Z</time></trkpt><trkpt lat="45.36379250125108" lon="3.1776509292700337"><ele>630.2</ele><time>2026-04-18T16:34:37Z</time></trkpt><trkpt lat="45.36373584174191" lon="3.1775133825610937"><ele>632.0</ele><time>2026-04-18T16:34:38Z</time></trkpt><trkpt lat="45.36369279884585" lon="3.177373176773678"><ele>632.0</ele><time>2026-04-18T16:34:39Z</time></trkpt><trkpt lat="45.36366991575434" lon="3.1772104608636003"><ele>632.0</ele><time>2026-04-18T16:34:40Z</time></trkpt><trkpt lat="45.36363628327703" lon="3.1770488931322145"><ele>632.0</ele><time>2026-04-18T16:34:41Z</time></trkpt><trkpt lat="45.36361965908803" lon="3.176868805329334"><ele>632.0</ele><time>2026-04-18T16:34:42Z</time></trkpt><trkpt lat="45.36362955096222" lon="3.1766873476600406"><ele>632.0</ele><time>2026-04-18T16:34:43Z</time></trkpt><trkpt lat="45.363640755677565" lon="3.1765231582672886"><ele>632.0</ele><time>2026-04-18T16:34:44Z</time></trkpt><trkpt lat="45.36371640358677" lon="3.176387811589415"><ele>632.0</ele><time>2026-04-18T16:34:45Z</time></trkpt><trkpt lat="45.36380856082788" lon="3.1762781180614357"><ele>632.0</ele><time>2026-04-18T16:34:46Z</time></trkpt><trkpt lat="45.3638990259476" lon="3.1761712627618333"><ele>633.5</ele><time>2026-04-18T16:34:47Z</time></trkpt><trkpt lat="45.36397895293727" lon="3.1760501603279634"><ele>635.0</ele><time>2026-04-18T16:34:48Z</time></trkpt><trkpt lat="45.36406514937132" lon="3.1759453305966625"><ele>636.5</ele><time>2026-04-18T16:34:49Z</time></trkpt><trkpt lat="45.36413534781652" lon="3.1758152439701717"><ele>638.0</ele><time>2026-04-18T16:34:50Z</time></trkpt><trkpt lat="45.364195764896785" lon="3.1756634366943692"><ele>638.0</ele><time>2026-04-18T16:34:51Z</time></trkpt><trkpt lat="45.36425392734446" lon="3.175501316121635"><ele>638.0</ele><time>2026-04-18T16:34:52Z</time></trkpt><trkpt lat="45.364316882135654" lon="3.1753451059121214"><ele>638.0</ele><time>2026-04-18T16:34:53Z</time></trkpt><trkpt lat="45.3644025005138" lon="3.1752124548177614"><ele>638.0</ele><time>2026-04-18T16:34:54Z</time></trkpt><trkpt lat="45.364467765784276" lon="3.1750563252249044"><ele>638.0</ele><time>2026-04-18T16:34:55Z</time></trkpt><trkpt lat="45.364550324442504" lon="3.174918504894048"><ele>638.0</ele><time>2026-04-18T16:34:56Z</time></trkpt><trkpt lat="45.36464435181194" lon="3.174779395070144"><ele>638.0</ele><time>2026-04-18T16:34:57Z</time></trkpt><trkpt lat="45.36474848451715" lon="3.174666493710225"><ele>638.0</ele><time>2026-04-18T16:34:58Z</time></trkpt><trkpt lat="45.36487993423238" lon="3.1745995343884656"><ele>639.5</ele><time>2026-04-18T16:34:59Z</time></trkpt><trkpt lat="45.36501261738079" lon="3.174519733526428"><ele>641.0</ele><time>2026-04-18T16:35:00Z</time></trkpt><trkpt lat="45.36515218324744" lon="3.174441158517475"><ele>642.5</ele><time>2026-04-18T16:35:01Z</time></trkpt><trkpt lat="45.36528138420816" lon="3.1743411904471834"><ele>644.0</ele><time>2026-04-18T16:35:02Z</time></trkpt><trkpt lat="45.36541030664561" lon="3.1742634306448405"><ele>644.0</ele><time>2026-04-18T16:35:03Z</time></trkpt><trkpt lat="45.36552003993366" lon="3.1741871673920463"><ele>644.0</ele><time>2026-04-18T16:35:04Z</time></trkpt><trkpt lat="45.36561629041133" lon="3.174095914854939"><ele>644.0</ele><time>2026-04-18T16:35:05Z</time></trkpt><trkpt lat="45.36568365197246" lon="3.1739734286935835"><ele>644.0</ele><time>2026-04-18T16:35:06Z</time></trkpt><trkpt lat="45.36572315155948" lon="3.1738285667400796"><ele>645.0</ele><time>2026-04-18T16:35:07Z</time></trkpt><trkpt lat="45.36574225965739" lon="3.1736746792282036"><ele>646.0</ele><time>2026-04-18T16:35:08Z</time></trkpt><trkpt lat="45.36574465660983" lon="3.1735006221335214"><ele>647.0</ele><time>2026-04-18T16:35:09Z</time></trkpt><trkpt lat="45.36573732473749" lon="3.173339908637488"><ele>648.0</ele><time>2026-04-18T16:35:10Z</time></trkpt><trkpt lat="45.36572820875924" lon="3.1731679500553467"><ele>648.75</ele><time>2026-04-18T16:35:11Z</time></trkpt><trkpt lat="45.365723743869076" lon="3.172983097904477"><ele>649.5</ele><time>2026-04-18T16:35:12Z</time></trkpt><trkpt lat="45.36571873979274" lon="3.1727948819127305"><ele>650.25</ele><time>2026-04-18T16:35:13Z</time></trkpt><trkpt lat="45.36572700189384" lon="3.172601101621441"><ele>651.0</ele><time>2026-04-18T16:35:14Z</time></trkpt><trkpt lat="45.36571146392223" lon="3.172400858967461"><ele>651.5</ele><time>2026-04-18T16:35:15Z</time></trkpt><trkpt lat="45.36570842042818" lon="3.172204036040044"><ele>652.0</ele><time>2026-04-18T16:35:16Z</time></trkpt><trkpt lat="45.365705874532956" lon="3.171998830097925"><ele>652.5</ele><time>2026-04-18T16:35:17Z</time></trkpt><trkpt lat="45.36570254764892" lon="3.1717886140928835"><ele>653.0</ele><time>2026-04-18T16:35:18Z</time></trkpt><trkpt lat="45.365700104806" lon="3.1715728763292788"><ele>653.25</ele><time>2026-04-18T16:35:19Z</time></trkpt><trkpt lat="45.36569636246102" lon="3.171357640989543"><ele>653.5</ele><time>2026-04-18T16:35:20Z</time></trkpt><trkpt lat="45.365693956218216" lon="3.17116315343786"><ele>653.75</ele><time>2026-04-18T16:35:21Z</time></trkpt><trkpt lat="45.3657051316823" lon="3.170981046151021"><ele>654.0</ele><time>2026-04-18T16:35:22Z</time></trkpt><trkpt lat="45.36570326870274" lon="3.1708119909278345"><ele>654.5</ele><time>2026-04-18T16:35:23Z</time></trkpt><trkpt lat="45.36568483925241" lon="3.1706411334902094"><ele>655.0</ele><time>2026-04-18T16:35:24Z</time></trkpt><trkpt lat="45.36568395269093" lon="3.1704528364737814"><ele>655.5</ele><time>2026-04-18T16:35:25Z</time></trkpt><trkpt lat="45.36567910395048" lon="3.170254289529384"><ele>656.0</ele><time>2026-04-18T16:35:26Z</time></trkpt><trkpt lat="45.36567711420616" lon="3.1700560700053995"><ele>656.0</ele><time>2026-04-18T16:35:27Z</time></trkpt><trkpt lat="45.36567462112473" lon="3.1698610169944175"><ele>656.0</ele><time>2026-04-18T16:35:28Z</time></trkpt><trkpt lat="45.36567344379078" lon="3.1696710286871967"><ele>656.0</ele><time>2026-04-18T16:35:29Z</time></trkpt><trkpt lat="45.365679912637624" lon="3.1694886909887923"><ele>656.0</ele><time>2026-04-18T16:35:30Z</time></trkpt><trkpt lat="45.365698977522605" lon="3.1692988307161847"><ele>656.5</ele><time>2026-04-18T16:35:31Z</time></trkpt><trkpt lat="45.36574977831461" lon="3.169129948304424"><ele>657.0</ele><time>2026-04-18T16:35:32Z</time></trkpt><trkpt lat="45.36579221273671" lon="3.1689467420706556"><ele>657.5</ele><time>2026-04-18T16:35:33Z</time></trkpt><trkpt lat="45.3658360517191" lon="3.168762752692293"><ele>658.0</ele><time>2026-04-18T16:35:34Z</time></trkpt><trkpt lat="45.36586704851201" lon="3.1685718558783784"><ele>658.25</ele><time>2026-04-18T16:35:35Z</time></trkpt><trkpt lat="45.36591476290208" lon="3.1683849743739865"><ele>658.5</ele><time>2026-04-18T16:35:36Z</time></trkpt><trkpt lat="45.36595547032714" lon="3.16821056169361"><ele>658.75</ele><time>2026-04-18T16:35:37Z</time></trkpt><trkpt lat="45.36599945637042" lon="3.1680301516502056"><ele>659.0</ele><time>2026-04-18T16:35:38Z</time></trkpt><trkpt lat="45.36604141051785" lon="3.1678466638191853"><ele>659.5</ele><time>2026-04-18T16:35:39Z</time></trkpt><trkpt lat="45.36608543902773" lon="3.1676653155732164"><ele>660.0</ele><time>2026-04-18T16:35:40Z</time></trkpt><trkpt lat="45.36612939066329" lon="3.1674975550974938"><ele>660.5</ele><time>2026-04-18T16:35:41Z</time></trkpt><trkpt lat="45.36617831265516" lon="3.167338946844059"><ele>661.0</ele><time>2026-04-18T16:35:42Z</time></trkpt><trkpt lat="45.3662447199123" lon="3.1672058478678915"><ele>660.8</ele><time>2026-04-18T16:35:43Z</time></trkpt><trkpt lat="45.36633141514867" lon="3.1671066005118664"><ele>660.5999999999999</ele><time>2026-04-18T16:35:44Z</time></trkpt><trkpt lat="45.36643767229846" lon="3.1670576401885446"><ele>660.4</ele><time>2026-04-18T16:35:45Z</time></trkpt><trkpt lat="45.366534419669605" lon="3.1669887361348756"><ele>660.2</ele><time>2026-04-18T16:35:46Z</time></trkpt><trkpt lat="45.36662741128531" lon="3.1669030012568222"><ele>660.0</ele><time>2026-04-18T16:35:47Z</time></trkpt><trkpt lat="45.36673373423849" lon="3.166833044740489"><ele>660.0</ele><time>2026-04-18T16:35:48Z</time></trkpt><trkpt lat="45.366851724634834" lon="3.1667513663883926"><ele>660.0</ele><time>2026-04-18T16:35:49Z</time></trkpt><trkpt lat="45.36698133139388" lon="3.1666772014732403"><ele>660.0</ele><time>2026-04-18T16:35:50Z</time></trkpt><trkpt lat="45.3671038355116" lon="3.166614723672492"><ele>660.0</ele><time>2026-04-18T16:35:51Z</time></trkpt><trkpt lat="45.36722927862679" lon="3.1665706171922205"><ele>661.25</ele><time>2026-04-18T16:35:52Z</time></trkpt><trkpt lat="45.36736811588879" lon="3.166524144073716"><ele>662.5</ele><time>2026-04-18T16:35:53Z</time></trkpt><trkpt lat="45.3675144553514" lon="3.166473724056132"><ele>663.75</ele><time>2026-04-18T16:35:54Z</time></trkpt><trkpt lat="45.36765964413902" lon="3.1664211094058214"><ele>665.0</ele><time>2026-04-18T16:35:55Z</time></trkpt><trkpt lat="45.36780726860024" lon="3.166364565297384"><ele>665.0</ele><time>2026-04-18T16:35:56Z</time></trkpt><trkpt lat="45.36795865810488" lon="3.166301665558074"><ele>665.0</ele><time>2026-04-18T16:35:57Z</time></trkpt><trkpt lat="45.36810170540321" lon="3.166228624252396"><ele>665.0</ele><time>2026-04-18T16:35:58Z</time></trkpt><trkpt lat="45.368243130087116" lon="3.1661346735705145"><ele>665.3333333333333</ele><time>2026-04-18T16:35:59Z</time></trkpt><trkpt lat="45.36837903429543" lon="3.1660259844299965"><ele>665.6666666666666</ele><time>2026-04-18T16:36:00Z</time></trkpt><trkpt lat="45.36851526971474" lon="3.1659073471754917"><ele>666.0</ele><time>2026-04-18T16:36:01Z</time></trkpt><trkpt lat="45.36863388388116" lon="3.165781016077901"><ele>666.0</ele><time>2026-04-18T16:36:02Z</time></trkpt><trkpt lat="45.368750068315705" lon="3.165642555136832"><ele>666.0</ele><time>2026-04-18T16:36:03Z</time></trkpt><trkpt lat="45.36885341447839" lon="3.1654892495944127"><ele>666.0</ele><time>2026-04-18T16:36:04Z</time></trkpt><trkpt lat="45.368952975534086" lon="3.165333511492758"><ele>666.0</ele><time>2026-04-18T16:36:05Z</time></trkpt><trkpt lat="45.369053648699676" lon="3.165175344624224"><ele>666.0</ele><time>2026-04-18T16:36:06Z</time></trkpt><trkpt lat="45.36915805952672" lon="3.1650137623596697"><ele>666.0</ele><time>2026-04-18T16:36:07Z</time></trkpt><trkpt lat="45.36925443047953" lon="3.164867386360465"><ele>666.0</ele><time>2026-04-18T16:36:08Z</time></trkpt><trkpt lat="45.36935158755149" lon="3.1647039868345956"><ele>666.0</ele><time>2026-04-18T16:36:09Z</time></trkpt><trkpt lat="45.36943536028796" lon="3.1645472761747984"><ele>666.25</ele><time>2026-04-18T16:36:10Z</time></trkpt><trkpt lat="45.36952390007796" lon="3.1643810229305513"><ele>666.5</ele><time>2026-04-18T16:36:11Z</time></trkpt><trkpt lat="45.369616184767644" lon="3.1642259751171413"><ele>666.75</ele><time>2026-04-18T16:36:12Z</time></trkpt><trkpt lat="45.369711070399234" lon="3.164081598913914"><ele>667.0</ele><time>2026-04-18T16:36:13Z</time></trkpt><trkpt lat="45.36981229657951" lon="3.1639342107203805"><ele>668.75</ele><time>2026-04-18T16:36:14Z</time></trkpt><trkpt lat="45.36990075707488" lon="3.1637861469438096"><ele>670.5</ele><time>2026-04-18T16:36:15Z</time></trkpt><trkpt lat="45.36998285021263" lon="3.163632057146768"><ele>672.25</ele><time>2026-04-18T16:36:16Z</time></trkpt><trkpt lat="45.37006293160123" lon="3.1634792736761104"><ele>674.0</ele><time>2026-04-18T16:36:17Z</time></trkpt><trkpt lat="45.37014770584019" lon="3.1633437767277788"><ele>674.0</ele><time>2026-04-18T16:36:18Z</time></trkpt><trkpt lat="45.3702609854933" lon="3.163274580233566"><ele>674.0</ele><time>2026-04-18T16:36:19Z</time></trkpt><trkpt lat="45.37037474831247" lon="3.163223117688366"><ele>674.0</ele><time>2026-04-18T16:36:20Z</time></trkpt><trkpt lat="45.37050581506789" lon="3.163184393911388"><ele>674.0</ele><time>2026-04-18T16:36:21Z</time></trkpt><trkpt lat="45.37063294635287" lon="3.1631274710224706"><ele>675.25</ele><time>2026-04-18T16:36:22Z</time></trkpt><trkpt lat="45.37076561298605" lon="3.163073336398945"><ele>676.5</ele><time>2026-04-18T16:36:23Z</time></trkpt><trkpt lat="45.370891932402145" lon="3.1630004818993998"><ele>677.75</ele><time>2026-04-18T16:36:24Z</time></trkpt><trkpt lat="45.37102839065066" lon="3.1629076406319117"><ele>679.0</ele><time>2026-04-18T16:36:25Z</time></trkpt><trkpt lat="45.37114832059636" lon="3.1628174808077274"><ele>679.0</ele><time>2026-04-18T16:36:26Z</time></trkpt><trkpt lat="45.37127106109387" lon="3.1627287375070154"><ele>679.0</ele><time>2026-04-18T16:36:27Z</time></trkpt><trkpt lat="45.37139841864337" lon="3.16264573822471"><ele>679.0</ele><time>2026-04-18T16:36:28Z</time></trkpt><trkpt lat="45.37153497721139" lon="3.1625736544430985"><ele>679.0</ele><time>2026-04-18T16:36:29Z</time></trkpt><trkpt lat="45.37168092495474" lon="3.162519885711689"><ele>679.6666666666667</ele><time>2026-04-18T16:36:30Z</time></trkpt><trkpt lat="45.37182844283219" lon="3.1624880318822197"><ele>680.3333333333334</ele><time>2026-04-18T16:36:31Z</time></trkpt><trkpt lat="45.371983208756376" lon="3.1624643439922724"><ele>681.0</ele><time>2026-04-18T16:36:32Z</time></trkpt><trkpt lat="45.37212830945333" lon="3.162444736798783"><ele>681.0</ele><time>2026-04-18T16:36:33Z</time></trkpt><trkpt lat="45.37227794296355" lon="3.1624017584499544"><ele>681.0</ele><time>2026-04-18T16:36:34Z</time></trkpt><trkpt lat="45.372427862497766" lon="3.1623196630141934"><ele>681.0</ele><time>2026-04-18T16:36:35Z</time></trkpt><trkpt lat="45.372563931511685" lon="3.162225883011093"><ele>682.6666666666666</ele><time>2026-04-18T16:36:36Z</time></trkpt><trkpt lat="45.37269502723795" lon="3.1621161469891534"><ele>684.3333333333333</ele><time>2026-04-18T16:36:37Z</time></trkpt><trkpt lat="45.3728295004303" lon="3.162005125199417"><ele>686.0</ele><time>2026-04-18T16:36:38Z</time></trkpt><trkpt lat="45.37296571609732" lon="3.1618884015790067"><ele>685.3333333333333</ele><time>2026-04-18T16:36:39Z</time></trkpt><trkpt lat="45.37310520425738" lon="3.1617676106220993"><ele>684.6666666666666</ele><time>2026-04-18T16:36:40Z</time></trkpt><trkpt lat="45.373233599872286" lon="3.161660180738362"><ele>684.0</ele><time>2026-04-18T16:36:41Z</time></trkpt><trkpt lat="45.37335894946671" lon="3.161554062931716"><ele>685.25</ele><time>2026-04-18T16:36:42Z</time></trkpt><trkpt lat="45.37348023822808" lon="3.1614465376980245"><ele>686.5</ele><time>2026-04-18T16:36:43Z</time></trkpt><trkpt lat="45.37359670641695" lon="3.1613279893964497"><ele>687.75</ele><time>2026-04-18T16:36:44Z</time></trkpt><trkpt lat="45.37370624020006" lon="3.161201725388954"><ele>689.0</ele><time>2026-04-18T16:36:45Z</time></trkpt><trkpt lat="45.37381028920547" lon="3.1610669093837114"><ele>689.0</ele><time>2026-04-18T16:36:46Z</time></trkpt><trkpt lat="45.37391501746118" lon="3.160922646822641"><ele>689.0</ele><time>2026-04-18T16:36:47Z</time></trkpt><trkpt lat="45.37401671469226" lon="3.1607719336020694"><ele>689.0</ele><time>2026-04-18T16:36:48Z</time></trkpt><trkpt lat="45.37411157989898" lon="3.1606151399328417"><ele>689.0</ele><time>2026-04-18T16:36:49Z</time></trkpt><trkpt lat="45.37419877473238" lon="3.1604467861813013"><ele>689.0</ele><time>2026-04-18T16:36:50Z</time></trkpt><trkpt lat="45.37428612362132" lon="3.1602721292863922"><ele>689.0</ele><time>2026-04-18T16:36:51Z</time></trkpt><trkpt lat="45.374396473131185" lon="3.160117693401993"><ele>689.0</ele><time>2026-04-18T16:36:52Z</time></trkpt><trkpt lat="45.374498976772614" lon="3.1599799843789738"><ele>689.0</ele><time>2026-04-18T16:36:53Z</time></trkpt><trkpt lat="45.374586578502154" lon="3.1598453824421475"><ele>689.0</ele><time>2026-04-18T16:36:54Z</time></trkpt><trkpt lat="45.374678945612885" lon="3.1597183100610833"><ele>689.0</ele><time>2026-04-18T16:36:55Z</time></trkpt><trkpt lat="45.37476130471391" lon="3.1595831362536204"><ele>689.0</ele><time>2026-04-18T16:36:56Z</time></trkpt><trkpt lat="45.374847515649975" lon="3.1594229660649926"><ele>689.0</ele><time>2026-04-18T16:36:57Z</time></trkpt><trkpt lat="45.374929590777555" lon="3.159260418732382"><ele>689.0</ele><time>2026-04-18T16:36:58Z</time></trkpt><trkpt lat="45.37501424787811" lon="3.159089568276605"><ele>689.0</ele><time>2026-04-18T16:36:59Z</time></trkpt><trkpt lat="45.375114303043155" lon="3.158925508201021"><ele>689.0</ele><time>2026-04-18T16:37:00Z</time></trkpt><trkpt lat="45.37520882777757" lon="3.158778394337268"><ele>689.0</ele><time>2026-04-18T16:37:01Z</time></trkpt><trkpt lat="45.37532279179765" lon="3.1586468731635846"><ele>689.0</ele><time>2026-04-18T16:37:02Z</time></trkpt><trkpt lat="45.37544895468624" lon="3.158544990013151"><ele>689.0</ele><time>2026-04-18T16:37:03Z</time></trkpt><trkpt lat="45.37556938121636" lon="3.1584326811869454"><ele>689.0</ele><time>2026-04-18T16:37:04Z</time></trkpt><trkpt lat="45.37570218156049" lon="3.1583413657685426"><ele>689.0</ele><time>2026-04-18T16:37:05Z</time></trkpt><trkpt lat="45.37582869188515" lon="3.1582327298025272"><ele>689.75</ele><time>2026-04-18T16:37:06Z</time></trkpt><trkpt lat="45.37594889860874" lon="3.1581033799612697"><ele>690.5</ele><time>2026-04-18T16:37:07Z</time></trkpt><trkpt lat="45.3760544816719" lon="3.1579598613099744"><ele>691.25</ele><time>2026-04-18T16:37:08Z</time></trkpt><trkpt lat="45.37614614570914" lon="3.1578209603623373"><ele>692.0</ele><time>2026-04-18T16:37:09Z</time></trkpt><trkpt lat="45.37622990473209" lon="3.15768669364463"><ele>692.0</ele><time>2026-04-18T16:37:10Z</time></trkpt><trkpt lat="45.376305394555196" lon="3.1575623313000514"><ele>692.0</ele><time>2026-04-18T16:37:11Z</time></trkpt><trkpt lat="45.37637649774637" lon="3.157432879160575"><ele>692.0</ele><time>2026-04-18T16:37:12Z</time></trkpt><trkpt lat="45.37643483172963" lon="3.1572840856327726"><ele>692.0</ele><time>2026-04-18T16:37:13Z</time></trkpt><trkpt lat="45.376480728297544" lon="3.1571166738307643"><ele>691.75</ele><time>2026-04-18T16:37:14Z</time></trkpt><trkpt lat="45.37652876495839" lon="3.1569280978799337"><ele>691.5</ele><time>2026-04-18T16:37:15Z</time></trkpt><trkpt lat="45.37657884034123" lon="3.1567295500696706"><ele>691.25</ele><time>2026-04-18T16:37:16Z</time></trkpt><trkpt lat="45.37662860399177" lon="3.1565326347078333"><ele>691.0</ele><time>2026-04-18T16:37:17Z</time></trkpt><trkpt lat="45.37670382453249" lon="3.1563494003953343"><ele>691.0</ele><time>2026-04-18T16:37:18Z</time></trkpt><trkpt lat="45.376778009249456" lon="3.1561715304681197"><ele>691.0</ele><time>2026-04-18T16:37:19Z</time></trkpt><trkpt lat="45.37686894780095" lon="3.156007887250186"><ele>691.0</ele><time>2026-04-18T16:37:20Z</time></trkpt><trkpt lat="45.376972391536945" lon="3.155867270081316"><ele>691.0</ele><time>2026-04-18T16:37:21Z</time></trkpt><trkpt lat="45.377071328414786" lon="3.1557124565559103"><ele>692.5</ele><time>2026-04-18T16:37:22Z</time></trkpt><trkpt lat="45.37717092587678" lon="3.155582407347224"><ele>694.0</ele><time>2026-04-18T16:37:23Z</time></trkpt><trkpt lat="45.377264700624856" lon="3.155452483952057"><ele>695.5</ele><time>2026-04-18T16:37:24Z</time></trkpt><trkpt lat="45.37736019545109" lon="3.155329101978605"><ele>697.0</ele><time>2026-04-18T16:37:25Z</time></trkpt><trkpt lat="45.377461408236215" lon="3.155189171482199"><ele>696.0</ele><time>2026-04-18T16:37:26Z</time></trkpt><trkpt lat="45.37755507286053" lon="3.155066271673745"><ele>695.0</ele><time>2026-04-18T16:37:27Z</time></trkpt><trkpt lat="45.3776442619228" lon="3.1549459627892733"><ele>694.0</ele><time>2026-04-18T16:37:28Z</time></trkpt><trkpt lat="45.377729441152916" lon="3.1548349206719632"><ele>693.0</ele><time>2026-04-18T16:37:29Z</time></trkpt><trkpt lat="45.377810309261115" lon="3.1547267800254133"><ele>693.0</ele><time>2026-04-18T16:37:30Z</time></trkpt><trkpt lat="45.37788644398567" lon="3.154622534181405"><ele>693.0</ele><time>2026-04-18T16:37:31Z</time></trkpt><trkpt lat="45.37796532638522" lon="3.154531712581994"><ele>693.0</ele><time>2026-04-18T16:37:32Z</time></trkpt><trkpt lat="45.37805120055146" lon="3.1544634368195714"><ele>693.0</ele><time>2026-04-18T16:37:33Z</time></trkpt><trkpt lat="45.37814831031947" lon="3.1544171585465426"><ele>693.0</ele><time>2026-04-18T16:37:34Z</time></trkpt><trkpt lat="45.378252300706556" lon="3.154398648133898"><ele>691.5999999999999</ele><time>2026-04-18T16:37:35Z</time></trkpt><trkpt lat="45.37835393547268" lon="3.1543877210528692"><ele>690.1999999999999</ele><time>2026-04-18T16:37:36Z</time></trkpt><trkpt lat="45.37845321831423" lon="3.1543693920851013"><ele>688.8</ele><time>2026-04-18T16:37:37Z</time></trkpt><trkpt lat="45.37854766239621" lon="3.154329214229746"><ele>687.4</ele><time>2026-04-18T16:37:38Z</time></trkpt><trkpt lat="45.37863258390918" lon="3.1542543621533397"><ele>686.0</ele><time>2026-04-18T16:37:39Z</time></trkpt><trkpt lat="45.37869100681786" lon="3.1541346797635375"><ele>685.75</ele><time>2026-04-18T16:37:40Z</time></trkpt><trkpt lat="45.37872630748697" lon="3.1539750025875897"><ele>685.5</ele><time>2026-04-18T16:37:41.001Z</time></trkpt><trkpt lat="45.378750613187556" lon="3.153796201240626"><ele>685.25</ele><time>2026-04-18T16:37:42.001Z</time></trkpt><trkpt lat="45.37877820585015" lon="3.1536128879793814"><ele>685.0</ele><time>2026-04-18T16:37:43.001Z</time></trkpt><trkpt lat="45.37881156757756" lon="3.153432545146095"><ele>685.0</ele><time>2026-04-18T16:37:44.001Z</time></trkpt><trkpt lat="45.37884729004822" lon="3.1532659902584714"><ele>685.0</ele><time>2026-04-18T16:37:45.001Z</time></trkpt><trkpt lat="45.37890217950381" lon="3.1531178143822784"><ele>685.0</ele><time>2026-04-18T16:37:46.001Z</time></trkpt><trkpt lat="45.378938249906234" lon="3.1529547193130703"><ele>685.0</ele><time>2026-04-18T16:37:47Z</time></trkpt><trkpt lat="45.37899903450692" lon="3.1528064954741164"><ele>682.75</ele><time>2026-04-18T16:37:48Z</time></trkpt><trkpt lat="45.37907230372346" lon="3.1526691944011698"><ele>680.5</ele><time>2026-04-18T16:37:49Z</time></trkpt><trkpt lat="45.37917972991158" lon="3.1525672340225603"><ele>678.25</ele><time>2026-04-18T16:37:50Z</time></trkpt><trkpt lat="45.37928557089898" lon="3.152477165885237"><ele>676.0</ele><time>2026-04-18T16:37:51Z</time></trkpt><trkpt lat="45.379389881898646" lon="3.1524181592282075"><ele>676.0</ele><time>2026-04-18T16:37:52Z</time></trkpt><trkpt lat="45.37949488469691" lon="3.152397591463375"><ele>676.0</ele><time>2026-04-18T16:37:53Z</time></trkpt><trkpt lat="45.37959664102028" lon="3.152416628710758"><ele>676.0</ele><time>2026-04-18T16:37:54Z</time></trkpt><trkpt lat="45.37969858962641" lon="3.1524280605326154"><ele>676.0</ele><time>2026-04-18T16:37:55Z</time></trkpt><trkpt lat="45.37979206616746" lon="3.152459886431605"><ele>676.0</ele><time>2026-04-18T16:37:56Z</time></trkpt><trkpt lat="45.379887377334576" lon="3.1524495255031697"><ele>676.25</ele><time>2026-04-18T16:37:57Z</time></trkpt><trkpt lat="45.379980535652656" lon="3.1523886592009998"><ele>676.5</ele><time>2026-04-18T16:37:58Z</time></trkpt><trkpt lat="45.380065000266754" lon="3.1522795828299794"><ele>676.75</ele><time>2026-04-18T16:37:59Z</time></trkpt><trkpt lat="45.38014313279387" lon="3.1521465809232123"><ele>677.0</ele><time>2026-04-18T16:38:00Z</time></trkpt><trkpt lat="45.380223230395316" lon="3.152005539656782"><ele>677.0</ele><time>2026-04-18T16:38:01Z</time></trkpt><trkpt lat="45.38030653316967" lon="3.1518593317778927"><ele>677.0</ele><time>2026-04-18T16:38:02Z</time></trkpt><trkpt lat="45.380396420355076" lon="3.1517168934759328"><ele>677.0</ele><time>2026-04-18T16:38:03Z</time></trkpt><trkpt lat="45.380491520399005" lon="3.1515812727330657"><ele>677.0</ele><time>2026-04-18T16:38:04Z</time></trkpt><trkpt lat="45.38058137136331" lon="3.1514336150929245"><ele>675.5</ele><time>2026-04-18T16:38:05Z</time></trkpt><trkpt lat="45.3806765000228" lon="3.1512796926438917"><ele>674.0</ele><time>2026-04-18T16:38:06Z</time></trkpt><trkpt lat="45.3807619530339" lon="3.1511193442111116"><ele>672.5</ele><time>2026-04-18T16:38:07Z</time></trkpt><trkpt lat="45.38085684692516" lon="3.150943008353347"><ele>671.0</ele><time>2026-04-18T16:38:08Z</time></trkpt><trkpt lat="45.38093870425599" lon="3.1507775384784917"><ele>672.25</ele><time>2026-04-18T16:38:09Z</time></trkpt><trkpt lat="45.38102316615597" lon="3.1506045057586625"><ele>673.5</ele><time>2026-04-18T16:38:10Z</time></trkpt><trkpt lat="45.38110615901239" lon="3.1504357535534657"><ele>674.75</ele><time>2026-04-18T16:38:11Z</time></trkpt><trkpt lat="45.38118721129127" lon="3.1502667567879166"><ele>676.0</ele><time>2026-04-18T16:38:12Z</time></trkpt><trkpt lat="45.381263655092354" lon="3.1500827596653456"><ele>676.0</ele><time>2026-04-18T16:38:13Z</time></trkpt><trkpt lat="45.381331624058554" lon="3.1499001799420214"><ele>676.0</ele><time>2026-04-18T16:38:14Z</time></trkpt><trkpt lat="45.38141219984677" lon="3.1497106607358654"><ele>676.0</ele><time>2026-04-18T16:38:15Z</time></trkpt><trkpt lat="45.3814819340095" lon="3.14952072359298"><ele>673.3333333333334</ele><time>2026-04-18T16:38:16Z</time></trkpt><trkpt lat="45.381569535361166" lon="3.1493422068200987"><ele>670.6666666666666</ele><time>2026-04-18T16:38:17Z</time></trkpt><trkpt lat="45.38167268050725" lon="3.149184211248959"><ele>668.0</ele><time>2026-04-18T16:38:18Z</time></trkpt><trkpt lat="45.38179327071539" lon="3.149046549793895"><ele>668.6666666666666</ele><time>2026-04-18T16:38:19Z</time></trkpt><trkpt lat="45.381934835080095" lon="3.148934678234396"><ele>669.3333333333334</ele><time>2026-04-18T16:38:20Z</time></trkpt><trkpt lat="45.38209066058831" lon="3.1488298231230702"><ele>670.0</ele><time>2026-04-18T16:38:21Z</time></trkpt><trkpt lat="45.38222634902795" lon="3.14870557199441"><ele>670.0</ele><time>2026-04-18T16:38:22Z</time></trkpt><trkpt lat="45.382372572002744" lon="3.148596186068201"><ele>670.0</ele><time>2026-04-18T16:38:23Z</time></trkpt><trkpt lat="45.38250031105784" lon="3.1484830698257578"><ele>670.0</ele><time>2026-04-18T16:38:24Z</time></trkpt><trkpt lat="45.382627605926736" lon="3.148361872591276"><ele>670.0</ele><time>2026-04-18T16:38:25Z</time></trkpt><trkpt lat="45.38275694394138" lon="3.1482420005627505"><ele>670.0</ele><time>2026-04-18T16:38:26Z</time></trkpt><trkpt lat="45.38287915088578" lon="3.148131433587946"><ele>670.0</ele><time>2026-04-18T16:38:27Z</time></trkpt><trkpt lat="45.38301362827535" lon="3.1480081599694794"><ele>671.3333333333334</ele><time>2026-04-18T16:38:28Z</time></trkpt><trkpt lat="45.38314179688266" lon="3.147886078729174"><ele>672.6666666666666</ele><time>2026-04-18T16:38:29Z</time></trkpt><trkpt lat="45.38327673144788" lon="3.147755128053147"><ele>674.0</ele><time>2026-04-18T16:38:30Z</time></trkpt><trkpt lat="45.38341667080998" lon="3.1476170014106812"><ele>674.0</ele><time>2026-04-18T16:38:31Z</time></trkpt><trkpt lat="45.38355454025952" lon="3.147481462894149"><ele>674.0</ele><time>2026-04-18T16:38:32Z</time></trkpt><trkpt lat="45.38369870566083" lon="3.1473437394133983"><ele>674.0</ele><time>2026-04-18T16:38:33Z</time></trkpt><trkpt lat="45.38384609871975" lon="3.147205557966966"><ele>676.3333333333333</ele><time>2026-04-18T16:38:34Z</time></trkpt><trkpt lat="45.38398900330934" lon="3.1470778720970176"><ele>678.6666666666666</ele><time>2026-04-18T16:38:35Z</time></trkpt><trkpt lat="45.384140316650885" lon="3.1469558038434466"><ele>681.0</ele><time>2026-04-18T16:38:36Z</time></trkpt><trkpt lat="45.38429711766995" lon="3.146838042042483"><ele>681.0</ele><time>2026-04-18T16:38:37Z</time></trkpt><trkpt lat="45.384460937424045" lon="3.146728735111467"><ele>681.0</ele><time>2026-04-18T16:38:38Z</time></trkpt><trkpt lat="45.384622977536345" lon="3.1466443883927497"><ele>681.0</ele><time>2026-04-18T16:38:39Z</time></trkpt><trkpt lat="45.384778571094124" lon="3.1465651214768244"><ele>683.3333333333334</ele><time>2026-04-18T16:38:40Z</time></trkpt><trkpt lat="45.38493635719197" lon="3.146482281510548"><ele>685.6666666666667</ele><time>2026-04-18T16:38:41Z</time></trkpt><trkpt lat="45.38510147962915" lon="3.146390433739419"><ele>688.0</ele><time>2026-04-18T16:38:42Z</time></trkpt><trkpt lat="45.385276150158035" lon="3.146299441943549"><ele>688.0</ele><time>2026-04-18T16:38:43Z</time></trkpt><trkpt lat="45.38544611745092" lon="3.146215094090078"><ele>688.0</ele><time>2026-04-18T16:38:44Z</time></trkpt><trkpt lat="45.385597009044986" lon="3.14613642088794"><ele>688.0</ele><time>2026-04-18T16:38:45Z</time></trkpt><trkpt lat="45.38572809619787" lon="3.1460660750426745"><ele>689.0</ele><time>2026-04-18T16:38:46Z</time></trkpt><trkpt lat="45.38585103705911" lon="3.1459938742156632"><ele>690.0</ele><time>2026-04-18T16:38:47Z</time></trkpt><trkpt lat="45.385964295463125" lon="3.1459148270255057"><ele>691.0</ele><time>2026-04-18T16:38:48Z</time></trkpt><trkpt lat="45.38607366882609" lon="3.1458137919116265"><ele>692.0</ele><time>2026-04-18T16:38:49Z</time></trkpt><trkpt lat="45.38618042539223" lon="3.1457016321393874"><ele>692.0</ele><time>2026-04-18T16:38:50Z</time></trkpt><trkpt lat="45.38629190842877" lon="3.1456131853231377"><ele>692.0</ele><time>2026-04-18T16:38:51Z</time></trkpt><trkpt lat="45.38642288255382" lon="3.1455493580194935"><ele>692.0</ele><time>2026-04-18T16:38:52Z</time></trkpt><trkpt lat="45.38656429133486" lon="3.145498035916934"><ele>692.0</ele><time>2026-04-18T16:38:53Z</time></trkpt><trkpt lat="45.386710286347046" lon="3.145460133419572"><ele>692.25</ele><time>2026-04-18T16:38:54Z</time></trkpt><trkpt lat="45.386848168932794" lon="3.145428090777331"><ele>692.5</ele><time>2026-04-18T16:38:55Z</time></trkpt><trkpt lat="45.38697405119413" lon="3.14539461520339"><ele>692.75</ele><time>2026-04-18T16:38:56Z</time></trkpt><trkpt lat="45.38710372595648" lon="3.1453616707302463"><ele>693.0</ele><time>2026-04-18T16:38:57Z</time></trkpt><trkpt lat="45.387234093468855" lon="3.145327833070149"><ele>693.0</ele><time>2026-04-18T16:38:58Z</time></trkpt><trkpt lat="45.38737311358022" lon="3.1452948726252705"><ele>693.0</ele><time>2026-04-18T16:38:59Z</time></trkpt><trkpt lat="45.387517768759714" lon="3.145263503755663"><ele>693.0</ele><time>2026-04-18T16:39:00Z</time></trkpt><trkpt lat="45.387658669115886" lon="3.145230677921507"><ele>693.0</ele><time>2026-04-18T16:39:01Z</time></trkpt><trkpt lat="45.387796711685674" lon="3.1451938236351737"><ele>693.0</ele><time>2026-04-18T16:39:02Z</time></trkpt><trkpt lat="45.38792911839482" lon="3.1451412724836505"><ele>693.0</ele><time>2026-04-18T16:39:03Z</time></trkpt><trkpt lat="45.38805260648704" lon="3.145066104072757"><ele>693.0</ele><time>2026-04-18T16:39:04Z</time></trkpt><trkpt lat="45.3881641644703" lon="3.144973870169055"><ele>693.0</ele><time>2026-04-18T16:39:05Z</time></trkpt><trkpt lat="45.38825763416809" lon="3.144882325338704"><ele>693.5999999999999</ele><time>2026-04-18T16:39:06Z</time></trkpt><trkpt lat="45.388350299360276" lon="3.144793915231826"><ele>694.1999999999999</ele><time>2026-04-18T16:39:07Z</time></trkpt><trkpt lat="45.388450385879636" lon="3.1447090942486775"><ele>694.8</ele><time>2026-04-18T16:39:08Z</time></trkpt><trkpt lat="45.38854269775721" lon="3.1446377619641885"><ele>695.4</ele><time>2026-04-18T16:39:09Z</time></trkpt><trkpt lat="45.38863323378462" lon="3.1445796279673828"><ele>696.0</ele><time>2026-04-18T16:39:10Z</time></trkpt><trkpt lat="45.38872383496361" lon="3.144544386262468"><ele>696.0</ele><time>2026-04-18T16:39:11Z</time></trkpt><trkpt lat="45.38881498210576" lon="3.1445149649590816"><ele>696.0</ele><time>2026-04-18T16:39:12Z</time></trkpt><trkpt lat="45.38889624401401" lon="3.1444848304217583"><ele>696.0</ele><time>2026-04-18T16:39:13Z</time></trkpt><trkpt lat="45.38897311774913" lon="3.144440776660359"><ele>696.0</ele><time>2026-04-18T16:39:14Z</time></trkpt><trkpt lat="45.3890381935549" lon="3.1443652876188337"><ele>696.0</ele><time>2026-04-18T16:39:15Z</time></trkpt><trkpt lat="45.38909632602604" lon="3.144260582336143"><ele>696.0</ele><time>2026-04-18T16:39:16Z</time></trkpt><trkpt lat="45.38914040629892" lon="3.1441413733676518"><ele>697.1999999999999</ele><time>2026-04-18T16:39:17Z</time></trkpt><trkpt lat="45.3891686929181" lon="3.144024855283118"><ele>698.4</ele><time>2026-04-18T16:39:18Z</time></trkpt><trkpt lat="45.38919964039631" lon="3.143897202528223"><ele>699.6</ele><time>2026-04-18T16:39:19Z</time></trkpt><trkpt lat="45.38924249321977" lon="3.1437718202811746"><ele>700.8</ele><time>2026-04-18T16:39:20Z</time></trkpt><trkpt lat="45.389285419816126" lon="3.143649446436384"><ele>702.0</ele><time>2026-04-18T16:39:21Z</time></trkpt><trkpt lat="45.38932594651238" lon="3.1435490181835952"><ele>702.0</ele><time>2026-04-18T16:39:22Z</time></trkpt><trkpt lat="45.38936691684225" lon="3.14344534699824"><ele>702.0</ele><time>2026-04-18T16:39:23Z</time></trkpt><trkpt lat="45.38940802886115" lon="3.143338149050825"><ele>702.0</ele><time>2026-04-18T16:39:24Z</time></trkpt><trkpt lat="45.38944721767489" lon="3.143214625299517"><ele>702.0</ele><time>2026-04-18T16:39:25Z</time></trkpt><trkpt lat="45.389473891403966" lon="3.143105475572544"><ele>702.0</ele><time>2026-04-18T16:39:26Z</time></trkpt><trkpt lat="45.389495133764385" lon="3.1429923761152803"><ele>702.0</ele><time>2026-04-18T16:39:27Z</time></trkpt><trkpt lat="45.38950854904782" lon="3.142885402666864"><ele>701.8</ele><time>2026-04-18T16:39:28Z</time></trkpt><trkpt lat="45.38952119493579" lon="3.142756184056857"><ele>701.6</ele><time>2026-04-18T16:39:29.001Z</time></trkpt><trkpt lat="45.3895327452012" lon="3.1426186656897626"><ele>701.4</ele><time>2026-04-18T16:39:30.001Z</time></trkpt><trkpt lat="45.38957600282103" lon="3.142476245635345"><ele>701.1999999999999</ele><time>2026-04-18T16:39:31.001Z</time></trkpt><trkpt lat="45.38964177310618" lon="3.142338370444165"><ele>701.0</ele><time>2026-04-18T16:39:32.001Z</time></trkpt><trkpt lat="45.38974500049963" lon="3.1422213321436914"><ele>698.6666666666666</ele><time>2026-04-18T16:39:33.001Z</time></trkpt><trkpt lat="45.3898821413502" lon="3.142088127439711"><ele>696.3333333333334</ele><time>2026-04-18T16:39:34.001Z</time></trkpt><trkpt lat="45.390043328962605" lon="3.1418979114901027"><ele>694.0</ele><time>2026-04-18T16:39:35.001Z</time></trkpt><trkpt lat="45.39019144937467" lon="3.1416770889433963"><ele>691.0</ele><time>2026-04-18T16:39:36.001Z</time></trkpt><trkpt lat="45.39032124377571" lon="3.1413854429863908"><ele>688.0</ele><time>2026-04-18T16:39:37.001Z</time></trkpt><trkpt lat="45.390454543038665" lon="3.1410686533031416"><ele>689.0</ele><time>2026-04-18T16:39:38.001Z</time></trkpt><trkpt lat="45.3906096261726" lon="3.14082593435679"><ele>690.0</ele><time>2026-04-18T16:39:39.001Z</time></trkpt><trkpt lat="45.39076406539343" lon="3.1406250241221074"><ele>691.0</ele><time>2026-04-18T16:39:40.001Z</time></trkpt><trkpt lat="45.39096294824489" lon="3.140443829678796"><ele>686.5</ele><time>2026-04-18T16:39:41.001Z</time></trkpt><trkpt lat="45.391183731526795" lon="3.140230173901687"><ele>682.0</ele><time>2026-04-18T16:39:42.001Z</time></trkpt><trkpt lat="45.39141423154331" lon="3.1400387477029073"><ele>682.0</ele><time>2026-04-18T16:39:43.001Z</time></trkpt><trkpt lat="45.39160871269701" lon="3.1398873470393145"><ele>682.0</ele><time>2026-04-18T16:39:44.001Z</time></trkpt><trkpt lat="45.391782603325154" lon="3.1398288863079657"><ele>682.0</ele><time>2026-04-18T16:39:45.001Z</time></trkpt><trkpt lat="45.391919009717604" lon="3.1397359180201763"><ele>680.75</ele><time>2026-04-18T16:39:46.001Z</time></trkpt><trkpt lat="45.39203474710706" lon="3.139653553924392"><ele>679.5</ele><time>2026-04-18T16:39:47.001Z</time></trkpt><trkpt lat="45.392107749967614" lon="3.1394978268976494"><ele>678.25</ele><time>2026-04-18T16:39:48.001Z</time></trkpt><trkpt lat="45.39215721457903" lon="3.139260851476149"><ele>677.0</ele><time>2026-04-18T16:39:49.001Z</time></trkpt><trkpt lat="45.39218022660605" lon="3.1389735111881314"><ele>677.0</ele><time>2026-04-18T16:39:50.001Z</time></trkpt><trkpt lat="45.39223745877179" lon="3.1386820400248494"><ele>677.0</ele><time>2026-04-18T16:39:51.001Z</time></trkpt><trkpt lat="45.39232878628072" lon="3.138427810534285"><ele>677.0</ele><time>2026-04-18T16:39:52.001Z</time></trkpt><trkpt lat="45.39244067031836" lon="3.138204130267424"><ele>673.0</ele><time>2026-04-18T16:39:53Z</time></trkpt><trkpt lat="45.39257319885004" lon="3.1379999159902967"><ele>669.0</ele><time>2026-04-18T16:39:54Z</time></trkpt><trkpt lat="45.392717826836524" lon="3.137812604910383"><ele>665.0</ele><time>2026-04-18T16:39:55Z</time></trkpt><trkpt lat="45.39288380901293" lon="3.137668401337156"><ele>666.3333333333333</ele><time>2026-04-18T16:39:56Z</time></trkpt><trkpt lat="45.39305930854813" lon="3.1375424857970153"><ele>667.6666666666666</ele><time>2026-04-18T16:39:57Z</time></trkpt><trkpt lat="45.393225058719445" lon="3.1374109135904473"><ele>669.0</ele><time>2026-04-18T16:39:58Z</time></trkpt><trkpt lat="45.393395096224346" lon="3.1373058875054225"><ele>665.6666666666666</ele><time>2026-04-18T16:39:59Z</time></trkpt><trkpt lat="45.39354924516792" lon="3.1371867282507666"><ele>662.3333333333333</ele><time>2026-04-18T16:40:00Z</time></trkpt><trkpt lat="45.393687958525966" lon="3.137043079645682"><ele>659.0</ele><time>2026-04-18T16:40:01Z</time></trkpt><trkpt lat="45.39381767897829" lon="3.1368900947422147"><ele>660.6666666666666</ele><time>2026-04-18T16:40:02Z</time></trkpt><trkpt lat="45.39395238686601" lon="3.136743005957624"><ele>662.3333333333334</ele><time>2026-04-18T16:40:03Z</time></trkpt><trkpt lat="45.394100472677806" lon="3.136616734548527"><ele>664.0</ele><time>2026-04-18T16:40:04Z</time></trkpt><trkpt lat="45.394259026089145" lon="3.1365009876496224"><ele>660.6666666666667</ele><time>2026-04-18T16:40:05Z</time></trkpt><trkpt lat="45.394421840909715" lon="3.1363813888715155"><ele>657.3333333333334</ele><time>2026-04-18T16:40:06Z</time></trkpt><trkpt lat="45.39458814671422" lon="3.136256445724983"><ele>654.0</ele><time>2026-04-18T16:40:07Z</time></trkpt><trkpt lat="45.39476534796061" lon="3.1361327660984983"><ele>653.3333333333334</ele><time>2026-04-18T16:40:08Z</time></trkpt><trkpt lat="45.39495625926013" lon="3.1360436036496053"><ele>652.6666666666667</ele><time>2026-04-18T16:40:09Z</time></trkpt><trkpt lat="45.395156308310156" lon="3.1359487092873506"><ele>652.0</ele><time>2026-04-18T16:40:10Z</time></trkpt><trkpt lat="45.3953397882461" lon="3.1358186072810073"><ele>651.0</ele><time>2026-04-18T16:40:11Z</time></trkpt><trkpt lat="45.39550327633443" lon="3.1356817668906825"><ele>650.0</ele><time>2026-04-18T16:40:12Z</time></trkpt><trkpt lat="45.395685346697206" lon="3.1356003111642945"><ele>649.0</ele><time>2026-04-18T16:40:13Z</time></trkpt><trkpt lat="45.39585856721238" lon="3.135520748033952"><ele>648.3333333333334</ele><time>2026-04-18T16:40:14Z</time></trkpt><trkpt lat="45.396018915649684" lon="3.1354330296831554"><ele>647.6666666666666</ele><time>2026-04-18T16:40:15Z</time></trkpt><trkpt lat="45.396162423606924" lon="3.1352756202307743"><ele>647.0</ele><time>2026-04-18T16:40:16Z</time></trkpt><trkpt lat="45.39629566669653" lon="3.135051593655316"><ele>645.0</ele><time>2026-04-18T16:40:17Z</time></trkpt><trkpt lat="45.39642210349895" lon="3.134840279189838"><ele>643.0</ele><time>2026-04-18T16:40:18Z</time></trkpt><trkpt lat="45.39655554979371" lon="3.134683104192369"><ele>641.0</ele><time>2026-04-18T16:40:19Z</time></trkpt><trkpt lat="45.39669324140668" lon="3.1345317887027493"><ele>641.0</ele><time>2026-04-18T16:40:20Z</time></trkpt><trkpt lat="45.396827569003655" lon="3.1343862103323534"><ele>641.0</ele><time>2026-04-18T16:40:21Z</time></trkpt><trkpt lat="45.39693996109141" lon="3.1342368944103165"><ele>641.0</ele><time>2026-04-18T16:40:22Z</time></trkpt><trkpt lat="45.39705233071781" lon="3.134109821452497"><ele>641.0</ele><time>2026-04-18T16:40:23Z</time></trkpt><trkpt lat="45.39714965595421" lon="3.133971738790291"><ele>641.0</ele><time>2026-04-18T16:40:24Z</time></trkpt><trkpt lat="45.397226457195075" lon="3.1338147301329173"><ele>641.0</ele><time>2026-04-18T16:40:25Z</time></trkpt><trkpt lat="45.39728775043237" lon="3.1336543937221797"><ele>641.0</ele><time>2026-04-18T16:40:26Z</time></trkpt><trkpt lat="45.397349637827716" lon="3.133495923366672"><ele>640.0</ele><time>2026-04-18T16:40:27Z</time></trkpt><trkpt lat="45.39741668020371" lon="3.1333568028139314"><ele>639.0</ele><time>2026-04-18T16:40:28Z</time></trkpt><trkpt lat="45.397486044263054" lon="3.1332206759764167"><ele>638.0</ele><time>2026-04-18T16:40:29Z</time></trkpt><trkpt lat="45.39753868770379" lon="3.1330751144606652"><ele>637.0</ele><time>2026-04-18T16:40:30Z</time></trkpt><trkpt lat="45.39757236325471" lon="3.1329134082069703"><ele>637.0</ele><time>2026-04-18T16:40:31Z</time></trkpt><trkpt lat="45.39759531649545" lon="3.1327444408674"><ele>637.0</ele><time>2026-04-18T16:40:32Z</time></trkpt><trkpt lat="45.39762302368945" lon="3.132572505526048"><ele>637.0</ele><time>2026-04-18T16:40:33Z</time></trkpt><trkpt lat="45.397657262906044" lon="3.1323905361043303"><ele>637.0</ele><time>2026-04-18T16:40:34Z</time></trkpt><trkpt lat="45.397702887722936" lon="3.132197973015833"><ele>637.0</ele><time>2026-04-18T16:40:35Z</time></trkpt><trkpt lat="45.397770069244714" lon="3.1320132508231224"><ele>637.0</ele><time>2026-04-18T16:40:36Z</time></trkpt><trkpt lat="45.39783744710465" lon="3.131833569323218"><ele>637.0</ele><time>2026-04-18T16:40:37Z</time></trkpt><trkpt lat="45.39789770674654" lon="3.1316339453811795"><ele>637.0</ele><time>2026-04-18T16:40:38Z</time></trkpt><trkpt lat="45.39797051109638" lon="3.131465204738516"><ele>635.0</ele><time>2026-04-18T16:40:39Z</time></trkpt><trkpt lat="45.398015171044506" lon="3.131288610895292"><ele>633.0</ele><time>2026-04-18T16:40:40Z</time></trkpt><trkpt lat="45.398033848936116" lon="3.1311057626403325"><ele>631.0</ele><time>2026-04-18T16:40:41Z</time></trkpt><trkpt lat="45.39806720613572" lon="3.130928590068548"><ele>629.0</ele><time>2026-04-18T16:40:42Z</time></trkpt><trkpt lat="45.3981023558697" lon="3.1307331469393325"><ele>628.0</ele><time>2026-04-18T16:40:43Z</time></trkpt><trkpt lat="45.3981382550538" lon="3.1305398989018967"><ele>627.0</ele><time>2026-04-18T16:40:44Z</time></trkpt><trkpt lat="45.39819289284797" lon="3.130349269621052"><ele>626.0</ele><time>2026-04-18T16:40:45Z</time></trkpt><trkpt lat="45.39824404286494" lon="3.130161081615179"><ele>625.0</ele><time>2026-04-18T16:40:46Z</time></trkpt><trkpt lat="45.39829751678992" lon="3.1299762356276672"><ele>625.25</ele><time>2026-04-18T16:40:47Z</time></trkpt><trkpt lat="45.398351560233266" lon="3.129804035443655"><ele>625.5</ele><time>2026-04-18T16:40:48Z</time></trkpt><trkpt lat="45.39841612867594" lon="3.129662270354986"><ele>625.75</ele><time>2026-04-18T16:40:49Z</time></trkpt><trkpt lat="45.39851335046203" lon="3.129580491569833"><ele>626.0</ele><time>2026-04-18T16:40:50Z</time></trkpt><trkpt lat="45.39859360827322" lon="3.129482371218281"><ele>626.0</ele><time>2026-04-18T16:40:51Z</time></trkpt><trkpt lat="45.39867269693425" lon="3.129425420375384"><ele>626.0</ele><time>2026-04-18T16:40:52Z</time></trkpt><trkpt lat="45.398745631233965" lon="3.12935213161558"><ele>626.0</ele><time>2026-04-18T16:40:53Z</time></trkpt><trkpt lat="45.398806997356075" lon="3.1292593541061144"><ele>626.0</ele><time>2026-04-18T16:40:54Z</time></trkpt><trkpt lat="45.39886118193972" lon="3.129144322981648"><ele>626.0</ele><time>2026-04-18T16:40:55Z</time></trkpt><trkpt lat="45.39890132174694" lon="3.1290189525192913"><ele>626.4</ele><time>2026-04-18T16:40:56Z</time></trkpt><trkpt lat="45.398922972096926" lon="3.1288841774129463"><ele>626.8</ele><time>2026-04-18T16:40:57Z</time></trkpt><trkpt lat="45.39893743755823" lon="3.128739523089788"><ele>627.1999999999999</ele><time>2026-04-18T16:40:58Z</time></trkpt><trkpt lat="45.3989508617721" lon="3.128592881637547"><ele>627.6</ele><time>2026-04-18T16:40:59Z</time></trkpt><trkpt lat="45.39896747856113" lon="3.1284514061191837"><ele>628.0</ele><time>2026-04-18T16:41:00Z</time></trkpt><trkpt lat="45.399007899537004" lon="3.12831542720743"><ele>630.5999999999999</ele><time>2026-04-18T16:41:01Z</time></trkpt><trkpt lat="45.39907396440702" lon="3.12818828032737"><ele>633.1999999999999</ele><time>2026-04-18T16:41:02Z</time></trkpt><trkpt lat="45.39914575653975" lon="3.1280749205098535"><ele>635.8</ele><time>2026-04-18T16:41:03Z</time></trkpt><trkpt lat="45.3992182686215" lon="3.127962053757689"><ele>638.4</ele><time>2026-04-18T16:41:04Z</time></trkpt><trkpt lat="45.39928711137312" lon="3.1278425228804974"><ele>641.0</ele><time>2026-04-18T16:41:05Z</time></trkpt><trkpt lat="45.399347218409275" lon="3.127706772354661"><ele>641.0</ele><time>2026-04-18T16:41:06Z</time></trkpt><trkpt lat="45.39939568600835" lon="3.127542561926039"><ele>641.0</ele><time>2026-04-18T16:41:07Z</time></trkpt><trkpt lat="45.39944227564148" lon="3.127362045012926"><ele>641.0</ele><time>2026-04-18T16:41:08Z</time></trkpt><trkpt lat="45.39950112727709" lon="3.127171851354191"><ele>641.0</ele><time>2026-04-18T16:41:09Z</time></trkpt><trkpt lat="45.3995877071375" lon="3.1269749573346988"><ele>641.3333333333333</ele><time>2026-04-18T16:41:10Z</time></trkpt><trkpt lat="45.39971243045666" lon="3.1267909902684328"><ele>641.6666666666666</ele><time>2026-04-18T16:41:11Z</time></trkpt><trkpt lat="45.39984580419994" lon="3.126653481884772"><ele>642.0</ele><time>2026-04-18T16:41:12Z</time></trkpt><trkpt lat="45.39997406293498" lon="3.126578234059437"><ele>642.0</ele><time>2026-04-18T16:41:13Z</time></trkpt><trkpt lat="45.40009903559479" lon="3.1265615931606408"><ele>642.0</ele><time>2026-04-18T16:41:14Z</time></trkpt><trkpt lat="45.40020632274819" lon="3.126517093271263"><ele>642.0</ele><time>2026-04-18T16:41:15Z</time></trkpt><trkpt lat="45.40031193386309" lon="3.126488912948175"><ele>642.0</ele><time>2026-04-18T16:41:16Z</time></trkpt><trkpt lat="45.400412141148976" lon="3.1264583191398896"><ele>642.0</ele><time>2026-04-18T16:41:17Z</time></trkpt><trkpt lat="45.40051481551251" lon="3.126421953381761"><ele>642.6</ele><time>2026-04-18T16:41:18Z</time></trkpt><trkpt lat="45.40061995667291" lon="3.1263811809373467"><ele>643.2</ele><time>2026-04-18T16:41:19Z</time></trkpt><trkpt lat="45.40071471229732" lon="3.1263315621394168"><ele>643.8</ele><time>2026-04-18T16:41:20Z</time></trkpt><trkpt lat="45.40079706048535" lon="3.1262679397771174"><ele>644.4</ele><time>2026-04-18T16:41:21Z</time></trkpt><trkpt lat="45.40087530507961" lon="3.1261948584593964"><ele>645.0</ele><time>2026-04-18T16:41:22Z</time></trkpt><trkpt lat="45.40094296501176" lon="3.1261198398624708"><ele>645.0</ele><time>2026-04-18T16:41:23Z</time></trkpt><trkpt lat="45.4010045395162" lon="3.1260438461331423"><ele>645.0</ele><time>2026-04-18T16:41:24Z</time></trkpt><trkpt lat="45.40106674546532" lon="3.1259727549931275"><ele>645.0</ele><time>2026-04-18T16:41:25Z</time></trkpt><trkpt lat="45.401127619636085" lon="3.125910195556248"><ele>645.0</ele><time>2026-04-18T16:41:26Z</time></trkpt><trkpt lat="45.401203545542764" lon="3.125871989323313"><ele>645.0</ele><time>2026-04-18T16:41:27Z</time></trkpt><trkpt lat="45.401263564815984" lon="3.1258093370875417"><ele>645.0</ele><time>2026-04-18T16:41:28Z</time></trkpt><trkpt lat="45.401326778581826" lon="3.1257709598909362"><ele>643.0</ele><time>2026-04-18T16:41:29Z</time></trkpt><trkpt lat="45.40143244426755" lon="3.1257004252894225"><ele>641.0</ele><time>2026-04-18T16:41:31Z</time></trkpt><trkpt lat="45.40152998475005" lon="3.1256226553607105"><ele>639.0</ele><time>2026-04-18T16:41:33Z</time></trkpt><trkpt lat="45.401594661040996" lon="3.125574249786407"><ele>637.0</ele><time>2026-04-18T16:41:35Z</time></trkpt><trkpt lat="45.401651736982146" lon="3.125527537086812"><ele>635.0</ele><time>2026-04-18T16:41:37Z</time></trkpt><trkpt lat="45.40173350683587" lon="3.1254602377404908"><ele>635.0</ele><time>2026-04-18T16:41:40Z</time></trkpt><trkpt lat="45.40180785657448" lon="3.1254008966606563"><ele>635.0</ele><time>2026-04-18T16:41:43.001Z</time></trkpt><trkpt lat="45.40176902428539" lon="3.125252378564919"><ele>635.0</ele><time>2026-04-18T16:41:46.001Z</time></trkpt><trkpt lat="45.401721672862394" lon="3.125181991227754"><ele>635.0</ele><time>2026-04-18T16:41:48.001Z</time></trkpt><trkpt lat="45.40168148477941" lon="3.1251127541889936"><ele>635.0</ele><time>2026-04-18T16:41:50.001Z</time></trkpt><trkpt lat="45.40163847494887" lon="3.1250309687734927"><ele>635.0</ele><time>2026-04-18T16:41:52.001Z</time></trkpt><trkpt lat="45.40161538231806" lon="3.124930386264744"><ele>635.6666666666666</ele><time>2026-04-18T16:41:54.001Z</time></trkpt><trkpt lat="45.40163385062231" lon="3.124826022147594"><ele>636.3333333333333</ele><time>2026-04-18T16:41:56.001Z</time></trkpt><trkpt lat="45.40168563111392" lon="3.1247466046794603"><ele>637.0</ele><time>2026-04-18T16:41:58.001Z</time></trkpt><trkpt lat="45.401767210626765" lon="3.1246858050887862"><ele>637.6666666666666</ele><time>2026-04-18T16:42:00Z</time></trkpt><trkpt lat="45.40184600201142" lon="3.124634188368307"><ele>638.3333333333334</ele><time>2026-04-18T16:42:02Z</time></trkpt><trkpt lat="45.40191570206018" lon="3.124610890390643"><ele>639.0</ele><time>2026-04-18T16:42:04Z</time></trkpt><trkpt lat="45.40198306139547" lon="3.1245873349100464"><ele>639.0</ele><time>2026-04-18T16:42:06Z</time></trkpt><trkpt lat="45.40205869924093" lon="3.1245631107341745"><ele>639.0</ele><time>2026-04-18T16:42:08Z</time></trkpt><trkpt lat="45.40214901388592" lon="3.124550778680048"><ele>639.0</ele><time>2026-04-18T16:42:10Z</time></trkpt><trkpt lat="45.402247339644504" lon="3.1245852175223146"><ele>639.0</ele><time>2026-04-18T16:42:12Z</time></trkpt><trkpt lat="45.40230223165159" lon="3.124636865591208"><ele>639.0</ele><time>2026-04-18T16:42:13Z</time></trkpt><trkpt lat="45.40240483293573" lon="3.124711391987524"><ele>638.6666666666666</ele><time>2026-04-18T16:42:15Z</time></trkpt><trkpt lat="45.4024914919904" lon="3.124779207613702"><ele>638.3333333333334</ele><time>2026-04-18T16:42:17Z</time></trkpt><trkpt lat="45.40257619259337" lon="3.124821047790547"><ele>638.0</ele><time>2026-04-18T16:42:19Z</time></trkpt><trkpt lat="45.40264439948176" lon="3.1248435737766447"><ele>637.6666666666667</ele><time>2026-04-18T16:42:21Z</time></trkpt><trkpt lat="45.40271825454841" lon="3.1249032100644305"><ele>637.3333333333334</ele><time>2026-04-18T16:42:24Z</time></trkpt><trkpt lat="45.402776592506" lon="3.1249754772963256"><ele>637.0</ele><time>2026-04-18T16:42:26Z</time></trkpt><trkpt lat="45.40285269995366" lon="3.1250798255650287"><ele>636.6</ele><time>2026-04-18T16:42:28Z</time></trkpt><trkpt lat="45.402916959997405" lon="3.125167064679485"><ele>636.2</ele><time>2026-04-18T16:42:30Z</time></trkpt><trkpt lat="45.40298528938859" lon="3.1252577063242675"><ele>635.8</ele><time>2026-04-18T16:42:32Z</time></trkpt><trkpt lat="45.40305653251423" lon="3.1253518515041168"><ele>635.4</ele><time>2026-04-18T16:42:34Z</time></trkpt><trkpt lat="45.403137500649905" lon="3.125464741106636"><ele>635.0</ele><time>2026-04-18T16:42:36Z</time></trkpt><trkpt lat="45.403187494555944" lon="3.1255290662235997"><ele>634.2</ele><time>2026-04-18T16:42:37Z</time></trkpt><trkpt lat="45.403249640789326" lon="3.1255990089789454"><ele>633.4</ele><time>2026-04-18T16:42:38Z</time></trkpt><trkpt lat="45.40331573087606" lon="3.1256722908470302"><ele>632.6</ele><time>2026-04-18T16:42:39Z</time></trkpt><trkpt lat="45.403381185964584" lon="3.1257578242111133"><ele>631.8</ele><time>2026-04-18T16:42:40Z</time></trkpt><trkpt lat="45.403445274878344" lon="3.1258671935658957"><ele>631.0</ele><time>2026-04-18T16:42:41Z</time></trkpt><trkpt lat="45.40352677494705" lon="3.125964919438863"><ele>631.0</ele><time>2026-04-18T16:42:42Z</time></trkpt><trkpt lat="45.4036185650458" lon="3.1260557120768"><ele>631.0</ele><time>2026-04-18T16:42:43Z</time></trkpt><trkpt lat="45.40370085231491" lon="3.12615957478154"><ele>631.0</ele><time>2026-04-18T16:42:44Z</time></trkpt><trkpt lat="45.403466961066236" lon="3.1258702614793887"><ele>631.0</ele><time>2026-04-18T16:42:45Z</time></trkpt><trkpt lat="45.40350784724147" lon="3.1259385030231446"><ele>631.0</ele><time>2026-04-18T16:42:47Z</time></trkpt><trkpt lat="45.40358471698177" lon="3.1259999712457813"><ele>631.0</ele><time>2026-04-18T16:42:49Z</time></trkpt><trkpt lat="45.40365847422241" lon="3.1260889089669734"><ele>631.0</ele><time>2026-04-18T16:42:51Z</time></trkpt><trkpt lat="45.40374888906038" lon="3.1261924069503872"><ele>631.0</ele><time>2026-04-18T16:42:53Z</time></trkpt><trkpt lat="45.40383529300427" lon="3.1263276561484403"><ele>630.4</ele><time>2026-04-18T16:42:55Z</time></trkpt><trkpt lat="45.40388782061264" lon="3.1263887242059445"><ele>629.8</ele><time>2026-04-18T16:42:56Z</time></trkpt><trkpt lat="45.40397995368336" lon="3.1264995383721814"><ele>629.1999999999999</ele><time>2026-04-18T16:42:58Z</time></trkpt><trkpt lat="45.40405974798954" lon="3.1265990199343525"><ele>628.6</ele><time>2026-04-18T16:43:00Z</time></trkpt><trkpt lat="45.40413159914693" lon="3.1266797684890717"><ele>628.0</ele><time>2026-04-18T16:43:02Z</time></trkpt><trkpt lat="45.404200102700074" lon="3.1267697544452857"><ele>628.0</ele><time>2026-04-18T16:43:04Z</time></trkpt><trkpt lat="45.40426969349173" lon="3.1268435853977348"><ele>628.0</ele><time>2026-04-18T16:43:06Z</time></trkpt><trkpt lat="45.404327444117854" lon="3.126919628193798"><ele>628.0</ele><time>2026-04-18T16:43:08Z</time></trkpt><trkpt lat="45.404388019423564" lon="3.126995638761903"><ele>628.0</ele><time>2026-04-18T16:43:10Z</time></trkpt><trkpt lat="45.40446317735519" lon="3.127081236910925"><ele>628.0</ele><time>2026-04-18T16:43:12Z</time></trkpt><trkpt lat="45.404551961315974" lon="3.127214567794522"><ele>628.0</ele><time>2026-04-18T16:43:14Z</time></trkpt><trkpt lat="45.40461626279308" lon="3.1272645911925494"><ele>628.0</ele><time>2026-04-18T16:43:15Z</time></trkpt><trkpt lat="45.404676121909176" lon="3.1273426727045774"><ele>628.0</ele><time>2026-04-18T16:43:16Z</time></trkpt><trkpt lat="45.404735117796044" lon="3.1274240052935913"><ele>628.0</ele><time>2026-04-18T16:43:17Z</time></trkpt><trkpt lat="45.404793982335825" lon="3.1274911846380653"><ele>628.0</ele><time>2026-04-18T16:43:18Z</time></trkpt><trkpt lat="45.40490537792425" lon="3.127634659166282"><ele>627.0</ele><time>2026-04-18T16:43:20Z</time></trkpt><trkpt lat="45.40496788985536" lon="3.1276984460164714"><ele>626.0</ele><time>2026-04-18T16:43:21Z</time></trkpt><trkpt lat="45.40503412203583" lon="3.1277622698782883"><ele>625.0</ele><time>2026-04-18T16:43:22Z</time></trkpt><trkpt lat="45.40510597553769" lon="3.127827411075946"><ele>624.0</ele><time>2026-04-18T16:43:23Z</time></trkpt><trkpt lat="45.405184002589124" lon="3.1278918913921845"><ele>623.0</ele><time>2026-04-18T16:43:24Z</time></trkpt><trkpt lat="45.40526999972905" lon="3.127957993252778"><ele>622.0</ele><time>2026-04-18T16:43:25Z</time></trkpt><trkpt lat="45.40535394133371" lon="3.128008659292589"><ele>622.0</ele><time>2026-04-18T16:43:26Z</time></trkpt><trkpt lat="45.40543154387682" lon="3.1280624788908638"><ele>622.0</ele><time>2026-04-18T16:43:27Z</time></trkpt><trkpt lat="45.40550283257003" lon="3.1281091174937905"><ele>622.0</ele><time>2026-04-18T16:43:28Z</time></trkpt><trkpt lat="45.40557826351317" lon="3.128153702527196"><ele>622.0</ele><time>2026-04-18T16:43:29Z</time></trkpt><trkpt lat="45.40565267242128" lon="3.1282007096128637"><ele>622.0</ele><time>2026-04-18T16:43:30Z</time></trkpt><trkpt lat="45.4057528440682" lon="3.1282642062819472"><ele>622.0</ele><time>2026-04-18T16:43:32Z</time></trkpt><trkpt lat="45.4058106971062" lon="3.128302824481193"><ele>619.25</ele><time>2026-04-18T16:43:36Z</time></trkpt><trkpt lat="45.40588420964441" lon="3.1283434985891225"><ele>616.5</ele><time>2026-04-18T16:43:40Z</time></trkpt><trkpt lat="45.405946425631875" lon="3.1281231698522927"><ele>613.75</ele><time>2026-04-18T16:43:42Z</time></trkpt><trkpt lat="45.40596193930243" lon="3.1279383576306534"><ele>611.0</ele><time>2026-04-18T16:43:44Z</time></trkpt><trkpt lat="45.40594604070241" lon="3.127821031777193"><ele>610.2</ele><time>2026-04-18T16:43:45Z</time></trkpt><trkpt lat="45.405891872572006" lon="3.1277166060607424"><ele>609.4000000000001</ele><time>2026-04-18T16:43:46Z</time></trkpt><trkpt lat="45.40580815023238" lon="3.127629580656852"><ele>608.6</ele><time>2026-04-18T16:43:47Z</time></trkpt><trkpt lat="45.40572318171214" lon="3.127554934495392"><ele>607.8000000000001</ele><time>2026-04-18T16:43:48Z</time></trkpt><trkpt lat="45.40563758929969" lon="3.1274587200054116"><ele>607.0</ele><time>2026-04-18T16:43:49Z</time></trkpt><trkpt lat="45.40555310513358" lon="3.1273508193782216"><ele>609.6666666666667</ele><time>2026-04-18T16:43:50Z</time></trkpt><trkpt lat="45.405472410518556" lon="3.1272300053051016"><ele>612.3333333333334</ele><time>2026-04-18T16:43:51Z</time></trkpt><trkpt lat="45.40533089637111" lon="3.1269494157383813"><ele>615.0</ele><time>2026-04-18T16:43:53Z</time></trkpt><trkpt lat="45.405281680266945" lon="3.126779795621645"><ele>615.0</ele><time>2026-04-18T16:43:54Z</time></trkpt><trkpt lat="45.40521113698303" lon="3.1266384272467733"><ele>615.0</ele><time>2026-04-18T16:43:55Z</time></trkpt><trkpt lat="45.40516875802935" lon="3.1264877230117762"><ele>615.0</ele><time>2026-04-18T16:43:56Z</time></trkpt><trkpt lat="45.40513933553219" lon="3.126333345676599"><ele>615.0</ele><time>2026-04-18T16:43:57Z</time></trkpt><trkpt lat="45.40511769005772" lon="3.126180043755679"><ele>613.6</ele><time>2026-04-18T16:43:58Z</time></trkpt><trkpt lat="45.405095352513406" lon="3.1260284320856333"><ele>612.2</ele><time>2026-04-18T16:43:59Z</time></trkpt><trkpt lat="45.405105308455546" lon="3.125871099939474"><ele>610.8</ele><time>2026-04-18T16:44:00Z</time></trkpt><trkpt lat="45.405088930832676" lon="3.1257204410782795"><ele>609.4</ele><time>2026-04-18T16:44:01Z</time></trkpt><trkpt lat="45.40509348301735" lon="3.125577079537617"><ele>608.0</ele><time>2026-04-18T16:44:02Z</time></trkpt><trkpt lat="45.40508291174922" lon="3.1254540260961723"><ele>607.1666666666666</ele><time>2026-04-18T16:44:03Z</time></trkpt><trkpt lat="45.40506024395453" lon="3.1253422253957233"><ele>606.3333333333333</ele><time>2026-04-18T16:44:04Z</time></trkpt><trkpt lat="45.40501564640194" lon="3.1252342046089168"><ele>605.5</ele><time>2026-04-18T16:44:05Z</time></trkpt><trkpt lat="45.40496533067958" lon="3.1251394954514784"><ele>604.6666666666666</ele><time>2026-04-18T16:44:06Z</time></trkpt><trkpt lat="45.40494404479205" lon="3.1250196158332466"><ele>603.8333333333334</ele><time>2026-04-18T16:44:07Z</time></trkpt><trkpt lat="45.40492972627226" lon="3.124895799405453"><ele>603.0</ele><time>2026-04-18T16:44:08Z</time></trkpt><trkpt lat="45.404937131680846" lon="3.1247715493874635"><ele>602.8</ele><time>2026-04-18T16:44:09Z</time></trkpt><trkpt lat="45.404974704964545" lon="3.1246447545006695"><ele>602.5999999999999</ele><time>2026-04-18T16:44:10Z</time></trkpt><trkpt lat="45.40499776380079" lon="3.1245001472183644"><ele>602.4000000000001</ele><time>2026-04-18T16:44:11Z</time></trkpt><trkpt lat="45.40504393416797" lon="3.1243562017763313"><ele>602.2</ele><time>2026-04-18T16:44:12Z</time></trkpt><trkpt lat="45.405085706468064" lon="3.124216309892282"><ele>602.0</ele><time>2026-04-18T16:44:13Z</time></trkpt><trkpt lat="45.4051182075028" lon="3.12409067640391"><ele>602.1666666666666</ele><time>2026-04-18T16:44:14Z</time></trkpt><trkpt lat="45.40514211478334" lon="3.123973341347904"><ele>602.3333333333333</ele><time>2026-04-18T16:44:15Z</time></trkpt><trkpt lat="45.405158304131206" lon="3.1238577774492557"><ele>602.5</ele><time>2026-04-18T16:44:16Z</time></trkpt><trkpt lat="45.405168809499294" lon="3.123740873217949"><ele>602.6666666666666</ele><time>2026-04-18T16:44:17Z</time></trkpt><trkpt lat="45.40517446877444" lon="3.123625106741151"><ele>602.8333333333334</ele><time>2026-04-18T16:44:18Z</time></trkpt><trkpt lat="45.40516625696777" lon="3.123502720887987"><ele>603.0</ele><time>2026-04-18T16:44:19Z</time></trkpt><trkpt lat="45.40516235216725" lon="3.1233608339788104"><ele>603.0</ele><time>2026-04-18T16:44:20Z</time></trkpt><trkpt lat="45.405157831977924" lon="3.1232171112443767"><ele>603.0</ele><time>2026-04-18T16:44:21Z</time></trkpt><trkpt lat="45.405158356510135" lon="3.123060240672017"><ele>603.0</ele><time>2026-04-18T16:44:22Z</time></trkpt><trkpt lat="45.405161567686434" lon="3.122907922283766"><ele>603.0</ele><time>2026-04-18T16:44:23Z</time></trkpt><trkpt lat="45.4051602024662" lon="3.122765476228287"><ele>603.0</ele><time>2026-04-18T16:44:24Z</time></trkpt><trkpt lat="45.40515743640034" lon="3.122640083344869"><ele>603.0</ele><time>2026-04-18T16:44:25Z</time></trkpt><trkpt lat="45.40515173471924" lon="3.1225185800486175"><ele>603.0</ele><time>2026-04-18T16:44:26Z</time></trkpt><trkpt lat="45.40514501305784" lon="3.122401719047345"><ele>603.0</ele><time>2026-04-18T16:44:27Z</time></trkpt><trkpt lat="45.40515360143256" lon="3.1222962432297154"><ele>603.0</ele><time>2026-04-18T16:44:28Z</time></trkpt><trkpt lat="45.40525934722301" lon="3.122175689186651"><ele>603.0</ele><time>2026-04-18T16:44:30Z</time></trkpt><trkpt lat="45.40531643474169" lon="3.122124107961947"><ele>603.0</ele><time>2026-04-18T16:44:31Z</time></trkpt><trkpt lat="45.40538127813115" lon="3.12208167497876"><ele>603.0</ele><time>2026-04-18T16:44:32Z</time></trkpt><trkpt lat="45.405446319967574" lon="3.122046635148099"><ele>603.0</ele><time>2026-04-18T16:44:33Z</time></trkpt><trkpt lat="45.40553164364637" lon="3.1219876104150965"><ele>603.0</ele><time>2026-04-18T16:44:34Z</time></trkpt><trkpt lat="45.405628362041014" lon="3.1219611442389312"><ele>603.0</ele><time>2026-04-18T16:44:35Z</time></trkpt><trkpt lat="45.405736919430524" lon="3.12193230191463"><ele>603.0</ele><time>2026-04-18T16:44:36Z</time></trkpt><trkpt lat="45.40584924001185" lon="3.121952827909801"><ele>601.6</ele><time>2026-04-18T16:44:37Z</time></trkpt><trkpt lat="45.40596257494791" lon="3.121963584891265"><ele>600.1999999999999</ele><time>2026-04-18T16:44:38Z</time></trkpt><trkpt lat="45.40607202530332" lon="3.121986282652348"><ele>598.8</ele><time>2026-04-18T16:44:39Z</time></trkpt><trkpt lat="45.40617560862816" lon="3.12204064744834"><ele>597.4</ele><time>2026-04-18T16:44:40Z</time></trkpt><trkpt lat="45.4062623445903" lon="3.122147777450379"><ele>596.0</ele><time>2026-04-18T16:44:41Z</time></trkpt><trkpt lat="45.40632326329878" lon="3.1222944098052756"><ele>600.25</ele><time>2026-04-18T16:44:42Z</time></trkpt><trkpt lat="45.40638842628061" lon="3.122456995263108"><ele>604.5</ele><time>2026-04-18T16:44:43Z</time></trkpt><trkpt lat="45.40646830546955" lon="3.1226115752732633"><ele>608.75</ele><time>2026-04-18T16:44:44Z</time></trkpt><trkpt lat="45.406529825047095" lon="3.1227664868030995"><ele>613.0</ele><time>2026-04-18T16:44:45Z</time></trkpt><trkpt lat="45.406600349187514" lon="3.1229295421713212"><ele>613.0</ele><time>2026-04-18T16:44:46Z</time></trkpt><trkpt lat="45.406678479102055" lon="3.1230775676767997"><ele>613.0</ele><time>2026-04-18T16:44:47Z</time></trkpt><trkpt lat="45.40675639571903" lon="3.123225573553738"><ele>613.0</ele><time>2026-04-18T16:44:48Z</time></trkpt><trkpt lat="45.4068333971359" lon="3.123378328089196"><ele>613.0</ele><time>2026-04-18T16:44:49Z</time></trkpt><trkpt lat="45.406922050367235" lon="3.1235284142009982"><ele>610.0</ele><time>2026-04-18T16:44:50Z</time></trkpt><trkpt lat="45.407006823016324" lon="3.1236778073286926"><ele>607.0</ele><time>2026-04-18T16:44:51Z</time></trkpt><trkpt lat="45.40708450778148" lon="3.123832034786942"><ele>604.0</ele><time>2026-04-18T16:44:52Z</time></trkpt><trkpt lat="45.407153942483234" lon="3.123977407524752"><ele>601.0</ele><time>2026-04-18T16:44:53Z</time></trkpt><trkpt lat="45.40721327879964" lon="3.124129201838188"><ele>608.0</ele><time>2026-04-18T16:44:54Z</time></trkpt><trkpt lat="45.40726848066525" lon="3.1242817895981565"><ele>615.0</ele><time>2026-04-18T16:44:55Z</time></trkpt><trkpt lat="45.40732870134527" lon="3.124427373044111"><ele>622.0</ele><time>2026-04-18T16:44:56Z</time></trkpt><trkpt lat="45.40740228112224" lon="3.1245702993234845"><ele>629.0</ele><time>2026-04-18T16:44:57Z</time></trkpt><trkpt lat="45.407482133533975" lon="3.1247208664978023"><ele>629.0</ele><time>2026-04-18T16:44:58Z</time></trkpt><trkpt lat="45.40753772990669" lon="3.1248849129741125"><ele>629.0</ele><time>2026-04-18T16:44:59Z</time></trkpt><trkpt lat="45.40760674060132" lon="3.125043078540846"><ele>629.0</ele><time>2026-04-18T16:45:00Z</time></trkpt><trkpt lat="45.40766844485015" lon="3.1252045574649165"><ele>629.0</ele><time>2026-04-18T16:45:01Z</time></trkpt><trkpt lat="45.407724087578075" lon="3.125360265103175"><ele>626.0</ele><time>2026-04-18T16:45:02Z</time></trkpt><trkpt lat="45.407784272901665" lon="3.125524602052712"><ele>623.0</ele><time>2026-04-18T16:45:03.001Z</time></trkpt><trkpt lat="45.40784265792322" lon="3.1256788280546624"><ele>620.0</ele><time>2026-04-18T16:45:04.001Z</time></trkpt><trkpt lat="45.40790417235351" lon="3.1258272312102258"><ele>617.0</ele><time>2026-04-18T16:45:05.001Z</time></trkpt><trkpt lat="45.40797382799596" lon="3.1259585004442996"><ele>621.0</ele><time>2026-04-18T16:45:06.001Z</time></trkpt><trkpt lat="45.40806818068902" lon="3.126061585457758"><ele>625.0</ele><time>2026-04-18T16:45:07.001Z</time></trkpt><trkpt lat="45.408177559997384" lon="3.1261489979575865"><ele>629.0</ele><time>2026-04-18T16:45:08.001Z</time></trkpt><trkpt lat="45.40828597414899" lon="3.126239061260621"><ele>633.0</ele><time>2026-04-18T16:45:09.001Z</time></trkpt><trkpt lat="45.40838862262537" lon="3.126331410958925"><ele>633.0</ele><time>2026-04-18T16:45:10.001Z</time></trkpt><trkpt lat="45.408497394591606" lon="3.1264211926659513"><ele>633.0</ele><time>2026-04-18T16:45:11.001Z</time></trkpt><trkpt lat="45.40862000044091" lon="3.126480582086393"><ele>633.0</ele><time>2026-04-18T16:45:12.001Z</time></trkpt><trkpt lat="45.40875024090774" lon="3.126529013469828"><ele>633.0</ele><time>2026-04-18T16:45:13.001Z</time></trkpt><trkpt lat="45.40888301424154" lon="3.126568264738886"><ele>633.25</ele><time>2026-04-18T16:45:14.001Z</time></trkpt><trkpt lat="45.40901774086199" lon="3.12660728474163"><ele>633.5</ele><time>2026-04-18T16:45:15.001Z</time></trkpt><trkpt lat="45.40914932818482" lon="3.1266828016070116"><ele>633.75</ele><time>2026-04-18T16:45:16.001Z</time></trkpt><trkpt lat="45.40927909006916" lon="3.1267638628217944"><ele>634.0</ele><time>2026-04-18T16:45:17.001Z</time></trkpt><trkpt lat="45.409382114468805" lon="3.1268780236499927"><ele>634.0</ele><time>2026-04-18T16:45:18.001Z</time></trkpt><trkpt lat="45.40948534228326" lon="3.126999892208241"><ele>634.0</ele><time>2026-04-18T16:45:19.001Z</time></trkpt><trkpt lat="45.40959828012359" lon="3.127103917858295"><ele>634.0</ele><time>2026-04-18T16:45:20.001Z</time></trkpt><trkpt lat="45.40970558613913" lon="3.1272245780489625"><ele>634.0</ele><time>2026-04-18T16:45:21.001Z</time></trkpt><trkpt lat="45.40982237613297" lon="3.1273342775382247"><ele>634.75</ele><time>2026-04-18T16:45:22.001Z</time></trkpt><trkpt lat="45.40995046986136" lon="3.127426732784161"><ele>635.5</ele><time>2026-04-18T16:45:23.001Z</time></trkpt><trkpt lat="45.41009576093977" lon="3.1274826091052317"><ele>636.25</ele><time>2026-04-18T16:45:24.001Z</time></trkpt><trkpt lat="45.41024607873784" lon="3.1275179939111757"><ele>637.0</ele><time>2026-04-18T16:45:25.001Z</time></trkpt><trkpt lat="45.41041494798916" lon="3.127554139570715"><ele>645.6666666666667</ele><time>2026-04-18T16:45:26.001Z</time></trkpt><trkpt lat="45.41058255611785" lon="3.1275916126438306"><ele>654.3333333333334</ele><time>2026-04-18T16:45:27.001Z</time></trkpt><trkpt lat="45.410762599952626" lon="3.127659251491172"><ele>663.0</ele><time>2026-04-18T16:45:28.001Z</time></trkpt><trkpt lat="45.410932227984496" lon="3.1277884101938223"><ele>663.0</ele><time>2026-04-18T16:45:29.001Z</time></trkpt><trkpt lat="45.41112080530185" lon="3.1278898481885444"><ele>663.0</ele><time>2026-04-18T16:45:30.001Z</time></trkpt><trkpt lat="45.41131385545259" lon="3.1279983565947647"><ele>663.0</ele><time>2026-04-18T16:45:31.001Z</time></trkpt><trkpt lat="45.41147495392915" lon="3.128036317634287"><ele>666.75</ele><time>2026-04-18T16:45:32.001Z</time></trkpt><trkpt lat="45.41161833333683" lon="3.1280523033267102"><ele>670.5</ele><time>2026-04-18T16:45:33.001Z</time></trkpt><trkpt lat="45.41174938397056" lon="3.128061030188504"><ele>674.25</ele><time>2026-04-18T16:45:34.001Z</time></trkpt><trkpt lat="45.411877840972565" lon="3.128057553117838"><ele>678.0</ele><time>2026-04-18T16:45:35.001Z</time></trkpt><trkpt lat="45.412008269645064" lon="3.1280340024325506"><ele>678.0</ele><time>2026-04-18T16:45:36.001Z</time></trkpt><trkpt lat="45.41213893171051" lon="3.127989843598149"><ele>678.0</ele><time>2026-04-18T16:45:37.001Z</time></trkpt><trkpt lat="45.41227050341861" lon="3.127933709153805"><ele>678.0</ele><time>2026-04-18T16:45:38.001Z</time></trkpt><trkpt lat="45.4123973799696" lon="3.127867011462692"><ele>678.0</ele><time>2026-04-18T16:45:39.001Z</time></trkpt><trkpt lat="45.41250489264018" lon="3.1277811371286433"><ele>677.5</ele><time>2026-04-18T16:45:40.001Z</time></trkpt><trkpt lat="45.41260487926292" lon="3.1276716667018625"><ele>677.0</ele><time>2026-04-18T16:45:41.001Z</time></trkpt><trkpt lat="45.412708267400774" lon="3.1275504160948313"><ele>676.5</ele><time>2026-04-18T16:45:42.001Z</time></trkpt><trkpt lat="45.41282408236569" lon="3.1274275197491503"><ele>676.0</ele><time>2026-04-18T16:45:43.001Z</time></trkpt><trkpt lat="45.41295066523964" lon="3.1273484390613095"><ele>678.25</ele><time>2026-04-18T16:45:44.001Z</time></trkpt><trkpt lat="45.41306432751626" lon="3.1272741525567938"><ele>680.5</ele><time>2026-04-18T16:45:45.001Z</time></trkpt><trkpt lat="45.41317488492111" lon="3.12722986546277"><ele>682.75</ele><time>2026-04-18T16:45:46.001Z</time></trkpt><trkpt lat="45.41328856050422" lon="3.127176934256858"><ele>685.0</ele><time>2026-04-18T16:45:47.001Z</time></trkpt><trkpt lat="45.41340303392469" lon="3.1271357408384066"><ele>685.0</ele><time>2026-04-18T16:45:48.001Z</time></trkpt><trkpt lat="45.413501768824865" lon="3.1270787084177707"><ele>685.0</ele><time>2026-04-18T16:45:49.001Z</time></trkpt><trkpt lat="45.41359114044047" lon="3.126993481529364"><ele>685.0</ele><time>2026-04-18T16:45:50.001Z</time></trkpt><trkpt lat="45.41366034212526" lon="3.1268754218518002"><ele>685.0</ele><time>2026-04-18T16:45:51.001Z</time></trkpt><trkpt lat="45.41371652488376" lon="3.1267394234650094"><ele>685.0</ele><time>2026-04-18T16:45:52.001Z</time></trkpt><trkpt lat="45.413769035205064" lon="3.1265906344542054"><ele>682.25</ele><time>2026-04-18T16:45:53.001Z</time></trkpt><trkpt lat="45.41382510761056" lon="3.1264345943217506"><ele>679.5</ele><time>2026-04-18T16:45:54.001Z</time></trkpt><trkpt lat="45.413883888029055" lon="3.126267313151019"><ele>676.75</ele><time>2026-04-18T16:45:55.001Z</time></trkpt><trkpt lat="45.41394911629702" lon="3.126091757472692"><ele>674.0</ele><time>2026-04-18T16:45:56.001Z</time></trkpt><trkpt lat="45.4140092309992" lon="3.125931681205304"><ele>674.0</ele><time>2026-04-18T16:45:57.001Z</time></trkpt><trkpt lat="45.41406181911363" lon="3.1257822829623305"><ele>674.0</ele><time>2026-04-18T16:45:58.001Z</time></trkpt><trkpt lat="45.414110478171736" lon="3.1256409648611467"><ele>674.0</ele><time>2026-04-18T16:45:59.001Z</time></trkpt><trkpt lat="45.4141572983737" lon="3.125493880850327"><ele>674.0</ele><time>2026-04-18T16:46:00.001Z</time></trkpt><trkpt lat="45.414213063819574" lon="3.125337724934416"><ele>675.5</ele><time>2026-04-18T16:46:01.001Z</time></trkpt><trkpt lat="45.414267801549535" lon="3.1251756996814763"><ele>677.0</ele><time>2026-04-18T16:46:02.001Z</time></trkpt><trkpt lat="45.41432670565584" lon="3.125016979253303"><ele>678.5</ele><time>2026-04-18T16:46:03.001Z</time></trkpt><trkpt lat="45.4143905882439" lon="3.124866173192539"><ele>680.0</ele><time>2026-04-18T16:46:04.001Z</time></trkpt><trkpt lat="45.41443350072704" lon="3.1246999676146174"><ele>681.5</ele><time>2026-04-18T16:46:05.001Z</time></trkpt><trkpt lat="45.41450348368768" lon="3.1245445812316284"><ele>683.0</ele><time>2026-04-18T16:46:06.001Z</time></trkpt><trkpt lat="45.41454749332209" lon="3.124369228226885"><ele>684.5</ele><time>2026-04-18T16:46:07.001Z</time></trkpt><trkpt lat="45.414607107335044" lon="3.1242129601771693"><ele>686.0</ele><time>2026-04-18T16:46:08.001Z</time></trkpt><trkpt lat="45.41466125749427" lon="3.1240741458191756"><ele>684.1999999999999</ele><time>2026-04-18T16:46:09.001Z</time></trkpt><trkpt lat="45.41471506794073" lon="3.123941995244886"><ele>682.4</ele><time>2026-04-18T16:46:10.001Z</time></trkpt><trkpt lat="45.41476756941418" lon="3.1238100682320242"><ele>680.6</ele><time>2026-04-18T16:46:11.001Z</time></trkpt><trkpt lat="45.41482098681222" lon="3.1236681765301353"><ele>678.8</ele><time>2026-04-18T16:46:12.001Z</time></trkpt><trkpt lat="45.41488101745288" lon="3.123517372685017"><ele>677.0</ele><time>2026-04-18T16:46:13.001Z</time></trkpt><trkpt lat="45.41494672848036" lon="3.123360458302299"><ele>677.5</ele><time>2026-04-18T16:46:14.001Z</time></trkpt><trkpt lat="45.41501767127106" lon="3.123199598359771"><ele>678.0</ele><time>2026-04-18T16:46:15.001Z</time></trkpt><trkpt lat="45.41508837238073" lon="3.1230323398392863"><ele>678.5</ele><time>2026-04-18T16:46:16.001Z</time></trkpt><trkpt lat="45.41516387706719" lon="3.1228639624666132"><ele>679.0</ele><time>2026-04-18T16:46:17.001Z</time></trkpt><trkpt lat="45.41524930288498" lon="3.1226861178624707"><ele>679.0</ele><time>2026-04-18T16:46:18.001Z</time></trkpt><trkpt lat="45.41533962099524" lon="3.1225191174840146"><ele>679.0</ele><time>2026-04-18T16:46:19.001Z</time></trkpt><trkpt lat="45.41545123573746" lon="3.12235956527675"><ele>679.0</ele><time>2026-04-18T16:46:20.001Z</time></trkpt><trkpt lat="45.415562093910545" lon="3.122191577576106"><ele>680.3333333333334</ele><time>2026-04-18T16:46:21.001Z</time></trkpt><trkpt lat="45.41566529649989" lon="3.1220280000807206"><ele>681.6666666666666</ele><time>2026-04-18T16:46:22.001Z</time></trkpt><trkpt lat="45.41576266268064" lon="3.1218521672984787"><ele>683.0</ele><time>2026-04-18T16:46:23.001Z</time></trkpt><trkpt lat="45.41585776867017" lon="3.1216605076669897"><ele>683.6666666666666</ele><time>2026-04-18T16:46:24.001Z</time></trkpt><trkpt lat="45.4159521579089" lon="3.1214752957047143"><ele>684.3333333333334</ele><time>2026-04-18T16:46:25.001Z</time></trkpt><trkpt lat="45.41605248567961" lon="3.1212719490603473"><ele>685.0</ele><time>2026-04-18T16:46:26.001Z</time></trkpt><trkpt lat="45.41615798747697" lon="3.121078973995375"><ele>685.0</ele><time>2026-04-18T16:46:27.001Z</time></trkpt><trkpt lat="45.41625874404841" lon="3.120874842786158"><ele>685.0</ele><time>2026-04-18T16:46:28.001Z</time></trkpt><trkpt lat="45.416369264383384" lon="3.1206664442444128"><ele>685.0</ele><time>2026-04-18T16:46:29.001Z</time></trkpt><trkpt lat="45.41647195157034" lon="3.120468546025123"><ele>687.3333333333334</ele><time>2026-04-18T16:46:30.001Z</time></trkpt><trkpt lat="45.416560987019906" lon="3.12027437952407"><ele>689.6666666666666</ele><time>2026-04-18T16:46:31.001Z</time></trkpt><trkpt lat="45.41665533644114" lon="3.12009369464698"><ele>692.0</ele><time>2026-04-18T16:46:32.001Z</time></trkpt><trkpt lat="45.416743795851346" lon="3.119914265403498"><ele>692.75</ele><time>2026-04-18T16:46:33.001Z</time></trkpt><trkpt lat="45.41683055681621" lon="3.1197450740980197"><ele>693.5</ele><time>2026-04-18T16:46:34.001Z</time></trkpt><trkpt lat="45.416907799809884" lon="3.1195697231678516"><ele>694.25</ele><time>2026-04-18T16:46:35.001Z</time></trkpt><trkpt lat="45.41696818990361" lon="3.1193860144261394"><ele>695.0</ele><time>2026-04-18T16:46:36.001Z</time></trkpt><trkpt lat="45.41701972874537" lon="3.1191970310828405"><ele>695.0</ele><time>2026-04-18T16:46:37.001Z</time></trkpt><trkpt lat="45.41707849904131" lon="3.1190148830724587"><ele>695.0</ele><time>2026-04-18T16:46:38.001Z</time></trkpt><trkpt lat="45.41714255171405" lon="3.118842199618259"><ele>695.0</ele><time>2026-04-18T16:46:39.001Z</time></trkpt><trkpt lat="45.417218458648435" lon="3.118660749396127"><ele>695.0</ele><time>2026-04-18T16:46:40.001Z</time></trkpt><trkpt lat="45.41729283964967" lon="3.1184727991651147"><ele>695.0</ele><time>2026-04-18T16:46:41.001Z</time></trkpt><trkpt lat="45.41737302338696" lon="3.1182814752547166"><ele>695.0</ele><time>2026-04-18T16:46:42.001Z</time></trkpt><trkpt lat="45.41746357336307" lon="3.118093236906935"><ele>695.0</ele><time>2026-04-18T16:46:43.001Z</time></trkpt><trkpt lat="45.41756412605129" lon="3.1179105873081747"><ele>695.6666666666666</ele><time>2026-04-18T16:46:44.001Z</time></trkpt><trkpt lat="45.417663024584336" lon="3.1177305633113157"><ele>696.3333333333334</ele><time>2026-04-18T16:46:45.001Z</time></trkpt><trkpt lat="45.417764498007664" lon="3.1175671613433877"><ele>697.0</ele><time>2026-04-18T16:46:46.001Z</time></trkpt><trkpt lat="45.417841076799064" lon="3.1173202199188244"><ele>697.0</ele><time>2026-04-18T16:46:47.001Z</time></trkpt><trkpt lat="45.41793508165381" lon="3.11711358751476"><ele>697.0</ele><time>2026-04-18T16:46:48.001Z</time></trkpt><trkpt lat="45.418020294639604" lon="3.116904368851524"><ele>697.0</ele><time>2026-04-18T16:46:49.001Z</time></trkpt><trkpt lat="45.418111377662925" lon="3.1166915786766265"><ele>697.0</ele><time>2026-04-18T16:46:50.001Z</time></trkpt><trkpt lat="45.41820310939343" lon="3.1164696777786545"><ele>697.0</ele><time>2026-04-18T16:46:51.001Z</time></trkpt><trkpt lat="45.41829418691446" lon="3.1162487142980204"><ele>697.0</ele><time>2026-04-18T16:46:52.001Z</time></trkpt><trkpt lat="45.41837674906532" lon="3.1160256560919226"><ele>697.0</ele><time>2026-04-18T16:46:53.001Z</time></trkpt><trkpt lat="45.41844690409183" lon="3.1157873848435016"><ele>697.0</ele><time>2026-04-18T16:46:54.001Z</time></trkpt><trkpt lat="45.418505006879194" lon="3.1155425986038887"><ele>697.0</ele><time>2026-04-18T16:46:55.001Z</time></trkpt><trkpt lat="45.418558186953526" lon="3.1152916549270686"><ele>697.6666666666667</ele><time>2026-04-18T16:46:56.001Z</time></trkpt><trkpt lat="45.41861740098617" lon="3.1150419300294385"><ele>698.3333333333334</ele><time>2026-04-18T16:46:57.001Z</time></trkpt><trkpt lat="45.418685109863524" lon="3.114792018232799"><ele>699.0</ele><time>2026-04-18T16:46:58.001Z</time></trkpt><trkpt lat="45.41876453321419" lon="3.114552110858037"><ele>699.6666666666666</ele><time>2026-04-18T16:46:59.001Z</time></trkpt><trkpt lat="45.4188428047004" lon="3.1143057322264656"><ele>700.3333333333333</ele><time>2026-04-18T16:47:00.001Z</time></trkpt><trkpt lat="45.41891800992602" lon="3.1140590327251223"><ele>701.0</ele><time>2026-04-18T16:47:01.001Z</time></trkpt><trkpt lat="45.41901300113617" lon="3.1138175806328197"><ele>701.3333333333333</ele><time>2026-04-18T16:47:02.001Z</time></trkpt><trkpt lat="45.41911099493223" lon="3.113575205302215"><ele>701.6666666666666</ele><time>2026-04-18T16:47:03.001Z</time></trkpt><trkpt lat="45.41921677533047" lon="3.11334193657862"><ele>702.0</ele><time>2026-04-18T16:47:04.001Z</time></trkpt><trkpt lat="45.41932668609415" lon="3.1131132735495837"><ele>702.6666666666666</ele><time>2026-04-18T16:47:05.001Z</time></trkpt><trkpt lat="45.419433218273376" lon="3.1128755073818337"><ele>703.3333333333333</ele><time>2026-04-18T16:47:06.001Z</time></trkpt><trkpt lat="45.41954996050064" lon="3.1126473725619643"><ele>704.0</ele><time>2026-04-18T16:47:07.001Z</time></trkpt><trkpt lat="45.41966827286745" lon="3.112421910241413"><ele>705.6666666666666</ele><time>2026-04-18T16:47:08.001Z</time></trkpt><trkpt lat="45.419789097256874" lon="3.1122088386245714"><ele>707.3333333333334</ele><time>2026-04-18T16:47:09.001Z</time></trkpt><trkpt lat="45.419913909408685" lon="3.111987140013095"><ele>709.0</ele><time>2026-04-18T16:47:10.001Z</time></trkpt><trkpt lat="45.42002026346737" lon="3.111772785627044"><ele>710.6666666666667</ele><time>2026-04-18T16:47:11.001Z</time></trkpt><trkpt lat="45.4201356483729" lon="3.111557026867636"><ele>712.3333333333334</ele><time>2026-04-18T16:47:12.001Z</time></trkpt><trkpt lat="45.42024203540951" lon="3.111350866667609"><ele>714.0</ele><time>2026-04-18T16:47:13.001Z</time></trkpt><trkpt lat="45.420351834417836" lon="3.111143624697608"><ele>714.0</ele><time>2026-04-18T16:47:14.001Z</time></trkpt><trkpt lat="45.420463980290876" lon="3.110935110861317"><ele>714.0</ele><time>2026-04-18T16:47:15.001Z</time></trkpt><trkpt lat="45.420569788846294" lon="3.1107342601329355"><ele>714.0</ele><time>2026-04-18T16:47:16.001Z</time></trkpt><trkpt lat="45.42068461519221" lon="3.1105372907825752"><ele>717.6666666666666</ele><time>2026-04-18T16:47:17.001Z</time></trkpt><trkpt lat="45.42083052538185" lon="3.1104078381843254"><ele>721.3333333333333</ele><time>2026-04-18T16:47:18.001Z</time></trkpt><trkpt lat="45.420969696481095" lon="3.1103010779785714"><ele>725.0</ele><time>2026-04-18T16:47:19.001Z</time></trkpt><trkpt lat="45.42114822216563" lon="3.1101822037279923"><ele>725.0</ele><time>2026-04-18T16:47:20.001Z</time></trkpt><trkpt lat="45.42130245115422" lon="3.110057053846106"><ele>725.0</ele><time>2026-04-18T16:47:21.001Z</time></trkpt><trkpt lat="45.42145946743788" lon="3.109958581152336"><ele>725.0</ele><time>2026-04-18T16:47:22.001Z</time></trkpt><trkpt lat="45.42162412958326" lon="3.1098551061223576"><ele>726.3333333333333</ele><time>2026-04-18T16:47:23.001Z</time></trkpt><trkpt lat="45.42178586186162" lon="3.1097485584932065"><ele>727.6666666666666</ele><time>2026-04-18T16:47:24.001Z</time></trkpt><trkpt lat="45.4219488387703" lon="3.1096357538133548"><ele>729.0</ele><time>2026-04-18T16:47:25.001Z</time></trkpt><trkpt lat="45.4221121421" lon="3.1095249989267097"><ele>731.0</ele><time>2026-04-18T16:47:26.001Z</time></trkpt><trkpt lat="45.42227574868713" lon="3.1094096984762283"><ele>733.0</ele><time>2026-04-18T16:47:27.001Z</time></trkpt><trkpt lat="45.42243286521929" lon="3.1092890593836113"><ele>735.0</ele><time>2026-04-18T16:47:28.001Z</time></trkpt><trkpt lat="45.422585495419405" lon="3.109150207122609"><ele>734.3333333333334</ele><time>2026-04-18T16:47:29.001Z</time></trkpt><trkpt lat="45.42272910996003" lon="3.1089933990105756"><ele>733.6666666666667</ele><time>2026-04-18T16:47:30.001Z</time></trkpt><trkpt lat="45.422867695503186" lon="3.108825042956207"><ele>733.0</ele><time>2026-04-18T16:47:31.001Z</time></trkpt><trkpt lat="45.422999426392984" lon="3.108646271418956"><ele>735.0</ele><time>2026-04-18T16:47:32.001Z</time></trkpt><trkpt lat="45.42312953074361" lon="3.1084603242931577"><ele>737.0</ele><time>2026-04-18T16:47:33.001Z</time></trkpt><trkpt lat="45.42325275739549" lon="3.108269992446944"><ele>739.0</ele><time>2026-04-18T16:47:34.001Z</time></trkpt><trkpt lat="45.42337211650973" lon="3.1080795449135943"><ele>739.6666666666667</ele><time>2026-04-18T16:47:35.001Z</time></trkpt><trkpt lat="45.423489372331076" lon="3.1078835324858898"><ele>740.3333333333334</ele><time>2026-04-18T16:47:36.001Z</time></trkpt><trkpt lat="45.42360718606083" lon="3.1076844586380825"><ele>741.0</ele><time>2026-04-18T16:47:37.001Z</time></trkpt><trkpt lat="45.423723086736516" lon="3.1074841741458146"><ele>744.3333333333334</ele><time>2026-04-18T16:47:38.001Z</time></trkpt><trkpt lat="45.42383893217871" lon="3.107295473553351"><ele>747.6666666666667</ele><time>2026-04-18T16:47:39.001Z</time></trkpt><trkpt lat="45.423988145025305" lon="3.1071551894381706"><ele>751.0</ele><time>2026-04-18T16:47:40.001Z</time></trkpt><trkpt lat="45.424120694124575" lon="3.1069954837273106"><ele>751.0</ele><time>2026-04-18T16:47:41.001Z</time></trkpt><trkpt lat="45.4242456112977" lon="3.1068337653183313"><ele>751.0</ele><time>2026-04-18T16:47:42.001Z</time></trkpt><trkpt lat="45.42436723369276" lon="3.106688672579795"><ele>751.0</ele><time>2026-04-18T16:47:43.001Z</time></trkpt><trkpt lat="45.42450517502204" lon="3.1065397508079897"><ele>754.3333333333334</ele><time>2026-04-18T16:47:44.001Z</time></trkpt><trkpt lat="45.42464518679726" lon="3.106418951909371"><ele>757.6666666666666</ele><time>2026-04-18T16:47:45.001Z</time></trkpt><trkpt lat="45.42480641524354" lon="3.1063536607017825"><ele>761.0</ele><time>2026-04-18T16:47:46.001Z</time></trkpt><trkpt lat="45.42495648685525" lon="3.106261498379305"><ele>761.0</ele><time>2026-04-18T16:47:47.001Z</time></trkpt><trkpt lat="45.42511225315679" lon="3.1061628497208025"><ele>761.0</ele><time>2026-04-18T16:47:48.001Z</time></trkpt><trkpt lat="45.42525379092057" lon="3.1060242352018013"><ele>761.0</ele><time>2026-04-18T16:47:49.001Z</time></trkpt><trkpt lat="45.425385878138066" lon="3.105865919882636"><ele>759.3333333333333</ele><time>2026-04-18T16:47:50.001Z</time></trkpt><trkpt lat="45.425511055250794" lon="3.105706552898035"><ele>757.6666666666666</ele><time>2026-04-18T16:47:51.001Z</time></trkpt><trkpt lat="45.425605363704946" lon="3.105534562417769"><ele>756.0</ele><time>2026-04-18T16:47:52.001Z</time></trkpt><trkpt lat="45.42567621193513" lon="3.1053410234835885"><ele>756.0</ele><time>2026-04-18T16:47:53.001Z</time></trkpt><trkpt lat="45.425718369773264" lon="3.1051110540726716"><ele>756.0</ele><time>2026-04-18T16:47:54.001Z</time></trkpt><trkpt lat="45.425734046109675" lon="3.10487645996901"><ele>756.0</ele><time>2026-04-18T16:47:55.001Z</time></trkpt><trkpt lat="45.42575779232298" lon="3.1046094304658993"><ele>760.0</ele><time>2026-04-18T16:47:56.001Z</time></trkpt><trkpt lat="45.425799751449254" lon="3.104380319873107"><ele>764.0</ele><time>2026-04-18T16:47:57.001Z</time></trkpt><trkpt lat="45.42585401968942" lon="3.1041455358567425"><ele>768.0</ele><time>2026-04-18T16:47:58.001Z</time></trkpt><trkpt lat="45.42592586834072" lon="3.1039318578740307"><ele>771.25</ele><time>2026-04-18T16:47:59.001Z</time></trkpt><trkpt lat="45.42598963628106" lon="3.1037202755809687"><ele>774.5</ele><time>2026-04-18T16:48:00.001Z</time></trkpt><trkpt lat="45.426049335661695" lon="3.1035348105371368"><ele>777.75</ele><time>2026-04-18T16:48:01.001Z</time></trkpt><trkpt lat="45.42611285384931" lon="3.1033783120725826"><ele>781.0</ele><time>2026-04-18T16:48:02.001Z</time></trkpt><trkpt lat="45.42619579098191" lon="3.1032645664166436"><ele>782.75</ele><time>2026-04-18T16:48:03.001Z</time></trkpt><trkpt lat="45.42629339755269" lon="3.103196823790188"><ele>784.5</ele><time>2026-04-18T16:48:04.001Z</time></trkpt><trkpt lat="45.42641296796431" lon="3.103241752685733"><ele>786.25</ele><time>2026-04-18T16:48:05.001Z</time></trkpt><trkpt lat="45.42653402172008" lon="3.103219262824422"><ele>788.0</ele><time>2026-04-18T16:48:06.001Z</time></trkpt><trkpt lat="45.42664531389146" lon="3.1031919845767093"><ele>788.0</ele><time>2026-04-18T16:48:07.001Z</time></trkpt><trkpt lat="45.42674139472926" lon="3.1030929089698485"><ele>788.0</ele><time>2026-04-18T16:48:08.001Z</time></trkpt><trkpt lat="45.42682451504448" lon="3.10295666212105"><ele>788.0</ele><time>2026-04-18T16:48:09.001Z</time></trkpt><trkpt lat="45.426897997797795" lon="3.1028034105310853"><ele>788.0</ele><time>2026-04-18T16:48:10.001Z</time></trkpt><trkpt lat="45.42696958153554" lon="3.1026491277829877"><ele>788.0</ele><time>2026-04-18T16:48:11.001Z</time></trkpt><trkpt lat="45.427052460713064" lon="3.1024977265110287"><ele>788.0</ele><time>2026-04-18T16:48:12.001Z</time></trkpt><trkpt lat="45.427147389206944" lon="3.1023595051050283"><ele>788.0</ele><time>2026-04-18T16:48:13.001Z</time></trkpt><trkpt lat="45.427261820255886" lon="3.10224124919059"><ele>788.0</ele><time>2026-04-18T16:48:14.001Z</time></trkpt><trkpt lat="45.42739283443013" lon="3.1021427058539"><ele>791.6666666666667</ele><time>2026-04-18T16:48:15.001Z</time></trkpt><trkpt lat="45.42754627166074" lon="3.102082133184591"><ele>795.3333333333333</ele><time>2026-04-18T16:48:16.001Z</time></trkpt><trkpt lat="45.42772745593781" lon="3.102097339684045"><ele>799.0</ele><time>2026-04-18T16:48:17.001Z</time></trkpt><trkpt lat="45.42786261839074" lon="3.102059145518265"><ele>795.3333333333333</ele><time>2026-04-18T16:48:18.001Z</time></trkpt><trkpt lat="45.4279875116866" lon="3.101970227604756"><ele>791.6666666666667</ele><time>2026-04-18T16:48:19.001Z</time></trkpt><trkpt lat="45.428106953224464" lon="3.101812099474177"><ele>788.0</ele><time>2026-04-18T16:48:20.001Z</time></trkpt><trkpt lat="45.428222617846785" lon="3.1016331696039114"><ele>796.0</ele><time>2026-04-18T16:48:21.001Z</time></trkpt><trkpt lat="45.42836065588279" lon="3.1014194471092105"><ele>804.0</ele><time>2026-04-18T16:48:22.001Z</time></trkpt><trkpt lat="45.42848914666847" lon="3.101207739521921"><ele>812.0</ele><time>2026-04-18T16:48:23.001Z</time></trkpt><trkpt lat="45.42862990352945" lon="3.1009919660933427"><ele>812.0</ele><time>2026-04-18T16:48:24.001Z</time></trkpt><trkpt lat="45.42878729783207" lon="3.100790976948201"><ele>812.0</ele><time>2026-04-18T16:48:25.001Z</time></trkpt><trkpt lat="45.42893475227459" lon="3.1005311303639616"><ele>812.0</ele><time>2026-04-18T16:48:26.001Z</time></trkpt><trkpt lat="45.42905683026946" lon="3.1002122038089253"><ele>814.6666666666667</ele><time>2026-04-18T16:48:27.001Z</time></trkpt><trkpt lat="45.42916006993374" lon="3.099944512882221"><ele>817.3333333333333</ele><time>2026-04-18T16:48:28.001Z</time></trkpt><trkpt lat="45.42923564069513" lon="3.0997124249269206"><ele>820.0</ele><time>2026-04-18T16:48:29.001Z</time></trkpt><trkpt lat="45.42925946220243" lon="3.0994926823744993"><ele>820.0</ele><time>2026-04-18T16:48:30.001Z</time></trkpt><trkpt lat="45.42929356547933" lon="3.099328829738785"><ele>820.0</ele><time>2026-04-18T16:48:31.001Z</time></trkpt><trkpt lat="45.42937367062208" lon="3.0992376145140454"><ele>820.0</ele><time>2026-04-18T16:48:32.001Z</time></trkpt><trkpt lat="45.429469685164136" lon="3.0991948041328685"><ele>820.0</ele><time>2026-04-18T16:48:33.001Z</time></trkpt><trkpt lat="45.4295801910352" lon="3.0992233752696925"><ele>820.0</ele><time>2026-04-18T16:48:34.001Z</time></trkpt><trkpt lat="45.42973246126371" lon="3.09924804327243"><ele>817.0</ele><time>2026-04-18T16:48:35.001Z</time></trkpt><trkpt lat="45.4298912630038" lon="3.0993083703154674"><ele>814.0</ele><time>2026-04-18T16:48:36.001Z</time></trkpt><trkpt lat="45.43004142373201" lon="3.099333904024636"><ele>811.0</ele><time>2026-04-18T16:48:37.001Z</time></trkpt><trkpt lat="45.430179372355745" lon="3.0993503311311463"><ele>811.0</ele><time>2026-04-18T16:48:38.001Z</time></trkpt><trkpt lat="45.43034181390851" lon="3.0992439021464047"><ele>811.0</ele><time>2026-04-18T16:48:39.001Z</time></trkpt><trkpt lat="45.4304448492275" lon="3.0989768796988395"><ele>811.0</ele><time>2026-04-18T16:48:40.001Z</time></trkpt><trkpt lat="45.430554871263865" lon="3.0987791065712185"><ele>814.3333333333333</ele><time>2026-04-18T16:48:41.001Z</time></trkpt><trkpt lat="45.430723425304336" lon="3.098599386513085"><ele>817.6666666666667</ele><time>2026-04-18T16:48:42.001Z</time></trkpt><trkpt lat="45.43091721899137" lon="3.0984709831914476"><ele>821.0</ele><time>2026-04-18T16:48:43.001Z</time></trkpt><trkpt lat="45.43112512146216" lon="3.0983883141408466"><ele>822.0</ele><time>2026-04-18T16:48:44.001Z</time></trkpt><trkpt lat="45.43132411200036" lon="3.0983440590182014"><ele>823.0</ele><time>2026-04-18T16:48:45.001Z</time></trkpt><trkpt lat="45.43151116792448" lon="3.0983904168480056"><ele>824.0</ele><time>2026-04-18T16:48:46.001Z</time></trkpt><trkpt lat="45.43167175090496" lon="3.098399954102994"><ele>824.0</ele><time>2026-04-18T16:48:47.001Z</time></trkpt><trkpt lat="45.43180430790934" lon="3.0983895355326263"><ele>824.0</ele><time>2026-04-18T16:48:48.001Z</time></trkpt><trkpt lat="45.43195089408684" lon="3.098279189305469"><ele>824.0</ele><time>2026-04-18T16:48:49.001Z</time></trkpt><trkpt lat="45.43209123158199" lon="3.0981106307408095"><ele>823.3333333333334</ele><time>2026-04-18T16:48:50.001Z</time></trkpt><trkpt lat="45.43221895662019" lon="3.097889643685649"><ele>822.6666666666667</ele><time>2026-04-18T16:48:51.001Z</time></trkpt><trkpt lat="45.43231005559651" lon="3.0976362337990335"><ele>822.0</ele><time>2026-04-18T16:48:52.001Z</time></trkpt><trkpt lat="45.43238642302155" lon="3.0973839750761734"><ele>826.25</ele><time>2026-04-18T16:48:53.001Z</time></trkpt><trkpt lat="45.432448686310025" lon="3.097168396814542"><ele>830.5</ele><time>2026-04-18T16:48:54.001Z</time></trkpt><trkpt lat="45.432510402533666" lon="3.0969797810950017"><ele>834.75</ele><time>2026-04-18T16:48:55.001Z</time></trkpt><trkpt lat="45.43256588683531" lon="3.0968020714568203"><ele>839.0</ele><time>2026-04-18T16:48:56.001Z</time></trkpt><trkpt lat="45.43261085901557" lon="3.096638105950213"><ele>842.5</ele><time>2026-04-18T16:48:57.001Z</time></trkpt><trkpt lat="45.43266795813289" lon="3.0964544058260066"><ele>846.0</ele><time>2026-04-18T16:48:58.001Z</time></trkpt><trkpt lat="45.432723293559185" lon="3.096262582295337"><ele>849.5</ele><time>2026-04-18T16:48:59.001Z</time></trkpt><trkpt lat="45.43278679697464" lon="3.096059087090587"><ele>853.0</ele><time>2026-04-18T16:49:00.001Z</time></trkpt><trkpt lat="45.43284467478287" lon="3.0958457036384863"><ele>849.6666666666666</ele><time>2026-04-18T16:49:01.001Z</time></trkpt><trkpt lat="45.432902425971456" lon="3.0956306246457252"><ele>846.3333333333333</ele><time>2026-04-18T16:49:02.001Z</time></trkpt><trkpt lat="45.432965731592255" lon="3.095414755403714"><ele>843.0</ele><time>2026-04-18T16:49:03.001Z</time></trkpt><trkpt lat="45.43303363943745" lon="3.0951943613505914"><ele>843.0</ele><time>2026-04-18T16:49:04.001Z</time></trkpt><trkpt lat="45.433099359739415" lon="3.0950131057968253"><ele>843.0</ele><time>2026-04-18T16:49:05.001Z</time></trkpt><trkpt lat="45.4331560735563" lon="3.0948474551658"><ele>843.0</ele><time>2026-04-18T16:49:06.001Z</time></trkpt><trkpt lat="45.43321068937168" lon="3.0947008649831305"><ele>843.0</ele><time>2026-04-18T16:49:07.001Z</time></trkpt><trkpt lat="45.433263643156536" lon="3.09457795265224"><ele>846.0</ele><time>2026-04-18T16:49:08.001Z</time></trkpt><trkpt lat="45.43331890724456" lon="3.0944713245697115"><ele>849.0</ele><time>2026-04-18T16:49:09.001Z</time></trkpt><trkpt lat="45.4333752916911" lon="3.0943826548849156"><ele>852.0</ele><time>2026-04-18T16:49:10.001Z</time></trkpt><trkpt lat="45.433426973561865" lon="3.09430207754156"><ele>855.0</ele><time>2026-04-18T16:49:11.001Z</time></trkpt><trkpt lat="45.43347323753757" lon="3.094237781616787"><ele>858.0</ele><time>2026-04-18T16:49:12.001Z</time></trkpt><trkpt lat="45.433549944282014" lon="3.094121504062389"><ele>861.0</ele><time>2026-04-18T16:49:14.001Z</time></trkpt><trkpt lat="45.433472183299926" lon="3.0940285701808983"><ele>861.0</ele><time>2026-04-18T16:49:17.001Z</time></trkpt><trkpt lat="45.43341158927261" lon="3.094053096961532"><ele>860.9999999999999</ele><time>2026-04-18T16:49:19.001Z</time></trkpt><trkpt lat="45.43353468363315" lon="3.0941762189673994"><ele>860.9999999999999</ele><time>2026-04-18T16:49:23.001Z</time></trkpt><trkpt lat="45.433612625008344" lon="3.0940420433551545"><ele>861.0</ele><time>2026-04-18T16:49:25.001Z</time></trkpt><trkpt lat="45.433660080167854" lon="3.093971570176604"><ele>861.0</ele><time>2026-04-18T16:49:26.001Z</time></trkpt><trkpt lat="45.43372840511583" lon="3.0939270473646583"><ele>861.1666666666666</ele><time>2026-04-18T16:49:27.001Z</time></trkpt><trkpt lat="45.43377907643699" lon="3.0938435547621808"><ele>861.3333333333333</ele><time>2026-04-18T16:49:28.001Z</time></trkpt><trkpt lat="45.433834963752794" lon="3.0937867516324578"><ele>861.5</ele><time>2026-04-18T16:49:29.001Z</time></trkpt><trkpt lat="45.43389729076771" lon="3.093732907608684"><ele>861.6666666666666</ele><time>2026-04-18T16:49:30.001Z</time></trkpt><trkpt lat="45.43395893240342" lon="3.0936607183847333"><ele>861.8333333333333</ele><time>2026-04-18T16:49:31.001Z</time></trkpt><trkpt lat="45.43402393117082" lon="3.0935951406860602"><ele>862.0</ele><time>2026-04-18T16:49:32.001Z</time></trkpt><trkpt lat="45.43408428492329" lon="3.0935364025904275"><ele>861.9999999999999</ele><time>2026-04-18T16:49:33.001Z</time></trkpt><trkpt lat="45.43414991004621" lon="3.093469711893404"><ele>862.0</ele><time>2026-04-18T16:49:34.001Z</time></trkpt><trkpt lat="45.43421728635472" lon="3.093393542813678"><ele>862.0</ele><time>2026-04-18T16:49:35.001Z</time></trkpt><trkpt lat="45.43428880221857" lon="3.0933250373656467"><ele>862.0</ele><time>2026-04-18T16:49:36.001Z</time></trkpt><trkpt lat="45.434350521925154" lon="3.093264738719995"><ele>861.9999999999999</ele><time>2026-04-18T16:49:37.001Z</time></trkpt><trkpt lat="45.43442574814486" lon="3.093233702415445"><ele>862.0</ele><time>2026-04-18T16:49:39.001Z</time></trkpt><trkpt lat="45.43447562880751" lon="3.0931724048492986"><ele>864.3333333333333</ele><time>2026-04-18T16:49:40.001Z</time></trkpt><trkpt lat="45.434540095533194" lon="3.093124471019479"><ele>866.6666666666666</ele><time>2026-04-18T16:49:41.001Z</time></trkpt><trkpt lat="45.434615482909706" lon="3.0930652613036034"><ele>869.0</ele><time>2026-04-18T16:49:42.001Z</time></trkpt><trkpt lat="45.43470025859337" lon="3.092999910897173"><ele>871.3333333333333</ele><time>2026-04-18T16:49:43.001Z</time></trkpt><trkpt lat="45.434782500540045" lon="3.092924019643322"><ele>873.6666666666666</ele><time>2026-04-18T16:49:44.001Z</time></trkpt><trkpt lat="45.434866452441454" lon="3.092881525777993"><ele>876.0</ele><time>2026-04-18T16:49:45.001Z</time></trkpt><trkpt lat="45.43494136774097" lon="3.09281463600916"><ele>876.0</ele><time>2026-04-18T16:49:46.001Z</time></trkpt><trkpt lat="45.43503759107145" lon="3.092745731974728"><ele>875.9999999999999</ele><time>2026-04-18T16:49:47.001Z</time></trkpt><trkpt lat="45.435137603865165" lon="3.0926773075016762"><ele>875.9999999999999</ele><time>2026-04-18T16:49:48.001Z</time></trkpt><trkpt lat="45.435241520184086" lon="3.0926136167576175"><ele>876.0</ele><time>2026-04-18T16:49:49.001Z</time></trkpt><trkpt lat="45.435347088341025" lon="3.0925502563087393"><ele>876.0</ele><time>2026-04-18T16:49:50.001Z</time></trkpt><trkpt lat="45.435460461877156" lon="3.0924954155835476"><ele>874.0</ele><time>2026-04-18T16:49:51.001Z</time></trkpt><trkpt lat="45.435577488688" lon="3.092433842484367"><ele>872.0</ele><time>2026-04-18T16:49:52.001Z</time></trkpt><trkpt lat="45.43569563008875" lon="3.092368224732413"><ele>870.0</ele><time>2026-04-18T16:49:53.001Z</time></trkpt><trkpt lat="45.43582193298334" lon="3.0923065280302198"><ele>868.0</ele><time>2026-04-18T16:49:54.001Z</time></trkpt><trkpt lat="45.43595305946928" lon="3.0922474708978025"><ele>870.25</ele><time>2026-04-18T16:49:55.001Z</time></trkpt><trkpt lat="45.436086273999614" lon="3.0921730635794638"><ele>872.5</ele><time>2026-04-18T16:49:56.001Z</time></trkpt><trkpt lat="45.436218729957716" lon="3.0920954327044257"><ele>874.75</ele><time>2026-04-18T16:49:57.001Z</time></trkpt><trkpt lat="45.43635059017775" lon="3.092005518632296"><ele>877.0</ele><time>2026-04-18T16:49:58.001Z</time></trkpt><trkpt lat="45.436480026991106" lon="3.091889399716995"><ele>877.0</ele><time>2026-04-18T16:49:59.001Z</time></trkpt><trkpt lat="45.43660359327119" lon="3.091767632804384"><ele>877.0</ele><time>2026-04-18T16:50:00.001Z</time></trkpt><trkpt lat="45.436726358072534" lon="3.091634179814022"><ele>877.0</ele><time>2026-04-18T16:50:01.001Z</time></trkpt><trkpt lat="45.43685203258559" lon="3.0914865782110663"><ele>877.6666666666666</ele><time>2026-04-18T16:50:02.001Z</time></trkpt><trkpt lat="45.4369800802625" lon="3.091340104965255"><ele>878.3333333333333</ele><time>2026-04-18T16:50:03.001Z</time></trkpt><trkpt lat="45.43710151907567" lon="3.0911928442574537"><ele>879.0</ele><time>2026-04-18T16:50:04.001Z</time></trkpt><trkpt lat="45.437221333587274" lon="3.091035530328024"><ele>879.0</ele><time>2026-04-18T16:50:05.001Z</time></trkpt><trkpt lat="45.43733343224444" lon="3.0908790530685666"><ele>879.0</ele><time>2026-04-18T16:50:06.001Z</time></trkpt><trkpt lat="45.437444072557255" lon="3.0907015551973034"><ele>879.0</ele><time>2026-04-18T16:50:07.001Z</time></trkpt><trkpt lat="45.437553663240664" lon="3.0905279175755442"><ele>890.0</ele><time>2026-04-18T16:50:08.001Z</time></trkpt><trkpt lat="45.43766408677021" lon="3.090347503010543"><ele>901.0</ele><time>2026-04-18T16:50:09.001Z</time></trkpt><trkpt lat="45.437773755188566" lon="3.09016417629319"><ele>912.0</ele><time>2026-04-18T16:50:10.001Z</time></trkpt><trkpt lat="45.43790158410848" lon="3.0900178694828675"><ele>911.3333333333333</ele><time>2026-04-18T16:50:11.001Z</time></trkpt><trkpt lat="45.438011988571596" lon="3.0898431309595003"><ele>910.6666666666666</ele><time>2026-04-18T16:50:12.001Z</time></trkpt><trkpt lat="45.43814067504016" lon="3.089678557770246"><ele>910.0</ele><time>2026-04-18T16:50:13.001Z</time></trkpt><trkpt lat="45.43826490631805" lon="3.089508937497821"><ele>910.0</ele><time>2026-04-18T16:50:14.001Z</time></trkpt><trkpt lat="45.43839010718484" lon="3.089340131130115"><ele>910.0</ele><time>2026-04-18T16:50:15.001Z</time></trkpt><trkpt lat="45.43851341448541" lon="3.0891668515472626"><ele>910.0</ele><time>2026-04-18T16:50:16.001Z</time></trkpt><trkpt lat="45.438628605921856" lon="3.088991034403435"><ele>907.6666666666666</ele><time>2026-04-18T16:50:17.001Z</time></trkpt><trkpt lat="45.43874234162134" lon="3.088798813260586"><ele>905.3333333333333</ele><time>2026-04-18T16:50:18.001Z</time></trkpt><trkpt lat="45.43884838580691" lon="3.0886046266177893"><ele>903.0</ele><time>2026-04-18T16:50:19.001Z</time></trkpt><trkpt lat="45.43896100997009" lon="3.088401949204238"><ele>908.3333333333333</ele><time>2026-04-18T16:50:20.001Z</time></trkpt><trkpt lat="45.439071242053465" lon="3.0882175472965154"><ele>913.6666666666666</ele><time>2026-04-18T16:50:21.001Z</time></trkpt><trkpt lat="45.43917398864133" lon="3.0880253002726916"><ele>919.0</ele><time>2026-04-18T16:50:22.001Z</time></trkpt><trkpt lat="45.4392637892428" lon="3.0878462759202794"><ele>919.0</ele><time>2026-04-18T16:50:23.001Z</time></trkpt><trkpt lat="45.43933342112676" lon="3.0876602799250166"><ele>919.0</ele><time>2026-04-18T16:50:24.001Z</time></trkpt><trkpt lat="45.43938576913962" lon="3.0874562651380004"><ele>919.0</ele><time>2026-04-18T16:50:25.001Z</time></trkpt><trkpt lat="45.43941882553982" lon="3.087238531256394"><ele>924.6666666666666</ele><time>2026-04-18T16:50:26.001Z</time></trkpt><trkpt lat="45.43944393046387" lon="3.087014348612186"><ele>930.3333333333333</ele><time>2026-04-18T16:50:27.001Z</time></trkpt><trkpt lat="45.439468268557114" lon="3.0868013567271158"><ele>936.0</ele><time>2026-04-18T16:50:28.001Z</time></trkpt><trkpt lat="45.43949478961303" lon="3.0865958206046793"><ele>938.25</ele><time>2026-04-18T16:50:29.001Z</time></trkpt><trkpt lat="45.43952110926297" lon="3.086405961846166"><ele>940.5</ele><time>2026-04-18T16:50:30.001Z</time></trkpt><trkpt lat="45.43956397975881" lon="3.086189781118177"><ele>942.75</ele><time>2026-04-18T16:50:31.001Z</time></trkpt><trkpt lat="45.43961096025884" lon="3.085992472565393"><ele>945.0</ele><time>2026-04-18T16:50:32.001Z</time></trkpt><trkpt lat="45.439644247606324" lon="3.0857961611474645"><ele>942.6</ele><time>2026-04-18T16:50:33.001Z</time></trkpt><trkpt lat="45.43967775147864" lon="3.0856293345747035"><ele>940.2</ele><time>2026-04-18T16:50:34.001Z</time></trkpt><trkpt lat="45.439715538449136" lon="3.085481588336372"><ele>937.8</ele><time>2026-04-18T16:50:35.001Z</time></trkpt><trkpt lat="45.43975799612665" lon="3.0853603444237065"><ele>935.4</ele><time>2026-04-18T16:50:36.001Z</time></trkpt><trkpt lat="45.43981259423786" lon="3.085260474748881"><ele>933.0</ele><time>2026-04-18T16:50:37.001Z</time></trkpt><trkpt lat="45.43988463419189" lon="3.085192921962772"><ele>933.0</ele><time>2026-04-18T16:50:38.001Z</time></trkpt><trkpt lat="45.4399600946826" lon="3.085144657830779"><ele>933.0</ele><time>2026-04-18T16:50:39.001Z</time></trkpt><trkpt lat="45.440043336503884" lon="3.085144722373628"><ele>933.0</ele><time>2026-04-18T16:50:40.001Z</time></trkpt><trkpt lat="45.440138548078615" lon="3.085149061067286"><ele>933.0</ele><time>2026-04-18T16:50:41.001Z</time></trkpt><trkpt lat="45.44021193173429" lon="3.0852830228138934"><ele>933.0</ele><time>2026-04-18T16:50:42.001Z</time></trkpt><trkpt lat="45.44026674214177" lon="3.0854236876899677"><ele>933.0</ele><time>2026-04-18T16:50:43.001Z</time></trkpt><trkpt lat="45.440320962637315" lon="3.08558210714631"><ele>933.0</ele><time>2026-04-18T16:50:44.001Z</time></trkpt><trkpt lat="45.44037908330611" lon="3.085760183026484"><ele>933.0</ele><time>2026-04-18T16:50:45.001Z</time></trkpt><trkpt lat="45.440436128432054" lon="3.085933279018418"><ele>933.0</ele><time>2026-04-18T16:50:46.001Z</time></trkpt><trkpt lat="45.44050673068907" lon="3.0860791180577887"><ele>935.0</ele><time>2026-04-18T16:50:47.001Z</time></trkpt><trkpt lat="45.440565381484795" lon="3.0862195785420594"><ele>937.0</ele><time>2026-04-18T16:50:48.001Z</time></trkpt><trkpt lat="45.44064466440948" lon="3.0863397575486657"><ele>939.0</ele><time>2026-04-18T16:50:49.001Z</time></trkpt><trkpt lat="45.44073940045697" lon="3.0864422225396404"><ele>941.0</ele><time>2026-04-18T16:50:50.001Z</time></trkpt><trkpt lat="45.440842637423955" lon="3.0864958819751207"><ele>941.0</ele><time>2026-04-18T16:50:51.001Z</time></trkpt><trkpt lat="45.440954253573786" lon="3.086497618450438"><ele>941.0</ele><time>2026-04-18T16:50:52.001Z</time></trkpt><trkpt lat="45.44108580225166" lon="3.086493892937805"><ele>941.0</ele><time>2026-04-18T16:50:53.001Z</time></trkpt><trkpt lat="45.441229818860016" lon="3.086508723757654"><ele>941.0</ele><time>2026-04-18T16:50:54.001Z</time></trkpt><trkpt lat="45.44137364403499" lon="3.0865743340789287"><ele>940.25</ele><time>2026-04-18T16:50:55.001Z</time></trkpt><trkpt lat="45.44152444436039" lon="3.0866092696324405"><ele>939.5</ele><time>2026-04-18T16:50:56.001Z</time></trkpt><trkpt lat="45.441658609968414" lon="3.086666608010652"><ele>938.75</ele><time>2026-04-18T16:50:57.001Z</time></trkpt><trkpt lat="45.44179438935994" lon="3.0867285589319517"><ele>938.0</ele><time>2026-04-18T16:50:58.001Z</time></trkpt><trkpt lat="45.441938758222584" lon="3.086799022324465"><ele>938.0</ele><time>2026-04-18T16:50:59.001Z</time></trkpt><trkpt lat="45.442071958940346" lon="3.086843480440238"><ele>938.0</ele><time>2026-04-18T16:51:00.001Z</time></trkpt><trkpt lat="45.44221515526438" lon="3.0868457747152744"><ele>938.0</ele><time>2026-04-18T16:51:01.001Z</time></trkpt><trkpt lat="45.44235667086711" lon="3.086807362974181"><ele>938.0</ele><time>2026-04-18T16:51:02.001Z</time></trkpt><trkpt lat="45.44249302134801" lon="3.0867328847255213"><ele>940.0</ele><time>2026-04-18T16:51:03.001Z</time></trkpt><trkpt lat="45.442626293350344" lon="3.0866376680147565"><ele>942.0</ele><time>2026-04-18T16:51:04.001Z</time></trkpt><trkpt lat="45.442756812134334" lon="3.0865393604855482"><ele>944.0</ele><time>2026-04-18T16:51:05.001Z</time></trkpt><trkpt lat="45.44289901405563" lon="3.0864530365722658"><ele>948.25</ele><time>2026-04-18T16:51:06.001Z</time></trkpt><trkpt lat="45.44304438443175" lon="3.086413435050896"><ele>952.5</ele><time>2026-04-18T16:51:07.001Z</time></trkpt><trkpt lat="45.44319230812492" lon="3.08636933509404"><ele>956.75</ele><time>2026-04-18T16:51:08.001Z</time></trkpt><trkpt lat="45.44331918436931" lon="3.086284588890467"><ele>961.0</ele><time>2026-04-18T16:51:09.001Z</time></trkpt><trkpt lat="45.44345193344978" lon="3.086196615985933"><ele>961.0</ele><time>2026-04-18T16:51:10.001Z</time></trkpt><trkpt lat="45.443589950055625" lon="3.0861278124410645"><ele>961.0</ele><time>2026-04-18T16:51:11.001Z</time></trkpt><trkpt lat="45.44371749996206" lon="3.0860775727064733"><ele>961.0</ele><time>2026-04-18T16:51:12.001Z</time></trkpt><trkpt lat="45.44383486210133" lon="3.086096367307562"><ele>961.0</ele><time>2026-04-18T16:51:13.001Z</time></trkpt><trkpt lat="45.443950107096825" lon="3.086180009333769"><ele>961.0</ele><time>2026-04-18T16:51:14.001Z</time></trkpt><trkpt lat="45.444063369513486" lon="3.086302806374932"><ele>961.0</ele><time>2026-04-18T16:51:15.001Z</time></trkpt><trkpt lat="45.44419302705245" lon="3.086417781795575"><ele>961.0</ele><time>2026-04-18T16:51:16.001Z</time></trkpt><trkpt lat="45.44430208142505" lon="3.0865254348310693"><ele>961.0</ele><time>2026-04-18T16:51:17.001Z</time></trkpt><trkpt lat="45.444411430421646" lon="3.0866053112741887"><ele>962.0</ele><time>2026-04-18T16:51:18.001Z</time></trkpt><trkpt lat="45.44452643517719" lon="3.086668524173977"><ele>963.0</ele><time>2026-04-18T16:51:19.001Z</time></trkpt><trkpt lat="45.44464557271228" lon="3.086722039128652"><ele>964.0</ele><time>2026-04-18T16:51:20.001Z</time></trkpt><trkpt lat="45.44476587600885" lon="3.086770922609385"><ele>965.0</ele><time>2026-04-18T16:51:21.001Z</time></trkpt><trkpt lat="45.44488264105041" lon="3.0868324454295575"><ele>965.0</ele><time>2026-04-18T16:51:22.001Z</time></trkpt><trkpt lat="45.44498533185957" lon="3.086944086761912"><ele>965.0</ele><time>2026-04-18T16:51:23.001Z</time></trkpt><trkpt lat="45.4450985987826" lon="3.087041119078384"><ele>965.0</ele><time>2026-04-18T16:51:24.001Z</time></trkpt><trkpt lat="45.44520419379871" lon="3.087145744223086"><ele>965.0</ele><time>2026-04-18T16:51:25.001Z</time></trkpt><trkpt lat="45.44533189097414" lon="3.087210109202257"><ele>965.0</ele><time>2026-04-18T16:51:26.001Z</time></trkpt><trkpt lat="45.44545924232578" lon="3.087203007029204"><ele>965.0</ele><time>2026-04-18T16:51:27.001Z</time></trkpt><trkpt lat="45.445568759649746" lon="3.087136103979853"><ele>965.0</ele><time>2026-04-18T16:51:28.001Z</time></trkpt><trkpt lat="45.44565939772242" lon="3.0870354301177776"><ele>965.0</ele><time>2026-04-18T16:51:29.001Z</time></trkpt><trkpt lat="45.44572650306264" lon="3.086932496022238"><ele>965.8333333333334</ele><time>2026-04-18T16:51:30.001Z</time></trkpt><trkpt lat="45.44577606423088" lon="3.086830835614831"><ele>966.6666666666667</ele><time>2026-04-18T16:51:31.001Z</time></trkpt><trkpt lat="45.44581363405078" lon="3.086732249533845"><ele>967.5</ele><time>2026-04-18T16:51:32.001Z</time></trkpt><trkpt lat="45.445846076907564" lon="3.086640891056418"><ele>968.3333333333333</ele><time>2026-04-18T16:51:33.001Z</time></trkpt><trkpt lat="45.44587926556527" lon="3.0865551258164516"><ele>969.1666666666666</ele><time>2026-04-18T16:51:34.001Z</time></trkpt><trkpt lat="45.44591111738773" lon="3.086473968007154"><ele>970.0</ele><time>2026-04-18T16:51:35.001Z</time></trkpt><trkpt lat="45.44597268895602" lon="3.0863833800675384"><ele>970.7142857142858</ele><time>2026-04-18T16:51:37.001Z</time></trkpt><trkpt lat="45.445992079862854" lon="3.086278008802569"><ele>971.4285714285714</ele><time>2026-04-18T16:52:05.001Z</time></trkpt><trkpt lat="45.445970316608644" lon="3.0861903967675026"><ele>972.1428571428571</ele><time>2026-04-18T16:57:48.001Z</time></trkpt><trkpt lat="45.44603919451826" lon="3.0861470880816153"><ele>972.8571428571429</ele><time>2026-04-18T16:57:50.001Z</time></trkpt><trkpt lat="45.44608252118731" lon="3.086081443403297"><ele>973.5714285714284</ele><time>2026-04-18T16:57:51.001Z</time></trkpt><trkpt lat="45.44612488278736" lon="3.086008721803838"><ele>974.2857142857142</ele><time>2026-04-18T16:57:52.001Z</time></trkpt><trkpt lat="45.44617116509388" lon="3.085936029560123"><ele>975.0</ele><time>2026-04-18T16:57:53.001Z</time></trkpt><trkpt lat="45.446226167614974" lon="3.0858586939307"><ele>975.0</ele><time>2026-04-18T16:57:54.001Z</time></trkpt><trkpt lat="45.446290829583546" lon="3.085773356131683"><ele>975.0</ele><time>2026-04-18T16:57:55.001Z</time></trkpt><trkpt lat="45.44635895504603" lon="3.0856818086133955"><ele>975.0</ele><time>2026-04-18T16:57:56.001Z</time></trkpt><trkpt lat="45.44642612116519" lon="3.0856025294338454"><ele>975.0</ele><time>2026-04-18T16:57:57.001Z</time></trkpt><trkpt lat="45.44649087169906" lon="3.0855144464809916"><ele>975.0</ele><time>2026-04-18T16:57:58.001Z</time></trkpt><trkpt lat="45.44655061825227" lon="3.085407977919466"><ele>975.4</ele><time>2026-04-18T16:57:59.001Z</time></trkpt><trkpt lat="45.44659626332011" lon="3.085281691692197"><ele>975.8</ele><time>2026-04-18T16:58:00.001Z</time></trkpt><trkpt lat="45.44664582163614" lon="3.085134063073016"><ele>976.2</ele><time>2026-04-18T16:58:01.001Z</time></trkpt><trkpt lat="45.446675318044235" lon="3.084987588617408"><ele>976.6</ele><time>2026-04-18T16:58:02.001Z</time></trkpt><trkpt lat="45.4467081635724" lon="3.084848409956909"><ele>977.0</ele><time>2026-04-18T16:58:03.001Z</time></trkpt><trkpt lat="45.44676502088626" lon="3.084731797009608"><ele>977.0</ele><time>2026-04-18T16:58:04.001Z</time></trkpt><trkpt lat="45.44684224251598" lon="3.084658489810819"><ele>977.0</ele><time>2026-04-18T16:58:05.001Z</time></trkpt><trkpt lat="45.44694468192188" lon="3.0846576073278236"><ele>977.0</ele><time>2026-04-18T16:58:06.001Z</time></trkpt><trkpt lat="45.44705232371422" lon="3.0846581723586537"><ele>977.0</ele><time>2026-04-18T16:58:07.001Z</time></trkpt><trkpt lat="45.447173246987475" lon="3.084695243971058"><ele>977.0</ele><time>2026-04-18T16:58:08.001Z</time></trkpt><trkpt lat="45.447301074114684" lon="3.0847420544931454"><ele>977.75</ele><time>2026-04-18T16:58:09.001Z</time></trkpt><trkpt lat="45.447417454838806" lon="3.084843859590565"><ele>978.5</ele><time>2026-04-18T16:58:10.001Z</time></trkpt><trkpt lat="45.447527305189574" lon="3.0849647076970776"><ele>979.25</ele><time>2026-04-18T16:58:11.001Z</time></trkpt><trkpt lat="45.447616355397805" lon="3.08509202724841"><ele>980.0</ele><time>2026-04-18T16:58:12.001Z</time></trkpt><trkpt lat="45.44769098597565" lon="3.0852223301889654"><ele>980.0</ele><time>2026-04-18T16:58:13.001Z</time></trkpt><trkpt lat="45.44776999899542" lon="3.085355302037813"><ele>980.0</ele><time>2026-04-18T16:58:14.001Z</time></trkpt><trkpt lat="45.44786080540076" lon="3.085496243613625"><ele>980.0</ele><time>2026-04-18T16:58:15.001Z</time></trkpt><trkpt lat="45.447962643518814" lon="3.0856320393201626"><ele>980.0</ele><time>2026-04-18T16:58:16Z</time></trkpt><trkpt lat="45.44807414431155" lon="3.0857659409950426"><ele>977.25</ele><time>2026-04-18T16:58:17Z</time></trkpt><trkpt lat="45.44819227933868" lon="3.0858972160827185"><ele>974.5</ele><time>2026-04-18T16:58:18Z</time></trkpt><trkpt lat="45.44831367510488" lon="3.086008731964176"><ele>971.75</ele><time>2026-04-18T16:58:19Z</time></trkpt><trkpt lat="45.448443634665075" lon="3.086116781101406"><ele>969.0</ele><time>2026-04-18T16:58:20Z</time></trkpt><trkpt lat="45.4485742164241" lon="3.086200725343361"><ele>969.0</ele><time>2026-04-18T16:58:21Z</time></trkpt><trkpt lat="45.44869650460822" lon="3.0862717363438126"><ele>969.0</ele><time>2026-04-18T16:58:22Z</time></trkpt><trkpt lat="45.44882086270673" lon="3.0863148547349217"><ele>969.0</ele><time>2026-04-18T16:58:23Z</time></trkpt><trkpt lat="45.44895014606839" lon="3.086329831446765"><ele>969.0</ele><time>2026-04-18T16:58:24Z</time></trkpt><trkpt lat="45.4490855436047" lon="3.0863217942029"><ele>970.25</ele><time>2026-04-18T16:58:25Z</time></trkpt><trkpt lat="45.449225251164" lon="3.0862846135947097"><ele>971.5</ele><time>2026-04-18T16:58:26Z</time></trkpt><trkpt lat="45.44936140130393" lon="3.0862168390870153"><ele>972.75</ele><time>2026-04-18T16:58:27Z</time></trkpt><trkpt lat="45.44949130782881" lon="3.08614889713339"><ele>974.0</ele><time>2026-04-18T16:58:28Z</time></trkpt><trkpt lat="45.44960649992029" lon="3.086116407678353"><ele>973.2</ele><time>2026-04-18T16:58:29Z</time></trkpt><trkpt lat="45.44971168935673" lon="3.086090501011054"><ele>972.4000000000001</ele><time>2026-04-18T16:58:30Z</time></trkpt><trkpt lat="45.44980722329971" lon="3.0860355901829757"><ele>971.6</ele><time>2026-04-18T16:58:31Z</time></trkpt><trkpt lat="45.44989023407314" lon="3.085946214256996"><ele>970.8</ele><time>2026-04-18T16:58:32Z</time></trkpt><trkpt lat="45.44995657529369" lon="3.0858187988260357"><ele>970.0</ele><time>2026-04-18T16:58:33Z</time></trkpt><trkpt lat="45.45001123156184" lon="3.085676780049529"><ele>970.0</ele><time>2026-04-18T16:58:34Z</time></trkpt><trkpt lat="45.4500695836994" lon="3.0855403788115483"><ele>970.0</ele><time>2026-04-18T16:58:35Z</time></trkpt><trkpt lat="45.45014216644355" lon="3.085395870207029"><ele>970.0</ele><time>2026-04-18T16:58:36Z</time></trkpt><trkpt lat="45.450222751979666" lon="3.0852534259511377"><ele>970.0</ele><time>2026-04-18T16:58:37Z</time></trkpt><trkpt lat="45.450309138787254" lon="3.085126798176965"><ele>970.0</ele><time>2026-04-18T16:58:38Z</time></trkpt><trkpt lat="45.45038983191038" lon="3.085013487237055"><ele>970.0</ele><time>2026-04-18T16:58:39Z</time></trkpt><trkpt lat="45.45047745358104" lon="3.0849095618550026"><ele>970.0</ele><time>2026-04-18T16:58:40Z</time></trkpt><trkpt lat="45.450574224502425" lon="3.0848160903572497"><ele>970.0</ele><time>2026-04-18T16:58:41Z</time></trkpt><trkpt lat="45.45067886080477" lon="3.0847290652087413"><ele>967.5</ele><time>2026-04-18T16:58:42Z</time></trkpt><trkpt lat="45.45078209292699" lon="3.0846414271303733"><ele>965.0</ele><time>2026-04-18T16:58:43Z</time></trkpt><trkpt lat="45.45087009627692" lon="3.0845272487724116"><ele>962.5</ele><time>2026-04-18T16:58:44Z</time></trkpt><trkpt lat="45.45094194137424" lon="3.0843836425279836"><ele>960.0</ele><time>2026-04-18T16:58:45.001Z</time></trkpt><trkpt lat="45.451015075377526" lon="3.084235232928709"><ele>956.0</ele><time>2026-04-18T16:58:46.001Z</time></trkpt><trkpt lat="45.45109917257704" lon="3.0840904696776343"><ele>952.0</ele><time>2026-04-18T16:58:47.001Z</time></trkpt><trkpt lat="45.45118605279685" lon="3.083941935591939"><ele>948.0</ele><time>2026-04-18T16:58:48.001Z</time></trkpt><trkpt lat="45.4512796844099" lon="3.083789728045364"><ele>944.0</ele><time>2026-04-18T16:58:49.001Z</time></trkpt><trkpt lat="45.45136504587411" lon="3.0836214779496687"><ele>944.0</ele><time>2026-04-18T16:58:50.001Z</time></trkpt><trkpt lat="45.45145226437024" lon="3.0834466187636207"><ele>944.0</ele><time>2026-04-18T16:58:51.001Z</time></trkpt><trkpt lat="45.451536543441044" lon="3.083259645123055"><ele>944.0</ele><time>2026-04-18T16:58:52.001Z</time></trkpt><trkpt lat="45.45162494575293" lon="3.083073005403361"><ele>951.0</ele><time>2026-04-18T16:58:53.001Z</time></trkpt><trkpt lat="45.45171957645044" lon="3.082886813556722"><ele>958.0</ele><time>2026-04-18T16:58:54.001Z</time></trkpt><trkpt lat="45.45182341175171" lon="3.0827170223217975"><ele>965.0</ele><time>2026-04-18T16:58:55.001Z</time></trkpt><trkpt lat="45.451934514641266" lon="3.0825436589975554"><ele>965.3333333333334</ele><time>2026-04-18T16:58:56.001Z</time></trkpt><trkpt lat="45.45205205738461" lon="3.0823705896451683"><ele>965.6666666666667</ele><time>2026-04-18T16:58:57.001Z</time></trkpt><trkpt lat="45.45217098682894" lon="3.0822063742206396"><ele>966.0</ele><time>2026-04-18T16:58:58.001Z</time></trkpt><trkpt lat="45.45230479824824" lon="3.082041661210436"><ele>966.0</ele><time>2026-04-18T16:58:59.001Z</time></trkpt><trkpt lat="45.452449459172236" lon="3.0819206783983177"><ele>966.0</ele><time>2026-04-18T16:59:00.001Z</time></trkpt><trkpt lat="45.45259744711186" lon="3.0817873498761617"><ele>966.0</ele><time>2026-04-18T16:59:01.001Z</time></trkpt><trkpt lat="45.45273808372344" lon="3.0816302952511334"><ele>966.3333333333333</ele><time>2026-04-18T16:59:02.001Z</time></trkpt><trkpt lat="45.45288359123753" lon="3.081492131321688"><ele>966.6666666666666</ele><time>2026-04-18T16:59:03.001Z</time></trkpt><trkpt lat="45.453025201414356" lon="3.0813421223521797"><ele>967.0</ele><time>2026-04-18T16:59:04.001Z</time></trkpt><trkpt lat="45.4531630158613" lon="3.0812028472180484"><ele>967.0</ele><time>2026-04-18T16:59:05.001Z</time></trkpt><trkpt lat="45.45330224239846" lon="3.0810830445920097"><ele>967.0</ele><time>2026-04-18T16:59:06.001Z</time></trkpt><trkpt lat="45.453445031208496" lon="3.0809716314874462"><ele>967.0</ele><time>2026-04-18T16:59:07.001Z</time></trkpt><trkpt lat="45.453589442374756" lon="3.080888848738277"><ele>967.0</ele><time>2026-04-18T16:59:08.001Z</time></trkpt><trkpt lat="45.45373233916862" lon="3.0808148974817056"><ele>967.0</ele><time>2026-04-18T16:59:09.001Z</time></trkpt><trkpt lat="45.45386838604595" lon="3.080734227316067"><ele>967.0</ele><time>2026-04-18T16:59:10.001Z</time></trkpt><trkpt lat="45.453994444467824" lon="3.0806392065242507"><ele>967.0</ele><time>2026-04-18T16:59:11.001Z</time></trkpt><trkpt lat="45.45411451297959" lon="3.080541686784731"><ele>964.0</ele><time>2026-04-18T16:59:12.001Z</time></trkpt><trkpt lat="45.45422594861958" lon="3.080452840159312"><ele>961.0</ele><time>2026-04-18T16:59:13.001Z</time></trkpt><trkpt lat="45.454339529163015" lon="3.0803975538449495"><ele>958.0</ele><time>2026-04-18T16:59:14.001Z</time></trkpt><trkpt lat="45.45444452984423" lon="3.080346590548435"><ele>955.0</ele><time>2026-04-18T16:59:15.001Z</time></trkpt><trkpt lat="45.45454161411061" lon="3.0802923226548233"><ele>955.0</ele><time>2026-04-18T16:59:16.001Z</time></trkpt><trkpt lat="45.454616156463395" lon="3.0801831301115965"><ele>955.0</ele><time>2026-04-18T16:59:17.001Z</time></trkpt><trkpt lat="45.45467587304828" lon="3.0800565593034763"><ele>955.0</ele><time>2026-04-18T16:59:18.001Z</time></trkpt><trkpt lat="45.45471885472441" lon="3.0798961919465526"><ele>955.0</ele><time>2026-04-18T16:59:19.001Z</time></trkpt><trkpt lat="45.45473958685576" lon="3.079730504882242"><ele>955.25</ele><time>2026-04-18T16:59:20.001Z</time></trkpt><trkpt lat="45.4547578332391" lon="3.0795519890243988"><ele>955.5</ele><time>2026-04-18T16:59:21Z</time></trkpt><trkpt lat="45.45477443152524" lon="3.0793682406315557"><ele>955.75</ele><time>2026-04-18T16:59:22Z</time></trkpt><trkpt lat="45.45478798011811" lon="3.0791886228152583"><ele>956.0</ele><time>2026-04-18T16:59:23Z</time></trkpt><trkpt lat="45.45481077046568" lon="3.0790005090487664"><ele>956.0</ele><time>2026-04-18T16:59:24Z</time></trkpt><trkpt lat="45.45484332919039" lon="3.078819035396806"><ele>956.0</ele><time>2026-04-18T16:59:25Z</time></trkpt><trkpt lat="45.45489003651962" lon="3.078640014629291"><ele>956.0</ele><time>2026-04-18T16:59:26Z</time></trkpt><trkpt lat="45.454956823899096" lon="3.0784619075145274"><ele>956.0</ele><time>2026-04-18T16:59:27Z</time></trkpt><trkpt lat="45.45502418149015" lon="3.0782881899265058"><ele>957.75</ele><time>2026-04-18T16:59:28Z</time></trkpt><trkpt lat="45.45505897272809" lon="3.0780955362451548"><ele>959.5</ele><time>2026-04-18T16:59:29Z</time></trkpt><trkpt lat="45.45506230925056" lon="3.077890214301168"><ele>961.25</ele><time>2026-04-18T16:59:30Z</time></trkpt><trkpt lat="45.45504438588899" lon="3.0776661695698717"><ele>963.0</ele><time>2026-04-18T16:59:31Z</time></trkpt><trkpt lat="45.45501776829738" lon="3.077446179889368"><ele>964.3333333333333</ele><time>2026-04-18T16:59:32Z</time></trkpt><trkpt lat="45.4549938523327" lon="3.0771972888830796"><ele>965.6666666666666</ele><time>2026-04-18T16:59:33Z</time></trkpt><trkpt lat="45.45498895922024" lon="3.0769423155837137"><ele>967.0</ele><time>2026-04-18T16:59:34Z</time></trkpt><trkpt lat="45.45501214482048" lon="3.0766475783090805"><ele>968.3333333333333</ele><time>2026-04-18T16:59:35Z</time></trkpt><trkpt lat="45.45509962485199" lon="3.076364445601172"><ele>969.6666666666667</ele><time>2026-04-18T16:59:36Z</time></trkpt><trkpt lat="45.45515858818364" lon="3.076046365287242"><ele>971.0</ele><time>2026-04-18T16:59:37Z</time></trkpt><trkpt lat="45.45521162005633" lon="3.075723685317049"><ele>972.0</ele><time>2026-04-18T16:59:38Z</time></trkpt><trkpt lat="45.45526349481986" lon="3.075425795021906"><ele>973.0</ele><time>2026-04-18T16:59:39Z</time></trkpt><trkpt lat="45.45529681818692" lon="3.075168098116441"><ele>974.0</ele><time>2026-04-18T16:59:40Z</time></trkpt><trkpt lat="45.45528838774762" lon="3.0749039201313586"><ele>974.6666666666667</ele><time>2026-04-18T16:59:41Z</time></trkpt><trkpt lat="45.455243548251694" lon="3.0746182300279643"><ele>975.3333333333333</ele><time>2026-04-18T16:59:42Z</time></trkpt><trkpt lat="45.45517659784678" lon="3.07432510196253"><ele>976.0</ele><time>2026-04-18T16:59:43Z</time></trkpt><trkpt lat="45.455081116544896" lon="3.0740477893993177"><ele>979.5</ele><time>2026-04-18T16:59:44Z</time></trkpt><trkpt lat="45.4549602552578" lon="3.0737715232794605"><ele>983.0</ele><time>2026-04-18T16:59:45Z</time></trkpt><trkpt lat="45.45483455451522" lon="3.0735032041083374"><ele>984.0</ele><time>2026-04-18T16:59:46Z</time></trkpt><trkpt lat="45.454753277892095" lon="3.07322866096423"><ele>985.0</ele><time>2026-04-18T16:59:47Z</time></trkpt><trkpt lat="45.454641570986794" lon="3.073029274892483"><ele>986.0</ele><time>2026-04-18T16:59:48Z</time></trkpt><trkpt lat="45.45458237191726" lon="3.072849404419849"><ele>986.0</ele><time>2026-04-18T16:59:49Z</time></trkpt><trkpt lat="45.45454987270973" lon="3.0727084879218554"><ele>985.9999999999999</ele><time>2026-04-18T16:59:50Z</time></trkpt><trkpt lat="45.45452059103093" lon="3.0725815629344146"><ele>985.9999999999999</ele><time>2026-04-18T16:59:51Z</time></trkpt><trkpt lat="45.45457162370528" lon="3.0724646023590965"><ele>986.0</ele><time>2026-04-18T16:59:52Z</time></trkpt><trkpt lat="45.454657219806855" lon="3.0723930225471023"><ele>986.0</ele><time>2026-04-18T16:59:53Z</time></trkpt><trkpt lat="45.454772169174625" lon="3.0723751664199144"><ele>986.75</ele><time>2026-04-18T16:59:54Z</time></trkpt><trkpt lat="45.45488332302813" lon="3.072435699967813"><ele>987.5</ele><time>2026-04-18T16:59:55Z</time></trkpt><trkpt lat="45.45494869480121" lon="3.0725967899046367"><ele>988.25</ele><time>2026-04-18T16:59:56Z</time></trkpt><trkpt lat="45.45498116559172" lon="3.072764063465128"><ele>989.0</ele><time>2026-04-18T16:59:57Z</time></trkpt><trkpt lat="45.45502236551463" lon="3.0729650507118493"><ele>989.0</ele><time>2026-04-18T16:59:58Z</time></trkpt><trkpt lat="45.45508770020183" lon="3.0731678416776615"><ele>989.0</ele><time>2026-04-18T16:59:59Z</time></trkpt><trkpt lat="45.45518928422054" lon="3.073325484883507"><ele>989.0</ele><time>2026-04-18T17:00:00Z</time></trkpt><trkpt lat="45.455336713169764" lon="3.0734524479383847"><ele>993.0</ele><time>2026-04-18T17:00:01Z</time></trkpt><trkpt lat="45.45549220648119" lon="3.0735882829376977"><ele>997.0</ele><time>2026-04-18T17:00:02Z</time></trkpt><trkpt lat="45.455636238877126" lon="3.0737430659749787"><ele>1001.0</ele><time>2026-04-18T17:00:03Z</time></trkpt><trkpt lat="45.45578473515713" lon="3.073899852896474"><ele>1001.0</ele><time>2026-04-18T17:00:04Z</time></trkpt><trkpt lat="45.45594871431451" lon="3.074055377676577"><ele>1001.0</ele><time>2026-04-18T17:00:05Z</time></trkpt><trkpt lat="45.456106503265" lon="3.0742501505714293"><ele>1001.0</ele><time>2026-04-18T17:00:06Z</time></trkpt><trkpt lat="45.456248910686945" lon="3.074474807351593"><ele>1002.3333333333334</ele><time>2026-04-18T17:00:07Z</time></trkpt><trkpt lat="45.456401134536264" lon="3.0746961818681826"><ele>1003.6666666666667</ele><time>2026-04-18T17:00:08Z</time></trkpt><trkpt lat="45.456551464358064" lon="3.074939266794334"><ele>1005.0</ele><time>2026-04-18T17:00:09Z</time></trkpt><trkpt lat="45.45670481011099" lon="3.0752093986628823"><ele>1005.0</ele><time>2026-04-18T17:00:10Z</time></trkpt><trkpt lat="45.456845891395716" lon="3.0755031981809506"><ele>1005.0</ele><time>2026-04-18T17:00:11Z</time></trkpt><trkpt lat="45.456941501891635" lon="3.07582407070926"><ele>1004.0</ele><time>2026-04-18T17:00:12Z</time></trkpt><trkpt lat="45.45699106539265" lon="3.0761320184366348"><ele>1003.0</ele><time>2026-04-18T17:00:13Z</time></trkpt><trkpt lat="45.4569962056859" lon="3.0763716792856415"><ele>1002.0</ele><time>2026-04-18T17:00:14Z</time></trkpt><trkpt lat="45.457012829857234" lon="3.076570929694611"><ele>1001.75</ele><time>2026-04-18T17:00:15Z</time></trkpt><trkpt lat="45.45702785134147" lon="3.076732042800423"><ele>1001.5</ele><time>2026-04-18T17:00:16Z</time></trkpt><trkpt lat="45.45711480862595" lon="3.076876306544437"><ele>1001.25</ele><time>2026-04-18T17:00:17Z</time></trkpt><trkpt lat="45.45725499292484" lon="3.0770164449712203"><ele>1001.0</ele><time>2026-04-18T17:00:18Z</time></trkpt><trkpt lat="45.457390347280786" lon="3.0770708057440657"><ele>1004.75</ele><time>2026-04-18T17:00:19Z</time></trkpt><trkpt lat="45.45752321696065" lon="3.0770552870351975"><ele>1008.5</ele><time>2026-04-18T17:00:20Z</time></trkpt><trkpt lat="45.457651172572966" lon="3.0769750033911047"><ele>1012.25</ele><time>2026-04-18T17:00:21Z</time></trkpt><trkpt lat="45.45775325488278" lon="3.0768502273523093"><ele>1016.0</ele><time>2026-04-18T17:00:22Z</time></trkpt><trkpt lat="45.4578095217551" lon="3.076712209130509"><ele>1016.5999999999999</ele><time>2026-04-18T17:00:23Z</time></trkpt><trkpt lat="45.457844589988326" lon="3.076583980550918"><ele>1017.1999999999999</ele><time>2026-04-18T17:00:24Z</time></trkpt><trkpt lat="45.45787396378185" lon="3.0764696892126127"><ele>1017.8000000000001</ele><time>2026-04-18T17:00:25Z</time></trkpt><trkpt lat="45.45789945838745" lon="3.076350973602375"><ele>1018.4000000000001</ele><time>2026-04-18T17:00:26Z</time></trkpt><trkpt lat="45.45793254744042" lon="3.0762156208566402"><ele>1019.0</ele><time>2026-04-18T17:00:27Z</time></trkpt><trkpt lat="45.45797010088564" lon="3.076069469267988"><ele>1019.6</ele><time>2026-04-18T17:00:28Z</time></trkpt><trkpt lat="45.45800645087551" lon="3.075923554420487"><ele>1020.2</ele><time>2026-04-18T17:00:29Z</time></trkpt><trkpt lat="45.4580590025869" lon="3.0757835533855036"><ele>1020.8000000000001</ele><time>2026-04-18T17:00:30Z</time></trkpt><trkpt lat="45.45809761705424" lon="3.0756346848155123"><ele>1021.4000000000001</ele><time>2026-04-18T17:00:31Z</time></trkpt><trkpt lat="45.45813721139093" lon="3.0754820386827517"><ele>1022.0</ele><time>2026-04-18T17:00:32Z</time></trkpt><trkpt lat="45.45817701297142" lon="3.0753285935214074"><ele>1022.75</ele><time>2026-04-18T17:00:33Z</time></trkpt><trkpt lat="45.458217930050374" lon="3.0751704380300455"><ele>1023.5</ele><time>2026-04-18T17:00:34Z</time></trkpt><trkpt lat="45.45826044248149" lon="3.07500305308468"><ele>1024.25</ele><time>2026-04-18T17:00:35Z</time></trkpt><trkpt lat="45.45830251059227" lon="3.074837418286194"><ele>1025.0</ele><time>2026-04-18T17:00:36Z</time></trkpt><trkpt lat="45.458344261193396" lon="3.0746732114648916"><ele>1025.75</ele><time>2026-04-18T17:00:37Z</time></trkpt><trkpt lat="45.45839264562911" lon="3.0745118232090154"><ele>1026.5</ele><time>2026-04-18T17:00:38Z</time></trkpt><trkpt lat="45.45845300872453" lon="3.0743678791727818"><ele>1027.25</ele><time>2026-04-18T17:00:39Z</time></trkpt><trkpt lat="45.45853626432687" lon="3.0742547933235214"><ele>1028.0</ele><time>2026-04-18T17:00:40Z</time></trkpt><trkpt lat="45.45863043421123" lon="3.0741505635558126"><ele>1028.0</ele><time>2026-04-18T17:00:41Z</time></trkpt><trkpt lat="45.45875501197422" lon="3.074133224710146"><ele>1028.0</ele><time>2026-04-18T17:00:42Z</time></trkpt><trkpt lat="45.458871132248014" lon="3.074121785271894"><ele>1028.0</ele><time>2026-04-18T17:00:43Z</time></trkpt><trkpt lat="45.458989209833554" lon="3.0741100251921885"><ele>1028.0</ele><time>2026-04-18T17:00:44Z</time></trkpt><trkpt lat="45.459110403388394" lon="3.074078078264343"><ele>1029.2</ele><time>2026-04-18T17:00:45Z</time></trkpt><trkpt lat="45.45922493963704" lon="3.074079088874457"><ele>1030.4</ele><time>2026-04-18T17:00:46Z</time></trkpt><trkpt lat="45.45932581244348" lon="3.074068076125006"><ele>1031.6000000000001</ele><time>2026-04-18T17:00:47Z</time></trkpt><trkpt lat="45.459409649978404" lon="3.0740522711069542"><ele>1032.8</ele><time>2026-04-18T17:00:48Z</time></trkpt><trkpt lat="45.45949099750901" lon="3.0740393348694655"><ele>1034.0</ele><time>2026-04-18T17:00:49Z</time></trkpt><trkpt lat="45.45956465415367" lon="3.074058752378982"><ele>1034.5</ele><time>2026-04-18T17:00:50Z</time></trkpt><trkpt lat="45.459635355139916" lon="3.074038608279691"><ele>1035.0</ele><time>2026-04-18T17:00:51Z</time></trkpt><trkpt lat="45.45974427869025" lon="3.0740382656848375"><ele>1035.5</ele><time>2026-04-18T17:00:53Z</time></trkpt><trkpt lat="45.45982275948973" lon="3.0740570723931335"><ele>1036.0</ele><time>2026-04-18T17:00:55Z</time></trkpt><trkpt lat="45.45988613035643" lon="3.0740646605987068"><ele>1036.5</ele><time>2026-04-18T17:00:57Z</time></trkpt><trkpt lat="45.45994650777406" lon="3.0740927367733564"><ele>1037.0</ele><time>2026-04-18T17:01:00Z</time></trkpt><trkpt lat="45.46001838919323" lon="3.074108707009479"><ele>1036.6</ele><time>2026-04-18T17:01:02Z</time></trkpt><trkpt lat="45.46013233585963" lon="3.0741372293943225"><ele>1036.2</ele><time>2026-04-18T17:01:04Z</time></trkpt><trkpt lat="45.46025415686042" lon="3.0741914008919244"><ele>1035.8</ele><time>2026-04-18T17:01:06Z</time></trkpt><trkpt lat="45.460316091626446" lon="3.0742183003882158"><ele>1035.4</ele><time>2026-04-18T17:01:07Z</time></trkpt><trkpt lat="45.46044506021192" lon="3.074267727257313"><ele>1035.0</ele><time>2026-04-18T17:01:09Z</time></trkpt><trkpt lat="45.46052031283655" lon="3.0742957584529114"><ele>1035.0</ele><time>2026-04-18T17:01:10Z</time></trkpt><trkpt lat="45.460595325225974" lon="3.0743256833613026"><ele>1035.0</ele><time>2026-04-18T17:01:11Z</time></trkpt><trkpt lat="45.4606719993545" lon="3.0743513100612074"><ele>1035.0</ele><time>2026-04-18T17:01:12Z</time></trkpt><trkpt lat="45.460754883556454" lon="3.0743783053522384"><ele>1035.0</ele><time>2026-04-18T17:01:13Z</time></trkpt><trkpt lat="45.46083583039135" lon="3.074395417159647"><ele>1035.0</ele><time>2026-04-18T17:01:14Z</time></trkpt><trkpt lat="45.4609251407798" lon="3.0744184636241787"><ele>1035.0</ele><time>2026-04-18T17:01:15Z</time></trkpt><trkpt lat="45.46101443652428" lon="3.0744318366267462"><ele>1035.0</ele><time>2026-04-18T17:01:16Z</time></trkpt><trkpt lat="45.46110344741917" lon="3.074432019931784"><ele>1035.0</ele><time>2026-04-18T17:01:17Z</time></trkpt><trkpt lat="45.46118910590868" lon="3.0744279407066055"><ele>1035.0</ele><time>2026-04-18T17:01:18Z</time></trkpt><trkpt lat="45.46127165263958" lon="3.074421765684674"><ele>1035.0</ele><time>2026-04-18T17:01:19Z</time></trkpt><trkpt lat="45.46137435988987" lon="3.0743412239371017"><ele>1035.0</ele><time>2026-04-18T17:01:21Z</time></trkpt><trkpt lat="45.46148475666455" lon="3.074288442831248"><ele>1035.5</ele><time>2026-04-18T17:01:23Z</time></trkpt><trkpt lat="45.46156777222067" lon="3.074244524573668"><ele>1036.0</ele><time>2026-04-18T17:01:25Z</time></trkpt><trkpt lat="45.46162221210622" lon="3.074166511134236"><ele>1036.5</ele><time>2026-04-18T17:01:28Z</time></trkpt><trkpt lat="45.461676706909216" lon="3.0740846943596316"><ele>1037.0</ele><time>2026-04-18T17:01:33Z</time></trkpt><trkpt lat="45.461770942766925" lon="3.0741060667819067"><ele>1037.5</ele><time>2026-04-18T17:01:35Z</time></trkpt><trkpt lat="45.461862462218086" lon="3.0740740088116354"><ele>1038.0</ele><time>2026-04-18T17:01:37Z</time></trkpt><trkpt lat="45.46198134565393" lon="3.074024319810639"><ele>1039.0</ele><time>2026-04-18T17:01:39Z</time></trkpt><trkpt lat="45.46204138691757" lon="3.0739958524728763"><ele>1040.0</ele><time>2026-04-18T17:01:40Z</time></trkpt><trkpt lat="45.46210894482973" lon="3.0739573294400526"><ele>1041.0</ele><time>2026-04-18T17:01:41Z</time></trkpt><trkpt lat="45.462189999348375" lon="3.073912732217715"><ele>1042.0</ele><time>2026-04-18T17:01:42Z</time></trkpt><trkpt lat="45.46227486494133" lon="3.0738665903301845"><ele>1043.0</ele><time>2026-04-18T17:01:43Z</time></trkpt><trkpt lat="45.46235876199273" lon="3.073821533500633"><ele>1044.0</ele><time>2026-04-18T17:01:44Z</time></trkpt><trkpt lat="45.46244605006912" lon="3.073772545855275"><ele>1044.0</ele><time>2026-04-18T17:01:45Z</time></trkpt><trkpt lat="45.46253474547762" lon="3.0737153183412524"><ele>1044.0</ele><time>2026-04-18T17:01:46Z</time></trkpt><trkpt lat="45.462627969193704" lon="3.073648465657102"><ele>1044.0</ele><time>2026-04-18T17:01:47Z</time></trkpt><trkpt lat="45.462727757146666" lon="3.073573251175046"><ele>1044.0</ele><time>2026-04-18T17:01:48Z</time></trkpt><trkpt lat="45.46283106880493" lon="3.073495197418111"><ele>1044.0</ele><time>2026-04-18T17:01:49Z</time></trkpt><trkpt lat="45.462931855297576" lon="3.073419253578362"><ele>1043.0</ele><time>2026-04-18T17:01:50Z</time></trkpt><trkpt lat="45.463043952296324" lon="3.073344851742914"><ele>1042.0</ele><time>2026-04-18T17:01:51Z</time></trkpt><trkpt lat="45.46316388559238" lon="3.0732943175354652"><ele>1041.0</ele><time>2026-04-18T17:01:52Z</time></trkpt><trkpt lat="45.463294861036026" lon="3.0732761091738094"><ele>1040.0</ele><time>2026-04-18T17:01:53Z</time></trkpt><trkpt lat="45.463438920655605" lon="3.0732721176313906"><ele>1040.0</ele><time>2026-04-18T17:01:54Z</time></trkpt><trkpt lat="45.4635835407248" lon="3.073282289499922"><ele>1040.0</ele><time>2026-04-18T17:01:55Z</time></trkpt><trkpt lat="45.463713952270716" lon="3.0733076863314497"><ele>1040.0</ele><time>2026-04-18T17:01:56Z</time></trkpt><trkpt lat="45.46383015314907" lon="3.0733581955607945"><ele>1040.0</ele><time>2026-04-18T17:01:57Z</time></trkpt><trkpt lat="45.46392863040571" lon="3.073452315585257"><ele>1040.5</ele><time>2026-04-18T17:01:58Z</time></trkpt><trkpt lat="45.46398930163764" lon="3.07359391214875"><ele>1041.0</ele><time>2026-04-18T17:01:59Z</time></trkpt><trkpt lat="45.46406201815998" lon="3.0737291735393364"><ele>1041.5</ele><time>2026-04-18T17:02:00Z</time></trkpt><trkpt lat="45.46410662185547" lon="3.073891880051169"><ele>1042.0</ele><time>2026-04-18T17:02:01Z</time></trkpt><trkpt lat="45.46414037801043" lon="3.074074233944506"><ele>1039.25</ele><time>2026-04-18T17:02:02Z</time></trkpt><trkpt lat="45.46415780997549" lon="3.074252541747533"><ele>1036.5</ele><time>2026-04-18T17:02:03Z</time></trkpt><trkpt lat="45.46416454396468" lon="3.074432288284191"><ele>1033.75</ele><time>2026-04-18T17:02:04Z</time></trkpt><trkpt lat="45.46416814012237" lon="3.074619059159236"><ele>1031.0</ele><time>2026-04-18T17:02:05Z</time></trkpt><trkpt lat="45.46419879384617" lon="3.0748022427839086"><ele>1029.0</ele><time>2026-04-18T17:02:06Z</time></trkpt><trkpt lat="45.464250697325426" lon="3.0749764769593186"><ele>1027.0</ele><time>2026-04-18T17:02:07Z</time></trkpt><trkpt lat="45.46432106028477" lon="3.0751328242449807"><ele>1025.0</ele><time>2026-04-18T17:02:08Z</time></trkpt><trkpt lat="45.46440822906611" lon="3.0752759056089785"><ele>1023.0</ele><time>2026-04-18T17:02:09Z</time></trkpt><trkpt lat="45.46451777250892" lon="3.0754148158437262"><ele>1023.3333333333333</ele><time>2026-04-18T17:02:10Z</time></trkpt><trkpt lat="45.46465677576294" lon="3.0755547243016474"><ele>1023.6666666666666</ele><time>2026-04-18T17:02:11Z</time></trkpt><trkpt lat="45.46480467620874" lon="3.075689896202353"><ele>1024.0</ele><time>2026-04-18T17:02:12Z</time></trkpt><trkpt lat="45.464951908572516" lon="3.0758320698574027"><ele>1024.0</ele><time>2026-04-18T17:02:13Z</time></trkpt><trkpt lat="45.46508732503024" lon="3.0759566188268415"><ele>1024.0</ele><time>2026-04-18T17:02:14Z</time></trkpt><trkpt lat="45.4652092820986" lon="3.0760725960302553"><ele>1024.0</ele><time>2026-04-18T17:02:15Z</time></trkpt><trkpt lat="45.46532750067598" lon="3.076181402434084"><ele>1024.0</ele><time>2026-04-18T17:02:16Z</time></trkpt><trkpt lat="45.465448006633984" lon="3.076267864239136"><ele>1025.0</ele><time>2026-04-18T17:02:17Z</time></trkpt><trkpt lat="45.465571972204316" lon="3.0763081120028746"><ele>1026.0</ele><time>2026-04-18T17:02:18Z</time></trkpt><trkpt lat="45.4657002276859" lon="3.0763066886156722"><ele>1027.0</ele><time>2026-04-18T17:02:19Z</time></trkpt><trkpt lat="45.46583425850233" lon="3.0762932067428728"><ele>1028.0</ele><time>2026-04-18T17:02:20Z</time></trkpt><trkpt lat="45.465967588097925" lon="3.076279327976017"><ele>1028.0</ele><time>2026-04-18T17:02:21Z</time></trkpt><trkpt lat="45.46609354087698" lon="3.076271721697474"><ele>1028.0</ele><time>2026-04-18T17:02:22Z</time></trkpt><trkpt lat="45.46621495432885" lon="3.0762673639777245"><ele>1028.0</ele><time>2026-04-18T17:02:23Z</time></trkpt><trkpt lat="45.466335858753766" lon="3.0762435512479125"><ele>1028.0</ele><time>2026-04-18T17:02:24Z</time></trkpt><trkpt lat="45.46645165759891" lon="3.0761898639526217"><ele>1026.75</ele><time>2026-04-18T17:02:25Z</time></trkpt><trkpt lat="45.466564417885884" lon="3.076098956913595"><ele>1025.5</ele><time>2026-04-18T17:02:26Z</time></trkpt><trkpt lat="45.46668486646941" lon="3.075985099148612"><ele>1024.25</ele><time>2026-04-18T17:02:27Z</time></trkpt><trkpt lat="45.46681282215824" lon="3.075904521508016"><ele>1023.0</ele><time>2026-04-18T17:02:28Z</time></trkpt><trkpt lat="45.46694433082938" lon="3.0758313763907434"><ele>1023.0</ele><time>2026-04-18T17:02:29Z</time></trkpt><trkpt lat="45.46708467727169" lon="3.075797897143332"><ele>1023.0</ele><time>2026-04-18T17:02:30Z</time></trkpt><trkpt lat="45.46723082607846" lon="3.0757877527753634"><ele>1023.0</ele><time>2026-04-18T17:02:31Z</time></trkpt><trkpt lat="45.46737873518677" lon="3.0757629389923675"><ele>1023.0</ele><time>2026-04-18T17:02:32Z</time></trkpt><trkpt lat="45.46751614316478" lon="3.0757680135195833"><ele>1024.5</ele><time>2026-04-18T17:02:33Z</time></trkpt><trkpt lat="45.46766327157497" lon="3.0757714774027467"><ele>1026.0</ele><time>2026-04-18T17:02:34Z</time></trkpt><trkpt lat="45.46781219544487" lon="3.0757577530653775"><ele>1027.5</ele><time>2026-04-18T17:02:35Z</time></trkpt><trkpt lat="45.46795892310323" lon="3.075745523771794"><ele>1029.0</ele><time>2026-04-18T17:02:36Z</time></trkpt><trkpt lat="45.468114681230944" lon="3.0757429157982483"><ele>1029.0</ele><time>2026-04-18T17:02:37Z</time></trkpt><trkpt lat="45.46827253616776" lon="3.075736972071537"><ele>1029.0</ele><time>2026-04-18T17:02:38Z</time></trkpt><trkpt lat="45.46842790029999" lon="3.075729614098318"><ele>1029.0</ele><time>2026-04-18T17:02:39Z</time></trkpt><trkpt lat="45.468577945056516" lon="3.075727245496656"><ele>1029.0</ele><time>2026-04-18T17:02:40Z</time></trkpt><trkpt lat="45.46872327686132" lon="3.075722131880454"><ele>1029.0</ele><time>2026-04-18T17:02:41Z</time></trkpt><trkpt lat="45.468856062923884" lon="3.075707266678772"><ele>1029.0</ele><time>2026-04-18T17:02:42Z</time></trkpt><trkpt lat="45.46898368261062" lon="3.075677360375895"><ele>1029.0</ele><time>2026-04-18T17:02:43Z</time></trkpt><trkpt lat="45.46912252455363" lon="3.075632051631447"><ele>1026.5</ele><time>2026-04-18T17:02:44Z</time></trkpt><trkpt lat="45.46926499432043" lon="3.0755701928735264"><ele>1024.0</ele><time>2026-04-18T17:02:45Z</time></trkpt><trkpt lat="45.46940004744186" lon="3.0754921806707958"><ele>1021.5</ele><time>2026-04-18T17:02:46Z</time></trkpt><trkpt lat="45.469531974101905" lon="3.0754064200484406"><ele>1019.0</ele><time>2026-04-18T17:02:47Z</time></trkpt><trkpt lat="45.469653257570705" lon="3.0753256143958736"><ele>1020.75</ele><time>2026-04-18T17:02:48Z</time></trkpt><trkpt lat="45.4697662339468" lon="3.075237631474745"><ele>1022.5</ele><time>2026-04-18T17:02:49Z</time></trkpt><trkpt lat="45.46986577081523" lon="3.0751262262648935"><ele>1024.25</ele><time>2026-04-18T17:02:50Z</time></trkpt><trkpt lat="45.46996112734805" lon="3.075022825626199"><ele>1026.0</ele><time>2026-04-18T17:02:51Z</time></trkpt><trkpt lat="45.47004140374342" lon="3.0748768141463687"><ele>1026.0</ele><time>2026-04-18T17:02:52Z</time></trkpt><trkpt lat="45.470114915660375" lon="3.074747543677175"><ele>1026.0</ele><time>2026-04-18T17:02:53Z</time></trkpt><trkpt lat="45.47022755353375" lon="3.0746963710000372"><ele>1026.0</ele><time>2026-04-18T17:02:54Z</time></trkpt><trkpt lat="45.47034824377442" lon="3.0746958480526283"><ele>1026.0</ele><time>2026-04-18T17:02:55Z</time></trkpt><trkpt lat="45.47045727031507" lon="3.074760868180501"><ele>1025.25</ele><time>2026-04-18T17:02:56Z</time></trkpt><trkpt lat="45.47055165528854" lon="3.0748764627921226"><ele>1024.5</ele><time>2026-04-18T17:02:57Z</time></trkpt><trkpt lat="45.470634068051694" lon="3.075037580227731"><ele>1023.75</ele><time>2026-04-18T17:02:58Z</time></trkpt><trkpt lat="45.47072381785895" lon="3.075194641412371"><ele>1023.0</ele><time>2026-04-18T17:02:59Z</time></trkpt><trkpt lat="45.47082702610129" lon="3.075333183104132"><ele>1016.6666666666667</ele><time>2026-04-18T17:03:00Z</time></trkpt><trkpt lat="45.47094263611692" lon="3.0754790720724148"><ele>1010.3333333333334</ele><time>2026-04-18T17:03:01Z</time></trkpt><trkpt lat="45.4710475168868" lon="3.0756331033724718"><ele>1004.0</ele><time>2026-04-18T17:03:02Z</time></trkpt><trkpt lat="45.47112309098339" lon="3.0758388825713525"><ele>1000.0</ele><time>2026-04-18T17:03:03Z</time></trkpt><trkpt lat="45.47118629691787" lon="3.076041664387"><ele>996.0</ele><time>2026-04-18T17:03:04Z</time></trkpt><trkpt lat="45.471222907088986" lon="3.076241681902931"><ele>992.0</ele><time>2026-04-18T17:03:05Z</time></trkpt><trkpt lat="45.47126042581897" lon="3.0764603670404655"><ele>995.6666666666667</ele><time>2026-04-18T17:03:06Z</time></trkpt><trkpt lat="45.47129862699767" lon="3.076688908399332"><ele>999.3333333333333</ele><time>2026-04-18T17:03:07Z</time></trkpt><trkpt lat="45.47134696378997" lon="3.0769122599719654"><ele>1003.0</ele><time>2026-04-18T17:03:08Z</time></trkpt><trkpt lat="45.471380234086816" lon="3.0771263448173056"><ele>1003.0</ele><time>2026-04-18T17:03:09Z</time></trkpt><trkpt lat="45.47141151170712" lon="3.0773255883193356"><ele>1003.0</ele><time>2026-04-18T17:03:10Z</time></trkpt><trkpt lat="45.47140405706095" lon="3.0775257330285513"><ele>1003.0</ele><time>2026-04-18T17:03:11Z</time></trkpt><trkpt lat="45.47138564861223" lon="3.077719116920883"><ele>1003.0</ele><time>2026-04-18T17:03:12Z</time></trkpt><trkpt lat="45.4713349945154" lon="3.077903265614814"><ele>995.75</ele><time>2026-04-18T17:03:13Z</time></trkpt><trkpt lat="45.47126959381193" lon="3.078077642812513"><ele>988.5</ele><time>2026-04-18T17:03:14Z</time></trkpt><trkpt lat="45.47121432249911" lon="3.0782447031430773"><ele>981.25</ele><time>2026-04-18T17:03:15Z</time></trkpt><trkpt lat="45.47115859164533" lon="3.07840147269901"><ele>974.0</ele><time>2026-04-18T17:03:16Z</time></trkpt><trkpt lat="45.471136581998294" lon="3.0785685752170098"><ele>973.25</ele><time>2026-04-18T17:03:17Z</time></trkpt><trkpt lat="45.47115342359189" lon="3.078747900100001"><ele>972.5</ele><time>2026-04-18T17:03:18Z</time></trkpt><trkpt lat="45.47119904991606" lon="3.0789480078611784"><ele>971.75</ele><time>2026-04-18T17:03:19Z</time></trkpt><trkpt lat="45.47126496231203" lon="3.0791489828761063"><ele>971.0</ele><time>2026-04-18T17:03:20Z</time></trkpt><trkpt lat="45.47134884048937" lon="3.0793661713892226"><ele>976.3333333333334</ele><time>2026-04-18T17:03:21Z</time></trkpt><trkpt lat="45.471442220312404" lon="3.079594319064041"><ele>981.6666666666667</ele><time>2026-04-18T17:03:22Z</time></trkpt><trkpt lat="45.47154447090569" lon="3.0798430375379304"><ele>987.0</ele><time>2026-04-18T17:03:23Z</time></trkpt><trkpt lat="45.47165984433585" lon="3.080121181903149"><ele>987.0</ele><time>2026-04-18T17:03:24Z</time></trkpt><trkpt lat="45.47177062080533" lon="3.0803979665302577"><ele>987.0</ele><time>2026-04-18T17:03:25Z</time></trkpt><trkpt lat="45.47187026977677" lon="3.0806430916494376"><ele>987.0</ele><time>2026-04-18T17:03:26Z</time></trkpt><trkpt lat="45.471966634773956" lon="3.0808647279835175"><ele>987.3333333333333</ele><time>2026-04-18T17:03:27Z</time></trkpt><trkpt lat="45.47206074337111" lon="3.0810794061385622"><ele>987.6666666666666</ele><time>2026-04-18T17:03:28Z</time></trkpt><trkpt lat="45.47215788186746" lon="3.0812721610124836"><ele>988.0</ele><time>2026-04-18T17:03:29Z</time></trkpt><trkpt lat="45.472265146410294" lon="3.0814500170347783"><ele>984.3333333333333</ele><time>2026-04-18T17:03:30Z</time></trkpt><trkpt lat="45.47237795739242" lon="3.081610018481124"><ele>980.6666666666667</ele><time>2026-04-18T17:03:31Z</time></trkpt><trkpt lat="45.47249415037098" lon="3.0817697743543824"><ele>977.0</ele><time>2026-04-18T17:03:32Z</time></trkpt><trkpt lat="45.47261705309705" lon="3.081931663694996"><ele>977.0</ele><time>2026-04-18T17:03:33Z</time></trkpt><trkpt lat="45.47272588139503" lon="3.0821073917676647"><ele>977.0</ele><time>2026-04-18T17:03:34Z</time></trkpt><trkpt lat="45.47286371375327" lon="3.082256245265358"><ele>977.0</ele><time>2026-04-18T17:03:35Z</time></trkpt><trkpt lat="45.47299051213487" lon="3.0824176153870595"><ele>976.3333333333334</ele><time>2026-04-18T17:03:36Z</time></trkpt><trkpt lat="45.473122012233965" lon="3.0825802849776927"><ele>975.6666666666667</ele><time>2026-04-18T17:03:37Z</time></trkpt><trkpt lat="45.47324602567008" lon="3.082736076687553"><ele>975.0</ele><time>2026-04-18T17:03:38Z</time></trkpt><trkpt lat="45.47336697590145" lon="3.082881450176262"><ele>975.0</ele><time>2026-04-18T17:03:39Z</time></trkpt><trkpt lat="45.473488950705544" lon="3.0830115518328842"><ele>975.0</ele><time>2026-04-18T17:03:40Z</time></trkpt><trkpt lat="45.47361836112301" lon="3.0831237469366015"><ele>975.0</ele><time>2026-04-18T17:03:41Z</time></trkpt><trkpt lat="45.47374550588415" lon="3.0832116799067073"><ele>975.0</ele><time>2026-04-18T17:03:42Z</time></trkpt><trkpt lat="45.47386935116598" lon="3.0832934969922183"><ele>973.0</ele><time>2026-04-18T17:03:43Z</time></trkpt><trkpt lat="45.473978620167344" lon="3.083363529046262"><ele>971.0</ele><time>2026-04-18T17:03:44Z</time></trkpt><trkpt lat="45.474079480212076" lon="3.083435247398684"><ele>969.0</ele><time>2026-04-18T17:03:45Z</time></trkpt><trkpt lat="45.47416799551168" lon="3.0834997674730906"><ele>967.0</ele><time>2026-04-18T17:03:46Z</time></trkpt><trkpt lat="45.47432109019242" lon="3.083609519055293"><ele>966.9999999999999</ele><time>2026-04-18T17:03:48Z</time></trkpt><trkpt lat="45.47438941251699" lon="3.083660879434712"><ele>967.0</ele><time>2026-04-18T17:03:49Z</time></trkpt><trkpt lat="45.47445796502655" lon="3.083718812282483"><ele>967.0</ele><time>2026-04-18T17:03:50Z</time></trkpt><trkpt lat="45.47451973339003" lon="3.083777128657763"><ele>967.0</ele><time>2026-04-18T17:03:51Z</time></trkpt><trkpt lat="45.4745735143698" lon="3.083843702216527"><ele>966.9999999999999</ele><time>2026-04-18T17:03:52Z</time></trkpt><trkpt lat="45.47461557537874" lon="3.08391317641506"><ele>967.0</ele><time>2026-04-18T17:03:53Z</time></trkpt><trkpt lat="45.47469578740673" lon="3.0840318837424476"><ele>966.6</ele><time>2026-04-18T17:03:55Z</time></trkpt><trkpt lat="45.474815314813846" lon="3.0839945200780394"><ele>966.2</ele><time>2026-04-18T17:03:56Z</time></trkpt><trkpt lat="45.47489975649204" lon="3.0840143610357336"><ele>965.8</ele><time>2026-04-18T17:03:57Z</time></trkpt><trkpt lat="45.47499898374254" lon="3.084048110494548"><ele>965.4</ele><time>2026-04-18T17:03:58Z</time></trkpt><trkpt lat="45.47509335180397" lon="3.084086443937831"><ele>965.0</ele><time>2026-04-18T17:03:59Z</time></trkpt><trkpt lat="45.4751961604907" lon="3.084109727118274"><ele>965.0</ele><time>2026-04-18T17:04:00Z</time></trkpt><trkpt lat="45.47530372117941" lon="3.084107741862518"><ele>965.0</ele><time>2026-04-18T17:04:01Z</time></trkpt><trkpt lat="45.47540762552714" lon="3.0840840450693228"><ele>965.0</ele><time>2026-04-18T17:04:02Z</time></trkpt><trkpt lat="45.475523764073074" lon="3.0840621661253667"><ele>965.0</ele><time>2026-04-18T17:04:03Z</time></trkpt><trkpt lat="45.47564568912479" lon="3.084044210868953"><ele>966.25</ele><time>2026-04-18T17:04:04Z</time></trkpt><trkpt lat="45.47577249670276" lon="3.084026321273614"><ele>967.5</ele><time>2026-04-18T17:04:05Z</time></trkpt><trkpt lat="45.47590651174508" lon="3.0840092243780273"><ele>968.75</ele><time>2026-04-18T17:04:06Z</time></trkpt><trkpt lat="45.47604408549177" lon="3.083997713966781"><ele>970.0</ele><time>2026-04-18T17:04:07Z</time></trkpt><trkpt lat="45.4761865161958" lon="3.0839802052112537"><ele>969.6666666666666</ele><time>2026-04-18T17:04:08Z</time></trkpt><trkpt lat="45.476333734778535" lon="3.083960027341497"><ele>969.3333333333333</ele><time>2026-04-18T17:04:09Z</time></trkpt><trkpt lat="45.47651298641238" lon="3.083939849656615"><ele>969.0</ele><time>2026-04-18T17:04:10Z</time></trkpt><trkpt lat="45.47668630000937" lon="3.0839096052801014"><ele>969.0</ele><time>2026-04-18T17:04:11Z</time></trkpt><trkpt lat="45.476869287831384" lon="3.083888389316212"><ele>969.0</ele><time>2026-04-18T17:04:12Z</time></trkpt><trkpt lat="45.47705604973052" lon="3.083862406530154"><ele>969.0</ele><time>2026-04-18T17:04:13Z</time></trkpt><trkpt lat="45.47725009632496" lon="3.0838373164173065"><ele>968.6666666666667</ele><time>2026-04-18T17:04:14Z</time></trkpt><trkpt lat="45.4774401618472" lon="3.0838089172395584"><ele>968.3333333333334</ele><time>2026-04-18T17:04:15Z</time></trkpt><trkpt lat="45.477625604881105" lon="3.0837786198105888"><ele>968.0</ele><time>2026-04-18T17:04:16Z</time></trkpt><trkpt lat="45.477822482973686" lon="3.083757777969055"><ele>966.6666666666667</ele><time>2026-04-18T17:04:17Z</time></trkpt><trkpt lat="45.47801853442469" lon="3.0837350959716"><ele>965.3333333333333</ele><time>2026-04-18T17:04:18Z</time></trkpt><trkpt lat="45.47821582616708" lon="3.0837142708754017"><ele>964.0</ele><time>2026-04-18T17:04:19Z</time></trkpt><trkpt lat="45.47841065604926" lon="3.08369166147032"><ele>964.0</ele><time>2026-04-18T17:04:20Z</time></trkpt><trkpt lat="45.47860777780834" lon="3.0836678710774468"><ele>964.0</ele><time>2026-04-18T17:04:21Z</time></trkpt><trkpt lat="45.478790816559744" lon="3.0836441941619688"><ele>964.0</ele><time>2026-04-18T17:04:22Z</time></trkpt><trkpt lat="45.478954265108335" lon="3.0836203688713884"><ele>962.3333333333333</ele><time>2026-04-18T17:04:23Z</time></trkpt><trkpt lat="45.479119417760124" lon="3.083589044174254"><ele>960.6666666666667</ele><time>2026-04-18T17:04:24Z</time></trkpt><trkpt lat="45.47929037638664" lon="3.0835400743080252"><ele>959.0</ele><time>2026-04-18T17:04:25Z</time></trkpt><trkpt lat="45.47945588892501" lon="3.0834630432320975"><ele>958.6666666666667</ele><time>2026-04-18T17:04:26Z</time></trkpt><trkpt lat="45.47962824121162" lon="3.0833639701755455"><ele>958.3333333333333</ele><time>2026-04-18T17:04:27Z</time></trkpt><trkpt lat="45.47981673292486" lon="3.083243152294169"><ele>958.0</ele><time>2026-04-18T17:04:28Z</time></trkpt><trkpt lat="45.480016780871146" lon="3.0830849607846025"><ele>959.5</ele><time>2026-04-18T17:04:29Z</time></trkpt><trkpt lat="45.48022744628919" lon="3.082909734182944"><ele>961.0</ele><time>2026-04-18T17:04:30Z</time></trkpt><trkpt lat="45.480414415916385" lon="3.082740750244167"><ele>961.3333333333333</ele><time>2026-04-18T17:04:31Z</time></trkpt><trkpt lat="45.48058830770213" lon="3.0826487633003463"><ele>961.6666666666667</ele><time>2026-04-18T17:04:32Z</time></trkpt><trkpt lat="45.48077456625038" lon="3.082658992359955"><ele>962.0</ele><time>2026-04-18T17:04:33Z</time></trkpt><trkpt lat="45.4809993749148" lon="3.0827106765339387"><ele>962.0</ele><time>2026-04-18T17:04:34Z</time></trkpt><trkpt lat="45.48121911209323" lon="3.0827645001773476"><ele>962.0</ele><time>2026-04-18T17:04:35Z</time></trkpt><trkpt lat="45.481412361444775" lon="3.0828093261285288"><ele>962.0</ele><time>2026-04-18T17:04:36Z</time></trkpt><trkpt lat="45.48157965708925" lon="3.08285758963216"><ele>965.0</ele><time>2026-04-18T17:04:37Z</time></trkpt><trkpt lat="45.48174057013006" lon="3.0829246558424086"><ele>968.0</ele><time>2026-04-18T17:04:38Z</time></trkpt><trkpt lat="45.48189076098502" lon="3.0830305289478925"><ele>971.0</ele><time>2026-04-18T17:04:39Z</time></trkpt><trkpt lat="45.482036521992725" lon="3.0831508169376187"><ele>970.6666666666667</ele><time>2026-04-18T17:04:40Z</time></trkpt><trkpt lat="45.48218836365154" lon="3.083244192404982"><ele>970.3333333333333</ele><time>2026-04-18T17:04:41Z</time></trkpt><trkpt lat="45.48234313709191" lon="3.0833213542220834"><ele>970.0</ele><time>2026-04-18T17:04:42Z</time></trkpt><trkpt lat="45.482505724589174" lon="3.0833941400544553"><ele>970.0</ele><time>2026-04-18T17:04:43Z</time></trkpt><trkpt lat="45.482666515916286" lon="3.0834542987458136"><ele>970.0</ele><time>2026-04-18T17:04:44Z</time></trkpt><trkpt lat="45.482825448561606" lon="3.0835145617666706"><ele>970.0</ele><time>2026-04-18T17:04:45Z</time></trkpt><trkpt lat="45.48298329284728" lon="3.0835691663986915"><ele>972.6666666666666</ele><time>2026-04-18T17:04:46Z</time></trkpt><trkpt lat="45.48314152763502" lon="3.083615635720226"><ele>975.3333333333333</ele><time>2026-04-18T17:04:47Z</time></trkpt><trkpt lat="45.48330337386353" lon="3.0836536435556305"><ele>978.0</ele><time>2026-04-18T17:04:48Z</time></trkpt><trkpt lat="45.483465261129616" lon="3.083684952473323"><ele>978.0</ele><time>2026-04-18T17:04:49Z</time></trkpt><trkpt lat="45.48362607342145" lon="3.0837078620687937"><ele>978.0</ele><time>2026-04-18T17:04:50Z</time></trkpt><trkpt lat="45.48379081798281" lon="3.083731485801031"><ele>978.0</ele><time>2026-04-18T17:04:51Z</time></trkpt><trkpt lat="45.48394750790527" lon="3.083758871129086"><ele>980.6666666666667</ele><time>2026-04-18T17:04:52Z</time></trkpt><trkpt lat="45.48411031559161" lon="3.083788285636213"><ele>983.3333333333334</ele><time>2026-04-18T17:04:53Z</time></trkpt><trkpt lat="45.484271623025016" lon="3.083813691596607"><ele>986.0</ele><time>2026-04-18T17:04:54Z</time></trkpt><trkpt lat="45.484427709965786" lon="3.083881022625092"><ele>986.0</ele><time>2026-04-18T17:04:55Z</time></trkpt><trkpt lat="45.48458774205926" lon="3.083967677365584"><ele>986.0</ele><time>2026-04-18T17:04:56Z</time></trkpt><trkpt lat="45.48474100540768" lon="3.0840454209805794"><ele>986.0</ele><time>2026-04-18T17:04:57Z</time></trkpt><trkpt lat="45.48488113827515" lon="3.0841747244208015"><ele>985.25</ele><time>2026-04-18T17:04:58Z</time></trkpt><trkpt lat="45.48500498845135" lon="3.0842745495828634"><ele>984.5</ele><time>2026-04-18T17:04:59Z</time></trkpt><trkpt lat="45.48512343749434" lon="3.0843475857148794"><ele>983.75</ele><time>2026-04-18T17:05:00Z</time></trkpt><trkpt lat="45.48525679783864" lon="3.0843751163568145"><ele>983.0</ele><time>2026-04-18T17:05:01Z</time></trkpt><trkpt lat="45.48540132762868" lon="3.0843555725118112"><ele>984.0</ele><time>2026-04-18T17:05:02Z</time></trkpt><trkpt lat="45.485557645041425" lon="3.084305720539245"><ele>985.0</ele><time>2026-04-18T17:05:03Z</time></trkpt><trkpt lat="45.48570538117177" lon="3.0842611766290218"><ele>986.0</ele><time>2026-04-18T17:05:04Z</time></trkpt><trkpt lat="45.48586253999411" lon="3.08421967949521"><ele>986.0</ele><time>2026-04-18T17:05:05Z</time></trkpt><trkpt lat="45.486022991684095" lon="3.08418909662894"><ele>986.0</ele><time>2026-04-18T17:05:06Z</time></trkpt><trkpt lat="45.48619218391737" lon="3.08416324339779"><ele>986.0</ele><time>2026-04-18T17:05:07Z</time></trkpt><trkpt lat="45.486348167488835" lon="3.084145667124961"><ele>986.5</ele><time>2026-04-18T17:05:08Z</time></trkpt><trkpt lat="45.4864953103028" lon="3.0841297466012842"><ele>987.0</ele><time>2026-04-18T17:05:09Z</time></trkpt><trkpt lat="45.48663319297472" lon="3.084109137018993"><ele>987.5</ele><time>2026-04-18T17:05:10Z</time></trkpt><trkpt lat="45.486753793529715" lon="3.0840875234860543"><ele>988.0</ele><time>2026-04-18T17:05:11Z</time></trkpt><trkpt lat="45.48686461517845" lon="3.0840473041927083"><ele>989.5</ele><time>2026-04-18T17:05:12Z</time></trkpt><trkpt lat="45.486966505470775" lon="3.083962219320823"><ele>991.0</ele><time>2026-04-18T17:05:13Z</time></trkpt><trkpt lat="45.4870618577782" lon="3.083843685888359"><ele>992.5</ele><time>2026-04-18T17:05:14Z</time></trkpt><trkpt lat="45.48715055112852" lon="3.083700699658506"><ele>994.0</ele><time>2026-04-18T17:05:15Z</time></trkpt><trkpt lat="45.487238090163196" lon="3.083545077854902"><ele>994.0</ele><time>2026-04-18T17:05:16Z</time></trkpt><trkpt lat="45.48731920006569" lon="3.083391634287286"><ele>994.0</ele><time>2026-04-18T17:05:17Z</time></trkpt><trkpt lat="45.487386324910254" lon="3.083219607129742"><ele>994.0</ele><time>2026-04-18T17:05:18Z</time></trkpt><trkpt lat="45.48743100327505" lon="3.0830332893440233"><ele>994.0</ele><time>2026-04-18T17:05:19Z</time></trkpt><trkpt lat="45.48749612739784" lon="3.082846949302891"><ele>994.5</ele><time>2026-04-18T17:05:20Z</time></trkpt><trkpt lat="45.4875501876045" lon="3.0826577560409887"><ele>995.0</ele><time>2026-04-18T17:05:21Z</time></trkpt><trkpt lat="45.48760184099993" lon="3.0824838147502143"><ele>995.5</ele><time>2026-04-18T17:05:22Z</time></trkpt><trkpt lat="45.4876709360467" lon="3.0823358788759263"><ele>996.0</ele><time>2026-04-18T17:05:23Z</time></trkpt><trkpt lat="45.48776162138827" lon="3.082207808704201"><ele>996.25</ele><time>2026-04-18T17:05:24Z</time></trkpt><trkpt lat="45.48787254827222" lon="3.082105377706203"><ele>996.5</ele><time>2026-04-18T17:05:25Z</time></trkpt><trkpt lat="45.48799091283243" lon="3.082012068473993"><ele>996.75</ele><time>2026-04-18T17:05:26Z</time></trkpt><trkpt lat="45.48810426270117" lon="3.0818987706801284"><ele>997.0</ele><time>2026-04-18T17:05:27Z</time></trkpt><trkpt lat="45.488221375913085" lon="3.081814252595626"><ele>996.4000000000001</ele><time>2026-04-18T17:05:28Z</time></trkpt><trkpt lat="45.48832546663631" lon="3.0817333882597264"><ele>995.8000000000001</ele><time>2026-04-18T17:05:29Z</time></trkpt><trkpt lat="45.48841422218944" lon="3.0816512958112097"><ele>995.2</ele><time>2026-04-18T17:05:30Z</time></trkpt><trkpt lat="45.48848202821761" lon="3.081555015663682"><ele>994.6</ele><time>2026-04-18T17:05:31Z</time></trkpt><trkpt lat="45.48851710264674" lon="3.081422622195797"><ele>994.0</ele><time>2026-04-18T17:05:32Z</time></trkpt><trkpt lat="45.48852060275395" lon="3.0812725911529824"><ele>994.0</ele><time>2026-04-18T17:05:33Z</time></trkpt><trkpt lat="45.48849649870615" lon="3.0811053694787147"><ele>994.0</ele><time>2026-04-18T17:05:34Z</time></trkpt><trkpt lat="45.48846643071192" lon="3.0809498733957397"><ele>994.0</ele><time>2026-04-18T17:05:35Z</time></trkpt><trkpt lat="45.48842499832821" lon="3.0807891509742875"><ele>994.0</ele><time>2026-04-18T17:05:36Z</time></trkpt><trkpt lat="45.48837333828133" lon="3.0806278646627865"><ele>993.5</ele><time>2026-04-18T17:05:37Z</time></trkpt><trkpt lat="45.48834112983063" lon="3.080452652148134"><ele>993.0</ele><time>2026-04-18T17:05:38Z</time></trkpt><trkpt lat="45.48831282246405" lon="3.0802746774419147"><ele>992.5</ele><time>2026-04-18T17:05:39Z</time></trkpt><trkpt lat="45.488304330813314" lon="3.0800951749145895"><ele>992.0</ele><time>2026-04-18T17:05:40Z</time></trkpt><trkpt lat="45.48830394411081" lon="3.0799171528823615"><ele>991.25</ele><time>2026-04-18T17:05:41Z</time></trkpt><trkpt lat="45.48830550956004" lon="3.079736759218747"><ele>990.5</ele><time>2026-04-18T17:05:42Z</time></trkpt><trkpt lat="45.48830731959926" lon="3.0795514684040395"><ele>989.75</ele><time>2026-04-18T17:05:43Z</time></trkpt><trkpt lat="45.48831238413557" lon="3.0793527729773333"><ele>989.0</ele><time>2026-04-18T17:05:44Z</time></trkpt><trkpt lat="45.488331680698586" lon="3.079159162766791"><ele>990.5</ele><time>2026-04-18T17:05:45Z</time></trkpt><trkpt lat="45.48835295927544" lon="3.0789722175695813"><ele>992.0</ele><time>2026-04-18T17:05:46Z</time></trkpt><trkpt lat="45.4883768917697" lon="3.0787903849873692"><ele>993.5</ele><time>2026-04-18T17:05:47Z</time></trkpt><trkpt lat="45.48840969607367" lon="3.0786205866048664"><ele>995.0</ele><time>2026-04-18T17:05:48Z</time></trkpt><trkpt lat="45.48845501719142" lon="3.078465044727599"><ele>995.0</ele><time>2026-04-18T17:05:49Z</time></trkpt><trkpt lat="45.488511010064876" lon="3.078328417769497"><ele>995.0</ele><time>2026-04-18T17:05:50Z</time></trkpt><trkpt lat="45.48857080689699" lon="3.078201304775866"><ele>995.0</ele><time>2026-04-18T17:05:51Z</time></trkpt><trkpt lat="45.48862703559644" lon="3.078073769956629"><ele>995.0</ele><time>2026-04-18T17:05:52Z</time></trkpt><trkpt lat="45.48865324781969" lon="3.0779433974496033"><ele>995.0</ele><time>2026-04-18T17:05:53Z</time></trkpt><trkpt lat="45.488669532705536" lon="3.0778079560367577"><ele>994.75</ele><time>2026-04-18T17:05:54Z</time></trkpt><trkpt lat="45.488668280675114" lon="3.0776501665925715"><ele>994.5</ele><time>2026-04-18T17:05:55Z</time></trkpt><trkpt lat="45.48865967601799" lon="3.0774798088787896"><ele>994.25</ele><time>2026-04-18T17:05:56Z</time></trkpt><trkpt lat="45.48867323426907" lon="3.0772980312171874"><ele>994.0</ele><time>2026-04-18T17:05:57Z</time></trkpt><trkpt lat="45.48865459127243" lon="3.077114509842513"><ele>994.0</ele><time>2026-04-18T17:05:58Z</time></trkpt><trkpt lat="45.48865847786436" lon="3.0769241688774103"><ele>994.0</ele><time>2026-04-18T17:05:59Z</time></trkpt><trkpt lat="45.48865425928442" lon="3.076712807587472"><ele>994.0</ele><time>2026-04-18T17:06:00Z</time></trkpt><trkpt lat="45.488655072842185" lon="3.07651492066903"><ele>994.0</ele><time>2026-04-18T17:06:01Z</time></trkpt><trkpt lat="45.48865074956217" lon="3.0763213648428023"><ele>992.0</ele><time>2026-04-18T17:06:02Z</time></trkpt><trkpt lat="45.48864206682395" lon="3.0761385509916974"><ele>990.0</ele><time>2026-04-18T17:06:03Z</time></trkpt><trkpt lat="45.48861373132766" lon="3.0759610611790547"><ele>988.0</ele><time>2026-04-18T17:06:04Z</time></trkpt><trkpt lat="45.488567923797234" lon="3.0757852658387805"><ele>986.0</ele><time>2026-04-18T17:06:05Z</time></trkpt><trkpt lat="45.48850616575796" lon="3.0756107063057665"><ele>981.75</ele><time>2026-04-18T17:06:06Z</time></trkpt><trkpt lat="45.488431327793386" lon="3.075436249061535"><ele>977.5</ele><time>2026-04-18T17:06:07Z</time></trkpt><trkpt lat="45.488350057006784" lon="3.075288558169671"><ele>973.25</ele><time>2026-04-18T17:06:08Z</time></trkpt><trkpt lat="45.488263375281235" lon="3.0751563123670347"><ele>969.0</ele><time>2026-04-18T17:06:09Z</time></trkpt><trkpt lat="45.4881616161285" lon="3.0750505098294365"><ele>969.0</ele><time>2026-04-18T17:06:10Z</time></trkpt><trkpt lat="45.4880472146175" lon="3.07497887640643"><ele>969.0</ele><time>2026-04-18T17:06:11Z</time></trkpt><trkpt lat="45.48792240636271" lon="3.074952966731434"><ele>969.0</ele><time>2026-04-18T17:06:12Z</time></trkpt><trkpt lat="45.48778986718973" lon="3.074918334203779"><ele>969.0</ele><time>2026-04-18T17:06:13Z</time></trkpt><trkpt lat="45.487677596560516" lon="3.074878823702449"><ele>971.0</ele><time>2026-04-18T17:06:14Z</time></trkpt><trkpt lat="45.48758274134663" lon="3.0747971914121432"><ele>973.0000000000001</ele><time>2026-04-18T17:06:15Z</time></trkpt><trkpt lat="45.4875206056151" lon="3.0746639720781297"><ele>975.0000000000001</ele><time>2026-04-18T17:06:16Z</time></trkpt><trkpt lat="45.487497810846875" lon="3.074512487774578"><ele>977.0</ele><time>2026-04-18T17:06:17Z</time></trkpt><trkpt lat="45.487503233603896" lon="3.0743528585185143"><ele>979.0</ele><time>2026-04-18T17:06:18Z</time></trkpt><trkpt lat="45.487556268459635" lon="3.0742109375844002"><ele>979.0</ele><time>2026-04-18T17:06:19Z</time></trkpt><trkpt lat="45.48764850393701" lon="3.0741162745587918"><ele>979.0000000000001</ele><time>2026-04-18T17:06:20Z</time></trkpt><trkpt lat="45.48773586206086" lon="3.074034691085926"><ele>979.0000000000001</ele><time>2026-04-18T17:06:21Z</time></trkpt><trkpt lat="45.48780985195619" lon="3.0739459601420243"><ele>979.0</ele><time>2026-04-18T17:06:22Z</time></trkpt><trkpt lat="45.48788870969836" lon="3.0738788312764327"><ele>979.0</ele><time>2026-04-18T17:06:23Z</time></trkpt><trkpt lat="45.48796931469264" lon="3.073813001128696"><ele>977.4000000000001</ele><time>2026-04-18T17:06:24Z</time></trkpt><trkpt lat="45.48805445131485" lon="3.07375486797324"><ele>975.8000000000001</ele><time>2026-04-18T17:06:25Z</time></trkpt><trkpt lat="45.48814205861098" lon="3.0737095630161893"><ele>974.1999999999999</ele><time>2026-04-18T17:06:26Z</time></trkpt><trkpt lat="45.48824175823387" lon="3.0736836197317556"><ele>972.5999999999999</ele><time>2026-04-18T17:06:27Z</time></trkpt><trkpt lat="45.48834574613083" lon="3.073652871029971"><ele>971.0</ele><time>2026-04-18T17:06:28Z</time></trkpt><trkpt lat="45.48844571533562" lon="3.0736063015879207"><ele>971.0</ele><time>2026-04-18T17:06:29Z</time></trkpt><trkpt lat="45.48853582745198" lon="3.0735270825617813"><ele>970.9999999999999</ele><time>2026-04-18T17:06:30Z</time></trkpt><trkpt lat="45.48861183683748" lon="3.073413656418659"><ele>970.9999999999999</ele><time>2026-04-18T17:06:31Z</time></trkpt><trkpt lat="45.488673477765566" lon="3.0732786613429526"><ele>971.0</ele><time>2026-04-18T17:06:32Z</time></trkpt><trkpt lat="45.488719049025725" lon="3.073124764572613"><ele>971.0</ele><time>2026-04-18T17:06:33Z</time></trkpt><trkpt lat="45.488754863557155" lon="3.0729624989453437"><ele>970.0</ele><time>2026-04-18T17:06:34Z</time></trkpt><trkpt lat="45.488797936186906" lon="3.0727997770077353"><ele>969.0</ele><time>2026-04-18T17:06:35Z</time></trkpt><trkpt lat="45.48884565077608" lon="3.0726353533821134"><ele>968.0</ele><time>2026-04-18T17:06:36Z</time></trkpt><trkpt lat="45.48889571681879" lon="3.0724657217316502"><ele>967.0</ele><time>2026-04-18T17:06:37Z</time></trkpt><trkpt lat="45.48894745542213" lon="3.0722938113610803"><ele>967.0</ele><time>2026-04-18T17:06:38Z</time></trkpt><trkpt lat="45.48900222522796" lon="3.0721161437820244"><ele>967.0</ele><time>2026-04-18T17:06:39Z</time></trkpt><trkpt lat="45.48904969290059" lon="3.071953349262642"><ele>967.0</ele><time>2026-04-18T17:06:40Z</time></trkpt><trkpt lat="45.48909198113672" lon="3.0717995330904473"><ele>967.0</ele><time>2026-04-18T17:06:41Z</time></trkpt><trkpt lat="45.48913590439597" lon="3.071659144644762"><ele>968.2</ele><time>2026-04-18T17:06:42Z</time></trkpt><trkpt lat="45.48921669759682" lon="3.071562739858208"><ele>969.4000000000001</ele><time>2026-04-18T17:06:43Z</time></trkpt><trkpt lat="45.48929560177284" lon="3.0714787933566474"><ele>970.5999999999999</ele><time>2026-04-18T17:06:44Z</time></trkpt><trkpt lat="45.48939950788657" lon="3.071465748493386"><ele>971.8</ele><time>2026-04-18T17:06:45Z</time></trkpt><trkpt lat="45.48949857327619" lon="3.07149134896899"><ele>973.0</ele><time>2026-04-18T17:06:46Z</time></trkpt><trkpt lat="45.48958881925482" lon="3.0715471112552"><ele>971.8</ele><time>2026-04-18T17:06:47Z</time></trkpt><trkpt lat="45.489676358265456" lon="3.071593040549364"><ele>970.5999999999999</ele><time>2026-04-18T17:06:48Z</time></trkpt><trkpt lat="45.489771933237364" lon="3.071602069311778"><ele>969.4000000000001</ele><time>2026-04-18T17:06:49Z</time></trkpt><trkpt lat="45.48987135508387" lon="3.0715766669228444"><ele>968.2</ele><time>2026-04-18T17:06:50Z</time></trkpt><trkpt lat="45.489954308854095" lon="3.0715060220249284"><ele>967.0</ele><time>2026-04-18T17:06:51Z</time></trkpt><trkpt lat="45.49002892936809" lon="3.071405745420342"><ele>967.0</ele><time>2026-04-18T17:06:52Z</time></trkpt><trkpt lat="45.49009736967851" lon="3.0713031210218933"><ele>967.0</ele><time>2026-04-18T17:06:53Z</time></trkpt><trkpt lat="45.49016131638652" lon="3.071206434034011"><ele>967.0</ele><time>2026-04-18T17:06:54Z</time></trkpt><trkpt lat="45.49022652017474" lon="3.071116554356189"><ele>967.0</ele><time>2026-04-18T17:06:55Z</time></trkpt><trkpt lat="45.49029005521254" lon="3.071034306969031"><ele>967.0</ele><time>2026-04-18T17:06:56Z</time></trkpt><trkpt lat="45.49035056055507" lon="3.070951805196453"><ele>966.9999999999999</ele><time>2026-04-18T17:06:57Z</time></trkpt><trkpt lat="45.49041042979149" lon="3.0708681313318706"><ele>967.0</ele><time>2026-04-18T17:06:58Z</time></trkpt><trkpt lat="45.49046943455207" lon="3.070790049182001"><ele>967.0</ele><time>2026-04-18T17:06:59Z</time></trkpt><trkpt lat="45.49052769999914" lon="3.0707118041764185"><ele>967.0</ele><time>2026-04-18T17:07:00Z</time></trkpt><trkpt lat="45.49058140312112" lon="3.070632821323536"><ele>966.9999999999999</ele><time>2026-04-18T17:07:01Z</time></trkpt><trkpt lat="45.49063641901872" lon="3.0705524313043164"><ele>967.0</ele><time>2026-04-18T17:07:02Z</time></trkpt><trkpt lat="45.49069621892783" lon="3.0704822806541734"><ele>966.0</ele><time>2026-04-18T17:07:03Z</time></trkpt><trkpt lat="45.49074777283795" lon="3.0704060385214884"><ele>965.0</ele><time>2026-04-18T17:07:04Z</time></trkpt><trkpt lat="45.49080430253284" lon="3.0703337225494094"><ele>964.0</ele><time>2026-04-18T17:07:05Z</time></trkpt><trkpt lat="45.49085796226101" lon="3.070261484873414"><ele>963.0</ele><time>2026-04-18T17:07:06Z</time></trkpt><trkpt lat="45.49090998010954" lon="3.070187616272118"><ele>962.0</ele><time>2026-04-18T17:07:07Z</time></trkpt><trkpt lat="45.49095839019743" lon="3.0701128587301456"><ele>961.0</ele><time>2026-04-18T17:07:08Z</time></trkpt><trkpt lat="45.49101979244601" lon="3.0700625602192733"><ele>960.0</ele><time>2026-04-18T17:07:09Z</time></trkpt><trkpt lat="45.491071415958224" lon="3.069994396165205"><ele>960.8</ele><time>2026-04-18T17:07:10Z</time></trkpt><trkpt lat="45.49115357377962" lon="3.069862506695375"><ele>961.6</ele><time>2026-04-18T17:07:12Z</time></trkpt><trkpt lat="45.49125235238998" lon="3.0697647350109554"><ele>962.4000000000001</ele><time>2026-04-18T17:07:14Z</time></trkpt><trkpt lat="45.49130251894138" lon="3.069692293337348"><ele>963.2</ele><time>2026-04-18T17:07:15Z</time></trkpt><trkpt lat="45.491351556504696" lon="3.069622732887882"><ele>964.0</ele><time>2026-04-18T17:07:16Z</time></trkpt><trkpt lat="45.49140741746952" lon="3.0695452069260503"><ele>961.4000000000001</ele><time>2026-04-18T17:07:17Z</time></trkpt><trkpt lat="45.49146729407683" lon="3.069450096481082"><ele>958.8000000000001</ele><time>2026-04-18T17:07:18Z</time></trkpt><trkpt lat="45.49152559931489" lon="3.0693449411216807"><ele>956.1999999999999</ele><time>2026-04-18T17:07:19Z</time></trkpt><trkpt lat="45.49158245049416" lon="3.069234257585648"><ele>953.5999999999999</ele><time>2026-04-18T17:07:20Z</time></trkpt><trkpt lat="45.491642381361736" lon="3.0691024788817654"><ele>951.0</ele><time>2026-04-18T17:07:21Z</time></trkpt><trkpt lat="45.491696402592055" lon="3.068968989187762"><ele>951.0</ele><time>2026-04-18T17:07:22Z</time></trkpt><trkpt lat="45.491747307531156" lon="3.068819318394477"><ele>951.0</ele><time>2026-04-18T17:07:23Z</time></trkpt><trkpt lat="45.49179764929868" lon="3.0686620861159044"><ele>951.0</ele><time>2026-04-18T17:07:24Z</time></trkpt><trkpt lat="45.49184199818432" lon="3.0684991345516255"><ele>951.0</ele><time>2026-04-18T17:07:25Z</time></trkpt><trkpt lat="45.49186140592565" lon="3.068332986417206"><ele>951.0</ele><time>2026-04-18T17:07:26Z</time></trkpt><trkpt lat="45.4918612700753" lon="3.0681740270619513"><ele>950.9999999999999</ele><time>2026-04-18T17:07:27Z</time></trkpt><trkpt lat="45.491863565147824" lon="3.068024243313834"><ele>950.9999999999999</ele><time>2026-04-18T17:07:28Z</time></trkpt><trkpt lat="45.49186244469299" lon="3.0678796086537954"><ele>951.0</ele><time>2026-04-18T17:07:29Z</time></trkpt><trkpt lat="45.49186320130988" lon="3.0677454234289523"><ele>951.0</ele><time>2026-04-18T17:07:30Z</time></trkpt><trkpt lat="45.491867778675264" lon="3.067629026861381"><ele>951.0</ele><time>2026-04-18T17:07:31Z</time></trkpt><trkpt lat="45.49187915327194" lon="3.067529503108837"><ele>951.0</ele><time>2026-04-18T17:07:32Z</time></trkpt><trkpt lat="45.491903406875295" lon="3.0674398955144984"><ele>951.0</ele><time>2026-04-18T17:07:33Z</time></trkpt><trkpt lat="45.491959488338075" lon="3.0673722152207987"><ele>951.0</ele><time>2026-04-18T17:07:34Z</time></trkpt><trkpt lat="45.49202042764237" lon="3.067331178837928"><ele>951.0</ele><time>2026-04-18T17:07:35Z</time></trkpt><trkpt lat="45.49208427373209" lon="3.067310673070173"><ele>951.0</ele><time>2026-04-18T17:07:36Z</time></trkpt><trkpt lat="45.49215595851048" lon="3.06728867640176"><ele>951.0</ele><time>2026-04-18T17:07:37Z</time></trkpt><trkpt lat="45.49223326593346" lon="3.067354350296185"><ele>951.1666666666666</ele><time>2026-04-18T17:07:38Z</time></trkpt><trkpt lat="45.49228978142651" lon="3.067425849361665"><ele>951.3333333333333</ele><time>2026-04-18T17:07:39Z</time></trkpt><trkpt lat="45.49234652666703" lon="3.067503824044288"><ele>951.5</ele><time>2026-04-18T17:07:40Z</time></trkpt><trkpt lat="45.49241561550291" lon="3.067591794664445"><ele>951.6666666666666</ele><time>2026-04-18T17:07:41Z</time></trkpt><trkpt lat="45.492487623283445" lon="3.067685109293818"><ele>951.8333333333333</ele><time>2026-04-18T17:07:42Z</time></trkpt><trkpt lat="45.49256667383352" lon="3.0677544845270703"><ele>952.0</ele><time>2026-04-18T17:07:43Z</time></trkpt><trkpt lat="45.49265832498342" lon="3.067804046257347"><ele>951.0</ele><time>2026-04-18T17:07:44Z</time></trkpt><trkpt lat="45.49275329851529" lon="3.067813626484984"><ele>950.0</ele><time>2026-04-18T17:07:45Z</time></trkpt><trkpt lat="45.49285522755959" lon="3.067788463997274"><ele>949.0</ele><time>2026-04-18T17:07:46Z</time></trkpt><trkpt lat="45.49295199409465" lon="3.06774156622747"><ele>948.0</ele><time>2026-04-18T17:07:47Z</time></trkpt><trkpt lat="45.493043047434234" lon="3.0676827374626283"><ele>947.0</ele><time>2026-04-18T17:07:48Z</time></trkpt><trkpt lat="45.49314362560119" lon="3.06762458290178"><ele>946.6</ele><time>2026-04-18T17:07:49Z</time></trkpt><trkpt lat="45.49324764665897" lon="3.0675641119926564"><ele>946.2</ele><time>2026-04-18T17:07:50Z</time></trkpt><trkpt lat="45.49334771780883" lon="3.0675078210492486"><ele>945.8</ele><time>2026-04-18T17:07:51Z</time></trkpt><trkpt lat="45.493440226479905" lon="3.067437869585367"><ele>945.4</ele><time>2026-04-18T17:07:52Z</time></trkpt><trkpt lat="45.49352672773298" lon="3.0673419811562694"><ele>945.0</ele><time>2026-04-18T17:07:53Z</time></trkpt><trkpt lat="45.49360771400077" lon="3.0672222707752295"><ele>945.6</ele><time>2026-04-18T17:07:54Z</time></trkpt><trkpt lat="45.49368766532953" lon="3.067087360894219"><ele>946.2</ele><time>2026-04-18T17:07:55Z</time></trkpt><trkpt lat="45.493755969893314" lon="3.0669536638219963"><ele>946.8</ele><time>2026-04-18T17:07:56Z</time></trkpt><trkpt lat="45.493816464799586" lon="3.066830343316364"><ele>947.4</ele><time>2026-04-18T17:07:57Z</time></trkpt><trkpt lat="45.49387249657762" lon="3.0667142636412867"><ele>948.0</ele><time>2026-04-18T17:07:58Z</time></trkpt><trkpt lat="45.493947793154426" lon="3.066624427341354"><ele>948.8</ele><time>2026-04-18T17:07:59Z</time></trkpt><trkpt lat="45.4940092870847" lon="3.0665400759775907"><ele>949.5999999999999</ele><time>2026-04-18T17:08:00Z</time></trkpt><trkpt lat="45.49407926639672" lon="3.0664652590375936"><ele>950.4000000000001</ele><time>2026-04-18T17:08:01Z</time></trkpt><trkpt lat="45.49416123989979" lon="3.066411275432495"><ele>951.2</ele><time>2026-04-18T17:08:02Z</time></trkpt><trkpt lat="45.49425412772969" lon="3.066396808831067"><ele>952.0</ele><time>2026-04-18T17:08:03Z</time></trkpt><trkpt lat="45.49435142383918" lon="3.0664246747721733"><ele>952.0</ele><time>2026-04-18T17:08:04Z</time></trkpt><trkpt lat="45.49444539695943" lon="3.0665020294837197"><ele>952.0</ele><time>2026-04-18T17:08:05Z</time></trkpt><trkpt lat="45.494524419998086" lon="3.066621468950268"><ele>952.0</ele><time>2026-04-18T17:08:06Z</time></trkpt><trkpt lat="45.494581080118046" lon="3.0667726391121666"><ele>952.0</ele><time>2026-04-18T17:08:07Z</time></trkpt><trkpt lat="45.494643707959355" lon="3.066928466118674"><ele>952.4000000000001</ele><time>2026-04-18T17:08:08Z</time></trkpt><trkpt lat="45.49468673550186" lon="3.0670674575794212"><ele>952.8000000000001</ele><time>2026-04-18T17:08:09Z</time></trkpt><trkpt lat="45.4947361606026" lon="3.067197046378218"><ele>953.2</ele><time>2026-04-18T17:08:10Z</time></trkpt><trkpt lat="45.494797782356905" lon="3.067332707367833"><ele>953.6</ele><time>2026-04-18T17:08:11Z</time></trkpt><trkpt lat="45.49486497075661" lon="3.0674636293722695"><ele>954.0</ele><time>2026-04-18T17:08:12Z</time></trkpt><trkpt lat="45.494931341072586" lon="3.067588627101831"><ele>954.0</ele><time>2026-04-18T17:08:13Z</time></trkpt><trkpt lat="45.49498969689077" lon="3.0677029152470685"><ele>954.0000000000001</ele><time>2026-04-18T17:08:14Z</time></trkpt><trkpt lat="45.49504649916195" lon="3.067796312066296"><ele>954.0000000000001</ele><time>2026-04-18T17:08:15Z</time></trkpt><trkpt lat="45.49512121297612" lon="3.067886551264899"><ele>954.0</ele><time>2026-04-18T17:08:16Z</time></trkpt><trkpt lat="45.49520590870666" lon="3.067955888171706"><ele>954.0</ele><time>2026-04-18T17:08:17Z</time></trkpt><trkpt lat="45.49530163875777" lon="3.0680307683533807"><ele>954.0</ele><time>2026-04-18T17:08:18Z</time></trkpt><trkpt lat="45.4953873324229" lon="3.068094334465649"><ele>954.0</ele><time>2026-04-18T17:08:19Z</time></trkpt><trkpt lat="45.49546296543255" lon="3.0681613548444946"><ele>954.0</ele><time>2026-04-18T17:08:20Z</time></trkpt><trkpt lat="45.49552579809513" lon="3.068231884476221"><ele>954.0</ele><time>2026-04-18T17:08:21Z</time></trkpt><trkpt lat="45.495576222765386" lon="3.06831375675049"><ele>954.0</ele><time>2026-04-18T17:08:22Z</time></trkpt><trkpt lat="45.4956249947888" lon="3.0683935385397336"><ele>954.0</ele><time>2026-04-18T17:08:23Z</time></trkpt><trkpt lat="45.495644284394416" lon="3.0684808877709036"><ele>955.3333333333334</ele><time>2026-04-18T17:08:24Z</time></trkpt><trkpt lat="45.49568959803105" lon="3.068598675506226"><ele>956.6666666666667</ele><time>2026-04-18T17:08:26Z</time></trkpt><trkpt lat="45.495742072146854" lon="3.068704751571726"><ele>958.0</ele><time>2026-04-18T17:08:28Z</time></trkpt><trkpt lat="45.495787467902204" lon="3.0688563661933537"><ele>959.3333333333334</ele><time>2026-04-18T17:08:30Z</time></trkpt><trkpt lat="45.495838941216334" lon="3.0689313453723788"><ele>960.6666666666667</ele><time>2026-04-18T17:08:31Z</time></trkpt><trkpt lat="45.4958717738914" lon="3.0690271538865628"><ele>962.0</ele><time>2026-04-18T17:08:32Z</time></trkpt><trkpt lat="45.495906659636915" lon="3.069134285758056"><ele>962.0000000000001</ele><time>2026-04-18T17:08:33Z</time></trkpt><trkpt lat="45.495939703049004" lon="3.069242920651198"><ele>962.0</ele><time>2026-04-18T17:08:34Z</time></trkpt><trkpt lat="45.495969823107714" lon="3.0693530265099733"><ele>962.0</ele><time>2026-04-18T17:08:35Z</time></trkpt><trkpt lat="45.49600224661007" lon="3.069463498936252"><ele>962.0</ele><time>2026-04-18T17:08:36Z</time></trkpt><trkpt lat="45.496031159595994" lon="3.06955763618651"><ele>962.0000000000001</ele><time>2026-04-18T17:08:37Z</time></trkpt><trkpt lat="45.49606035118774" lon="3.069641694016546"><ele>962.0</ele><time>2026-04-18T17:08:38Z</time></trkpt><trkpt lat="45.49609613313397" lon="3.0697205427813055"><ele>962.0</ele><time>2026-04-18T17:08:39Z</time></trkpt><trkpt lat="45.49615014468103" lon="3.0698159732022354"><ele>962.0</ele><time>2026-04-18T17:08:40Z</time></trkpt><trkpt lat="45.496214605747134" lon="3.0699057751604624"><ele>962.0</ele><time>2026-04-18T17:08:41Z</time></trkpt><trkpt lat="45.49627964874844" lon="3.070016520918201"><ele>962.0</ele><time>2026-04-18T17:08:42Z</time></trkpt><trkpt lat="45.49635321554438" lon="3.070113092680018"><ele>962.0</ele><time>2026-04-18T17:08:43Z</time></trkpt><trkpt lat="45.496428645480606" lon="3.0702237141541757"><ele>963.0</ele><time>2026-04-18T17:08:44Z</time></trkpt><trkpt lat="45.496510785273706" lon="3.0703447686336958"><ele>964.0</ele><time>2026-04-18T17:08:45Z</time></trkpt><trkpt lat="45.49660369257885" lon="3.0704769047646874"><ele>965.0</ele><time>2026-04-18T17:08:46Z</time></trkpt><trkpt lat="45.496702538512345" lon="3.070622335503596"><ele>966.0</ele><time>2026-04-18T17:08:47Z</time></trkpt><trkpt lat="45.496806463773964" lon="3.0707844417068615"><ele>966.6666666666667</ele><time>2026-04-18T17:08:48Z</time></trkpt><trkpt lat="45.496902955899635" lon="3.070932044584108"><ele>967.3333333333334</ele><time>2026-04-18T17:08:49Z</time></trkpt><trkpt lat="45.49700631843416" lon="3.07110044552794"><ele>968.0</ele><time>2026-04-18T17:08:50Z</time></trkpt><trkpt lat="45.497117090962675" lon="3.071277680541899"><ele>968.0</ele><time>2026-04-18T17:08:51Z</time></trkpt><trkpt lat="45.4972162527961" lon="3.071446315669824"><ele>968.0</ele><time>2026-04-18T17:08:52Z</time></trkpt><trkpt lat="45.497300665698894" lon="3.0716092956387513"><ele>968.0</ele><time>2026-04-18T17:08:53Z</time></trkpt><trkpt lat="45.49737684608804" lon="3.0717761426862222"><ele>968.0</ele><time>2026-04-18T17:08:54Z</time></trkpt><trkpt lat="45.497419403415286" lon="3.0719624886278285"><ele>965.0</ele><time>2026-04-18T17:08:55Z</time></trkpt><trkpt lat="45.49746741606804" lon="3.072160716658145"><ele>962.0</ele><time>2026-04-18T17:08:56Z</time></trkpt><trkpt lat="45.49751435523871" lon="3.0723890947324026"><ele>959.0</ele><time>2026-04-18T17:08:57Z</time></trkpt><trkpt lat="45.497554316390776" lon="3.0726261536645483"><ele>957.25</ele><time>2026-04-18T17:08:58Z</time></trkpt><trkpt lat="45.4976002756986" lon="3.072820021229698"><ele>955.5</ele><time>2026-04-18T17:08:59Z</time></trkpt><trkpt lat="45.49762867290864" lon="3.072993246492116"><ele>953.75</ele><time>2026-04-18T17:09:00Z</time></trkpt><trkpt lat="45.497679518894" lon="3.0731423408498926"><ele>952.0</ele><time>2026-04-18T17:09:01Z</time></trkpt><trkpt lat="45.497764630118205" lon="3.07327007594958"><ele>952.75</ele><time>2026-04-18T17:09:02Z</time></trkpt><trkpt lat="45.497871176876515" lon="3.0733688017996648"><ele>953.5</ele><time>2026-04-18T17:09:03Z</time></trkpt><trkpt lat="45.49797537154557" lon="3.0734525449630614"><ele>954.25</ele><time>2026-04-18T17:09:04Z</time></trkpt><trkpt lat="45.49805990146889" lon="3.073554985948855"><ele>955.0</ele><time>2026-04-18T17:09:05Z</time></trkpt><trkpt lat="45.49810393945951" lon="3.0736911847041215"><ele>955.0</ele><time>2026-04-18T17:09:06Z</time></trkpt><trkpt lat="45.49816968179643" lon="3.073809960677678"><ele>955.0</ele><time>2026-04-18T17:09:07Z</time></trkpt><trkpt lat="45.49821652574988" lon="3.0739382291683457"><ele>955.0</ele><time>2026-04-18T17:09:08Z</time></trkpt><trkpt lat="45.49826373588135" lon="3.0740525016735045"><ele>955.0</ele><time>2026-04-18T17:09:09Z</time></trkpt><trkpt lat="45.498313736329244" lon="3.074161677240539"><ele>955.0</ele><time>2026-04-18T17:09:10Z</time></trkpt><trkpt lat="45.49837720930719" lon="3.0742642064947527"><ele>953.5</ele><time>2026-04-18T17:09:11Z</time></trkpt><trkpt lat="45.49846107373528" lon="3.0743651214697856"><ele>952.0</ele><time>2026-04-18T17:09:12Z</time></trkpt><trkpt lat="45.498556864356814" lon="3.074469125767086"><ele>950.5</ele><time>2026-04-18T17:09:13Z</time></trkpt><trkpt lat="45.498638776224304" lon="3.0746110125387656"><ele>949.0</ele><time>2026-04-18T17:09:14Z</time></trkpt><trkpt lat="45.49871590811577" lon="3.0747758915594323"><ele>948.0</ele><time>2026-04-18T17:09:15Z</time></trkpt><trkpt lat="45.498787771835254" lon="3.0749587763539514"><ele>947.0</ele><time>2026-04-18T17:09:16Z</time></trkpt><trkpt lat="45.498860036003535" lon="3.0751517774615524"><ele>946.0</ele><time>2026-04-18T17:09:17Z</time></trkpt><trkpt lat="45.498923345451935" lon="3.0753369071796164"><ele>945.0</ele><time>2026-04-18T17:09:18Z</time></trkpt><trkpt lat="45.49897531465737" lon="3.075519304126677"><ele>945.0</ele><time>2026-04-18T17:09:19Z</time></trkpt><trkpt lat="45.49901095033852" lon="3.075701389607508"><ele>945.0</ele><time>2026-04-18T17:09:20Z</time></trkpt><trkpt lat="45.49904171773579" lon="3.075885912856298"><ele>945.0</ele><time>2026-04-18T17:09:21Z</time></trkpt><trkpt lat="45.49908229357827" lon="3.076066373414762"><ele>945.0</ele><time>2026-04-18T17:09:22Z</time></trkpt><trkpt lat="45.49908977132055" lon="3.076255238706473"><ele>944.5</ele><time>2026-04-18T17:09:23Z</time></trkpt><trkpt lat="45.499105878439025" lon="3.0764550652043545"><ele>944.0</ele><time>2026-04-18T17:09:24Z</time></trkpt><trkpt lat="45.49913114316614" lon="3.0766543154272195"><ele>943.5</ele><time>2026-04-18T17:09:25Z</time></trkpt><trkpt lat="45.499124684601405" lon="3.0768674883223586"><ele>943.0</ele><time>2026-04-18T17:09:26Z</time></trkpt><trkpt lat="45.49911294621272" lon="3.0770888841496014"><ele>942.0</ele><time>2026-04-18T17:09:27Z</time></trkpt><trkpt lat="45.49911006085635" lon="3.0773174669428607"><ele>941.0</ele><time>2026-04-18T17:09:28Z</time></trkpt><trkpt lat="45.49911749791493" lon="3.0775656733400636"><ele>940.0</ele><time>2026-04-18T17:09:29Z</time></trkpt><trkpt lat="45.49914021086883" lon="3.077802303293184"><ele>939.3333333333333</ele><time>2026-04-18T17:09:30Z</time></trkpt><trkpt lat="45.499166754424444" lon="3.078052096142742"><ele>938.6666666666667</ele><time>2026-04-18T17:09:31Z</time></trkpt><trkpt lat="45.499187220961055" lon="3.078306015819063"><ele>938.0</ele><time>2026-04-18T17:09:32Z</time></trkpt><trkpt lat="45.4992003654786" lon="3.0785738842829447"><ele>937.3333333333334</ele><time>2026-04-18T17:09:33Z</time></trkpt><trkpt lat="45.49921681025704" lon="3.0788380525142416"><ele>936.6666666666667</ele><time>2026-04-18T17:09:34Z</time></trkpt><trkpt lat="45.49924999175633" lon="3.0791046721311055"><ele>936.0</ele><time>2026-04-18T17:09:35Z</time></trkpt><trkpt lat="45.49926160998818" lon="3.079386110697712"><ele>935.0</ele><time>2026-04-18T17:09:36Z</time></trkpt><trkpt lat="45.49927344089505" lon="3.0796449351000637"><ele>934.0</ele><time>2026-04-18T17:09:37Z</time></trkpt><trkpt lat="45.49927336668341" lon="3.0798890330800517"><ele>933.0</ele><time>2026-04-18T17:09:38Z</time></trkpt><trkpt lat="45.49928409450935" lon="3.0801214344439636"><ele>932.25</ele><time>2026-04-18T17:09:39Z</time></trkpt><trkpt lat="45.499292000332076" lon="3.080342545111762"><ele>931.5</ele><time>2026-04-18T17:09:40Z</time></trkpt><trkpt lat="45.499307407406974" lon="3.080540403570622"><ele>930.75</ele><time>2026-04-18T17:09:41Z</time></trkpt><trkpt lat="45.49930672046243" lon="3.080719923274377"><ele>930.0</ele><time>2026-04-18T17:09:42Z</time></trkpt><trkpt lat="45.499306160200604" lon="3.080895786544056"><ele>928.75</ele><time>2026-04-18T17:09:43Z</time></trkpt><trkpt lat="45.499319504234414" lon="3.0810620976747836"><ele>927.5</ele><time>2026-04-18T17:09:44Z</time></trkpt><trkpt lat="45.499353551480006" lon="3.081222759412796"><ele>926.25</ele><time>2026-04-18T17:09:45Z</time></trkpt><trkpt lat="45.49941169611901" lon="3.08137093526998"><ele>925.0</ele><time>2026-04-18T17:09:46Z</time></trkpt><trkpt lat="45.49949335011862" lon="3.0815195502800723"><ele>926.5</ele><time>2026-04-18T17:09:47Z</time></trkpt><trkpt lat="45.49958894068167" lon="3.081662654139569"><ele>928.0</ele><time>2026-04-18T17:09:48Z</time></trkpt><trkpt lat="45.49970018847231" lon="3.0818001134996544"><ele>929.5</ele><time>2026-04-18T17:09:49Z</time></trkpt><trkpt lat="45.49982619877241" lon="3.081932553104072"><ele>931.0</ele><time>2026-04-18T17:09:50Z</time></trkpt><trkpt lat="45.499956393044336" lon="3.082053646488772"><ele>931.0</ele><time>2026-04-18T17:09:51Z</time></trkpt><trkpt lat="45.500080619191046" lon="3.08216149352081"><ele>931.0</ele><time>2026-04-18T17:09:52Z</time></trkpt><trkpt lat="45.50019530206968" lon="3.0822575066765165"><ele>931.0</ele><time>2026-04-18T17:09:53Z</time></trkpt><trkpt lat="45.500307562667295" lon="3.082333122660395"><ele>931.0</ele><time>2026-04-18T17:09:54Z</time></trkpt><trkpt lat="45.500420125218646" lon="3.082348457001808"><ele>930.8</ele><time>2026-04-18T17:09:55Z</time></trkpt><trkpt lat="45.500523905599934" lon="3.0823180378675326"><ele>930.5999999999999</ele><time>2026-04-18T17:09:56Z</time></trkpt><trkpt lat="45.50061528970659" lon="3.0822423728466"><ele>930.4</ele><time>2026-04-18T17:09:57Z</time></trkpt><trkpt lat="45.50069626938736" lon="3.0821218747150922"><ele>930.2</ele><time>2026-04-18T17:09:58Z</time></trkpt><trkpt lat="45.50075935136755" lon="3.0819752565757677"><ele>930.0</ele><time>2026-04-18T17:09:59Z</time></trkpt><trkpt lat="45.50082350129795" lon="3.081822365034542"><ele>930.0</ele><time>2026-04-18T17:10:00Z</time></trkpt><trkpt lat="45.50090054774715" lon="3.0816688443738722"><ele>930.0</ele><time>2026-04-18T17:10:01Z</time></trkpt><trkpt lat="45.5009756224388" lon="3.0815209018756953"><ele>930.0</ele><time>2026-04-18T17:10:02Z</time></trkpt><trkpt lat="45.50106354876202" lon="3.0813857750747795"><ele>930.0</ele><time>2026-04-18T17:10:03Z</time></trkpt><trkpt lat="45.50112866408138" lon="3.081235744972216"><ele>932.5</ele><time>2026-04-18T17:10:04Z</time></trkpt><trkpt lat="45.50122110250008" lon="3.081121187471047"><ele>935.0</ele><time>2026-04-18T17:10:05Z</time></trkpt><trkpt lat="45.50134043400837" lon="3.0810730548073977"><ele>937.5</ele><time>2026-04-18T17:10:06Z</time></trkpt><trkpt lat="45.50146735313529" lon="3.0810401439202106"><ele>940.0</ele><time>2026-04-18T17:10:07Z</time></trkpt><trkpt lat="45.50160317625816" lon="3.0810280742814897"><ele>940.0</ele><time>2026-04-18T17:10:08Z</time></trkpt><trkpt lat="45.501740281686956" lon="3.0810198839789735"><ele>940.0</ele><time>2026-04-18T17:10:09Z</time></trkpt><trkpt lat="45.501880682652654" lon="3.0809986920977583"><ele>940.0</ele><time>2026-04-18T17:10:10Z</time></trkpt><trkpt lat="45.50202205773165" lon="3.080984465304546"><ele>940.0</ele><time>2026-04-18T17:10:11Z</time></trkpt><trkpt lat="45.50216431249803" lon="3.0809806785294627"><ele>940.25</ele><time>2026-04-18T17:10:12Z</time></trkpt><trkpt lat="45.502305334593984" lon="3.08097078565282"><ele>940.5</ele><time>2026-04-18T17:10:13Z</time></trkpt><trkpt lat="45.502437666031746" lon="3.080962569916385"><ele>940.75</ele><time>2026-04-18T17:10:14Z</time></trkpt><trkpt lat="45.50256487083606" lon="3.080953241804069"><ele>941.0</ele><time>2026-04-18T17:10:15Z</time></trkpt><trkpt lat="45.502698057558575" lon="3.080946078061982"><ele>941.0</ele><time>2026-04-18T17:10:16Z</time></trkpt><trkpt lat="45.50283172858619" lon="3.0809491633955113"><ele>941.0</ele><time>2026-04-18T17:10:17Z</time></trkpt><trkpt lat="45.50296614930999" lon="3.0809608627728853"><ele>941.0</ele><time>2026-04-18T17:10:18Z</time></trkpt><trkpt lat="45.50310085615539" lon="3.0809774156461356"><ele>941.0</ele><time>2026-04-18T17:10:19Z</time></trkpt><trkpt lat="45.50322909047882" lon="3.0809998818188205"><ele>942.0</ele><time>2026-04-18T17:10:20Z</time></trkpt><trkpt lat="45.50334184221193" lon="3.0810338195200586"><ele>942.9999999999999</ele><time>2026-04-18T17:10:21Z</time></trkpt><trkpt lat="45.503443520027844" lon="3.0810658638979445"><ele>943.9999999999999</ele><time>2026-04-18T17:10:22Z</time></trkpt><trkpt lat="45.503539025651904" lon="3.081107352435479"><ele>945.0</ele><time>2026-04-18T17:10:23Z</time></trkpt><trkpt lat="45.50362314479607" lon="3.081159430519886"><ele>946.0</ele><time>2026-04-18T17:10:24Z</time></trkpt><trkpt lat="45.503694803199814" lon="3.081220654899265"><ele>946.4999999999999</ele><time>2026-04-18T17:10:25Z</time></trkpt><trkpt lat="45.50376512341832" lon="3.081262675671619"><ele>947.0</ele><time>2026-04-18T17:10:26Z</time></trkpt><trkpt lat="45.50384065854742" lon="3.0812661208671517"><ele>947.5</ele><time>2026-04-18T17:10:27Z</time></trkpt><trkpt lat="45.50391260783764" lon="3.0812449340632093"><ele>948.0</ele><time>2026-04-18T17:10:28Z</time></trkpt><trkpt lat="45.50397888303014" lon="3.0812550461148382"><ele>948.4999999999999</ele><time>2026-04-18T17:10:29Z</time></trkpt><trkpt lat="45.50408933397174" lon="3.081209469118695"><ele>949.0</ele><time>2026-04-18T17:10:31Z</time></trkpt><trkpt lat="45.5041668411436" lon="3.081227807951182"><ele>949.0</ele><time>2026-04-18T17:10:32Z</time></trkpt><trkpt lat="45.50424762041379" lon="3.0812941668128184"><ele>949.0000000000001</ele><time>2026-04-18T17:10:33Z</time></trkpt><trkpt lat="45.50432444709678" lon="3.0813816627203794"><ele>949.0000000000001</ele><time>2026-04-18T17:10:34Z</time></trkpt><trkpt lat="45.50439631877518" lon="3.081490777538019"><ele>949.0</ele><time>2026-04-18T17:10:35Z</time></trkpt><trkpt lat="45.50447314967091" lon="3.0816121220496524"><ele>949.0</ele><time>2026-04-18T17:10:36Z</time></trkpt><trkpt lat="45.50454249201736" lon="3.0817394730722536"><ele>949.75</ele><time>2026-04-18T17:10:37Z</time></trkpt><trkpt lat="45.50461171695126" lon="3.0818493153531445"><ele>950.5</ele><time>2026-04-18T17:10:38Z</time></trkpt><trkpt lat="45.50470632040251" lon="3.0819505829304528"><ele>951.25</ele><time>2026-04-18T17:10:39Z</time></trkpt><trkpt lat="45.50480454731113" lon="3.082027562461806"><ele>952.0</ele><time>2026-04-18T17:10:40Z</time></trkpt><trkpt lat="45.504913077937545" lon="3.082114356801203"><ele>952.0</ele><time>2026-04-18T17:10:41Z</time></trkpt><trkpt lat="45.505027274669175" lon="3.082205866270919"><ele>952.0</ele><time>2026-04-18T17:10:42Z</time></trkpt><trkpt lat="45.50514264171295" lon="3.0822907286687737"><ele>952.0</ele><time>2026-04-18T17:10:43Z</time></trkpt><trkpt lat="45.5052692824013" lon="3.082364373662166"><ele>952.0</ele><time>2026-04-18T17:10:44Z</time></trkpt><trkpt lat="45.50540770745302" lon="3.0824245524689"><ele>952.6666666666666</ele><time>2026-04-18T17:10:45Z</time></trkpt><trkpt lat="45.50554317956622" lon="3.082504219551309"><ele>953.3333333333333</ele><time>2026-04-18T17:10:46Z</time></trkpt><trkpt lat="45.50568813546137" lon="3.0826049182003215"><ele>954.0</ele><time>2026-04-18T17:10:47Z</time></trkpt><trkpt lat="45.505820734806086" lon="3.0827212717587287"><ele>954.0</ele><time>2026-04-18T17:10:48Z</time></trkpt><trkpt lat="45.50593743604949" lon="3.0828397518428416"><ele>954.0</ele><time>2026-04-18T17:10:49Z</time></trkpt><trkpt lat="45.506058078832936" lon="3.082937770681276"><ele>954.0</ele><time>2026-04-18T17:10:50Z</time></trkpt><trkpt lat="45.50616994056556" lon="3.083039137381724"><ele>954.0</ele><time>2026-04-18T17:10:51Z</time></trkpt><trkpt lat="45.506287835932795" lon="3.083121684900717"><ele>954.0</ele><time>2026-04-18T17:10:52Z</time></trkpt><trkpt lat="45.50641445822754" lon="3.0831869499100995"><ele>954.0</ele><time>2026-04-18T17:10:53Z</time></trkpt><trkpt lat="45.50653594208926" lon="3.0832763439817876"><ele>954.0</ele><time>2026-04-18T17:10:54Z</time></trkpt><trkpt lat="45.506660320992275" lon="3.0833930795192965"><ele>954.0</ele><time>2026-04-18T17:10:55Z</time></trkpt><trkpt lat="45.50678390070397" lon="3.083529689893522"><ele>954.0</ele><time>2026-04-18T17:10:56Z</time></trkpt><trkpt lat="45.50691052764175" lon="3.0836915293636724"><ele>954.0</ele><time>2026-04-18T17:10:57Z</time></trkpt><trkpt lat="45.507045465769785" lon="3.0838377576076543"><ele>954.0</ele><time>2026-04-18T17:10:58Z</time></trkpt><trkpt lat="45.507158633562824" lon="3.0839779853969485"><ele>954.5</ele><time>2026-04-18T17:10:59Z</time></trkpt><trkpt lat="45.507268254378175" lon="3.0840965956909323"><ele>955.0</ele><time>2026-04-18T17:11:00Z</time></trkpt><trkpt lat="45.50738589914026" lon="3.0841962980575146"><ele>955.5</ele><time>2026-04-18T17:11:01Z</time></trkpt><trkpt lat="45.50751761286933" lon="3.084282656150971"><ele>956.0</ele><time>2026-04-18T17:11:02Z</time></trkpt><trkpt lat="45.507654383049676" lon="3.0843410363388384"><ele>954.75</ele><time>2026-04-18T17:11:03Z</time></trkpt><trkpt lat="45.50779510590616" lon="3.084374570964104"><ele>953.5</ele><time>2026-04-18T17:11:04Z</time></trkpt><trkpt lat="45.507933297747016" lon="3.084370019374164"><ele>952.25</ele><time>2026-04-18T17:11:05Z</time></trkpt><trkpt lat="45.50807644428954" lon="3.084345540134693"><ele>951.0</ele><time>2026-04-18T17:11:06Z</time></trkpt><trkpt lat="45.5082202501857" lon="3.0843428550328564"><ele>951.0</ele><time>2026-04-18T17:11:07Z</time></trkpt><trkpt lat="45.50835700749378" lon="3.084277473812025"><ele>951.0</ele><time>2026-04-18T17:11:08Z</time></trkpt><trkpt lat="45.508486628568654" lon="3.08422763951343"><ele>951.0</ele><time>2026-04-18T17:11:08.999Z</time></trkpt><trkpt lat="45.5086089658338" lon="3.084176908357103"><ele>951.0</ele><time>2026-04-18T17:11:09.999Z</time></trkpt><trkpt lat="45.508737343511264" lon="3.0841348902790284"><ele>951.0</ele><time>2026-04-18T17:11:10.999Z</time></trkpt><trkpt lat="45.508874685559825" lon="3.0841232114481243"><ele>951.0</ele><time>2026-04-18T17:11:11.999Z</time></trkpt><trkpt lat="45.50900814903895" lon="3.0840690309375347"><ele>951.0</ele><time>2026-04-18T17:11:12.999Z</time></trkpt><trkpt lat="45.50914173709252" lon="3.0840447129741895"><ele>951.0</ele><time>2026-04-18T17:11:13.999Z</time></trkpt><trkpt lat="45.509269128922355" lon="3.0839781374601003"><ele>951.0</ele><time>2026-04-18T17:11:14.999Z</time></trkpt><trkpt lat="45.50939653016078" lon="3.083896557651312"><ele>951.0</ele><time>2026-04-18T17:11:15.999Z</time></trkpt><trkpt lat="45.50951670488325" lon="3.0837875165281345"><ele>951.0</ele><time>2026-04-18T17:11:16.999Z</time></trkpt><trkpt lat="45.50963359957413" lon="3.0836478736418265"><ele>951.0</ele><time>2026-04-18T17:11:17.999Z</time></trkpt><trkpt lat="45.50974846164178" lon="3.083492741653759"><ele>949.6666666666667</ele><time>2026-04-18T17:11:18.999Z</time></trkpt><trkpt lat="45.5098603118955" lon="3.0833206500601054"><ele>948.3333333333334</ele><time>2026-04-18T17:11:19.999Z</time></trkpt><trkpt lat="45.50996136011114" lon="3.0831492567138294"><ele>947.0</ele><time>2026-04-18T17:11:21Z</time></trkpt><trkpt lat="45.51007619785084" lon="3.0829638231855987"><ele>947.0</ele><time>2026-04-18T17:11:22Z</time></trkpt><trkpt lat="45.51018868332356" lon="3.082798138865225"><ele>947.0</ele><time>2026-04-18T17:11:23Z</time></trkpt><trkpt lat="45.51032527384135" lon="3.0826665577011676"><ele>947.0</ele><time>2026-04-18T17:11:24Z</time></trkpt><trkpt lat="45.51045090286001" lon="3.0825298691246776"><ele>946.6666666666667</ele><time>2026-04-18T17:11:25Z</time></trkpt><trkpt lat="45.51057222710896" lon="3.082372460083054"><ele>946.3333333333333</ele><time>2026-04-18T17:11:26Z</time></trkpt><trkpt lat="45.51071105842132" lon="3.082225999921109"><ele>946.0</ele><time>2026-04-18T17:11:27Z</time></trkpt><trkpt lat="45.51084087969079" lon="3.082086920794947"><ele>946.0</ele><time>2026-04-18T17:11:28Z</time></trkpt><trkpt lat="45.51097201317753" lon="3.081971606509824"><ele>946.0</ele><time>2026-04-18T17:11:29Z</time></trkpt><trkpt lat="45.51108681641378" lon="3.0818476192210786"><ele>946.0</ele><time>2026-04-18T17:11:30Z</time></trkpt><trkpt lat="45.511185331759606" lon="3.0817084071125587"><ele>946.0</ele><time>2026-04-18T17:11:31Z</time></trkpt><trkpt lat="45.51128557166399" lon="3.0815861937228632"><ele>944.0</ele><time>2026-04-18T17:11:32Z</time></trkpt><trkpt lat="45.51137758104978" lon="3.081443963798889"><ele>942.0</ele><time>2026-04-18T17:11:33Z</time></trkpt><trkpt lat="45.51145454547212" lon="3.081270233796805"><ele>940.0</ele><time>2026-04-18T17:11:34Z</time></trkpt><trkpt lat="45.51152701090522" lon="3.081078223508074"><ele>938.0</ele><time>2026-04-18T17:11:35Z</time></trkpt><trkpt lat="45.51159496211215" lon="3.0808723895376335"><ele>939.0</ele><time>2026-04-18T17:11:36Z</time></trkpt><trkpt lat="45.511653747512106" lon="3.080667552997259"><ele>940.0</ele><time>2026-04-18T17:11:37Z</time></trkpt><trkpt lat="45.511714842187175" lon="3.0804567881943847"><ele>941.0</ele><time>2026-04-18T17:11:38Z</time></trkpt><trkpt lat="45.5117752903986" lon="3.0802606375289825"><ele>941.0</ele><time>2026-04-18T17:11:39Z</time></trkpt><trkpt lat="45.51182482926792" lon="3.0800723828865704"><ele>941.0</ele><time>2026-04-18T17:11:40Z</time></trkpt><trkpt lat="45.5118901929335" lon="3.0799021883284965"><ele>941.0</ele><time>2026-04-18T17:11:41Z</time></trkpt><trkpt lat="45.51195237000659" lon="3.079747954604407"><ele>941.0</ele><time>2026-04-18T17:11:42Z</time></trkpt><trkpt lat="45.512017855943036" lon="3.0795968084705407"><ele>941.25</ele><time>2026-04-18T17:11:43Z</time></trkpt><trkpt lat="45.51206925056454" lon="3.07943845661512"><ele>941.5</ele><time>2026-04-18T17:11:44Z</time></trkpt><trkpt lat="45.512125885687176" lon="3.079276124213989"><ele>941.75</ele><time>2026-04-18T17:11:45Z</time></trkpt><trkpt lat="45.51215893020574" lon="3.0790905830496644"><ele>942.0</ele><time>2026-04-18T17:11:46Z</time></trkpt><trkpt lat="45.51217042713764" lon="3.0788816260889043"><ele>935.6666666666667</ele><time>2026-04-18T17:11:47Z</time></trkpt><trkpt lat="45.51217755879464" lon="3.078646295099004"><ele>929.3333333333334</ele><time>2026-04-18T17:11:48Z</time></trkpt><trkpt lat="45.51219952527161" lon="3.078404135257663"><ele>923.0</ele><time>2026-04-18T17:11:49Z</time></trkpt><trkpt lat="45.51218341691261" lon="3.0781863981314657"><ele>922.75</ele><time>2026-04-18T17:11:50Z</time></trkpt><trkpt lat="45.51218295013339" lon="3.0779831650547687"><ele>922.5</ele><time>2026-04-18T17:11:51Z</time></trkpt><trkpt lat="45.51221299485022" lon="3.077779747166655"><ele>922.25</ele><time>2026-04-18T17:11:52Z</time></trkpt><trkpt lat="45.51223464092746" lon="3.0775849364251457"><ele>922.0</ele><time>2026-04-18T17:11:53Z</time></trkpt><trkpt lat="45.51226287437696" lon="3.0773753678407028"><ele>921.5</ele><time>2026-04-18T17:11:54Z</time></trkpt><trkpt lat="45.51227567419034" lon="3.0771717441666806"><ele>921.0</ele><time>2026-04-18T17:11:55Z</time></trkpt><trkpt lat="45.51229867452544" lon="3.076983240008073"><ele>920.5</ele><time>2026-04-18T17:11:56Z</time></trkpt><trkpt lat="45.512317551424175" lon="3.0767958131253015"><ele>920.0</ele><time>2026-04-18T17:11:57Z</time></trkpt><trkpt lat="45.512312627109495" lon="3.0766323313426724"><ele>920.0</ele><time>2026-04-18T17:11:58Z</time></trkpt><trkpt lat="45.512278215616604" lon="3.0764754758288726"><ele>920.0</ele><time>2026-04-18T17:11:59Z</time></trkpt><trkpt lat="45.51221162267221" lon="3.076344307239496"><ele>920.0</ele><time>2026-04-18T17:12:00Z</time></trkpt><trkpt lat="45.5121578915738" lon="3.0761998376074606"><ele>920.0</ele><time>2026-04-18T17:12:01Z</time></trkpt><trkpt lat="45.51213235947617" lon="3.076063629583456"><ele>920.0</ele><time>2026-04-18T17:12:02Z</time></trkpt><trkpt lat="45.512156128693526" lon="3.0759314431775047"><ele>920.0</ele><time>2026-04-18T17:12:03Z</time></trkpt><trkpt lat="45.51223486260097" lon="3.0758410705878725"><ele>920.0</ele><time>2026-04-18T17:12:04Z</time></trkpt><trkpt lat="45.51231503762525" lon="3.0757708879633183"><ele>920.0</ele><time>2026-04-18T17:12:05Z</time></trkpt><trkpt lat="45.51240308362917" lon="3.075690546871921"><ele>920.0</ele><time>2026-04-18T17:12:06Z</time></trkpt><trkpt lat="45.51247971819315" lon="3.075589704663417"><ele>920.0</ele><time>2026-04-18T17:12:07Z</time></trkpt><trkpt lat="45.51254818873737" lon="3.075475618544762"><ele>921.75</ele><time>2026-04-18T17:12:08Z</time></trkpt><trkpt lat="45.51258172799235" lon="3.075331391080985"><ele>923.5</ele><time>2026-04-18T17:12:09Z</time></trkpt><trkpt lat="45.51262959515769" lon="3.0751742024725672"><ele>925.25</ele><time>2026-04-18T17:12:10Z</time></trkpt><trkpt lat="45.51267707705427" lon="3.0749915340153646"><ele>927.0</ele><time>2026-04-18T17:12:11Z</time></trkpt><trkpt lat="45.512743500314215" lon="3.074793811777017"><ele>929.6666666666667</ele><time>2026-04-18T17:12:12Z</time></trkpt><trkpt lat="45.51282778396934" lon="3.0745995575254104"><ele>932.3333333333334</ele><time>2026-04-18T17:12:13Z</time></trkpt><trkpt lat="45.51291923393739" lon="3.0744250231760426"><ele>935.0</ele><time>2026-04-18T17:12:14Z</time></trkpt><trkpt lat="45.51300885504408" lon="3.0742755881946313"><ele>932.25</ele><time>2026-04-18T17:12:15Z</time></trkpt><trkpt lat="45.51311418773114" lon="3.07414755670453"><ele>929.5</ele><time>2026-04-18T17:12:16Z</time></trkpt><trkpt lat="45.51324190332951" lon="3.0740466104062905"><ele>926.75</ele><time>2026-04-18T17:12:17Z</time></trkpt><trkpt lat="45.5133773894646" lon="3.0739656800913515"><ele>924.0</ele><time>2026-04-18T17:12:18Z</time></trkpt><trkpt lat="45.51352572053318" lon="3.073879905927221"><ele>924.0</ele><time>2026-04-18T17:12:19Z</time></trkpt><trkpt lat="45.51366352562187" lon="3.0737569432014165"><ele>924.0</ele><time>2026-04-18T17:12:20Z</time></trkpt><trkpt lat="45.513819411768935" lon="3.0736488036138025"><ele>924.0</ele><time>2026-04-18T17:12:21Z</time></trkpt><trkpt lat="45.51397181441975" lon="3.073521844843605"><ele>918.3333333333333</ele><time>2026-04-18T17:12:22Z</time></trkpt><trkpt lat="45.51412763014838" lon="3.07343668619426"><ele>912.6666666666666</ele><time>2026-04-18T17:12:23Z</time></trkpt><trkpt lat="45.514280679307646" lon="3.073407916050936"><ele>907.0</ele><time>2026-04-18T17:12:24Z</time></trkpt><trkpt lat="45.514432151694855" lon="3.0733404135914664"><ele>907.0</ele><time>2026-04-18T17:12:24.999Z</time></trkpt><trkpt lat="45.514570062812474" lon="3.073292318986883"><ele>907.0</ele><time>2026-04-18T17:12:25.999Z</time></trkpt><trkpt lat="45.5147064084304" lon="3.0732038490848357"><ele>907.0</ele><time>2026-04-18T17:12:26.999Z</time></trkpt><trkpt lat="45.51482007825353" lon="3.073085278824503"><ele>907.0</ele><time>2026-04-18T17:12:27.999Z</time></trkpt><trkpt lat="45.514915905279054" lon="3.0729383290341454"><ele>907.75</ele><time>2026-04-18T17:12:28.999Z</time></trkpt><trkpt lat="45.51500600908835" lon="3.072774667632454"><ele>908.5</ele><time>2026-04-18T17:12:29.999Z</time></trkpt><trkpt lat="45.515116162603356" lon="3.072632825150554"><ele>909.25</ele><time>2026-04-18T17:12:30.999Z</time></trkpt><trkpt lat="45.51522822176061" lon="3.0725018316456194"><ele>910.0</ele><time>2026-04-18T17:12:31.999Z</time></trkpt><trkpt lat="45.51534715889966" lon="3.072386360220862"><ele>903.3333333333333</ele><time>2026-04-18T17:12:32.999Z</time></trkpt><trkpt lat="45.51547647606044" lon="3.0722753799894327"><ele>896.6666666666667</ele><time>2026-04-18T17:12:33.999Z</time></trkpt><trkpt lat="45.515619346649444" lon="3.0721635389320223"><ele>890.0</ele><time>2026-04-18T17:12:34.999Z</time></trkpt><trkpt lat="45.51576006909098" lon="3.0720539185884386"><ele>890.0</ele><time>2026-04-18T17:12:35.999Z</time></trkpt><trkpt lat="45.51588303258903" lon="3.071924183070315"><ele>890.0</ele><time>2026-04-18T17:12:36.999Z</time></trkpt><trkpt lat="45.516002517247" lon="3.0718053357178605"><ele>890.0</ele><time>2026-04-18T17:12:37.999Z</time></trkpt><trkpt lat="45.516117676416904" lon="3.071651373511537"><ele>888.0</ele><time>2026-04-18T17:12:38.999Z</time></trkpt><trkpt lat="45.516219767403115" lon="3.0714883543541136"><ele>886.0</ele><time>2026-04-18T17:12:39.999Z</time></trkpt><trkpt lat="45.51645430449677" lon="3.071197366551783"><ele>886.0</ele><time>2026-04-18T17:12:41.999Z</time></trkpt><trkpt lat="45.51656954099564" lon="3.071084299720724"><ele>886.0</ele><time>2026-04-18T17:12:42.999Z</time></trkpt><trkpt lat="45.516700881109955" lon="3.0709909505594766"><ele>886.0</ele><time>2026-04-18T17:12:43.999Z</time></trkpt><trkpt lat="45.51684123879435" lon="3.0709381542216243"><ele>886.0</ele><time>2026-04-18T17:12:44.999Z</time></trkpt><trkpt lat="45.516990533174045" lon="3.0709183820162114"><ele>884.5</ele><time>2026-04-18T17:12:45.999Z</time></trkpt><trkpt lat="45.51713385611508" lon="3.070909301790372"><ele>883.0</ele><time>2026-04-18T17:12:46.999Z</time></trkpt><trkpt lat="45.51728050595988" lon="3.0709135092515365"><ele>881.5</ele><time>2026-04-18T17:12:47.999Z</time></trkpt><trkpt lat="45.51741726637296" lon="3.070932852880145"><ele>880.0</ele><time>2026-04-18T17:12:48.999Z</time></trkpt><trkpt lat="45.5175523805534" lon="3.070961329210428"><ele>880.0</ele><time>2026-04-18T17:12:49.999Z</time></trkpt><trkpt lat="45.517687495623534" lon="3.071007086112623"><ele>880.0</ele><time>2026-04-18T17:12:50.999Z</time></trkpt><trkpt lat="45.51782012476487" lon="3.0710373118383667"><ele>880.0</ele><time>2026-04-18T17:12:51.999Z</time></trkpt><trkpt lat="45.51794552617141" lon="3.0710303505820615"><ele>880.0</ele><time>2026-04-18T17:12:52.999Z</time></trkpt><trkpt lat="45.51805634999687" lon="3.0710020474421285"><ele>877.75</ele><time>2026-04-18T17:12:53.999Z</time></trkpt><trkpt lat="45.51815947578539" lon="3.0709173518696646"><ele>875.5</ele><time>2026-04-18T17:12:54.999Z</time></trkpt><trkpt lat="45.51824445783704" lon="3.0707874314717967"><ele>873.25</ele><time>2026-04-18T17:12:55.999Z</time></trkpt><trkpt lat="45.5183129331336" lon="3.070622224125597"><ele>871.0</ele><time>2026-04-18T17:12:56.999Z</time></trkpt><trkpt lat="45.51837269230465" lon="3.0704434790603017"><ele>870.5</ele><time>2026-04-18T17:12:57.999Z</time></trkpt><trkpt lat="45.51843023825923" lon="3.070277366598723"><ele>870.0</ele><time>2026-04-18T17:12:58.999Z</time></trkpt><trkpt lat="45.51849295849443" lon="3.0701196851329344"><ele>869.5</ele><time>2026-04-18T17:12:59.999Z</time></trkpt><trkpt lat="45.51855120205952" lon="3.069964929683918"><ele>869.0</ele><time>2026-04-18T17:13:00.999Z</time></trkpt><trkpt lat="45.51860447190945" lon="3.0698161853261206"><ele>868.2</ele><time>2026-04-18T17:13:01.999Z</time></trkpt><trkpt lat="45.51863408414073" lon="3.0696611521378547"><ele>867.4000000000001</ele><time>2026-04-18T17:13:02.999Z</time></trkpt><trkpt lat="45.518654095719974" lon="3.0695072982742473"><ele>866.6</ele><time>2026-04-18T17:13:03.999Z</time></trkpt><trkpt lat="45.51867885926466" lon="3.0693926230076927"><ele>865.8</ele><time>2026-04-18T17:13:04.999Z</time></trkpt><trkpt lat="45.51870111648632" lon="3.0692820432567482"><ele>865.0</ele><time>2026-04-18T17:13:05.999Z</time></trkpt><trkpt lat="45.5187403877383" lon="3.0691821568810727"><ele>862.4999999999999</ele><time>2026-04-18T17:13:06.999Z</time></trkpt><trkpt lat="45.51878672769116" lon="3.069087513480189"><ele>860.0</ele><time>2026-04-18T17:13:07.999Z</time></trkpt><trkpt lat="45.518878469580585" lon="3.069064442075193"><ele>857.5</ele><time>2026-04-18T17:13:08.999Z</time></trkpt><trkpt lat="45.51896196690871" lon="3.0690434528171338"><ele>855.0</ele><time>2026-04-18T17:13:09.999Z</time></trkpt><trkpt lat="45.51903664631075" lon="3.069029439966149"><ele>852.4999999999999</ele><time>2026-04-18T17:13:10.999Z</time></trkpt><trkpt lat="45.51911092324693" lon="3.0689977290032564"><ele>850.0</ele><time>2026-04-18T17:13:11.999Z</time></trkpt><trkpt lat="45.519185463480106" lon="3.068985253944197"><ele>849.9999999999999</ele><time>2026-04-18T17:13:12.999Z</time></trkpt><trkpt lat="45.51925592088055" lon="3.0689699205418752"><ele>850.0</ele><time>2026-04-18T17:13:13.999Z</time></trkpt><trkpt lat="45.519326202967555" lon="3.068972804274077"><ele>850.0</ele><time>2026-04-18T17:13:14.999Z</time></trkpt><trkpt lat="45.51939125536611" lon="3.0690049931080683"><ele>850.0</ele><time>2026-04-18T17:13:15.999Z</time></trkpt><trkpt lat="45.5194562384053" lon="3.0690682304433548"><ele>849.9999999999999</ele><time>2026-04-18T17:13:16.999Z</time></trkpt><trkpt lat="45.51951939141799" lon="3.0691517947650535"><ele>850.0</ele><time>2026-04-18T17:13:17.999Z</time></trkpt><trkpt lat="45.51957914190631" lon="3.069256723432332"><ele>852.0</ele><time>2026-04-18T17:13:18.999Z</time></trkpt><trkpt lat="45.519641645780595" lon="3.0693848818195617"><ele>854.0</ele><time>2026-04-18T17:13:19.999Z</time></trkpt><trkpt lat="45.51969247633228" lon="3.069544641398482"><ele>856.0</ele><time>2026-04-18T17:13:20.999Z</time></trkpt><trkpt lat="45.51977679838132" lon="3.0696681052698134"><ele>858.0</ele><time>2026-04-18T17:13:21.999Z</time></trkpt><trkpt lat="45.519861177632606" lon="3.0697618635301893"><ele>858.0</ele><time>2026-04-18T17:13:22.999Z</time></trkpt><trkpt lat="45.51996345006064" lon="3.0698514691848007"><ele>858.0</ele><time>2026-04-18T17:13:23.999Z</time></trkpt><trkpt lat="45.52006256628867" lon="3.069956762583882"><ele>858.0</ele><time>2026-04-18T17:13:24.999Z</time></trkpt><trkpt lat="45.52010871083876" lon="3.070104775838545"><ele>858.0</ele><time>2026-04-18T17:13:25.999Z</time></trkpt><trkpt lat="45.52014801304178" lon="3.0702546231555625"><ele>857.0</ele><time>2026-04-18T17:13:27Z</time></trkpt><trkpt lat="45.5201634440111" lon="3.0704223896503366"><ele>856.0</ele><time>2026-04-18T17:13:28Z</time></trkpt><trkpt lat="45.52019460763685" lon="3.0705912300589047"><ele>855.0</ele><time>2026-04-18T17:13:29Z</time></trkpt><trkpt lat="45.52022410214554" lon="3.070760071125574"><ele>854.0</ele><time>2026-04-18T17:13:30Z</time></trkpt><trkpt lat="45.520272167234744" lon="3.0709175827415516"><ele>855.5</ele><time>2026-04-18T17:13:31Z</time></trkpt><trkpt lat="45.520328767316315" lon="3.071076078691443"><ele>857.0</ele><time>2026-04-18T17:13:32Z</time></trkpt><trkpt lat="45.520382975240864" lon="3.071242963498396"><ele>858.5</ele><time>2026-04-18T17:13:33Z</time></trkpt><trkpt lat="45.52043796095134" lon="3.0714041244203933"><ele>860.0</ele><time>2026-04-18T17:13:34Z</time></trkpt><trkpt lat="45.520466032409516" lon="3.0715788974927216"><ele>858.25</ele><time>2026-04-18T17:13:35Z</time></trkpt><trkpt lat="45.5204935272209" lon="3.0717530354206124"><ele>856.5</ele><time>2026-04-18T17:13:36Z</time></trkpt><trkpt lat="45.52051358112686" lon="3.071948825759101"><ele>854.75</ele><time>2026-04-18T17:13:37Z</time></trkpt><trkpt lat="45.52054557721521" lon="3.072143782774298"><ele>853.0</ele><time>2026-04-18T17:13:38Z</time></trkpt><trkpt lat="45.520556008339085" lon="3.0723402025396664"><ele>851.0</ele><time>2026-04-18T17:13:39Z</time></trkpt><trkpt lat="45.520574820716355" lon="3.072549836554272"><ele>849.0</ele><time>2026-04-18T17:13:40Z</time></trkpt><trkpt lat="45.52059076763519" lon="3.0727573600254967"><ele>847.0</ele><time>2026-04-18T17:13:41Z</time></trkpt><trkpt lat="45.520606306632665" lon="3.072963492925632"><ele>845.0</ele><time>2026-04-18T17:13:42Z</time></trkpt><trkpt lat="45.52061815710287" lon="3.073179564509884"><ele>844.25</ele><time>2026-04-18T17:13:43Z</time></trkpt><trkpt lat="45.520630385847845" lon="3.0733807401672495"><ele>843.5</ele><time>2026-04-18T17:13:44Z</time></trkpt><trkpt lat="45.520645433508484" lon="3.073573999423129"><ele>842.75</ele><time>2026-04-18T17:13:45Z</time></trkpt><trkpt lat="45.52066481230401" lon="3.073759829933244"><ele>842.0</ele><time>2026-04-18T17:13:46Z</time></trkpt><trkpt lat="45.520692493383876" lon="3.0739440861462763"><ele>839.75</ele><time>2026-04-18T17:13:47Z</time></trkpt><trkpt lat="45.52073565450302" lon="3.07411899946201"><ele>837.5</ele><time>2026-04-18T17:13:48Z</time></trkpt><trkpt lat="45.520785062123224" lon="3.0742801258063954"><ele>835.25</ele><time>2026-04-18T17:13:49Z</time></trkpt><trkpt lat="45.52083901800508" lon="3.0744342170637053"><ele>833.0</ele><time>2026-04-18T17:13:50Z</time></trkpt><trkpt lat="45.520897229310236" lon="3.0745875458926686"><ele>833.0</ele><time>2026-04-18T17:13:51Z</time></trkpt><trkpt lat="45.520959710147956" lon="3.074737939387765"><ele>833.0</ele><time>2026-04-18T17:13:52Z</time></trkpt><trkpt lat="45.521026529247074" lon="3.0748901084909774"><ele>833.0</ele><time>2026-04-18T17:13:53Z</time></trkpt><trkpt lat="45.52109591278797" lon="3.075045492208279"><ele>833.0</ele><time>2026-04-18T17:13:54Z</time></trkpt><trkpt lat="45.52116580123083" lon="3.0752149286750385"><ele>832.25</ele><time>2026-04-18T17:13:55Z</time></trkpt><trkpt lat="45.52124956865131" lon="3.075395326610429"><ele>831.5</ele><time>2026-04-18T17:13:56Z</time></trkpt><trkpt lat="45.52132584609461" lon="3.0755670509772775"><ele>830.75</ele><time>2026-04-18T17:13:57Z</time></trkpt><trkpt lat="45.52139637286246" lon="3.0757426798642697"><ele>830.0</ele><time>2026-04-18T17:13:58Z</time></trkpt><trkpt lat="45.52147006842774" lon="3.075906553491432"><ele>830.0</ele><time>2026-04-18T17:13:59Z</time></trkpt><trkpt lat="45.521538086065625" lon="3.0760795584887877"><ele>830.0</ele><time>2026-04-18T17:14:00Z</time></trkpt><trkpt lat="45.52161502187579" lon="3.076259924428378"><ele>830.0</ele><time>2026-04-18T17:14:01Z</time></trkpt><trkpt lat="45.52168732921351" lon="3.0764520828166617"><ele>830.0</ele><time>2026-04-18T17:14:02Z</time></trkpt><trkpt lat="45.52174651569056" lon="3.076649761719522"><ele>824.3333333333334</ele><time>2026-04-18T17:14:03Z</time></trkpt><trkpt lat="45.52179900286104" lon="3.0768574086170988"><ele>818.6666666666667</ele><time>2026-04-18T17:14:04Z</time></trkpt><trkpt lat="45.52185018496877" lon="3.0770685319763"><ele>813.0</ele><time>2026-04-18T17:14:05Z</time></trkpt><trkpt lat="45.521888526325185" lon="3.077288401056129"><ele>810.0</ele><time>2026-04-18T17:14:06Z</time></trkpt><trkpt lat="45.52192212960222" lon="3.077507073353196"><ele>807.0</ele><time>2026-04-18T17:14:07Z</time></trkpt><trkpt lat="45.521952655558614" lon="3.0777392226950235"><ele>804.0</ele><time>2026-04-18T17:14:08Z</time></trkpt><trkpt lat="45.5219994564413" lon="3.0779617069373195"><ele>804.0</ele><time>2026-04-18T17:14:09Z</time></trkpt><trkpt lat="45.522064350229506" lon="3.078195070553784"><ele>804.0</ele><time>2026-04-18T17:14:10Z</time></trkpt><trkpt lat="45.522124481837" lon="3.0784065284930806"><ele>804.0</ele><time>2026-04-18T17:14:11Z</time></trkpt><trkpt lat="45.52218125772234" lon="3.078617210205762"><ele>804.25</ele><time>2026-04-18T17:14:12Z</time></trkpt><trkpt lat="45.522234904640214" lon="3.0788201717482755"><ele>804.5</ele><time>2026-04-18T17:14:13Z</time></trkpt><trkpt lat="45.52228140484851" lon="3.079020280451333"><ele>804.75</ele><time>2026-04-18T17:14:14Z</time></trkpt><trkpt lat="45.52232227251154" lon="3.0792230985369367"><ele>805.0</ele><time>2026-04-18T17:14:15Z</time></trkpt><trkpt lat="45.52234294160116" lon="3.0794227790782887"><ele>805.0</ele><time>2026-04-18T17:14:16Z</time></trkpt><trkpt lat="45.5223370629216" lon="3.079635840278261"><ele>805.0</ele><time>2026-04-18T17:14:17Z</time></trkpt><trkpt lat="45.52232163207498" lon="3.0798492724263036"><ele>805.0</ele><time>2026-04-18T17:14:18Z</time></trkpt><trkpt lat="45.522326185089966" lon="3.0800659430118262"><ele>802.3333333333333</ele><time>2026-04-18T17:14:19Z</time></trkpt><trkpt lat="45.52235447344868" lon="3.080285796750418"><ele>799.6666666666667</ele><time>2026-04-18T17:14:20Z</time></trkpt><trkpt lat="45.522370919163954" lon="3.080508683360458"><ele>797.0</ele><time>2026-04-18T17:14:21Z</time></trkpt><trkpt lat="45.522354873815004" lon="3.080717466824037"><ele>795.5</ele><time>2026-04-18T17:14:22Z</time></trkpt><trkpt lat="45.522322193397684" lon="3.080926556820769"><ele>794.0</ele><time>2026-04-18T17:14:23Z</time></trkpt><trkpt lat="45.522289648942596" lon="3.081130413317076"><ele>792.5</ele><time>2026-04-18T17:14:24Z</time></trkpt><trkpt lat="45.522264246720255" lon="3.0813345698747114"><ele>791.0</ele><time>2026-04-18T17:14:25Z</time></trkpt><trkpt lat="45.52226226673653" lon="3.081535195489905"><ele>790.0</ele><time>2026-04-18T17:14:26Z</time></trkpt><trkpt lat="45.52228530167976" lon="3.0817345325413474"><ele>789.0</ele><time>2026-04-18T17:14:27Z</time></trkpt><trkpt lat="45.52232009718174" lon="3.0819418652384467"><ele>788.0</ele><time>2026-04-18T17:14:28Z</time></trkpt><trkpt lat="45.52235061914487" lon="3.0821569192834226"><ele>787.0</ele><time>2026-04-18T17:14:29Z</time></trkpt><trkpt lat="45.52236853064238" lon="3.082360923540036"><ele>785.75</ele><time>2026-04-18T17:14:30Z</time></trkpt><trkpt lat="45.522369244738556" lon="3.082575904724958"><ele>784.5</ele><time>2026-04-18T17:14:31Z</time></trkpt><trkpt lat="45.5223535733857" lon="3.0827828907591672"><ele>783.25</ele><time>2026-04-18T17:14:32Z</time></trkpt><trkpt lat="45.52232839433996" lon="3.082987746500328"><ele>782.0</ele><time>2026-04-18T17:14:33Z</time></trkpt><trkpt lat="45.52229600372493" lon="3.0831809612046612"><ele>781.0</ele><time>2026-04-18T17:14:34Z</time></trkpt><trkpt lat="45.522249691796496" lon="3.083368381931625"><ele>780.0</ele><time>2026-04-18T17:14:35Z</time></trkpt><trkpt lat="45.52220139941409" lon="3.083554079653372"><ele>779.0</ele><time>2026-04-18T17:14:36Z</time></trkpt><trkpt lat="45.52216696128384" lon="3.083749619391806"><ele>778.0</ele><time>2026-04-18T17:14:37Z</time></trkpt><trkpt lat="45.5221520150576" lon="3.0839403759535937"><ele>776.3333333333333</ele><time>2026-04-18T17:14:38Z</time></trkpt><trkpt lat="45.52216073044383" lon="3.0841308383212276"><ele>774.6666666666667</ele><time>2026-04-18T17:14:39Z</time></trkpt><trkpt lat="45.52219324616539" lon="3.084339723436206"><ele>773.0</ele><time>2026-04-18T17:14:40Z</time></trkpt><trkpt lat="45.52222391546537" lon="3.0845764863798957"><ele>773.0</ele><time>2026-04-18T17:14:41Z</time></trkpt><trkpt lat="45.52221658542781" lon="3.0848011542407225"><ele>773.0</ele><time>2026-04-18T17:14:41.999Z</time></trkpt><trkpt lat="45.522180049673736" lon="3.085021083808302"><ele>773.0</ele><time>2026-04-18T17:14:42.999Z</time></trkpt><trkpt lat="45.52215652449021" lon="3.0852442696173297"><ele>771.0</ele><time>2026-04-18T17:14:43.999Z</time></trkpt><trkpt lat="45.522155938034906" lon="3.085463219328161"><ele>769.0</ele><time>2026-04-18T17:14:44.999Z</time></trkpt><trkpt lat="45.522189052419" lon="3.085673500688845"><ele>767.0</ele><time>2026-04-18T17:14:45.999Z</time></trkpt><trkpt lat="45.52223897003503" lon="3.0858791096313856"><ele>766.25</ele><time>2026-04-18T17:14:46.999Z</time></trkpt><trkpt lat="45.522285862060045" lon="3.0860621588004133"><ele>765.5</ele><time>2026-04-18T17:14:47.999Z</time></trkpt><trkpt lat="45.5223232167894" lon="3.0862428547380323"><ele>764.75</ele><time>2026-04-18T17:14:48.999Z</time></trkpt><trkpt lat="45.5223408943808" lon="3.0864045868916654"><ele>764.0</ele><time>2026-04-18T17:14:49.999Z</time></trkpt><trkpt lat="45.522330281709735" lon="3.086556789836636"><ele>762.6</ele><time>2026-04-18T17:14:50.999Z</time></trkpt><trkpt lat="45.52228020151721" lon="3.086689936535743"><ele>761.2</ele><time>2026-04-18T17:14:51.999Z</time></trkpt><trkpt lat="45.52220031738151" lon="3.0867986305605895"><ele>759.8000000000001</ele><time>2026-04-18T17:14:52.999Z</time></trkpt><trkpt lat="45.52210989798642" lon="3.086892645390186"><ele>758.4000000000001</ele><time>2026-04-18T17:14:53.999Z</time></trkpt><trkpt lat="45.522015666402964" lon="3.086992825265894"><ele>757.0</ele><time>2026-04-18T17:14:54.999Z</time></trkpt><trkpt lat="45.52192399847414" lon="3.087089681579522"><ele>756.6</ele><time>2026-04-18T17:14:55.999Z</time></trkpt><trkpt lat="45.521839906899" lon="3.087185099517625"><ele>756.2</ele><time>2026-04-18T17:14:56.999Z</time></trkpt><trkpt lat="45.52176907990726" lon="3.0872910785289314"><ele>755.8</ele><time>2026-04-18T17:14:57.999Z</time></trkpt><trkpt lat="45.521727768570535" lon="3.087425515179147"><ele>755.4</ele><time>2026-04-18T17:14:58.999Z</time></trkpt><trkpt lat="45.521713663509935" lon="3.0875880469155668"><ele>755.0</ele><time>2026-04-18T17:14:59.999Z</time></trkpt><trkpt lat="45.52172371839044" lon="3.087768806248953"><ele>754.25</ele><time>2026-04-18T17:15:00.999Z</time></trkpt><trkpt lat="45.52173998277246" lon="3.08794905769519"><ele>753.5</ele><time>2026-04-18T17:15:01.999Z</time></trkpt><trkpt lat="45.521760892525634" lon="3.0881344848672887"><ele>752.75</ele><time>2026-04-18T17:15:02.999Z</time></trkpt><trkpt lat="45.52177360905211" lon="3.088300638160126"><ele>752.0</ele><time>2026-04-18T17:15:03.999Z</time></trkpt><trkpt lat="45.52178037405792" lon="3.088456104596511"><ele>751.2</ele><time>2026-04-18T17:15:04.999Z</time></trkpt><trkpt lat="45.52178294054577" lon="3.0886046607088247"><ele>750.4000000000001</ele><time>2026-04-18T17:15:05.999Z</time></trkpt><trkpt lat="45.52178399258301" lon="3.0887397818428024"><ele>749.5999999999999</ele><time>2026-04-18T17:15:06.999Z</time></trkpt><trkpt lat="45.52176837064333" lon="3.0888677609385073"><ele>748.8</ele><time>2026-04-18T17:15:07.999Z</time></trkpt><trkpt lat="45.52171489237284" lon="3.0889763855419643"><ele>748.0</ele><time>2026-04-18T17:15:08.999Z</time></trkpt><trkpt lat="45.52163854888136" lon="3.089045979739197"><ele>748.0</ele><time>2026-04-18T17:15:09.999Z</time></trkpt><trkpt lat="45.52156008259392" lon="3.089078346984775"><ele>748.0</ele><time>2026-04-18T17:15:10.999Z</time></trkpt><trkpt lat="45.52148097124674" lon="3.0890800900560738"><ele>748.0</ele><time>2026-04-18T17:15:11.999Z</time></trkpt><trkpt lat="45.52140417771151" lon="3.0890894708945074"><ele>748.0</ele><time>2026-04-18T17:15:12.999Z</time></trkpt><trkpt lat="45.52133399366953" lon="3.089144525361785"><ele>748.0</ele><time>2026-04-18T17:15:13.999Z</time></trkpt><trkpt lat="45.52126815701686" lon="3.089225201092157"><ele>748.0</ele><time>2026-04-18T17:15:14.999Z</time></trkpt><trkpt lat="45.52120514668367" lon="3.089317249688199"><ele>748.3333333333334</ele><time>2026-04-18T17:15:15.999Z</time></trkpt><trkpt lat="45.52114726300965" lon="3.089416232393128"><ele>748.6666666666667</ele><time>2026-04-18T17:15:16.999Z</time></trkpt><trkpt lat="45.52109161196513" lon="3.0895128681191193"><ele>749.0</ele><time>2026-04-18T17:15:17.999Z</time></trkpt><trkpt lat="45.52104058679681" lon="3.0896068095755176"><ele>749.3333333333334</ele><time>2026-04-18T17:15:18.999Z</time></trkpt><trkpt lat="45.52098961377238" lon="3.0896964011970347"><ele>749.6666666666666</ele><time>2026-04-18T17:15:19.999Z</time></trkpt><trkpt lat="45.520935408953115" lon="3.0897828526501354"><ele>750.0</ele><time>2026-04-18T17:15:20.999Z</time></trkpt><trkpt lat="45.52087827852582" lon="3.0898722953927598"><ele>748.8333333333334</ele><time>2026-04-18T17:15:21.999Z</time></trkpt><trkpt lat="45.52082457378806" lon="3.089954243792563"><ele>747.6666666666666</ele><time>2026-04-18T17:15:22.999Z</time></trkpt><trkpt lat="45.52077112363229" lon="3.09003496171325"><ele>746.5</ele><time>2026-04-18T17:15:23.999Z</time></trkpt><trkpt lat="45.52070494444668" lon="3.0900984809828516"><ele>745.3333333333333</ele><time>2026-04-18T17:15:24.999Z</time></trkpt><trkpt lat="45.5206311938939" lon="3.0901265026314646"><ele>744.1666666666666</ele><time>2026-04-18T17:15:25.999Z</time></trkpt><trkpt lat="45.520543895635406" lon="3.0901575380755344"><ele>743.0</ele><time>2026-04-18T17:15:26.999Z</time></trkpt><trkpt lat="45.520461704680244" lon="3.090204226593378"><ele>743.0</ele><time>2026-04-18T17:15:27.999Z</time></trkpt><trkpt lat="45.52039689249749" lon="3.09027865561986"><ele>743.0</ele><time>2026-04-18T17:15:28.999Z</time></trkpt><trkpt lat="45.520351399011574" lon="3.0903908903314443"><ele>743.0</ele><time>2026-04-18T17:15:29.999Z</time></trkpt><trkpt lat="45.52034337223123" lon="3.0905212526818784"><ele>743.0</ele><time>2026-04-18T17:15:30.999Z</time></trkpt><trkpt lat="45.52037017586879" lon="3.090638476305453"><ele>743.0</ele><time>2026-04-18T17:15:32Z</time></trkpt><trkpt lat="45.52043224984412" lon="3.0907358199071213"><ele>743.0</ele><time>2026-04-18T17:15:33Z</time></trkpt><trkpt lat="45.52052018641225" lon="3.090800577686906"><ele>741.0</ele><time>2026-04-18T17:15:34Z</time></trkpt><trkpt lat="45.52062810330535" lon="3.0908424417738245"><ele>739.0</ele><time>2026-04-18T17:15:35Z</time></trkpt><trkpt lat="45.52075046128687" lon="3.090877426286168"><ele>737.0</ele><time>2026-04-18T17:15:36Z</time></trkpt><trkpt lat="45.520888111891814" lon="3.0909191790215"><ele>735.0</ele><time>2026-04-18T17:15:37Z</time></trkpt><trkpt lat="45.521037316891544" lon="3.090973927718424"><ele>735.0</ele><time>2026-04-18T17:15:38Z</time></trkpt><trkpt lat="45.52118079040797" lon="3.09102528122396"><ele>735.0</ele><time>2026-04-18T17:15:39Z</time></trkpt><trkpt lat="45.521310897380936" lon="3.0910579820268183"><ele>735.0</ele><time>2026-04-18T17:15:40Z</time></trkpt><trkpt lat="45.52144004033095" lon="3.0910665313211005"><ele>735.0</ele><time>2026-04-18T17:15:41Z</time></trkpt><trkpt lat="45.52155159019414" lon="3.091038021000797"><ele>734.6666666666666</ele><time>2026-04-18T17:15:42Z</time></trkpt><trkpt lat="45.521651199200136" lon="3.0910335889052494"><ele>734.3333333333334</ele><time>2026-04-18T17:15:43Z</time></trkpt><trkpt lat="45.521724346411084" lon="3.0910855592248665"><ele>734.0</ele><time>2026-04-18T17:15:44Z</time></trkpt><trkpt lat="45.521791577701535" lon="3.0911256815071133"><ele>733.6666666666667</ele><time>2026-04-18T17:15:45Z</time></trkpt><trkpt lat="45.52183170128875" lon="3.0912154178004863"><ele>733.3333333333334</ele><time>2026-04-18T17:15:46Z</time></trkpt><trkpt lat="45.521846072186996" lon="3.091322570547205"><ele>733.0</ele><time>2026-04-18T17:15:47Z</time></trkpt><trkpt lat="45.52183108530737" lon="3.091433876058555"><ele>733.0</ele><time>2026-04-18T17:15:48Z</time></trkpt><trkpt lat="45.52178551761743" lon="3.091538796050285"><ele>733.0</ele><time>2026-04-18T17:15:49Z</time></trkpt><trkpt lat="45.52170140536527" lon="3.091598814769832"><ele>733.0</ele><time>2026-04-18T17:15:50Z</time></trkpt><trkpt lat="45.521626033585406" lon="3.0916575415094427"><ele>733.0</ele><time>2026-04-18T17:15:51Z</time></trkpt><trkpt lat="45.52153177235972" lon="3.091665873346424"><ele>733.0</ele><time>2026-04-18T17:15:52Z</time></trkpt><trkpt lat="45.521452045259345" lon="3.0916840095918046"><ele>733.0</ele><time>2026-04-18T17:15:53Z</time></trkpt><trkpt lat="45.52137994944157" lon="3.0917317821153096"><ele>731.1666666666667</ele><time>2026-04-18T17:15:54Z</time></trkpt><trkpt lat="45.52131908587655" lon="3.091818395072449"><ele>729.3333333333334</ele><time>2026-04-18T17:15:55Z</time></trkpt><trkpt lat="45.52128100588762" lon="3.0919226673162994"><ele>727.5</ele><time>2026-04-18T17:15:56Z</time></trkpt><trkpt lat="45.5212692150421" lon="3.092042827257723"><ele>725.6666666666666</ele><time>2026-04-18T17:15:57Z</time></trkpt><trkpt lat="45.52128368896069" lon="3.092167908988577"><ele>723.8333333333333</ele><time>2026-04-18T17:15:58Z</time></trkpt><trkpt lat="45.521323008972736" lon="3.0922838171460705"><ele>722.0</ele><time>2026-04-18T17:15:59Z</time></trkpt><trkpt lat="45.52138155707329" lon="3.0923853512735233"><ele>721.1666666666666</ele><time>2026-04-18T17:16:00Z</time></trkpt><trkpt lat="45.521458412883895" lon="3.0924622076289814"><ele>720.3333333333333</ele><time>2026-04-18T17:16:01Z</time></trkpt><trkpt lat="45.52154432307922" lon="3.0925189961817843"><ele>719.5</ele><time>2026-04-18T17:16:02Z</time></trkpt><trkpt lat="45.52162780715516" lon="3.0925674543905584"><ele>718.6666666666666</ele><time>2026-04-18T17:16:03Z</time></trkpt><trkpt lat="45.521706880092445" lon="3.092592638394005"><ele>717.8333333333334</ele><time>2026-04-18T17:16:04Z</time></trkpt><trkpt lat="45.52179000787559" lon="3.0926254723962265"><ele>717.0</ele><time>2026-04-18T17:16:05Z</time></trkpt><trkpt lat="45.52187472211542" lon="3.0925424702905624"><ele>717.0</ele><time>2026-04-18T17:16:06Z</time></trkpt><trkpt lat="45.521936413587824" lon="3.092470100050613"><ele>717.0</ele><time>2026-04-18T17:16:07Z</time></trkpt><trkpt lat="45.52198012666195" lon="3.092383783595661"><ele>717.0</ele><time>2026-04-18T17:16:08Z</time></trkpt><trkpt lat="45.52202893512461" lon="3.0923257792401806"><ele>717.0</ele><time>2026-04-18T17:16:09Z</time></trkpt><trkpt lat="45.522132795142554" lon="3.0922332924654943"><ele>717.0</ele><time>2026-04-18T17:16:11Z</time></trkpt><trkpt lat="45.522203563666835" lon="3.092219052213009"><ele>717.0</ele><time>2026-04-18T17:16:12Z</time></trkpt><trkpt lat="45.52227578845436" lon="3.0922395552167967"><ele>717.8</ele><time>2026-04-18T17:16:13Z</time></trkpt><trkpt lat="45.52235885103601" lon="3.092253336990864"><ele>718.6</ele><time>2026-04-18T17:16:14Z</time></trkpt><trkpt lat="45.522444486246954" lon="3.0922652862370406"><ele>719.4</ele><time>2026-04-18T17:16:15Z</time></trkpt><trkpt lat="45.52253564672154" lon="3.092277385420727"><ele>720.1999999999999</ele><time>2026-04-18T17:16:16Z</time></trkpt><trkpt lat="45.52262668148195" lon="3.092289467916371"><ele>721.0</ele><time>2026-04-18T17:16:17Z</time></trkpt><trkpt lat="45.52272667680143" lon="3.092301052052766"><ele>721.0</ele><time>2026-04-18T17:16:18Z</time></trkpt><trkpt lat="45.52282281483756" lon="3.0923105687474024"><ele>721.0</ele><time>2026-04-18T17:16:19Z</time></trkpt><trkpt lat="45.522909906012885" lon="3.092327187697119"><ele>721.0</ele><time>2026-04-18T17:16:20Z</time></trkpt><trkpt lat="45.52299149873786" lon="3.092355402708327"><ele>721.0</ele><time>2026-04-18T17:16:21Z</time></trkpt><trkpt lat="45.523061345352986" lon="3.092414907527164"><ele>721.0</ele><time>2026-04-18T17:16:22Z</time></trkpt><trkpt lat="45.52312609709198" lon="3.0924913191652594"><ele>721.0</ele><time>2026-04-18T17:16:23Z</time></trkpt><trkpt lat="45.52317270671546" lon="3.0926049349425253"><ele>719.0</ele><time>2026-04-18T17:16:24Z</time></trkpt><trkpt lat="45.52322105404407" lon="3.0927140526656913"><ele>717.0</ele><time>2026-04-18T17:16:25Z</time></trkpt><trkpt lat="45.52327443590532" lon="3.0928327877691744"><ele>715.0</ele><time>2026-04-18T17:16:26Z</time></trkpt><trkpt lat="45.523343486134834" lon="3.0929451378780395"><ele>713.0</ele><time>2026-04-18T17:16:27Z</time></trkpt><trkpt lat="45.5233982642265" lon="3.0930787045093022"><ele>711.0</ele><time>2026-04-18T17:16:28Z</time></trkpt><trkpt lat="45.523457168991996" lon="3.093216628559519"><ele>709.75</ele><time>2026-04-18T17:16:29Z</time></trkpt><trkpt lat="45.523505841030094" lon="3.0933752412708353"><ele>708.5</ele><time>2026-04-18T17:16:30Z</time></trkpt><trkpt lat="45.52358548380149" lon="3.0935165697842373"><ele>707.25</ele><time>2026-04-18T17:16:31Z</time></trkpt><trkpt lat="45.52365090189053" lon="3.0936769169838816"><ele>706.0</ele><time>2026-04-18T17:16:32Z</time></trkpt><trkpt lat="45.52372448503769" lon="3.0938508899495196"><ele>705.5</ele><time>2026-04-18T17:16:33Z</time></trkpt><trkpt lat="45.5237950616392" lon="3.0940212481535183"><ele>705.0</ele><time>2026-04-18T17:16:34Z</time></trkpt><trkpt lat="45.52385769685554" lon="3.0941714452128815"><ele>704.5</ele><time>2026-04-18T17:16:35Z</time></trkpt><trkpt lat="45.52392251101293" lon="3.0943195246778887"><ele>704.0</ele><time>2026-04-18T17:16:36Z</time></trkpt><trkpt lat="45.523986305493565" lon="3.094481675838773"><ele>704.0</ele><time>2026-04-18T17:16:37Z</time></trkpt><trkpt lat="45.524059455518085" lon="3.0946517396967277"><ele>704.0</ele><time>2026-04-18T17:16:38Z</time></trkpt><trkpt lat="45.524137912887454" lon="3.094823434596434"><ele>704.0</ele><time>2026-04-18T17:16:39Z</time></trkpt><trkpt lat="45.52422530691921" lon="3.094991939231589"><ele>704.0</ele><time>2026-04-18T17:16:40Z</time></trkpt><trkpt lat="45.52432844092435" lon="3.0951591684195856"><ele>702.3333333333333</ele><time>2026-04-18T17:16:41Z</time></trkpt><trkpt lat="45.524433953958166" lon="3.0953170837644985"><ele>700.6666666666666</ele><time>2026-04-18T17:16:42Z</time></trkpt><trkpt lat="45.524543351004134" lon="3.0954850633703854"><ele>699.0</ele><time>2026-04-18T17:16:42.999Z</time></trkpt><trkpt lat="45.52465819259891" lon="3.0956612303623627"><ele>699.6666666666666</ele><time>2026-04-18T17:16:43.999Z</time></trkpt><trkpt lat="45.524775398423266" lon="3.0958305947311344"><ele>700.3333333333333</ele><time>2026-04-18T17:16:44.999Z</time></trkpt><trkpt lat="45.5249049427721" lon="3.096012478411316"><ele>701.0</ele><time>2026-04-18T17:16:45.999Z</time></trkpt><trkpt lat="45.5250324635591" lon="3.09617390056509"><ele>701.0</ele><time>2026-04-18T17:16:46.999Z</time></trkpt><trkpt lat="45.5251736799675" lon="3.09633315011898"><ele>701.0</ele><time>2026-04-18T17:16:47.999Z</time></trkpt><trkpt lat="45.525329820524696" lon="3.0964824746100192"><ele>701.0</ele><time>2026-04-18T17:16:48.999Z</time></trkpt><trkpt lat="45.525477490217085" lon="3.0966232137146066"><ele>700.3333333333333</ele><time>2026-04-18T17:16:49.999Z</time></trkpt><trkpt lat="45.52559616679513" lon="3.0967853956843268"><ele>699.6666666666666</ele><time>2026-04-18T17:16:50.999Z</time></trkpt><trkpt lat="45.525722742420534" lon="3.096916804978081"><ele>699.0</ele><time>2026-04-18T17:16:51.999Z</time></trkpt><trkpt lat="45.52583250664976" lon="3.097055922991944"><ele>699.0</ele><time>2026-04-18T17:16:52.999Z</time></trkpt><trkpt lat="45.52595732620466" lon="3.097200982658812"><ele>699.0</ele><time>2026-04-18T17:16:53.999Z</time></trkpt><trkpt lat="45.52609644151596" lon="3.0973518787546617"><ele>699.0</ele><time>2026-04-18T17:16:54.999Z</time></trkpt><trkpt lat="45.526251792035474" lon="3.097509466925891"><ele>698.6666666666666</ele><time>2026-04-18T17:16:55.999Z</time></trkpt><trkpt lat="45.52641913067426" lon="3.0976649112985633"><ele>698.3333333333333</ele><time>2026-04-18T17:16:56.999Z</time></trkpt><trkpt lat="45.52657319325066" lon="3.097787855696535"><ele>698.0</ele><time>2026-04-18T17:16:57.999Z</time></trkpt><trkpt lat="45.5267286239569" lon="3.0978878050857332"><ele>698.0</ele><time>2026-04-18T17:16:58.999Z</time></trkpt><trkpt lat="45.52687408433452" lon="3.0979575188784665"><ele>698.0</ele><time>2026-04-18T17:16:59.999Z</time></trkpt><trkpt lat="45.52702588709165" lon="3.0980350356132713"><ele>698.0</ele><time>2026-04-18T17:17:00.999Z</time></trkpt><trkpt lat="45.52717188921839" lon="3.098116512312129"><ele>698.75</ele><time>2026-04-18T17:17:01.999Z</time></trkpt><trkpt lat="45.52730438664315" lon="3.098196835873587"><ele>699.5</ele><time>2026-04-18T17:17:02.999Z</time></trkpt><trkpt lat="45.527432239079374" lon="3.098264192329903"><ele>700.25</ele><time>2026-04-18T17:17:03.999Z</time></trkpt><trkpt lat="45.5275477844811" lon="3.0983413324040603"><ele>701.0</ele><time>2026-04-18T17:17:04.999Z</time></trkpt><trkpt lat="45.527649785163" lon="3.098429734640391"><ele>701.0</ele><time>2026-04-18T17:17:05.999Z</time></trkpt><trkpt lat="45.52772815097322" lon="3.098563490500215"><ele>701.0</ele><time>2026-04-18T17:17:06.999Z</time></trkpt><trkpt lat="45.527814452375345" lon="3.0986964593641435"><ele>701.0</ele><time>2026-04-18T17:17:07.999Z</time></trkpt><trkpt lat="45.52787151094089" lon="3.0988542867835926"><ele>701.0</ele><time>2026-04-18T17:17:08.999Z</time></trkpt><trkpt lat="45.52792870537881" lon="3.0990093854277374"><ele>698.75</ele><time>2026-04-18T17:17:09.999Z</time></trkpt><trkpt lat="45.527994332018125" lon="3.099169817467492"><ele>696.5</ele><time>2026-04-18T17:17:10.999Z</time></trkpt><trkpt lat="45.52806680631164" lon="3.0993178959797487"><ele>694.25</ele><time>2026-04-18T17:17:11.999Z</time></trkpt><trkpt lat="45.52814731030924" lon="3.099445447423441"><ele>692.0</ele><time>2026-04-18T17:17:12.999Z</time></trkpt><trkpt lat="45.52824757929939" lon="3.099540775430159"><ele>692.0</ele><time>2026-04-18T17:17:13.999Z</time></trkpt><trkpt lat="45.52837838453704" lon="3.0995944845007295"><ele>692.0</ele><time>2026-04-18T17:17:14.999Z</time></trkpt><trkpt lat="45.528510486494305" lon="3.099675562513359"><ele>692.0</ele><time>2026-04-18T17:17:15.999Z</time></trkpt><trkpt lat="45.52864204222212" lon="3.099789084515867"><ele>692.0</ele><time>2026-04-18T17:17:16.999Z</time></trkpt><trkpt lat="45.528752132868775" lon="3.0999353538973966"><ele>689.75</ele><time>2026-04-18T17:17:17.999Z</time></trkpt><trkpt lat="45.528857160398594" lon="3.100076804057352"><ele>687.5</ele><time>2026-04-18T17:17:18.999Z</time></trkpt><trkpt lat="45.52894995779865" lon="3.1002212368940314"><ele>685.25</ele><time>2026-04-18T17:17:19.999Z</time></trkpt><trkpt lat="45.52906087665573" lon="3.10034592359193"><ele>683.0</ele><time>2026-04-18T17:17:20.999Z</time></trkpt><trkpt lat="45.52919053473236" lon="3.100440885346692"><ele>683.0</ele><time>2026-04-18T17:17:21.999Z</time></trkpt><trkpt lat="45.529324136776715" lon="3.1005530105444667"><ele>683.0</ele><time>2026-04-18T17:17:22.999Z</time></trkpt><trkpt lat="45.52944690541313" lon="3.100642687276087"><ele>683.0</ele><time>2026-04-18T17:17:23.999Z</time></trkpt><trkpt lat="45.529564398814344" lon="3.1007350833886855"><ele>683.0</ele><time>2026-04-18T17:17:24.999Z</time></trkpt><trkpt lat="45.52966958450087" lon="3.100838608311888"><ele>682.25</ele><time>2026-04-18T17:17:25.999Z</time></trkpt><trkpt lat="45.529777259225554" lon="3.100929688044304"><ele>681.5</ele><time>2026-04-18T17:17:26.999Z</time></trkpt><trkpt lat="45.529875462175816" lon="3.1010349060614613"><ele>680.75</ele><time>2026-04-18T17:17:27.999Z</time></trkpt><trkpt lat="45.52996870321836" lon="3.1011384540959472"><ele>680.0</ele><time>2026-04-18T17:17:28.999Z</time></trkpt><trkpt lat="45.53005209966214" lon="3.101259317677262"><ele>680.0</ele><time>2026-04-18T17:17:29.999Z</time></trkpt><trkpt lat="45.530158438639134" lon="3.1013559152142625"><ele>680.0</ele><time>2026-04-18T17:17:30.999Z</time></trkpt><trkpt lat="45.530253210401774" lon="3.1014928490259446"><ele>680.0</ele><time>2026-04-18T17:17:31.999Z</time></trkpt><trkpt lat="45.53033497647895" lon="3.1016613420729913"><ele>680.0</ele><time>2026-04-18T17:17:32.999Z</time></trkpt><trkpt lat="45.530431483024884" lon="3.101821059881995"><ele>680.5</ele><time>2026-04-18T17:17:33.999Z</time></trkpt><trkpt lat="45.530523639472804" lon="3.1019772484057464"><ele>681.0</ele><time>2026-04-18T17:17:34.999Z</time></trkpt><trkpt lat="45.530614775451824" lon="3.102134084860646"><ele>681.5</ele><time>2026-04-18T17:17:35.999Z</time></trkpt><trkpt lat="45.53070714897092" lon="3.102293930042469"><ele>682.0</ele><time>2026-04-18T17:17:36.999Z</time></trkpt><trkpt lat="45.5307996160783" lon="3.102449649578578"><ele>677.0</ele><time>2026-04-18T17:17:38Z</time></trkpt><trkpt lat="45.530896220114364" lon="3.1026068906492332"><ele>672.0</ele><time>2026-04-18T17:17:39Z</time></trkpt><trkpt lat="45.530999717374876" lon="3.1027683556398493"><ele>667.0</ele><time>2026-04-18T17:17:40Z</time></trkpt><trkpt lat="45.531104738322625" lon="3.10292688814413"><ele>667.0</ele><time>2026-04-18T17:17:41Z</time></trkpt><trkpt lat="45.531212555971095" lon="3.1030911574524813"><ele>667.0</ele><time>2026-04-18T17:17:42Z</time></trkpt><trkpt lat="45.53131782095264" lon="3.1032723960652064"><ele>667.0</ele><time>2026-04-18T17:17:43Z</time></trkpt><trkpt lat="45.53141347913284" lon="3.1034607115335073"><ele>667.6666666666667</ele><time>2026-04-18T17:17:44Z</time></trkpt><trkpt lat="45.53150024094159" lon="3.103661217912593"><ele>668.3333333333334</ele><time>2026-04-18T17:17:45Z</time></trkpt><trkpt lat="45.53157965669671" lon="3.1038707535529224"><ele>669.0</ele><time>2026-04-18T17:17:46Z</time></trkpt><trkpt lat="45.53165193324753" lon="3.1040759538438283"><ele>666.75</ele><time>2026-04-18T17:17:47Z</time></trkpt><trkpt lat="45.53172167503486" lon="3.1042599785375318"><ele>664.5</ele><time>2026-04-18T17:17:48Z</time></trkpt><trkpt lat="45.53179027905852" lon="3.104435385721052"><ele>662.25</ele><time>2026-04-18T17:17:49Z</time></trkpt><trkpt lat="45.531866276721786" lon="3.104616987152358"><ele>660.0</ele><time>2026-04-18T17:17:50Z</time></trkpt><trkpt lat="45.531944844137485" lon="3.1047975635821436"><ele>660.5</ele><time>2026-04-18T17:17:51Z</time></trkpt><trkpt lat="45.53204397396277" lon="3.104963920514432"><ele>661.0</ele><time>2026-04-18T17:17:52Z</time></trkpt><trkpt lat="45.532126587793854" lon="3.1051166807116797"><ele>661.5</ele><time>2026-04-18T17:17:53Z</time></trkpt><trkpt lat="45.53222635810955" lon="3.1052661543829405"><ele>662.0</ele><time>2026-04-18T17:17:54Z</time></trkpt><trkpt lat="45.53233351590573" lon="3.105387262559304"><ele>662.0</ele><time>2026-04-18T17:17:55Z</time></trkpt><trkpt lat="45.532448207968386" lon="3.105507822839465"><ele>662.0</ele><time>2026-04-18T17:17:56Z</time></trkpt><trkpt lat="45.53255578639941" lon="3.105654177592448"><ele>662.0</ele><time>2026-04-18T17:17:57Z</time></trkpt><trkpt lat="45.53267556523612" lon="3.1057679246225445"><ele>662.0</ele><time>2026-04-18T17:17:58Z</time></trkpt><trkpt lat="45.53277093129765" lon="3.105926941346687"><ele>659.6666666666666</ele><time>2026-04-18T17:17:59Z</time></trkpt><trkpt lat="45.53287477383072" lon="3.106082768763499"><ele>657.3333333333334</ele><time>2026-04-18T17:18:00Z</time></trkpt><trkpt lat="45.53296816440987" lon="3.1062385381057394"><ele>655.0</ele><time>2026-04-18T17:18:01Z</time></trkpt><trkpt lat="45.5330724500449" lon="3.106423305668328"><ele>652.3333333333334</ele><time>2026-04-18T17:18:02Z</time></trkpt><trkpt lat="45.5331772755038" lon="3.1066090300086775"><ele>649.6666666666666</ele><time>2026-04-18T17:18:03Z</time></trkpt><trkpt lat="45.53327625757561" lon="3.106784400833612"><ele>647.0</ele><time>2026-04-18T17:18:04Z</time></trkpt><trkpt lat="45.53337325221017" lon="3.106952035484278"><ele>647.0</ele><time>2026-04-18T17:18:05Z</time></trkpt><trkpt lat="45.53347023236657" lon="3.107108593598977"><ele>647.0</ele><time>2026-04-18T17:18:06Z</time></trkpt><trkpt lat="45.53358064759693" lon="3.1072494018417003"><ele>647.0</ele><time>2026-04-18T17:18:07Z</time></trkpt><trkpt lat="45.53369248096407" lon="3.1073766100440934"><ele>647.0</ele><time>2026-04-18T17:18:08Z</time></trkpt><trkpt lat="45.53380563763118" lon="3.1074927822240483"><ele>645.25</ele><time>2026-04-18T17:18:09Z</time></trkpt><trkpt lat="45.533925744986306" lon="3.1076116407126833"><ele>643.5</ele><time>2026-04-18T17:18:10Z</time></trkpt><trkpt lat="45.534044377850236" lon="3.1077224888192037"><ele>641.75</ele><time>2026-04-18T17:18:11Z</time></trkpt><trkpt lat="45.53415942375307" lon="3.10782601803398"><ele>640.0</ele><time>2026-04-18T17:18:12Z</time></trkpt><trkpt lat="45.53427259207371" lon="3.1079261319579548"><ele>640.0</ele><time>2026-04-18T17:18:13Z</time></trkpt><trkpt lat="45.53438034037907" lon="3.1080147585380944"><ele>640.0</ele><time>2026-04-18T17:18:14Z</time></trkpt><trkpt lat="45.53449461520326" lon="3.1080890022298395"><ele>640.0</ele><time>2026-04-18T17:18:15Z</time></trkpt><trkpt lat="45.53460504857394" lon="3.1081549806388953"><ele>640.0</ele><time>2026-04-18T17:18:16Z</time></trkpt><trkpt lat="45.53471254255018" lon="3.1082184599938314"><ele>638.0</ele><time>2026-04-18T17:18:17Z</time></trkpt><trkpt lat="45.53482161517288" lon="3.108271734388927"><ele>636.0</ele><time>2026-04-18T17:18:18Z</time></trkpt><trkpt lat="45.53491744026238" lon="3.1083647153889418"><ele>634.0</ele><time>2026-04-18T17:18:19Z</time></trkpt><trkpt lat="45.53501677755009" lon="3.1084611072089166"><ele>632.0</ele><time>2026-04-18T17:18:20Z</time></trkpt><trkpt lat="45.535112658664616" lon="3.1085753619863365"><ele>632.0</ele><time>2026-04-18T17:18:21Z</time></trkpt><trkpt lat="45.53521189485384" lon="3.1086982587304806"><ele>632.0</ele><time>2026-04-18T17:18:22Z</time></trkpt><trkpt lat="45.53532016276306" lon="3.1088309062319093"><ele>632.0</ele><time>2026-04-18T17:18:23Z</time></trkpt><trkpt lat="45.53543025035134" lon="3.108967734055117"><ele>632.0</ele><time>2026-04-18T17:18:24Z</time></trkpt><trkpt lat="45.535546228657935" lon="3.109117043198628"><ele>629.5</ele><time>2026-04-18T17:18:25Z</time></trkpt><trkpt lat="45.53566252292554" lon="3.1092634171803732"><ele>627.0</ele><time>2026-04-18T17:18:26Z</time></trkpt><trkpt lat="45.53577220235887" lon="3.109400627806967"><ele>624.5</ele><time>2026-04-18T17:18:27Z</time></trkpt><trkpt lat="45.53588845517269" lon="3.109523229410689"><ele>622.0</ele><time>2026-04-18T17:18:28Z</time></trkpt><trkpt lat="45.53598956586885" lon="3.1096560060221057"><ele>622.0</ele><time>2026-04-18T17:18:28.999Z</time></trkpt><trkpt lat="45.53609528542919" lon="3.109784710381862"><ele>622.0</ele><time>2026-04-18T17:18:29.999Z</time></trkpt><trkpt lat="45.53620270863056" lon="3.1099122893551154"><ele>622.0</ele><time>2026-04-18T17:18:30.999Z</time></trkpt><trkpt lat="45.53632075463422" lon="3.1100542394899606"><ele>622.0</ele><time>2026-04-18T17:18:31.999Z</time></trkpt><trkpt lat="45.53643306008099" lon="3.110197545463305"><ele>620.5</ele><time>2026-04-18T17:18:32.999Z</time></trkpt><trkpt lat="45.53654293015517" lon="3.110337622786811"><ele>619.0</ele><time>2026-04-18T17:18:33.999Z</time></trkpt><trkpt lat="45.53663813435991" lon="3.1104645018022756"><ele>617.5</ele><time>2026-04-18T17:18:34.999Z</time></trkpt><trkpt lat="45.53674202519926" lon="3.110593029472249"><ele>616.0</ele><time>2026-04-18T17:18:35.999Z</time></trkpt><trkpt lat="45.536839326495986" lon="3.1107022452407103"><ele>613.5</ele><time>2026-04-18T17:18:36.999Z</time></trkpt><trkpt lat="45.536948186681116" lon="3.11078868407479"><ele>611.0</ele><time>2026-04-18T17:18:37.999Z</time></trkpt><trkpt lat="45.53707464354978" lon="3.110839714673162"><ele>608.5</ele><time>2026-04-18T17:18:38.999Z</time></trkpt><trkpt lat="45.537213295172684" lon="3.1108644090115245"><ele>606.0</ele><time>2026-04-18T17:18:39.999Z</time></trkpt><trkpt lat="45.53735277257551" lon="3.110869893367279"><ele>606.0</ele><time>2026-04-18T17:18:40.999Z</time></trkpt><trkpt lat="45.537481662878996" lon="3.110852686437498"><ele>606.0</ele><time>2026-04-18T17:18:41.999Z</time></trkpt><trkpt lat="45.5376052210673" lon="3.1108081293888037"><ele>606.0</ele><time>2026-04-18T17:18:42.999Z</time></trkpt><trkpt lat="45.53772316561015" lon="3.1107777145129885"><ele>606.0</ele><time>2026-04-18T17:18:43.999Z</time></trkpt><trkpt lat="45.53783305057391" lon="3.1107267422684184"><ele>605.2</ele><time>2026-04-18T17:18:44.999Z</time></trkpt><trkpt lat="45.53793212636647" lon="3.1107425827753055"><ele>604.4000000000001</ele><time>2026-04-18T17:18:45.999Z</time></trkpt><trkpt lat="45.53800842596241" lon="3.1107817129344983"><ele>603.6</ele><time>2026-04-18T17:18:46.999Z</time></trkpt><trkpt lat="45.53808018196022" lon="3.110836207277406"><ele>602.8000000000001</ele><time>2026-04-18T17:18:47.999Z</time></trkpt><trkpt lat="45.538113993955854" lon="3.1109649655525766"><ele>602.0</ele><time>2026-04-18T17:18:48.999Z</time></trkpt><trkpt lat="45.53811762967369" lon="3.1111076360491725"><ele>602.0</ele><time>2026-04-18T17:18:49.999Z</time></trkpt><trkpt lat="45.5380837399153" lon="3.11123837555854"><ele>602.0</ele><time>2026-04-18T17:18:50.999Z</time></trkpt><trkpt lat="45.53801843581003" lon="3.111317027869426"><ele>602.0</ele><time>2026-04-18T17:18:51.999Z</time></trkpt><trkpt lat="45.53794231599888" lon="3.1113239597615303"><ele>602.0</ele><time>2026-04-18T17:18:52.999Z</time></trkpt><trkpt lat="45.5378781062338" lon="3.1112671578258606"><ele>602.0</ele><time>2026-04-18T17:18:53.999Z</time></trkpt><trkpt lat="45.537810239798084" lon="3.1112474756466457"><ele>602.0</ele><time>2026-04-18T17:18:54.999Z</time></trkpt><trkpt lat="45.53773943006783" lon="3.1112238374809"><ele>602.6666666666666</ele><time>2026-04-18T17:18:55.999Z</time></trkpt><trkpt lat="45.537665109876166" lon="3.111228128100652"><ele>603.3333333333333</ele><time>2026-04-18T17:18:56.999Z</time></trkpt><trkpt lat="45.53758772712413" lon="3.1112693950645594"><ele>604.0</ele><time>2026-04-18T17:18:57.999Z</time></trkpt><trkpt lat="45.53752071521982" lon="3.1113404099728617"><ele>604.6666666666666</ele><time>2026-04-18T17:18:58.999Z</time></trkpt><trkpt lat="45.53745547162549" lon="3.111426078885075"><ele>605.3333333333334</ele><time>2026-04-18T17:18:59.999Z</time></trkpt><trkpt lat="45.537394042333936" lon="3.1114946023769607"><ele>606.0</ele><time>2026-04-18T17:19:00.999Z</time></trkpt><trkpt lat="45.53731920122475" lon="3.111536529873107"><ele>606.0</ele><time>2026-04-18T17:19:01.999Z</time></trkpt><trkpt lat="45.53723058635866" lon="3.1115342693391406"><ele>606.0</ele><time>2026-04-18T17:19:02.999Z</time></trkpt><trkpt lat="45.53713690817609" lon="3.1114740256046702"><ele>606.0</ele><time>2026-04-18T17:19:03.999Z</time></trkpt><trkpt lat="45.53703583184442" lon="3.1114527585905107"><ele>606.0</ele><time>2026-04-18T17:19:04.999Z</time></trkpt><trkpt lat="45.53694217944542" lon="3.1114372952716427"><ele>606.0</ele><time>2026-04-18T17:19:05.999Z</time></trkpt><trkpt lat="45.536857976641215" lon="3.111492384240057"><ele>604.1666666666666</ele><time>2026-04-18T17:19:06.999Z</time></trkpt><trkpt lat="45.53679696823162" lon="3.1116087012909923"><ele>602.3333333333334</ele><time>2026-04-18T17:19:07.999Z</time></trkpt><trkpt lat="45.53678428308553" lon="3.1117400184612927"><ele>600.5</ele><time>2026-04-18T17:19:08.999Z</time></trkpt><trkpt lat="45.53678642807847" lon="3.111874692778362"><ele>598.6666666666667</ele><time>2026-04-18T17:19:09.999Z</time></trkpt><trkpt lat="45.53679781014633" lon="3.1119829937587684"><ele>596.8333333333334</ele><time>2026-04-18T17:19:10.999Z</time></trkpt><trkpt lat="45.5368374588089" lon="3.1120691878233138"><ele>595.0</ele><time>2026-04-18T17:19:11.999Z</time></trkpt><trkpt lat="45.53690458148001" lon="3.1121205848094378"><ele>595.0</ele><time>2026-04-18T17:19:12.999Z</time></trkpt><trkpt lat="45.53698814426906" lon="3.1121436070725377"><ele>595.0</ele><time>2026-04-18T17:19:13.999Z</time></trkpt><trkpt lat="45.53706594898844" lon="3.1121817263564444"><ele>595.0</ele><time>2026-04-18T17:19:14.999Z</time></trkpt><trkpt lat="45.537159786767305" lon="3.112201518458348"><ele>595.0</ele><time>2026-04-18T17:19:15.999Z</time></trkpt><trkpt lat="45.5372564107137" lon="3.1122211681881704"><ele>595.0</ele><time>2026-04-18T17:19:16.999Z</time></trkpt><trkpt lat="45.537351444476414" lon="3.112246625446581"><ele>595.0</ele><time>2026-04-18T17:19:17.999Z</time></trkpt><trkpt lat="45.53744480946361" lon="3.1122798096312545"><ele>595.0</ele><time>2026-04-18T17:19:18.999Z</time></trkpt><trkpt lat="45.5375375685712" lon="3.1123256648769964"><ele>595.0</ele><time>2026-04-18T17:19:19.999Z</time></trkpt><trkpt lat="45.53763210246416" lon="3.1123999354872347"><ele>595.0</ele><time>2026-04-18T17:19:20.999Z</time></trkpt><trkpt lat="45.537724873513525" lon="3.1124946482102054"><ele>595.0</ele><time>2026-04-18T17:19:21.999Z</time></trkpt><trkpt lat="45.5378174763778" lon="3.1125998631897507"><ele>592.75</ele><time>2026-04-18T17:19:22.999Z</time></trkpt><trkpt lat="45.53790587915655" lon="3.112704438454365"><ele>590.5</ele><time>2026-04-18T17:19:23.999Z</time></trkpt><trkpt lat="45.53799900672448" lon="3.1128020223489514"><ele>588.25</ele><time>2026-04-18T17:19:24.999Z</time></trkpt><trkpt lat="45.53810184612416" lon="3.112891472857849"><ele>586.0</ele><time>2026-04-18T17:19:25.999Z</time></trkpt><trkpt lat="45.538211758558504" lon="3.112964489871597"><ele>586.0</ele><time>2026-04-18T17:19:26.999Z</time></trkpt><trkpt lat="45.53829264208008" lon="3.1130881123051757"><ele>586.0</ele><time>2026-04-18T17:19:27.999Z</time></trkpt><trkpt lat="45.53836492131522" lon="3.113210419318923"><ele>586.0</ele><time>2026-04-18T17:19:28.999Z</time></trkpt><trkpt lat="45.53845381684251" lon="3.1133213305684375"><ele>586.0</ele><time>2026-04-18T17:19:29.999Z</time></trkpt><trkpt lat="45.53853500546691" lon="3.1134381200170638"><ele>585.25</ele><time>2026-04-18T17:19:30.999Z</time></trkpt><trkpt lat="45.53863585389867" lon="3.1135398478314498"><ele>584.5</ele><time>2026-04-18T17:19:31.999Z</time></trkpt><trkpt lat="45.538759584234896" lon="3.1136088597875555"><ele>583.75</ele><time>2026-04-18T17:19:32.999Z</time></trkpt><trkpt lat="45.5388849112599" lon="3.113654309437804"><ele>583.0</ele><time>2026-04-18T17:19:33.999Z</time></trkpt><trkpt lat="45.53899816785632" lon="3.11372198016795"><ele>580.5</ele><time>2026-04-18T17:19:34.999Z</time></trkpt><trkpt lat="45.53910836638283" lon="3.113787051796512"><ele>578.0</ele><time>2026-04-18T17:19:35.999Z</time></trkpt><trkpt lat="45.53920929797455" lon="3.1138814083388833"><ele>575.5</ele><time>2026-04-18T17:19:36.999Z</time></trkpt><trkpt lat="45.539318325285905" lon="3.1139954173697446"><ele>573.0</ele><time>2026-04-18T17:19:37.999Z</time></trkpt><trkpt lat="45.53944323131495" lon="3.114110816485713"><ele>570.0</ele><time>2026-04-18T17:19:38.999Z</time></trkpt><trkpt lat="45.53957109424569" lon="3.1142481127824357"><ele>567.0</ele><time>2026-04-18T17:19:39.999Z</time></trkpt><trkpt lat="45.53968170825568" lon="3.1143837460459896"><ele>564.0</ele><time>2026-04-18T17:19:40.999Z</time></trkpt><trkpt lat="45.539778656606344" lon="3.114522754579813"><ele>561.0</ele><time>2026-04-18T17:19:41.999Z</time></trkpt><trkpt lat="45.539885532120074" lon="3.1146462703522313"><ele>561.0</ele><time>2026-04-18T17:19:42.999Z</time></trkpt><trkpt lat="45.539998467337504" lon="3.114741119559759"><ele>561.0</ele><time>2026-04-18T17:19:44Z</time></trkpt><trkpt lat="45.540116932216556" lon="3.114821158638463"><ele>561.0</ele><time>2026-04-18T17:19:45Z</time></trkpt><trkpt lat="45.54025084503116" lon="3.114858678955996"><ele>561.0</ele><time>2026-04-18T17:19:46Z</time></trkpt><trkpt lat="45.540404054458556" lon="3.1148708260343825"><ele>560.25</ele><time>2026-04-18T17:19:47Z</time></trkpt><trkpt lat="45.54055786848672" lon="3.114909000940042"><ele>559.5</ele><time>2026-04-18T17:19:48Z</time></trkpt><trkpt lat="45.54068596242376" lon="3.1149585763302414"><ele>558.75</ele><time>2026-04-18T17:19:49Z</time></trkpt><trkpt lat="45.54082230326797" lon="3.1149976814279734"><ele>558.0</ele><time>2026-04-18T17:19:50Z</time></trkpt><trkpt lat="45.540947436362636" lon="3.11506534413072"><ele>558.0</ele><time>2026-04-18T17:19:51Z</time></trkpt><trkpt lat="45.541073161084974" lon="3.1151026438741503"><ele>558.0</ele><time>2026-04-18T17:19:52Z</time></trkpt><trkpt lat="45.54119835393002" lon="3.115087344083187"><ele>558.0</ele><time>2026-04-18T17:19:53Z</time></trkpt><trkpt lat="45.5413206663894" lon="3.1150124779850636"><ele>558.0</ele><time>2026-04-18T17:19:54Z</time></trkpt><trkpt lat="45.54142737024829" lon="3.1149178274142995"><ele>556.25</ele><time>2026-04-18T17:19:55Z</time></trkpt><trkpt lat="45.54153965327206" lon="3.1148597173703063"><ele>554.5</ele><time>2026-04-18T17:19:56Z</time></trkpt><trkpt lat="45.54165014800973" lon="3.1148421999017994"><ele>552.75</ele><time>2026-04-18T17:19:57Z</time></trkpt><trkpt lat="45.54175301821396" lon="3.114927914884084"><ele>551.0</ele><time>2026-04-18T17:19:58Z</time></trkpt><trkpt lat="45.54185755818176" lon="3.114991921230487"><ele>550.6</ele><time>2026-04-18T17:19:58.999Z</time></trkpt><trkpt lat="45.54195890614456" lon="3.115032131999298"><ele>550.2</ele><time>2026-04-18T17:19:59.999Z</time></trkpt><trkpt lat="45.54206071114446" lon="3.1150734640548405"><ele>549.8</ele><time>2026-04-18T17:20:00.999Z</time></trkpt><trkpt lat="45.5421680798979" lon="3.1150825101826745"><ele>549.4</ele><time>2026-04-18T17:20:01.999Z</time></trkpt><trkpt lat="45.542272801726064" lon="3.115077914363461"><ele>549.0</ele><time>2026-04-18T17:20:02.998Z</time></trkpt><trkpt lat="45.54237319041235" lon="3.115067184147414"><ele>548.0</ele><time>2026-04-18T17:20:03.998Z</time></trkpt><trkpt lat="45.5424767715481" lon="3.115066818344863"><ele>547.0</ele><time>2026-04-18T17:20:04.998Z</time></trkpt><trkpt lat="45.542578000628914" lon="3.1150628265880207"><ele>546.0</ele><time>2026-04-18T17:20:05.998Z</time></trkpt><trkpt lat="45.54267892276212" lon="3.115054912344503"><ele>545.0</ele><time>2026-04-18T17:20:06.997Z</time></trkpt><trkpt lat="45.54278210208537" lon="3.115064349031484"><ele>544.0</ele><time>2026-04-18T17:20:07.997Z</time></trkpt><trkpt lat="45.54288630519905" lon="3.1150699285456485"><ele>542.8</ele><time>2026-04-18T17:20:08.997Z</time></trkpt><trkpt lat="45.54298715294522" lon="3.1150899693885203"><ele>541.5999999999999</ele><time>2026-04-18T17:20:09.997Z</time></trkpt><trkpt lat="45.54309255403725" lon="3.115120807864072"><ele>540.4</ele><time>2026-04-18T17:20:10.997Z</time></trkpt><trkpt lat="45.543200770545276" lon="3.115160619588734"><ele>539.1999999999999</ele><time>2026-04-18T17:20:11.997Z</time></trkpt><trkpt lat="45.54330774390319" lon="3.115210343028415"><ele>538.0</ele><time>2026-04-18T17:20:12.997Z</time></trkpt><trkpt lat="45.54340999713684" lon="3.1152626693243386"><ele>538.0</ele><time>2026-04-18T17:20:13.996Z</time></trkpt><trkpt lat="45.54350718422448" lon="3.115332050569918"><ele>538.0</ele><time>2026-04-18T17:20:14.996Z</time></trkpt><trkpt lat="45.54358462728251" lon="3.1154551887487405"><ele>538.0</ele><time>2026-04-18T17:20:15.996Z</time></trkpt><trkpt lat="45.543667616429765" lon="3.115586287778351"><ele>538.0</ele><time>2026-04-18T17:20:16.996Z</time></trkpt><trkpt lat="45.543757862063586" lon="3.115706056264778"><ele>536.5</ele><time>2026-04-18T17:20:17.996Z</time></trkpt><trkpt lat="45.54383919384049" lon="3.115833606467656"><ele>535.0</ele><time>2026-04-18T17:20:18.996Z</time></trkpt><trkpt lat="45.54393521541213" lon="3.1159339725639876"><ele>533.5</ele><time>2026-04-18T17:20:19.996Z</time></trkpt><trkpt lat="45.54404080039689" lon="3.116009184470354"><ele>532.0</ele><time>2026-04-18T17:20:20.996Z</time></trkpt><trkpt lat="45.54415030046996" lon="3.116065116183067"><ele>532.0</ele><time>2026-04-18T17:20:21.996Z</time></trkpt><trkpt lat="45.54424485423121" lon="3.1161548232878324"><ele>532.0</ele><time>2026-04-18T17:20:22.996Z</time></trkpt><trkpt lat="45.544324865670426" lon="3.116257578351533"><ele>532.0</ele><time>2026-04-18T17:20:23.996Z</time></trkpt><trkpt lat="45.544412556707336" lon="3.1163797296340516"><ele>532.0</ele><time>2026-04-18T17:20:24.995Z</time></trkpt><trkpt lat="45.544512022964035" lon="3.1164932404561365"><ele>530.25</ele><time>2026-04-18T17:20:25.995Z</time></trkpt><trkpt lat="45.544603278785424" lon="3.116624156198854"><ele>528.5</ele><time>2026-04-18T17:20:26.995Z</time></trkpt><trkpt lat="45.54469932250129" lon="3.1167469332355524"><ele>526.75</ele><time>2026-04-18T17:20:27.995Z</time></trkpt><trkpt lat="45.544797126188875" lon="3.1168823476677874"><ele>525.0</ele><time>2026-04-18T17:20:28.995Z</time></trkpt><trkpt lat="45.544883282311034" lon="3.117051865449884"><ele>525.0</ele><time>2026-04-18T17:20:29.995Z</time></trkpt><trkpt lat="45.54508528603614" lon="3.1173434742986337"><ele>525.0</ele><time>2026-04-18T17:20:31.995Z</time></trkpt><trkpt lat="45.54518694474625" lon="3.1174641806050998"><ele>525.0</ele><time>2026-04-18T17:20:32.995Z</time></trkpt><trkpt lat="45.54530023635905" lon="3.1175672523656344"><ele>523.25</ele><time>2026-04-18T17:20:33.995Z</time></trkpt><trkpt lat="45.54542278120942" lon="3.117641387834332"><ele>521.5</ele><time>2026-04-18T17:20:34.995Z</time></trkpt><trkpt lat="45.545548684316934" lon="3.1177131472765853"><ele>519.75</ele><time>2026-04-18T17:20:35.995Z</time></trkpt><trkpt lat="45.54565653143442" lon="3.117848617179349"><ele>518.0</ele><time>2026-04-18T17:20:36.995Z</time></trkpt><trkpt lat="45.54577297599279" lon="3.118006470136691"><ele>518.0</ele><time>2026-04-18T17:20:37.995Z</time></trkpt><trkpt lat="45.545897695576414" lon="3.118181308335283"><ele>518.0</ele><time>2026-04-18T17:20:38.995Z</time></trkpt><trkpt lat="45.546037385934355" lon="3.118377165509729"><ele>518.0</ele><time>2026-04-18T17:20:39.995Z</time></trkpt><trkpt lat="45.54618821147306" lon="3.1185902515145645"><ele>517.0</ele><time>2026-04-18T17:20:40.995Z</time></trkpt><trkpt lat="45.546349722878375" lon="3.1188184347853807"><ele>516.0</ele><time>2026-04-18T17:20:41.995Z</time></trkpt><trkpt lat="45.54649938469429" lon="3.119025328799241"><ele>515.0</ele><time>2026-04-18T17:20:42.995Z</time></trkpt><trkpt lat="45.54664129258672" lon="3.1192172117564376"><ele>512.0</ele><time>2026-04-18T17:20:43.995Z</time></trkpt><trkpt lat="45.546775550196045" lon="3.119389432559147"><ele>509.0</ele><time>2026-04-18T17:20:44.995Z</time></trkpt><trkpt lat="45.546910087075176" lon="3.119545541157408"><ele>506.0</ele><time>2026-04-18T17:20:45.995Z</time></trkpt><trkpt lat="45.54704533436652" lon="3.1196909511416946"><ele>506.0</ele><time>2026-04-18T17:20:46.995Z</time></trkpt><trkpt lat="45.547167797970125" lon="3.1198209456346646"><ele>506.0</ele><time>2026-04-18T17:20:47.995Z</time></trkpt><trkpt lat="45.5472788377895" lon="3.1199544443272877"><ele>506.0</ele><time>2026-04-18T17:20:48.995Z</time></trkpt><trkpt lat="45.547371926500475" lon="3.120064968406275"><ele>506.0</ele><time>2026-04-18T17:20:49.995Z</time></trkpt><trkpt lat="45.547457685403614" lon="3.1201503689681065"><ele>504.0</ele><time>2026-04-18T17:20:50.995Z</time></trkpt><trkpt lat="45.54752066801442" lon="3.1202443980958625"><ele>502.0</ele><time>2026-04-18T17:20:51.995Z</time></trkpt><trkpt lat="45.54757560930875" lon="3.1203113688827693"><ele>500.0</ele><time>2026-04-18T17:20:52.995Z</time></trkpt><trkpt lat="45.54775782296936" lon="3.12010391163172"><ele>498.0</ele><time>2026-04-18T17:20:54.995Z</time></trkpt><trkpt lat="45.54779853358387" lon="3.1199999306897106"><ele>498.59999999999997</ele><time>2026-04-18T17:20:55.995Z</time></trkpt><trkpt lat="45.54785212798282" lon="3.119899420702678"><ele>499.19999999999993</ele><time>2026-04-18T17:20:56.995Z</time></trkpt><trkpt lat="45.54793711064801" lon="3.119845781879606"><ele>499.8</ele><time>2026-04-18T17:20:57.995Z</time></trkpt><trkpt lat="45.54802564069786" lon="3.119806220162517"><ele>500.4</ele><time>2026-04-18T17:20:58.995Z</time></trkpt><trkpt lat="45.54812363395915" lon="3.119791862817915"><ele>501.0</ele><time>2026-04-18T17:20:59.995Z</time></trkpt><trkpt lat="45.54822545794203" lon="3.11976145516123"><ele>501.0</ele><time>2026-04-18T17:21:00.995Z</time></trkpt><trkpt lat="45.54832942360304" lon="3.11972780957879"><ele>501.0</ele><time>2026-04-18T17:21:01.994Z</time></trkpt><trkpt lat="45.54843288065049" lon="3.1196700680193965"><ele>501.0</ele><time>2026-04-18T17:21:02.994Z</time></trkpt><trkpt lat="45.54854039929033" lon="3.119591910385212"><ele>501.0</ele><time>2026-04-18T17:21:03.994Z</time></trkpt><trkpt lat="45.54864856711713" lon="3.1194999190705732"><ele>499.25</ele><time>2026-04-18T17:21:04.994Z</time></trkpt><trkpt lat="45.548747406638334" lon="3.1193808758810477"><ele>497.5</ele><time>2026-04-18T17:21:05.994Z</time></trkpt><trkpt lat="45.54884288875694" lon="3.119244811166844"><ele>495.75</ele><time>2026-04-18T17:21:06.994Z</time></trkpt><trkpt lat="45.54893629242085" lon="3.119102033348803"><ele>494.0</ele><time>2026-04-18T17:21:07.994Z</time></trkpt><trkpt lat="45.54902649712246" lon="3.118971242427092"><ele>494.0</ele><time>2026-04-18T17:21:08.994Z</time></trkpt><trkpt lat="45.549110135502204" lon="3.1188499769345714"><ele>494.0</ele><time>2026-04-18T17:21:09.994Z</time></trkpt><trkpt lat="45.54919108142235" lon="3.1187369522068353"><ele>494.0</ele><time>2026-04-18T17:21:10.994Z</time></trkpt><trkpt lat="45.54926955588108" lon="3.1186309926690825"><ele>494.0</ele><time>2026-04-18T17:21:11.994Z</time></trkpt><trkpt lat="45.54934486056392" lon="3.1185259528349873"><ele>494.0</ele><time>2026-04-18T17:21:12.994Z</time></trkpt><trkpt lat="45.549410716733846" lon="3.1184296414375456"><ele>493.99999999999994</ele><time>2026-04-18T17:21:13.994Z</time></trkpt><trkpt lat="45.549475995575285" lon="3.11832992229046"><ele>494.0</ele><time>2026-04-18T17:21:14.994Z</time></trkpt><trkpt lat="45.549532748559706" lon="3.1182419592386132"><ele>494.0</ele><time>2026-04-18T17:21:15.994Z</time></trkpt><trkpt lat="45.5495883390804" lon="3.1181574818953"><ele>494.0</ele><time>2026-04-18T17:21:16.994Z</time></trkpt><trkpt lat="45.54964387111965" lon="3.1180822694239057"><ele>493.99999999999994</ele><time>2026-04-18T17:21:17.994Z</time></trkpt><trkpt lat="45.549716067483665" lon="3.118027674485044"><ele>494.0</ele><time>2026-04-18T17:21:19.994Z</time></trkpt><trkpt lat="45.54981642142319" lon="3.118121668639089"><ele>493.0</ele><time>2026-04-18T17:21:23.994Z</time></trkpt><trkpt lat="45.54985474211556" lon="3.1182266009129496"><ele>492.0</ele><time>2026-04-18T17:21:24.994Z</time></trkpt><trkpt lat="45.54990091714177" lon="3.1183177469438146"><ele>491.0</ele><time>2026-04-18T17:21:25.994Z</time></trkpt><trkpt lat="45.549959783687456" lon="3.1184153404616715"><ele>490.0</ele><time>2026-04-18T17:21:26.994Z</time></trkpt><trkpt lat="45.550027289981465" lon="3.11853074460578"><ele>489.0</ele><time>2026-04-18T17:21:27.994Z</time></trkpt><trkpt lat="45.55010644383972" lon="3.1186614410981957"><ele>487.75</ele><time>2026-04-18T17:21:28.994Z</time></trkpt><trkpt lat="45.550185489080704" lon="3.1188019037326495"><ele>486.5</ele><time>2026-04-18T17:21:29.994Z</time></trkpt><trkpt lat="45.55026565148229" lon="3.118931273541339"><ele>485.25</ele><time>2026-04-18T17:21:30.994Z</time></trkpt><trkpt lat="45.5503527929516" lon="3.1190672588374864"><ele>484.0</ele><time>2026-04-18T17:21:31.994Z</time></trkpt><trkpt lat="45.55044391737098" lon="3.119202742953144"><ele>484.0</ele><time>2026-04-18T17:21:32.994Z</time></trkpt><trkpt lat="45.55054579235467" lon="3.119346322027321"><ele>484.0</ele><time>2026-04-18T17:21:33.994Z</time></trkpt><trkpt lat="45.55065792976258" lon="3.119487372055708"><ele>484.0</ele><time>2026-04-18T17:21:34.994Z</time></trkpt><trkpt lat="45.550776986567186" lon="3.1196215960154974"><ele>484.0</ele><time>2026-04-18T17:21:35.994Z</time></trkpt><trkpt lat="45.55091024474536" lon="3.119753702106062"><ele>484.0</ele><time>2026-04-18T17:21:36.994Z</time></trkpt><trkpt lat="45.551051934232085" lon="3.119876578247931"><ele>484.0</ele><time>2026-04-18T17:21:37.994Z</time></trkpt><trkpt lat="45.551187512079224" lon="3.1199783508020666"><ele>484.0</ele><time>2026-04-18T17:21:38.994Z</time></trkpt><trkpt lat="45.55132813884734" lon="3.1200734968305333"><ele>484.6666666666667</ele><time>2026-04-18T17:21:39.994Z</time></trkpt><trkpt lat="45.551474631511795" lon="3.120171741819957"><ele>485.33333333333337</ele><time>2026-04-18T17:21:40.994Z</time></trkpt><trkpt lat="45.55162432029864" lon="3.120274614611158"><ele>486.0</ele><time>2026-04-18T17:21:41.994Z</time></trkpt><trkpt lat="45.55176251018209" lon="3.1203854907811155"><ele>486.0</ele><time>2026-04-18T17:21:42.994Z</time></trkpt><trkpt lat="45.55188701054907" lon="3.12051740002772"><ele>486.0</ele><time>2026-04-18T17:21:43.994Z</time></trkpt><trkpt lat="45.552001775144596" lon="3.120676419612443"><ele>486.0</ele><time>2026-04-18T17:21:44.994Z</time></trkpt><trkpt lat="45.55208405486329" lon="3.120865600816048"><ele>490.33333333333337</ele><time>2026-04-18T17:21:45.994Z</time></trkpt><trkpt lat="45.552154568294654" lon="3.121056594216015"><ele>494.6666666666667</ele><time>2026-04-18T17:21:46.994Z</time></trkpt><trkpt lat="45.55220796989662" lon="3.121265224643054"><ele>499.0</ele><time>2026-04-18T17:21:47.994Z</time></trkpt><trkpt lat="45.552242109808496" lon="3.1214827216630168"><ele>497.6666666666667</ele><time>2026-04-18T17:21:48.994Z</time></trkpt><trkpt lat="45.55226990153494" lon="3.1217194477196877"><ele>496.33333333333337</ele><time>2026-04-18T17:21:49.995Z</time></trkpt><trkpt lat="45.552272003765964" lon="3.1219637706728562"><ele>495.0</ele><time>2026-04-18T17:21:50.995Z</time></trkpt><trkpt lat="45.55227516781544" lon="3.122194321832143"><ele>494.0</ele><time>2026-04-18T17:21:51.995Z</time></trkpt><trkpt lat="45.55228305002625" lon="3.122430444615919"><ele>493.0</ele><time>2026-04-18T17:21:52.995Z</time></trkpt><trkpt lat="45.552298181481206" lon="3.122658367242367"><ele>492.0</ele><time>2026-04-18T17:21:53.996Z</time></trkpt><trkpt lat="45.55231571014489" lon="3.1228903392167213"><ele>492.0</ele><time>2026-04-18T17:21:54.996Z</time></trkpt><trkpt lat="45.55233968367082" lon="3.1231239330998832"><ele>492.0</ele><time>2026-04-18T17:21:55.996Z</time></trkpt><trkpt lat="45.55237320039709" lon="3.123369363433679"><ele>492.0</ele><time>2026-04-18T17:21:56.996Z</time></trkpt><trkpt lat="45.55241652417137" lon="3.1236113326375974"><ele>490.33333333333337</ele><time>2026-04-18T17:21:57.997Z</time></trkpt><trkpt lat="45.552461888668546" lon="3.1238693682708782"><ele>488.6666666666667</ele><time>2026-04-18T17:21:58.997Z</time></trkpt><trkpt lat="45.55250947219017" lon="3.124130992124608"><ele>487.0</ele><time>2026-04-18T17:21:59.997Z</time></trkpt><trkpt lat="45.552555715784074" lon="3.12440349908332"><ele>485.0</ele><time>2026-04-18T17:22:00.997Z</time></trkpt><trkpt lat="45.55260687657702" lon="3.1246912049146767"><ele>483.0</ele><time>2026-04-18T17:22:01.997Z</time></trkpt><trkpt lat="45.552663275234366" lon="3.124965775563035"><ele>481.0</ele><time>2026-04-18T17:22:02.998Z</time></trkpt><trkpt lat="45.55271974831177" lon="3.1252336767527713"><ele>480.0</ele><time>2026-04-18T17:22:03.998Z</time></trkpt><trkpt lat="45.55277453153252" lon="3.1255028355196797"><ele>479.0</ele><time>2026-04-18T17:22:04.998Z</time></trkpt><trkpt lat="45.55282684277572" lon="3.1257757820231706"><ele>478.0</ele><time>2026-04-18T17:22:05.998Z</time></trkpt><trkpt lat="45.55287705635383" lon="3.126029449983782"><ele>478.6666666666667</ele><time>2026-04-18T17:22:06.998Z</time></trkpt><trkpt lat="45.55292714614184" lon="3.126283059182347"><ele>479.33333333333337</ele><time>2026-04-18T17:22:07.998Z</time></trkpt><trkpt lat="45.55297516581376" lon="3.126530532000231"><ele>480.0</ele><time>2026-04-18T17:22:08.998Z</time></trkpt><trkpt lat="45.553023437686775" lon="3.1267804585912335"><ele>480.0</ele><time>2026-04-18T17:22:09.998Z</time></trkpt><trkpt lat="45.553071285161444" lon="3.1270361610303663"><ele>480.0</ele><time>2026-04-18T17:22:10.998Z</time></trkpt><trkpt lat="45.553123855920624" lon="3.1272980757830973"><ele>480.0</ele><time>2026-04-18T17:22:11.999Z</time></trkpt><trkpt lat="45.55317554020596" lon="3.1275562662421215"><ele>479.0</ele><time>2026-04-18T17:22:12.999Z</time></trkpt><trkpt lat="45.55323113746132" lon="3.1278132522514763"><ele>478.0</ele><time>2026-04-18T17:22:13.999Z</time></trkpt><trkpt lat="45.55327984633573" lon="3.128057537420433"><ele>477.0</ele><time>2026-04-18T17:22:14.999Z</time></trkpt><trkpt lat="45.55332124821069" lon="3.128299036554709"><ele>476.33333333333337</ele><time>2026-04-18T17:22:15.999Z</time></trkpt><trkpt lat="45.55336140196506" lon="3.128536013039862"><ele>475.6666666666667</ele><time>2026-04-18T17:22:16.999Z</time></trkpt><trkpt lat="45.553401298215746" lon="3.1287809754853706"><ele>475.0</ele><time>2026-04-18T17:22:17.999Z</time></trkpt><trkpt lat="45.55342678461001" lon="3.129036813984997"><ele>474.6666666666667</ele><time>2026-04-18T17:22:18.999Z</time></trkpt><trkpt lat="45.55344085036509" lon="3.129295292404298"><ele>474.33333333333337</ele><time>2026-04-18T17:22:19.999Z</time></trkpt><trkpt lat="45.55344887841504" lon="3.129564142781228"><ele>474.0</ele><time>2026-04-18T17:22:20.999Z</time></trkpt><trkpt lat="45.553457274357285" lon="3.129812268715423"><ele>473.66666666666663</ele><time>2026-04-18T17:22:21.999Z</time></trkpt><trkpt lat="45.5534677301703" lon="3.130051870664362"><ele>473.3333333333333</ele><time>2026-04-18T17:22:22.999Z</time></trkpt><trkpt lat="45.55347892115498" lon="3.130289749547817"><ele>473.0</ele><time>2026-04-18T17:22:23.999Z</time></trkpt><trkpt lat="45.55349315293267" lon="3.1305275587374712"><ele>472.66666666666663</ele><time>2026-04-18T17:22:24.999Z</time></trkpt><trkpt lat="45.55351867629994" lon="3.130759695758756"><ele>472.33333333333337</ele><time>2026-04-18T17:22:25.999Z</time></trkpt><trkpt lat="45.55355532702604" lon="3.1310067704104734"><ele>472.0</ele><time>2026-04-18T17:22:26.999Z</time></trkpt><trkpt lat="45.55359576875902" lon="3.1312466342466196"><ele>472.0</ele><time>2026-04-18T17:22:27.999Z</time></trkpt><trkpt lat="45.55363669744504" lon="3.1314930325178136"><ele>472.0</ele><time>2026-04-18T17:22:28.999Z</time></trkpt><trkpt lat="45.55367605676866" lon="3.1317459133148"><ele>472.0</ele><time>2026-04-18T17:22:29.999Z</time></trkpt><trkpt lat="45.55371762688945" lon="3.132000989283287"><ele>473.33333333333337</ele><time>2026-04-18T17:22:30.999Z</time></trkpt><trkpt lat="45.55375144640878" lon="3.132255571497406"><ele>474.66666666666663</ele><time>2026-04-18T17:22:31.999Z</time></trkpt><trkpt lat="45.55378313441399" lon="3.132522257838394"><ele>476.0</ele><time>2026-04-18T17:22:32.999Z</time></trkpt><trkpt lat="45.55380659527227" lon="3.1327738058523154"><ele>476.0</ele><time>2026-04-18T17:22:33.999Z</time></trkpt><trkpt lat="45.55382994422273" lon="3.1330074351117836"><ele>476.0</ele><time>2026-04-18T17:22:34.999Z</time></trkpt><trkpt lat="45.55384932234913" lon="3.133213244205331"><ele>476.0</ele><time>2026-04-18T17:22:35.999Z</time></trkpt><trkpt lat="45.55387053766126" lon="3.1334210433065524"><ele>475.75</ele><time>2026-04-18T17:22:36.999Z</time></trkpt><trkpt lat="45.553893225902634" lon="3.1336139713554356"><ele>475.5</ele><time>2026-04-18T17:22:37.999Z</time></trkpt><trkpt lat="45.55391541921394" lon="3.1338117024306356"><ele>475.25</ele><time>2026-04-18T17:22:38.999Z</time></trkpt><trkpt lat="45.55393436110638" lon="3.1340237077898396"><ele>475.0</ele><time>2026-04-18T17:22:39.999Z</time></trkpt><trkpt lat="45.55395088718353" lon="3.1342395327025265"><ele>475.0</ele><time>2026-04-18T17:22:40.999Z</time></trkpt><trkpt lat="45.553970618610315" lon="3.1344644283862735"><ele>475.0</ele><time>2026-04-18T17:22:41.999Z</time></trkpt><trkpt lat="45.55399700225852" lon="3.134700670651482"><ele>475.0</ele><time>2026-04-18T17:22:42.999Z</time></trkpt><trkpt lat="45.55402411192434" lon="3.1349418683841854"><ele>475.0</ele><time>2026-04-18T17:22:43.999Z</time></trkpt><trkpt lat="45.55404885149137" lon="3.135191264992543"><ele>475.0</ele><time>2026-04-18T17:22:44.999Z</time></trkpt><trkpt lat="45.554070250088934" lon="3.1354369948512213"><ele>475.0</ele><time>2026-04-18T17:22:45.999Z</time></trkpt><trkpt lat="45.55408268511815" lon="3.1356702178628297"><ele>474.6666666666667</ele><time>2026-04-18T17:22:46.999Z</time></trkpt><trkpt lat="45.554087609899874" lon="3.135908684455041"><ele>474.33333333333337</ele><time>2026-04-18T17:22:47.999Z</time></trkpt><trkpt lat="45.55407572402142" lon="3.1361495938408375"><ele>474.0</ele><time>2026-04-18T17:22:48.999Z</time></trkpt><trkpt lat="45.55405659485049" lon="3.136380395078962"><ele>474.0</ele><time>2026-04-18T17:22:49.999Z</time></trkpt><trkpt lat="45.554031470681224" lon="3.1366244495134836"><ele>474.0</ele><time>2026-04-18T17:22:50.999Z</time></trkpt><trkpt lat="45.55400750400968" lon="3.13684860325161"><ele>474.0</ele><time>2026-04-18T17:22:51.999Z</time></trkpt><trkpt lat="45.55398349426451" lon="3.137069968807024"><ele>474.0</ele><time>2026-04-18T17:22:52.999Z</time></trkpt><trkpt lat="45.553956617004765" lon="3.1372880146815723"><ele>474.0</ele><time>2026-04-18T17:22:53.999Z</time></trkpt><trkpt lat="45.55393107707691" lon="3.137503772421156"><ele>474.0</ele><time>2026-04-18T17:22:54.999Z</time></trkpt><trkpt lat="45.55390256029067" lon="3.1377287751867007"><ele>473.0</ele><time>2026-04-18T17:22:55.999Z</time></trkpt><trkpt lat="45.553872982069144" lon="3.137956058592394"><ele>472.0</ele><time>2026-04-18T17:22:56.999Z</time></trkpt><trkpt lat="45.553841025618546" lon="3.1381900946504815"><ele>471.0</ele><time>2026-04-18T17:22:57.999Z</time></trkpt><trkpt lat="45.553808007116835" lon="3.138428316377137"><ele>471.0</ele><time>2026-04-18T17:22:58.999Z</time></trkpt><trkpt lat="45.553775744478244" lon="3.1386803033373507"><ele>471.0</ele><time>2026-04-18T17:22:59.999Z</time></trkpt><trkpt lat="45.55374352685968" lon="3.1389350021811833"><ele>471.0</ele><time>2026-04-18T17:23:00.999Z</time></trkpt><trkpt lat="45.55371197544756" lon="3.13919748550162"><ele>470.33333333333337</ele><time>2026-04-18T17:23:01.999Z</time></trkpt><trkpt lat="45.55366315615055" lon="3.1394677119875958"><ele>469.6666666666667</ele><time>2026-04-18T17:23:02.999Z</time></trkpt><trkpt lat="45.55364923494185" lon="3.139749866235051"><ele>469.0</ele><time>2026-04-18T17:23:03.999Z</time></trkpt><trkpt lat="45.553618557071275" lon="3.1400178981718474"><ele>468.33333333333337</ele><time>2026-04-18T17:23:04.999Z</time></trkpt><trkpt lat="45.55359570876494" lon="3.140269970636951"><ele>467.66666666666663</ele><time>2026-04-18T17:23:05.999Z</time></trkpt><trkpt lat="45.55357208571542" lon="3.1405249127641257"><ele>467.0</ele><time>2026-04-18T17:23:06.999Z</time></trkpt><trkpt lat="45.55355469924137" lon="3.1407774883617856"><ele>466.66666666666663</ele><time>2026-04-18T17:23:07.999Z</time></trkpt><trkpt lat="45.553542790891555" lon="3.1410286530001694"><ele>466.33333333333337</ele><time>2026-04-18T17:23:08.999Z</time></trkpt><trkpt lat="45.55352928235495" lon="3.141265970180177"><ele>466.0</ele><time>2026-04-18T17:23:09.999Z</time></trkpt><trkpt lat="45.55351606703294" lon="3.141497744840868"><ele>465.33333333333337</ele><time>2026-04-18T17:23:10.999Z</time></trkpt><trkpt lat="45.5535003395882" lon="3.141713671912979"><ele>464.66666666666663</ele><time>2026-04-18T17:23:11.999Z</time></trkpt><trkpt lat="45.55348676499293" lon="3.1419267476003543"><ele>464.0</ele><time>2026-04-18T17:23:12.999Z</time></trkpt><trkpt lat="45.55347139952802" lon="3.142140596676707"><ele>464.0</ele><time>2026-04-18T17:23:13.999Z</time></trkpt><trkpt lat="45.55345786037485" lon="3.142350313084386"><ele>464.0</ele><time>2026-04-18T17:23:14.999Z</time></trkpt><trkpt lat="45.55344652922343" lon="3.1425471264283797"><ele>464.0</ele><time>2026-04-18T17:23:15.999Z</time></trkpt><trkpt lat="45.553433887358324" lon="3.142743791366747"><ele>464.0</ele><time>2026-04-18T17:23:16.999Z</time></trkpt><trkpt lat="45.553417991577064" lon="3.1429501649723006"><ele>463.75</ele><time>2026-04-18T17:23:17.999Z</time></trkpt><trkpt lat="45.553400783072505" lon="3.143157247938959"><ele>463.5</ele><time>2026-04-18T17:23:18.999Z</time></trkpt><trkpt lat="45.55338506679064" lon="3.1433484991671365"><ele>463.25</ele><time>2026-04-18T17:23:19.999Z</time></trkpt><trkpt lat="45.55336591027331" lon="3.143540534759428"><ele>463.0</ele><time>2026-04-18T17:23:20.999Z</time></trkpt><trkpt lat="45.55334063375642" lon="3.143741168941421"><ele>462.33333333333337</ele><time>2026-04-18T17:23:21.999Z</time></trkpt><trkpt lat="45.553282778549935" lon="3.143934006263981"><ele>461.66666666666663</ele><time>2026-04-18T17:23:22.999Z</time></trkpt><trkpt lat="45.553222478703155" lon="3.1441352304878207"><ele>461.0</ele><time>2026-04-18T17:23:23.999Z</time></trkpt><trkpt lat="45.55316532883121" lon="3.144338661922305"><ele>460.66666666666663</ele><time>2026-04-18T17:23:24.999Z</time></trkpt><trkpt lat="45.55307551977652" lon="3.1445271542652886"><ele>460.33333333333337</ele><time>2026-04-18T17:23:25.999Z</time></trkpt><trkpt lat="45.55297980272149" lon="3.1447181731552476"><ele>460.0</ele><time>2026-04-18T17:23:26.999Z</time></trkpt><trkpt lat="45.552867360847166" lon="3.144910292470291"><ele>460.0</ele><time>2026-04-18T17:23:27.999Z</time></trkpt><trkpt lat="45.55275230320346" lon="3.145088518708194"><ele>460.0</ele><time>2026-04-18T17:23:28.999Z</time></trkpt><trkpt lat="45.55263095714297" lon="3.145276907792854"><ele>460.0</ele><time>2026-04-18T17:23:29.999Z</time></trkpt><trkpt lat="45.552507853926606" lon="3.14546884138797"><ele>460.0</ele><time>2026-04-18T17:23:30.999Z</time></trkpt><trkpt lat="45.55238308612455" lon="3.145671210358427"><ele>460.0</ele><time>2026-04-18T17:23:31.999Z</time></trkpt><trkpt lat="45.552259858543316" lon="3.1458750974922474"><ele>460.0</ele><time>2026-04-18T17:23:32.999Z</time></trkpt><trkpt lat="45.55213130078035" lon="3.1460832183602667"><ele>459.6666666666667</ele><time>2026-04-18T17:23:33.999Z</time></trkpt><trkpt lat="45.55200823180003" lon="3.146277594070364"><ele>459.33333333333337</ele><time>2026-04-18T17:23:34.999Z</time></trkpt><trkpt lat="45.55188845676124" lon="3.146472097382315"><ele>459.0</ele><time>2026-04-18T17:23:35.999Z</time></trkpt><trkpt lat="45.55176714698712" lon="3.1466679293076925"><ele>458.0</ele><time>2026-04-18T17:23:36.999Z</time></trkpt><trkpt lat="45.55164686716741" lon="3.146859692205194"><ele>457.0</ele><time>2026-04-18T17:23:37.999Z</time></trkpt><trkpt lat="45.55152057995423" lon="3.147065356843773"><ele>456.0</ele><time>2026-04-18T17:23:38.999Z</time></trkpt><trkpt lat="45.551407934279474" lon="3.147268624607067"><ele>456.0</ele><time>2026-04-18T17:23:39.999Z</time></trkpt><trkpt lat="45.551308768908726" lon="3.1474895650035344"><ele>456.0</ele><time>2026-04-18T17:23:40.999Z</time></trkpt><trkpt lat="45.55122135169408" lon="3.1477085710630006"><ele>456.0</ele><time>2026-04-18T17:23:41.999Z</time></trkpt><trkpt lat="45.55114020040521" lon="3.147940946555154"><ele>456.33333333333337</ele><time>2026-04-18T17:23:42.999Z</time></trkpt><trkpt lat="45.55107999486881" lon="3.1481780302281774"><ele>456.6666666666667</ele><time>2026-04-18T17:23:43.999Z</time></trkpt><trkpt lat="45.55103185011652" lon="3.1484289303158306"><ele>457.0</ele><time>2026-04-18T17:23:44.999Z</time></trkpt><trkpt lat="45.550992295843955" lon="3.1486769060041864"><ele>457.0</ele><time>2026-04-18T17:23:45.999Z</time></trkpt><trkpt lat="45.55095817969475" lon="3.1488994561309105"><ele>457.0</ele><time>2026-04-18T17:23:46.999Z</time></trkpt><trkpt lat="45.55093496960863" lon="3.149081436077467"><ele>457.0</ele><time>2026-04-18T17:23:47.999Z</time></trkpt><trkpt lat="45.55092408309832" lon="3.1492312796778807"><ele>457.0</ele><time>2026-04-18T17:23:48.999Z</time></trkpt><trkpt lat="45.55091909218121" lon="3.149355888101361"><ele>456.83333333333337</ele><time>2026-04-18T17:23:49.999Z</time></trkpt><trkpt lat="45.55092059223404" lon="3.1494532965421334"><ele>456.6666666666667</ele><time>2026-04-18T17:23:50.999Z</time></trkpt><trkpt lat="45.55092236548195" lon="3.1495494019993187"><ele>456.5</ele><time>2026-04-18T17:23:52.999Z</time></trkpt><trkpt lat="45.55107272095121" lon="3.1495047893576515"><ele>456.33333333333337</ele><time>2026-04-18T17:23:54.999Z</time></trkpt><trkpt lat="45.55112187583657" lon="3.149440108571008"><ele>456.1666666666667</ele><time>2026-04-18T17:23:57Z</time></trkpt><trkpt lat="45.55117903438879" lon="3.1493858912457497"><ele>456.0</ele><time>2026-04-18T17:24:00Z</time></trkpt><trkpt lat="45.5512100074436" lon="3.1493075121379945"><ele>455.8333333333333</ele><time>2026-04-18T17:24:04Z</time></trkpt><trkpt lat="45.55113358853907" lon="3.149397706028639"><ele>455.66666666666663</ele><time>2026-04-18T17:24:07Z</time></trkpt><trkpt lat="45.55105726235154" lon="3.1494503883882734"><ele>455.5</ele><time>2026-04-18T17:24:09Z</time></trkpt><trkpt lat="45.55098042523741" lon="3.149469857225395"><ele>455.3333333333333</ele><time>2026-04-18T17:24:23Z</time></trkpt><trkpt lat="45.55093538897591" lon="3.1495811952468094"><ele>455.16666666666663</ele><time>2026-04-18T17:24:25Z</time></trkpt><trkpt lat="45.55092858441405" lon="3.1496943886053623"><ele>455.0</ele><time>2026-04-18T17:24:26Z</time></trkpt><trkpt lat="45.55093647654685" lon="3.1498037102704597"><ele>454.8</ele><time>2026-04-18T17:24:27Z</time></trkpt><trkpt lat="45.550949055047454" lon="3.149934665611663"><ele>454.6</ele><time>2026-04-18T17:24:27.999Z</time></trkpt><trkpt lat="45.55096779520208" lon="3.150080853356801"><ele>454.4</ele><time>2026-04-18T17:24:28.999Z</time></trkpt><trkpt lat="45.55098865148221" lon="3.1502254231633104"><ele>454.2</ele><time>2026-04-18T17:24:29.999Z</time></trkpt><trkpt lat="45.55099792967892" lon="3.1503769810127347"><ele>454.0</ele><time>2026-04-18T17:24:30.999Z</time></trkpt><trkpt lat="45.5510252953625" lon="3.1505239902091855"><ele>453.75</ele><time>2026-04-18T17:24:31.999Z</time></trkpt><trkpt lat="45.55106592994741" lon="3.1507291496039636"><ele>453.5</ele><time>2026-04-18T17:24:32.999Z</time></trkpt><trkpt lat="45.55110765918583" lon="3.150884837074194"><ele>453.25</ele><time>2026-04-18T17:24:33.999Z</time></trkpt><trkpt lat="45.55115063636661" lon="3.151040878657835"><ele>453.0</ele><time>2026-04-18T17:24:34.999Z</time></trkpt><trkpt lat="45.5511917257376" lon="3.1512042963947517"><ele>453.0</ele><time>2026-04-18T17:24:35.999Z</time></trkpt><trkpt lat="45.551234987547076" lon="3.1513764321575395"><ele>453.0</ele><time>2026-04-18T17:24:36.999Z</time></trkpt><trkpt lat="45.55127898661807" lon="3.1515458265634906"><ele>453.0</ele><time>2026-04-18T17:24:37.999Z</time></trkpt><trkpt lat="45.55131719681165" lon="3.1517037591513977"><ele>453.0</ele><time>2026-04-18T17:24:38.999Z</time></trkpt><trkpt lat="45.55135237759781" lon="3.151846441698566"><ele>453.0</ele><time>2026-04-18T17:24:39.999Z</time></trkpt><trkpt lat="45.551383752849674" lon="3.1519745896302935"><ele>452.99999999999994</ele><time>2026-04-18T17:24:40.999Z</time></trkpt><trkpt lat="45.55141822124836" lon="3.152110286437944"><ele>452.99999999999994</ele><time>2026-04-18T17:24:41.999Z</time></trkpt><trkpt lat="45.55145554423693" lon="3.1522605930529397"><ele>453.0</ele><time>2026-04-18T17:24:42.999Z</time></trkpt><trkpt lat="45.55149529893104" lon="3.1524124186701443"><ele>453.0</ele><time>2026-04-18T17:24:43.999Z</time></trkpt><trkpt lat="45.55153378669579" lon="3.1525601775200984"><ele>452.75</ele><time>2026-04-18T17:24:44.999Z</time></trkpt><trkpt lat="45.55157514877667" lon="3.152707449725994"><ele>452.5</ele><time>2026-04-18T17:24:45.999Z</time></trkpt><trkpt lat="45.551613262007166" lon="3.15286734068855"><ele>452.25</ele><time>2026-04-18T17:24:47Z</time></trkpt><trkpt lat="45.55165846017253" lon="3.1530367860860316"><ele>452.0</ele><time>2026-04-18T17:24:48Z</time></trkpt><trkpt lat="45.55169879123202" lon="3.153211751888294"><ele>452.0</ele><time>2026-04-18T17:24:49Z</time></trkpt><trkpt lat="45.55174338898864" lon="3.153392209603687"><ele>452.0</ele><time>2026-04-18T17:24:50Z</time></trkpt><trkpt lat="45.551788843481994" lon="3.153577439960312"><ele>452.0</ele><time>2026-04-18T17:24:51Z</time></trkpt><trkpt lat="45.5518346905727" lon="3.153760331754832"><ele>452.0</ele><time>2026-04-18T17:24:52Z</time></trkpt><trkpt lat="45.551872330250724" lon="3.1539478607932003"><ele>452.0</ele><time>2026-04-18T17:24:53Z</time></trkpt><trkpt lat="45.551895315242156" lon="3.154143331560405"><ele>452.0</ele><time>2026-04-18T17:24:54Z</time></trkpt><trkpt lat="45.55193302013204" lon="3.1543398562202314"><ele>452.0</ele><time>2026-04-18T17:24:55Z</time></trkpt><trkpt lat="45.5519540643827" lon="3.1545414080177188"><ele>452.0</ele><time>2026-04-18T17:24:56Z</time></trkpt><trkpt lat="45.551974954082816" lon="3.1547391480344076"><ele>451.8</ele><time>2026-04-18T17:24:57Z</time></trkpt><trkpt lat="45.55198473682318" lon="3.1549104187816552"><ele>451.6</ele><time>2026-04-18T17:24:58Z</time></trkpt><trkpt lat="45.552001208290406" lon="3.1550597756737635"><ele>451.40000000000003</ele><time>2026-04-18T17:24:59Z</time></trkpt><trkpt lat="45.55201686382105" lon="3.155196311858746"><ele>451.20000000000005</ele><time>2026-04-18T17:25:00Z</time></trkpt><trkpt lat="45.552027911238575" lon="3.1553247585569184"><ele>451.0</ele><time>2026-04-18T17:25:01Z</time></trkpt><trkpt lat="45.55203691505298" lon="3.155442557549036"><ele>452.4</ele><time>2026-04-18T17:25:02Z</time></trkpt><trkpt lat="45.552047392408106" lon="3.155551273334654"><ele>453.8</ele><time>2026-04-18T17:25:03Z</time></trkpt><trkpt lat="45.552053448600304" lon="3.1556509651182987"><ele>455.19999999999993</ele><time>2026-04-18T17:25:04Z</time></trkpt><trkpt lat="45.55204976477929" lon="3.155806554453173"><ele>456.59999999999997</ele><time>2026-04-18T17:25:06Z</time></trkpt><trkpt lat="45.55219242914303" lon="3.155828178875246"><ele>458.0</ele><time>2026-04-18T17:25:08Z</time></trkpt><trkpt lat="45.55229351110231" lon="3.155740877224339"><ele>458.0</ele><time>2026-04-18T17:25:10Z</time></trkpt><trkpt lat="45.55232911226854" lon="3.1555074176834954"><ele>458.0</ele><time>2026-04-18T17:25:12Z</time></trkpt><trkpt lat="45.55235350862367" lon="3.155362719686056"><ele>458.0</ele><time>2026-04-18T17:25:13Z</time></trkpt><trkpt lat="45.552379333014436" lon="3.155211604593347"><ele>458.0</ele><time>2026-04-18T17:25:14Z</time></trkpt><trkpt lat="45.55241393554735" lon="3.1550589301739893"><ele>458.0</ele><time>2026-04-18T17:25:15Z</time></trkpt><trkpt lat="45.55246374807353" lon="3.1549241666593146"><ele>458.0</ele><time>2026-04-18T17:25:16Z</time></trkpt><trkpt lat="45.55250137187187" lon="3.1547693891586643"><ele>458.0</ele><time>2026-04-18T17:25:17Z</time></trkpt><trkpt lat="45.55254181609682" lon="3.1546030150747852"><ele>458.0</ele><time>2026-04-18T17:25:18Z</time></trkpt><trkpt lat="45.55258380635282" lon="3.154430608628601"><ele>457.75</ele><time>2026-04-18T17:25:19Z</time></trkpt><trkpt lat="45.55261182130552" lon="3.154248861834022"><ele>457.5</ele><time>2026-04-18T17:25:20Z</time></trkpt><trkpt lat="45.55265831805707" lon="3.1540767540656924"><ele>457.25</ele><time>2026-04-18T17:25:21Z</time></trkpt><trkpt lat="45.55270344405976" lon="3.1538973799155987"><ele>457.0</ele><time>2026-04-18T17:25:22Z</time></trkpt><trkpt lat="45.5527482957791" lon="3.153724001021033"><ele>456.75</ele><time>2026-04-18T17:25:23Z</time></trkpt><trkpt lat="45.55279204990634" lon="3.1535504197284827"><ele>456.5</ele><time>2026-04-18T17:25:24Z</time></trkpt><trkpt lat="45.55283493975143" lon="3.153378942777232"><ele>456.25</ele><time>2026-04-18T17:25:25Z</time></trkpt><trkpt lat="45.55288012607862" lon="3.1532158511572477"><ele>456.0</ele><time>2026-04-18T17:25:26Z</time></trkpt><trkpt lat="45.55292554045994" lon="3.1530505077548456"><ele>457.8</ele><time>2026-04-18T17:25:27Z</time></trkpt><trkpt lat="45.552975371893034" lon="3.1528905478779476"><ele>459.6</ele><time>2026-04-18T17:25:28Z</time></trkpt><trkpt lat="45.553024866226" lon="3.1527425327172556"><ele>461.4</ele><time>2026-04-18T17:25:29Z</time></trkpt><trkpt lat="45.55307052306243" lon="3.1526087560533966"><ele>463.2</ele><time>2026-04-18T17:25:30Z</time></trkpt><trkpt lat="45.55311728802726" lon="3.152482528973798"><ele>465.0</ele><time>2026-04-18T17:25:31Z</time></trkpt><trkpt lat="45.55316367079438" lon="3.1523508532977647"><ele>465.4</ele><time>2026-04-18T17:25:32Z</time></trkpt><trkpt lat="45.55320797199602" lon="3.152216775613524"><ele>465.8</ele><time>2026-04-18T17:25:33Z</time></trkpt><trkpt lat="45.55325592838521" lon="3.152080450017797"><ele>466.20000000000005</ele><time>2026-04-18T17:25:34Z</time></trkpt><trkpt lat="45.553298806762996" lon="3.1519544344003503"><ele>466.6</ele><time>2026-04-18T17:25:35Z</time></trkpt><trkpt lat="45.553341300296466" lon="3.1518303049735885"><ele>467.0</ele><time>2026-04-18T17:25:36Z</time></trkpt><trkpt lat="45.55338873690375" lon="3.1517114641557886"><ele>467.0</ele><time>2026-04-18T17:25:37Z</time></trkpt><trkpt lat="45.55344297902402" lon="3.151585144777158"><ele>467.00000000000006</ele><time>2026-04-18T17:25:38Z</time></trkpt><trkpt lat="45.55349154952843" lon="3.151447964828159"><ele>467.00000000000006</ele><time>2026-04-18T17:25:39Z</time></trkpt><trkpt lat="45.553541932293264" lon="3.1513056661670276"><ele>467.0</ele><time>2026-04-18T17:25:40Z</time></trkpt><trkpt lat="45.55358950726104" lon="3.151171297967394"><ele>467.0</ele><time>2026-04-18T17:25:41Z</time></trkpt><trkpt lat="45.5536357191023" lon="3.1510407797194193"><ele>466.99999999999994</ele><time>2026-04-18T17:25:42Z</time></trkpt><trkpt lat="45.55367449281413" lon="3.1509307106324584"><ele>467.0</ele><time>2026-04-18T17:25:43Z</time></trkpt><trkpt lat="45.55370997901757" lon="3.150829359494192"><ele>467.0</ele><time>2026-04-18T17:25:44Z</time></trkpt><trkpt lat="45.55374037670084" lon="3.1507408335071716"><ele>467.0</ele><time>2026-04-18T17:25:45Z</time></trkpt><trkpt lat="45.55376975967072" lon="3.1506539133238283"><ele>466.99999999999994</ele><time>2026-04-18T17:25:46Z</time></trkpt><trkpt lat="45.553826770572556" lon="3.150563419722363"><ele>467.0</ele><time>2026-04-18T17:25:48Z</time></trkpt><trkpt lat="45.55388389244158" lon="3.1506490387273542"><ele>468.20000000000005</ele><time>2026-04-18T17:25:50Z</time></trkpt><trkpt lat="45.55388691534558" lon="3.1508142102529835"><ele>469.40000000000003</ele><time>2026-04-18T17:25:52Z</time></trkpt><trkpt lat="45.553911097036554" lon="3.1509226069467005"><ele>470.59999999999997</ele><time>2026-04-18T17:25:53Z</time></trkpt><trkpt lat="45.5539296184053" lon="3.151047689892842"><ele>471.79999999999995</ele><time>2026-04-18T17:25:54Z</time></trkpt><trkpt lat="45.55395652427946" lon="3.151189460520905"><ele>473.0</ele><time>2026-04-18T17:25:55Z</time></trkpt><trkpt lat="45.553991931124266" lon="3.151352297939848"><ele>473.0</ele><time>2026-04-18T17:25:56Z</time></trkpt><trkpt lat="45.5540386276202" lon="3.1515451858788075"><ele>473.0</ele><time>2026-04-18T17:25:57Z</time></trkpt><trkpt lat="45.5540989634662" lon="3.1517448359286373"><ele>473.0</ele><time>2026-04-18T17:25:58Z</time></trkpt><trkpt lat="45.5541779073518" lon="3.151958934202864"><ele>473.0</ele><time>2026-04-18T17:25:59Z</time></trkpt><trkpt lat="45.554263587650055" lon="3.1521473572433543"><ele>473.0</ele><time>2026-04-18T17:26:00Z</time></trkpt><trkpt lat="45.554356375142085" lon="3.152322499527788"><ele>473.0</ele><time>2026-04-18T17:26:01Z</time></trkpt><trkpt lat="45.55446136926938" lon="3.1524864996611575"><ele>476.66666666666663</ele><time>2026-04-18T17:26:02.001Z</time></trkpt><trkpt lat="45.5545751738661" lon="3.1526546341567405"><ele>480.33333333333337</ele><time>2026-04-18T17:26:03.001Z</time></trkpt><trkpt lat="45.55468842219281" lon="3.1528303270805003"><ele>484.0</ele><time>2026-04-18T17:26:04.001Z</time></trkpt><trkpt lat="45.554804633500424" lon="3.1529973802398708"><ele>484.0</ele><time>2026-04-18T17:26:05.001Z</time></trkpt><trkpt lat="45.55491899514167" lon="3.1531778160402966"><ele>484.0</ele><time>2026-04-18T17:26:06.001Z</time></trkpt><trkpt lat="45.55502350646913" lon="3.1533454342751277"><ele>484.0</ele><time>2026-04-18T17:26:07.001Z</time></trkpt><trkpt lat="45.55512885352075" lon="3.153517854119408"><ele>484.0</ele><time>2026-04-18T17:26:08.001Z</time></trkpt><trkpt lat="45.55522411226761" lon="3.153696059554288"><ele>484.0</ele><time>2026-04-18T17:26:09.001Z</time></trkpt><trkpt lat="45.55530945469375" lon="3.1538849142688132"><ele>484.0</ele><time>2026-04-18T17:26:10.001Z</time></trkpt><trkpt lat="45.555381597265885" lon="3.154062484979071"><ele>485.25</ele><time>2026-04-18T17:26:11.001Z</time></trkpt><trkpt lat="45.55544962961763" lon="3.1542218716156674"><ele>486.5</ele><time>2026-04-18T17:26:12.001Z</time></trkpt><trkpt lat="45.555512881259794" lon="3.1543603692578506"><ele>487.75</ele><time>2026-04-18T17:26:13.001Z</time></trkpt><trkpt lat="45.555585570299634" lon="3.1544896538010043"><ele>489.0</ele><time>2026-04-18T17:26:14.001Z</time></trkpt><trkpt lat="45.5556744194383" lon="3.1546137806726984"><ele>489.0</ele><time>2026-04-18T17:26:15.001Z</time></trkpt><trkpt lat="45.555779990404645" lon="3.1547110146754616"><ele>489.0</ele><time>2026-04-18T17:26:16.001Z</time></trkpt><trkpt lat="45.55589282888799" lon="3.1547818040537403"><ele>489.0</ele><time>2026-04-18T17:26:17.001Z</time></trkpt><trkpt lat="45.556002769295674" lon="3.1548373105953833"><ele>489.0</ele><time>2026-04-18T17:26:18.001Z</time></trkpt><trkpt lat="45.55611336648348" lon="3.1548883640057244"><ele>488.75</ele><time>2026-04-18T17:26:19.001Z</time></trkpt><trkpt lat="45.55624109187183" lon="3.154933030311742"><ele>488.5</ele><time>2026-04-18T17:26:20.001Z</time></trkpt><trkpt lat="45.55637159853166" lon="3.1550069345103866"><ele>488.25</ele><time>2026-04-18T17:26:21.001Z</time></trkpt><trkpt lat="45.55652153158719" lon="3.155052560630449"><ele>488.0</ele><time>2026-04-18T17:26:22.001Z</time></trkpt><trkpt lat="45.55666704587489" lon="3.155127745329104"><ele>488.0</ele><time>2026-04-18T17:26:23.001Z</time></trkpt><trkpt lat="45.556816693914584" lon="3.1552016955813347"><ele>488.0</ele><time>2026-04-18T17:26:24.001Z</time></trkpt><trkpt lat="45.55696537323123" lon="3.1552993077157567"><ele>488.0</ele><time>2026-04-18T17:26:25.001Z</time></trkpt><trkpt lat="45.55711961539214" lon="3.1553641174468177"><ele>489.3333333333333</ele><time>2026-04-18T17:26:26.001Z</time></trkpt><trkpt lat="45.55726523300075" lon="3.1554563325496425"><ele>490.66666666666663</ele><time>2026-04-18T17:26:27.001Z</time></trkpt><trkpt lat="45.55742152747925" lon="3.1555635232637544"><ele>492.0</ele><time>2026-04-18T17:26:28.001Z</time></trkpt><trkpt lat="45.55757827861517" lon="3.155662187971822"><ele>491.66666666666663</ele><time>2026-04-18T17:26:29.001Z</time></trkpt><trkpt lat="45.557731839692394" lon="3.155755853242534"><ele>491.3333333333333</ele><time>2026-04-18T17:26:30.001Z</time></trkpt><trkpt lat="45.557887977165514" lon="3.1558543049661916"><ele>491.0</ele><time>2026-04-18T17:26:31Z</time></trkpt><trkpt lat="45.55805444089654" lon="3.155961390728997"><ele>491.0</ele><time>2026-04-18T17:26:32Z</time></trkpt><trkpt lat="45.558221054014865" lon="3.156073448954169"><ele>491.0</ele><time>2026-04-18T17:26:33Z</time></trkpt><trkpt lat="45.55839076476293" lon="3.1561854966776535"><ele>491.0</ele><time>2026-04-18T17:26:34Z</time></trkpt><trkpt lat="45.55855115722075" lon="3.156293288585471"><ele>490.66666666666663</ele><time>2026-04-18T17:26:35Z</time></trkpt><trkpt lat="45.55871383882594" lon="3.1564116768494976"><ele>490.33333333333337</ele><time>2026-04-18T17:26:36Z</time></trkpt><trkpt lat="45.55886953793519" lon="3.1565296081672836"><ele>490.0</ele><time>2026-04-18T17:26:37Z</time></trkpt><trkpt lat="45.55902854255873" lon="3.156656224205212"><ele>490.0</ele><time>2026-04-18T17:26:38Z</time></trkpt><trkpt lat="45.5591938305547" lon="3.156791854990347"><ele>490.0</ele><time>2026-04-18T17:26:39Z</time></trkpt><trkpt lat="45.55935290082534" lon="3.156926695124434"><ele>490.0</ele><time>2026-04-18T17:26:40Z</time></trkpt><trkpt lat="45.559514218594096" lon="3.1570619504963573"><ele>490.33333333333337</ele><time>2026-04-18T17:26:41Z</time></trkpt><trkpt lat="45.55968383439392" lon="3.157196155945793"><ele>490.66666666666663</ele><time>2026-04-18T17:26:42Z</time></trkpt><trkpt lat="45.55984804705792" lon="3.157324277790277"><ele>491.0</ele><time>2026-04-18T17:26:43Z</time></trkpt><trkpt lat="45.56001065510505" lon="3.157443747625527"><ele>491.0</ele><time>2026-04-18T17:26:44Z</time></trkpt><trkpt lat="45.560178934607706" lon="3.157553856820424"><ele>491.0</ele><time>2026-04-18T17:26:45Z</time></trkpt><trkpt lat="45.56036120468057" lon="3.1576613578616897"><ele>491.0</ele><time>2026-04-18T17:26:46Z</time></trkpt><trkpt lat="45.56054766616945" lon="3.1577698528897264"><ele>491.66666666666663</ele><time>2026-04-18T17:26:47Z</time></trkpt><trkpt lat="45.56073539730155" lon="3.1578830858641593"><ele>492.33333333333337</ele><time>2026-04-18T17:26:48Z</time></trkpt><trkpt lat="45.56092308302933" lon="3.157998377075513"><ele>493.0</ele><time>2026-04-18T17:26:49Z</time></trkpt><trkpt lat="45.56111067310244" lon="3.158115489771945"><ele>494.0</ele><time>2026-04-18T17:26:50Z</time></trkpt><trkpt lat="45.56129984465766" lon="3.1582346078553356"><ele>495.0</ele><time>2026-04-18T17:26:51Z</time></trkpt><trkpt lat="45.561481337250235" lon="3.1583439510379008"><ele>496.0</ele><time>2026-04-18T17:26:52Z</time></trkpt><trkpt lat="45.56167035611441" lon="3.1584606183060027"><ele>496.0</ele><time>2026-04-18T17:26:53Z</time></trkpt><trkpt lat="45.56185502342645" lon="3.1585716922425693"><ele>496.0</ele><time>2026-04-18T17:26:54Z</time></trkpt><trkpt lat="45.562044251717914" lon="3.1587078516294644"><ele>496.0</ele><time>2026-04-18T17:26:55Z</time></trkpt><trkpt lat="45.562222769422135" lon="3.158838832252546"><ele>497.0</ele><time>2026-04-18T17:26:56Z</time></trkpt><trkpt lat="45.56240085782213" lon="3.1589532930478725"><ele>498.0</ele><time>2026-04-18T17:26:57Z</time></trkpt><trkpt lat="45.56257849551985" lon="3.1590870451622868"><ele>499.0</ele><time>2026-04-18T17:26:58Z</time></trkpt><trkpt lat="45.56274832455947" lon="3.159210756528052"><ele>501.33333333333337</ele><time>2026-04-18T17:26:59Z</time></trkpt><trkpt lat="45.56292008407433" lon="3.1593235004884197"><ele>503.66666666666663</ele><time>2026-04-18T17:27:00Z</time></trkpt><trkpt lat="45.56309606566612" lon="3.159438262676746"><ele>506.0</ele><time>2026-04-18T17:27:01Z</time></trkpt><trkpt lat="45.563272711258506" lon="3.1595427702401477"><ele>506.0</ele><time>2026-04-18T17:27:02Z</time></trkpt><trkpt lat="45.563424913428896" lon="3.1596621448339226"><ele>506.0</ele><time>2026-04-18T17:27:03Z</time></trkpt><trkpt lat="45.56356302185328" lon="3.1597696570496665"><ele>506.0</ele><time>2026-04-18T17:27:04Z</time></trkpt><trkpt lat="45.56368787669317" lon="3.159879917566226"><ele>507.0</ele><time>2026-04-18T17:27:05Z</time></trkpt><trkpt lat="45.5638069774134" lon="3.1599842067122137"><ele>508.0</ele><time>2026-04-18T17:27:06Z</time></trkpt><trkpt lat="45.56392026209931" lon="3.1600792495774606"><ele>509.0</ele><time>2026-04-18T17:27:07Z</time></trkpt><trkpt lat="45.564026897586615" lon="3.1601705336438948"><ele>510.0</ele><time>2026-04-18T17:27:08Z</time></trkpt><trkpt lat="45.564125967759765" lon="3.1602577250284334"><ele>510.0</ele><time>2026-04-18T17:27:09Z</time></trkpt><trkpt lat="45.56421966292549" lon="3.160339344471782"><ele>510.0</ele><time>2026-04-18T17:27:10Z</time></trkpt><trkpt lat="45.56431319457091" lon="3.1604101665986124"><ele>510.0</ele><time>2026-04-18T17:27:11Z</time></trkpt><trkpt lat="45.56440307825772" lon="3.1604620917202224"><ele>510.0</ele><time>2026-04-18T17:27:12Z</time></trkpt><trkpt lat="45.56448682786821" lon="3.1604871908240195"><ele>510.0</ele><time>2026-04-18T17:27:13Z</time></trkpt><trkpt lat="45.56455597028111" lon="3.160504531514371"><ele>509.8</ele><time>2026-04-18T17:27:14Z</time></trkpt><trkpt lat="45.564628498324126" lon="3.1605687717435735"><ele>509.6</ele><time>2026-04-18T17:27:16Z</time></trkpt><trkpt lat="45.56468158769314" lon="3.1606414053178633"><ele>509.4</ele><time>2026-04-18T17:27:19Z</time></trkpt><trkpt lat="45.56474810232811" lon="3.160672635360764"><ele>509.2</ele><time>2026-04-18T17:27:24Z</time></trkpt><trkpt lat="45.56489359549104" lon="3.16057005956535"><ele>509.0</ele><time>2026-04-18T17:27:26Z</time></trkpt><trkpt lat="45.56496621030947" lon="3.160494458386787"><ele>509.0</ele><time>2026-04-18T17:27:27Z</time></trkpt><trkpt lat="45.56505228243969" lon="3.1604161672743416"><ele>509.0</ele><time>2026-04-18T17:27:28Z</time></trkpt><trkpt lat="45.56515746600524" lon="3.16032361449338"><ele>509.0</ele><time>2026-04-18T17:27:29Z</time></trkpt><trkpt lat="45.56526225455322" lon="3.160228144687339"><ele>509.0</ele><time>2026-04-18T17:27:30Z</time></trkpt><trkpt lat="45.56537903696674" lon="3.160127039759006"><ele>509.0</ele><time>2026-04-18T17:27:31Z</time></trkpt><trkpt lat="45.5655088256533" lon="3.1600075692955514"><ele>509.0</ele><time>2026-04-18T17:27:32Z</time></trkpt><trkpt lat="45.565656050248315" lon="3.15987347436193"><ele>509.0</ele><time>2026-04-18T17:27:33Z</time></trkpt><trkpt lat="45.565795457887724" lon="3.159745398814738"><ele>508.66666666666663</ele><time>2026-04-18T17:27:34Z</time></trkpt><trkpt lat="45.5659326442007" lon="3.159615955259871"><ele>508.33333333333337</ele><time>2026-04-18T17:27:35Z</time></trkpt><trkpt lat="45.56606902474023" lon="3.15948243352928"><ele>508.0</ele><time>2026-04-18T17:27:36Z</time></trkpt><trkpt lat="45.566208822858286" lon="3.1593456919654272"><ele>508.0</ele><time>2026-04-18T17:27:37Z</time></trkpt><trkpt lat="45.56635376238025" lon="3.1592076555276867"><ele>508.0</ele><time>2026-04-18T17:27:38Z</time></trkpt><trkpt lat="45.56650133456649" lon="3.159065844792016"><ele>508.0</ele><time>2026-04-18T17:27:39Z</time></trkpt><trkpt lat="45.56665382070975" lon="3.1589227956382775"><ele>508.0</ele><time>2026-04-18T17:27:40Z</time></trkpt><trkpt lat="45.566806159142715" lon="3.1587708375956476"><ele>508.0</ele><time>2026-04-18T17:27:41Z</time></trkpt><trkpt lat="45.566961880718395" lon="3.1586203023846493"><ele>508.0</ele><time>2026-04-18T17:27:42Z</time></trkpt><trkpt lat="45.567121372498704" lon="3.158470432703307"><ele>508.0</ele><time>2026-04-18T17:27:43Z</time></trkpt><trkpt lat="45.567285611384044" lon="3.1583173842614825"><ele>508.0</ele><time>2026-04-18T17:27:44Z</time></trkpt><trkpt lat="45.56746545138234" lon="3.1581505817521442"><ele>508.0</ele><time>2026-04-18T17:27:45Z</time></trkpt><trkpt lat="45.56765701542649" lon="3.157972333445475"><ele>509.0</ele><time>2026-04-18T17:27:46Z</time></trkpt><trkpt lat="45.567868108490956" lon="3.1577769787155936"><ele>510.0</ele><time>2026-04-18T17:27:47Z</time></trkpt><trkpt lat="45.568090208901566" lon="3.1575722320030284"><ele>512.0</ele><time>2026-04-18T17:27:48Z</time></trkpt><trkpt lat="45.568326495111855" lon="3.157353878504898"><ele>514.0</ele><time>2026-04-18T17:27:49Z</time></trkpt><trkpt lat="45.568549055441565" lon="3.1571492600293727"><ele>514.5</ele><time>2026-04-18T17:27:50Z</time></trkpt><trkpt lat="45.56874690428274" lon="3.1569626653032454"><ele>515.0</ele><time>2026-04-18T17:27:51Z</time></trkpt><trkpt lat="45.56893336709039" lon="3.1567855830198073"><ele>515.0</ele><time>2026-04-18T17:27:52Z</time></trkpt><trkpt lat="45.56911560940145" lon="3.1566138433030693"><ele>515.0</ele><time>2026-04-18T17:27:53Z</time></trkpt><trkpt lat="45.56930124102578" lon="3.156440413757321"><ele>515.0</ele><time>2026-04-18T17:27:54Z</time></trkpt><trkpt lat="45.569485691756796" lon="3.156269690283649"><ele>515.3333333333333</ele><time>2026-04-18T17:27:55Z</time></trkpt><trkpt lat="45.569673476011" lon="3.1560923611824467"><ele>515.6666666666666</ele><time>2026-04-18T17:27:56Z</time></trkpt><trkpt lat="45.569858707610756" lon="3.155917107447866"><ele>516.0</ele><time>2026-04-18T17:27:57Z</time></trkpt><trkpt lat="45.57004478689321" lon="3.1557424188271606"><ele>516.0</ele><time>2026-04-18T17:27:58Z</time></trkpt><trkpt lat="45.57023585036012" lon="3.155566070570468"><ele>516.0</ele><time>2026-04-18T17:27:59Z</time></trkpt><trkpt lat="45.57042564830852" lon="3.155390626081297"><ele>516.0</ele><time>2026-04-18T17:28:00Z</time></trkpt><trkpt lat="45.570610840196416" lon="3.1552143701484967"><ele>516.0</ele><time>2026-04-18T17:28:01Z</time></trkpt><trkpt lat="45.57080401463425" lon="3.1550307191776934"><ele>517.0</ele><time>2026-04-18T17:28:02Z</time></trkpt><trkpt lat="45.57099533962728" lon="3.1548492903796967"><ele>518.0</ele><time>2026-04-18T17:28:03Z</time></trkpt><trkpt lat="45.571187343308466" lon="3.1546696866566246"><ele>517.3333333333333</ele><time>2026-04-18T17:28:04Z</time></trkpt><trkpt lat="45.571374937883434" lon="3.154500147709544"><ele>516.6666666666666</ele><time>2026-04-18T17:28:05Z</time></trkpt><trkpt lat="45.57156362515285" lon="3.1543269778781124"><ele>516.0</ele><time>2026-04-18T17:28:06Z</time></trkpt><trkpt lat="45.57175197735204" lon="3.154152703876524"><ele>516.0</ele><time>2026-04-18T17:28:07Z</time></trkpt><trkpt lat="45.571944160712775" lon="3.153970851576014"><ele>516.0</ele><time>2026-04-18T17:28:08.001Z</time></trkpt><trkpt lat="45.57212551303607" lon="3.153797782920116"><ele>516.0</ele><time>2026-04-18T17:28:09.001Z</time></trkpt><trkpt lat="45.57230726226218" lon="3.1536288220840105"><ele>516.0</ele><time>2026-04-18T17:28:10.001Z</time></trkpt><trkpt lat="45.57248901029275" lon="3.153461009163347"><ele>516.0</ele><time>2026-04-18T17:28:11.001Z</time></trkpt><trkpt lat="45.57267556577492" lon="3.153286392619202"><ele>516.0</ele><time>2026-04-18T17:28:12.001Z</time></trkpt><trkpt lat="45.572860187960316" lon="3.1531123901016755"><ele>517.0</ele><time>2026-04-18T17:28:13.001Z</time></trkpt><trkpt lat="45.573046414338606" lon="3.1529421276966105"><ele>518.0</ele><time>2026-04-18T17:28:14.001Z</time></trkpt><trkpt lat="45.57323369998865" lon="3.1527682887263246"><ele>519.0</ele><time>2026-04-18T17:28:15.001Z</time></trkpt><trkpt lat="45.573420890208" lon="3.1525990323165605"><ele>519.0</ele><time>2026-04-18T17:28:16.001Z</time></trkpt><trkpt lat="45.57360554245541" lon="3.1524304520771027"><ele>519.0</ele><time>2026-04-18T17:28:17.001Z</time></trkpt><trkpt lat="45.57379139550804" lon="3.1522543312434106"><ele>519.0</ele><time>2026-04-18T17:28:18.001Z</time></trkpt><trkpt lat="45.57397442219897" lon="3.152080694148118"><ele>520.3333333333334</ele><time>2026-04-18T17:28:19.001Z</time></trkpt><trkpt lat="45.57415900941954" lon="3.1519067610953715"><ele>521.6666666666667</ele><time>2026-04-18T17:28:20.001Z</time></trkpt><trkpt lat="45.57434338785614" lon="3.151733603825249"><ele>523.0</ele><time>2026-04-18T17:28:21.001Z</time></trkpt><trkpt lat="45.57452105559712" lon="3.1515689038034913"><ele>522.6666666666667</ele><time>2026-04-18T17:28:22.001Z</time></trkpt><trkpt lat="45.574692667821296" lon="3.151407742342833"><ele>522.3333333333334</ele><time>2026-04-18T17:28:23.001Z</time></trkpt><trkpt lat="45.57486704600129" lon="3.151248234754831"><ele>522.0</ele><time>2026-04-18T17:28:24Z</time></trkpt><trkpt lat="45.575036362125324" lon="3.1510960325565622"><ele>522.0</ele><time>2026-04-18T17:28:25Z</time></trkpt><trkpt lat="45.57520468196191" lon="3.1509415397823406"><ele>522.0</ele><time>2026-04-18T17:28:26Z</time></trkpt><trkpt lat="45.57537531506482" lon="3.150786953982367"><ele>522.0</ele><time>2026-04-18T17:28:27Z</time></trkpt><trkpt lat="45.57554702623204" lon="3.150629248301334"><ele>521.6666666666666</ele><time>2026-04-18T17:28:28Z</time></trkpt><trkpt lat="45.57572079541172" lon="3.1504695024712763"><ele>521.3333333333333</ele><time>2026-04-18T17:28:29Z</time></trkpt><trkpt lat="45.57589799683907" lon="3.1503045070011693"><ele>521.0</ele><time>2026-04-18T17:28:30Z</time></trkpt><trkpt lat="45.576073664519" lon="3.1501420296234577"><ele>521.6666666666666</ele><time>2026-04-18T17:28:31Z</time></trkpt><trkpt lat="45.5762521078459" lon="3.149970423502299"><ele>522.3333333333334</ele><time>2026-04-18T17:28:32Z</time></trkpt><trkpt lat="45.57642999830766" lon="3.149804719169457"><ele>523.0</ele><time>2026-04-18T17:28:33Z</time></trkpt><trkpt lat="45.57660439754115" lon="3.149641632926354"><ele>523.0</ele><time>2026-04-18T17:28:34Z</time></trkpt><trkpt lat="45.57677383890793" lon="3.1494886980845798"><ele>523.0</ele><time>2026-04-18T17:28:35Z</time></trkpt><trkpt lat="45.57693166549556" lon="3.1493388275987497"><ele>523.0</ele><time>2026-04-18T17:28:36Z</time></trkpt><trkpt lat="45.57708949375364" lon="3.149201681531337"><ele>523.3333333333334</ele><time>2026-04-18T17:28:37Z</time></trkpt><trkpt lat="45.57725022373514" lon="3.1490744025466455"><ele>523.6666666666666</ele><time>2026-04-18T17:28:38Z</time></trkpt><trkpt lat="45.577417730091824" lon="3.148975953542995"><ele>524.0</ele><time>2026-04-18T17:28:39Z</time></trkpt><trkpt lat="45.57759377584413" lon="3.1489379280926286"><ele>524.0</ele><time>2026-04-18T17:28:40Z</time></trkpt><trkpt lat="45.57776919281912" lon="3.1488914884733754"><ele>524.0</ele><time>2026-04-18T17:28:41Z</time></trkpt><trkpt lat="45.577945795789084" lon="3.148929452738422"><ele>524.0</ele><time>2026-04-18T17:28:42Z</time></trkpt><trkpt lat="45.57812850021238" lon="3.148957288101632"><ele>523.3333333333333</ele><time>2026-04-18T17:28:43Z</time></trkpt><trkpt lat="45.57831614920311" lon="3.149035817844671"><ele>522.6666666666666</ele><time>2026-04-18T17:28:44Z</time></trkpt><trkpt lat="45.57851335569419" lon="3.1491191634512656"><ele>522.0</ele><time>2026-04-18T17:28:45Z</time></trkpt><trkpt lat="45.578725470103976" lon="3.1492046620425995"><ele>518.5</ele><time>2026-04-18T17:28:46Z</time></trkpt><trkpt lat="45.57894806159687" lon="3.1492910602478266"><ele>515.0</ele><time>2026-04-18T17:28:47Z</time></trkpt><trkpt lat="45.57917973415933" lon="3.149382080972777"><ele>515.0</ele><time>2026-04-18T17:28:48Z</time></trkpt><trkpt lat="45.579400070462064" lon="3.149472553991619"><ele>515.0</ele><time>2026-04-18T17:28:49Z</time></trkpt><trkpt lat="45.57960369248905" lon="3.1495552394933477"><ele>515.0</ele><time>2026-04-18T17:28:50Z</time></trkpt><trkpt lat="45.579797323692134" lon="3.1496320155215294"><ele>515.0</ele><time>2026-04-18T17:28:51Z</time></trkpt><trkpt lat="45.5799885154661" lon="3.149704601229209"><ele>515.0</ele><time>2026-04-18T17:28:52Z</time></trkpt><trkpt lat="45.58016760363551" lon="3.149763979261635"><ele>515.0</ele><time>2026-04-18T17:28:53Z</time></trkpt><trkpt lat="45.5803419971812" lon="3.149798726919939"><ele>514.3333333333333</ele><time>2026-04-18T17:28:54Z</time></trkpt><trkpt lat="45.580521043119845" lon="3.149800211835544"><ele>513.6666666666666</ele><time>2026-04-18T17:28:55Z</time></trkpt><trkpt lat="45.58069378706327" lon="3.1497582287722863"><ele>513.0</ele><time>2026-04-18T17:28:56Z</time></trkpt><trkpt lat="45.58086891270317" lon="3.149684560655741"><ele>513.0</ele><time>2026-04-18T17:28:57Z</time></trkpt><trkpt lat="45.58103677054609" lon="3.1495805988342185"><ele>513.0</ele><time>2026-04-18T17:28:58Z</time></trkpt><trkpt lat="45.58120013563682" lon="3.1494417731264"><ele>513.0</ele><time>2026-04-18T17:28:59Z</time></trkpt><trkpt lat="45.581353902184134" lon="3.149258426809811"><ele>511.0</ele><time>2026-04-18T17:29:00Z</time></trkpt><trkpt lat="45.58148521454133" lon="3.149042721162276"><ele>509.0</ele><time>2026-04-18T17:29:01Z</time></trkpt><trkpt lat="45.58159617176341" lon="3.148803937572021"><ele>507.0</ele><time>2026-04-18T17:29:02Z</time></trkpt><trkpt lat="45.581676832588286" lon="3.1485536254055106"><ele>507.0</ele><time>2026-04-18T17:29:03Z</time></trkpt><trkpt lat="45.581732111718196" lon="3.1482845815376446"><ele>507.0</ele><time>2026-04-18T17:29:04Z</time></trkpt><trkpt lat="45.58175903304619" lon="3.148003220133662"><ele>507.0</ele><time>2026-04-18T17:29:05Z</time></trkpt><trkpt lat="45.58175725788548" lon="3.147718528848303"><ele>506.0</ele><time>2026-04-18T17:29:06Z</time></trkpt><trkpt lat="45.5817258691694" lon="3.1474483690530377"><ele>505.0</ele><time>2026-04-18T17:29:07Z</time></trkpt><trkpt lat="45.58168067713655" lon="3.1471692571669343"><ele>504.0</ele><time>2026-04-18T17:29:08Z</time></trkpt><trkpt lat="45.58163889872132" lon="3.1468976587969806"><ele>503.33333333333337</ele><time>2026-04-18T17:29:09Z</time></trkpt><trkpt lat="45.5816011035057" lon="3.1466389110422766"><ele>502.6666666666667</ele><time>2026-04-18T17:29:10Z</time></trkpt><trkpt lat="45.581565226315476" lon="3.146402503361873"><ele>502.0</ele><time>2026-04-18T17:29:11Z</time></trkpt><trkpt lat="45.581533226332404" lon="3.146164556189737"><ele>501.0</ele><time>2026-04-18T17:29:12Z</time></trkpt><trkpt lat="45.58150378149712" lon="3.145932700938792"><ele>500.0</ele><time>2026-04-18T17:29:13Z</time></trkpt><trkpt lat="45.58147477826187" lon="3.1457005297682104"><ele>499.0</ele><time>2026-04-18T17:29:14Z</time></trkpt><trkpt lat="45.58144640246092" lon="3.1454697744545865"><ele>499.25</ele><time>2026-04-18T17:29:15Z</time></trkpt><trkpt lat="45.581426995368176" lon="3.1452508658641123"><ele>499.5</ele><time>2026-04-18T17:29:16Z</time></trkpt><trkpt lat="45.58142899054386" lon="3.145035354500209"><ele>499.75</ele><time>2026-04-18T17:29:17Z</time></trkpt><trkpt lat="45.58148443921318" lon="3.144849667656328"><ele>500.0</ele><time>2026-04-18T17:29:18Z</time></trkpt><trkpt lat="45.58156246800538" lon="3.1446776209816782"><ele>500.0</ele><time>2026-04-18T17:29:19Z</time></trkpt><trkpt lat="45.58166648832887" lon="3.144529917678181"><ele>500.0</ele><time>2026-04-18T17:29:20Z</time></trkpt><trkpt lat="45.58179471533276" lon="3.14441958922395"><ele>500.0</ele><time>2026-04-18T17:29:21Z</time></trkpt><trkpt lat="45.5819415277111" lon="3.144347940731931"><ele>501.66666666666663</ele><time>2026-04-18T17:29:22Z</time></trkpt><trkpt lat="45.582102639353565" lon="3.1443331344520313"><ele>503.33333333333337</ele><time>2026-04-18T17:29:23Z</time></trkpt><trkpt lat="45.58225879500295" lon="3.144374146937514"><ele>505.0</ele><time>2026-04-18T17:29:24Z</time></trkpt><trkpt lat="45.58240280046999" lon="3.1444665605529725"><ele>505.0</ele><time>2026-04-18T17:29:25Z</time></trkpt><trkpt lat="45.58254105350239" lon="3.1445831733982175"><ele>505.0</ele><time>2026-04-18T17:29:26Z</time></trkpt><trkpt lat="45.58268200382811" lon="3.1447026385494508"><ele>505.0</ele><time>2026-04-18T17:29:27Z</time></trkpt><trkpt lat="45.58282550364501" lon="3.144823185976984"><ele>500.6666666666667</ele><time>2026-04-18T17:29:28Z</time></trkpt><trkpt lat="45.58297973670802" lon="3.144927349682408"><ele>496.33333333333337</ele><time>2026-04-18T17:29:29Z</time></trkpt><trkpt lat="45.58313730122007" lon="3.145004890346858"><ele>492.0</ele><time>2026-04-18T17:29:30Z</time></trkpt><trkpt lat="45.583293050232164" lon="3.1450310065344635"><ele>492.0</ele><time>2026-04-18T17:29:31Z</time></trkpt><trkpt lat="45.583455953992974" lon="3.1450160731236445"><ele>492.0</ele><time>2026-04-18T17:29:32Z</time></trkpt><trkpt lat="45.58360820786854" lon="3.144980936241549"><ele>492.0</ele><time>2026-04-18T17:29:33Z</time></trkpt><trkpt lat="45.58375557579672" lon="3.144926968606726"><ele>492.0</ele><time>2026-04-18T17:29:34Z</time></trkpt><trkpt lat="45.5838970314647" lon="3.1448397351536093"><ele>492.0</ele><time>2026-04-18T17:29:35Z</time></trkpt><trkpt lat="45.5840376439042" lon="3.144714338149032"><ele>492.0</ele><time>2026-04-18T17:29:36Z</time></trkpt><trkpt lat="45.58416703542055" lon="3.1445682004587288"><ele>492.0</ele><time>2026-04-18T17:29:37Z</time></trkpt><trkpt lat="45.58427240754443" lon="3.1444050176291367"><ele>492.0</ele><time>2026-04-18T17:29:38Z</time></trkpt><trkpt lat="45.584351409779835" lon="3.1442310313257766"><ele>492.0</ele><time>2026-04-18T17:29:39Z</time></trkpt><trkpt lat="45.584413814611906" lon="3.1440353655971203"><ele>492.66666666666663</ele><time>2026-04-18T17:29:40Z</time></trkpt><trkpt lat="45.584456676840354" lon="3.143821541226628"><ele>493.3333333333333</ele><time>2026-04-18T17:29:41Z</time></trkpt><trkpt lat="45.58448022846255" lon="3.1435818177569783"><ele>494.0</ele><time>2026-04-18T17:29:42Z</time></trkpt><trkpt lat="45.584480765814405" lon="3.1433263553774067"><ele>493.0</ele><time>2026-04-18T17:29:43Z</time></trkpt><trkpt lat="45.58446167473928" lon="3.143037286846432"><ele>492.0</ele><time>2026-04-18T17:29:44Z</time></trkpt><trkpt lat="45.58442889617619" lon="3.142748855106162"><ele>491.0</ele><time>2026-04-18T17:29:45Z</time></trkpt><trkpt lat="45.58439862711338" lon="3.1424880846852905"><ele>488.3333333333333</ele><time>2026-04-18T17:29:46Z</time></trkpt><trkpt lat="45.58437762008039" lon="3.142253499558626"><ele>485.66666666666663</ele><time>2026-04-18T17:29:47Z</time></trkpt><trkpt lat="45.584352707012116" lon="3.1420323861915502"><ele>483.0</ele><time>2026-04-18T17:29:48Z</time></trkpt><trkpt lat="45.58430350489739" lon="3.1418303818248923"><ele>483.0</ele><time>2026-04-18T17:29:49Z</time></trkpt><trkpt lat="45.58422528630796" lon="3.1416507400578078"><ele>483.0</ele><time>2026-04-18T17:29:50Z</time></trkpt><trkpt lat="45.58413970275415" lon="3.141498299388105"><ele>483.0</ele><time>2026-04-18T17:29:51Z</time></trkpt><trkpt lat="45.584052410793205" lon="3.141358428875277"><ele>483.0</ele><time>2026-04-18T17:29:52Z</time></trkpt><trkpt lat="45.58396462376732" lon="3.141228389644514"><ele>481.0</ele><time>2026-04-18T17:29:53Z</time></trkpt><trkpt lat="45.583884639013924" lon="3.1411009498902334"><ele>479.0</ele><time>2026-04-18T17:29:54Z</time></trkpt><trkpt lat="45.58381474258024" lon="3.14096996283421"><ele>477.0</ele><time>2026-04-18T17:29:55Z</time></trkpt><trkpt lat="45.583758672769385" lon="3.1408318903537165"><ele>475.0</ele><time>2026-04-18T17:29:56Z</time></trkpt><trkpt lat="45.58373140320783" lon="3.1406815672165305"><ele>475.0</ele><time>2026-04-18T17:29:57Z</time></trkpt><trkpt lat="45.58372734499367" lon="3.1405283172089917"><ele>475.0</ele><time>2026-04-18T17:29:58Z</time></trkpt><trkpt lat="45.58373491587713" lon="3.1403804015311656"><ele>475.0</ele><time>2026-04-18T17:29:59Z</time></trkpt><trkpt lat="45.58375953830433" lon="3.1402257793724604"><ele>475.0</ele><time>2026-04-18T17:30:00Z</time></trkpt><trkpt lat="45.58380335030414" lon="3.1400800282388825"><ele>475.0</ele><time>2026-04-18T17:30:01Z</time></trkpt><trkpt lat="45.58387610790798" lon="3.139940979446451"><ele>481.0</ele><time>2026-04-18T17:30:02Z</time></trkpt><trkpt lat="45.583968853832495" lon="3.139812854661635"><ele>487.0</ele><time>2026-04-18T17:30:03Z</time></trkpt><trkpt lat="45.58407692784352" lon="3.1397172495034025"><ele>493.0</ele><time>2026-04-18T17:30:04Z</time></trkpt><trkpt lat="45.584193910642284" lon="3.1396879518278964"><ele>499.0</ele><time>2026-04-18T17:30:05Z</time></trkpt><trkpt lat="45.58430663886243" lon="3.139663760512861"><ele>499.0</ele><time>2026-04-18T17:30:06Z</time></trkpt><trkpt lat="45.58442210731995" lon="3.1396664752509422"><ele>499.0</ele><time>2026-04-18T17:30:07Z</time></trkpt><trkpt lat="45.58454296606836" lon="3.139676721525992"><ele>499.0</ele><time>2026-04-18T17:30:08Z</time></trkpt><trkpt lat="45.58466462830178" lon="3.1397145173641774"><ele>499.0</ele><time>2026-04-18T17:30:09Z</time></trkpt><trkpt lat="45.584787706011916" lon="3.139744864391086"><ele>496.79999999999995</ele><time>2026-04-18T17:30:10Z</time></trkpt><trkpt lat="45.58489930742039" lon="3.139755846004615"><ele>494.59999999999997</ele><time>2026-04-18T17:30:11Z</time></trkpt><trkpt lat="45.5850116661603" lon="3.139760479744863"><ele>492.4</ele><time>2026-04-18T17:30:12Z</time></trkpt><trkpt lat="45.585119279262734" lon="3.139754000102404"><ele>490.2</ele><time>2026-04-18T17:30:13Z</time></trkpt><trkpt lat="45.58522694542379" lon="3.13973165602091"><ele>488.0</ele><time>2026-04-18T17:30:14Z</time></trkpt><trkpt lat="45.5853371260067" lon="3.1396813424818553"><ele>485.2</ele><time>2026-04-18T17:30:15Z</time></trkpt><trkpt lat="45.58543700337001" lon="3.139605708986717"><ele>482.4</ele><time>2026-04-18T17:30:16Z</time></trkpt><trkpt lat="45.58552718033473" lon="3.139522600350876"><ele>479.59999999999997</ele><time>2026-04-18T17:30:17Z</time></trkpt><trkpt lat="45.585607520364086" lon="3.1394430989209545"><ele>476.79999999999995</ele><time>2026-04-18T17:30:18Z</time></trkpt><trkpt lat="45.58567451086211" lon="3.1393537127218125"><ele>474.0</ele><time>2026-04-18T17:30:19Z</time></trkpt><trkpt lat="45.5857441462569" lon="3.1392483597486356"><ele>474.0</ele><time>2026-04-18T17:30:20Z</time></trkpt><trkpt lat="45.58582637082867" lon="3.139141101580488"><ele>474.0</ele><time>2026-04-18T17:30:21Z</time></trkpt><trkpt lat="45.58590826351408" lon="3.139041579546733"><ele>474.0</ele><time>2026-04-18T17:30:22Z</time></trkpt><trkpt lat="45.58599005911511" lon="3.138953241317968"><ele>474.0</ele><time>2026-04-18T17:30:23Z</time></trkpt><trkpt lat="45.58607360035587" lon="3.1388749630880244"><ele>474.0</ele><time>2026-04-18T17:30:24Z</time></trkpt><trkpt lat="45.58617022358627" lon="3.1388384825534117"><ele>473.75</ele><time>2026-04-18T17:30:25Z</time></trkpt><trkpt lat="45.58626835906895" lon="3.138774503470883"><ele>473.5</ele><time>2026-04-18T17:30:26Z</time></trkpt><trkpt lat="45.586387079526446" lon="3.138749460714857"><ele>473.25</ele><time>2026-04-18T17:30:27Z</time></trkpt><trkpt lat="45.586516802921196" lon="3.138771552680985"><ele>473.0</ele><time>2026-04-18T17:30:28Z</time></trkpt><trkpt lat="45.58665501510252" lon="3.1387869308509684"><ele>473.0</ele><time>2026-04-18T17:30:29Z</time></trkpt><trkpt lat="45.586787827812245" lon="3.1387924904261943"><ele>473.0</ele><time>2026-04-18T17:30:30Z</time></trkpt><trkpt lat="45.58691924256248" lon="3.1388146870563403"><ele>473.0</ele><time>2026-04-18T17:30:31Z</time></trkpt><trkpt lat="45.58704993931455" lon="3.1388346203478763"><ele>473.0</ele><time>2026-04-18T17:30:32Z</time></trkpt><trkpt lat="45.587183816606746" lon="3.1388488978486997"><ele>471.75</ele><time>2026-04-18T17:30:33Z</time></trkpt><trkpt lat="45.58731302321301" lon="3.1388569017441124"><ele>470.5</ele><time>2026-04-18T17:30:34Z</time></trkpt><trkpt lat="45.58743375127242" lon="3.138848238192887"><ele>469.25</ele><time>2026-04-18T17:30:35Z</time></trkpt><trkpt lat="45.587555930282996" lon="3.138821809043395"><ele>468.0</ele><time>2026-04-18T17:30:36Z</time></trkpt><trkpt lat="45.58767726902125" lon="3.1387647555851483"><ele>468.0</ele><time>2026-04-18T17:30:37Z</time></trkpt><trkpt lat="45.587793481274915" lon="3.1386602533422368"><ele>468.0</ele><time>2026-04-18T17:30:38Z</time></trkpt><trkpt lat="45.58790300182531" lon="3.1385279118847538"><ele>468.0</ele><time>2026-04-18T17:30:39Z</time></trkpt><trkpt lat="45.58800241714236" lon="3.138371939463324"><ele>468.0</ele><time>2026-04-18T17:30:40Z</time></trkpt><trkpt lat="45.58809064639912" lon="3.138214799456601"><ele>466.75</ele><time>2026-04-18T17:30:41Z</time></trkpt><trkpt lat="45.588169968803925" lon="3.138069554047441"><ele>465.5</ele><time>2026-04-18T17:30:42Z</time></trkpt><trkpt lat="45.58824864017147" lon="3.137930388856097"><ele>464.25</ele><time>2026-04-18T17:30:43Z</time></trkpt><trkpt lat="45.58832772372776" lon="3.1377951423764325"><ele>463.0</ele><time>2026-04-18T17:30:44Z</time></trkpt><trkpt lat="45.58840593998494" lon="3.1376582724664153"><ele>463.0</ele><time>2026-04-18T17:30:45Z</time></trkpt><trkpt lat="45.58848924799378" lon="3.137522221882449"><ele>463.0</ele><time>2026-04-18T17:30:46Z</time></trkpt><trkpt lat="45.58857412446831" lon="3.1373892560364"><ele>463.0</ele><time>2026-04-18T17:30:47Z</time></trkpt><trkpt lat="45.58865720180524" lon="3.1372640921451014"><ele>463.0</ele><time>2026-04-18T17:30:48Z</time></trkpt><trkpt lat="45.588733445494995" lon="3.137132061284953"><ele>459.75</ele><time>2026-04-18T17:30:49Z</time></trkpt><trkpt lat="45.588800240055704" lon="3.1369806052733296"><ele>456.5</ele><time>2026-04-18T17:30:50Z</time></trkpt><trkpt lat="45.58885446797678" lon="3.1368105503373185"><ele>453.25</ele><time>2026-04-18T17:30:51Z</time></trkpt><trkpt lat="45.58888662119057" lon="3.1366226204816305"><ele>450.0</ele><time>2026-04-18T17:30:52Z</time></trkpt><trkpt lat="45.588886929739225" lon="3.136430355691855"><ele>450.0</ele><time>2026-04-18T17:30:53Z</time></trkpt><trkpt lat="45.588861722237084" lon="3.13623931216716"><ele>450.0</ele><time>2026-04-18T17:30:54Z</time></trkpt><trkpt lat="45.588815161320355" lon="3.1360428473791626"><ele>450.0</ele><time>2026-04-18T17:30:55Z</time></trkpt><trkpt lat="45.588753936760256" lon="3.1358541397303688"><ele>450.0</ele><time>2026-04-18T17:30:56Z</time></trkpt><trkpt lat="45.58869156862645" lon="3.1356879617524385"><ele>451.75</ele><time>2026-04-18T17:30:57Z</time></trkpt><trkpt lat="45.588639452171066" lon="3.1355238031905044"><ele>453.5</ele><time>2026-04-18T17:30:58Z</time></trkpt><trkpt lat="45.58859820285206" lon="3.1353622930369993"><ele>455.25</ele><time>2026-04-18T17:30:59Z</time></trkpt><trkpt lat="45.58856634878595" lon="3.1352048027094326"><ele>457.0</ele><time>2026-04-18T17:31:00Z</time></trkpt><trkpt lat="45.58857155384014" lon="3.1350442554338613"><ele>457.0</ele><time>2026-04-18T17:31:01Z</time></trkpt><trkpt lat="45.588585385898234" lon="3.1348963220393866"><ele>457.00000000000006</ele><time>2026-04-18T17:31:02Z</time></trkpt><trkpt lat="45.5886145542248" lon="3.134760972019454"><ele>457.00000000000006</ele><time>2026-04-18T17:31:03Z</time></trkpt><trkpt lat="45.58864037711747" lon="3.134625091064504"><ele>457.0</ele><time>2026-04-18T17:31:04Z</time></trkpt><trkpt lat="45.58865847217589" lon="3.1344964847144117"><ele>457.0</ele><time>2026-04-18T17:31:05Z</time></trkpt><trkpt lat="45.58864881831081" lon="3.1343681693806573"><ele>456.33333333333337</ele><time>2026-04-18T17:31:06Z</time></trkpt><trkpt lat="45.58864568900583" lon="3.1342488076767716"><ele>455.6666666666667</ele><time>2026-04-18T17:31:07Z</time></trkpt><trkpt lat="45.58863669295706" lon="3.1341367986911095"><ele>455.0</ele><time>2026-04-18T17:31:08Z</time></trkpt><trkpt lat="45.58864617015408" lon="3.134000538732438"><ele>454.33333333333337</ele><time>2026-04-18T17:31:10Z</time></trkpt><trkpt lat="45.58869749679952" lon="3.1339010559824034"><ele>453.6666666666667</ele><time>2026-04-18T17:31:12Z</time></trkpt><trkpt lat="45.58869972982891" lon="3.133762482680755"><ele>453.0</ele><time>2026-04-18T17:31:14Z</time></trkpt><trkpt lat="45.58859908028896" lon="3.1336618308600888"><ele>453.0</ele><time>2026-04-18T17:31:16Z</time></trkpt><trkpt lat="45.58854395814795" lon="3.1335867459857645"><ele>453.0</ele><time>2026-04-18T17:31:17Z</time></trkpt><trkpt lat="45.588520276350394" lon="3.133473662888872"><ele>453.0</ele><time>2026-04-18T17:31:18Z</time></trkpt><trkpt lat="45.588494358536124" lon="3.133330291902545"><ele>453.0</ele><time>2026-04-18T17:31:19Z</time></trkpt><trkpt lat="45.58847798051052" lon="3.133201214299772"><ele>453.0</ele><time>2026-04-18T17:31:20Z</time></trkpt><trkpt lat="45.588468566992674" lon="3.1330749107175975"><ele>453.0</ele><time>2026-04-18T17:31:21Z</time></trkpt><trkpt lat="45.58848344988515" lon="3.1329367935910812"><ele>453.2</ele><time>2026-04-18T17:31:22Z</time></trkpt><trkpt lat="45.58849942584577" lon="3.132792432482279"><ele>453.4</ele><time>2026-04-18T17:31:23Z</time></trkpt><trkpt lat="45.58851142849355" lon="3.1326444188509712"><ele>453.59999999999997</ele><time>2026-04-18T17:31:24Z</time></trkpt><trkpt lat="45.588557666180414" lon="3.1325066050731376"><ele>453.79999999999995</ele><time>2026-04-18T17:31:25Z</time></trkpt><trkpt lat="45.588634976654745" lon="3.132381628002502"><ele>454.0</ele><time>2026-04-18T17:31:26Z</time></trkpt><trkpt lat="45.588707149119585" lon="3.1322422055202366"><ele>457.0</ele><time>2026-04-18T17:31:27Z</time></trkpt><trkpt lat="45.58878277193544" lon="3.1321040483185647"><ele>460.0</ele><time>2026-04-18T17:31:28Z</time></trkpt><trkpt lat="45.588861371486104" lon="3.1319592090427735"><ele>463.0</ele><time>2026-04-18T17:31:29Z</time></trkpt><trkpt lat="45.588937500937305" lon="3.1318185885445162"><ele>466.0</ele><time>2026-04-18T17:31:30Z</time></trkpt><trkpt lat="45.589035623498866" lon="3.1316207151844657"><ele>463.8</ele><time>2026-04-18T17:31:32Z</time></trkpt><trkpt lat="45.58910446075579" lon="3.131490146935166"><ele>461.6</ele><time>2026-04-18T17:31:33Z</time></trkpt><trkpt lat="45.58916769108239" lon="3.1313698611054837"><ele>459.4</ele><time>2026-04-18T17:31:34Z</time></trkpt><trkpt lat="45.589215728034844" lon="3.1312483754376643"><ele>457.2</ele><time>2026-04-18T17:31:35Z</time></trkpt><trkpt lat="45.58926153121919" lon="3.1311187732405856"><ele>455.0</ele><time>2026-04-18T17:31:36Z</time></trkpt><trkpt lat="45.58930578733988" lon="3.1309955489009775"><ele>455.0</ele><time>2026-04-18T17:31:37Z</time></trkpt><trkpt lat="45.58933406023555" lon="3.130879561645879"><ele>455.0</ele><time>2026-04-18T17:31:38Z</time></trkpt><trkpt lat="45.58935685406082" lon="3.1307540353728376"><ele>455.0</ele><time>2026-04-18T17:31:39Z</time></trkpt><trkpt lat="45.58936701019417" lon="3.1306205878093274"><ele>455.0</ele><time>2026-04-18T17:31:40Z</time></trkpt><trkpt lat="45.58935823091651" lon="3.1304780005066726"><ele>455.0</ele><time>2026-04-18T17:31:41Z</time></trkpt><trkpt lat="45.589327629168615" lon="3.130350764775265"><ele>455.2</ele><time>2026-04-18T17:31:42Z</time></trkpt><trkpt lat="45.58929725503489" lon="3.130244277284587"><ele>455.4</ele><time>2026-04-18T17:31:43Z</time></trkpt><trkpt lat="45.58925692350897" lon="3.1301446026942887"><ele>455.6</ele><time>2026-04-18T17:31:44Z</time></trkpt><trkpt lat="45.589229089401194" lon="3.130043368047341"><ele>455.8</ele><time>2026-04-18T17:31:45Z</time></trkpt><trkpt lat="45.58922555325883" lon="3.12992436033349"><ele>456.0</ele><time>2026-04-18T17:31:46Z</time></trkpt><trkpt lat="45.58933160216708" lon="3.1297124740605686"><ele>457.6</ele><time>2026-04-18T17:31:48Z</time></trkpt><trkpt lat="45.58937659591835" lon="3.1295814467762653"><ele>459.20000000000005</ele><time>2026-04-18T17:31:49Z</time></trkpt><trkpt lat="45.5894200785005" lon="3.129458210338922"><ele>460.79999999999995</ele><time>2026-04-18T17:31:50Z</time></trkpt><trkpt lat="45.589465210658986" lon="3.129327748772943"><ele>462.4</ele><time>2026-04-18T17:31:51Z</time></trkpt><trkpt lat="45.589552521695865" lon="3.129226232939125"><ele>464.0</ele><time>2026-04-18T17:31:52Z</time></trkpt><trkpt lat="45.58965002492899" lon="3.1291500945433377"><ele>464.0</ele><time>2026-04-18T17:31:53Z</time></trkpt><trkpt lat="45.58977091257372" lon="3.1291215453263934"><ele>464.0</ele><time>2026-04-18T17:31:54Z</time></trkpt><trkpt lat="45.589894132578955" lon="3.129141854310482"><ele>464.0</ele><time>2026-04-18T17:31:55Z</time></trkpt><trkpt lat="45.59002320221978" lon="3.1291057235660893"><ele>464.0</ele><time>2026-04-18T17:31:56Z</time></trkpt><trkpt lat="45.59015574079899" lon="3.1290567487535865"><ele>464.0</ele><time>2026-04-18T17:31:57Z</time></trkpt><trkpt lat="45.59028693328933" lon="3.129064599004576"><ele>464.0</ele><time>2026-04-18T17:31:58Z</time></trkpt><trkpt lat="45.59042221012088" lon="3.1290656289016745"><ele>464.0</ele><time>2026-04-18T17:31:59Z</time></trkpt><trkpt lat="45.590568754182456" lon="3.1290605201893595"><ele>464.0</ele><time>2026-04-18T17:32:00Z</time></trkpt><trkpt lat="45.590722380701735" lon="3.1290221836810956"><ele>468.0</ele><time>2026-04-18T17:32:01Z</time></trkpt><trkpt lat="45.590871718394716" lon="3.1289574387822157"><ele>472.0</ele><time>2026-04-18T17:32:02Z</time></trkpt><trkpt lat="45.59101796300978" lon="3.1288473986618377"><ele>476.0</ele><time>2026-04-18T17:32:03Z</time></trkpt><trkpt lat="45.59115256413302" lon="3.128762784720966"><ele>476.8</ele><time>2026-04-18T17:32:04Z</time></trkpt><trkpt lat="45.59126218956495" lon="3.1287073186615517"><ele>477.6</ele><time>2026-04-18T17:32:05Z</time></trkpt><trkpt lat="45.59136634702915" lon="3.128687224733239"><ele>478.4</ele><time>2026-04-18T17:32:06Z</time></trkpt><trkpt lat="45.591464188394674" lon="3.1287229964219954"><ele>479.2</ele><time>2026-04-18T17:32:07Z</time></trkpt><trkpt lat="45.59155564633525" lon="3.1288035443395352"><ele>480.0</ele><time>2026-04-18T17:32:08Z</time></trkpt><trkpt lat="45.59165440519004" lon="3.1289091933796507"><ele>480.0</ele><time>2026-04-18T17:32:09Z</time></trkpt><trkpt lat="45.591764744478205" lon="3.129005362943648"><ele>480.0</ele><time>2026-04-18T17:32:10Z</time></trkpt><trkpt lat="45.59187094252296" lon="3.129126435755348"><ele>480.0</ele><time>2026-04-18T17:32:11Z</time></trkpt><trkpt lat="45.59197925280773" lon="3.1292447316688965"><ele>480.0</ele><time>2026-04-18T17:32:12Z</time></trkpt><trkpt lat="45.5920880106536" lon="3.129345192559144"><ele>479.75</ele><time>2026-04-18T17:32:13Z</time></trkpt><trkpt lat="45.59220246575194" lon="3.1294220212944706"><ele>479.5</ele><time>2026-04-18T17:32:14Z</time></trkpt><trkpt lat="45.592323159344375" lon="3.1294503014142627"><ele>479.25</ele><time>2026-04-18T17:32:15Z</time></trkpt><trkpt lat="45.592454584672055" lon="3.1294552418300614"><ele>479.0</ele><time>2026-04-18T17:32:16Z</time></trkpt><trkpt lat="45.59258943866813" lon="3.129432649429955"><ele>479.0</ele><time>2026-04-18T17:32:17Z</time></trkpt><trkpt lat="45.59272862688889" lon="3.129386615586684"><ele>479.0</ele><time>2026-04-18T17:32:18Z</time></trkpt><trkpt lat="45.59287421751449" lon="3.1293065620240226"><ele>479.0</ele><time>2026-04-18T17:32:19Z</time></trkpt><trkpt lat="45.59301665317257" lon="3.1292085281969095"><ele>480.0</ele><time>2026-04-18T17:32:20Z</time></trkpt><trkpt lat="45.59316953276142" lon="3.129103177595671"><ele>481.0</ele><time>2026-04-18T17:32:21Z</time></trkpt><trkpt lat="45.5933212750821" lon="3.128993871242848"><ele>482.0</ele><time>2026-04-18T17:32:22Z</time></trkpt><trkpt lat="45.59345354216417" lon="3.1289081644937324"><ele>482.25</ele><time>2026-04-18T17:32:23Z</time></trkpt><trkpt lat="45.593581213097636" lon="3.128846749696871"><ele>482.5</ele><time>2026-04-18T17:32:24Z</time></trkpt><trkpt lat="45.59370520491017" lon="3.128803724976814"><ele>482.75</ele><time>2026-04-18T17:32:25Z</time></trkpt><trkpt lat="45.59383750729021" lon="3.12875784870069"><ele>483.0</ele><time>2026-04-18T17:32:26Z</time></trkpt><trkpt lat="45.59396714551521" lon="3.1286936862424195"><ele>483.0</ele><time>2026-04-18T17:32:27Z</time></trkpt><trkpt lat="45.59409133575721" lon="3.128610135684067"><ele>483.0</ele><time>2026-04-18T17:32:28Z</time></trkpt><trkpt lat="45.594196077795296" lon="3.12848656546659"><ele>483.0</ele><time>2026-04-18T17:32:29Z</time></trkpt><trkpt lat="45.59427178248322" lon="3.1283340099784938"><ele>483.0</ele><time>2026-04-18T17:32:30Z</time></trkpt><trkpt lat="45.59432054572753" lon="3.1281585700362022"><ele>485.0</ele><time>2026-04-18T17:32:31Z</time></trkpt><trkpt lat="45.59435871680522" lon="3.127969057394737"><ele>487.0</ele><time>2026-04-18T17:32:32Z</time></trkpt><trkpt lat="45.59439637658659" lon="3.127785500171635"><ele>489.0</ele><time>2026-04-18T17:32:33Z</time></trkpt><trkpt lat="45.59444014292621" lon="3.127594919328123"><ele>491.0</ele><time>2026-04-18T17:32:34Z</time></trkpt><trkpt lat="45.59448187068832" lon="3.1273968594103776"><ele>492.3333333333333</ele><time>2026-04-18T17:32:35Z</time></trkpt><trkpt lat="45.59452599056752" lon="3.1271961608105143"><ele>493.66666666666663</ele><time>2026-04-18T17:32:36Z</time></trkpt><trkpt lat="45.59457443536642" lon="3.126995815444556"><ele>495.0</ele><time>2026-04-18T17:32:37Z</time></trkpt><trkpt lat="45.59463443464867" lon="3.1267908038658074"><ele>495.0</ele><time>2026-04-18T17:32:38Z</time></trkpt><trkpt lat="45.594701850299735" lon="3.1265875802267"><ele>495.0</ele><time>2026-04-18T17:32:39Z</time></trkpt><trkpt lat="45.594793644668165" lon="3.1264207009204195"><ele>495.0</ele><time>2026-04-18T17:32:40Z</time></trkpt><trkpt lat="45.59487782581872" lon="3.126260807529123"><ele>495.0</ele><time>2026-04-18T17:32:41Z</time></trkpt><trkpt lat="45.59500486014586" lon="3.1261618841034355"><ele>495.25</ele><time>2026-04-18T17:32:42Z</time></trkpt><trkpt lat="45.59514637605916" lon="3.126168272477293"><ele>495.5</ele><time>2026-04-18T17:32:43Z</time></trkpt><trkpt lat="45.595292307139" lon="3.126168936152696"><ele>495.75</ele><time>2026-04-18T17:32:44Z</time></trkpt><trkpt lat="45.595449276373195" lon="3.126171246003162"><ele>496.0</ele><time>2026-04-18T17:32:45Z</time></trkpt><trkpt lat="45.59559330846011" lon="3.126235940427021"><ele>496.0</ele><time>2026-04-18T17:32:46Z</time></trkpt><trkpt lat="45.59574566267463" lon="3.1263004187250183"><ele>496.0</ele><time>2026-04-18T17:32:47Z</time></trkpt><trkpt lat="45.59590344039645" lon="3.126357242668468"><ele>496.0</ele><time>2026-04-18T17:32:48Z</time></trkpt><trkpt lat="45.596039800727254" lon="3.126438635223557"><ele>496.0</ele><time>2026-04-18T17:32:49Z</time></trkpt><trkpt lat="45.596167214762914" lon="3.126472990178962"><ele>496.0</ele><time>2026-04-18T17:32:50Z</time></trkpt><trkpt lat="45.596289233008335" lon="3.126460569102587"><ele>496.0</ele><time>2026-04-18T17:32:51Z</time></trkpt><trkpt lat="45.59640992389337" lon="3.1264027633270457"><ele>496.0</ele><time>2026-04-18T17:32:52Z</time></trkpt><trkpt lat="45.5965185137014" lon="3.1263106691755107"><ele>496.75</ele><time>2026-04-18T17:32:53Z</time></trkpt><trkpt lat="45.59661960150557" lon="3.1261823227083076"><ele>497.5</ele><time>2026-04-18T17:32:54Z</time></trkpt><trkpt lat="45.59669734167551" lon="3.1260182768034697"><ele>498.25</ele><time>2026-04-18T17:32:55Z</time></trkpt><trkpt lat="45.59675721536159" lon="3.125820282701656"><ele>499.0</ele><time>2026-04-18T17:32:56Z</time></trkpt><trkpt lat="45.596789107301014" lon="3.1255790235794665"><ele>500.0</ele><time>2026-04-18T17:32:57Z</time></trkpt><trkpt lat="45.59681545134733" lon="3.125342852990512"><ele>501.0</ele><time>2026-04-18T17:32:58Z</time></trkpt><trkpt lat="45.59688906571024" lon="3.1251683203212757"><ele>502.0</ele><time>2026-04-18T17:32:59Z</time></trkpt><trkpt lat="45.59697704670238" lon="3.125036682892038"><ele>503.0</ele><time>2026-04-18T17:33:00Z</time></trkpt><trkpt lat="45.59708723811529" lon="3.124983660819674"><ele>503.0</ele><time>2026-04-18T17:33:01Z</time></trkpt><trkpt lat="45.597196748003846" lon="3.125001607769743"><ele>503.0</ele><time>2026-04-18T17:33:02Z</time></trkpt><trkpt lat="45.59728637456193" lon="3.125095010716459"><ele>503.0</ele><time>2026-04-18T17:33:03Z</time></trkpt><trkpt lat="45.59740394262231" lon="3.125188397997836"><ele>503.0</ele><time>2026-04-18T17:33:04Z</time></trkpt><trkpt lat="45.597544110899285" lon="3.125242306898433"><ele>503.0</ele><time>2026-04-18T17:33:05Z</time></trkpt><trkpt lat="45.59770570888262" lon="3.125273735663605"><ele>503.0</ele><time>2026-04-18T17:33:06Z</time></trkpt><trkpt lat="45.597876513947696" lon="3.125263642207639"><ele>503.0</ele><time>2026-04-18T17:33:07Z</time></trkpt><trkpt lat="45.59803514398437" lon="3.125308104704225"><ele>505.3333333333333</ele><time>2026-04-18T17:33:08Z</time></trkpt><trkpt lat="45.598189157825814" lon="3.125363757258641"><ele>507.66666666666663</ele><time>2026-04-18T17:33:09Z</time></trkpt><trkpt lat="45.598343409107294" lon="3.125405570396457"><ele>510.0</ele><time>2026-04-18T17:33:10Z</time></trkpt><trkpt lat="45.59849815853394" lon="3.1254739094732398"><ele>510.0</ele><time>2026-04-18T17:33:11Z</time></trkpt><trkpt lat="45.59866223464463" lon="3.125546020143821"><ele>510.0</ele><time>2026-04-18T17:33:12Z</time></trkpt><trkpt lat="45.59883098193511" lon="3.1256126607470645"><ele>510.0</ele><time>2026-04-18T17:33:13Z</time></trkpt><trkpt lat="45.59898974845682" lon="3.1256615165823547"><ele>510.25</ele><time>2026-04-18T17:33:14Z</time></trkpt><trkpt lat="45.59912889587122" lon="3.125651310707954"><ele>510.5</ele><time>2026-04-18T17:33:15Z</time></trkpt><trkpt lat="45.59926534142839" lon="3.1255904556554492"><ele>510.75</ele><time>2026-04-18T17:33:16Z</time></trkpt><trkpt lat="45.59940113487048" lon="3.125508084237676"><ele>511.0</ele><time>2026-04-18T17:33:17Z</time></trkpt><trkpt lat="45.599531659150266" lon="3.1253966296489337"><ele>512.6666666666667</ele><time>2026-04-18T17:33:18Z</time></trkpt><trkpt lat="45.59965101443171" lon="3.125249262181946"><ele>514.3333333333334</ele><time>2026-04-18T17:33:19Z</time></trkpt><trkpt lat="45.599748985571615" lon="3.125081901138036"><ele>516.0</ele><time>2026-04-18T17:33:20Z</time></trkpt><trkpt lat="45.599821766133395" lon="3.124885881535584"><ele>516.6666666666666</ele><time>2026-04-18T17:33:21Z</time></trkpt><trkpt lat="45.59986736041784" lon="3.1246705556669845"><ele>517.3333333333333</ele><time>2026-04-18T17:33:22Z</time></trkpt><trkpt lat="45.59989113069655" lon="3.124450391947432"><ele>518.0</ele><time>2026-04-18T17:33:23Z</time></trkpt><trkpt lat="45.59990214799882" lon="3.1242220585077605"><ele>518.3333333333333</ele><time>2026-04-18T17:33:24Z</time></trkpt><trkpt lat="45.59989464067494" lon="3.123994442809538"><ele>518.6666666666666</ele><time>2026-04-18T17:33:25Z</time></trkpt><trkpt lat="45.59988236375569" lon="3.1237502854734465"><ele>519.0</ele><time>2026-04-18T17:33:26Z</time></trkpt><trkpt lat="45.59987339953059" lon="3.1235229275505936"><ele>519.0</ele><time>2026-04-18T17:33:27Z</time></trkpt><trkpt lat="45.599867539291594" lon="3.123280386067408"><ele>519.0</ele><time>2026-04-18T17:33:28Z</time></trkpt><trkpt lat="45.599889199469246" lon="3.1230460204961004"><ele>519.0</ele><time>2026-04-18T17:33:29Z</time></trkpt><trkpt lat="45.59995497044702" lon="3.1228404598923323"><ele>519.3333333333334</ele><time>2026-04-18T17:33:30Z</time></trkpt><trkpt lat="45.60004878320544" lon="3.12266020187609"><ele>519.6666666666667</ele><time>2026-04-18T17:33:31Z</time></trkpt><trkpt lat="45.600165504867455" lon="3.122503381612811"><ele>520.0</ele><time>2026-04-18T17:33:32Z</time></trkpt><trkpt lat="45.600284798158164" lon="3.122356871929325"><ele>520.0</ele><time>2026-04-18T17:33:33Z</time></trkpt><trkpt lat="45.60040271527591" lon="3.1222047078856785"><ele>520.0</ele><time>2026-04-18T17:33:34Z</time></trkpt><trkpt lat="45.60052704516045" lon="3.122059357592966"><ele>520.0</ele><time>2026-04-18T17:33:35Z</time></trkpt><trkpt lat="45.60065474670618" lon="3.12191096806194"><ele>520.0</ele><time>2026-04-18T17:33:36Z</time></trkpt><trkpt lat="45.60078635511556" lon="3.1217583667965063"><ele>520.0</ele><time>2026-04-18T17:33:37Z</time></trkpt><trkpt lat="45.600905037500134" lon="3.121614823053447"><ele>520.0</ele><time>2026-04-18T17:33:38Z</time></trkpt><trkpt lat="45.6009985890251" lon="3.121485910537722"><ele>521.6666666666667</ele><time>2026-04-18T17:33:39Z</time></trkpt><trkpt lat="45.60108530759546" lon="3.1213267427905507"><ele>523.3333333333334</ele><time>2026-04-18T17:33:40Z</time></trkpt><trkpt lat="45.60116279656667" lon="3.1211361589304873"><ele>525.0</ele><time>2026-04-18T17:33:41Z</time></trkpt><trkpt lat="45.60122325441974" lon="3.120921130715652"><ele>526.0</ele><time>2026-04-18T17:33:42Z</time></trkpt><trkpt lat="45.60127314921256" lon="3.1206901501739295"><ele>527.0</ele><time>2026-04-18T17:33:43Z</time></trkpt><trkpt lat="45.60132717209918" lon="3.1204573017928223"><ele>528.0</ele><time>2026-04-18T17:33:44Z</time></trkpt><trkpt lat="45.60137776431904" lon="3.1202560095042533"><ele>528.0</ele><time>2026-04-18T17:33:45Z</time></trkpt><trkpt lat="45.60142687352659" lon="3.1200701362065786"><ele>528.0</ele><time>2026-04-18T17:33:46Z</time></trkpt><trkpt lat="45.601482019009445" lon="3.1198935432554826"><ele>528.0</ele><time>2026-04-18T17:33:47Z</time></trkpt><trkpt lat="45.60154527857486" lon="3.1197201701110915"><ele>528.0</ele><time>2026-04-18T17:33:48Z</time></trkpt><trkpt lat="45.60162651531112" lon="3.119559178719942"><ele>529.0</ele><time>2026-04-18T17:33:49Z</time></trkpt><trkpt lat="45.60173550424431" lon="3.119420388098896"><ele>530.0</ele><time>2026-04-18T17:33:50Z</time></trkpt><trkpt lat="45.60188300304028" lon="3.119316508156483"><ele>531.0</ele><time>2026-04-18T17:33:51Z</time></trkpt><trkpt lat="45.602035686739605" lon="3.119215470581768"><ele>531.0</ele><time>2026-04-18T17:33:52Z</time></trkpt><trkpt lat="45.60219272968501" lon="3.119116477265861"><ele>531.0</ele><time>2026-04-18T17:33:53Z</time></trkpt><trkpt lat="45.60235412630058" lon="3.1189983780969506"><ele>531.0</ele><time>2026-04-18T17:33:54Z</time></trkpt><trkpt lat="45.60252195371131" lon="3.1188958900997057"><ele>533.0</ele><time>2026-04-18T17:33:55Z</time></trkpt><trkpt lat="45.602694833121795" lon="3.1187905583223716"><ele>535.0</ele><time>2026-04-18T17:33:56Z</time></trkpt><trkpt lat="45.60286715816198" lon="3.1186850050871113"><ele>537.0</ele><time>2026-04-18T17:33:57Z</time></trkpt><trkpt lat="45.603040927853264" lon="3.118572186290768"><ele>537.3333333333334</ele><time>2026-04-18T17:33:58Z</time></trkpt><trkpt lat="45.60321458952953" lon="3.1184573101694646"><ele>537.6666666666667</ele><time>2026-04-18T17:33:59Z</time></trkpt><trkpt lat="45.60338338278734" lon="3.1183412767050123"><ele>538.0</ele><time>2026-04-18T17:34:00Z</time></trkpt><trkpt lat="45.603545136207465" lon="3.1182217211100687"><ele>540.25</ele><time>2026-04-18T17:34:01Z</time></trkpt><trkpt lat="45.60368792539997" lon="3.118112495737509"><ele>542.5</ele><time>2026-04-18T17:34:02Z</time></trkpt><trkpt lat="45.60381338749569" lon="3.118013095278576"><ele>544.75</ele><time>2026-04-18T17:34:03Z</time></trkpt><trkpt lat="45.603927795394824" lon="3.1179142687322634"><ele>547.0</ele><time>2026-04-18T17:34:04Z</time></trkpt><trkpt lat="45.6040453560017" lon="3.117809798207075"><ele>547.0</ele><time>2026-04-18T17:34:05Z</time></trkpt><trkpt lat="45.60416558948384" lon="3.1176992592742954"><ele>547.0</ele><time>2026-04-18T17:34:06Z</time></trkpt><trkpt lat="45.60428993343121" lon="3.117576121308317"><ele>547.0</ele><time>2026-04-18T17:34:07Z</time></trkpt><trkpt lat="45.604407544499345" lon="3.117451829661395"><ele>547.0</ele><time>2026-04-18T17:34:08Z</time></trkpt><trkpt lat="45.604535934900554" lon="3.1173177421947025"><ele>547.6666666666667</ele><time>2026-04-18T17:34:09Z</time></trkpt><trkpt lat="45.60466158426185" lon="3.117188401106741"><ele>548.3333333333334</ele><time>2026-04-18T17:34:10Z</time></trkpt><trkpt lat="45.60479179464122" lon="3.1170599877468836"><ele>549.0</ele><time>2026-04-18T17:34:11Z</time></trkpt><trkpt lat="45.60491438731823" lon="3.1169341643953916"><ele>549.0</ele><time>2026-04-18T17:34:12Z</time></trkpt><trkpt lat="45.605036648238645" lon="3.1168128662580425"><ele>549.0</ele><time>2026-04-18T17:34:13Z</time></trkpt><trkpt lat="45.60515814796555" lon="3.116690443552346"><ele>549.0</ele><time>2026-04-18T17:34:14Z</time></trkpt><trkpt lat="45.605281127169285" lon="3.116571695948901"><ele>549.0</ele><time>2026-04-18T17:34:15Z</time></trkpt><trkpt lat="45.60540021750416" lon="3.116453781422888"><ele>550.25</ele><time>2026-04-18T17:34:16Z</time></trkpt><trkpt lat="45.60552058408745" lon="3.116329087047237"><ele>551.5</ele><time>2026-04-18T17:34:17Z</time></trkpt><trkpt lat="45.60564175494626" lon="3.116217936607215"><ele>552.75</ele><time>2026-04-18T17:34:18Z</time></trkpt><trkpt lat="45.605762966172726" lon="3.1160974018288834"><ele>554.0</ele><time>2026-04-18T17:34:19Z</time></trkpt><trkpt lat="45.60588041415174" lon="3.115974297416016"><ele>554.0</ele><time>2026-04-18T17:34:20Z</time></trkpt><trkpt lat="45.605989061629614" lon="3.115821932405252"><ele>554.0</ele><time>2026-04-18T17:34:21Z</time></trkpt><trkpt lat="45.60607719773574" lon="3.1156572708510715"><ele>554.0</ele><time>2026-04-18T17:34:22Z</time></trkpt><trkpt lat="45.6061589508557" lon="3.1154767652941526"><ele>554.0</ele><time>2026-04-18T17:34:23Z</time></trkpt><trkpt lat="45.60623829437281" lon="3.115305629162817"><ele>555.5</ele><time>2026-04-18T17:34:24Z</time></trkpt><trkpt lat="45.606318368464024" lon="3.1151274315125663"><ele>557.0</ele><time>2026-04-18T17:34:25Z</time></trkpt><trkpt lat="45.60640007505768" lon="3.114956095064726"><ele>558.5</ele><time>2026-04-18T17:34:26Z</time></trkpt><trkpt lat="45.606486640256534" lon="3.114780651558433"><ele>560.0</ele><time>2026-04-18T17:34:27Z</time></trkpt><trkpt lat="45.606578034825795" lon="3.1146146439624722"><ele>561.0</ele><time>2026-04-18T17:34:28Z</time></trkpt><trkpt lat="45.60667479269638" lon="3.1144412774482917"><ele>562.0</ele><time>2026-04-18T17:34:29Z</time></trkpt><trkpt lat="45.606777636652204" lon="3.114273476386588"><ele>563.0</ele><time>2026-04-18T17:34:30Z</time></trkpt><trkpt lat="45.60688777734777" lon="3.114108136486713"><ele>564.0</ele><time>2026-04-18T17:34:31Z</time></trkpt><trkpt lat="45.6069976997093" lon="3.1139482676983308"><ele>565.0</ele><time>2026-04-18T17:34:32Z</time></trkpt><trkpt lat="45.6071058677711" lon="3.113781532437109"><ele>566.0</ele><time>2026-04-18T17:34:33Z</time></trkpt><trkpt lat="45.60720777861912" lon="3.1136104576169754"><ele>566.0</ele><time>2026-04-18T17:34:34Z</time></trkpt><trkpt lat="45.607308311889945" lon="3.113442789559699"><ele>566.0</ele><time>2026-04-18T17:34:35Z</time></trkpt><trkpt lat="45.60740956831519" lon="3.1132782884794836"><ele>566.0</ele><time>2026-04-18T17:34:36Z</time></trkpt><trkpt lat="45.60752549808286" lon="3.1131232223262173"><ele>567.0</ele><time>2026-04-18T17:34:37Z</time></trkpt><trkpt lat="45.60764974709135" lon="3.1129920911604136"><ele>568.0</ele><time>2026-04-18T17:34:38Z</time></trkpt><trkpt lat="45.607808102918874" lon="3.1129372194392144"><ele>569.0</ele><time>2026-04-18T17:34:39Z</time></trkpt><trkpt lat="45.607969180148864" lon="3.112905229890919"><ele>569.5</ele><time>2026-04-18T17:34:40Z</time></trkpt><trkpt lat="45.608124438195546" lon="3.112877640346013"><ele>570.0</ele><time>2026-04-18T17:34:41Z</time></trkpt><trkpt lat="45.60826687076033" lon="3.1128299863737605"><ele>570.5</ele><time>2026-04-18T17:34:42Z</time></trkpt><trkpt lat="45.608410815227096" lon="3.1128290864335946"><ele>571.0</ele><time>2026-04-18T17:34:43Z</time></trkpt><trkpt lat="45.60853367960214" lon="3.1128095268109948"><ele>571.0</ele><time>2026-04-18T17:34:44Z</time></trkpt><trkpt lat="45.6086447388412" lon="3.112789423485109"><ele>571.0</ele><time>2026-04-18T17:34:45Z</time></trkpt><trkpt lat="45.608745328774496" lon="3.1127475011419308"><ele>571.0</ele><time>2026-04-18T17:34:46Z</time></trkpt><trkpt lat="45.60885662946004" lon="3.112729535297462"><ele>571.0</ele><time>2026-04-18T17:34:47Z</time></trkpt><trkpt lat="45.60896443387754" lon="3.112713923993641"><ele>571.0</ele><time>2026-04-18T17:34:48Z</time></trkpt><trkpt lat="45.60907964295028" lon="3.1126928253159263"><ele>573.0</ele><time>2026-04-18T17:34:49Z</time></trkpt><trkpt lat="45.60919230438824" lon="3.112672954493743"><ele>575.0</ele><time>2026-04-18T17:34:50Z</time></trkpt><trkpt lat="45.60931564810046" lon="3.112674726199981"><ele>577.0</ele><time>2026-04-18T17:34:51Z</time></trkpt><trkpt lat="45.60943309612027" lon="3.1126577969522327"><ele>579.0</ele><time>2026-04-18T17:34:52Z</time></trkpt><trkpt lat="45.60954760101807" lon="3.112639705399046"><ele>580.6</ele><time>2026-04-18T17:34:53Z</time></trkpt><trkpt lat="45.60967415568416" lon="3.1126197100036923"><ele>582.2</ele><time>2026-04-18T17:34:54Z</time></trkpt><trkpt lat="45.609795692063464" lon="3.112600507494947"><ele>583.8000000000001</ele><time>2026-04-18T17:34:55Z</time></trkpt><trkpt lat="45.609900616420894" lon="3.1125839296483333"><ele>585.4</ele><time>2026-04-18T17:34:56Z</time></trkpt><trkpt lat="45.60999195684408" lon="3.1125765401981265"><ele>587.0</ele><time>2026-04-18T17:34:57Z</time></trkpt><trkpt lat="45.61008098724039" lon="3.112560582160759"><ele>587.0</ele><time>2026-04-18T17:34:58Z</time></trkpt><trkpt lat="45.610157283933745" lon="3.1125759370688035"><ele>587.0</ele><time>2026-04-18T17:34:59Z</time></trkpt><trkpt lat="45.61028324992535" lon="3.1126041303889744"><ele>587.0</ele><time>2026-04-18T17:35:01Z</time></trkpt><trkpt lat="45.61039855933645" lon="3.112641683670237"><ele>587.0</ele><time>2026-04-18T17:35:03Z</time></trkpt><trkpt lat="45.61047111350592" lon="3.112666476660226"><ele>587.0</ele><time>2026-04-18T17:35:04Z</time></trkpt><trkpt lat="45.6105699767034" lon="3.112695224297773"><ele>587.1666666666666</ele><time>2026-04-18T17:35:05Z</time></trkpt><trkpt lat="45.61066122464886" lon="3.1127207476716516"><ele>587.3333333333333</ele><time>2026-04-18T17:35:06Z</time></trkpt><trkpt lat="45.61074026323025" lon="3.1127437377079077"><ele>587.5</ele><time>2026-04-18T17:35:07Z</time></trkpt><trkpt lat="45.61082842270865" lon="3.11279964249794"><ele>587.6666666666666</ele><time>2026-04-18T17:35:08Z</time></trkpt><trkpt lat="45.61090242039565" lon="3.1128049944308938"><ele>587.8333333333334</ele><time>2026-04-18T17:35:09Z</time></trkpt><trkpt lat="45.61096583585865" lon="3.1128252303521853"><ele>588.0</ele><time>2026-04-18T17:35:10Z</time></trkpt><trkpt lat="45.611056544761645" lon="3.1128802404704534"><ele>588.0</ele><time>2026-04-18T17:35:12Z</time></trkpt><trkpt lat="45.611138018816455" lon="3.1129085940881427"><ele>588.0</ele><time>2026-04-18T17:35:14Z</time></trkpt><trkpt lat="45.61121697048219" lon="3.112929302449527"><ele>588.0</ele><time>2026-04-18T17:35:16Z</time></trkpt><trkpt lat="45.61134495774659" lon="3.1129241926823767"><ele>588.0</ele><time>2026-04-18T17:35:18Z</time></trkpt><trkpt lat="45.61142887839468" lon="3.112926028489724"><ele>588.0</ele><time>2026-04-18T17:35:19Z</time></trkpt><trkpt lat="45.61152423494616" lon="3.112920877324705"><ele>587.6666666666666</ele><time>2026-04-18T17:35:20Z</time></trkpt><trkpt lat="45.611618115578175" lon="3.112896911049645"><ele>587.3333333333334</ele><time>2026-04-18T17:35:21Z</time></trkpt><trkpt lat="45.6117037898702" lon="3.1128704275544417"><ele>587.0</ele><time>2026-04-18T17:35:22Z</time></trkpt><trkpt lat="45.61177402066745" lon="3.1128481485407096"><ele>586.6666666666667</ele><time>2026-04-18T17:35:23Z</time></trkpt><trkpt lat="45.61184516889559" lon="3.11282220688072"><ele>586.3333333333334</ele><time>2026-04-18T17:35:24Z</time></trkpt><trkpt lat="45.61191284137773" lon="3.1127961978974836"><ele>586.0</ele><time>2026-04-18T17:35:25Z</time></trkpt><trkpt lat="45.61198481495311" lon="3.1127601221627814"><ele>585.8333333333334</ele><time>2026-04-18T17:35:26Z</time></trkpt><trkpt lat="45.612056790925394" lon="3.11271572917358"><ele>585.6666666666667</ele><time>2026-04-18T17:35:27Z</time></trkpt><trkpt lat="45.612134976496215" lon="3.112659180891485"><ele>585.5</ele><time>2026-04-18T17:35:28Z</time></trkpt><trkpt lat="45.612206485127544" lon="3.112579660495279"><ele>585.3333333333334</ele><time>2026-04-18T17:35:29Z</time></trkpt><trkpt lat="45.61227067111375" lon="3.1124891970418864"><ele>585.1666666666666</ele><time>2026-04-18T17:35:30Z</time></trkpt><trkpt lat="45.61233430379488" lon="3.1123819880774937"><ele>585.0</ele><time>2026-04-18T17:35:31Z</time></trkpt><trkpt lat="45.61239755490506" lon="3.112265090689404"><ele>585.5</ele><time>2026-04-18T17:35:32Z</time></trkpt><trkpt lat="45.61245230513705" lon="3.1121532287072853"><ele>586.0</ele><time>2026-04-18T17:35:33Z</time></trkpt><trkpt lat="45.61249955925157" lon="3.11204453118921"><ele>586.5</ele><time>2026-04-18T17:35:34Z</time></trkpt><trkpt lat="45.61253293319172" lon="3.1119409687796824"><ele>587.0</ele><time>2026-04-18T17:35:35Z</time></trkpt><trkpt lat="45.61255733323818" lon="3.1118310071562796"><ele>587.5</ele><time>2026-04-18T17:35:36Z</time></trkpt><trkpt lat="45.61257769420465" lon="3.1117096486666904"><ele>588.0</ele><time>2026-04-18T17:35:37Z</time></trkpt><trkpt lat="45.61259852811458" lon="3.1115969336211955"><ele>587.8</ele><time>2026-04-18T17:35:38Z</time></trkpt><trkpt lat="45.61262711224898" lon="3.111464908523643"><ele>587.5999999999999</ele><time>2026-04-18T17:35:39Z</time></trkpt><trkpt lat="45.61265193170286" lon="3.1113341791262887"><ele>587.4000000000001</ele><time>2026-04-18T17:35:40Z</time></trkpt><trkpt lat="45.61267019281408" lon="3.1111765910422053"><ele>587.2</ele><time>2026-04-18T17:35:41Z</time></trkpt><trkpt lat="45.61269201458234" lon="3.111015889979322"><ele>587.0</ele><time>2026-04-18T17:35:42Z</time></trkpt><trkpt lat="45.61272098902911" lon="3.110854939098419"><ele>587.0</ele><time>2026-04-18T17:35:43Z</time></trkpt><trkpt lat="45.61277109994334" lon="3.110699204715577"><ele>587.0</ele><time>2026-04-18T17:35:44Z</time></trkpt><trkpt lat="45.61281212907131" lon="3.1105333157879507"><ele>587.0</ele><time>2026-04-18T17:35:45Z</time></trkpt><trkpt lat="45.61285329095402" lon="3.110366890107819"><ele>587.0</ele><time>2026-04-18T17:35:46Z</time></trkpt><trkpt lat="45.61289130186221" lon="3.1102059285057693"><ele>589.8000000000001</ele><time>2026-04-18T17:35:47Z</time></trkpt><trkpt lat="45.61292247577664" lon="3.1100514379914137"><ele>592.6</ele><time>2026-04-18T17:35:48Z</time></trkpt><trkpt lat="45.61295438635584" lon="3.1099156427174504"><ele>595.4000000000001</ele><time>2026-04-18T17:35:49Z</time></trkpt><trkpt lat="45.61297477925728" lon="3.1097904843489865"><ele>598.2</ele><time>2026-04-18T17:35:50Z</time></trkpt><trkpt lat="45.612995243805365" lon="3.109685453041102"><ele>601.0</ele><time>2026-04-18T17:35:51Z</time></trkpt><trkpt lat="45.613016022641176" lon="3.1095868997168425"><ele>601.0</ele><time>2026-04-18T17:35:52Z</time></trkpt><trkpt lat="45.613033327808374" lon="3.1094816343682847"><ele>601.0</ele><time>2026-04-18T17:35:53Z</time></trkpt><trkpt lat="45.61305513595631" lon="3.1093648521216704"><ele>601.0</ele><time>2026-04-18T17:35:54Z</time></trkpt><trkpt lat="45.61307905826695" lon="3.109242390912747"><ele>601.0</ele><time>2026-04-18T17:35:55Z</time></trkpt><trkpt lat="45.61310041440443" lon="3.109133765852029"><ele>601.0</ele><time>2026-04-18T17:35:56Z</time></trkpt><trkpt lat="45.613132324739546" lon="3.108967796343919"><ele>601.0</ele><time>2026-04-18T17:35:58Z</time></trkpt><trkpt lat="45.613166152344654" lon="3.1088065592650986"><ele>601.0</ele><time>2026-04-18T17:36:00Z</time></trkpt><trkpt lat="45.61318880081669" lon="3.1087127122585563"><ele>601.0</ele><time>2026-04-18T17:36:01Z</time></trkpt><trkpt lat="45.61320870210793" lon="3.1086220951544368"><ele>601.0</ele><time>2026-04-18T17:36:02Z</time></trkpt><trkpt lat="45.61322709742778" lon="3.1085135656620078"><ele>601.0</ele><time>2026-04-18T17:36:03Z</time></trkpt><trkpt lat="45.613249437341906" lon="3.108384052258034"><ele>601.0</ele><time>2026-04-18T17:36:04Z</time></trkpt><trkpt lat="45.61329399336623" lon="3.10824120687775"><ele>601.0</ele><time>2026-04-18T17:36:05Z</time></trkpt><trkpt lat="45.61332864310443" lon="3.1080718603342268"><ele>601.0</ele><time>2026-04-18T17:36:06Z</time></trkpt><trkpt lat="45.6133640749113" lon="3.107898690860574"><ele>601.0</ele><time>2026-04-18T17:36:07Z</time></trkpt><trkpt lat="45.613385374413475" lon="3.1077243860972072"><ele>601.0</ele><time>2026-04-18T17:36:08Z</time></trkpt><trkpt lat="45.613426852755886" lon="3.107545390631617"><ele>601.0</ele><time>2026-04-18T17:36:09Z</time></trkpt><trkpt lat="45.61347440802218" lon="3.1073341001516726"><ele>600.0</ele><time>2026-04-18T17:36:10Z</time></trkpt><trkpt lat="45.61353258444375" lon="3.1071191072438156"><ele>599.0</ele><time>2026-04-18T17:36:11Z</time></trkpt><trkpt lat="45.613622173248004" lon="3.106870039164481"><ele>598.0</ele><time>2026-04-18T17:36:12Z</time></trkpt><trkpt lat="45.61371205466627" lon="3.1066443660368788"><ele>601.6666666666667</ele><time>2026-04-18T17:36:13Z</time></trkpt><trkpt lat="45.613793851094215" lon="3.1064386571539164"><ele>605.3333333333334</ele><time>2026-04-18T17:36:14Z</time></trkpt><trkpt lat="45.613872279046106" lon="3.106230511567339"><ele>609.0</ele><time>2026-04-18T17:36:15Z</time></trkpt><trkpt lat="45.613958417048316" lon="3.106010214069193"><ele>609.0</ele><time>2026-04-18T17:36:16Z</time></trkpt><trkpt lat="45.61404521000829" lon="3.105793656420777"><ele>609.0</ele><time>2026-04-18T17:36:17Z</time></trkpt><trkpt lat="45.614140403130676" lon="3.1055690530218505"><ele>609.0</ele><time>2026-04-18T17:36:18Z</time></trkpt><trkpt lat="45.614237855685275" lon="3.105337453566891"><ele>608.6666666666666</ele><time>2026-04-18T17:36:19Z</time></trkpt><trkpt lat="45.61432302267066" lon="3.105123348228928"><ele>608.3333333333333</ele><time>2026-04-18T17:36:20Z</time></trkpt><trkpt lat="45.61441664527503" lon="3.1049042404324703"><ele>608.0</ele><time>2026-04-18T17:36:21Z</time></trkpt><trkpt lat="45.61451562198079" lon="3.1046817155663886"><ele>609.6666666666666</ele><time>2026-04-18T17:36:22Z</time></trkpt><trkpt lat="45.61460756844163" lon="3.1044730271277032"><ele>611.3333333333334</ele><time>2026-04-18T17:36:23Z</time></trkpt><trkpt lat="45.61471362097653" lon="3.104236362787767"><ele>613.0</ele><time>2026-04-18T17:36:24Z</time></trkpt><trkpt lat="45.61481933676741" lon="3.1040005388213867"><ele>613.3333333333334</ele><time>2026-04-18T17:36:25Z</time></trkpt><trkpt lat="45.614932618497285" lon="3.103775799312754"><ele>613.6666666666666</ele><time>2026-04-18T17:36:26Z</time></trkpt><trkpt lat="45.61506876081616" lon="3.103566988927962"><ele>614.0</ele><time>2026-04-18T17:36:27Z</time></trkpt><trkpt lat="45.61518771850316" lon="3.1033309036946233"><ele>614.6666666666666</ele><time>2026-04-18T17:36:28Z</time></trkpt><trkpt lat="45.615316150880304" lon="3.1031152225020078"><ele>615.3333333333334</ele><time>2026-04-18T17:36:29Z</time></trkpt><trkpt lat="45.61543891579504" lon="3.102898591628168"><ele>616.0</ele><time>2026-04-18T17:36:30Z</time></trkpt><trkpt lat="45.6155616921313" lon="3.10268837967261"><ele>617.0</ele><time>2026-04-18T17:36:31Z</time></trkpt><trkpt lat="45.61569613409906" lon="3.1024904178594297"><ele>618.0</ele><time>2026-04-18T17:36:32Z</time></trkpt><trkpt lat="45.61581894647875" lon="3.10227905280793"><ele>619.0</ele><time>2026-04-18T17:36:33Z</time></trkpt><trkpt lat="45.615923147869275" lon="3.1020461121352625"><ele>619.0</ele><time>2026-04-18T17:36:34Z</time></trkpt><trkpt lat="45.616028647520714" lon="3.1018264330151344"><ele>619.0</ele><time>2026-04-18T17:36:35Z</time></trkpt><trkpt lat="45.616122412462" lon="3.1015781394627275"><ele>619.0</ele><time>2026-04-18T17:36:36Z</time></trkpt><trkpt lat="45.61619034830207" lon="3.101316988311401"><ele>622.6666666666667</ele><time>2026-04-18T17:36:37Z</time></trkpt><trkpt lat="45.616249714987546" lon="3.101033775221171"><ele>626.3333333333334</ele><time>2026-04-18T17:36:38Z</time></trkpt><trkpt lat="45.61633427790603" lon="3.1007466892317415"><ele>630.0</ele><time>2026-04-18T17:36:39Z</time></trkpt><trkpt lat="45.61640949013274" lon="3.1004615665042534"><ele>630.0</ele><time>2026-04-18T17:36:40Z</time></trkpt><trkpt lat="45.61646218104347" lon="3.1001910549335205"><ele>630.0</ele><time>2026-04-18T17:36:41Z</time></trkpt><trkpt lat="45.61652908049001" lon="3.099936973945274"><ele>630.0</ele><time>2026-04-18T17:36:42Z</time></trkpt><trkpt lat="45.61658673093425" lon="3.099702680786543"><ele>630.0</ele><time>2026-04-18T17:36:43Z</time></trkpt><trkpt lat="45.616620989302895" lon="3.0994747473727315"><ele>630.0</ele><time>2026-04-18T17:36:44Z</time></trkpt><trkpt lat="45.61663557176497" lon="3.0992377278655043"><ele>630.0</ele><time>2026-04-18T17:36:45Z</time></trkpt><trkpt lat="45.616643168871946" lon="3.099008699418258"><ele>631.0</ele><time>2026-04-18T17:36:46Z</time></trkpt><trkpt lat="45.616677240296205" lon="3.098794649925773"><ele>632.0</ele><time>2026-04-18T17:36:47Z</time></trkpt><trkpt lat="45.61676369699772" lon="3.098610742104843"><ele>633.0</ele><time>2026-04-18T17:36:48Z</time></trkpt><trkpt lat="45.61687224015605" lon="3.0984175648770957"><ele>634.6666666666666</ele><time>2026-04-18T17:36:49Z</time></trkpt><trkpt lat="45.61698693233158" lon="3.0982289562611602"><ele>636.3333333333333</ele><time>2026-04-18T17:36:50Z</time></trkpt><trkpt lat="45.61708353325056" lon="3.0980443545868397"><ele>638.0</ele><time>2026-04-18T17:36:51Z</time></trkpt><trkpt lat="45.617201129853065" lon="3.0978930797547406"><ele>638.0</ele><time>2026-04-18T17:36:52Z</time></trkpt><trkpt lat="45.617341092097284" lon="3.0977866732228208"><ele>638.0</ele><time>2026-04-18T17:36:53Z</time></trkpt><trkpt lat="45.61748123188872" lon="3.097673750551273"><ele>638.0</ele><time>2026-04-18T17:36:54Z</time></trkpt><trkpt lat="45.61761898501364" lon="3.0975206113189024"><ele>638.3333333333333</ele><time>2026-04-18T17:36:55Z</time></trkpt><trkpt lat="45.6177459349294" lon="3.09736491074476"><ele>638.6666666666666</ele><time>2026-04-18T17:36:56Z</time></trkpt><trkpt lat="45.61786514849373" lon="3.0971786377912505"><ele>639.0</ele><time>2026-04-18T17:36:57Z</time></trkpt><trkpt lat="45.61797178150787" lon="3.096956867336486"><ele>639.6666666666666</ele><time>2026-04-18T17:36:58Z</time></trkpt><trkpt lat="45.61806805727156" lon="3.0967291183314436"><ele>640.3333333333333</ele><time>2026-04-18T17:36:59Z</time></trkpt><trkpt lat="45.61815614932378" lon="3.096514531243209"><ele>641.0</ele><time>2026-04-18T17:37:00Z</time></trkpt><trkpt lat="45.61825329776147" lon="3.096296692822105"><ele>641.0</ele><time>2026-04-18T17:37:01Z</time></trkpt><trkpt lat="45.61833932993275" lon="3.096097003766531"><ele>641.0</ele><time>2026-04-18T17:37:02Z</time></trkpt><trkpt lat="45.618417814901015" lon="3.095888558790571"><ele>641.0</ele><time>2026-04-18T17:37:03Z</time></trkpt><trkpt lat="45.6184822541141" lon="3.095673707034502"><ele>642.0</ele><time>2026-04-18T17:37:04Z</time></trkpt><trkpt lat="45.61854261935216" lon="3.095447410546808"><ele>643.0</ele><time>2026-04-18T17:37:05Z</time></trkpt><trkpt lat="45.61861541015683" lon="3.095256049044079"><ele>644.0</ele><time>2026-04-18T17:37:06Z</time></trkpt><trkpt lat="45.61866435766503" lon="3.095035679300236"><ele>643.25</ele><time>2026-04-18T17:37:07Z</time></trkpt><trkpt lat="45.618728954415595" lon="3.0948449730685352"><ele>642.5</ele><time>2026-04-18T17:37:08Z</time></trkpt><trkpt lat="45.618786684014005" lon="3.0946551814425116"><ele>641.75</ele><time>2026-04-18T17:37:09Z</time></trkpt><trkpt lat="45.61884707452324" lon="3.0944725415722347"><ele>641.0</ele><time>2026-04-18T17:37:10Z</time></trkpt><trkpt lat="45.618908948340035" lon="3.0943079072154847"><ele>641.0</ele><time>2026-04-18T17:37:11Z</time></trkpt><trkpt lat="45.61899750396762" lon="3.0941765538504984"><ele>641.0</ele><time>2026-04-18T17:37:12Z</time></trkpt><trkpt lat="45.619093717905066" lon="3.0940739265630013"><ele>641.0</ele><time>2026-04-18T17:37:13Z</time></trkpt><trkpt lat="45.61919911214546" lon="3.0939671816146803"><ele>641.0</ele><time>2026-04-18T17:37:14Z</time></trkpt><trkpt lat="45.61933173753102" lon="3.09390163058527"><ele>640.0</ele><time>2026-04-18T17:37:15Z</time></trkpt><trkpt lat="45.619472128503155" lon="3.0938281556492977"><ele>639.0</ele><time>2026-04-18T17:37:16Z</time></trkpt><trkpt lat="45.61961882305752" lon="3.0937463858890846"><ele>638.0</ele><time>2026-04-18T17:37:17Z</time></trkpt><trkpt lat="45.619767459676204" lon="3.0936584929008086"><ele>637.0</ele><time>2026-04-18T17:37:18Z</time></trkpt><trkpt lat="45.619919873749375" lon="3.093565157443498"><ele>636.0</ele><time>2026-04-18T17:37:19Z</time></trkpt><trkpt lat="45.6200722840282" lon="3.09347523250093"><ele>635.0</ele><time>2026-04-18T17:37:20Z</time></trkpt><trkpt lat="45.62022166609497" lon="3.0933843850234335"><ele>635.3333333333333</ele><time>2026-04-18T17:37:21Z</time></trkpt><trkpt lat="45.6203903416243" lon="3.0932962708960092"><ele>635.6666666666666</ele><time>2026-04-18T17:37:22Z</time></trkpt><trkpt lat="45.620559960250006" lon="3.09319535466121"><ele>636.0</ele><time>2026-04-18T17:37:23Z</time></trkpt><trkpt lat="45.62073391775407" lon="3.093096173209277"><ele>634.6666666666666</ele><time>2026-04-18T17:37:24Z</time></trkpt><trkpt lat="45.62090003457918" lon="3.093000322127642"><ele>633.3333333333333</ele><time>2026-04-18T17:37:25Z</time></trkpt><trkpt lat="45.62106006042771" lon="3.0929101187405132"><ele>632.0</ele><time>2026-04-18T17:37:26Z</time></trkpt><trkpt lat="45.62120585395048" lon="3.092825216639981"><ele>632.0</ele><time>2026-04-18T17:37:27Z</time></trkpt><trkpt lat="45.62134586722391" lon="3.0927398334219887"><ele>632.0</ele><time>2026-04-18T17:37:28Z</time></trkpt><trkpt lat="45.621483630262105" lon="3.0926572509608223"><ele>632.0</ele><time>2026-04-18T17:37:29Z</time></trkpt><trkpt lat="45.62161108838505" lon="3.0925496508645725"><ele>630.3333333333333</ele><time>2026-04-18T17:37:30Z</time></trkpt><trkpt lat="45.62172962083435" lon="3.0924024825182745"><ele>628.6666666666666</ele><time>2026-04-18T17:37:31Z</time></trkpt><trkpt lat="45.62183170155535" lon="3.0922245874606573"><ele>627.0</ele><time>2026-04-18T17:37:32Z</time></trkpt><trkpt lat="45.621930673644115" lon="3.092029597782362"><ele>626.0</ele><time>2026-04-18T17:37:33Z</time></trkpt><trkpt lat="45.62202708295898" lon="3.0918258386017143"><ele>625.0</ele><time>2026-04-18T17:37:34Z</time></trkpt><trkpt lat="45.62212630841859" lon="3.091634306788651"><ele>624.0</ele><time>2026-04-18T17:37:35Z</time></trkpt><trkpt lat="45.622228210966476" lon="3.091441787614621"><ele>624.0</ele><time>2026-04-18T17:37:36Z</time></trkpt><trkpt lat="45.62233391339087" lon="3.091255835612349"><ele>624.0</ele><time>2026-04-18T17:37:37Z</time></trkpt><trkpt lat="45.62244661816078" lon="3.091071999499746"><ele>624.0</ele><time>2026-04-18T17:37:38Z</time></trkpt><trkpt lat="45.62257924187353" lon="3.090908692982054"><ele>623.0</ele><time>2026-04-18T17:37:39Z</time></trkpt><trkpt lat="45.622702854809404" lon="3.090737245152742"><ele>622.0</ele><time>2026-04-18T17:37:40Z</time></trkpt><trkpt lat="45.62280902101164" lon="3.0905567618245047"><ele>621.0</ele><time>2026-04-18T17:37:41Z</time></trkpt><trkpt lat="45.62292714229263" lon="3.0904003297427844"><ele>621.0</ele><time>2026-04-18T17:37:42Z</time></trkpt><trkpt lat="45.62305124112255" lon="3.090244839288023"><ele>621.0</ele><time>2026-04-18T17:37:43Z</time></trkpt><trkpt lat="45.62319139842814" lon="3.090101040681801"><ele>621.0</ele><time>2026-04-18T17:37:44Z</time></trkpt><trkpt lat="45.62335873290279" lon="3.0900146039695207"><ele>619.6666666666666</ele><time>2026-04-18T17:37:45Z</time></trkpt><trkpt lat="45.62352375073766" lon="3.0899229594855253"><ele>618.3333333333333</ele><time>2026-04-18T17:37:46Z</time></trkpt><trkpt lat="45.62370519498532" lon="3.0898479183053302"><ele>617.0</ele><time>2026-04-18T17:37:47Z</time></trkpt><trkpt lat="45.62388954131811" lon="3.0897959082685627"><ele>617.0</ele><time>2026-04-18T17:37:48Z</time></trkpt><trkpt lat="45.624072748005524" lon="3.0897548051140227"><ele>617.0</ele><time>2026-04-18T17:37:49Z</time></trkpt><trkpt lat="45.62425944995955" lon="3.0897098065373876"><ele>617.0</ele><time>2026-04-18T17:37:50Z</time></trkpt><trkpt lat="45.624436951151154" lon="3.089677783070359"><ele>617.6666666666666</ele><time>2026-04-18T17:37:51Z</time></trkpt><trkpt lat="45.62462969658864" lon="3.0896436923761246"><ele>618.3333333333334</ele><time>2026-04-18T17:37:52Z</time></trkpt><trkpt lat="45.624813037403975" lon="3.0896162233578437"><ele>619.0</ele><time>2026-04-18T17:37:53Z</time></trkpt><trkpt lat="45.62498977905354" lon="3.0895878398784884"><ele>619.0</ele><time>2026-04-18T17:37:54Z</time></trkpt><trkpt lat="45.62515428029659" lon="3.0895603289736364"><ele>619.0</ele><time>2026-04-18T17:37:55Z</time></trkpt><trkpt lat="45.625315496075174" lon="3.08953298435458"><ele>619.0</ele><time>2026-04-18T17:37:56Z</time></trkpt><trkpt lat="45.62547027267805" lon="3.0894814383349423"><ele>620.6666666666667</ele><time>2026-04-18T17:37:57Z</time></trkpt><trkpt lat="45.625620327570054" lon="3.0893829341683285"><ele>622.3333333333334</ele><time>2026-04-18T17:37:58Z</time></trkpt><trkpt lat="45.625747558020315" lon="3.0892343200875865"><ele>624.0</ele><time>2026-04-18T17:37:59Z</time></trkpt><trkpt lat="45.62585048495237" lon="3.089029372954337"><ele>624.0</ele><time>2026-04-18T17:38:00Z</time></trkpt><trkpt lat="45.625921047084944" lon="3.088826646558781"><ele>624.0</ele><time>2026-04-18T17:38:01Z</time></trkpt><trkpt lat="45.62601533838582" lon="3.088640341879701"><ele>624.0</ele><time>2026-04-18T17:38:02Z</time></trkpt><trkpt lat="45.626126770342324" lon="3.0885059501595995"><ele>625.3333333333334</ele><time>2026-04-18T17:38:03Z</time></trkpt><trkpt lat="45.62625390740633" lon="3.088373458409412"><ele>626.6666666666667</ele><time>2026-04-18T17:38:04Z</time></trkpt><trkpt lat="45.626413973445295" lon="3.088293501056291"><ele>628.0</ele><time>2026-04-18T17:38:05Z</time></trkpt><trkpt lat="45.62655427826231" lon="3.0882617884274044"><ele>628.0</ele><time>2026-04-18T17:38:06Z</time></trkpt><trkpt lat="45.62669862749388" lon="3.088249003949608"><ele>628.0</ele><time>2026-04-18T17:38:07Z</time></trkpt><trkpt lat="45.626849899249756" lon="3.088260541713344"><ele>628.0</ele><time>2026-04-18T17:38:08Z</time></trkpt><trkpt lat="45.62701669852291" lon="3.088279813379818"><ele>626.3333333333334</ele><time>2026-04-18T17:38:09Z</time></trkpt><trkpt lat="45.62720323395585" lon="3.0882992105303164"><ele>624.6666666666666</ele><time>2026-04-18T17:38:10Z</time></trkpt><trkpt lat="45.62739271308081" lon="3.0883063746791835"><ele>623.0</ele><time>2026-04-18T17:38:11Z</time></trkpt><trkpt lat="45.627588814456146" lon="3.088310317386155"><ele>623.0</ele><time>2026-04-18T17:38:12Z</time></trkpt><trkpt lat="45.62777365940408" lon="3.088309390050443"><ele>623.0</ele><time>2026-04-18T17:38:13Z</time></trkpt><trkpt lat="45.627947872776694" lon="3.088296786229423"><ele>623.0</ele><time>2026-04-18T17:38:14Z</time></trkpt><trkpt lat="45.628114166246114" lon="3.0882503374553956"><ele>618.6666666666666</ele><time>2026-04-18T17:38:15Z</time></trkpt><trkpt lat="45.628270814646626" lon="3.0881711959104163"><ele>614.3333333333334</ele><time>2026-04-18T17:38:16Z</time></trkpt><trkpt lat="45.628413623240974" lon="3.0880693180083267"><ele>610.0</ele><time>2026-04-18T17:38:17Z</time></trkpt><trkpt lat="45.62854374416955" lon="3.0879463478917595"><ele>610.75</ele><time>2026-04-18T17:38:18Z</time></trkpt><trkpt lat="45.628673436921794" lon="3.0878332452773303"><ele>611.5</ele><time>2026-04-18T17:38:19Z</time></trkpt><trkpt lat="45.628798609385704" lon="3.0877224618132435"><ele>612.25</ele><time>2026-04-18T17:38:20Z</time></trkpt><trkpt lat="45.62890652951616" lon="3.087586626745205"><ele>613.0</ele><time>2026-04-18T17:38:21Z</time></trkpt><trkpt lat="45.62900129557279" lon="3.0874292338220384"><ele>610.75</ele><time>2026-04-18T17:38:22Z</time></trkpt><trkpt lat="45.62912476927361" lon="3.087314927895473"><ele>608.5</ele><time>2026-04-18T17:38:23Z</time></trkpt><trkpt lat="45.62924948141852" lon="3.087234318337777"><ele>606.25</ele><time>2026-04-18T17:38:24Z</time></trkpt><trkpt lat="45.62938686069174" lon="3.0871981125325973"><ele>604.0</ele><time>2026-04-18T17:38:25Z</time></trkpt><trkpt lat="45.6295352956422" lon="3.087206497852042"><ele>604.0</ele><time>2026-04-18T17:38:26Z</time></trkpt><trkpt lat="45.6296857415451" lon="3.0872552962153668"><ele>604.0</ele><time>2026-04-18T17:38:27Z</time></trkpt><trkpt lat="45.629824236199674" lon="3.0873415845289816"><ele>604.0</ele><time>2026-04-18T17:38:28Z</time></trkpt><trkpt lat="45.629947883208494" lon="3.0874782291415745"><ele>605.0</ele><time>2026-04-18T17:38:29Z</time></trkpt><trkpt lat="45.63004680601472" lon="3.087647973139874"><ele>606.0</ele><time>2026-04-18T17:38:30Z</time></trkpt><trkpt lat="45.630111333716634" lon="3.0878346192017156"><ele>607.0</ele><time>2026-04-18T17:38:31Z</time></trkpt><trkpt lat="45.630152754654254" lon="3.0880312934542156"><ele>608.0</ele><time>2026-04-18T17:38:32Z</time></trkpt><trkpt lat="45.63016232657649" lon="3.0882394425674393"><ele>607.6666666666666</ele><time>2026-04-18T17:38:33Z</time></trkpt><trkpt lat="45.63013820966605" lon="3.0884477780542903"><ele>607.3333333333334</ele><time>2026-04-18T17:38:33.999Z</time></trkpt><trkpt lat="45.630092490046586" lon="3.0886542917300086"><ele>607.0</ele><time>2026-04-18T17:38:34.999Z</time></trkpt><trkpt lat="45.63005353785839" lon="3.088888069427471"><ele>605.3333333333334</ele><time>2026-04-18T17:38:35.999Z</time></trkpt><trkpt lat="45.62999661064381" lon="3.089111153526613"><ele>603.6666666666666</ele><time>2026-04-18T17:38:36.999Z</time></trkpt><trkpt lat="45.6299680841334" lon="3.0893270309922434"><ele>602.0</ele><time>2026-04-18T17:38:38Z</time></trkpt><trkpt lat="45.62995921191066" lon="3.089539679181626"><ele>602.0</ele><time>2026-04-18T17:38:39Z</time></trkpt><trkpt lat="45.62997118843018" lon="3.089752277522616"><ele>602.0</ele><time>2026-04-18T17:38:40Z</time></trkpt><trkpt lat="45.62999691542208" lon="3.0899707755393955"><ele>602.0</ele><time>2026-04-18T17:38:41Z</time></trkpt><trkpt lat="45.6300221377023" lon="3.090208106009339"><ele>601.0</ele><time>2026-04-18T17:38:42Z</time></trkpt><trkpt lat="45.630057397775175" lon="3.090446012256075"><ele>600.0</ele><time>2026-04-18T17:38:43Z</time></trkpt><trkpt lat="45.63011459579719" lon="3.090653663675835"><ele>599.0</ele><time>2026-04-18T17:38:44Z</time></trkpt><trkpt lat="45.63019762933096" lon="3.0908341812399693"><ele>599.0</ele><time>2026-04-18T17:38:45Z</time></trkpt><trkpt lat="45.630304486846775" lon="3.0909994902295033"><ele>599.0</ele><time>2026-04-18T17:38:46Z</time></trkpt><trkpt lat="45.63043401280575" lon="3.091139357540054"><ele>599.0</ele><time>2026-04-18T17:38:47Z</time></trkpt><trkpt lat="45.63057677463761" lon="3.0912581875867993"><ele>598.0</ele><time>2026-04-18T17:38:48Z</time></trkpt><trkpt lat="45.630735291963695" lon="3.091371966219009"><ele>597.0</ele><time>2026-04-18T17:38:49Z</time></trkpt><trkpt lat="45.63089869809894" lon="3.0914858435168022"><ele>596.0</ele><time>2026-04-18T17:38:50Z</time></trkpt><trkpt lat="45.631068390971365" lon="3.0916103800417076"><ele>594.3333333333333</ele><time>2026-04-18T17:38:51Z</time></trkpt><trkpt lat="45.63123083577537" lon="3.0917010871520882"><ele>592.6666666666666</ele><time>2026-04-18T17:38:52Z</time></trkpt><trkpt lat="45.63139850244703" lon="3.0917359461591194"><ele>591.0</ele><time>2026-04-18T17:38:53Z</time></trkpt><trkpt lat="45.63157150167104" lon="3.0917131441834376"><ele>591.0</ele><time>2026-04-18T17:38:54Z</time></trkpt><trkpt lat="45.63174102670305" lon="3.0916467392387843"><ele>591.0</ele><time>2026-04-18T17:38:55Z</time></trkpt><trkpt lat="45.63192447013228" lon="3.091541384507275"><ele>591.0</ele><time>2026-04-18T17:38:56Z</time></trkpt><trkpt lat="45.63212053754964" lon="3.091416810469582"><ele>587.6666666666666</ele><time>2026-04-18T17:38:57Z</time></trkpt><trkpt lat="45.6323039536981" lon="3.091309484779972"><ele>584.3333333333333</ele><time>2026-04-18T17:38:58Z</time></trkpt><trkpt lat="45.632476390057356" lon="3.0912288398887355"><ele>581.0</ele><time>2026-04-18T17:38:59Z</time></trkpt><trkpt lat="45.63265027383737" lon="3.091220622470642"><ele>580.0</ele><time>2026-04-18T17:39:00Z</time></trkpt><trkpt lat="45.63281711398548" lon="3.0912410448545673"><ele>579.0</ele><time>2026-04-18T17:39:01Z</time></trkpt><trkpt lat="45.632971301040165" lon="3.0913075333353324"><ele>578.0</ele><time>2026-04-18T17:39:02Z</time></trkpt><trkpt lat="45.63310819107502" lon="3.0914196168349237"><ele>578.0</ele><time>2026-04-18T17:39:03Z</time></trkpt><trkpt lat="45.63320969744082" lon="3.0915636448727457"><ele>578.0</ele><time>2026-04-18T17:39:04Z</time></trkpt><trkpt lat="45.63328839137317" lon="3.0917311423057305"><ele>578.0</ele><time>2026-04-18T17:39:05Z</time></trkpt><trkpt lat="45.633341865305944" lon="3.0919341772213"><ele>578.0</ele><time>2026-04-18T17:39:06Z</time></trkpt><trkpt lat="45.63336217975037" lon="3.0921533467955116"><ele>579.3333333333333</ele><time>2026-04-18T17:39:07Z</time></trkpt><trkpt lat="45.63340622524723" lon="3.0923800536395762"><ele>580.6666666666666</ele><time>2026-04-18T17:39:08Z</time></trkpt><trkpt lat="45.63343913061702" lon="3.0925908299035703"><ele>582.0</ele><time>2026-04-18T17:39:09Z</time></trkpt><trkpt lat="45.6335059181883" lon="3.0927787396498556"><ele>582.0</ele><time>2026-04-18T17:39:10Z</time></trkpt><trkpt lat="45.63360606541552" lon="3.0929331476179662"><ele>582.0</ele><time>2026-04-18T17:39:11Z</time></trkpt><trkpt lat="45.63373486019981" lon="3.093061914451746"><ele>582.0</ele><time>2026-04-18T17:39:12Z</time></trkpt><trkpt lat="45.633885212120695" lon="3.0931570669688724"><ele>580.25</ele><time>2026-04-18T17:39:13Z</time></trkpt><trkpt lat="45.634040339858636" lon="3.0932086747712186"><ele>578.5</ele><time>2026-04-18T17:39:14Z</time></trkpt><trkpt lat="45.63418899586838" lon="3.093228735299564"><ele>576.75</ele><time>2026-04-18T17:39:15Z</time></trkpt><trkpt lat="45.63431639043213" lon="3.0933015681024343"><ele>575.0</ele><time>2026-04-18T17:39:16Z</time></trkpt><trkpt lat="45.63445353186605" lon="3.0933755028543986"><ele>571.0</ele><time>2026-04-18T17:39:17Z</time></trkpt><trkpt lat="45.634583292741496" lon="3.09349760790993"><ele>567.0</ele><time>2026-04-18T17:39:18Z</time></trkpt><trkpt lat="45.63471467607646" lon="3.093630985955318"><ele>563.0</ele><time>2026-04-18T17:39:19Z</time></trkpt><trkpt lat="45.63484129001557" lon="3.0937617777701476"><ele>563.0</ele><time>2026-04-18T17:39:20Z</time></trkpt><trkpt lat="45.63497317442553" lon="3.0938877307531585"><ele>563.0</ele><time>2026-04-18T17:39:21Z</time></trkpt><trkpt lat="45.63510157500306" lon="3.0940081164507207"><ele>563.0</ele><time>2026-04-18T17:39:22Z</time></trkpt><trkpt lat="45.635223984425934" lon="3.0941099812873474"><ele>563.5</ele><time>2026-04-18T17:39:23Z</time></trkpt><trkpt lat="45.63535583581102" lon="3.0941889763577612"><ele>564.0</ele><time>2026-04-18T17:39:24Z</time></trkpt><trkpt lat="45.63549568494162" lon="3.0942473156414327"><ele>564.5</ele><time>2026-04-18T17:39:25Z</time></trkpt><trkpt lat="45.63563887328697" lon="3.094293615536788"><ele>565.0</ele><time>2026-04-18T17:39:26Z</time></trkpt><trkpt lat="45.6357794896571" lon="3.094331554428369"><ele>565.0</ele><time>2026-04-18T17:39:27Z</time></trkpt><trkpt lat="45.63591316869244" lon="3.094372652101262"><ele>565.0</ele><time>2026-04-18T17:39:28Z</time></trkpt><trkpt lat="45.63604247731502" lon="3.0944163319279463"><ele>565.0</ele><time>2026-04-18T17:39:29Z</time></trkpt><trkpt lat="45.63617514667862" lon="3.0944585772189512"><ele>565.0</ele><time>2026-04-18T17:39:30Z</time></trkpt><trkpt lat="45.63630921791217" lon="3.094492706604773"><ele>564.0</ele><time>2026-04-18T17:39:31Z</time></trkpt><trkpt lat="45.63645305350706" lon="3.094513652745522"><ele>563.0</ele><time>2026-04-18T17:39:32Z</time></trkpt><trkpt lat="45.63660107161954" lon="3.094493625469151"><ele>562.0</ele><time>2026-04-18T17:39:33Z</time></trkpt><trkpt lat="45.63674705400249" lon="3.0944361793115367"><ele>561.0</ele><time>2026-04-18T17:39:34Z</time></trkpt><trkpt lat="45.6368817728215" lon="3.094342364510336"><ele>559.75</ele><time>2026-04-18T17:39:35Z</time></trkpt><trkpt lat="45.6369999190838" lon="3.09422678597967"><ele>558.5</ele><time>2026-04-18T17:39:36Z</time></trkpt><trkpt lat="45.63711167935822" lon="3.0941327506592406"><ele>557.25</ele><time>2026-04-18T17:39:37Z</time></trkpt><trkpt lat="45.63722678033182" lon="3.094069952997349"><ele>556.0</ele><time>2026-04-18T17:39:38Z</time></trkpt><trkpt lat="45.63735155847224" lon="3.0940576172774965"><ele>556.0</ele><time>2026-04-18T17:39:39Z</time></trkpt><trkpt lat="45.637470291806935" lon="3.094075110649807"><ele>556.0</ele><time>2026-04-18T17:39:40Z</time></trkpt><trkpt lat="45.63758580302639" lon="3.094122377706761"><ele>556.0</ele><time>2026-04-18T17:39:41Z</time></trkpt><trkpt lat="45.63770325116023" lon="3.094190202918779"><ele>556.0</ele><time>2026-04-18T17:39:42Z</time></trkpt><trkpt lat="45.63781700560375" lon="3.0942924798659712"><ele>554.25</ele><time>2026-04-18T17:39:43Z</time></trkpt><trkpt lat="45.637931110857025" lon="3.094418469119238"><ele>552.5</ele><time>2026-04-18T17:39:44Z</time></trkpt><trkpt lat="45.63805858268417" lon="3.094536120237814"><ele>550.75</ele><time>2026-04-18T17:39:45Z</time></trkpt><trkpt lat="45.63818142521698" lon="3.0946618005830837"><ele>549.0</ele><time>2026-04-18T17:39:46Z</time></trkpt><trkpt lat="45.63831922963481" lon="3.0947482211061774"><ele>549.0</ele><time>2026-04-18T17:39:47Z</time></trkpt><trkpt lat="45.638459201944386" lon="3.0948027227669317"><ele>549.0</ele><time>2026-04-18T17:39:48Z</time></trkpt><trkpt lat="45.63859632064174" lon="3.0948305094294706"><ele>549.0</ele><time>2026-04-18T17:39:49Z</time></trkpt><trkpt lat="45.63873034626298" lon="3.0948394482355344"><ele>549.0</ele><time>2026-04-18T17:39:50Z</time></trkpt><trkpt lat="45.63885967891396" lon="3.0948313963189307"><ele>548.5</ele><time>2026-04-18T17:39:51Z</time></trkpt><trkpt lat="45.638983898605" lon="3.094796602468105"><ele>548.0</ele><time>2026-04-18T17:39:52Z</time></trkpt><trkpt lat="45.63910887185968" lon="3.0947314753370994"><ele>547.5</ele><time>2026-04-18T17:39:53Z</time></trkpt><trkpt lat="45.63922890542341" lon="3.094637993148661"><ele>547.0</ele><time>2026-04-18T17:39:54Z</time></trkpt><trkpt lat="45.639344904158264" lon="3.094533103801599"><ele>547.0</ele><time>2026-04-18T17:39:55Z</time></trkpt><trkpt lat="45.639456680015726" lon="3.0944102634092925"><ele>547.0</ele><time>2026-04-18T17:39:56Z</time></trkpt><trkpt lat="45.639553825811824" lon="3.0942667023594694"><ele>547.0</ele><time>2026-04-18T17:39:57Z</time></trkpt><trkpt lat="45.63963466773337" lon="3.094097658108428"><ele>547.0</ele><time>2026-04-18T17:39:58Z</time></trkpt><trkpt lat="45.63970179113507" lon="3.0939219972129464"><ele>546.5</ele><time>2026-04-18T17:39:59Z</time></trkpt><trkpt lat="45.639754935964035" lon="3.093725496643845"><ele>546.0</ele><time>2026-04-18T17:40:00Z</time></trkpt><trkpt lat="45.63981439606607" lon="3.0935276686607125"><ele>545.5</ele><time>2026-04-18T17:40:01Z</time></trkpt><trkpt lat="45.63990689368474" lon="3.093366393340555"><ele>545.0</ele><time>2026-04-18T17:40:02Z</time></trkpt><trkpt lat="45.639984068418336" lon="3.0932015215159785"><ele>544.25</ele><time>2026-04-18T17:40:03Z</time></trkpt><trkpt lat="45.64006890268006" lon="3.0930561148700337"><ele>543.5</ele><time>2026-04-18T17:40:04Z</time></trkpt><trkpt lat="45.64015358050635" lon="3.09291417440132"><ele>542.75</ele><time>2026-04-18T17:40:05Z</time></trkpt><trkpt lat="45.640247281549016" lon="3.092792677826164"><ele>542.0</ele><time>2026-04-18T17:40:06Z</time></trkpt><trkpt lat="45.64035632380708" lon="3.0926947540348526"><ele>542.0</ele><time>2026-04-18T17:40:07Z</time></trkpt><trkpt lat="45.64046719451235" lon="3.0926109228417187"><ele>542.0</ele><time>2026-04-18T17:40:08Z</time></trkpt><trkpt lat="45.64057921642287" lon="3.0925391929028216"><ele>542.0</ele><time>2026-04-18T17:40:09Z</time></trkpt><trkpt lat="45.64069171479474" lon="3.0924876215315575"><ele>542.0</ele><time>2026-04-18T17:40:10Z</time></trkpt><trkpt lat="45.64080356401361" lon="3.092443575369342"><ele>540.2</ele><time>2026-04-18T17:40:11Z</time></trkpt><trkpt lat="45.640907267163605" lon="3.092402214904183"><ele>538.4000000000001</ele><time>2026-04-18T17:40:12Z</time></trkpt><trkpt lat="45.64101071047439" lon="3.092361610724197"><ele>536.5999999999999</ele><time>2026-04-18T17:40:13Z</time></trkpt><trkpt lat="45.6411079609667" lon="3.0923239295515224"><ele>534.8</ele><time>2026-04-18T17:40:14Z</time></trkpt><trkpt lat="45.64120117643036" lon="3.092287402909303"><ele>533.0</ele><time>2026-04-18T17:40:15Z</time></trkpt><trkpt lat="45.641290240383476" lon="3.092247408056482"><ele>532.0</ele><time>2026-04-18T17:40:16Z</time></trkpt><trkpt lat="45.641384315258584" lon="3.092208231652446"><ele>531.0</ele><time>2026-04-18T17:40:17Z</time></trkpt><trkpt lat="45.6414943987728" lon="3.0921585543388352"><ele>530.0</ele><time>2026-04-18T17:40:18Z</time></trkpt><trkpt lat="45.64160961872176" lon="3.0920990730001856"><ele>529.0</ele><time>2026-04-18T17:40:19Z</time></trkpt><trkpt lat="45.64171773739011" lon="3.09202433572536"><ele>529.0</ele><time>2026-04-18T17:40:20Z</time></trkpt><trkpt lat="45.641816807385254" lon="3.091944395074911"><ele>529.0</ele><time>2026-04-18T17:40:21Z</time></trkpt><trkpt lat="45.64191529351108" lon="3.0918324102264645"><ele>529.0</ele><time>2026-04-18T17:40:22Z</time></trkpt><trkpt lat="45.64201034544618" lon="3.0916910639556767"><ele>529.0</ele><time>2026-04-18T17:40:23Z</time></trkpt><trkpt lat="45.64211020636218" lon="3.091536098687437"><ele>528.5</ele><time>2026-04-18T17:40:24Z</time></trkpt><trkpt lat="45.64221332211877" lon="3.091380998560954"><ele>528.0</ele><time>2026-04-18T17:40:25Z</time></trkpt><trkpt lat="45.64231313825608" lon="3.091230950689135"><ele>527.5</ele><time>2026-04-18T17:40:26Z</time></trkpt><trkpt lat="45.64240434541601" lon="3.0910922980418323"><ele>527.0</ele><time>2026-04-18T17:40:27Z</time></trkpt><trkpt lat="45.64249097403474" lon="3.0909598039745685"><ele>527.0</ele><time>2026-04-18T17:40:28Z</time></trkpt><trkpt lat="45.64257313775929" lon="3.090830526637484"><ele>527.0</ele><time>2026-04-18T17:40:29Z</time></trkpt><trkpt lat="45.642652073300006" lon="3.090702533210704"><ele>527.0</ele><time>2026-04-18T17:40:30Z</time></trkpt><trkpt lat="45.64272439216131" lon="3.0905699198600214"><ele>527.0</ele><time>2026-04-18T17:40:31Z</time></trkpt><trkpt lat="45.64279290355423" lon="3.090411476792633"><ele>527.5</ele><time>2026-04-18T17:40:32Z</time></trkpt><trkpt lat="45.64285410260557" lon="3.0902394157546453"><ele>528.0</ele><time>2026-04-18T17:40:33Z</time></trkpt><trkpt lat="45.642915918862535" lon="3.0900537775855583"><ele>528.5</ele><time>2026-04-18T17:40:34Z</time></trkpt><trkpt lat="45.64298049338047" lon="3.0898680500543994"><ele>529.0</ele><time>2026-04-18T17:40:35Z</time></trkpt><trkpt lat="45.64306028163234" lon="3.0896719195748683"><ele>527.5</ele><time>2026-04-18T17:40:35.999Z</time></trkpt><trkpt lat="45.64314966503253" lon="3.089494952026694"><ele>526.0</ele><time>2026-04-18T17:40:36.999Z</time></trkpt><trkpt lat="45.643244791091725" lon="3.0893410961275243"><ele>524.5</ele><time>2026-04-18T17:40:37.999Z</time></trkpt><trkpt lat="45.64336001739442" lon="3.0892198280570184"><ele>523.0</ele><time>2026-04-18T17:40:38.999Z</time></trkpt><trkpt lat="45.643485914811535" lon="3.089094769107268"><ele>522.0</ele><time>2026-04-18T17:40:39.999Z</time></trkpt><trkpt lat="45.643616645791674" lon="3.0889565394820644"><ele>521.0</ele><time>2026-04-18T17:40:40.999Z</time></trkpt><trkpt lat="45.64376921698907" lon="3.088841314011752"><ele>520.0</ele><time>2026-04-18T17:40:41.999Z</time></trkpt><trkpt lat="45.64392091423438" lon="3.088728426015205"><ele>519.0</ele><time>2026-04-18T17:40:42.999Z</time></trkpt><trkpt lat="45.64407467960086" lon="3.0886128416570617"><ele>518.0</ele><time>2026-04-18T17:40:44Z</time></trkpt><trkpt lat="45.64423439075618" lon="3.088509955836058"><ele>517.0</ele><time>2026-04-18T17:40:45Z</time></trkpt><trkpt lat="45.64440986271917" lon="3.0884477287158014"><ele>517.3333333333334</ele><time>2026-04-18T17:40:46Z</time></trkpt><trkpt lat="45.64457607872151" lon="3.0883599142807903"><ele>517.6666666666666</ele><time>2026-04-18T17:40:47Z</time></trkpt><trkpt lat="45.64474418545285" lon="3.088295056781136"><ele>518.0</ele><time>2026-04-18T17:40:48Z</time></trkpt><trkpt lat="45.64491495413759" lon="3.0882248348865593"><ele>517.3333333333333</ele><time>2026-04-18T17:40:49Z</time></trkpt><trkpt lat="45.64507982064997" lon="3.088157433725184"><ele>516.6666666666666</ele><time>2026-04-18T17:40:50Z</time></trkpt><trkpt lat="45.64523810347278" lon="3.0880856383339244"><ele>516.0</ele><time>2026-04-18T17:40:51Z</time></trkpt><trkpt lat="45.645405283912105" lon="3.0880061824466347"><ele>516.0</ele><time>2026-04-18T17:40:52Z</time></trkpt><trkpt lat="45.64558051991979" lon="3.087914877707125"><ele>516.0</ele><time>2026-04-18T17:40:53Z</time></trkpt><trkpt lat="45.645762098135805" lon="3.0878100793344903"><ele>516.0</ele><time>2026-04-18T17:40:54Z</time></trkpt><trkpt lat="45.64591644878566" lon="3.087705013459198"><ele>516.0</ele><time>2026-04-18T17:40:55Z</time></trkpt><trkpt lat="45.646058541573666" lon="3.0876089828183515"><ele>516.0</ele><time>2026-04-18T17:40:56Z</time></trkpt><trkpt lat="45.64620214916917" lon="3.0875327875457184"><ele>516.0</ele><time>2026-04-18T17:40:57Z</time></trkpt><trkpt lat="45.64633922359609" lon="3.0874746411975256"><ele>516.0</ele><time>2026-04-18T17:40:58Z</time></trkpt><trkpt lat="45.64648229952866" lon="3.087428648155753"><ele>516.0</ele><time>2026-04-18T17:40:59Z</time></trkpt><trkpt lat="45.64662905720293" lon="3.0873769988643907"><ele>516.0</ele><time>2026-04-18T17:41:00Z</time></trkpt><trkpt lat="45.64677245535527" lon="3.0873161170908263"><ele>516.0</ele><time>2026-04-18T17:41:01Z</time></trkpt><trkpt lat="45.64690054970212" lon="3.0872337144258912"><ele>517.6666666666666</ele><time>2026-04-18T17:41:02Z</time></trkpt><trkpt lat="45.647016708133194" lon="3.0871138658889565"><ele>519.3333333333333</ele><time>2026-04-18T17:41:03Z</time></trkpt><trkpt lat="45.64712314769029" lon="3.08695760825862"><ele>521.0</ele><time>2026-04-18T17:41:04Z</time></trkpt><trkpt lat="45.647213614670655" lon="3.086776313507923"><ele>520.3333333333333</ele><time>2026-04-18T17:41:05Z</time></trkpt><trkpt lat="45.64729863231107" lon="3.086583805704538"><ele>519.6666666666666</ele><time>2026-04-18T17:41:06Z</time></trkpt><trkpt lat="45.64738470978808" lon="3.0864015240701876"><ele>519.0</ele><time>2026-04-18T17:41:07Z</time></trkpt><trkpt lat="45.647476543743046" lon="3.0862465648791835"><ele>519.0</ele><time>2026-04-18T17:41:08Z</time></trkpt><trkpt lat="45.64758319595659" lon="3.0861146706833384"><ele>519.0</ele><time>2026-04-18T17:41:09Z</time></trkpt><trkpt lat="45.647708695296195" lon="3.0859880898544065"><ele>519.0</ele><time>2026-04-18T17:41:10Z</time></trkpt><trkpt lat="45.647842342122274" lon="3.085865016306827"><ele>517.3333333333334</ele><time>2026-04-18T17:41:11Z</time></trkpt><trkpt lat="45.64798237185079" lon="3.085741099792702"><ele>515.6666666666667</ele><time>2026-04-18T17:41:12Z</time></trkpt><trkpt lat="45.64811820267715" lon="3.085603621719046"><ele>514.0</ele><time>2026-04-18T17:41:13Z</time></trkpt><trkpt lat="45.648249683753605" lon="3.0854591853175015"><ele>514.0</ele><time>2026-04-18T17:41:14Z</time></trkpt><trkpt lat="45.64837526905108" lon="3.0853071428081047"><ele>514.0</ele><time>2026-04-18T17:41:15Z</time></trkpt><trkpt lat="45.64850085302992" lon="3.0851664353118755"><ele>514.0</ele><time>2026-04-18T17:41:16Z</time></trkpt><trkpt lat="45.64862945590803" lon="3.085051957119778"><ele>513.0</ele><time>2026-04-18T17:41:17Z</time></trkpt><trkpt lat="45.648771825940976" lon="3.0849727529800264"><ele>512.0</ele><time>2026-04-18T17:41:18Z</time></trkpt><trkpt lat="45.64891362888309" lon="3.08486709328745"><ele>511.0</ele><time>2026-04-18T17:41:19Z</time></trkpt><trkpt lat="45.64906410894613" lon="3.0847970096733395"><ele>511.0</ele><time>2026-04-18T17:41:20Z</time></trkpt><trkpt lat="45.64921701377699" lon="3.0847337300193143"><ele>511.0</ele><time>2026-04-18T17:41:21Z</time></trkpt><trkpt lat="45.64937458723821" lon="3.0846829465503007"><ele>511.0</ele><time>2026-04-18T17:41:22Z</time></trkpt><trkpt lat="45.64953737402247" lon="3.0846502314060715"><ele>511.25</ele><time>2026-04-18T17:41:23Z</time></trkpt><trkpt lat="45.649684921055574" lon="3.08468773164933"><ele>511.5</ele><time>2026-04-18T17:41:24Z</time></trkpt><trkpt lat="45.64982655846953" lon="3.0847095341259196"><ele>511.75</ele><time>2026-04-18T17:41:25Z</time></trkpt><trkpt lat="45.64996450277072" lon="3.0847149975546575"><ele>512.0</ele><time>2026-04-18T17:41:26Z</time></trkpt><trkpt lat="45.65010485094194" lon="3.0846835562894546"><ele>512.0</ele><time>2026-04-18T17:41:27Z</time></trkpt><trkpt lat="45.650248256641476" lon="3.084630698006572"><ele>512.0</ele><time>2026-04-18T17:41:28Z</time></trkpt><trkpt lat="45.650391318306156" lon="3.0845486011661887"><ele>512.0</ele><time>2026-04-18T17:41:29Z</time></trkpt><trkpt lat="45.650544512154816" lon="3.0844645597304754"><ele>512.5</ele><time>2026-04-18T17:41:30Z</time></trkpt><trkpt lat="45.65069504667022" lon="3.0843902225265136"><ele>513.0</ele><time>2026-04-18T17:41:31Z</time></trkpt><trkpt lat="45.65082865940497" lon="3.0843368211578346"><ele>513.5</ele><time>2026-04-18T17:41:32Z</time></trkpt><trkpt lat="45.650959983048054" lon="3.084290350589644"><ele>514.0</ele><time>2026-04-18T17:41:33Z</time></trkpt><trkpt lat="45.65108637227214" lon="3.0842528596022984"><ele>514.25</ele><time>2026-04-18T17:41:34Z</time></trkpt><trkpt lat="45.65122220025815" lon="3.0842163721715017"><ele>514.5</ele><time>2026-04-18T17:41:35Z</time></trkpt><trkpt lat="45.651361367427384" lon="3.084204743482263"><ele>514.75</ele><time>2026-04-18T17:41:36Z</time></trkpt><trkpt lat="45.65150200677782" lon="3.084175781063096"><ele>515.0</ele><time>2026-04-18T17:41:37Z</time></trkpt><trkpt lat="45.651648427323416" lon="3.084138657723089"><ele>515.0</ele><time>2026-04-18T17:41:38Z</time></trkpt><trkpt lat="45.651802825843795" lon="3.0841670363563023"><ele>515.0</ele><time>2026-04-18T17:41:39Z</time></trkpt><trkpt lat="45.651955060613744" lon="3.084178726236252"><ele>515.0</ele><time>2026-04-18T17:41:40Z</time></trkpt><trkpt lat="45.65211113228528" lon="3.0841978582020957"><ele>515.6666666666666</ele><time>2026-04-18T17:41:41Z</time></trkpt><trkpt lat="45.652270665185746" lon="3.0842218974041815"><ele>516.3333333333334</ele><time>2026-04-18T17:41:42Z</time></trkpt><trkpt lat="45.65242162827459" lon="3.0842446452566383"><ele>517.0</ele><time>2026-04-18T17:41:43Z</time></trkpt><trkpt lat="45.65256273853296" lon="3.0842662641698673"><ele>517.0</ele><time>2026-04-18T17:41:44Z</time></trkpt><trkpt lat="45.65269785633005" lon="3.084287037994425"><ele>517.0</ele><time>2026-04-18T17:41:45Z</time></trkpt><trkpt lat="45.652822681174726" lon="3.084306229326881"><ele>517.0</ele><time>2026-04-18T17:41:46Z</time></trkpt><trkpt lat="45.65293853620354" lon="3.084326292112885"><ele>517.0</ele><time>2026-04-18T17:41:47Z</time></trkpt><trkpt lat="45.65304991941532" lon="3.084345743481642"><ele>516.8000000000001</ele><time>2026-04-18T17:41:48Z</time></trkpt><trkpt lat="45.65315694333939" lon="3.084363467049556"><ele>516.6</ele><time>2026-04-18T17:41:49Z</time></trkpt><trkpt lat="45.65325440667702" lon="3.0843782023604116"><ele>516.4000000000001</ele><time>2026-04-18T17:41:50Z</time></trkpt><trkpt lat="45.65334829771288" lon="3.0843908374986095"><ele>516.2</ele><time>2026-04-18T17:41:51Z</time></trkpt><trkpt lat="45.653450074324454" lon="3.0844045338403365"><ele>516.0</ele><time>2026-04-18T17:41:52Z</time></trkpt><trkpt lat="45.65356294394061" lon="3.0844228792263944"><ele>516.25</ele><time>2026-04-18T17:41:53Z</time></trkpt><trkpt lat="45.65367961949724" lon="3.0844433790360597"><ele>516.5</ele><time>2026-04-18T17:41:54Z</time></trkpt><trkpt lat="45.65379201262808" lon="3.0844655099243763"><ele>516.75</ele><time>2026-04-18T17:41:55Z</time></trkpt><trkpt lat="45.653913362598274" lon="3.084491817028253"><ele>517.0</ele><time>2026-04-18T17:41:56Z</time></trkpt><trkpt lat="45.65402996032813" lon="3.0845259641504437"><ele>517.0</ele><time>2026-04-18T17:41:57Z</time></trkpt><trkpt lat="45.65414210350822" lon="3.0845708890683086"><ele>517.0</ele><time>2026-04-18T17:41:58Z</time></trkpt><trkpt lat="45.65426234504167" lon="3.084605683543472"><ele>517.0</ele><time>2026-04-18T17:41:59Z</time></trkpt><trkpt lat="45.65437805913103" lon="3.084670030968916"><ele>517.0</ele><time>2026-04-18T17:42:00Z</time></trkpt><trkpt lat="45.654501856867846" lon="3.084726939629758"><ele>517.75</ele><time>2026-04-18T17:42:01Z</time></trkpt><trkpt lat="45.65462528553878" lon="3.0847583177127014"><ele>518.5</ele><time>2026-04-18T17:42:02Z</time></trkpt><trkpt lat="45.65475270265985" lon="3.0847658763277783"><ele>519.25</ele><time>2026-04-18T17:42:03Z</time></trkpt><trkpt lat="45.6548871173648" lon="3.084750862030805"><ele>520.0</ele><time>2026-04-18T17:42:04Z</time></trkpt><trkpt lat="45.655017001901776" lon="3.084728986852505"><ele>520.0</ele><time>2026-04-18T17:42:05Z</time></trkpt><trkpt lat="45.65514769422369" lon="3.0847434182930704"><ele>520.0</ele><time>2026-04-18T17:42:06Z</time></trkpt><trkpt lat="45.655280267951035" lon="3.0847561523093328"><ele>520.0</ele><time>2026-04-18T17:42:07Z</time></trkpt><trkpt lat="45.655412050902136" lon="3.0847701570023722"><ele>520.0</ele><time>2026-04-18T17:42:08Z</time></trkpt><trkpt lat="45.655541016080576" lon="3.08478337789994"><ele>520.75</ele><time>2026-04-18T17:42:09Z</time></trkpt><trkpt lat="45.65567321875949" lon="3.084773390332479"><ele>521.5</ele><time>2026-04-18T17:42:10Z</time></trkpt><trkpt lat="45.655806299604336" lon="3.0848121863047866"><ele>522.25</ele><time>2026-04-18T17:42:11Z</time></trkpt><trkpt lat="45.655929106055694" lon="3.084826146924478"><ele>523.0</ele><time>2026-04-18T17:42:12Z</time></trkpt><trkpt lat="45.656046665413015" lon="3.084839511005532"><ele>523.6</ele><time>2026-04-18T17:42:13Z</time></trkpt><trkpt lat="45.65614969134028" lon="3.0848507647561534"><ele>524.1999999999999</ele><time>2026-04-18T17:42:14Z</time></trkpt><trkpt lat="45.656239940535976" lon="3.084858479691093"><ele>524.8</ele><time>2026-04-18T17:42:15Z</time></trkpt><trkpt lat="45.656317110414" lon="3.08485149408574"><ele>525.4</ele><time>2026-04-18T17:42:16Z</time></trkpt><trkpt lat="45.65636821369622" lon="3.0849166802918084"><ele>526.0</ele><time>2026-04-18T17:42:17Z</time></trkpt><trkpt lat="45.65638656380849" lon="3.0851260588835014"><ele>526.0</ele><time>2026-04-18T17:42:19Z</time></trkpt><trkpt lat="45.65637147718064" lon="3.0852313900790818"><ele>526.0</ele><time>2026-04-18T17:42:20Z</time></trkpt><trkpt lat="45.65637164057721" lon="3.085352667768779"><ele>526.0</ele><time>2026-04-18T17:42:21Z</time></trkpt><trkpt lat="45.656396715725805" lon="3.085461112195475"><ele>526.0</ele><time>2026-04-18T17:42:22Z</time></trkpt><trkpt lat="45.65642867314456" lon="3.0855605890908127"><ele>526.0</ele><time>2026-04-18T17:42:23Z</time></trkpt><trkpt lat="45.656445673417025" lon="3.0856680414977884"><ele>526.0</ele><time>2026-04-18T17:42:24Z</time></trkpt><trkpt lat="45.656455758295195" lon="3.0857863606351046"><ele>525.0</ele><time>2026-04-18T17:42:25Z</time></trkpt><trkpt lat="45.65646764995778" lon="3.0859181709210333"><ele>524.0</ele><time>2026-04-18T17:42:26Z</time></trkpt><trkpt lat="45.6564827016479" lon="3.0860627759581543"><ele>523.0</ele><time>2026-04-18T17:42:27Z</time></trkpt><trkpt lat="45.65649612508631" lon="3.086207463199369"><ele>522.0</ele><time>2026-04-18T17:42:28Z</time></trkpt><trkpt lat="45.656511814270026" lon="3.0863404482335426"><ele>521.0</ele><time>2026-04-18T17:42:29Z</time></trkpt><trkpt lat="45.65652850036087" lon="3.086466554989851"><ele>521.0</ele><time>2026-04-18T17:42:30Z</time></trkpt><trkpt lat="45.656555921474805" lon="3.0865826657835242"><ele>521.0</ele><time>2026-04-18T17:42:31Z</time></trkpt><trkpt lat="45.65659858457138" lon="3.0866913167040098"><ele>521.0</ele><time>2026-04-18T17:42:32Z</time></trkpt><trkpt lat="45.65665118880662" lon="3.0867973423012107"><ele>521.0</ele><time>2026-04-18T17:42:33Z</time></trkpt><trkpt lat="45.65671563765494" lon="3.086903135327315"><ele>521.0</ele><time>2026-04-18T17:42:33.999Z</time></trkpt><trkpt lat="45.65677694700779" lon="3.086988551292461"><ele>521.0</ele><time>2026-04-18T17:42:34.999Z</time></trkpt><trkpt lat="45.65684130102423" lon="3.087081045771983"><ele>521.0</ele><time>2026-04-18T17:42:35.999Z</time></trkpt><trkpt lat="45.65689131113732" lon="3.0871790216319117"><ele>521.0</ele><time>2026-04-18T17:42:36.999Z</time></trkpt><trkpt lat="45.65691940924742" lon="3.0872811383843364"><ele>521.0</ele><time>2026-04-18T17:42:37.999Z</time></trkpt><trkpt lat="45.65692405191324" lon="3.087502613665311"><ele>521.0</ele><time>2026-04-18T17:42:39.999Z</time></trkpt><trkpt lat="45.656902314857234" lon="3.087617727320458"><ele>521.0</ele><time>2026-04-18T17:42:40.999Z</time></trkpt><trkpt lat="45.65687499357173" lon="3.087728011934796"><ele>521.0</ele><time>2026-04-18T17:42:41.999Z</time></trkpt><trkpt lat="45.656848266582514" lon="3.0878658053601877"><ele>521.0</ele><time>2026-04-18T17:42:42.999Z</time></trkpt><trkpt lat="45.65682787077838" lon="3.0879948375374138"><ele>521.0</ele><time>2026-04-18T17:42:43.999Z</time></trkpt><trkpt lat="45.656806841718826" lon="3.088115538982421"><ele>521.0</ele><time>2026-04-18T17:42:44.999Z</time></trkpt><trkpt lat="45.65679097182657" lon="3.0882329558201476"><ele>521.0</ele><time>2026-04-18T17:42:45.999Z</time></trkpt><trkpt lat="45.65678930862438" lon="3.088365406899441"><ele>521.0</ele><time>2026-04-18T17:42:46.999Z</time></trkpt><trkpt lat="45.65681216221346" lon="3.088497149331156"><ele>521.0</ele><time>2026-04-18T17:42:47.999Z</time></trkpt><trkpt lat="45.656851240203686" lon="3.0886220939291147"><ele>521.0</ele><time>2026-04-18T17:42:48.999Z</time></trkpt><trkpt lat="45.656908113817614" lon="3.088733052438412"><ele>521.0</ele><time>2026-04-18T17:42:50Z</time></trkpt><trkpt lat="45.65697640710969" lon="3.088836582147424"><ele>521.0</ele><time>2026-04-18T17:42:51Z</time></trkpt><trkpt lat="45.65705433608146" lon="3.0889341123950533"><ele>521.0</ele><time>2026-04-18T17:42:52Z</time></trkpt><trkpt lat="45.65713869270501" lon="3.089038434176241"><ele>521.0</ele><time>2026-04-18T17:42:53Z</time></trkpt><trkpt lat="45.65721772172117" lon="3.089142010743694"><ele>521.0</ele><time>2026-04-18T17:42:54Z</time></trkpt><trkpt lat="45.6572953678756" lon="3.0892459151455323"><ele>521.0</ele><time>2026-04-18T17:42:55Z</time></trkpt><trkpt lat="45.65737029741209" lon="3.0893490355069577"><ele>521.0</ele><time>2026-04-18T17:42:56Z</time></trkpt><trkpt lat="45.65744709049332" lon="3.0894558637389915"><ele>520.4</ele><time>2026-04-18T17:42:57Z</time></trkpt><trkpt lat="45.65752055280555" lon="3.089560769707549"><ele>519.8</ele><time>2026-04-18T17:42:58Z</time></trkpt><trkpt lat="45.65759041015071" lon="3.0896613791534544"><ele>519.1999999999999</ele><time>2026-04-18T17:42:59Z</time></trkpt><trkpt lat="45.65767190079702" lon="3.089745763474702"><ele>518.6</ele><time>2026-04-18T17:43:00Z</time></trkpt><trkpt lat="45.657764556885354" lon="3.0898330073272144"><ele>518.0</ele><time>2026-04-18T17:43:01Z</time></trkpt><trkpt lat="45.657865272474226" lon="3.089912471354385"><ele>517.4</ele><time>2026-04-18T17:43:02Z</time></trkpt><trkpt lat="45.657972561575775" lon="3.0899876275476346"><ele>516.8</ele><time>2026-04-18T17:43:03Z</time></trkpt><trkpt lat="45.65807462009731" lon="3.090059243968843"><ele>516.2</ele><time>2026-04-18T17:43:04Z</time></trkpt><trkpt lat="45.65817153975122" lon="3.0901248406532273"><ele>515.6</ele><time>2026-04-18T17:43:05Z</time></trkpt><trkpt lat="45.65826564047729" lon="3.0901920717427727"><ele>515.0</ele><time>2026-04-18T17:43:06Z</time></trkpt><trkpt lat="45.658365345677005" lon="3.0902589090737016"><ele>515.0</ele><time>2026-04-18T17:43:07Z</time></trkpt><trkpt lat="45.65847003608308" lon="3.0903320116774022"><ele>515.0</ele><time>2026-04-18T17:43:08Z</time></trkpt><trkpt lat="45.658579758780654" lon="3.0904080649442736"><ele>515.0</ele><time>2026-04-18T17:43:09Z</time></trkpt><trkpt lat="45.65868851119056" lon="3.0904789030057183"><ele>515.0</ele><time>2026-04-18T17:43:10Z</time></trkpt><trkpt lat="45.65879061032839" lon="3.0905754774091014"><ele>514.0</ele><time>2026-04-18T17:43:11Z</time></trkpt><trkpt lat="45.65890943047721" lon="3.0906331285852855"><ele>513.0</ele><time>2026-04-18T17:43:12Z</time></trkpt><trkpt lat="45.65901616005192" lon="3.090709699122502"><ele>512.0</ele><time>2026-04-18T17:43:13Z</time></trkpt><trkpt lat="45.65911570153497" lon="3.090784217819004"><ele>511.0</ele><time>2026-04-18T17:43:14Z</time></trkpt><trkpt lat="45.659212221364726" lon="3.090851653054136"><ele>511.0</ele><time>2026-04-18T17:43:15Z</time></trkpt><trkpt lat="45.65930175648523" lon="3.090916278711487"><ele>511.0</ele><time>2026-04-18T17:43:16Z</time></trkpt><trkpt lat="45.65938918893688" lon="3.0909776591597646"><ele>511.0</ele><time>2026-04-18T17:43:17Z</time></trkpt><trkpt lat="45.65947321527811" lon="3.091046409994506"><ele>511.0</ele><time>2026-04-18T17:43:18Z</time></trkpt><trkpt lat="45.659546080562144" lon="3.09112311594508"><ele>511.0</ele><time>2026-04-18T17:43:19Z</time></trkpt><trkpt lat="45.659606996955816" lon="3.0912130933907114"><ele>510.4</ele><time>2026-04-18T17:43:20Z</time></trkpt><trkpt lat="45.65965479416016" lon="3.091312991569054"><ele>509.8</ele><time>2026-04-18T17:43:21Z</time></trkpt><trkpt lat="45.65969275092799" lon="3.0914308806528146"><ele>509.19999999999993</ele><time>2026-04-18T17:43:22Z</time></trkpt><trkpt lat="45.659720723883694" lon="3.091566210819846"><ele>508.59999999999997</ele><time>2026-04-18T17:43:23Z</time></trkpt><trkpt lat="45.65974672672239" lon="3.0917277267462806"><ele>508.0</ele><time>2026-04-18T17:43:24Z</time></trkpt><trkpt lat="45.659773292868394" lon="3.0918901014170803"><ele>507.79999999999995</ele><time>2026-04-18T17:43:25Z</time></trkpt><trkpt lat="45.65979728362809" lon="3.092049396366468"><ele>507.59999999999997</ele><time>2026-04-18T17:43:26Z</time></trkpt><trkpt lat="45.65982119550558" lon="3.092181991426102"><ele>507.40000000000003</ele><time>2026-04-18T17:43:27Z</time></trkpt><trkpt lat="45.659858750558755" lon="3.092299745714507"><ele>507.20000000000005</ele><time>2026-04-18T17:43:28Z</time></trkpt><trkpt lat="45.659918066301444" lon="3.0924097259506786"><ele>507.0</ele><time>2026-04-18T17:43:29Z</time></trkpt><trkpt lat="45.65999946243444" lon="3.092512040529959"><ele>507.75</ele><time>2026-04-18T17:43:30Z</time></trkpt><trkpt lat="45.66008136656175" lon="3.0926057469070853"><ele>508.5</ele><time>2026-04-18T17:43:31Z</time></trkpt><trkpt lat="45.66017169347596" lon="3.0927104103182805"><ele>509.25</ele><time>2026-04-18T17:43:32Z</time></trkpt><trkpt lat="45.66027221887733" lon="3.092813767435898"><ele>510.0</ele><time>2026-04-18T17:43:33Z</time></trkpt><trkpt lat="45.66036783648652" lon="3.092895420022377"><ele>508.5</ele><time>2026-04-18T17:43:34Z</time></trkpt><trkpt lat="45.66047864366274" lon="3.092967576280622"><ele>507.0</ele><time>2026-04-18T17:43:35Z</time></trkpt><trkpt lat="45.660604903568206" lon="3.093039121263674"><ele>505.5</ele><time>2026-04-18T17:43:36Z</time></trkpt><trkpt lat="45.66074115706678" lon="3.093105665302488"><ele>504.0</ele><time>2026-04-18T17:43:37Z</time></trkpt><trkpt lat="45.66088532889625" lon="3.093179654164707"><ele>504.0</ele><time>2026-04-18T17:43:38Z</time></trkpt><trkpt lat="45.66101432888818" lon="3.0932455377129338"><ele>504.0</ele><time>2026-04-18T17:43:39Z</time></trkpt><trkpt lat="45.66113787022334" lon="3.0933104331028347"><ele>504.0</ele><time>2026-04-18T17:43:40Z</time></trkpt><trkpt lat="45.66126712136255" lon="3.093370145669984"><ele>504.0</ele><time>2026-04-18T17:43:41Z</time></trkpt><trkpt lat="45.66140234585863" lon="3.093441700908338"><ele>504.5</ele><time>2026-04-18T17:43:42Z</time></trkpt><trkpt lat="45.661538326625255" lon="3.093510166592438"><ele>505.0</ele><time>2026-04-18T17:43:43Z</time></trkpt><trkpt lat="45.66166457813293" lon="3.0935760335572637"><ele>505.5</ele><time>2026-04-18T17:43:44Z</time></trkpt><trkpt lat="45.661783283837266" lon="3.0936415309211225"><ele>506.0</ele><time>2026-04-18T17:43:45Z</time></trkpt><trkpt lat="45.661897128917644" lon="3.0937108108971834"><ele>505.0</ele><time>2026-04-18T17:43:46Z</time></trkpt><trkpt lat="45.662005750070804" lon="3.0938047703741067"><ele>504.0</ele><time>2026-04-18T17:43:47Z</time></trkpt><trkpt lat="45.6621030524533" lon="3.0939322254018475"><ele>503.0</ele><time>2026-04-18T17:43:48Z</time></trkpt><trkpt lat="45.66216609875253" lon="3.09412248978815"><ele>502.0</ele><time>2026-04-18T17:43:49Z</time></trkpt><trkpt lat="45.66224676022484" lon="3.0942970574357482"><ele>502.0</ele><time>2026-04-18T17:43:50Z</time></trkpt><trkpt lat="45.66231029989478" lon="3.0944987870956013"><ele>502.0</ele><time>2026-04-18T17:43:51Z</time></trkpt><trkpt lat="45.66237901794039" lon="3.0946990026181402"><ele>502.0</ele><time>2026-04-18T17:43:52Z</time></trkpt><trkpt lat="45.662440694263495" lon="3.0948863599612744"><ele>502.25</ele><time>2026-04-18T17:43:53Z</time></trkpt><trkpt lat="45.66250495555226" lon="3.095068542404246"><ele>502.5</ele><time>2026-04-18T17:43:54Z</time></trkpt><trkpt lat="45.66257437698544" lon="3.095245370299394"><ele>502.75</ele><time>2026-04-18T17:43:55Z</time></trkpt><trkpt lat="45.66263787293502" lon="3.0954244713591477"><ele>503.0</ele><time>2026-04-18T17:43:56Z</time></trkpt><trkpt lat="45.662680655330036" lon="3.09561890028854"><ele>501.75</ele><time>2026-04-18T17:43:57Z</time></trkpt><trkpt lat="45.662725844070266" lon="3.095800870431972"><ele>500.5</ele><time>2026-04-18T17:43:58Z</time></trkpt><trkpt lat="45.662757732005346" lon="3.0959891538306055"><ele>499.25</ele><time>2026-04-18T17:43:59Z</time></trkpt><trkpt lat="45.66279393788455" lon="3.0962067176886867"><ele>498.0</ele><time>2026-04-18T17:44:00Z</time></trkpt><trkpt lat="45.662801549470885" lon="3.096413681623174"><ele>496.5</ele><time>2026-04-18T17:44:01Z</time></trkpt><trkpt lat="45.66281753362733" lon="3.096606331335887"><ele>495.0</ele><time>2026-04-18T17:44:02Z</time></trkpt><trkpt lat="45.66284140644101" lon="3.0967882559359703"><ele>493.5</ele><time>2026-04-18T17:44:03Z</time></trkpt><trkpt lat="45.66287773360344" lon="3.096959260545606"><ele>492.0</ele><time>2026-04-18T17:44:04Z</time></trkpt><trkpt lat="45.66293080743674" lon="3.0971202172071015"><ele>492.0</ele><time>2026-04-18T17:44:05Z</time></trkpt><trkpt lat="45.6630002697996" lon="3.0972612296478936"><ele>492.00000000000006</ele><time>2026-04-18T17:44:06Z</time></trkpt><trkpt lat="45.66307486876121" lon="3.0973910912878084"><ele>492.00000000000006</ele><time>2026-04-18T17:44:07Z</time></trkpt><trkpt lat="45.66314405742793" lon="3.0975118756751874"><ele>492.0</ele><time>2026-04-18T17:44:08Z</time></trkpt><trkpt lat="45.6631964121374" lon="3.0976017508578826"><ele>492.0</ele><time>2026-04-18T17:44:09Z</time></trkpt><trkpt lat="45.66325168933053" lon="3.0976932692127646"><ele>491.40000000000003</ele><time>2026-04-18T17:44:10Z</time></trkpt><trkpt lat="45.66330962987715" lon="3.0977836689946026"><ele>490.80000000000007</ele><time>2026-04-18T17:44:11Z</time></trkpt><trkpt lat="45.66336633489783" lon="3.097894224337707"><ele>490.2</ele><time>2026-04-18T17:44:12Z</time></trkpt><trkpt lat="45.663432166969244" lon="3.098030728504367"><ele>489.6</ele><time>2026-04-18T17:44:13Z</time></trkpt><trkpt lat="45.66351350270692" lon="3.098172350425264"><ele>489.0</ele><time>2026-04-18T17:44:14Z</time></trkpt><trkpt lat="45.66359894615323" lon="3.098318178751173"><ele>487.75</ele><time>2026-04-18T17:44:15Z</time></trkpt><trkpt lat="45.66368548503496" lon="3.0984755534076465"><ele>486.5</ele><time>2026-04-18T17:44:16Z</time></trkpt><trkpt lat="45.663775898657185" lon="3.098640362998331"><ele>485.25</ele><time>2026-04-18T17:44:17Z</time></trkpt><trkpt lat="45.663878884184015" lon="3.0988202865453"><ele>484.0</ele><time>2026-04-18T17:44:18Z</time></trkpt><trkpt lat="45.66397898755994" lon="3.098992892775722"><ele>483.5</ele><time>2026-04-18T17:44:19Z</time></trkpt><trkpt lat="45.664073814189095" lon="3.0991684687116194"><ele>483.0</ele><time>2026-04-18T17:44:20Z</time></trkpt><trkpt lat="45.66416041375029" lon="3.0993216077523082"><ele>482.5</ele><time>2026-04-18T17:44:21Z</time></trkpt><trkpt lat="45.664243840297154" lon="3.0994664526034046"><ele>482.0</ele><time>2026-04-18T17:44:22Z</time></trkpt><trkpt lat="45.66432728142666" lon="3.099613473169116"><ele>482.0</ele><time>2026-04-18T17:44:23Z</time></trkpt><trkpt lat="45.66441573011628" lon="3.0997619537500514"><ele>482.0</ele><time>2026-04-18T17:44:24Z</time></trkpt><trkpt lat="45.66450568719038" lon="3.0999115997332027"><ele>482.0</ele><time>2026-04-18T17:44:25Z</time></trkpt><trkpt lat="45.66459185856104" lon="3.1000673410773723"><ele>482.0</ele><time>2026-04-18T17:44:25.999Z</time></trkpt><trkpt lat="45.664679183569106" lon="3.100231414234516"><ele>481.25</ele><time>2026-04-18T17:44:26.999Z</time></trkpt><trkpt lat="45.66475131815916" lon="3.100377852445052"><ele>480.5</ele><time>2026-04-18T17:44:27.999Z</time></trkpt><trkpt lat="45.664844603949305" lon="3.1005465961584835"><ele>479.75</ele><time>2026-04-18T17:44:28.999Z</time></trkpt><trkpt lat="45.66493278534304" lon="3.100708949313164"><ele>479.0</ele><time>2026-04-18T17:44:29.999Z</time></trkpt><trkpt lat="45.665017110545676" lon="3.100872785711946"><ele>479.0</ele><time>2026-04-18T17:44:30.999Z</time></trkpt><trkpt lat="45.66510563658251" lon="3.101034337419167"><ele>479.0</ele><time>2026-04-18T17:44:31.999Z</time></trkpt><trkpt lat="45.66519081227198" lon="3.1011889583784185"><ele>479.0</ele><time>2026-04-18T17:44:32.999Z</time></trkpt><trkpt lat="45.66527077987668" lon="3.10133780751623"><ele>479.0</ele><time>2026-04-18T17:44:33.999Z</time></trkpt><trkpt lat="45.66534729571581" lon="3.1014767599170128"><ele>478.25</ele><time>2026-04-18T17:44:34.999Z</time></trkpt><trkpt lat="45.66542042184105" lon="3.1016083802252266"><ele>477.5</ele><time>2026-04-18T17:44:35.999Z</time></trkpt><trkpt lat="45.665496205274366" lon="3.1017319382466977"><ele>476.75</ele><time>2026-04-18T17:44:36.999Z</time></trkpt><trkpt lat="45.665576090139126" lon="3.1018462392461146"><ele>476.0</ele><time>2026-04-18T17:44:37.999Z</time></trkpt><trkpt lat="45.66564202366427" lon="3.101995723444648"><ele>476.0</ele><time>2026-04-18T17:44:38.999Z</time></trkpt><trkpt lat="45.66572714612109" lon="3.102146376158761"><ele>476.0</ele><time>2026-04-18T17:44:39.999Z</time></trkpt><trkpt lat="45.66580865783957" lon="3.1022913637896927"><ele>476.0</ele><time>2026-04-18T17:44:40.999Z</time></trkpt><trkpt lat="45.66589493243839" lon="3.102454982308516"><ele>476.0</ele><time>2026-04-18T17:44:41.999Z</time></trkpt><trkpt lat="45.66598603204295" lon="3.1026065598184154"><ele>475.75</ele><time>2026-04-18T17:44:42.999Z</time></trkpt><trkpt lat="45.66606820327648" lon="3.102769176363887"><ele>475.5</ele><time>2026-04-18T17:44:43.999Z</time></trkpt><trkpt lat="45.66615097625818" lon="3.102928617176957"><ele>475.25</ele><time>2026-04-18T17:44:44.999Z</time></trkpt><trkpt lat="45.66623529310497" lon="3.103091480068211"><ele>475.0</ele><time>2026-04-18T17:44:45.999Z</time></trkpt><trkpt lat="45.66632253555677" lon="3.103235471558012"><ele>473.5</ele><time>2026-04-18T17:44:46.999Z</time></trkpt><trkpt lat="45.66640170028451" lon="3.1033819850152717"><ele>472.0</ele><time>2026-04-18T17:44:47.999Z</time></trkpt><trkpt lat="45.66648270587793" lon="3.103512703918961"><ele>470.5</ele><time>2026-04-18T17:44:48.999Z</time></trkpt><trkpt lat="45.66657418748218" lon="3.1036321058292478"><ele>469.0</ele><time>2026-04-18T17:44:49.999Z</time></trkpt><trkpt lat="45.666668435237796" lon="3.103727426069305"><ele>469.0</ele><time>2026-04-18T17:44:50.999Z</time></trkpt><trkpt lat="45.666780142384525" lon="3.1038071756815637"><ele>469.0</ele><time>2026-04-18T17:44:51.999Z</time></trkpt><trkpt lat="45.666897415049405" lon="3.103864754417683"><ele>469.0</ele><time>2026-04-18T17:44:52.999Z</time></trkpt><trkpt lat="45.66700773714171" lon="3.1039123160360513"><ele>469.0</ele><time>2026-04-18T17:44:53.999Z</time></trkpt><trkpt lat="45.667116083157126" lon="3.1039618907224047"><ele>469.0</ele><time>2026-04-18T17:44:55Z</time></trkpt><trkpt lat="45.66722579664106" lon="3.1040057273594477"><ele>469.0</ele><time>2026-04-18T17:44:56Z</time></trkpt><trkpt lat="45.66734217726437" lon="3.1040330505401483"><ele>469.0</ele><time>2026-04-18T17:44:57Z</time></trkpt><trkpt lat="45.66746086908019" lon="3.104062607785916"><ele>469.0</ele><time>2026-04-18T17:44:58Z</time></trkpt><trkpt lat="45.66757009209916" lon="3.104071619984333"><ele>468.75</ele><time>2026-04-18T17:44:59Z</time></trkpt><trkpt lat="45.66767423179797" lon="3.1040975897164698"><ele>468.5</ele><time>2026-04-18T17:45:00Z</time></trkpt><trkpt lat="45.667780524074566" lon="3.1041308445379707"><ele>468.25</ele><time>2026-04-18T17:45:01Z</time></trkpt><trkpt lat="45.66786169707965" lon="3.104251911371003"><ele>468.0</ele><time>2026-04-18T17:45:02Z</time></trkpt><trkpt lat="45.66796250499254" lon="3.1043708983014118"><ele>467.0</ele><time>2026-04-18T17:45:03Z</time></trkpt><trkpt lat="45.66807337438334" lon="3.1044798892090966"><ele>466.0</ele><time>2026-04-18T17:45:04Z</time></trkpt><trkpt lat="45.66816098725973" lon="3.1045995898420036"><ele>465.0</ele><time>2026-04-18T17:45:05Z</time></trkpt><trkpt lat="45.66825004681916" lon="3.104700722149368"><ele>464.0</ele><time>2026-04-18T17:45:06Z</time></trkpt><trkpt lat="45.66833274279241" lon="3.1048044039880356"><ele>463.5</ele><time>2026-04-18T17:45:07Z</time></trkpt><trkpt lat="45.66840598140213" lon="3.1049482208691015"><ele>463.0</ele><time>2026-04-18T17:45:08Z</time></trkpt><trkpt lat="45.66847681853704" lon="3.1050889604656837"><ele>462.5</ele><time>2026-04-18T17:45:09Z</time></trkpt><trkpt lat="45.66852834184499" lon="3.1052516859794626"><ele>462.0</ele><time>2026-04-18T17:45:10Z</time></trkpt><trkpt lat="45.66855928287897" lon="3.105408508242525"><ele>462.0</ele><time>2026-04-18T17:45:11Z</time></trkpt><trkpt lat="45.668578063147805" lon="3.1055697525957866"><ele>462.00000000000006</ele><time>2026-04-18T17:45:12Z</time></trkpt><trkpt lat="45.66861184361831" lon="3.105725861453842"><ele>462.00000000000006</ele><time>2026-04-18T17:45:13Z</time></trkpt><trkpt lat="45.668626121037605" lon="3.1058788858836044"><ele>462.0</ele><time>2026-04-18T17:45:14Z</time></trkpt><trkpt lat="45.66865051345493" lon="3.106025263672021"><ele>462.0</ele><time>2026-04-18T17:45:15Z</time></trkpt><trkpt lat="45.66867978009417" lon="3.1061597464089177"><ele>461.6</ele><time>2026-04-18T17:45:16Z</time></trkpt><trkpt lat="45.668776379863026" lon="3.1062549413499005"><ele>461.20000000000005</ele><time>2026-04-18T17:45:17Z</time></trkpt><trkpt lat="45.66886715839254" lon="3.1063427056382547"><ele>460.8</ele><time>2026-04-18T17:45:18Z</time></trkpt><trkpt lat="45.66895766921678" lon="3.1064240096026006"><ele>460.4</ele><time>2026-04-18T17:45:19Z</time></trkpt><trkpt lat="45.66903600830055" lon="3.106516186934292"><ele>460.0</ele><time>2026-04-18T17:45:20Z</time></trkpt><trkpt lat="45.66910483950946" lon="3.106609746405558"><ele>459.83333333333337</ele><time>2026-04-18T17:45:21Z</time></trkpt><trkpt lat="45.6691663783644" lon="3.106686807787002"><ele>459.6666666666667</ele><time>2026-04-18T17:45:22Z</time></trkpt><trkpt lat="45.66923619395994" lon="3.1067730208839963"><ele>459.5</ele><time>2026-04-18T17:45:23Z</time></trkpt><trkpt lat="45.669297791821855" lon="3.1068532202024683"><ele>459.33333333333337</ele><time>2026-04-18T17:45:24Z</time></trkpt><trkpt lat="45.66935337100649" lon="3.1069318089441254"><ele>459.1666666666667</ele><time>2026-04-18T17:45:25Z</time></trkpt><trkpt lat="45.66942101396132" lon="3.107037556865913"><ele>459.0</ele><time>2026-04-18T17:45:27Z</time></trkpt><trkpt lat="45.66940870652697" lon="3.1071751876423424"><ele>459.0</ele><time>2026-04-18T17:45:29Z</time></trkpt><trkpt lat="45.66938389586241" lon="3.1072987098463183"><ele>459.0</ele><time>2026-04-18T17:45:31Z</time></trkpt><trkpt lat="45.669380934027124" lon="3.107476404580218"><ele>459.0</ele><time>2026-04-18T17:45:33Z</time></trkpt><trkpt lat="45.669381259002854" lon="3.107604069431758"><ele>459.0</ele><time>2026-04-18T17:45:34Z</time></trkpt><trkpt lat="45.66938669297133" lon="3.107721998980135"><ele>459.0</ele><time>2026-04-18T17:45:35Z</time></trkpt><trkpt lat="45.66939131659959" lon="3.107831822210332"><ele>459.0</ele><time>2026-04-18T17:45:36Z</time></trkpt><trkpt lat="45.66940011897703" lon="3.107941164798038"><ele>459.0</ele><time>2026-04-18T17:45:37Z</time></trkpt><trkpt lat="45.66939945709478" lon="3.1080572223239193"><ele>459.0</ele><time>2026-04-18T17:45:38Z</time></trkpt><trkpt lat="45.669407986943476" lon="3.108153461722697"><ele>459.0</ele><time>2026-04-18T17:45:39Z</time></trkpt><trkpt lat="45.6694030947301" lon="3.1082759380099776"><ele>459.0</ele><time>2026-04-18T17:45:40Z</time></trkpt><trkpt lat="45.6694004446145" lon="3.1084207066714145"><ele>459.0</ele><time>2026-04-18T17:45:41Z</time></trkpt><trkpt lat="45.6693983840635" lon="3.108567360129499"><ele>458.4</ele><time>2026-04-18T17:45:42Z</time></trkpt><trkpt lat="45.66939376235681" lon="3.108717767267388"><ele>457.79999999999995</ele><time>2026-04-18T17:45:43Z</time></trkpt><trkpt lat="45.669394343492634" lon="3.1088340020702026"><ele>457.20000000000005</ele><time>2026-04-18T17:45:44Z</time></trkpt><trkpt lat="45.66938382420996" lon="3.108956358593945"><ele>456.6</ele><time>2026-04-18T17:45:45Z</time></trkpt><trkpt lat="45.66944546841713" lon="3.1090648255348903"><ele>456.0</ele><time>2026-04-18T17:45:46Z</time></trkpt><trkpt lat="45.669495301775086" lon="3.109197632482934"><ele>455.5</ele><time>2026-04-18T17:45:47Z</time></trkpt><trkpt lat="45.66953696304571" lon="3.1093408551327846"><ele>455.0</ele><time>2026-04-18T17:45:48Z</time></trkpt><trkpt lat="45.66957972296468" lon="3.109507197921514"><ele>454.5</ele><time>2026-04-18T17:45:49Z</time></trkpt><trkpt lat="45.66962646242402" lon="3.1096744408848602"><ele>454.0</ele><time>2026-04-18T17:45:50Z</time></trkpt><trkpt lat="45.66967621178877" lon="3.1098483943789685"><ele>453.5</ele><time>2026-04-18T17:45:51Z</time></trkpt><trkpt lat="45.6697277756795" lon="3.1100073165677027"><ele>453.0</ele><time>2026-04-18T17:45:52Z</time></trkpt><trkpt lat="45.66978466075378" lon="3.1101636404248287"><ele>452.5</ele><time>2026-04-18T17:45:53Z</time></trkpt><trkpt lat="45.669846172674426" lon="3.110321855375026"><ele>452.0</ele><time>2026-04-18T17:45:54Z</time></trkpt><trkpt lat="45.66990962072462" lon="3.1104658996007446"><ele>452.0</ele><time>2026-04-18T17:45:55Z</time></trkpt><trkpt lat="45.669966915121286" lon="3.1106046012163677"><ele>452.0</ele><time>2026-04-18T17:45:56Z</time></trkpt><trkpt lat="45.67002251065496" lon="3.1107405391732987"><ele>452.0</ele><time>2026-04-18T17:45:57Z</time></trkpt><trkpt lat="45.67008222260569" lon="3.110877053315859"><ele>452.0</ele><time>2026-04-18T17:45:58Z</time></trkpt><trkpt lat="45.67014892001885" lon="3.1110190953159553"><ele>451.5</ele><time>2026-04-18T17:45:59Z</time></trkpt><trkpt lat="45.670219509844294" lon="3.1111721995459587"><ele>451.0</ele><time>2026-04-18T17:46:00Z</time></trkpt><trkpt lat="45.670289009399" lon="3.111342124864607"><ele>450.5</ele><time>2026-04-18T17:46:01Z</time></trkpt><trkpt lat="45.670338417234646" lon="3.111525876855026"><ele>450.0</ele><time>2026-04-18T17:46:02Z</time></trkpt><trkpt lat="45.67039460583641" lon="3.111685920855005"><ele>448.75</ele><time>2026-04-18T17:46:03Z</time></trkpt><trkpt lat="45.67045911371215" lon="3.111823452236946"><ele>447.5</ele><time>2026-04-18T17:46:04Z</time></trkpt><trkpt lat="45.67050001628746" lon="3.1119700854591787"><ele>446.25</ele><time>2026-04-18T17:46:05Z</time></trkpt><trkpt lat="45.67049793391355" lon="3.112127766138011"><ele>445.0</ele><time>2026-04-18T17:46:06Z</time></trkpt><trkpt lat="45.67052447837192" lon="3.1122949474126664"><ele>443.75</ele><time>2026-04-18T17:46:07Z</time></trkpt><trkpt lat="45.670533075201256" lon="3.112484181603528"><ele>442.5</ele><time>2026-04-18T17:46:08Z</time></trkpt><trkpt lat="45.670551545829134" lon="3.112678118490587"><ele>441.25</ele><time>2026-04-18T17:46:09Z</time></trkpt><trkpt lat="45.67056725877977" lon="3.112862551616033"><ele>440.0</ele><time>2026-04-18T17:46:10Z</time></trkpt><trkpt lat="45.67058197486216" lon="3.113037107423665"><ele>440.0</ele><time>2026-04-18T17:46:11Z</time></trkpt><trkpt lat="45.670597904591226" lon="3.1132078652278223"><ele>440.0</ele><time>2026-04-18T17:46:12Z</time></trkpt><trkpt lat="45.67059729948249" lon="3.113378064248621"><ele>440.0</ele><time>2026-04-18T17:46:13Z</time></trkpt><trkpt lat="45.670626973178976" lon="3.113557303976106"><ele>440.0</ele><time>2026-04-18T17:46:14Z</time></trkpt><trkpt lat="45.67063840125742" lon="3.1137529853671375"><ele>438.66666666666663</ele><time>2026-04-18T17:46:15Z</time></trkpt><trkpt lat="45.670660023448015" lon="3.1139697393583945"><ele>437.33333333333337</ele><time>2026-04-18T17:46:16Z</time></trkpt><trkpt lat="45.67067341160476" lon="3.1141962058248907"><ele>436.0</ele><time>2026-04-18T17:46:17Z</time></trkpt><trkpt lat="45.670692186225274" lon="3.1144216353173775"><ele>435.25</ele><time>2026-04-18T17:46:17.999Z</time></trkpt><trkpt lat="45.67070270255" lon="3.1146387264639843"><ele>434.5</ele><time>2026-04-18T17:46:18.999Z</time></trkpt><trkpt lat="45.670722461669826" lon="3.1148360190771966"><ele>433.75</ele><time>2026-04-18T17:46:19.999Z</time></trkpt><trkpt lat="45.67073949031644" lon="3.1150334977496685"><ele>433.0</ele><time>2026-04-18T17:46:20.999Z</time></trkpt><trkpt lat="45.670752405255804" lon="3.115225192369214"><ele>432.75</ele><time>2026-04-18T17:46:21.999Z</time></trkpt><trkpt lat="45.67076676321141" lon="3.115411775694139"><ele>432.5</ele><time>2026-04-18T17:46:22.999Z</time></trkpt><trkpt lat="45.67077729699959" lon="3.1155937876517195"><ele>432.25</ele><time>2026-04-18T17:46:23.999Z</time></trkpt><trkpt lat="45.67078213789784" lon="3.115790619135507"><ele>432.0</ele><time>2026-04-18T17:46:24.999Z</time></trkpt><trkpt lat="45.67077419505965" lon="3.1160018072186597"><ele>431.75</ele><time>2026-04-18T17:46:25.999Z</time></trkpt><trkpt lat="45.670758067684666" lon="3.116225483517037"><ele>431.5</ele><time>2026-04-18T17:46:26.999Z</time></trkpt><trkpt lat="45.67073957956148" lon="3.1164319268840326"><ele>431.25</ele><time>2026-04-18T17:46:27.999Z</time></trkpt><trkpt lat="45.67072206072452" lon="3.116634342248822"><ele>431.0</ele><time>2026-04-18T17:46:28.999Z</time></trkpt><trkpt lat="45.67070595824765" lon="3.1168396164631655"><ele>430.5</ele><time>2026-04-18T17:46:29.999Z</time></trkpt><trkpt lat="45.670691880581714" lon="3.117052684379735"><ele>430.0</ele><time>2026-04-18T17:46:30.999Z</time></trkpt><trkpt lat="45.670678048314464" lon="3.1172725268046766"><ele>429.5</ele><time>2026-04-18T17:46:31.999Z</time></trkpt><trkpt lat="45.67066530873424" lon="3.1174799577730345"><ele>429.0</ele><time>2026-04-18T17:46:32.999Z</time></trkpt><trkpt lat="45.67066636364116" lon="3.117681784153595"><ele>428.0</ele><time>2026-04-18T17:46:33.999Z</time></trkpt><trkpt lat="45.67068967423828" lon="3.117906817836614"><ele>427.0</ele><time>2026-04-18T17:46:34.999Z</time></trkpt><trkpt lat="45.67072784683176" lon="3.1181278568136075"><ele>426.0</ele><time>2026-04-18T17:46:35.999Z</time></trkpt><trkpt lat="45.67078353889154" lon="3.118324825536383"><ele>425.75</ele><time>2026-04-18T17:46:36.999Z</time></trkpt><trkpt lat="45.67083974134335" lon="3.118507499358067"><ele>425.5</ele><time>2026-04-18T17:46:37.999Z</time></trkpt><trkpt lat="45.67089784980661" lon="3.1186829920033317"><ele>425.25</ele><time>2026-04-18T17:46:38.999Z</time></trkpt><trkpt lat="45.67094549605932" lon="3.1188558441113985"><ele>425.0</ele><time>2026-04-18T17:46:39.999Z</time></trkpt><trkpt lat="45.670989614774506" lon="3.11902293778243"><ele>423.5</ele><time>2026-04-18T17:46:40.999Z</time></trkpt><trkpt lat="45.67100337522549" lon="3.1191925631796225"><ele>422.0</ele><time>2026-04-18T17:46:41.999Z</time></trkpt><trkpt lat="45.67102797236968" lon="3.1193610413748893"><ele>420.5</ele><time>2026-04-18T17:46:42.999Z</time></trkpt><trkpt lat="45.671068472343244" lon="3.119528500462077"><ele>419.0</ele><time>2026-04-18T17:46:43.999Z</time></trkpt><trkpt lat="45.67108892723684" lon="3.1196914318094464"><ele>420.6</ele><time>2026-04-18T17:46:44.999Z</time></trkpt><trkpt lat="45.67111045229778" lon="3.1198515297310907"><ele>422.2</ele><time>2026-04-18T17:46:45.999Z</time></trkpt><trkpt lat="45.67113376265833" lon="3.1200019193196984"><ele>423.80000000000007</ele><time>2026-04-18T17:46:46.999Z</time></trkpt><trkpt lat="45.671156846092956" lon="3.120153014077541"><ele>425.40000000000003</ele><time>2026-04-18T17:46:47.999Z</time></trkpt><trkpt lat="45.67118237116201" lon="3.120299549569296"><ele>427.0</ele><time>2026-04-18T17:46:48.999Z</time></trkpt><trkpt lat="45.67121227552429" lon="3.120444454770323"><ele>427.00000000000006</ele><time>2026-04-18T17:46:49.999Z</time></trkpt><trkpt lat="45.671241863520244" lon="3.1205454978938403"><ele>427.0</ele><time>2026-04-18T17:46:50.999Z</time></trkpt><trkpt lat="45.67127376004343" lon="3.1206448832251876"><ele>427.0</ele><time>2026-04-18T17:46:51.999Z</time></trkpt><trkpt lat="45.67132360511424" lon="3.1207925307325546"><ele>427.0</ele><time>2026-04-18T17:46:53.999Z</time></trkpt><trkpt lat="45.67136677313561" lon="3.1209013790036533"><ele>427.00000000000006</ele><time>2026-04-18T17:46:55.999Z</time></trkpt><trkpt lat="45.671403919557406" lon="3.1209867408596472"><ele>427.0</ele><time>2026-04-18T17:46:59.999Z</time></trkpt><trkpt lat="45.67144660378246" lon="3.1211147368631336"><ele>425.8</ele><time>2026-04-18T17:47:05Z</time></trkpt><trkpt lat="45.67151657299011" lon="3.121284592831076"><ele>424.6</ele><time>2026-04-18T17:47:07Z</time></trkpt><trkpt lat="45.67154929182966" lon="3.1213714034872626"><ele>423.40000000000003</ele><time>2026-04-18T17:47:08Z</time></trkpt><trkpt lat="45.671586150103515" lon="3.1214756111251023"><ele>422.20000000000005</ele><time>2026-04-18T17:47:09Z</time></trkpt><trkpt lat="45.67161235499832" lon="3.1216015873906633"><ele>421.0</ele><time>2026-04-18T17:47:10Z</time></trkpt><trkpt lat="45.67162762310699" lon="3.121743852808221"><ele>420.4</ele><time>2026-04-18T17:47:11Z</time></trkpt><trkpt lat="45.67162913684041" lon="3.121887905625849"><ele>419.8</ele><time>2026-04-18T17:47:12Z</time></trkpt><trkpt lat="45.671629119166404" lon="3.1220367854770292"><ele>419.2</ele><time>2026-04-18T17:47:13Z</time></trkpt><trkpt lat="45.67163581952667" lon="3.1221869849874233"><ele>418.59999999999997</ele><time>2026-04-18T17:47:14Z</time></trkpt><trkpt lat="45.67165813406226" lon="3.1223473370636072"><ele>418.0</ele><time>2026-04-18T17:47:15Z</time></trkpt><trkpt lat="45.671695932187795" lon="3.1225134811343214"><ele>417.5</ele><time>2026-04-18T17:47:16Z</time></trkpt><trkpt lat="45.671719396062706" lon="3.122693002251393"><ele>417.0</ele><time>2026-04-18T17:47:17Z</time></trkpt><trkpt lat="45.67176954822197" lon="3.1228553014749156"><ele>416.5</ele><time>2026-04-18T17:47:18Z</time></trkpt><trkpt lat="45.67183140542921" lon="3.1230015696521325"><ele>416.0</ele><time>2026-04-18T17:47:19Z</time></trkpt><trkpt lat="45.67187630184766" lon="3.1231604680265153"><ele>416.75</ele><time>2026-04-18T17:47:20Z</time></trkpt><trkpt lat="45.67189308947984" lon="3.123324384949217"><ele>417.5</ele><time>2026-04-18T17:47:21Z</time></trkpt><trkpt lat="45.671922922556" lon="3.123492221373109"><ele>418.25</ele><time>2026-04-18T17:47:22Z</time></trkpt><trkpt lat="45.67195310350269" lon="3.1236648899143122"><ele>419.0</ele><time>2026-04-18T17:47:23Z</time></trkpt><trkpt lat="45.67199817161694" lon="3.1238388255207377"><ele>419.0</ele><time>2026-04-18T17:47:24Z</time></trkpt><trkpt lat="45.67202779456807" lon="3.1240162557675"><ele>419.0</ele><time>2026-04-18T17:47:25Z</time></trkpt><trkpt lat="45.67205263323665" lon="3.124176597734162"><ele>419.0</ele><time>2026-04-18T17:47:26Z</time></trkpt><trkpt lat="45.67208080396917" lon="3.124318224788145"><ele>419.0</ele><time>2026-04-18T17:47:27Z</time></trkpt><trkpt lat="45.67210058803407" lon="3.1244622226794942"><ele>419.0</ele><time>2026-04-18T17:47:28Z</time></trkpt><trkpt lat="45.672132176249555" lon="3.124608756850781"><ele>418.5</ele><time>2026-04-18T17:47:29Z</time></trkpt><trkpt lat="45.67216424499466" lon="3.124767172620585"><ele>418.0</ele><time>2026-04-18T17:47:30Z</time></trkpt><trkpt lat="45.67220146895353" lon="3.1249347526291316"><ele>417.5</ele><time>2026-04-18T17:47:31Z</time></trkpt><trkpt lat="45.672234070585674" lon="3.125124517678994"><ele>417.0</ele><time>2026-04-18T17:47:32Z</time></trkpt><trkpt lat="45.67230193221354" lon="3.1253125003740796"><ele>416.5</ele><time>2026-04-18T17:47:33Z</time></trkpt><trkpt lat="45.67234763557762" lon="3.125496581090937"><ele>416.0</ele><time>2026-04-18T17:47:34Z</time></trkpt><trkpt lat="45.67238607133164" lon="3.12565994136217"><ele>415.5</ele><time>2026-04-18T17:47:35Z</time></trkpt><trkpt lat="45.67242191088688" lon="3.125803432773321"><ele>415.0</ele><time>2026-04-18T17:47:36Z</time></trkpt><trkpt lat="45.67245729592149" lon="3.125947522849491"><ele>414.8</ele><time>2026-04-18T17:47:37Z</time></trkpt><trkpt lat="45.67249271043136" lon="3.1260980810847143"><ele>414.6</ele><time>2026-04-18T17:47:38Z</time></trkpt><trkpt lat="45.672521257286576" lon="3.1262268402490023"><ele>414.4</ele><time>2026-04-18T17:47:39Z</time></trkpt><trkpt lat="45.672543071263796" lon="3.1263356038471186"><ele>414.2</ele><time>2026-04-18T17:47:40Z</time></trkpt><trkpt lat="45.672570090846754" lon="3.126491977200427"><ele>414.0</ele><time>2026-04-18T17:47:42Z</time></trkpt><trkpt lat="45.67259474120762" lon="3.126643684208299"><ele>414.0</ele><time>2026-04-18T17:47:44Z</time></trkpt><trkpt lat="45.67263846971574" lon="3.1267984432189726"><ele>414.0</ele><time>2026-04-18T17:47:46Z</time></trkpt><trkpt lat="45.672658536329" lon="3.1269176896104227"><ele>414.0</ele><time>2026-04-18T17:47:47Z</time></trkpt><trkpt lat="45.67268992961737" lon="3.127020606770651"><ele>414.0</ele><time>2026-04-18T17:47:48Z</time></trkpt><trkpt lat="45.67270695842359" lon="3.1271703471721555"><ele>414.0</ele><time>2026-04-18T17:47:50Z</time></trkpt><trkpt lat="45.67259600364305" lon="3.127302005469619"><ele>414.0</ele><time>2026-04-18T17:47:52Z</time></trkpt><trkpt lat="45.67252210017245" lon="3.127363079614079"><ele>414.0</ele><time>2026-04-18T17:47:53Z</time></trkpt><trkpt lat="45.67246851120908" lon="3.127426013625566"><ele>414.0</ele><time>2026-04-18T17:47:54Z</time></trkpt><trkpt lat="45.672436450716155" lon="3.1275048657900686"><ele>414.0</ele><time>2026-04-18T17:47:55Z</time></trkpt><trkpt lat="45.6724344581539" lon="3.1276044652112294"><ele>414.0</ele><time>2026-04-18T17:47:56Z</time></trkpt><trkpt lat="45.67246935775868" lon="3.1277784607727686"><ele>414.0</ele><time>2026-04-18T17:47:58Z</time></trkpt><trkpt lat="45.67255234647426" lon="3.127856274711958"><ele>413.6666666666667</ele><time>2026-04-18T17:48:00Z</time></trkpt><trkpt lat="45.67264992942377" lon="3.127852104285327"><ele>413.33333333333337</ele><time>2026-04-18T17:48:02Z</time></trkpt><trkpt lat="45.67263725228874" lon="3.1277468037920473"><ele>413.0</ele><time>2026-04-18T17:48:03Z</time></trkpt><trkpt lat="45.672609311674044" lon="3.1276614838326346"><ele>412.6666666666667</ele><time>2026-04-18T17:52:27Z</time></trkpt><trkpt lat="45.6725523159672" lon="3.1275806206693426"><ele>412.33333333333337</ele><time>2026-04-18T17:52:28.999Z</time></trkpt><trkpt lat="45.67249282500322" lon="3.127510690272769"><ele>412.0</ele><time>2026-04-18T17:52:30.999Z</time></trkpt><trkpt lat="45.67250304895757" lon="3.1274187351379483"><ele>412.00000000000006</ele><time>2026-04-18T17:52:32.999Z</time></trkpt><trkpt lat="45.67256126249081" lon="3.127363615096071"><ele>412.0</ele><time>2026-04-18T17:52:34.999Z</time></trkpt><trkpt lat="45.67263814429838" lon="3.127384747994445"><ele>412.0</ele><time>2026-04-18T17:52:37.999Z</time></trkpt><trkpt lat="45.67273746784624" lon="3.1274438071540005"><ele>412.0</ele><time>2026-04-18T17:52:39.999Z</time></trkpt><trkpt lat="45.672798237895385" lon="3.1274688827636896"><ele>412.00000000000006</ele><time>2026-04-18T17:52:40.999Z</time></trkpt><trkpt lat="45.672844273634105" lon="3.127352821307521"><ele>412.0</ele><time>2026-04-18T17:52:41.999Z</time></trkpt><trkpt lat="45.67279713880972" lon="3.127149807724082"><ele>412.33333333333337</ele><time>2026-04-18T17:52:43.999Z</time></trkpt><trkpt lat="45.67273005360607" lon="3.127092979261106"><ele>412.6666666666667</ele><time>2026-04-18T17:52:44.999Z</time></trkpt><trkpt lat="45.672714864651866" lon="3.1269364365115138"><ele>413.0</ele><time>2026-04-18T17:52:45.999Z</time></trkpt><trkpt lat="45.67267304129997" lon="3.126822392510748"><ele>413.33333333333337</ele><time>2026-04-18T17:52:46.999Z</time></trkpt><trkpt lat="45.67263930222958" lon="3.1267014290023942"><ele>413.6666666666667</ele><time>2026-04-18T17:52:47.999Z</time></trkpt><trkpt lat="45.67261798925316" lon="3.1265912490368444"><ele>414.0</ele><time>2026-04-18T17:52:48.999Z</time></trkpt><trkpt lat="45.672600765117444" lon="3.126488108801342"><ele>414.0</ele><time>2026-04-18T17:52:49.999Z</time></trkpt><trkpt lat="45.67257173028074" lon="3.126327651001263"><ele>414.0</ele><time>2026-04-18T17:52:51.999Z</time></trkpt><trkpt lat="45.67253410251155" lon="3.1261501029321948"><ele>414.0</ele><time>2026-04-18T17:52:53.999Z</time></trkpt><trkpt lat="45.672509624076234" lon="3.126041512733702"><ele>414.0</ele><time>2026-04-18T17:52:54.999Z</time></trkpt><trkpt lat="45.67248046612861" lon="3.1259202086564093"><ele>414.0</ele><time>2026-04-18T17:52:55.999Z</time></trkpt><trkpt lat="45.67244981306056" lon="3.1257946569256587"><ele>414.2</ele><time>2026-04-18T17:52:56.999Z</time></trkpt><trkpt lat="45.67241820952721" lon="3.1256698174833217"><ele>414.4</ele><time>2026-04-18T17:52:57.999Z</time></trkpt><trkpt lat="45.67238744656679" lon="3.1255369880639274"><ele>414.6</ele><time>2026-04-18T17:52:58.999Z</time></trkpt><trkpt lat="45.67234737027512" lon="3.12538766959022"><ele>414.8</ele><time>2026-04-18T17:52:59.999Z</time></trkpt><trkpt lat="45.672309127687896" lon="3.125239350452081"><ele>415.0</ele><time>2026-04-18T17:53:00.999Z</time></trkpt><trkpt lat="45.6722706470059" lon="3.1250866542702953"><ele>415.0</ele><time>2026-04-18T17:53:01.999Z</time></trkpt><trkpt lat="45.67223103237908" lon="3.124941200140233"><ele>415.0</ele><time>2026-04-18T17:53:02.999Z</time></trkpt><trkpt lat="45.67219730532899" lon="3.124809883994351"><ele>415.0</ele><time>2026-04-18T17:53:03.999Z</time></trkpt><trkpt lat="45.672165817390976" lon="3.1246815293722157"><ele>415.0</ele><time>2026-04-18T17:53:04.999Z</time></trkpt><trkpt lat="45.672142107789185" lon="3.124542612873276"><ele>415.0</ele><time>2026-04-18T17:53:05.999Z</time></trkpt><trkpt lat="45.67211760439831" lon="3.124393387427421"><ele>415.4</ele><time>2026-04-18T17:53:06.999Z</time></trkpt><trkpt lat="45.672089292791874" lon="3.1242517825270104"><ele>415.8</ele><time>2026-04-18T17:53:07.999Z</time></trkpt><trkpt lat="45.6720616107648" lon="3.1240958873638887"><ele>416.20000000000005</ele><time>2026-04-18T17:53:08.999Z</time></trkpt><trkpt lat="45.67203708283207" lon="3.123941117908759"><ele>416.6</ele><time>2026-04-18T17:53:09.999Z</time></trkpt><trkpt lat="45.67201082959692" lon="3.1237886493313534"><ele>417.0</ele><time>2026-04-18T17:53:10.999Z</time></trkpt><trkpt lat="45.67198498186536" lon="3.123643522221565"><ele>416.8</ele><time>2026-04-18T17:53:11.999Z</time></trkpt><trkpt lat="45.67196138629705" lon="3.1235035753686144"><ele>416.6</ele><time>2026-04-18T17:53:12.999Z</time></trkpt><trkpt lat="45.67193595394131" lon="3.1233640074094904"><ele>416.40000000000003</ele><time>2026-04-18T17:53:13.999Z</time></trkpt><trkpt lat="45.67190679802456" lon="3.123220022169743"><ele>416.20000000000005</ele><time>2026-04-18T17:53:14.999Z</time></trkpt><trkpt lat="45.671870253277014" lon="3.1230729200110563"><ele>416.0</ele><time>2026-04-18T17:53:15.999Z</time></trkpt><trkpt lat="45.67183189516953" lon="3.122927026623095"><ele>416.0</ele><time>2026-04-18T17:53:16.999Z</time></trkpt><trkpt lat="45.67179057492952" lon="3.1227889767185766"><ele>416.0</ele><time>2026-04-18T17:53:18Z</time></trkpt><trkpt lat="45.67175299588264" lon="3.122650602430389"><ele>416.0</ele><time>2026-04-18T17:53:19Z</time></trkpt><trkpt lat="45.67172021138963" lon="3.122512484251506"><ele>416.0</ele><time>2026-04-18T17:53:20Z</time></trkpt><trkpt lat="45.671689228188576" lon="3.122367614886822"><ele>416.0</ele><time>2026-04-18T17:53:21Z</time></trkpt><trkpt lat="45.67166053971444" lon="3.1222146340997883"><ele>416.3333333333333</ele><time>2026-04-18T17:53:22Z</time></trkpt><trkpt lat="45.67164905609587" lon="3.122077173201844"><ele>416.66666666666663</ele><time>2026-04-18T17:53:23Z</time></trkpt><trkpt lat="45.67164879877868" lon="3.1219448512812797"><ele>417.0</ele><time>2026-04-18T17:53:24Z</time></trkpt><trkpt lat="45.671648302314864" lon="3.1218343474965278"><ele>417.33333333333337</ele><time>2026-04-18T17:53:25Z</time></trkpt><trkpt lat="45.67164977259171" lon="3.1217371446498"><ele>417.6666666666667</ele><time>2026-04-18T17:53:26Z</time></trkpt><trkpt lat="45.67164197623682" lon="3.1216433127484"><ele>418.0</ele><time>2026-04-18T17:53:27Z</time></trkpt><trkpt lat="45.67162880846439" lon="3.1215493491898685"><ele>418.59999999999997</ele><time>2026-04-18T17:53:29Z</time></trkpt><trkpt lat="45.671601769468474" lon="3.1214512963003904"><ele>419.2</ele><time>2026-04-18T17:53:37Z</time></trkpt><trkpt lat="45.67157387653047" lon="3.1213548038541727"><ele>419.8</ele><time>2026-04-18T17:53:38Z</time></trkpt><trkpt lat="45.67153018850517" lon="3.1212389322108476"><ele>420.4</ele><time>2026-04-18T17:53:39Z</time></trkpt><trkpt lat="45.671464962398474" lon="3.121075432932422"><ele>421.0</ele><time>2026-04-18T17:53:40Z</time></trkpt><trkpt lat="45.671409012434886" lon="3.1209339814356376"><ele>421.0</ele><time>2026-04-18T17:53:41Z</time></trkpt><trkpt lat="45.671357142088524" lon="3.1207911625331533"><ele>421.0</ele><time>2026-04-18T17:53:42Z</time></trkpt><trkpt lat="45.671307865173134" lon="3.1206468262658498"><ele>421.0</ele><time>2026-04-18T17:53:43Z</time></trkpt><trkpt lat="45.67125785884072" lon="3.1204955429044374"><ele>421.0</ele><time>2026-04-18T17:53:44Z</time></trkpt><trkpt lat="45.67122017824706" lon="3.1203416888504485"><ele>422.5</ele><time>2026-04-18T17:53:45Z</time></trkpt><trkpt lat="45.671189245563106" lon="3.1201798755366186"><ele>424.0</ele><time>2026-04-18T17:53:46Z</time></trkpt><trkpt lat="45.671164453021746" lon="3.1200077746175556"><ele>425.5</ele><time>2026-04-18T17:53:47Z</time></trkpt><trkpt lat="45.67113746179768" lon="3.119813560608145"><ele>427.0</ele><time>2026-04-18T17:53:48Z</time></trkpt><trkpt lat="45.671109382502536" lon="3.119636252443794"><ele>426.5</ele><time>2026-04-18T17:53:49Z</time></trkpt><trkpt lat="45.67108388018401" lon="3.1194491515162306"><ele>426.0</ele><time>2026-04-18T17:53:50Z</time></trkpt><trkpt lat="45.671057331071395" lon="3.119269278267397"><ele>425.5</ele><time>2026-04-18T17:53:51Z</time></trkpt><trkpt lat="45.67103110103307" lon="3.119086038253157"><ele>425.0</ele><time>2026-04-18T17:53:52Z</time></trkpt><trkpt lat="45.6709947508765" lon="3.118902817619419"><ele>425.0</ele><time>2026-04-18T17:53:53Z</time></trkpt><trkpt lat="45.670942176213764" lon="3.1187298742426797"><ele>425.0</ele><time>2026-04-18T17:53:54Z</time></trkpt><trkpt lat="45.670885955485886" lon="3.118555276239919"><ele>425.0</ele><time>2026-04-18T17:53:55Z</time></trkpt><trkpt lat="45.670834906188844" lon="3.1183763445306076"><ele>425.0</ele><time>2026-04-18T17:53:56Z</time></trkpt><trkpt lat="45.67077954938478" lon="3.118184591704119"><ele>425.25</ele><time>2026-04-18T17:53:57Z</time></trkpt><trkpt lat="45.670734311643464" lon="3.1179894258030596"><ele>425.5</ele><time>2026-04-18T17:53:58Z</time></trkpt><trkpt lat="45.670701465850556" lon="3.117809967736223"><ele>425.75</ele><time>2026-04-18T17:53:59Z</time></trkpt><trkpt lat="45.670688128526095" lon="3.1176327779324087"><ele>426.0</ele><time>2026-04-18T17:54:00Z</time></trkpt><trkpt lat="45.67069125618661" lon="3.1174437680984655"><ele>426.75</ele><time>2026-04-18T17:54:01Z</time></trkpt><trkpt lat="45.67070429300205" lon="3.1172415785443084"><ele>427.5</ele><time>2026-04-18T17:54:02Z</time></trkpt><trkpt lat="45.67071923981572" lon="3.1170421854255905"><ele>428.25</ele><time>2026-04-18T17:54:03Z</time></trkpt><trkpt lat="45.67074052908831" lon="3.116839502329516"><ele>429.0</ele><time>2026-04-18T17:54:04Z</time></trkpt><trkpt lat="45.670761733933155" lon="3.1166268938650568"><ele>429.66666666666663</ele><time>2026-04-18T17:54:05Z</time></trkpt><trkpt lat="45.67077687341579" lon="3.1164187883699745"><ele>430.3333333333333</ele><time>2026-04-18T17:54:06Z</time></trkpt><trkpt lat="45.67079074130114" lon="3.116192305104068"><ele>431.0</ele><time>2026-04-18T17:54:07Z</time></trkpt><trkpt lat="45.67080236688347" lon="3.1159590184228425"><ele>431.3333333333333</ele><time>2026-04-18T17:54:08Z</time></trkpt><trkpt lat="45.67080800555353" lon="3.115716708768822"><ele>431.66666666666663</ele><time>2026-04-18T17:54:09Z</time></trkpt><trkpt lat="45.67080081857824" lon="3.115472671658267"><ele>432.0</ele><time>2026-04-18T17:54:10Z</time></trkpt><trkpt lat="45.67078559936183" lon="3.115227637321519"><ele>432.0</ele><time>2026-04-18T17:54:11Z</time></trkpt><trkpt lat="45.67076644686025" lon="3.114976346291818"><ele>432.0</ele><time>2026-04-18T17:54:12Z</time></trkpt><trkpt lat="45.67074374845771" lon="3.114734871533631"><ele>432.0</ele><time>2026-04-18T17:54:13Z</time></trkpt><trkpt lat="45.670721189334316" lon="3.1144961611548916"><ele>432.25</ele><time>2026-04-18T17:54:14Z</time></trkpt><trkpt lat="45.6707060147759" lon="3.1142844810817527"><ele>432.5</ele><time>2026-04-18T17:54:15Z</time></trkpt><trkpt lat="45.670689920500706" lon="3.1140942992637526"><ele>432.75</ele><time>2026-04-18T17:54:15.999Z</time></trkpt><trkpt lat="45.67067831224794" lon="3.1139190659681555"><ele>433.0</ele><time>2026-04-18T17:54:16.999Z</time></trkpt><trkpt lat="45.670664480924216" lon="3.113757111745728"><ele>433.50000000000006</ele><time>2026-04-18T17:54:17.999Z</time></trkpt><trkpt lat="45.6706531515791" lon="3.113610389887094"><ele>434.0</ele><time>2026-04-18T17:54:18.999Z</time></trkpt><trkpt lat="45.670641281054564" lon="3.1134777981014063"><ele>434.5</ele><time>2026-04-18T17:54:19.999Z</time></trkpt><trkpt lat="45.67063042026167" lon="3.113351071531964"><ele>435.0</ele><time>2026-04-18T17:54:20.999Z</time></trkpt><trkpt lat="45.670620650101704" lon="3.113236991785179"><ele>435.50000000000006</ele><time>2026-04-18T17:54:21.999Z</time></trkpt><trkpt lat="45.67061004606969" lon="3.113135756841865"><ele>436.0</ele><time>2026-04-18T17:54:22.999Z</time></trkpt><trkpt lat="45.67060236410711" lon="3.1130395352916875"><ele>436.8</ele><time>2026-04-18T17:54:23.999Z</time></trkpt><trkpt lat="45.67061258213801" lon="3.1129078188510704"><ele>437.6</ele><time>2026-04-18T17:54:25.999Z</time></trkpt><trkpt lat="45.67071313468559" lon="3.112933396034653"><ele>438.4</ele><time>2026-04-18T17:54:27.999Z</time></trkpt><trkpt lat="45.67081633124485" lon="3.112866793226697"><ele>439.2</ele><time>2026-04-18T17:54:29.999Z</time></trkpt><trkpt lat="45.6709067147286" lon="3.1128009322314427"><ele>440.0</ele><time>2026-04-18T17:54:31.999Z</time></trkpt><trkpt lat="45.670966215734005" lon="3.11275831467141"><ele>440.0</ele><time>2026-04-18T17:54:33.999Z</time></trkpt><trkpt lat="45.6710291056706" lon="3.112709026942138"><ele>440.0</ele><time>2026-04-18T17:54:36.999Z</time></trkpt><trkpt lat="45.67109009917715" lon="3.112685364537564"><ele>440.0</ele><time>2026-04-18T17:54:42.999Z</time></trkpt><trkpt lat="45.6712729033083" lon="3.112776570630764"><ele>440.0</ele><time>2026-04-18T17:54:47.999Z</time></trkpt><trkpt lat="45.67130264415024" lon="3.112862377347128"><ele>440.0</ele><time>2026-04-18T17:54:50.999Z</time></trkpt><trkpt lat="45.67115122704335" lon="3.1130026928717753"><ele>439.99999999999994</ele><time>2026-04-18T17:54:51.999Z</time></trkpt><trkpt lat="45.67109453249509" lon="3.1130718685263292"><ele>440.0</ele><time>2026-04-18T17:54:54.999Z</time></trkpt><trkpt lat="45.67099746181274" lon="3.113124142684837"><ele>440.0</ele><time>2026-04-18T17:54:55.999Z</time></trkpt><trkpt lat="45.671102873957295" lon="3.113108552542712"><ele>440.0</ele><time>2026-04-18T17:57:39.999Z</time></trkpt><trkpt lat="45.67113861684105" lon="3.1130309451439406"><ele>439.99999999999994</ele><time>2026-04-18T17:57:48.999Z</time></trkpt><trkpt lat="45.67118606167472" lon="3.112948407615621"><ele>440.0</ele><time>2026-04-18T17:57:50.999Z</time></trkpt><trkpt lat="45.67116242128081" lon="3.1128593226957646"><ele>440.0</ele><time>2026-04-18T17:57:53.999Z</time></trkpt><trkpt lat="45.67115853113006" lon="3.112716439509369"><ele>440.0</ele><time>2026-04-18T17:57:55.999Z</time></trkpt><trkpt lat="45.671157961603654" lon="3.1125852050123908"><ele>440.0</ele><time>2026-04-18T17:57:57.999Z</time></trkpt><trkpt lat="45.67116699773587" lon="3.112459528179002"><ele>440.0</ele><time>2026-04-18T17:58:00.03Z</time></trkpt><trkpt lat="45.67117966612538" lon="3.112637295438598"><ele>440.0</ele><time>2026-04-18T17:58:04.045Z</time></trkpt><trkpt lat="45.67108736178217" lon="3.1129931497014622"><ele>439.99999999999994</ele><time>2026-04-18T17:58:20.018Z</time></trkpt><trkpt lat="45.67109576587275" lon="3.113100601222673"><ele>440.0</ele><time>2026-04-18T17:58:49.999Z</time></trkpt><trkpt lat="45.67110319921574" lon="3.113006140727801"><ele>440.0</ele><time>2026-04-18T17:58:56.999Z</time></trkpt><trkpt lat="45.67111141142307" lon="3.1129076808731337"><ele>440.0</ele><time>2026-04-18T17:59:09.999Z</time></trkpt><trkpt lat="45.67110406134542" lon="3.113078647252678"><ele>439.99999999999994</ele><time>2026-04-18T17:59:28.999Z</time></trkpt><trkpt lat="45.671046329924465" lon="3.113038268827328"><ele>440.0</ele><time>2026-04-18T17:59:53Z</time></trkpt><trkpt lat="45.67114088023333" lon="3.1131068189133195"><ele>439.0</ele><time>2026-04-18T17:59:55Z</time></trkpt></trkseg></trk></gpx>